<?xml version='1.0' encoding='UTF-8'?><gpx version="1.1" creator="JPX - https://github.com/jenetics/jpx" xmlns="http://www.topografix.com/GPX/1/1"><trk><trkseg><trkpt lat="43.16079431679544" lon="12.28413529766656"><ele>252.0</ele><time>2026-03-29T07:18:04.998Z</time></trkpt><trkpt lat="43.160816243578076" lon="12.284226793159768"><ele>252.0</ele><time>2026-03-29T07:18:15.998Z</time></trkpt><trkpt lat="43.16087837924705" lon="12.284210179078814"><ele>252.0</ele><time>2026-03-29T07:18:31.998Z</time></trkpt><trkpt lat="43.16083528559937" lon="12.284135990154343"><ele>252.0</ele><time>2026-03-29T07:24:49.999Z</time></trkpt><trkpt lat="43.16089722696467" lon="12.284038039185898"><ele>252.0</ele><time>2026-03-29T07:24:51.999Z</time></trkpt><trkpt lat="43.160958852779764" lon="12.284009702413936"><ele>252.0</ele><time>2026-03-29T07:24:52.999Z</time></trkpt><trkpt lat="43.16103628298597" lon="12.283964391695417"><ele>252.0</ele><time>2026-03-29T07:24:54.999Z</time></trkpt><trkpt lat="43.16111265558454" lon="12.283939359251338"><ele>251.6</ele><time>2026-03-29T07:24:56.999Z</time></trkpt><trkpt lat="43.161216338193796" lon="12.283861268230659"><ele>251.2</ele><time>2026-03-29T07:24:58.999Z</time></trkpt><trkpt lat="43.16126556179861" lon="12.283767267178739"><ele>250.8</ele><time>2026-03-29T07:24:59.999Z</time></trkpt><trkpt lat="43.16131016404623" lon="12.283644091067446"><ele>250.4</ele><time>2026-03-29T07:25:00.999Z</time></trkpt><trkpt lat="43.1613633643436" lon="12.283558090968622"><ele>250.0</ele><time>2026-03-29T07:25:01.999Z</time></trkpt><trkpt lat="43.16142895317353" lon="12.283432151412569"><ele>249.99999999999997</ele><time>2026-03-29T07:25:03.999Z</time></trkpt><trkpt lat="43.16147925294484" lon="12.283331390553471"><ele>250.0</ele><time>2026-03-29T07:25:05.999Z</time></trkpt><trkpt lat="43.161533317591406" lon="12.283218753940622"><ele>250.0</ele><time>2026-03-29T07:25:07.999Z</time></trkpt><trkpt lat="43.161583468755445" lon="12.28314876712354"><ele>250.0</ele><time>2026-03-29T07:25:11.999Z</time></trkpt><trkpt lat="43.16162011776192" lon="12.283076879663742"><ele>249.99999999999997</ele><time>2026-03-29T07:25:15.999Z</time></trkpt><trkpt lat="43.161659680568356" lon="12.282999792362128"><ele>250.0</ele><time>2026-03-29T07:25:20.999Z</time></trkpt><trkpt lat="43.16166761149823" lon="12.28290964698704"><ele>250.16666666666666</ele><time>2026-03-29T07:26:40.999Z</time></trkpt><trkpt lat="43.16171174270419" lon="12.282847813558336"><ele>250.33333333333331</ele><time>2026-03-29T07:28:16Z</time></trkpt><trkpt lat="43.161756750416714" lon="12.282759373598028"><ele>250.5</ele><time>2026-03-29T07:28:26.999Z</time></trkpt><trkpt lat="43.16184573290179" lon="12.2826987927727"><ele>250.66666666666669</ele><time>2026-03-29T07:28:28.999Z</time></trkpt><trkpt lat="43.16190621688608" lon="12.282572403531459"><ele>250.83333333333334</ele><time>2026-03-29T07:28:30.999Z</time></trkpt><trkpt lat="43.16194261185703" lon="12.282491361108223"><ele>251.0</ele><time>2026-03-29T07:28:32.999Z</time></trkpt><trkpt lat="43.16199179690926" lon="12.282374199800524"><ele>250.75</ele><time>2026-03-29T07:28:40.999Z</time></trkpt><trkpt lat="43.16206440757498" lon="12.282223450059272"><ele>250.5</ele><time>2026-03-29T07:28:42.999Z</time></trkpt><trkpt lat="43.162106580998454" lon="12.282099595787717"><ele>250.25</ele><time>2026-03-29T07:28:43.999Z</time></trkpt><trkpt lat="43.16217281681475" lon="12.28197856053456"><ele>250.0</ele><time>2026-03-29T07:28:44.999Z</time></trkpt><trkpt lat="43.16224333402815" lon="12.281842402298587"><ele>250.0</ele><time>2026-03-29T07:28:45.999Z</time></trkpt><trkpt lat="43.16228844828913" lon="12.281737699147502"><ele>250.0</ele><time>2026-03-29T07:28:46.999Z</time></trkpt><trkpt lat="43.16234269891914" lon="12.281627147905995"><ele>250.0</ele><time>2026-03-29T07:28:48.999Z</time></trkpt><trkpt lat="43.16241508416626" lon="12.281501655640296"><ele>250.0</ele><time>2026-03-29T07:28:50.999Z</time></trkpt><trkpt lat="43.162461871757195" lon="12.281412021993964"><ele>250.0</ele><time>2026-03-29T07:28:51.999Z</time></trkpt><trkpt lat="43.1625065018117" lon="12.281320748161413"><ele>250.0</ele><time>2026-03-29T07:28:52.999Z</time></trkpt><trkpt lat="43.16254468698252" lon="12.281245169796463"><ele>250.0</ele><time>2026-03-29T07:28:53.999Z</time></trkpt><trkpt lat="43.16258182432372" lon="12.281172433000894"><ele>250.0</ele><time>2026-03-29T07:28:54.999Z</time></trkpt><trkpt lat="43.162628270878386" lon="12.281075364125353"><ele>250.0</ele><time>2026-03-29T07:28:55.999Z</time></trkpt><trkpt lat="43.16269678445494" lon="12.28093918025092"><ele>250.0</ele><time>2026-03-29T07:28:56.999Z</time></trkpt><trkpt lat="43.16276645948534" lon="12.280816932486681"><ele>250.0</ele><time>2026-03-29T07:28:57.999Z</time></trkpt><trkpt lat="43.16283078429646" lon="12.28069703471951"><ele>250.0</ele><time>2026-03-29T07:28:58.999Z</time></trkpt><trkpt lat="43.16290130404506" lon="12.280564799081066"><ele>250.0</ele><time>2026-03-29T07:28:59.999Z</time></trkpt><trkpt lat="43.162974279874454" lon="12.28042685586312"><ele>250.0</ele><time>2026-03-29T07:29:00.999Z</time></trkpt><trkpt lat="43.16304814706641" lon="12.280279488254108"><ele>250.2</ele><time>2026-03-29T07:29:01.999Z</time></trkpt><trkpt lat="43.163120879152125" lon="12.280134918329045"><ele>250.4</ele><time>2026-03-29T07:29:02.999Z</time></trkpt><trkpt lat="43.16318819918964" lon="12.280006168876685"><ele>250.60000000000002</ele><time>2026-03-29T07:29:03.999Z</time></trkpt><trkpt lat="43.163250216968706" lon="12.279897236995145"><ele>250.8</ele><time>2026-03-29T07:29:04.999Z</time></trkpt><trkpt lat="43.163303216054096" lon="12.279791294429332"><ele>251.0</ele><time>2026-03-29T07:29:05.999Z</time></trkpt><trkpt lat="43.16336472946884" lon="12.27967650927432"><ele>251.20000000000002</ele><time>2026-03-29T07:29:06.999Z</time></trkpt><trkpt lat="43.163443132062454" lon="12.279558311948481"><ele>251.40000000000003</ele><time>2026-03-29T07:29:07.999Z</time></trkpt><trkpt lat="43.163536914282496" lon="12.279484147092122"><ele>251.6</ele><time>2026-03-29T07:29:08.999Z</time></trkpt><trkpt lat="43.16360868141827" lon="12.279424236460251"><ele>251.8</ele><time>2026-03-29T07:29:09.999Z</time></trkpt><trkpt lat="43.163682046148445" lon="12.279383084039727"><ele>252.0</ele><time>2026-03-29T07:29:10.999Z</time></trkpt><trkpt lat="43.16375796885375" lon="12.279324934361963"><ele>252.0</ele><time>2026-03-29T07:29:11.999Z</time></trkpt><trkpt lat="43.16384296869305" lon="12.279295853910595"><ele>252.0</ele><time>2026-03-29T07:29:12.999Z</time></trkpt><trkpt lat="43.163930395130386" lon="12.279267819336726"><ele>252.0</ele><time>2026-03-29T07:29:13.999Z</time></trkpt><trkpt lat="43.16400338571931" lon="12.279238177467324"><ele>252.0</ele><time>2026-03-29T07:29:14.999Z</time></trkpt><trkpt lat="43.164075197184445" lon="12.279217549340508"><ele>252.0</ele><time>2026-03-29T07:29:15.999Z</time></trkpt><trkpt lat="43.164146919228884" lon="12.279209506458397"><ele>252.0</ele><time>2026-03-29T07:29:16.999Z</time></trkpt><trkpt lat="43.164227699558054" lon="12.279189171692284"><ele>252.39999999999998</ele><time>2026-03-29T07:29:17.999Z</time></trkpt><trkpt lat="43.16430661688912" lon="12.279177737081659"><ele>252.79999999999998</ele><time>2026-03-29T07:29:18.999Z</time></trkpt><trkpt lat="43.164413578195486" lon="12.279164354197189"><ele>253.2</ele><time>2026-03-29T07:29:19.999Z</time></trkpt><trkpt lat="43.164528016347475" lon="12.279150885266422"><ele>253.6</ele><time>2026-03-29T07:29:20.999Z</time></trkpt><trkpt lat="43.16463083136117" lon="12.279140385692399"><ele>254.0</ele><time>2026-03-29T07:29:21.999Z</time></trkpt><trkpt lat="43.16471750211643" lon="12.279132587374121"><ele>254.00000000000003</ele><time>2026-03-29T07:29:22.999Z</time></trkpt><trkpt lat="43.164789090565094" lon="12.279126146109197"><ele>254.0</ele><time>2026-03-29T07:29:23.999Z</time></trkpt><trkpt lat="43.16486267626337" lon="12.279106569761117"><ele>254.0</ele><time>2026-03-29T07:29:24.999Z</time></trkpt><trkpt lat="43.16494502152224" lon="12.279108140049829"><ele>254.0</ele><time>2026-03-29T07:29:25.999Z</time></trkpt><trkpt lat="43.165031574959556" lon="12.279095519742935"><ele>254.00000000000003</ele><time>2026-03-29T07:29:26.999Z</time></trkpt><trkpt lat="43.165121913438504" lon="12.279069116979064"><ele>254.0</ele><time>2026-03-29T07:29:27.998Z</time></trkpt><trkpt lat="43.16521019072986" lon="12.27901891047225"><ele>254.0</ele><time>2026-03-29T07:29:28.998Z</time></trkpt><trkpt lat="43.16529647560353" lon="12.278956606725496"><ele>253.99999999999997</ele><time>2026-03-29T07:29:29.998Z</time></trkpt><trkpt lat="43.165384745954825" lon="12.278898962179502"><ele>253.99999999999997</ele><time>2026-03-29T07:29:30.998Z</time></trkpt><trkpt lat="43.16546935610373" lon="12.27882664921151"><ele>254.0</ele><time>2026-03-29T07:29:31.998Z</time></trkpt><trkpt lat="43.1655569867617" lon="12.278766435930352"><ele>254.0</ele><time>2026-03-29T07:29:32.998Z</time></trkpt><trkpt lat="43.16564310960636" lon="12.27873024363763"><ele>254.79999999999998</ele><time>2026-03-29T07:29:33.998Z</time></trkpt><trkpt lat="43.16573051752816" lon="12.278707034976051"><ele>255.59999999999997</ele><time>2026-03-29T07:29:34.998Z</time></trkpt><trkpt lat="43.1658255279087" lon="12.27867716302582"><ele>256.4</ele><time>2026-03-29T07:29:35.998Z</time></trkpt><trkpt lat="43.16591659681917" lon="12.278667191176865"><ele>257.2</ele><time>2026-03-29T07:29:36.998Z</time></trkpt><trkpt lat="43.166018004934315" lon="12.278644298183686"><ele>258.0</ele><time>2026-03-29T07:29:37.998Z</time></trkpt><trkpt lat="43.16611875432338" lon="12.278625008048913"><ele>258.0</ele><time>2026-03-29T07:29:38.998Z</time></trkpt><trkpt lat="43.16622397072689" lon="12.278607160804475"><ele>258.0</ele><time>2026-03-29T07:29:39.998Z</time></trkpt><trkpt lat="43.16633359697714" lon="12.278591689573105"><ele>258.0</ele><time>2026-03-29T07:29:40.998Z</time></trkpt><trkpt lat="43.16644305154917" lon="12.278572182211212"><ele>258.0</ele><time>2026-03-29T07:29:41.998Z</time></trkpt><trkpt lat="43.166558000430406" lon="12.27855320785898"><ele>258.0</ele><time>2026-03-29T07:29:42.998Z</time></trkpt><trkpt lat="43.16666806459778" lon="12.278532775227994"><ele>259.0</ele><time>2026-03-29T07:29:43.998Z</time></trkpt><trkpt lat="43.16677472346811" lon="12.278516383657307"><ele>260.0</ele><time>2026-03-29T07:29:44.998Z</time></trkpt><trkpt lat="43.166859469828225" lon="12.278491220896177"><ele>261.0</ele><time>2026-03-29T07:29:45.998Z</time></trkpt><trkpt lat="43.166927633394195" lon="12.278438926020529"><ele>262.0</ele><time>2026-03-29T07:29:46.998Z</time></trkpt><trkpt lat="43.166998181706255" lon="12.278379557549284"><ele>263.0</ele><time>2026-03-29T07:29:47.998Z</time></trkpt><trkpt lat="43.1670827759355" lon="12.278371527182314"><ele>264.0</ele><time>2026-03-29T07:29:49Z</time></trkpt><trkpt lat="43.16716189272303" lon="12.278429595762962"><ele>264.0</ele><time>2026-03-29T07:29:50Z</time></trkpt><trkpt lat="43.16725678163829" lon="12.27848694070855"><ele>264.0</ele><time>2026-03-29T07:29:51Z</time></trkpt><trkpt lat="43.16732816195525" lon="12.27855073557572"><ele>264.0</ele><time>2026-03-29T07:29:52Z</time></trkpt><trkpt lat="43.16740424420647" lon="12.278604651253925"><ele>264.0</ele><time>2026-03-29T07:29:53Z</time></trkpt><trkpt lat="43.16748273117201" lon="12.278652394993786"><ele>264.0</ele><time>2026-03-29T07:29:54Z</time></trkpt><trkpt lat="43.16754909747246" lon="12.27869200566653"><ele>264.0</ele><time>2026-03-29T07:29:55Z</time></trkpt><trkpt lat="43.16760915090559" lon="12.278728418499519"><ele>266.4</ele><time>2026-03-29T07:29:56Z</time></trkpt><trkpt lat="43.16768953377223" lon="12.278782080558614"><ele>268.79999999999995</ele><time>2026-03-29T07:29:58Z</time></trkpt><trkpt lat="43.16776923065926" lon="12.27881833794374"><ele>271.20000000000005</ele><time>2026-03-29T07:30:00Z</time></trkpt><trkpt lat="43.16782258465067" lon="12.278748888126112"><ele>273.6</ele><time>2026-03-29T07:30:02Z</time></trkpt><trkpt lat="43.16780324282797" lon="12.27859617813944"><ele>276.0</ele><time>2026-03-29T07:30:04Z</time></trkpt><trkpt lat="43.167778593941215" lon="12.278474485617375"><ele>276.0</ele><time>2026-03-29T07:30:05Z</time></trkpt><trkpt lat="43.16774292627011" lon="12.27835337855675"><ele>276.0</ele><time>2026-03-29T07:30:06Z</time></trkpt><trkpt lat="43.16770562940667" lon="12.278245248185344"><ele>276.0</ele><time>2026-03-29T07:30:07Z</time></trkpt><trkpt lat="43.167666940594096" lon="12.278128385400581"><ele>276.0</ele><time>2026-03-29T07:30:08Z</time></trkpt><trkpt lat="43.1676275070107" lon="12.278001467453644"><ele>276.0</ele><time>2026-03-29T07:30:09Z</time></trkpt><trkpt lat="43.167590370911384" lon="12.277873557123957"><ele>279.75</ele><time>2026-03-29T07:30:10Z</time></trkpt><trkpt lat="43.167549482618185" lon="12.277733453952338"><ele>283.5</ele><time>2026-03-29T07:30:11Z</time></trkpt><trkpt lat="43.167502679440645" lon="12.277580933196791"><ele>287.25</ele><time>2026-03-29T07:30:12Z</time></trkpt><trkpt lat="43.16744753302579" lon="12.277421245883035"><ele>291.0</ele><time>2026-03-29T07:30:13Z</time></trkpt><trkpt lat="43.16739031906839" lon="12.277271365299866"><ele>288.5</ele><time>2026-03-29T07:30:14Z</time></trkpt><trkpt lat="43.16732758922029" lon="12.277109525072927"><ele>286.0</ele><time>2026-03-29T07:30:15Z</time></trkpt><trkpt lat="43.16727087502708" lon="12.276945184911515"><ele>283.5</ele><time>2026-03-29T07:30:16Z</time></trkpt><trkpt lat="43.16721658132123" lon="12.276780843761381"><ele>281.0</ele><time>2026-03-29T07:30:17Z</time></trkpt><trkpt lat="43.16716492131872" lon="12.276622401430377"><ele>281.0</ele><time>2026-03-29T07:30:18Z</time></trkpt><trkpt lat="43.16711907628711" lon="12.276486156909808"><ele>281.0</ele><time>2026-03-29T07:30:19Z</time></trkpt><trkpt lat="43.16706177748376" lon="12.276361776318941"><ele>281.0</ele><time>2026-03-29T07:30:20Z</time></trkpt><trkpt lat="43.16702609940762" lon="12.27624799937647"><ele>281.0</ele><time>2026-03-29T07:30:21Z</time></trkpt><trkpt lat="43.167016947924175" lon="12.276151735153201"><ele>281.0</ele><time>2026-03-29T07:30:22Z</time></trkpt><trkpt lat="43.16699901652436" lon="12.276055879386785"><ele>283.40000000000003</ele><time>2026-03-29T07:30:23Z</time></trkpt><trkpt lat="43.167038155891014" lon="12.275938285618105"><ele>285.8</ele><time>2026-03-29T07:30:25Z</time></trkpt><trkpt lat="43.16711562177776" lon="12.275960671314182"><ele>288.20000000000005</ele><time>2026-03-29T07:30:27Z</time></trkpt><trkpt lat="43.16722186540974" lon="12.276044988748813"><ele>290.6</ele><time>2026-03-29T07:30:29Z</time></trkpt><trkpt lat="43.1672851467359" lon="12.276132683163025"><ele>293.0</ele><time>2026-03-29T07:30:29.999Z</time></trkpt><trkpt lat="43.1673459139682" lon="12.276221560199986"><ele>295.2</ele><time>2026-03-29T07:30:30.999Z</time></trkpt><trkpt lat="43.167396853692495" lon="12.276285559797985"><ele>297.4</ele><time>2026-03-29T07:30:31.999Z</time></trkpt><trkpt lat="43.167457411549215" lon="12.27639466428017"><ele>299.59999999999997</ele><time>2026-03-29T07:30:33.999Z</time></trkpt><trkpt lat="43.167460760893185" lon="12.276510524431941"><ele>301.8</ele><time>2026-03-29T07:30:35.999Z</time></trkpt><trkpt lat="43.16756243458752" lon="12.276622756663997"><ele>304.0</ele><time>2026-03-29T07:30:37.999Z</time></trkpt><trkpt lat="43.16760153999113" lon="12.27677955225958"><ele>304.0</ele><time>2026-03-29T07:30:39.999Z</time></trkpt><trkpt lat="43.16762242705807" lon="12.276861912612294"><ele>304.0</ele><time>2026-03-29T07:30:40.999Z</time></trkpt><trkpt lat="43.16770008288033" lon="12.276994466693823"><ele>304.0</ele><time>2026-03-29T07:30:42.999Z</time></trkpt><trkpt lat="43.1677482449782" lon="12.277059227637547"><ele>304.0</ele><time>2026-03-29T07:30:43.999Z</time></trkpt><trkpt lat="43.16780354628867" lon="12.277111577102978"><ele>304.0</ele><time>2026-03-29T07:30:44.999Z</time></trkpt><trkpt lat="43.167866959476314" lon="12.277160153653396"><ele>304.0</ele><time>2026-03-29T07:30:45.999Z</time></trkpt><trkpt lat="43.16793051366677" lon="12.27719984748703"><ele>304.0</ele><time>2026-03-29T07:30:46.999Z</time></trkpt><trkpt lat="43.167996442265974" lon="12.277239033145756"><ele>304.0</ele><time>2026-03-29T07:30:47.999Z</time></trkpt><trkpt lat="43.16806360548807" lon="12.277261773127046"><ele>304.0</ele><time>2026-03-29T07:30:48.999Z</time></trkpt><trkpt lat="43.1681210920932" lon="12.277316738877323"><ele>304.0</ele><time>2026-03-29T07:30:49.999Z</time></trkpt><trkpt lat="43.16818415831203" lon="12.277338835029866"><ele>304.0</ele><time>2026-03-29T07:30:50.999Z</time></trkpt><trkpt lat="43.16821864645106" lon="12.277415714588347"><ele>304.0</ele><time>2026-03-29T07:30:51.999Z</time></trkpt><trkpt lat="43.168280249782924" lon="12.277442131176684"><ele>304.0</ele><time>2026-03-29T07:30:52.999Z</time></trkpt><trkpt lat="43.16834369107065" lon="12.277436264899718"><ele>304.16666666666663</ele><time>2026-03-29T07:30:53.999Z</time></trkpt><trkpt lat="43.16840025845695" lon="12.277392899265829"><ele>304.3333333333333</ele><time>2026-03-29T07:30:54.999Z</time></trkpt><trkpt lat="43.168479569074876" lon="12.277357953202372"><ele>304.5</ele><time>2026-03-29T07:30:56.999Z</time></trkpt><trkpt lat="43.16850818191422" lon="12.27720520226779"><ele>304.6666666666667</ele><time>2026-03-29T07:30:58.999Z</time></trkpt><trkpt lat="43.16857752796619" lon="12.277137530297233"><ele>304.83333333333337</ele><time>2026-03-29T07:31:00.999Z</time></trkpt><trkpt lat="43.16863284401349" lon="12.27708355052427"><ele>305.0</ele><time>2026-03-29T07:31:01.999Z</time></trkpt><trkpt lat="43.16870130377883" lon="12.277016743332625"><ele>307.33333333333337</ele><time>2026-03-29T07:31:02.999Z</time></trkpt><trkpt lat="43.16899527850562" lon="12.277217548147766"><ele>309.6666666666667</ele><time>2026-03-29T07:31:04.999Z</time></trkpt><trkpt lat="43.169059638624056" lon="12.277260643840687"><ele>312.0</ele><time>2026-03-29T07:31:05.999Z</time></trkpt><trkpt lat="43.16913060727033" lon="12.277353310163813"><ele>312.0</ele><time>2026-03-29T07:31:06.999Z</time></trkpt><trkpt lat="43.1692045763623" lon="12.2774051677411"><ele>312.0</ele><time>2026-03-29T07:31:07.999Z</time></trkpt><trkpt lat="43.169271166256436" lon="12.27745643305511"><ele>312.0</ele><time>2026-03-29T07:31:08.999Z</time></trkpt><trkpt lat="43.16933977803615" lon="12.277483588831574"><ele>312.0</ele><time>2026-03-29T07:31:09.999Z</time></trkpt><trkpt lat="43.16945554282403" lon="12.27745164170774"><ele>312.0</ele><time>2026-03-29T07:31:11.999Z</time></trkpt><trkpt lat="43.16951970185638" lon="12.277424572105602"><ele>312.0</ele><time>2026-03-29T07:31:12.999Z</time></trkpt><trkpt lat="43.1696158443439" lon="12.277358563960615"><ele>312.0</ele><time>2026-03-29T07:31:13.999Z</time></trkpt><trkpt lat="43.169711509224676" lon="12.277315874195542"><ele>312.0</ele><time>2026-03-29T07:31:14.999Z</time></trkpt><trkpt lat="43.16979677600932" lon="12.277296465113945"><ele>312.0</ele><time>2026-03-29T07:31:15.999Z</time></trkpt><trkpt lat="43.16986694774518" lon="12.277285911423517"><ele>312.0</ele><time>2026-03-29T07:31:16.999Z</time></trkpt><trkpt lat="43.16993696601262" lon="12.277254865433669"><ele>312.0</ele><time>2026-03-29T07:31:17.999Z</time></trkpt><trkpt lat="43.170008505615144" lon="12.27723230341934"><ele>312.0</ele><time>2026-03-29T07:31:18.999Z</time></trkpt><trkpt lat="43.17008012393768" lon="12.277191896258438"><ele>318.6</ele><time>2026-03-29T07:31:19.999Z</time></trkpt><trkpt lat="43.17014290540384" lon="12.27710569612829"><ele>325.2</ele><time>2026-03-29T07:31:20.999Z</time></trkpt><trkpt lat="43.170208725480705" lon="12.277022209360458"><ele>331.8</ele><time>2026-03-29T07:31:21.999Z</time></trkpt><trkpt lat="43.17029993787348" lon="12.276976417610186"><ele>338.4</ele><time>2026-03-29T07:31:22.999Z</time></trkpt><trkpt lat="43.170360113869876" lon="12.276937654661106"><ele>345.0</ele><time>2026-03-29T07:31:23.999Z</time></trkpt><trkpt lat="43.17048520472388" lon="12.276908029103684"><ele>345.0</ele><time>2026-03-29T07:31:25.999Z</time></trkpt><trkpt lat="43.17055288733546" lon="12.276857357060821"><ele>345.0</ele><time>2026-03-29T07:31:26.999Z</time></trkpt><trkpt lat="43.17059840890233" lon="12.276788125974983"><ele>345.0</ele><time>2026-03-29T07:31:27.999Z</time></trkpt><trkpt lat="43.17062793964059" lon="12.276612757581104"><ele>345.0</ele><time>2026-03-29T07:31:29.998Z</time></trkpt><trkpt lat="43.17065185591662" lon="12.276517505007279"><ele>345.0</ele><time>2026-03-29T07:31:30.998Z</time></trkpt><trkpt lat="43.170677178975446" lon="12.276432802897503"><ele>345.0</ele><time>2026-03-29T07:31:31.998Z</time></trkpt><trkpt lat="43.170695414016485" lon="12.27634081947288"><ele>349.2</ele><time>2026-03-29T07:31:32.998Z</time></trkpt><trkpt lat="43.17069851790372" lon="12.27621369383482"><ele>353.4</ele><time>2026-03-29T07:31:34.998Z</time></trkpt><trkpt lat="43.17079654773464" lon="12.27621044239463"><ele>357.6</ele><time>2026-03-29T07:31:36.998Z</time></trkpt><trkpt lat="43.17082647219227" lon="12.276054237335357"><ele>361.8</ele><time>2026-03-29T07:31:38.998Z</time></trkpt><trkpt lat="43.17084074939023" lon="12.275938609417253"><ele>366.0</ele><time>2026-03-29T07:31:39.998Z</time></trkpt><trkpt lat="43.17085945189418" lon="12.27580447344941"><ele>366.0</ele><time>2026-03-29T07:31:40.998Z</time></trkpt><trkpt lat="43.17086435626088" lon="12.27564918515097"><ele>366.0</ele><time>2026-03-29T07:31:41.998Z</time></trkpt><trkpt lat="43.17087373279681" lon="12.275552424886193"><ele>366.0</ele><time>2026-03-29T07:31:42.998Z</time></trkpt><trkpt lat="43.17095202236002" lon="12.27552183463579"><ele>366.0</ele><time>2026-03-29T07:31:44.998Z</time></trkpt><trkpt lat="43.17127742291436" lon="12.275517737916097"><ele>367.8</ele><time>2026-03-29T07:31:48.998Z</time></trkpt><trkpt lat="43.17138301381103" lon="12.27547981524913"><ele>369.6</ele><time>2026-03-29T07:31:49.998Z</time></trkpt><trkpt lat="43.17139348013298" lon="12.275373331425842"><ele>371.4</ele><time>2026-03-29T07:31:50.998Z</time></trkpt><trkpt lat="43.17138143486589" lon="12.275242092481596"><ele>373.2</ele><time>2026-03-29T07:31:52.998Z</time></trkpt><trkpt lat="43.17131135756002" lon="12.275125209966875"><ele>375.0</ele><time>2026-03-29T07:31:55Z</time></trkpt><trkpt lat="43.17131835551485" lon="12.27503118881724"><ele>375.0</ele><time>2026-03-29T07:31:57Z</time></trkpt><trkpt lat="43.17142715255851" lon="12.275073469625614"><ele>375.0</ele><time>2026-03-29T07:31:59Z</time></trkpt><trkpt lat="43.171510199244416" lon="12.275092227818293"><ele>375.0</ele><time>2026-03-29T07:32:00Z</time></trkpt><trkpt lat="43.171593551313926" lon="12.275094370917484"><ele>375.0</ele><time>2026-03-29T07:32:01Z</time></trkpt><trkpt lat="43.171653281593365" lon="12.275045523992954"><ele>375.0</ele><time>2026-03-29T07:32:02Z</time></trkpt><trkpt lat="43.17171310764448" lon="12.27499211976551"><ele>375.0</ele><time>2026-03-29T07:32:03Z</time></trkpt><trkpt lat="43.17177828756217" lon="12.274964542101005"><ele>377.6</ele><time>2026-03-29T07:32:04Z</time></trkpt><trkpt lat="43.17184931320037" lon="12.274929978943232"><ele>380.2</ele><time>2026-03-29T07:32:05Z</time></trkpt><trkpt lat="43.17199117674963" lon="12.274896123736788"><ele>382.79999999999995</ele><time>2026-03-29T07:32:07Z</time></trkpt><trkpt lat="43.172053112651724" lon="12.27482755366253"><ele>385.4</ele><time>2026-03-29T07:32:08Z</time></trkpt><trkpt lat="43.17215123289425" lon="12.274705599097466"><ele>388.0</ele><time>2026-03-29T07:32:10Z</time></trkpt><trkpt lat="43.172203970145866" lon="12.274645913509781"><ele>389.6666666666667</ele><time>2026-03-29T07:32:11Z</time></trkpt><trkpt lat="43.17225178956428" lon="12.274585178893059"><ele>391.33333333333337</ele><time>2026-03-29T07:32:12Z</time></trkpt><trkpt lat="43.17230341905491" lon="12.274509480475315"><ele>393.0</ele><time>2026-03-29T07:32:13Z</time></trkpt><trkpt lat="43.17235094425793" lon="12.274423408209334"><ele>394.66666666666663</ele><time>2026-03-29T07:32:14Z</time></trkpt><trkpt lat="43.17239934812968" lon="12.274343135195789"><ele>396.3333333333333</ele><time>2026-03-29T07:32:15Z</time></trkpt><trkpt lat="43.17248867256836" lon="12.274250306373062"><ele>398.0</ele><time>2026-03-29T07:32:16Z</time></trkpt><trkpt lat="43.1725777785286" lon="12.274142121778645"><ele>399.79999999999995</ele><time>2026-03-29T07:32:17Z</time></trkpt><trkpt lat="43.172658468814056" lon="12.274042358819392"><ele>401.6</ele><time>2026-03-29T07:32:18Z</time></trkpt><trkpt lat="43.17273956670077" lon="12.27395786326291"><ele>403.4</ele><time>2026-03-29T07:32:19Z</time></trkpt><trkpt lat="43.172841948455186" lon="12.27385808108786"><ele>405.20000000000005</ele><time>2026-03-29T07:32:20Z</time></trkpt><trkpt lat="43.17293311825842" lon="12.273781134495598"><ele>407.0</ele><time>2026-03-29T07:32:21Z</time></trkpt><trkpt lat="43.17302103601025" lon="12.273707195269454"><ele>407.49999999999994</ele><time>2026-03-29T07:32:22Z</time></trkpt><trkpt lat="43.17310037094326" lon="12.27362125380721"><ele>408.0</ele><time>2026-03-29T07:32:23Z</time></trkpt><trkpt lat="43.173170445494755" lon="12.273540465961972"><ele>408.5</ele><time>2026-03-29T07:32:24Z</time></trkpt><trkpt lat="43.17322897013072" lon="12.273472831924538"><ele>409.0</ele><time>2026-03-29T07:32:25Z</time></trkpt><trkpt lat="43.173283303793454" lon="12.273410025788458"><ele>409.49999999999994</ele><time>2026-03-29T07:32:26Z</time></trkpt><trkpt lat="43.17334424196269" lon="12.273371884468629"><ele>410.0</ele><time>2026-03-29T07:32:27Z</time></trkpt><trkpt lat="43.17340744043483" lon="12.273334974310828"><ele>411.3333333333333</ele><time>2026-03-29T07:32:28Z</time></trkpt><trkpt lat="43.17346193449955" lon="12.273282189767185"><ele>412.66666666666663</ele><time>2026-03-29T07:32:29Z</time></trkpt><trkpt lat="43.17350524010073" lon="12.27320251711527"><ele>414.0</ele><time>2026-03-29T07:32:30Z</time></trkpt><trkpt lat="43.17356906828637" lon="12.273131227937688"><ele>415.33333333333337</ele><time>2026-03-29T07:32:31Z</time></trkpt><trkpt lat="43.17363655044158" lon="12.273071030990893"><ele>416.6666666666667</ele><time>2026-03-29T07:32:31.999Z</time></trkpt><trkpt lat="43.173710770533994" lon="12.273025923511954"><ele>418.0</ele><time>2026-03-29T07:32:32.999Z</time></trkpt><trkpt lat="43.17378395668383" lon="12.272956026911135"><ele>419.2</ele><time>2026-03-29T07:32:33.999Z</time></trkpt><trkpt lat="43.17386800946731" lon="12.272888623725324"><ele>420.4</ele><time>2026-03-29T07:32:34.999Z</time></trkpt><trkpt lat="43.1739595306171" lon="12.272851148099095"><ele>421.59999999999997</ele><time>2026-03-29T07:32:35.999Z</time></trkpt><trkpt lat="43.17403746608947" lon="12.272785591878101"><ele>422.79999999999995</ele><time>2026-03-29T07:32:36.999Z</time></trkpt><trkpt lat="43.17411973710386" lon="12.272717177883843"><ele>424.0</ele><time>2026-03-29T07:32:37.999Z</time></trkpt><trkpt lat="43.174200882194846" lon="12.272633848688168"><ele>424.4</ele><time>2026-03-29T07:32:38.999Z</time></trkpt><trkpt lat="43.1742800228815" lon="12.272546770084002"><ele>424.79999999999995</ele><time>2026-03-29T07:32:39.999Z</time></trkpt><trkpt lat="43.17435153663172" lon="12.27245612234611"><ele>425.20000000000005</ele><time>2026-03-29T07:32:40.999Z</time></trkpt><trkpt lat="43.17442333061905" lon="12.27237413174458"><ele>425.6</ele><time>2026-03-29T07:32:41.999Z</time></trkpt><trkpt lat="43.17449232667722" lon="12.272305382009392"><ele>426.0</ele><time>2026-03-29T07:32:42.999Z</time></trkpt><trkpt lat="43.17458407083498" lon="12.272257561738213"><ele>425.0</ele><time>2026-03-29T07:32:43.999Z</time></trkpt><trkpt lat="43.174689681297075" lon="12.272193155021117"><ele>424.0</ele><time>2026-03-29T07:32:45.999Z</time></trkpt><trkpt lat="43.17475089898086" lon="12.272147163314585"><ele>423.0</ele><time>2026-03-29T07:32:46.999Z</time></trkpt><trkpt lat="43.17482948101237" lon="12.272108912658572"><ele>422.0</ele><time>2026-03-29T07:32:47.999Z</time></trkpt><trkpt lat="43.174923058029606" lon="12.27205980656512"><ele>421.0</ele><time>2026-03-29T07:32:48.999Z</time></trkpt><trkpt lat="43.17500683719548" lon="12.272006744436677"><ele>421.0</ele><time>2026-03-29T07:32:49.999Z</time></trkpt><trkpt lat="43.17508218582942" lon="12.271952675598794"><ele>421.0</ele><time>2026-03-29T07:32:51.999Z</time></trkpt><trkpt lat="43.17515771378307" lon="12.27190605976647"><ele>421.0</ele><time>2026-03-29T07:32:54.999Z</time></trkpt><trkpt lat="43.17521559106827" lon="12.271862666699878"><ele>421.0</ele><time>2026-03-29T07:32:56.999Z</time></trkpt><trkpt lat="43.1753203960187" lon="12.27177619652577"><ele>421.0</ele><time>2026-03-29T07:32:58.999Z</time></trkpt><trkpt lat="43.17540719816902" lon="12.27168153471844"><ele>421.00000000000006</ele><time>2026-03-29T07:33:00.999Z</time></trkpt><trkpt lat="43.17546605613779" lon="12.27160028660723"><ele>421.0</ele><time>2026-03-29T07:33:03.999Z</time></trkpt><trkpt lat="43.17550728500405" lon="12.271514131178176"><ele>421.0</ele><time>2026-03-29T07:33:08.999Z</time></trkpt><trkpt lat="43.1755458466162" lon="12.271379456230068"><ele>421.0</ele><time>2026-03-29T07:33:10.999Z</time></trkpt><trkpt lat="43.17558031930493" lon="12.2713036313611"><ele>421.00000000000006</ele><time>2026-03-29T07:33:11.999Z</time></trkpt><trkpt lat="43.17565893679323" lon="12.27118093538497"><ele>421.0</ele><time>2026-03-29T07:33:13.999Z</time></trkpt><trkpt lat="43.17571481769264" lon="12.271139975266612"><ele>420.6</ele><time>2026-03-29T07:33:14.999Z</time></trkpt><trkpt lat="43.17579897812532" lon="12.271083788172064"><ele>420.20000000000005</ele><time>2026-03-29T07:33:15.999Z</time></trkpt><trkpt lat="43.17589594226688" lon="12.271023070574785"><ele>419.79999999999995</ele><time>2026-03-29T07:33:16.999Z</time></trkpt><trkpt lat="43.17600838323213" lon="12.270979220673581"><ele>419.4</ele><time>2026-03-29T07:33:17.999Z</time></trkpt><trkpt lat="43.17611481020397" lon="12.270943663616796"><ele>419.0</ele><time>2026-03-29T07:33:18.999Z</time></trkpt><trkpt lat="43.1762156904787" lon="12.270934122031873"><ele>419.0</ele><time>2026-03-29T07:33:19.999Z</time></trkpt><trkpt lat="43.17632932092943" lon="12.270929014402384"><ele>419.0</ele><time>2026-03-29T07:33:20.999Z</time></trkpt><trkpt lat="43.17642354499113" lon="12.270886782419291"><ele>419.0</ele><time>2026-03-29T07:33:21.999Z</time></trkpt><trkpt lat="43.17648190223291" lon="12.270824559243446"><ele>419.0</ele><time>2026-03-29T07:33:22.999Z</time></trkpt><trkpt lat="43.176545544501586" lon="12.27072068958593"><ele>419.0</ele><time>2026-03-29T07:33:24.999Z</time></trkpt><trkpt lat="43.17658970453671" lon="12.270647399344895"><ele>420.6</ele><time>2026-03-29T07:33:25.999Z</time></trkpt><trkpt lat="43.17664076312399" lon="12.270560041292452"><ele>422.2</ele><time>2026-03-29T07:33:26.999Z</time></trkpt><trkpt lat="43.17670741164717" lon="12.270465858778778"><ele>423.80000000000007</ele><time>2026-03-29T07:33:27.999Z</time></trkpt><trkpt lat="43.176785058624155" lon="12.270385241790256"><ele>425.40000000000003</ele><time>2026-03-29T07:33:28.999Z</time></trkpt><trkpt lat="43.176874932003734" lon="12.270342602714232"><ele>427.0</ele><time>2026-03-29T07:33:29.999Z</time></trkpt><trkpt lat="43.17695814755429" lon="12.270323518004538"><ele>427.0</ele><time>2026-03-29T07:33:30.999Z</time></trkpt><trkpt lat="43.17703712877125" lon="12.270323639553412"><ele>427.00000000000006</ele><time>2026-03-29T07:33:31.999Z</time></trkpt><trkpt lat="43.177099775829674" lon="12.270339887282377"><ele>427.00000000000006</ele><time>2026-03-29T07:33:32.998Z</time></trkpt><trkpt lat="43.177213647132426" lon="12.270453029508383"><ele>427.0</ele><time>2026-03-29T07:33:34.998Z</time></trkpt><trkpt lat="43.177312445795344" lon="12.270530299165996"><ele>427.0</ele><time>2026-03-29T07:33:35.998Z</time></trkpt><trkpt lat="43.177388741459495" lon="12.270568256024438"><ele>427.00000000000006</ele><time>2026-03-29T07:33:36.998Z</time></trkpt><trkpt lat="43.17744932869389" lon="12.270606541684828"><ele>427.0</ele><time>2026-03-29T07:33:37.998Z</time></trkpt><trkpt lat="43.17754963553955" lon="12.27061142441894"><ele>427.0</ele><time>2026-03-29T07:33:39.998Z</time></trkpt><trkpt lat="43.17758980797073" lon="12.270542543359795"><ele>427.0</ele><time>2026-03-29T07:33:40.998Z</time></trkpt><trkpt lat="43.17769094360022" lon="12.270552596845084"><ele>427.00000000000006</ele><time>2026-03-29T07:33:42.998Z</time></trkpt><trkpt lat="43.17775552061478" lon="12.270552363256304"><ele>427.0</ele><time>2026-03-29T07:33:43.998Z</time></trkpt><trkpt lat="43.17781837005639" lon="12.270416910134438"><ele>429.0</ele><time>2026-03-29T07:33:45.998Z</time></trkpt><trkpt lat="43.177811859909596" lon="12.2703249001786"><ele>431.00000000000006</ele><time>2026-03-29T07:33:46.998Z</time></trkpt><trkpt lat="43.17776011230978" lon="12.270202007934579"><ele>433.00000000000006</ele><time>2026-03-29T07:33:48.998Z</time></trkpt><trkpt lat="43.17774021766813" lon="12.270103367522678"><ele>435.0</ele><time>2026-03-29T07:33:49.998Z</time></trkpt><trkpt lat="43.1777097051766" lon="12.269976459132883"><ele>437.0</ele><time>2026-03-29T07:33:50.998Z</time></trkpt><trkpt lat="43.17768573944774" lon="12.26983060935448"><ele>438.8333333333333</ele><time>2026-03-29T07:33:51.998Z</time></trkpt><trkpt lat="43.177656274248214" lon="12.26972685569854"><ele>440.66666666666663</ele><time>2026-03-29T07:33:52.998Z</time></trkpt><trkpt lat="43.17763115531229" lon="12.269643982343691"><ele>442.5</ele><time>2026-03-29T07:33:53.998Z</time></trkpt><trkpt lat="43.17762252375249" lon="12.269545513071249"><ele>444.33333333333337</ele><time>2026-03-29T07:33:54.998Z</time></trkpt><trkpt lat="43.177660189962744" lon="12.269392938249677"><ele>446.1666666666667</ele><time>2026-03-29T07:33:56.998Z</time></trkpt><trkpt lat="43.17771731370632" lon="12.269291140328098"><ele>448.0</ele><time>2026-03-29T07:33:58.998Z</time></trkpt><trkpt lat="43.177759410130825" lon="12.269216494778671"><ele>448.00000000000006</ele><time>2026-03-29T07:33:59.998Z</time></trkpt><trkpt lat="43.17779647224621" lon="12.2691332862918"><ele>448.0</ele><time>2026-03-29T07:34:01Z</time></trkpt><trkpt lat="43.177846801445554" lon="12.269042933830013"><ele>448.0</ele><time>2026-03-29T07:34:04Z</time></trkpt><trkpt lat="43.17789892278221" lon="12.268989874999974"><ele>448.0</ele><time>2026-03-29T07:34:08Z</time></trkpt><trkpt lat="43.17794630169044" lon="12.268862365155567"><ele>448.00000000000006</ele><time>2026-03-29T07:34:12Z</time></trkpt><trkpt lat="43.17800353780923" lon="12.268739672130538"><ele>448.0</ele><time>2026-03-29T07:34:14Z</time></trkpt><trkpt lat="43.17803843246851" lon="12.268667086149184"><ele>448.00000000000006</ele><time>2026-03-29T07:34:15Z</time></trkpt><trkpt lat="43.178071753906806" lon="12.268581311404825"><ele>448.0</ele><time>2026-03-29T07:34:16Z</time></trkpt><trkpt lat="43.178120185859825" lon="12.26848028933853"><ele>448.0</ele><time>2026-03-29T07:34:17Z</time></trkpt><trkpt lat="43.178141544929154" lon="12.268397590536582"><ele>448.0</ele><time>2026-03-29T07:34:18Z</time></trkpt><trkpt lat="43.178157005832524" lon="12.268304276577522"><ele>448.00000000000006</ele><time>2026-03-29T07:34:19Z</time></trkpt><trkpt lat="43.1781635160775" lon="12.268190354124249"><ele>448.0</ele><time>2026-03-29T07:34:20Z</time></trkpt><trkpt lat="43.17816892727718" lon="12.268072065585857"><ele>446.83333333333337</ele><time>2026-03-29T07:34:21Z</time></trkpt><trkpt lat="43.17816880491519" lon="12.267956774406386"><ele>445.6666666666667</ele><time>2026-03-29T07:34:22Z</time></trkpt><trkpt lat="43.178195223383035" lon="12.267819933968484"><ele>444.5</ele><time>2026-03-29T07:34:23Z</time></trkpt><trkpt lat="43.178221648785374" lon="12.267692363153248"><ele>443.33333333333337</ele><time>2026-03-29T07:34:24Z</time></trkpt><trkpt lat="43.178238853594344" lon="12.26760050472294"><ele>442.1666666666667</ele><time>2026-03-29T07:34:25Z</time></trkpt><trkpt lat="43.17828577635798" lon="12.267541454849875"><ele>441.0</ele><time>2026-03-29T07:34:29Z</time></trkpt><trkpt lat="43.17832258352292" lon="12.267463697876485"><ele>441.0</ele><time>2026-03-29T07:34:32Z</time></trkpt><trkpt lat="43.178377381548756" lon="12.267380656635943"><ele>441.0</ele><time>2026-03-29T07:34:33.999Z</time></trkpt><trkpt lat="43.178439977579714" lon="12.26730078498052"><ele>441.0</ele><time>2026-03-29T07:34:34.999Z</time></trkpt><trkpt lat="43.178523984264665" lon="12.267217397334457"><ele>441.0</ele><time>2026-03-29T07:34:35.999Z</time></trkpt><trkpt lat="43.178584965013656" lon="12.26713018270689"><ele>441.0</ele><time>2026-03-29T07:34:36.999Z</time></trkpt><trkpt lat="43.178650245404405" lon="12.267045767091163"><ele>441.0</ele><time>2026-03-29T07:34:38.999Z</time></trkpt><trkpt lat="43.178618705342735" lon="12.266936104020244"><ele>441.0</ele><time>2026-03-29T07:34:40.999Z</time></trkpt><trkpt lat="43.17862224682114" lon="12.266779873221642"><ele>441.0</ele><time>2026-03-29T07:34:42.999Z</time></trkpt><trkpt lat="43.17860553688956" lon="12.26669172954628"><ele>441.0</ele><time>2026-03-29T07:34:43.999Z</time></trkpt><trkpt lat="43.17860460922661" lon="12.266598533833863"><ele>441.0</ele><time>2026-03-29T07:34:44.999Z</time></trkpt><trkpt lat="43.17859990560514" lon="12.266502673443556"><ele>441.0</ele><time>2026-03-29T07:34:45.999Z</time></trkpt><trkpt lat="43.178599564283466" lon="12.266405275481809"><ele>441.0</ele><time>2026-03-29T07:34:46.999Z</time></trkpt><trkpt lat="43.17859795419585" lon="12.266277834644448"><ele>440.6</ele><time>2026-03-29T07:34:47.999Z</time></trkpt><trkpt lat="43.17860088373696" lon="12.266144972944886"><ele>440.20000000000005</ele><time>2026-03-29T07:34:48.999Z</time></trkpt><trkpt lat="43.17861957232126" lon="12.26600265712914"><ele>439.79999999999995</ele><time>2026-03-29T07:34:49.999Z</time></trkpt><trkpt lat="43.17867639549292" lon="12.265849767374931"><ele>439.4</ele><time>2026-03-29T07:34:50.999Z</time></trkpt><trkpt lat="43.17872421542077" lon="12.265745275133378"><ele>439.0</ele><time>2026-03-29T07:34:51.999Z</time></trkpt><trkpt lat="43.178768954568405" lon="12.265668459615581"><ele>439.4</ele><time>2026-03-29T07:34:52.999Z</time></trkpt><trkpt lat="43.1788476196608" lon="12.265607448224301"><ele>439.79999999999995</ele><time>2026-03-29T07:34:53.999Z</time></trkpt><trkpt lat="43.17893299845921" lon="12.265535918792068"><ele>440.20000000000005</ele><time>2026-03-29T07:34:54.999Z</time></trkpt><trkpt lat="43.179031671240416" lon="12.265401145358314"><ele>440.6</ele><time>2026-03-29T07:34:55.999Z</time></trkpt><trkpt lat="43.17911175367135" lon="12.265295119616578"><ele>441.0</ele><time>2026-03-29T07:34:56.999Z</time></trkpt><trkpt lat="43.17918997188469" lon="12.26520480691693"><ele>441.0</ele><time>2026-03-29T07:34:57.999Z</time></trkpt><trkpt lat="43.1792836658355" lon="12.265122410923599"><ele>441.0</ele><time>2026-03-29T07:34:58.999Z</time></trkpt><trkpt lat="43.179400694341226" lon="12.265050612062721"><ele>441.0</ele><time>2026-03-29T07:34:59.999Z</time></trkpt><trkpt lat="43.179532278585626" lon="12.264971012760501"><ele>441.0</ele><time>2026-03-29T07:35:00.999Z</time></trkpt><trkpt lat="43.17967922334589" lon="12.264899135476963"><ele>441.0</ele><time>2026-03-29T07:35:01.999Z</time></trkpt><trkpt lat="43.179789459656995" lon="12.264815697774727"><ele>441.0</ele><time>2026-03-29T07:35:02.999Z</time></trkpt><trkpt lat="43.179886591780935" lon="12.26475146806759"><ele>441.0</ele><time>2026-03-29T07:35:03.999Z</time></trkpt><trkpt lat="43.17998084004566" lon="12.264720801248158"><ele>441.0</ele><time>2026-03-29T07:35:04.999Z</time></trkpt><trkpt lat="43.18007805104423" lon="12.264687503030162"><ele>441.0</ele><time>2026-03-29T07:35:05.999Z</time></trkpt><trkpt lat="43.180178518336085" lon="12.264637653728515"><ele>440.6</ele><time>2026-03-29T07:35:06.999Z</time></trkpt><trkpt lat="43.180261827166674" lon="12.264547541263587"><ele>440.20000000000005</ele><time>2026-03-29T07:35:07.999Z</time></trkpt><trkpt lat="43.18034677222404" lon="12.26444097265669"><ele>439.79999999999995</ele><time>2026-03-29T07:35:08.999Z</time></trkpt><trkpt lat="43.18041288863448" lon="12.264314382486157"><ele>439.4</ele><time>2026-03-29T07:35:09.999Z</time></trkpt><trkpt lat="43.18045501238826" lon="12.264210324341663"><ele>439.0</ele><time>2026-03-29T07:35:10.999Z</time></trkpt><trkpt lat="43.1804880578535" lon="12.264091306777972"><ele>439.00000000000006</ele><time>2026-03-29T07:35:11.999Z</time></trkpt><trkpt lat="43.18051005233652" lon="12.263965124683166"><ele>439.0</ele><time>2026-03-29T07:35:12.999Z</time></trkpt><trkpt lat="43.18052249011525" lon="12.263828527785325"><ele>439.0</ele><time>2026-03-29T07:35:13.999Z</time></trkpt><trkpt lat="43.180533284296295" lon="12.263717723919926"><ele>439.0</ele><time>2026-03-29T07:35:14.999Z</time></trkpt><trkpt lat="43.180590479583934" lon="12.26360142501524"><ele>439.00000000000006</ele><time>2026-03-29T07:35:16.999Z</time></trkpt><trkpt lat="43.18065469954578" lon="12.263618939043207"><ele>439.0</ele><time>2026-03-29T07:35:20.999Z</time></trkpt><trkpt lat="43.18078623891873" lon="12.263528224474399"><ele>442.25</ele><time>2026-03-29T07:35:22.999Z</time></trkpt><trkpt lat="43.18089845148454" lon="12.263504389169823"><ele>445.5</ele><time>2026-03-29T07:35:24.999Z</time></trkpt><trkpt lat="43.18097783964887" lon="12.263504102250424"><ele>448.75</ele><time>2026-03-29T07:35:25.999Z</time></trkpt><trkpt lat="43.18111613521943" lon="12.26348099554009"><ele>452.0</ele><time>2026-03-29T07:35:26.999Z</time></trkpt><trkpt lat="43.181253588857274" lon="12.263448287813102"><ele>452.0</ele><time>2026-03-29T07:35:27.999Z</time></trkpt><trkpt lat="43.18137917654717" lon="12.263410457839106"><ele>452.0</ele><time>2026-03-29T07:35:28.999Z</time></trkpt><trkpt lat="43.18153199817933" lon="12.263377786739966"><ele>452.0</ele><time>2026-03-29T07:35:29.999Z</time></trkpt><trkpt lat="43.181656404741496" lon="12.263354177873182"><ele>452.0</ele><time>2026-03-29T07:35:30.999Z</time></trkpt><trkpt lat="43.18176780488941" lon="12.263335698959532"><ele>449.20000000000005</ele><time>2026-03-29T07:35:31.999Z</time></trkpt><trkpt lat="43.18188950728261" lon="12.263320936327116"><ele>446.40000000000003</ele><time>2026-03-29T07:35:32.998Z</time></trkpt><trkpt lat="43.18201324283057" lon="12.263321167290002"><ele>443.59999999999997</ele><time>2026-03-29T07:35:33.998Z</time></trkpt><trkpt lat="43.1821058222972" lon="12.263307365262387"><ele>440.79999999999995</ele><time>2026-03-29T07:35:34.998Z</time></trkpt><trkpt lat="43.182211136261586" lon="12.26332917110942"><ele>438.0</ele><time>2026-03-29T07:35:35.998Z</time></trkpt><trkpt lat="43.182321655335016" lon="12.263345219285355"><ele>434.4</ele><time>2026-03-29T07:35:36.998Z</time></trkpt><trkpt lat="43.18242682794349" lon="12.263378057114755"><ele>430.79999999999995</ele><time>2026-03-29T07:35:37.998Z</time></trkpt><trkpt lat="43.182516480555606" lon="12.263382888689026"><ele>427.2</ele><time>2026-03-29T07:35:38.998Z</time></trkpt><trkpt lat="43.18261415040278" lon="12.263412698348265"><ele>423.6</ele><time>2026-03-29T07:35:39.998Z</time></trkpt><trkpt lat="43.182729083696564" lon="12.263481309483213"><ele>420.0</ele><time>2026-03-29T07:35:40.998Z</time></trkpt><trkpt lat="43.18286093449137" lon="12.26353775374819"><ele>420.0</ele><time>2026-03-29T07:35:41.998Z</time></trkpt><trkpt lat="43.18299899373034" lon="12.263604463641519"><ele>420.0</ele><time>2026-03-29T07:35:42.998Z</time></trkpt><trkpt lat="43.183156687588166" lon="12.26365964674314"><ele>420.0</ele><time>2026-03-29T07:35:43.998Z</time></trkpt><trkpt lat="43.18329050322323" lon="12.26365529419925"><ele>420.0</ele><time>2026-03-29T07:35:44.998Z</time></trkpt><trkpt lat="43.18339259865809" lon="12.263649951682286"><ele>418.1666666666667</ele><time>2026-03-29T07:35:45.998Z</time></trkpt><trkpt lat="43.18343420337275" lon="12.26351916247978"><ele>416.33333333333337</ele><time>2026-03-29T07:35:46.998Z</time></trkpt><trkpt lat="43.183449419452174" lon="12.263400992432778"><ele>414.5</ele><time>2026-03-29T07:35:47.998Z</time></trkpt><trkpt lat="43.18348182927956" lon="12.263314404640541"><ele>412.6666666666667</ele><time>2026-03-29T07:35:48.998Z</time></trkpt><trkpt lat="43.18353792043373" lon="12.263257554779578"><ele>410.83333333333337</ele><time>2026-03-29T07:35:49.998Z</time></trkpt><trkpt lat="43.18358359361308" lon="12.263179116596126"><ele>409.0</ele><time>2026-03-29T07:35:50.998Z</time></trkpt><trkpt lat="43.18362874721233" lon="12.26310579968305"><ele>404.4</ele><time>2026-03-29T07:35:51.998Z</time></trkpt><trkpt lat="43.18374734574897" lon="12.263036232232734"><ele>399.79999999999995</ele><time>2026-03-29T07:35:53.998Z</time></trkpt><trkpt lat="43.18385304324494" lon="12.263003043438138"><ele>395.20000000000005</ele><time>2026-03-29T07:35:55.998Z</time></trkpt><trkpt lat="43.183917944152206" lon="12.262973152316356"><ele>390.6</ele><time>2026-03-29T07:35:56.998Z</time></trkpt><trkpt lat="43.184018188971606" lon="12.262961207836577"><ele>386.0</ele><time>2026-03-29T07:35:57.998Z</time></trkpt><trkpt lat="43.1841081007308" lon="12.262949408691256"><ele>386.0</ele><time>2026-03-29T07:35:58.998Z</time></trkpt><trkpt lat="43.18419761163806" lon="12.262955254368487"><ele>386.0</ele><time>2026-03-29T07:35:59.998Z</time></trkpt><trkpt lat="43.1843019813256" lon="12.262955254372006"><ele>386.0</ele><time>2026-03-29T07:36:00.998Z</time></trkpt><trkpt lat="43.184395237445756" lon="12.262945188187457"><ele>386.0</ele><time>2026-03-29T07:36:01.998Z</time></trkpt><trkpt lat="43.18447975402431" lon="12.262894356349406"><ele>386.0</ele><time>2026-03-29T07:36:02.998Z</time></trkpt><trkpt lat="43.18456637488308" lon="12.262859269704544"><ele>385.99999999999994</ele><time>2026-03-29T07:36:03.998Z</time></trkpt><trkpt lat="43.18464016675683" lon="12.26282770868423"><ele>386.0</ele><time>2026-03-29T07:36:04.998Z</time></trkpt><trkpt lat="43.18470413863196" lon="12.262774818188351"><ele>386.0</ele><time>2026-03-29T07:36:05.998Z</time></trkpt><trkpt lat="43.18475029574994" lon="12.262707318450992"><ele>386.0</ele><time>2026-03-29T07:36:07Z</time></trkpt><trkpt lat="43.184774164242015" lon="12.262621856752094"><ele>385.99999999999994</ele><time>2026-03-29T07:36:08Z</time></trkpt><trkpt lat="43.184768002626114" lon="12.262529813808577"><ele>386.0</ele><time>2026-03-29T07:36:09Z</time></trkpt><trkpt lat="43.18478761898916" lon="12.262376893687618"><ele>383.0</ele><time>2026-03-29T07:36:11Z</time></trkpt><trkpt lat="43.18479442281373" lon="12.262231923031173"><ele>380.0</ele><time>2026-03-29T07:36:13Z</time></trkpt><trkpt lat="43.18455786572162" lon="12.262054869374975"><ele>377.0</ele><time>2026-03-29T07:36:15Z</time></trkpt><trkpt lat="43.18450726966298" lon="12.261982077698942"><ele>374.0</ele><time>2026-03-29T07:36:16Z</time></trkpt><trkpt lat="43.18443898135036" lon="12.261928072177401"><ele>374.0</ele><time>2026-03-29T07:36:17Z</time></trkpt><trkpt lat="43.184361481751196" lon="12.26187356874043"><ele>374.0</ele><time>2026-03-29T07:36:18Z</time></trkpt><trkpt lat="43.18430386117948" lon="12.261818008116222"><ele>374.0</ele><time>2026-03-29T07:36:19Z</time></trkpt><trkpt lat="43.184224520908465" lon="12.261700863788034"><ele>374.0</ele><time>2026-03-29T07:36:21Z</time></trkpt><trkpt lat="43.18412472229798" lon="12.261669906226023"><ele>374.0</ele><time>2026-03-29T07:36:23Z</time></trkpt><trkpt lat="43.184029448827424" lon="12.261735960781863"><ele>374.0</ele><time>2026-03-29T07:36:25Z</time></trkpt><trkpt lat="43.183993533446376" lon="12.261617808678688"><ele>374.0</ele><time>2026-03-29T07:36:28Z</time></trkpt><trkpt lat="43.1840269966781" lon="12.261463384126971"><ele>374.0</ele><time>2026-03-29T07:36:30Z</time></trkpt><trkpt lat="43.183954206651045" lon="12.261374257527194"><ele>374.0</ele><time>2026-03-29T07:36:33Z</time></trkpt><trkpt lat="43.1838823406986" lon="12.261401452230547"><ele>374.0</ele><time>2026-03-29T07:36:34Z</time></trkpt><trkpt lat="43.18381952883901" lon="12.26147767631959"><ele>372.6666666666667</ele><time>2026-03-29T07:36:35Z</time></trkpt><trkpt lat="43.18374816121623" lon="12.261563969231354"><ele>371.33333333333337</ele><time>2026-03-29T07:36:36.999Z</time></trkpt><trkpt lat="43.18369975509535" lon="12.261663984184807"><ele>370.0</ele><time>2026-03-29T07:36:38.999Z</time></trkpt><trkpt lat="43.183680847714506" lon="12.261760295684251"><ele>368.6666666666667</ele><time>2026-03-29T07:36:40.999Z</time></trkpt><trkpt lat="43.18362768065039" lon="12.261839807116946"><ele>367.3333333333333</ele><time>2026-03-29T07:36:43.999Z</time></trkpt><trkpt lat="43.183571703759796" lon="12.261799843932502"><ele>366.0</ele><time>2026-03-29T07:36:45.999Z</time></trkpt><trkpt lat="43.18351181337713" lon="12.261685973967726"><ele>366.0</ele><time>2026-03-29T07:36:47.999Z</time></trkpt><trkpt lat="43.18346400297215" lon="12.26159128707003"><ele>366.0</ele><time>2026-03-29T07:36:50.999Z</time></trkpt><trkpt lat="43.183404054023555" lon="12.26152744878924"><ele>366.0</ele><time>2026-03-29T07:36:53.999Z</time></trkpt><trkpt lat="43.18335572524374" lon="12.261464613876871"><ele>366.0</ele><time>2026-03-29T07:36:55.999Z</time></trkpt><trkpt lat="43.183322515636924" lon="12.261332799254637"><ele>366.0</ele><time>2026-03-29T07:36:58.999Z</time></trkpt><trkpt lat="43.18329672924373" lon="12.26118601145507"><ele>366.0</ele><time>2026-03-29T07:37:00.999Z</time></trkpt><trkpt lat="43.18328099163793" lon="12.261032381461044"><ele>363.0</ele><time>2026-03-29T07:37:01.999Z</time></trkpt><trkpt lat="43.18330201376074" lon="12.260886075098401"><ele>360.0</ele><time>2026-03-29T07:37:02.999Z</time></trkpt><trkpt lat="43.183326504815085" lon="12.260726667359927"><ele>357.0</ele><time>2026-03-29T07:37:03.999Z</time></trkpt><trkpt lat="43.18334589733856" lon="12.260570874804399"><ele>354.0</ele><time>2026-03-29T07:37:04.999Z</time></trkpt><trkpt lat="43.18335425154029" lon="12.260429588873912"><ele>351.0</ele><time>2026-03-29T07:37:05.999Z</time></trkpt><trkpt lat="43.183341125686404" lon="12.260320964718213"><ele>349.1666666666667</ele><time>2026-03-29T07:37:06.999Z</time></trkpt><trkpt lat="43.1833459760905" lon="12.26022390245261"><ele>347.3333333333333</ele><time>2026-03-29T07:37:07.999Z</time></trkpt><trkpt lat="43.183364314286955" lon="12.260124750118148"><ele>345.5</ele><time>2026-03-29T07:37:08.999Z</time></trkpt><trkpt lat="43.18338476746582" lon="12.260007117504374"><ele>343.66666666666663</ele><time>2026-03-29T07:37:09.999Z</time></trkpt><trkpt lat="43.18339341415095" lon="12.25988472702657"><ele>341.8333333333333</ele><time>2026-03-29T07:37:10.999Z</time></trkpt><trkpt lat="43.18342425701857" lon="12.259724345371623"><ele>340.0</ele><time>2026-03-29T07:37:12.999Z</time></trkpt><trkpt lat="43.18340949683286" lon="12.259579959928512"><ele>337.8333333333333</ele><time>2026-03-29T07:37:14.999Z</time></trkpt><trkpt lat="43.18340507256665" lon="12.2594932874951"><ele>335.66666666666663</ele><time>2026-03-29T07:37:15.999Z</time></trkpt><trkpt lat="43.18339788683182" lon="12.259375680869413"><ele>333.5</ele><time>2026-03-29T07:37:16.999Z</time></trkpt><trkpt lat="43.18336913727907" lon="12.259280085331227"><ele>331.3333333333333</ele><time>2026-03-29T07:37:17.999Z</time></trkpt><trkpt lat="43.18332285890698" lon="12.259195757781587"><ele>329.1666666666667</ele><time>2026-03-29T07:37:18.999Z</time></trkpt><trkpt lat="43.18329127274838" lon="12.259076733330863"><ele>327.0</ele><time>2026-03-29T07:37:19.999Z</time></trkpt><trkpt lat="43.18323725475291" lon="12.25892356761431"><ele>327.20000000000005</ele><time>2026-03-29T07:37:20.999Z</time></trkpt><trkpt lat="43.18317657548458" lon="12.258764716964599"><ele>327.4</ele><time>2026-03-29T07:37:21.999Z</time></trkpt><trkpt lat="43.183117060753766" lon="12.258656225677859"><ele>327.6</ele><time>2026-03-29T07:37:22.999Z</time></trkpt><trkpt lat="43.183074129351304" lon="12.258520064815256"><ele>327.79999999999995</ele><time>2026-03-29T07:37:23.999Z</time></trkpt><trkpt lat="43.1830248063496" lon="12.2584188993661"><ele>328.0</ele><time>2026-03-29T07:37:25.999Z</time></trkpt><trkpt lat="43.18294752862638" lon="12.258322068790518"><ele>328.0</ele><time>2026-03-29T07:37:27.999Z</time></trkpt><trkpt lat="43.18295326146292" lon="12.258221877636075"><ele>328.0</ele><time>2026-03-29T07:37:29.999Z</time></trkpt><trkpt lat="43.18299388676253" lon="12.258098641513428"><ele>328.0</ele><time>2026-03-29T07:37:31.999Z</time></trkpt><trkpt lat="43.18301740195164" lon="12.257992760116636"><ele>328.0</ele><time>2026-03-29T07:37:34.999Z</time></trkpt><trkpt lat="43.18305916656053" lon="12.2579044055044"><ele>328.0</ele><time>2026-03-29T07:37:35.999Z</time></trkpt><trkpt lat="43.18309542899352" lon="12.25783128126443"><ele>328.0</ele><time>2026-03-29T07:37:36.998Z</time></trkpt><trkpt lat="43.18320358991968" lon="12.257797794659592"><ele>327.79999999999995</ele><time>2026-03-29T07:37:38.998Z</time></trkpt><trkpt lat="43.18332985342648" lon="12.25778646925542"><ele>327.6</ele><time>2026-03-29T07:37:40.998Z</time></trkpt><trkpt lat="43.18339768780724" lon="12.257849549955061"><ele>327.4</ele><time>2026-03-29T07:37:41.998Z</time></trkpt><trkpt lat="43.183468236272525" lon="12.257937228749059"><ele>327.20000000000005</ele><time>2026-03-29T07:37:42.998Z</time></trkpt><trkpt lat="43.18354869094377" lon="12.258079740843339"><ele>327.0</ele><time>2026-03-29T07:37:43.998Z</time></trkpt><trkpt lat="43.183652929219626" lon="12.25822295685742"><ele>325.6</ele><time>2026-03-29T07:37:44.998Z</time></trkpt><trkpt lat="43.18373547554417" lon="12.25834827281567"><ele>324.20000000000005</ele><time>2026-03-29T07:37:45.998Z</time></trkpt><trkpt lat="43.183796638872685" lon="12.25847408594705"><ele>322.8</ele><time>2026-03-29T07:37:46.998Z</time></trkpt><trkpt lat="43.18387909264806" lon="12.2585582806425"><ele>321.4</ele><time>2026-03-29T07:37:47.998Z</time></trkpt><trkpt lat="43.18395321094652" lon="12.258617917369511"><ele>320.0</ele><time>2026-03-29T07:37:48.998Z</time></trkpt><trkpt lat="43.18403453935795" lon="12.258661119787963"><ele>323.5</ele><time>2026-03-29T07:37:49.998Z</time></trkpt><trkpt lat="43.18415248669688" lon="12.258672523182232"><ele>327.0</ele><time>2026-03-29T07:37:50.998Z</time></trkpt><trkpt lat="43.184291711405784" lon="12.258658372876603"><ele>330.5</ele><time>2026-03-29T07:37:51.998Z</time></trkpt><trkpt lat="43.18441528635285" lon="12.258667776960392"><ele>334.0</ele><time>2026-03-29T07:37:52.998Z</time></trkpt><trkpt lat="43.18449644832266" lon="12.258715739402751"><ele>334.0</ele><time>2026-03-29T07:37:53.998Z</time></trkpt><trkpt lat="43.18456876836739" lon="12.258820008624129"><ele>334.0</ele><time>2026-03-29T07:37:54.998Z</time></trkpt><trkpt lat="43.18465376838822" lon="12.258899768691352"><ele>334.0</ele><time>2026-03-29T07:37:55.998Z</time></trkpt><trkpt lat="43.18471031223021" lon="12.258969047329044"><ele>334.0</ele><time>2026-03-29T07:37:56.998Z</time></trkpt><trkpt lat="43.18479015051752" lon="12.259046054532236"><ele>334.0</ele><time>2026-03-29T07:37:58.998Z</time></trkpt><trkpt lat="43.18480913611832" lon="12.25913635952756"><ele>334.0</ele><time>2026-03-29T07:38:00.998Z</time></trkpt><trkpt lat="43.18486048332322" lon="12.259200863231005"><ele>334.0</ele><time>2026-03-29T07:38:02.998Z</time></trkpt><trkpt lat="43.184949889379276" lon="12.259231981256127"><ele>334.0</ele><time>2026-03-29T07:38:06.998Z</time></trkpt><trkpt lat="43.18501622865656" lon="12.259244972992523"><ele>334.0</ele><time>2026-03-29T07:38:07.998Z</time></trkpt><trkpt lat="43.18514804999218" lon="12.259273148453989"><ele>334.0</ele><time>2026-03-29T07:38:09.998Z</time></trkpt><trkpt lat="43.18523357566545" lon="12.2593435270413"><ele>334.0</ele><time>2026-03-29T07:38:10.998Z</time></trkpt><trkpt lat="43.18531331442009" lon="12.259421401914928"><ele>334.0</ele><time>2026-03-29T07:38:12Z</time></trkpt><trkpt lat="43.18540220899997" lon="12.259454654878706"><ele>334.0</ele><time>2026-03-29T07:38:13Z</time></trkpt><trkpt lat="43.18552826535181" lon="12.259446022243278"><ele>334.0</ele><time>2026-03-29T07:38:14Z</time></trkpt><trkpt lat="43.18563349106413" lon="12.259431164373456"><ele>334.0</ele><time>2026-03-29T07:38:15Z</time></trkpt><trkpt lat="43.18574383634407" lon="12.259434439848373"><ele>333.0</ele><time>2026-03-29T07:38:16Z</time></trkpt><trkpt lat="43.185827948030706" lon="12.259446296694986"><ele>332.0</ele><time>2026-03-29T07:38:17Z</time></trkpt><trkpt lat="43.185925423836" lon="12.259620069054384"><ele>331.0</ele><time>2026-03-29T07:38:19Z</time></trkpt><trkpt lat="43.186013797971285" lon="12.259734477921253"><ele>330.0</ele><time>2026-03-29T07:38:20Z</time></trkpt><trkpt lat="43.186116169256074" lon="12.259811653919334"><ele>330.0</ele><time>2026-03-29T07:38:21Z</time></trkpt><trkpt lat="43.186207888339645" lon="12.259886204582271"><ele>330.0</ele><time>2026-03-29T07:38:22Z</time></trkpt><trkpt lat="43.18629896488274" lon="12.25990640356211"><ele>330.0</ele><time>2026-03-29T07:38:23Z</time></trkpt><trkpt lat="43.186380905498574" lon="12.259950662832303"><ele>330.0</ele><time>2026-03-29T07:38:24Z</time></trkpt><trkpt lat="43.18645972852724" lon="12.259957736120354"><ele>330.0</ele><time>2026-03-29T07:38:25Z</time></trkpt><trkpt lat="43.18656912520703" lon="12.259981884344228"><ele>330.8</ele><time>2026-03-29T07:38:26Z</time></trkpt><trkpt lat="43.18668089641913" lon="12.259991405558868"><ele>331.6</ele><time>2026-03-29T07:38:27Z</time></trkpt><trkpt lat="43.18678305891885" lon="12.259966762945334"><ele>332.4</ele><time>2026-03-29T07:38:28Z</time></trkpt><trkpt lat="43.18688319998638" lon="12.259931657744964"><ele>333.2</ele><time>2026-03-29T07:38:29Z</time></trkpt><trkpt lat="43.186969631694936" lon="12.259874825231423"><ele>334.0</ele><time>2026-03-29T07:38:30Z</time></trkpt><trkpt lat="43.187036646312805" lon="12.259884293844378"><ele>334.0</ele><time>2026-03-29T07:38:31Z</time></trkpt><trkpt lat="43.18712255231314" lon="12.259946951908816"><ele>334.0</ele><time>2026-03-29T07:38:32Z</time></trkpt><trkpt lat="43.18721736712808" lon="12.25997240378603"><ele>334.0</ele><time>2026-03-29T07:38:33Z</time></trkpt><trkpt lat="43.18730105432364" lon="12.260007504929105"><ele>334.0</ele><time>2026-03-29T07:38:34Z</time></trkpt><trkpt lat="43.187360063734786" lon="12.260062129410068"><ele>334.0</ele><time>2026-03-29T07:38:36Z</time></trkpt><trkpt lat="43.18743635340308" lon="12.260062985689324"><ele>334.0</ele><time>2026-03-29T07:38:37.999Z</time></trkpt><trkpt lat="43.187526870066364" lon="12.26013994471789"><ele>336.25</ele><time>2026-03-29T07:38:39.999Z</time></trkpt><trkpt lat="43.18761097546846" lon="12.2601934381639"><ele>338.5</ele><time>2026-03-29T07:38:41.999Z</time></trkpt><trkpt lat="43.187734635754666" lon="12.260201939373209"><ele>340.75</ele><time>2026-03-29T07:38:43.999Z</time></trkpt><trkpt lat="43.18785312987222" lon="12.26023438776682"><ele>343.0</ele><time>2026-03-29T07:38:45.999Z</time></trkpt><trkpt lat="43.187983859298114" lon="12.260220472278268"><ele>343.0</ele><time>2026-03-29T07:38:47.999Z</time></trkpt><trkpt lat="43.18807485447156" lon="12.260177539355631"><ele>343.0</ele><time>2026-03-29T07:38:48.999Z</time></trkpt><trkpt lat="43.18815604359929" lon="12.26014924664259"><ele>343.0</ele><time>2026-03-29T07:38:49.999Z</time></trkpt><trkpt lat="43.188233775623466" lon="12.260151195139128"><ele>343.0</ele><time>2026-03-29T07:38:50.999Z</time></trkpt><trkpt lat="43.18829638843449" lon="12.26017239335093"><ele>343.0</ele><time>2026-03-29T07:38:51.999Z</time></trkpt><trkpt lat="43.18837533288337" lon="12.260161822363452"><ele>343.0</ele><time>2026-03-29T07:38:52.999Z</time></trkpt><trkpt lat="43.18846308507557" lon="12.26016059593829"><ele>344.5</ele><time>2026-03-29T07:38:53.999Z</time></trkpt><trkpt lat="43.188538521091424" lon="12.260179320943225"><ele>346.0</ele><time>2026-03-29T07:38:54.999Z</time></trkpt><trkpt lat="43.18861613779515" lon="12.2602114444461"><ele>347.5</ele><time>2026-03-29T07:38:55.999Z</time></trkpt><trkpt lat="43.188685014637564" lon="12.26025921539173"><ele>349.0</ele><time>2026-03-29T07:38:56.999Z</time></trkpt><trkpt lat="43.18880035834341" lon="12.260297769580653"><ele>350.5</ele><time>2026-03-29T07:38:58.999Z</time></trkpt><trkpt lat="43.1888706014053" lon="12.260308095060756"><ele>352.0</ele><time>2026-03-29T07:38:59.999Z</time></trkpt><trkpt lat="43.18899892361259" lon="12.260375287167887"><ele>353.0</ele><time>2026-03-29T07:39:01.999Z</time></trkpt><trkpt lat="43.18907217022133" lon="12.26039476232464"><ele>354.0</ele><time>2026-03-29T07:39:02.999Z</time></trkpt><trkpt lat="43.18918163994095" lon="12.260423969942675"><ele>355.0</ele><time>2026-03-29T07:39:04.999Z</time></trkpt><trkpt lat="43.189277465010264" lon="12.260489018442739"><ele>356.0</ele><time>2026-03-29T07:39:06.999Z</time></trkpt><trkpt lat="43.189346579318006" lon="12.260449573348312"><ele>357.0</ele><time>2026-03-29T07:39:08.999Z</time></trkpt><trkpt lat="43.189423675467594" lon="12.260340241359785"><ele>357.0</ele><time>2026-03-29T07:39:10.999Z</time></trkpt><trkpt lat="43.18951535364763" lon="12.260316060874988"><ele>357.0</ele><time>2026-03-29T07:39:12.999Z</time></trkpt><trkpt lat="43.189585085319074" lon="12.260313742855846"><ele>357.0</ele><time>2026-03-29T07:39:13.999Z</time></trkpt><trkpt lat="43.189650086671335" lon="12.260329349893308"><ele>357.0</ele><time>2026-03-29T07:39:14.999Z</time></trkpt><trkpt lat="43.18978061956753" lon="12.260324743971921"><ele>357.0</ele><time>2026-03-29T07:39:16.999Z</time></trkpt><trkpt lat="43.189873855436794" lon="12.260344116848982"><ele>358.42857142857144</ele><time>2026-03-29T07:39:17.999Z</time></trkpt><trkpt lat="43.18994475199507" lon="12.26036439966129"><ele>359.8571428571429</ele><time>2026-03-29T07:39:18.999Z</time></trkpt><trkpt lat="43.189997918658975" lon="12.260413671173438"><ele>361.2857142857143</ele><time>2026-03-29T07:39:19.999Z</time></trkpt><trkpt lat="43.19004783591796" lon="12.260481923630604"><ele>362.7142857142857</ele><time>2026-03-29T07:39:20.999Z</time></trkpt><trkpt lat="43.190103759021916" lon="12.260545281413796"><ele>364.14285714285717</ele><time>2026-03-29T07:39:21.999Z</time></trkpt><trkpt lat="43.19016608013352" lon="12.26056928979265"><ele>365.57142857142856</ele><time>2026-03-29T07:39:22.999Z</time></trkpt><trkpt lat="43.19023096484436" lon="12.260590583086811"><ele>367.0</ele><time>2026-03-29T07:39:23.999Z</time></trkpt><trkpt lat="43.19029501344517" lon="12.260601844144931"><ele>367.0</ele><time>2026-03-29T07:39:24.999Z</time></trkpt><trkpt lat="43.19036014790286" lon="12.260566260885561"><ele>367.0</ele><time>2026-03-29T07:39:25.999Z</time></trkpt><trkpt lat="43.19042944605126" lon="12.2605702991118"><ele>367.0</ele><time>2026-03-29T07:39:26.999Z</time></trkpt><trkpt lat="43.19049700879495" lon="12.26060453934834"><ele>367.0</ele><time>2026-03-29T07:39:27.999Z</time></trkpt><trkpt lat="43.190576418641605" lon="12.26064350982474"><ele>367.0</ele><time>2026-03-29T07:39:28.999Z</time></trkpt><trkpt lat="43.190643407834905" lon="12.260651310858268"><ele>367.0</ele><time>2026-03-29T07:39:29.999Z</time></trkpt><trkpt lat="43.19073745828411" lon="12.260698950731134"><ele>364.8</ele><time>2026-03-29T07:39:31.999Z</time></trkpt><trkpt lat="43.190842434637894" lon="12.260739292465539"><ele>362.6</ele><time>2026-03-29T07:39:33.999Z</time></trkpt><trkpt lat="43.19090541071469" lon="12.260745350299553"><ele>360.40000000000003</ele><time>2026-03-29T07:39:34.999Z</time></trkpt><trkpt lat="43.1909698114633" lon="12.260771109002418"><ele>358.20000000000005</ele><time>2026-03-29T07:39:35.999Z</time></trkpt><trkpt lat="43.191112991155336" lon="12.260810870078158"><ele>356.0</ele><time>2026-03-29T07:39:37.998Z</time></trkpt><trkpt lat="43.19120625941903" lon="12.260806953425663"><ele>356.0</ele><time>2026-03-29T07:39:38.998Z</time></trkpt><trkpt lat="43.19129130646021" lon="12.260816289402468"><ele>356.0</ele><time>2026-03-29T07:39:39.998Z</time></trkpt><trkpt lat="43.1913818506246" lon="12.260863884274947"><ele>356.0</ele><time>2026-03-29T07:39:40.998Z</time></trkpt><trkpt lat="43.19145498861889" lon="12.260894588648133"><ele>356.0</ele><time>2026-03-29T07:39:41.998Z</time></trkpt><trkpt lat="43.19152637631044" lon="12.260931891022057"><ele>356.0</ele><time>2026-03-29T07:39:42.998Z</time></trkpt><trkpt lat="43.1915998359785" lon="12.260944805523696"><ele>356.0</ele><time>2026-03-29T07:39:43.998Z</time></trkpt><trkpt lat="43.19167044781975" lon="12.26091879494815"><ele>356.33333333333337</ele><time>2026-03-29T07:39:44.998Z</time></trkpt><trkpt lat="43.191747056118594" lon="12.260870630758047"><ele>356.6666666666667</ele><time>2026-03-29T07:39:45.998Z</time></trkpt><trkpt lat="43.191833960560565" lon="12.260866135994092"><ele>357.0</ele><time>2026-03-29T07:39:46.998Z</time></trkpt><trkpt lat="43.191935276485154" lon="12.260858052643288"><ele>357.3333333333333</ele><time>2026-03-29T07:39:48.998Z</time></trkpt><trkpt lat="43.19200387840416" lon="12.260862167280013"><ele>357.66666666666663</ele><time>2026-03-29T07:39:52.998Z</time></trkpt><trkpt lat="43.19208756803155" lon="12.260828022191921"><ele>358.0</ele><time>2026-03-29T07:40:00.998Z</time></trkpt><trkpt lat="43.19220747935576" lon="12.26077166754926"><ele>358.0</ele><time>2026-03-29T07:40:02.998Z</time></trkpt><trkpt lat="43.19229639190877" lon="12.260738768205961"><ele>358.0</ele><time>2026-03-29T07:40:03.998Z</time></trkpt><trkpt lat="43.19238679229069" lon="12.260707659742863"><ele>358.0</ele><time>2026-03-29T07:40:04.998Z</time></trkpt><trkpt lat="43.19248193841823" lon="12.260661238118146"><ele>358.0</ele><time>2026-03-29T07:40:05.998Z</time></trkpt><trkpt lat="43.19258902039546" lon="12.260597020284704"><ele>358.0</ele><time>2026-03-29T07:40:06.998Z</time></trkpt><trkpt lat="43.1926777912219" lon="12.260563201539359"><ele>359.8333333333333</ele><time>2026-03-29T07:40:07.998Z</time></trkpt><trkpt lat="43.19275038734081" lon="12.260552933057495"><ele>361.66666666666663</ele><time>2026-03-29T07:40:08.998Z</time></trkpt><trkpt lat="43.19283797917373" lon="12.260567754393358"><ele>363.5</ele><time>2026-03-29T07:40:09.998Z</time></trkpt><trkpt lat="43.19292847407032" lon="12.260577475871036"><ele>365.3333333333333</ele><time>2026-03-29T07:40:10.998Z</time></trkpt><trkpt lat="43.19301415884555" lon="12.260571644350428"><ele>367.1666666666667</ele><time>2026-03-29T07:40:11.998Z</time></trkpt><trkpt lat="43.19311634697616" lon="12.260592288895973"><ele>369.0</ele><time>2026-03-29T07:40:12.998Z</time></trkpt><trkpt lat="43.19319757750443" lon="12.26062315571685"><ele>370.3333333333333</ele><time>2026-03-29T07:40:13.998Z</time></trkpt><trkpt lat="43.193268396198825" lon="12.26061609689003"><ele>371.6666666666667</ele><time>2026-03-29T07:40:14.998Z</time></trkpt><trkpt lat="43.193349464559304" lon="12.260587385683223"><ele>373.0</ele><time>2026-03-29T07:40:15.998Z</time></trkpt><trkpt lat="43.19340289848586" lon="12.260539849527614"><ele>374.33333333333337</ele><time>2026-03-29T07:40:16.998Z</time></trkpt><trkpt lat="43.193497759591104" lon="12.260454348416662"><ele>375.6666666666667</ele><time>2026-03-29T07:40:19Z</time></trkpt><trkpt lat="43.19355963309261" lon="12.260375361440467"><ele>377.0</ele><time>2026-03-29T07:40:20Z</time></trkpt><trkpt lat="43.19361773120517" lon="12.260317284240502"><ele>377.0</ele><time>2026-03-29T07:40:21Z</time></trkpt><trkpt lat="43.19367111677834" lon="12.260227425437513"><ele>377.0</ele><time>2026-03-29T07:40:23Z</time></trkpt><trkpt lat="43.19374765490378" lon="12.260219381671387"><ele>377.0</ele><time>2026-03-29T07:40:25Z</time></trkpt><trkpt lat="43.19384367378112" lon="12.260290037639782"><ele>377.0</ele><time>2026-03-29T07:40:27Z</time></trkpt><trkpt lat="43.19393759218615" lon="12.260310910365218"><ele>377.0</ele><time>2026-03-29T07:40:29Z</time></trkpt><trkpt lat="43.19404279330385" lon="12.260327980886757"><ele>376.6666666666667</ele><time>2026-03-29T07:40:30Z</time></trkpt><trkpt lat="43.19411350716247" lon="12.260321320866762"><ele>376.33333333333337</ele><time>2026-03-29T07:40:31Z</time></trkpt><trkpt lat="43.1941833904366" lon="12.260299557996289"><ele>376.0</ele><time>2026-03-29T07:40:32Z</time></trkpt><trkpt lat="43.194245682815335" lon="12.26024030697022"><ele>375.6666666666667</ele><time>2026-03-29T07:40:33Z</time></trkpt><trkpt lat="43.19432257662891" lon="12.260200949029427"><ele>375.3333333333333</ele><time>2026-03-29T07:40:34Z</time></trkpt><trkpt lat="43.19442941521402" lon="12.260159897614912"><ele>375.0</ele><time>2026-03-29T07:40:35Z</time></trkpt><trkpt lat="43.19453786325762" lon="12.260118487220986"><ele>375.0</ele><time>2026-03-29T07:40:36Z</time></trkpt><trkpt lat="43.19465313777105" lon="12.26008149308783"><ele>375.0</ele><time>2026-03-29T07:40:37Z</time></trkpt><trkpt lat="43.19473091142946" lon="12.260073791328672"><ele>375.0</ele><time>2026-03-29T07:40:38Z</time></trkpt><trkpt lat="43.19481502137957" lon="12.260069758672593"><ele>375.0</ele><time>2026-03-29T07:40:39Z</time></trkpt><trkpt lat="43.1949462390894" lon="12.260071571988975"><ele>375.0</ele><time>2026-03-29T07:40:40.999Z</time></trkpt><trkpt lat="43.19502981521529" lon="12.260070333174518"><ele>376.0</ele><time>2026-03-29T07:40:41.999Z</time></trkpt><trkpt lat="43.19513250343474" lon="12.260072245931777"><ele>377.0</ele><time>2026-03-29T07:40:42.999Z</time></trkpt><trkpt lat="43.19522826060362" lon="12.260084415281835"><ele>378.0</ele><time>2026-03-29T07:40:43.999Z</time></trkpt><trkpt lat="43.19529891895036" lon="12.260125113979337"><ele>379.0</ele><time>2026-03-29T07:40:44.999Z</time></trkpt><trkpt lat="43.19538589661625" lon="12.260257153044503"><ele>380.0</ele><time>2026-03-29T07:40:46.999Z</time></trkpt><trkpt lat="43.19547522177444" lon="12.26031416499495"><ele>380.0</ele><time>2026-03-29T07:40:47.999Z</time></trkpt><trkpt lat="43.195547607736046" lon="12.260341562458311"><ele>380.0</ele><time>2026-03-29T07:40:48.999Z</time></trkpt><trkpt lat="43.19565144191233" lon="12.260334896954486"><ele>380.0</ele><time>2026-03-29T07:40:50.999Z</time></trkpt><trkpt lat="43.19571163547403" lon="12.260292298473859"><ele>380.0</ele><time>2026-03-29T07:40:51.999Z</time></trkpt><trkpt lat="43.195785081247486" lon="12.260251812888583"><ele>380.0</ele><time>2026-03-29T07:40:52.999Z</time></trkpt><trkpt lat="43.19584744378653" lon="12.26019223608445"><ele>380.0</ele><time>2026-03-29T07:40:53.999Z</time></trkpt><trkpt lat="43.19590345839796" lon="12.260125230513966"><ele>380.4</ele><time>2026-03-29T07:40:54.999Z</time></trkpt><trkpt lat="43.195983403100456" lon="12.260022833044705"><ele>380.8</ele><time>2026-03-29T07:40:56.999Z</time></trkpt><trkpt lat="43.1960457076297" lon="12.26000906610645"><ele>381.20000000000005</ele><time>2026-03-29T07:40:58.999Z</time></trkpt><trkpt lat="43.19618202271125" lon="12.259995416166166"><ele>381.6</ele><time>2026-03-29T07:41:14.999Z</time></trkpt><trkpt lat="43.19629409516315" lon="12.260019408372678"><ele>382.0</ele><time>2026-03-29T07:41:15.999Z</time></trkpt><trkpt lat="43.19638702475844" lon="12.26001234303287"><ele>382.0</ele><time>2026-03-29T07:41:16.999Z</time></trkpt><trkpt lat="43.19648561341223" lon="12.260009147973415"><ele>382.0</ele><time>2026-03-29T07:41:17.999Z</time></trkpt><trkpt lat="43.1965599199904" lon="12.26001206377577"><ele>382.0</ele><time>2026-03-29T07:41:18.999Z</time></trkpt><trkpt lat="43.19663627051233" lon="12.260020201933317"><ele>382.0</ele><time>2026-03-29T07:41:19.999Z</time></trkpt><trkpt lat="43.19669971204988" lon="12.260007358807261"><ele>382.0</ele><time>2026-03-29T07:41:20.999Z</time></trkpt><trkpt lat="43.19677127878454" lon="12.260013715265249"><ele>382.0</ele><time>2026-03-29T07:41:22.999Z</time></trkpt><trkpt lat="43.196901452283285" lon="12.259999835223658"><ele>381.6</ele><time>2026-03-29T07:41:25.999Z</time></trkpt><trkpt lat="43.196969684621486" lon="12.259960517216447"><ele>381.20000000000005</ele><time>2026-03-29T07:41:26.999Z</time></trkpt><trkpt lat="43.19705345709775" lon="12.259857167237211"><ele>380.8</ele><time>2026-03-29T07:41:28.999Z</time></trkpt><trkpt lat="43.19714519574411" lon="12.259831811210104"><ele>380.4</ele><time>2026-03-29T07:41:30.999Z</time></trkpt><trkpt lat="43.197263144834395" lon="12.259845038675316"><ele>380.0</ele><time>2026-03-29T07:41:32.999Z</time></trkpt><trkpt lat="43.19732423942201" lon="12.259866244411736"><ele>379.6666666666667</ele><time>2026-03-29T07:41:33.999Z</time></trkpt><trkpt lat="43.19740143262709" lon="12.259893062866189"><ele>379.33333333333337</ele><time>2026-03-29T07:41:35.999Z</time></trkpt><trkpt lat="43.1974938381335" lon="12.259931017207878"><ele>379.0</ele><time>2026-03-29T07:41:37.999Z</time></trkpt><trkpt lat="43.19756273839659" lon="12.259954712109051"><ele>378.6666666666667</ele><time>2026-03-29T07:41:38.999Z</time></trkpt><trkpt lat="43.197629173923914" lon="12.259955741038393"><ele>378.3333333333333</ele><time>2026-03-29T07:41:39.998Z</time></trkpt><trkpt lat="43.1976986186909" lon="12.259945594169459"><ele>378.0</ele><time>2026-03-29T07:41:40.998Z</time></trkpt><trkpt lat="43.19778635786014" lon="12.25993846761126"><ele>378.0</ele><time>2026-03-29T07:41:41.998Z</time></trkpt><trkpt lat="43.19785151111172" lon="12.259943140139091"><ele>378.0</ele><time>2026-03-29T07:41:42.998Z</time></trkpt><trkpt lat="43.197981447132115" lon="12.25996246131898"><ele>378.0</ele><time>2026-03-29T07:41:44.998Z</time></trkpt><trkpt lat="43.198053186613244" lon="12.259979087970297"><ele>378.0</ele><time>2026-03-29T07:41:45.998Z</time></trkpt><trkpt lat="43.19812436164425" lon="12.259993640250324"><ele>378.0</ele><time>2026-03-29T07:41:46.998Z</time></trkpt><trkpt lat="43.198203115294376" lon="12.259995131990234"><ele>378.0</ele><time>2026-03-29T07:41:47.998Z</time></trkpt><trkpt lat="43.19826565631855" lon="12.259982097150417"><ele>378.6666666666667</ele><time>2026-03-29T07:41:48.998Z</time></trkpt><trkpt lat="43.198349548198685" lon="12.259942058782736"><ele>379.3333333333333</ele><time>2026-03-29T07:41:50.998Z</time></trkpt><trkpt lat="43.19843186620787" lon="12.259898112627717"><ele>380.0</ele><time>2026-03-29T07:41:52.998Z</time></trkpt><trkpt lat="43.19853704998715" lon="12.259885503683048"><ele>380.66666666666663</ele><time>2026-03-29T07:41:55.998Z</time></trkpt><trkpt lat="43.198623618792766" lon="12.259866662542224"><ele>381.3333333333333</ele><time>2026-03-29T07:41:57.998Z</time></trkpt><trkpt lat="43.19869416588104" lon="12.259853722730027"><ele>382.0</ele><time>2026-03-29T07:41:59.998Z</time></trkpt><trkpt lat="43.198774477149364" lon="12.25984042730404"><ele>382.0</ele><time>2026-03-29T07:42:01.998Z</time></trkpt><trkpt lat="43.198859068685785" lon="12.259807429564558"><ele>382.0</ele><time>2026-03-29T07:42:03.998Z</time></trkpt><trkpt lat="43.19893996575153" lon="12.259748378817354"><ele>382.0</ele><time>2026-03-29T07:42:10.998Z</time></trkpt><trkpt lat="43.19902037893503" lon="12.259703824414949"><ele>382.0</ele><time>2026-03-29T07:42:12.998Z</time></trkpt><trkpt lat="43.19908797559312" lon="12.25965030537051"><ele>382.0</ele><time>2026-03-29T07:42:14.998Z</time></trkpt><trkpt lat="43.19909342796767" lon="12.259547224457636"><ele>382.0</ele><time>2026-03-29T07:42:21.998Z</time></trkpt><trkpt lat="43.19906982577546" lon="12.259462066762326"><ele>384.5714285714286</ele><time>2026-03-29T07:42:24Z</time></trkpt><trkpt lat="43.199121523137016" lon="12.259398452564062"><ele>387.1428571428571</ele><time>2026-03-29T07:42:31Z</time></trkpt><trkpt lat="43.199176004412855" lon="12.259346370492306"><ele>389.7142857142857</ele><time>2026-03-29T07:43:07.999Z</time></trkpt><trkpt lat="43.199139028788665" lon="12.259244131159074"><ele>392.28571428571433</ele><time>2026-03-29T07:43:48.998Z</time></trkpt><trkpt lat="43.199198835412915" lon="12.259290531340973"><ele>394.8571428571429</ele><time>2026-03-29T07:47:47.999Z</time></trkpt><trkpt lat="43.19920505630474" lon="12.259399943569258"><ele>397.42857142857144</ele><time>2026-03-29T07:47:56.999Z</time></trkpt><trkpt lat="43.19919775132616" lon="12.259493125420404"><ele>400.0</ele><time>2026-03-29T07:47:58.999Z</time></trkpt><trkpt lat="43.19913615874203" lon="12.259556021498645"><ele>400.00000000000006</ele><time>2026-03-29T07:48:02.999Z</time></trkpt><trkpt lat="43.19906856058162" lon="12.259550744003912"><ele>400.0</ele><time>2026-03-29T07:48:06.999Z</time></trkpt><trkpt lat="43.19904425948177" lon="12.259449578156577"><ele>400.0</ele><time>2026-03-29T07:48:09.999Z</time></trkpt><trkpt lat="43.19896187417833" lon="12.259447427555422"><ele>400.0</ele><time>2026-03-29T07:48:13.999Z</time></trkpt><trkpt lat="43.198922705458145" lon="12.259361159761852"><ele>400.00000000000006</ele><time>2026-03-29T07:48:15.999Z</time></trkpt><trkpt lat="43.19889236301866" lon="12.259220888061563"><ele>400.0</ele><time>2026-03-29T07:48:17.999Z</time></trkpt><trkpt lat="43.19885916006783" lon="12.25912071107866"><ele>400.50000000000006</ele><time>2026-03-29T07:48:21.999Z</time></trkpt><trkpt lat="43.19881887461663" lon="12.258968333731874"><ele>401.0</ele><time>2026-03-29T07:48:25.999Z</time></trkpt><trkpt lat="43.198824654378186" lon="12.258871723606232"><ele>401.5</ele><time>2026-03-29T07:49:27Z</time></trkpt><trkpt lat="43.19888310458659" lon="12.258813996360544"><ele>402.0</ele><time>2026-03-29T07:49:33Z</time></trkpt><trkpt lat="43.19891694872592" lon="12.258732446888223"><ele>402.50000000000006</ele><time>2026-03-29T07:49:35Z</time></trkpt><trkpt lat="43.198965195819504" lon="12.258667263233766"><ele>403.0</ele><time>2026-03-29T07:50:05.999Z</time></trkpt><trkpt lat="43.199005827581345" lon="12.258597508508876"><ele>405.83333333333337</ele><time>2026-03-29T07:50:11.999Z</time></trkpt><trkpt lat="43.19907264864989" lon="12.25857805017957"><ele>408.6666666666667</ele><time>2026-03-29T07:50:15.999Z</time></trkpt><trkpt lat="43.199125449171966" lon="12.25846489645951"><ele>411.5</ele><time>2026-03-29T07:50:18.999Z</time></trkpt><trkpt lat="43.19917616156355" lon="12.25840473280096"><ele>414.33333333333337</ele><time>2026-03-29T07:50:20.999Z</time></trkpt><trkpt lat="43.19924566923695" lon="12.258395755879095"><ele>417.1666666666667</ele><time>2026-03-29T07:50:22.999Z</time></trkpt><trkpt lat="43.199299733246335" lon="12.258317460560628"><ele>420.0</ele><time>2026-03-29T07:50:24.999Z</time></trkpt><trkpt lat="43.19936762805617" lon="12.258248718239647"><ele>420.0</ele><time>2026-03-29T07:50:26.999Z</time></trkpt><trkpt lat="43.19938925017458" lon="12.25813183509708"><ele>420.0</ele><time>2026-03-29T07:50:29.999Z</time></trkpt><trkpt lat="43.199420009370485" lon="12.25800805004237"><ele>420.0</ele><time>2026-03-29T07:50:31.999Z</time></trkpt><trkpt lat="43.199419260309355" lon="12.257843406641191"><ele>420.0</ele><time>2026-03-29T07:50:33.999Z</time></trkpt><trkpt lat="43.19942204210358" lon="12.257737575037993"><ele>420.0</ele><time>2026-03-29T07:50:34.999Z</time></trkpt><trkpt lat="43.19941636317182" lon="12.257649492363308"><ele>420.0</ele><time>2026-03-29T07:50:35.999Z</time></trkpt><trkpt lat="43.199411203471776" lon="12.257515984546586"><ele>424.0</ele><time>2026-03-29T07:50:37.999Z</time></trkpt><trkpt lat="43.19941010221198" lon="12.257341781552196"><ele>428.0</ele><time>2026-03-29T07:50:39.999Z</time></trkpt><trkpt lat="43.199373473784604" lon="12.257209012488412"><ele>432.0</ele><time>2026-03-29T07:50:41.999Z</time></trkpt><trkpt lat="43.19928289644854" lon="12.257139149219574"><ele>436.0</ele><time>2026-03-29T07:50:43.999Z</time></trkpt><trkpt lat="43.19918474442998" lon="12.257127478076693"><ele>440.0</ele><time>2026-03-29T07:50:45.999Z</time></trkpt><trkpt lat="43.19919464747596" lon="12.257035174264637"><ele>444.99999999999994</ele><time>2026-03-29T07:50:49Z</time></trkpt><trkpt lat="43.199303746778206" lon="12.257031960462964"><ele>450.0</ele><time>2026-03-29T07:50:52Z</time></trkpt><trkpt lat="43.199369740050926" lon="12.257032624361825"><ele>455.0</ele><time>2026-03-29T07:50:54Z</time></trkpt><trkpt lat="43.1994953147025" lon="12.25703007305265"><ele>460.0</ele><time>2026-03-29T07:50:57Z</time></trkpt><trkpt lat="43.199570825291374" lon="12.257046064386136"><ele>464.99999999999994</ele><time>2026-03-29T07:50:59Z</time></trkpt><trkpt lat="43.19964082539878" lon="12.257038816761849"><ele>470.0</ele><time>2026-03-29T07:51:01Z</time></trkpt><trkpt lat="43.19972995301909" lon="12.257053983595181"><ele>470.0</ele><time>2026-03-29T07:51:03Z</time></trkpt><trkpt lat="43.19979884099827" lon="12.257046845315104"><ele>470.0</ele><time>2026-03-29T07:51:05Z</time></trkpt><trkpt lat="43.20012323847095" lon="12.257130708085061"><ele>470.0</ele><time>2026-03-29T07:51:09Z</time></trkpt><trkpt lat="43.20022482085226" lon="12.257228127482506"><ele>469.6</ele><time>2026-03-29T07:51:11Z</time></trkpt><trkpt lat="43.20028323607673" lon="12.25726591886297"><ele>469.2</ele><time>2026-03-29T07:51:12Z</time></trkpt><trkpt lat="43.200344477078445" lon="12.257288016099048"><ele>468.79999999999995</ele><time>2026-03-29T07:51:13Z</time></trkpt><trkpt lat="43.20045924537722" lon="12.257342933196366"><ele>468.4</ele><time>2026-03-29T07:51:15Z</time></trkpt><trkpt lat="43.20058359508442" lon="12.25733764806607"><ele>468.0</ele><time>2026-03-29T07:51:17Z</time></trkpt><trkpt lat="43.20066385286001" lon="12.25732005147254"><ele>465.8333333333333</ele><time>2026-03-29T07:51:18Z</time></trkpt><trkpt lat="43.20073890728348" lon="12.257282919551846"><ele>463.66666666666663</ele><time>2026-03-29T07:51:19Z</time></trkpt><trkpt lat="43.20081033044739" lon="12.257239771931047"><ele>461.5</ele><time>2026-03-29T07:51:20Z</time></trkpt><trkpt lat="43.20088359655501" lon="12.257193502001863"><ele>459.3333333333333</ele><time>2026-03-29T07:51:21Z</time></trkpt><trkpt lat="43.20095102336501" lon="12.257134488170205"><ele>457.16666666666663</ele><time>2026-03-29T07:51:22Z</time></trkpt><trkpt lat="43.20101741059507" lon="12.257086389352429"><ele>455.0</ele><time>2026-03-29T07:51:23Z</time></trkpt><trkpt lat="43.20108878216702" lon="12.257039584829924"><ele>454.99999999999994</ele><time>2026-03-29T07:51:24Z</time></trkpt><trkpt lat="43.201157610715136" lon="12.257005160606472"><ele>455.0</ele><time>2026-03-29T07:51:25Z</time></trkpt><trkpt lat="43.20120083886768" lon="12.256932513669122"><ele>455.0</ele><time>2026-03-29T07:51:30Z</time></trkpt><trkpt lat="43.20122507007885" lon="12.256787153593297"><ele>455.0</ele><time>2026-03-29T07:51:32Z</time></trkpt><trkpt lat="43.20123754778076" lon="12.25669999864921"><ele>454.99999999999994</ele><time>2026-03-29T07:51:33Z</time></trkpt><trkpt lat="43.201303472746865" lon="12.256565831422938"><ele>455.0</ele><time>2026-03-29T07:51:35Z</time></trkpt><trkpt lat="43.20136518654535" lon="12.256517133003275"><ele>454.99999999999994</ele><time>2026-03-29T07:51:37Z</time></trkpt><trkpt lat="43.20145018460213" lon="12.256497195143906"><ele>455.0</ele><time>2026-03-29T07:51:39Z</time></trkpt><trkpt lat="43.20156964500887" lon="12.256499475696836"><ele>455.0</ele><time>2026-03-29T07:51:41Z</time></trkpt><trkpt lat="43.20165291314415" lon="12.256512104431255"><ele>455.0</ele><time>2026-03-29T07:51:42Z</time></trkpt><trkpt lat="43.201725365030995" lon="12.25652856086724"><ele>454.99999999999994</ele><time>2026-03-29T07:51:43Z</time></trkpt><trkpt lat="43.20179121296522" lon="12.256529895901615"><ele>455.0</ele><time>2026-03-29T07:51:44Z</time></trkpt><trkpt lat="43.201893772258764" lon="12.256615287041766"><ele>452.0</ele><time>2026-03-29T07:51:46Z</time></trkpt><trkpt lat="43.202007702654825" lon="12.256662571442158"><ele>449.0</ele><time>2026-03-29T07:51:48Z</time></trkpt><trkpt lat="43.202135271809155" lon="12.256642633846985"><ele>446.0</ele><time>2026-03-29T07:51:50Z</time></trkpt><trkpt lat="43.20221899738218" lon="12.25662373834615"><ele>443.0</ele><time>2026-03-29T07:51:52Z</time></trkpt><trkpt lat="43.20228607796829" lon="12.256621689532375"><ele>440.0</ele><time>2026-03-29T07:51:54Z</time></trkpt><trkpt lat="43.20234864520092" lon="12.25670578161016"><ele>439.99999999999994</ele><time>2026-03-29T07:51:55.999Z</time></trkpt><trkpt lat="43.20234299994211" lon="12.256828162279254"><ele>440.0</ele><time>2026-03-29T07:51:57.999Z</time></trkpt><trkpt lat="43.202316062017736" lon="12.256914008288982"><ele>440.0</ele><time>2026-03-29T07:51:59.999Z</time></trkpt><trkpt lat="43.202307399166436" lon="12.257022330866063"><ele>440.0</ele><time>2026-03-29T07:52:01.999Z</time></trkpt><trkpt lat="43.2023602351748" lon="12.25707595149547"><ele>439.99999999999994</ele><time>2026-03-29T07:52:23.999Z</time></trkpt><trkpt lat="43.20241348726336" lon="12.257020958617499"><ele>440.0</ele><time>2026-03-29T07:52:26.999Z</time></trkpt><trkpt lat="43.20245674120581" lon="12.25691855033088"><ele>441.16666666666663</ele><time>2026-03-29T07:52:28.999Z</time></trkpt><trkpt lat="43.20249116635146" lon="12.25679764163898"><ele>442.3333333333333</ele><time>2026-03-29T07:52:30.999Z</time></trkpt><trkpt lat="43.20252045445993" lon="12.256706252078374"><ele>443.5</ele><time>2026-03-29T07:52:32.999Z</time></trkpt><trkpt lat="43.20252702379269" lon="12.256568157536103"><ele>444.66666666666663</ele><time>2026-03-29T07:52:34.999Z</time></trkpt><trkpt lat="43.20256807240512" lon="12.256476618802484"><ele>445.8333333333333</ele><time>2026-03-29T07:52:36.999Z</time></trkpt><trkpt lat="43.2026615443736" lon="12.25645135689495"><ele>447.0</ele><time>2026-03-29T07:52:38.999Z</time></trkpt><trkpt lat="43.202745106396236" lon="12.256436891835689"><ele>447.0</ele><time>2026-03-29T07:52:40.999Z</time></trkpt><trkpt lat="43.20282447052158" lon="12.256407557478827"><ele>447.0</ele><time>2026-03-29T07:52:42.999Z</time></trkpt><trkpt lat="43.20288492785366" lon="12.256380382719742"><ele>447.0</ele><time>2026-03-29T07:52:44.999Z</time></trkpt><trkpt lat="43.202932772912725" lon="12.256436754936075"><ele>447.0</ele><time>2026-03-29T07:52:46.999Z</time></trkpt><trkpt lat="43.20293018327821" lon="12.256561249706317"><ele>447.0</ele><time>2026-03-29T07:52:48.999Z</time></trkpt><trkpt lat="43.20292167240405" lon="12.256693806681332"><ele>447.0</ele><time>2026-03-29T07:52:50.999Z</time></trkpt><trkpt lat="43.20288137405464" lon="12.25679419524419"><ele>444.5</ele><time>2026-03-29T07:52:53Z</time></trkpt><trkpt lat="43.20283934879327" lon="12.25693316692437"><ele>442.0</ele><time>2026-03-29T07:52:55Z</time></trkpt><trkpt lat="43.20286101933783" lon="12.257072878371549"><ele>439.5</ele><time>2026-03-29T07:52:57Z</time></trkpt><trkpt lat="43.20286403446448" lon="12.257168461607803"><ele>437.0</ele><time>2026-03-29T07:52:59Z</time></trkpt><trkpt lat="43.202876420435835" lon="12.257270536478975"><ele>434.5</ele><time>2026-03-29T07:53:01Z</time></trkpt><trkpt lat="43.20286923474111" lon="12.257384606367705"><ele>432.0</ele><time>2026-03-29T07:53:03Z</time></trkpt><trkpt lat="43.202886000610526" lon="12.25753383849887"><ele>430.6</ele><time>2026-03-29T07:53:05Z</time></trkpt><trkpt lat="43.202940764009114" lon="12.257655297026677"><ele>429.20000000000005</ele><time>2026-03-29T07:53:07Z</time></trkpt><trkpt lat="43.20303768709258" lon="12.25776146654447"><ele>427.8</ele><time>2026-03-29T07:53:09Z</time></trkpt><trkpt lat="43.20306065467328" lon="12.257866571504557"><ele>426.4</ele><time>2026-03-29T07:53:11Z</time></trkpt><trkpt lat="43.203080251658434" lon="12.257955608351143"><ele>425.0</ele><time>2026-03-29T07:53:13Z</time></trkpt><trkpt lat="43.203129185933676" lon="12.258075674981924"><ele>424.8333333333333</ele><time>2026-03-29T07:53:15Z</time></trkpt><trkpt lat="43.20316359065088" lon="12.258167593075846"><ele>424.66666666666663</ele><time>2026-03-29T07:53:17Z</time></trkpt><trkpt lat="43.20317749593158" lon="12.258298211787658"><ele>424.5</ele><time>2026-03-29T07:53:19Z</time></trkpt><trkpt lat="43.203177529777776" lon="12.258389088021458"><ele>424.33333333333337</ele><time>2026-03-29T07:53:20Z</time></trkpt><trkpt lat="43.20319426242968" lon="12.258480859439267"><ele>424.1666666666667</ele><time>2026-03-29T07:53:21Z</time></trkpt><trkpt lat="43.203207132318326" lon="12.258647584847177"><ele>424.0</ele><time>2026-03-29T07:53:23Z</time></trkpt><trkpt lat="43.20318483252161" lon="12.25879958585516"><ele>424.00000000000006</ele><time>2026-03-29T07:53:25Z</time></trkpt><trkpt lat="43.20313025011202" lon="12.258870170812019"><ele>424.0</ele><time>2026-03-29T07:53:27Z</time></trkpt><trkpt lat="43.2030701735845" lon="12.258898793510097"><ele>424.0</ele><time>2026-03-29T07:53:29Z</time></trkpt><trkpt lat="43.20309145604567" lon="12.258998715521114"><ele>424.0</ele><time>2026-03-29T07:53:33Z</time></trkpt><trkpt lat="43.20317827292168" lon="12.259034366211246"><ele>424.00000000000006</ele><time>2026-03-29T07:53:35Z</time></trkpt><trkpt lat="43.203260820057544" lon="12.259108702222463"><ele>424.0</ele><time>2026-03-29T07:53:37Z</time></trkpt><trkpt lat="43.20323706394319" lon="12.259230452406236"><ele>428.33333333333337</ele><time>2026-03-29T07:53:39Z</time></trkpt><trkpt lat="43.20313388959879" lon="12.259187024270668"><ele>432.6666666666667</ele><time>2026-03-29T07:53:41Z</time></trkpt><trkpt lat="43.20306535940707" lon="12.259207839677034"><ele>437.0</ele><time>2026-03-29T07:53:43Z</time></trkpt><trkpt lat="43.203016307450234" lon="12.259274054452531"><ele>441.33333333333337</ele><time>2026-03-29T07:53:44Z</time></trkpt><trkpt lat="43.20295788916126" lon="12.259347337032619"><ele>445.6666666666667</ele><time>2026-03-29T07:53:45Z</time></trkpt><trkpt lat="43.202906146368626" lon="12.259401650374896"><ele>450.0</ele><time>2026-03-29T07:53:46Z</time></trkpt><trkpt lat="43.2028319827931" lon="12.259442681848457"><ele>450.0</ele><time>2026-03-29T07:53:47Z</time></trkpt><trkpt lat="43.20273546010151" lon="12.25949743932552"><ele>450.0</ele><time>2026-03-29T07:53:48Z</time></trkpt><trkpt lat="43.20264951370436" lon="12.259532395009296"><ele>450.0</ele><time>2026-03-29T07:53:49Z</time></trkpt><trkpt lat="43.2025413473697" lon="12.25963016873787"><ele>450.0</ele><time>2026-03-29T07:53:51Z</time></trkpt><trkpt lat="43.202447900103145" lon="12.259762078330205"><ele>451.8</ele><time>2026-03-29T07:53:52.999Z</time></trkpt><trkpt lat="43.202354442247135" lon="12.259833915859922"><ele>453.6</ele><time>2026-03-29T07:53:54.999Z</time></trkpt><trkpt lat="43.2022584797778" lon="12.25994003437345"><ele>455.4</ele><time>2026-03-29T07:53:56.999Z</time></trkpt><trkpt lat="43.20212762511562" lon="12.260011556749303"><ele>457.2</ele><time>2026-03-29T07:53:58.999Z</time></trkpt><trkpt lat="43.202080288187545" lon="12.260068662009573"><ele>459.0</ele><time>2026-03-29T07:53:59.999Z</time></trkpt><trkpt lat="43.20202612364985" lon="12.260157791681737"><ele>459.0</ele><time>2026-03-29T07:54:01.999Z</time></trkpt><trkpt lat="43.20212591849817" lon="12.260212795423179"><ele>459.0</ele><time>2026-03-29T07:54:03.999Z</time></trkpt><trkpt lat="43.20222472737649" lon="12.260220378507961"><ele>459.0</ele><time>2026-03-29T07:54:05.999Z</time></trkpt><trkpt lat="43.20233190217023" lon="12.260243567016404"><ele>459.0</ele><time>2026-03-29T07:54:07.999Z</time></trkpt><trkpt lat="43.202395646721186" lon="12.260237016574628"><ele>459.0</ele><time>2026-03-29T07:54:08.999Z</time></trkpt><trkpt lat="43.20251044098399" lon="12.260267542444074"><ele>463.2</ele><time>2026-03-29T07:54:10.999Z</time></trkpt><trkpt lat="43.20260549471711" lon="12.26031192878536"><ele>467.4</ele><time>2026-03-29T07:54:12.999Z</time></trkpt><trkpt lat="43.202695394329716" lon="12.260377045441743"><ele>471.6</ele><time>2026-03-29T07:54:14.999Z</time></trkpt><trkpt lat="43.20278068123433" lon="12.260463998873165"><ele>475.8</ele><time>2026-03-29T07:54:16.999Z</time></trkpt><trkpt lat="43.20285831358076" lon="12.26056752615299"><ele>480.0</ele><time>2026-03-29T07:54:18.999Z</time></trkpt><trkpt lat="43.202900482498585" lon="12.260684978347184"><ele>481.5</ele><time>2026-03-29T07:54:20.999Z</time></trkpt><trkpt lat="43.20296025435699" lon="12.26080043122975"><ele>483.0</ele><time>2026-03-29T07:54:22.999Z</time></trkpt><trkpt lat="43.203054616608576" lon="12.260914895810796"><ele>484.5</ele><time>2026-03-29T07:54:24.999Z</time></trkpt><trkpt lat="43.203109760713495" lon="12.260970544766966"><ele>486.0</ele><time>2026-03-29T07:54:25.999Z</time></trkpt><trkpt lat="43.20317582110448" lon="12.261014862673399"><ele>487.5</ele><time>2026-03-29T07:54:26.999Z</time></trkpt><trkpt lat="43.203241079352146" lon="12.261028989810747"><ele>489.0</ele><time>2026-03-29T07:54:27.999Z</time></trkpt><trkpt lat="43.20332364807363" lon="12.261041337714866"><ele>492.1666666666667</ele><time>2026-03-29T07:54:28.999Z</time></trkpt><trkpt lat="43.203395382320664" lon="12.261077862246376"><ele>495.33333333333337</ele><time>2026-03-29T07:54:29.999Z</time></trkpt><trkpt lat="43.20345905166173" lon="12.26111822398371"><ele>498.5</ele><time>2026-03-29T07:54:30.999Z</time></trkpt><trkpt lat="43.203527979337" lon="12.261142633233383"><ele>501.6666666666667</ele><time>2026-03-29T07:54:31.999Z</time></trkpt><trkpt lat="43.203642212316865" lon="12.261184745329816"><ele>504.83333333333337</ele><time>2026-03-29T07:54:33.999Z</time></trkpt><trkpt lat="43.20373764059423" lon="12.261240374366011"><ele>508.0</ele><time>2026-03-29T07:54:35.999Z</time></trkpt><trkpt lat="43.203825472018394" lon="12.261359649913073"><ele>506.50000000000006</ele><time>2026-03-29T07:54:37.999Z</time></trkpt><trkpt lat="43.203849272271256" lon="12.26145242969865"><ele>505.0</ele><time>2026-03-29T07:54:38.999Z</time></trkpt><trkpt lat="43.20388222346565" lon="12.26153349203745"><ele>503.5</ele><time>2026-03-29T07:54:39.999Z</time></trkpt><trkpt lat="43.20393106066768" lon="12.261613580829978"><ele>502.0</ele><time>2026-03-29T07:54:40.999Z</time></trkpt><trkpt lat="43.20398353804763" lon="12.26168538164739"><ele>500.50000000000006</ele><time>2026-03-29T07:54:41.999Z</time></trkpt><trkpt lat="43.20403303565141" lon="12.26174757482164"><ele>499.0</ele><time>2026-03-29T07:54:42.999Z</time></trkpt><trkpt lat="43.204130018634146" lon="12.261833738145686"><ele>502.1666666666667</ele><time>2026-03-29T07:54:44.999Z</time></trkpt><trkpt lat="43.20423047389739" lon="12.261921171489206"><ele>505.33333333333337</ele><time>2026-03-29T07:54:46.999Z</time></trkpt><trkpt lat="43.20429702739277" lon="12.261946346041904"><ele>508.5</ele><time>2026-03-29T07:54:47.999Z</time></trkpt><trkpt lat="43.20436830663649" lon="12.261966359843539"><ele>511.66666666666663</ele><time>2026-03-29T07:54:48.999Z</time></trkpt><trkpt lat="43.20443603203954" lon="12.26198095850479"><ele>514.8333333333333</ele><time>2026-03-29T07:54:49.999Z</time></trkpt><trkpt lat="43.20449799424403" lon="12.26199699420196"><ele>518.0</ele><time>2026-03-29T07:54:50.999Z</time></trkpt><trkpt lat="43.2045615346961" lon="12.262023888810756"><ele>518.0</ele><time>2026-03-29T07:54:51.998Z</time></trkpt><trkpt lat="43.20467618626911" lon="12.262098764033944"><ele>518.0</ele><time>2026-03-29T07:54:53.998Z</time></trkpt><trkpt lat="43.20472079246134" lon="12.262164805247902"><ele>518.0</ele><time>2026-03-29T07:54:54.998Z</time></trkpt><trkpt lat="43.204764147581926" lon="12.262234578856258"><ele>518.0</ele><time>2026-03-29T07:54:55.998Z</time></trkpt><trkpt lat="43.204801732014424" lon="12.262308074547807"><ele>518.0</ele><time>2026-03-29T07:54:56.998Z</time></trkpt><trkpt lat="43.204838460231656" lon="12.262382228853525"><ele>518.0</ele><time>2026-03-29T07:54:57.998Z</time></trkpt><trkpt lat="43.20492407179033" lon="12.262444741404105"><ele>519.8333333333333</ele><time>2026-03-29T07:55:00Z</time></trkpt><trkpt lat="43.20500380761952" lon="12.262518471577975"><ele>521.6666666666666</ele><time>2026-03-29T07:55:02Z</time></trkpt><trkpt lat="43.205068428276434" lon="12.262562322637152"><ele>523.5</ele><time>2026-03-29T07:55:03Z</time></trkpt><trkpt lat="43.205150265637826" lon="12.262571692986326"><ele>525.3333333333334</ele><time>2026-03-29T07:55:04Z</time></trkpt><trkpt lat="43.205231860995426" lon="12.262595925560705"><ele>527.1666666666667</ele><time>2026-03-29T07:55:05Z</time></trkpt><trkpt lat="43.20531776126811" lon="12.262640022899589"><ele>529.0</ele><time>2026-03-29T07:55:06Z</time></trkpt><trkpt lat="43.20539704071678" lon="12.26270329978698"><ele>529.0</ele><time>2026-03-29T07:55:07Z</time></trkpt><trkpt lat="43.20542487373784" lon="12.262797792716388"><ele>529.0</ele><time>2026-03-29T07:55:08Z</time></trkpt><trkpt lat="43.205436985262324" lon="12.2628929654365"><ele>529.0</ele><time>2026-03-29T07:55:09Z</time></trkpt><trkpt lat="43.205521953165814" lon="12.263019157999016"><ele>529.0</ele><time>2026-03-29T07:55:11Z</time></trkpt><trkpt lat="43.20557947511586" lon="12.26307713921114"><ele>529.0</ele><time>2026-03-29T07:55:12Z</time></trkpt><trkpt lat="43.20563086434942" lon="12.263139047276397"><ele>529.0</ele><time>2026-03-29T07:55:13Z</time></trkpt><trkpt lat="43.20568329645749" lon="12.26319017682909"><ele>530.7142857142858</ele><time>2026-03-29T07:55:14Z</time></trkpt><trkpt lat="43.205739518798104" lon="12.263263958862701"><ele>532.4285714285714</ele><time>2026-03-29T07:55:15Z</time></trkpt><trkpt lat="43.2057968931125" lon="12.263335513335875"><ele>534.1428571428571</ele><time>2026-03-29T07:55:16Z</time></trkpt><trkpt lat="43.20585772316875" lon="12.263398369900445"><ele>535.8571428571429</ele><time>2026-03-29T07:55:17Z</time></trkpt><trkpt lat="43.20592440958735" lon="12.2634399383789"><ele>537.5714285714286</ele><time>2026-03-29T07:55:18Z</time></trkpt><trkpt lat="43.2059787243644" lon="12.263490329661968"><ele>539.2857142857143</ele><time>2026-03-29T07:55:19Z</time></trkpt><trkpt lat="43.20603390385699" lon="12.263547444178517"><ele>541.0</ele><time>2026-03-29T07:55:20Z</time></trkpt><trkpt lat="43.20609697862661" lon="12.263575403593522"><ele>541.0</ele><time>2026-03-29T07:55:21Z</time></trkpt><trkpt lat="43.20615188957082" lon="12.263624506639472"><ele>541.0</ele><time>2026-03-29T07:55:23Z</time></trkpt><trkpt lat="43.20624000660098" lon="12.263690034245935"><ele>541.0</ele><time>2026-03-29T07:55:27Z</time></trkpt><trkpt lat="43.206310609730835" lon="12.263775774434972"><ele>541.0</ele><time>2026-03-29T07:55:28Z</time></trkpt><trkpt lat="43.20636786456049" lon="12.26388628588516"><ele>541.0</ele><time>2026-03-29T07:55:29Z</time></trkpt><trkpt lat="43.206435421926656" lon="12.264011492824846"><ele>543.0</ele><time>2026-03-29T07:55:30Z</time></trkpt><trkpt lat="43.2065129253171" lon="12.26413513758371"><ele>545.0</ele><time>2026-03-29T07:55:31Z</time></trkpt><trkpt lat="43.20658182544975" lon="12.264271059528031"><ele>547.0</ele><time>2026-03-29T07:55:32Z</time></trkpt><trkpt lat="43.206616099146025" lon="12.264415504500414"><ele>549.0</ele><time>2026-03-29T07:55:33Z</time></trkpt><trkpt lat="43.20658908420054" lon="12.26455538113577"><ele>549.0</ele><time>2026-03-29T07:55:34Z</time></trkpt><trkpt lat="43.20654239604248" lon="12.264663788927834"><ele>549.0</ele><time>2026-03-29T07:55:35Z</time></trkpt><trkpt lat="43.206491287409165" lon="12.264749490234086"><ele>549.0</ele><time>2026-03-29T07:55:36Z</time></trkpt><trkpt lat="43.20641831487041" lon="12.264815051604904"><ele>549.0</ele><time>2026-03-29T07:55:38Z</time></trkpt><trkpt lat="43.206509162225025" lon="12.264975652396865"><ele>549.0</ele><time>2026-03-29T07:55:40Z</time></trkpt><trkpt lat="43.206558723816855" lon="12.26502974686321"><ele>547.2</ele><time>2026-03-29T07:55:42Z</time></trkpt><trkpt lat="43.206623495478404" lon="12.265082009808513"><ele>545.4</ele><time>2026-03-29T07:55:43Z</time></trkpt><trkpt lat="43.20671075325178" lon="12.265124901466042"><ele>543.6</ele><time>2026-03-29T07:55:44Z</time></trkpt><trkpt lat="43.206814211666284" lon="12.265143213211456"><ele>541.8</ele><time>2026-03-29T07:55:45Z</time></trkpt><trkpt lat="43.206919214495606" lon="12.265124263550346"><ele>540.0</ele><time>2026-03-29T07:55:46Z</time></trkpt><trkpt lat="43.20702279326078" lon="12.26508058823391"><ele>540.0</ele><time>2026-03-29T07:55:47Z</time></trkpt><trkpt lat="43.20712051520066" lon="12.265021990882529"><ele>540.0</ele><time>2026-03-29T07:55:48Z</time></trkpt><trkpt lat="43.20722010596368" lon="12.264950028015834"><ele>540.0</ele><time>2026-03-29T07:55:49Z</time></trkpt><trkpt lat="43.207308068949104" lon="12.264855926047154"><ele>540.0</ele><time>2026-03-29T07:55:50Z</time></trkpt><trkpt lat="43.2073872361663" lon="12.264748385553581"><ele>540.0</ele><time>2026-03-29T07:55:51Z</time></trkpt><trkpt lat="43.20744577067593" lon="12.264652765932512"><ele>543.0</ele><time>2026-03-29T07:55:52Z</time></trkpt><trkpt lat="43.20752253419402" lon="12.264596129284081"><ele>546.0</ele><time>2026-03-29T07:55:53Z</time></trkpt><trkpt lat="43.207617042790844" lon="12.26458029403576"><ele>549.0</ele><time>2026-03-29T07:55:54Z</time></trkpt><trkpt lat="43.207724857896174" lon="12.26458429433467"><ele>552.0</ele><time>2026-03-29T07:55:55Z</time></trkpt><trkpt lat="43.20784544179888" lon="12.264549354411855"><ele>555.0</ele><time>2026-03-29T07:55:56Z</time></trkpt><trkpt lat="43.2079528060135" lon="12.26449398461905"><ele>555.0</ele><time>2026-03-29T07:55:57Z</time></trkpt><trkpt lat="43.20805910953632" lon="12.264432460987999"><ele>555.0</ele><time>2026-03-29T07:55:58Z</time></trkpt><trkpt lat="43.20817227279669" lon="12.264366981824331"><ele>555.0</ele><time>2026-03-29T07:55:59Z</time></trkpt><trkpt lat="43.20829546461633" lon="12.264321812332982"><ele>555.0</ele><time>2026-03-29T07:56:00Z</time></trkpt><trkpt lat="43.208426869405656" lon="12.26433730448699"><ele>552.25</ele><time>2026-03-29T07:56:00.999Z</time></trkpt><trkpt lat="43.2085592935573" lon="12.264330056498116"><ele>549.5</ele><time>2026-03-29T07:56:01.999Z</time></trkpt><trkpt lat="43.20868640603026" lon="12.264341987130429"><ele>546.75</ele><time>2026-03-29T07:56:02.999Z</time></trkpt><trkpt lat="43.208820315710746" lon="12.264342275928039"><ele>544.0</ele><time>2026-03-29T07:56:03.999Z</time></trkpt><trkpt lat="43.20895525108259" lon="12.2643398695553"><ele>546.0</ele><time>2026-03-29T07:56:04.999Z</time></trkpt><trkpt lat="43.20908857709575" lon="12.264340221632075"><ele>548.0</ele><time>2026-03-29T07:56:05.999Z</time></trkpt><trkpt lat="43.20922092495762" lon="12.264343329648108"><ele>550.0</ele><time>2026-03-29T07:56:06.999Z</time></trkpt><trkpt lat="43.209354018706314" lon="12.264346742963951"><ele>552.0</ele><time>2026-03-29T07:56:07.999Z</time></trkpt><trkpt lat="43.209492061833046" lon="12.2643504867669"><ele>552.0</ele><time>2026-03-29T07:56:08.999Z</time></trkpt><trkpt lat="43.20963404344242" lon="12.26434928869112"><ele>552.0</ele><time>2026-03-29T07:56:09.999Z</time></trkpt><trkpt lat="43.209763748736336" lon="12.26434924983605"><ele>552.0</ele><time>2026-03-29T07:56:10.999Z</time></trkpt><trkpt lat="43.20986779541371" lon="12.264354357337078"><ele>552.0</ele><time>2026-03-29T07:56:11.999Z</time></trkpt><trkpt lat="43.20994057064071" lon="12.26442225915774"><ele>552.6</ele><time>2026-03-29T07:56:12.999Z</time></trkpt><trkpt lat="43.210002734234855" lon="12.264511160539909"><ele>553.2</ele><time>2026-03-29T07:56:13.999Z</time></trkpt><trkpt lat="43.21006129947411" lon="12.264622910899648"><ele>553.8</ele><time>2026-03-29T07:56:14.999Z</time></trkpt><trkpt lat="43.21010466767865" lon="12.264721535126451"><ele>554.4</ele><time>2026-03-29T07:56:15.999Z</time></trkpt><trkpt lat="43.21013762026671" lon="12.264826963265207"><ele>555.0</ele><time>2026-03-29T07:56:17.999Z</time></trkpt><trkpt lat="43.21042769241359" lon="12.264761845739297"><ele>555.0</ele><time>2026-03-29T07:56:21.999Z</time></trkpt><trkpt lat="43.21053214852306" lon="12.264763141446446"><ele>555.0</ele><time>2026-03-29T07:56:22.999Z</time></trkpt><trkpt lat="43.21062510964644" lon="12.264755310322483"><ele>555.0</ele><time>2026-03-29T07:56:23.999Z</time></trkpt><trkpt lat="43.21070891306448" lon="12.264756569946597"><ele>555.0</ele><time>2026-03-29T07:56:24.999Z</time></trkpt><trkpt lat="43.21076696218013" lon="12.264794728998767"><ele>555.0</ele><time>2026-03-29T07:56:25.999Z</time></trkpt><trkpt lat="43.21081960667648" lon="12.264847191539468"><ele>555.0</ele><time>2026-03-29T07:56:26.999Z</time></trkpt><trkpt lat="43.21088332603479" lon="12.264856504199363"><ele>555.8333333333334</ele><time>2026-03-29T07:56:27.999Z</time></trkpt><trkpt lat="43.21096208880369" lon="12.264878171354873"><ele>556.6666666666666</ele><time>2026-03-29T07:56:29.999Z</time></trkpt><trkpt lat="43.21103587199553" lon="12.264873197822716"><ele>557.5</ele><time>2026-03-29T07:56:30.999Z</time></trkpt><trkpt lat="43.2111021886351" lon="12.26487736808924"><ele>558.3333333333333</ele><time>2026-03-29T07:56:31.999Z</time></trkpt><trkpt lat="43.21120134578647" lon="12.264838915399913"><ele>559.1666666666666</ele><time>2026-03-29T07:56:33.999Z</time></trkpt><trkpt lat="43.21125864900534" lon="12.264798504943597"><ele>560.0</ele><time>2026-03-29T07:56:34.999Z</time></trkpt><trkpt lat="43.21129580226046" lon="12.264718116839344"><ele>560.0</ele><time>2026-03-29T07:56:35.999Z</time></trkpt><trkpt lat="43.211321372009586" lon="12.264625608848261"><ele>560.0</ele><time>2026-03-29T07:56:36.999Z</time></trkpt><trkpt lat="43.2113427578517" lon="12.264537151547328"><ele>560.0</ele><time>2026-03-29T07:56:37.999Z</time></trkpt><trkpt lat="43.21143871995262" lon="12.264445557494811"><ele>560.0</ele><time>2026-03-29T07:56:39.999Z</time></trkpt><trkpt lat="43.21150747445224" lon="12.264423993051311"><ele>560.0</ele><time>2026-03-29T07:56:40.999Z</time></trkpt><trkpt lat="43.21157025788484" lon="12.264444489284742"><ele>560.0</ele><time>2026-03-29T07:56:41.999Z</time></trkpt><trkpt lat="43.21162095766937" lon="12.26450170345001"><ele>559.5</ele><time>2026-03-29T07:56:42.999Z</time></trkpt><trkpt lat="43.2117013949959" lon="12.264554768560242"><ele>559.0</ele><time>2026-03-29T07:56:44.999Z</time></trkpt><trkpt lat="43.21180784483728" lon="12.26462291465135"><ele>558.5</ele><time>2026-03-29T07:56:46.999Z</time></trkpt><trkpt lat="43.21188462929889" lon="12.264633162625083"><ele>558.0</ele><time>2026-03-29T07:56:47.999Z</time></trkpt><trkpt lat="43.211955737699974" lon="12.264608767323356"><ele>557.5</ele><time>2026-03-29T07:56:48.999Z</time></trkpt><trkpt lat="43.21202409371583" lon="12.264595723237644"><ele>557.0</ele><time>2026-03-29T07:56:49.999Z</time></trkpt><trkpt lat="43.212106195338144" lon="12.264594959859163"><ele>557.0</ele><time>2026-03-29T07:56:51.999Z</time></trkpt><trkpt lat="43.21216940446045" lon="12.264631612186975"><ele>557.0</ele><time>2026-03-29T07:56:54.999Z</time></trkpt><trkpt lat="43.21223710376357" lon="12.26463521883162"><ele>557.0</ele><time>2026-03-29T07:56:58.999Z</time></trkpt><trkpt lat="43.212336196725744" lon="12.264631113284802"><ele>557.0</ele><time>2026-03-29T07:57:00.998Z</time></trkpt><trkpt lat="43.21244707057457" lon="12.264609430402114"><ele>557.0</ele><time>2026-03-29T07:57:02.998Z</time></trkpt><trkpt lat="43.21249790425081" lon="12.264544905527611"><ele>557.0</ele><time>2026-03-29T07:57:03.998Z</time></trkpt><trkpt lat="43.21254287221332" lon="12.264468551818124"><ele>556.0</ele><time>2026-03-29T07:57:05Z</time></trkpt><trkpt lat="43.21259096093765" lon="12.264404736253288"><ele>555.0</ele><time>2026-03-29T07:57:06Z</time></trkpt><trkpt lat="43.212655434896185" lon="12.264364414721479"><ele>554.0</ele><time>2026-03-29T07:57:07Z</time></trkpt><trkpt lat="43.212730807209084" lon="12.264333775076551"><ele>553.0</ele><time>2026-03-29T07:57:08Z</time></trkpt><trkpt lat="43.21279662575464" lon="12.264312302559942"><ele>552.0</ele><time>2026-03-29T07:57:10Z</time></trkpt><trkpt lat="43.21288423045657" lon="12.264322307975112"><ele>551.0</ele><time>2026-03-29T07:57:13Z</time></trkpt><trkpt lat="43.21295785170104" lon="12.264288218145673"><ele>551.0</ele><time>2026-03-29T07:57:15Z</time></trkpt><trkpt lat="43.21307707912269" lon="12.264299508746745"><ele>551.0</ele><time>2026-03-29T07:57:17Z</time></trkpt><trkpt lat="43.213196497555856" lon="12.26435807927117"><ele>551.0</ele><time>2026-03-29T07:57:19Z</time></trkpt><trkpt lat="43.213274754671986" lon="12.264395599132643"><ele>551.0</ele><time>2026-03-29T07:57:20Z</time></trkpt><trkpt lat="43.21333682073283" lon="12.264375115081597"><ele>551.0</ele><time>2026-03-29T07:57:24Z</time></trkpt><trkpt lat="43.213415711944435" lon="12.264305684199659"><ele>547.4</ele><time>2026-03-29T07:57:29Z</time></trkpt><trkpt lat="43.21349657572265" lon="12.2641994199832"><ele>543.8</ele><time>2026-03-29T07:57:31Z</time></trkpt><trkpt lat="43.213535777451824" lon="12.264051663154083"><ele>540.1999999999999</ele><time>2026-03-29T07:57:33Z</time></trkpt><trkpt lat="43.21354000543626" lon="12.26395600758067"><ele>536.6</ele><time>2026-03-29T07:57:34Z</time></trkpt><trkpt lat="43.213533234888494" lon="12.263849839254933"><ele>533.0</ele><time>2026-03-29T07:57:35Z</time></trkpt><trkpt lat="43.21352005510344" lon="12.263740626182258"><ele>532.3333333333333</ele><time>2026-03-29T07:57:36Z</time></trkpt><trkpt lat="43.213505470758385" lon="12.263624444001996"><ele>531.6666666666666</ele><time>2026-03-29T07:57:37Z</time></trkpt><trkpt lat="43.21350747627282" lon="12.263522556047981"><ele>531.0</ele><time>2026-03-29T07:57:38Z</time></trkpt><trkpt lat="43.21350079166582" lon="12.26342414348719"><ele>530.3333333333334</ele><time>2026-03-29T07:57:39Z</time></trkpt><trkpt lat="43.21351035051801" lon="12.26333511368346"><ele>529.6666666666667</ele><time>2026-03-29T07:57:40Z</time></trkpt><trkpt lat="43.213521686100464" lon="12.263188211607146"><ele>529.0</ele><time>2026-03-29T07:57:42Z</time></trkpt><trkpt lat="43.213458650567304" lon="12.263037584383671"><ele>528.4</ele><time>2026-03-29T07:57:44Z</time></trkpt><trkpt lat="43.21339787517971" lon="12.262977337511145"><ele>527.8</ele><time>2026-03-29T07:57:45Z</time></trkpt><trkpt lat="43.21331689907775" lon="12.262864374842838"><ele>527.2</ele><time>2026-03-29T07:57:47Z</time></trkpt><trkpt lat="43.213264885756026" lon="12.262785159916461"><ele>526.6</ele><time>2026-03-29T07:57:48Z</time></trkpt><trkpt lat="43.21323059580287" lon="12.262675323769301"><ele>526.0</ele><time>2026-03-29T07:57:50Z</time></trkpt><trkpt lat="43.2133039987927" lon="12.2625392201871"><ele>526.0</ele><time>2026-03-29T07:57:52Z</time></trkpt><trkpt lat="43.21336194055539" lon="12.262484697230171"><ele>526.0</ele><time>2026-03-29T07:57:55Z</time></trkpt><trkpt lat="43.2134282415521" lon="12.26233487358967"><ele>526.0</ele><time>2026-03-29T07:57:56Z</time></trkpt><trkpt lat="43.213479743176535" lon="12.262229646971008"><ele>526.0</ele><time>2026-03-29T07:57:57Z</time></trkpt><trkpt lat="43.213529598476725" lon="12.262140055974548"><ele>526.0</ele><time>2026-03-29T07:57:59Z</time></trkpt><trkpt lat="43.21359801566958" lon="12.262024804833539"><ele>526.0</ele><time>2026-03-29T07:58:01Z</time></trkpt><trkpt lat="43.21364868137944" lon="12.261922076716088"><ele>526.0</ele><time>2026-03-29T07:58:02Z</time></trkpt><trkpt lat="43.21369692294878" lon="12.261809173106068"><ele>526.0</ele><time>2026-03-29T07:58:02.999Z</time></trkpt><trkpt lat="43.21376760681476" lon="12.261682386101507"><ele>526.0</ele><time>2026-03-29T07:58:04.999Z</time></trkpt><trkpt lat="43.21383592979447" lon="12.261522716141156"><ele>526.0</ele><time>2026-03-29T07:58:06.999Z</time></trkpt><trkpt lat="43.21386222672499" lon="12.261428850884268"><ele>526.0</ele><time>2026-03-29T07:58:07.999Z</time></trkpt><trkpt lat="43.21386969119752" lon="12.261342351659513"><ele>526.0</ele><time>2026-03-29T07:58:08.999Z</time></trkpt><trkpt lat="43.21377622692032" lon="12.261227748424641"><ele>526.0</ele><time>2026-03-29T07:58:10.999Z</time></trkpt><trkpt lat="43.21370345163453" lon="12.261173924480493"><ele>526.0</ele><time>2026-03-29T07:58:11.999Z</time></trkpt><trkpt lat="43.21362946094997" lon="12.26111085729721"><ele>526.0</ele><time>2026-03-29T07:58:12.999Z</time></trkpt><trkpt lat="43.21356041089376" lon="12.261052796453564"><ele>526.0</ele><time>2026-03-29T07:58:13.999Z</time></trkpt><trkpt lat="43.213490299900144" lon="12.261011270757535"><ele>526.0</ele><time>2026-03-29T07:58:14.999Z</time></trkpt><trkpt lat="43.21339088434683" lon="12.260984207486205"><ele>526.0</ele><time>2026-03-29T07:58:15.999Z</time></trkpt><trkpt lat="43.21332129898131" lon="12.260953178249503"><ele>526.0</ele><time>2026-03-29T07:58:16.999Z</time></trkpt><trkpt lat="43.21326967062652" lon="12.260886613880004"><ele>526.0</ele><time>2026-03-29T07:58:18.999Z</time></trkpt><trkpt lat="43.21331042468705" lon="12.26078042778848"><ele>526.0</ele><time>2026-03-29T07:58:20.999Z</time></trkpt><trkpt lat="43.213422649877714" lon="12.260690602967879"><ele>526.0</ele><time>2026-03-29T07:58:23.999Z</time></trkpt><trkpt lat="43.2134928467806" lon="12.260634532013432"><ele>526.0</ele><time>2026-03-29T07:58:24.999Z</time></trkpt><trkpt lat="43.21355603450306" lon="12.260589649638497"><ele>526.0</ele><time>2026-03-29T07:58:25.999Z</time></trkpt><trkpt lat="43.21364567583362" lon="12.260485819791294"><ele>526.0</ele><time>2026-03-29T07:58:27.999Z</time></trkpt><trkpt lat="43.21373435255293" lon="12.26043062827078"><ele>526.0</ele><time>2026-03-29T07:58:28.999Z</time></trkpt><trkpt lat="43.21384226214652" lon="12.260372372615086"><ele>523.4</ele><time>2026-03-29T07:58:29.999Z</time></trkpt><trkpt lat="43.21390353752172" lon="12.26034281259919"><ele>520.8</ele><time>2026-03-29T07:58:30.999Z</time></trkpt><trkpt lat="43.21396319321017" lon="12.260215008247188"><ele>518.1999999999999</ele><time>2026-03-29T07:58:32.999Z</time></trkpt><trkpt lat="43.21397717298734" lon="12.26007062996307"><ele>515.6</ele><time>2026-03-29T07:58:34.999Z</time></trkpt><trkpt lat="43.214000355756774" lon="12.259917123812022"><ele>513.0</ele><time>2026-03-29T07:58:36.999Z</time></trkpt><trkpt lat="43.21405898432735" lon="12.259831540909923"><ele>514.5</ele><time>2026-03-29T07:58:38.999Z</time></trkpt><trkpt lat="43.21411013616031" lon="12.259781178942843"><ele>516.0</ele><time>2026-03-29T07:58:47.999Z</time></trkpt><trkpt lat="43.2141915423671" lon="12.2597338181335"><ele>517.5</ele><time>2026-03-29T07:58:51.999Z</time></trkpt><trkpt lat="43.214263255152865" lon="12.259681927811664"><ele>519.0</ele><time>2026-03-29T07:58:54.999Z</time></trkpt><trkpt lat="43.21429991369452" lon="12.259608238319442"><ele>520.5</ele><time>2026-03-29T07:58:57.999Z</time></trkpt><trkpt lat="43.21439177293487" lon="12.259565219994583"><ele>522.0</ele><time>2026-03-29T07:59:01.999Z</time></trkpt><trkpt lat="43.21446161139623" lon="12.25953732098987"><ele>522.0</ele><time>2026-03-29T07:59:03.998Z</time></trkpt><trkpt lat="43.21453318242387" lon="12.259502214604566"><ele>522.0</ele><time>2026-03-29T07:59:11Z</time></trkpt><trkpt lat="43.214604281921794" lon="12.25943921323212"><ele>522.0</ele><time>2026-03-29T07:59:13Z</time></trkpt><trkpt lat="43.214627400951414" lon="12.259297828818308"><ele>522.0</ele><time>2026-03-29T07:59:15Z</time></trkpt><trkpt lat="43.21466574548369" lon="12.259222376524788"><ele>522.0</ele><time>2026-03-29T07:59:17Z</time></trkpt><trkpt lat="43.21475703833132" lon="12.25922262564666"><ele>522.0</ele><time>2026-03-29T07:59:19Z</time></trkpt><trkpt lat="43.214829932009806" lon="12.259329864243938"><ele>520.6</ele><time>2026-03-29T07:59:21Z</time></trkpt><trkpt lat="43.21492639977518" lon="12.259448899151774"><ele>519.2</ele><time>2026-03-29T07:59:23Z</time></trkpt><trkpt lat="43.21498761656242" lon="12.259523413841755"><ele>517.8</ele><time>2026-03-29T07:59:24Z</time></trkpt><trkpt lat="43.21504529970811" lon="12.259596694127797"><ele>516.4</ele><time>2026-03-29T07:59:25Z</time></trkpt><trkpt lat="43.21510500330007" lon="12.25975748290552"><ele>515.0</ele><time>2026-03-29T07:59:27Z</time></trkpt><trkpt lat="43.21510803967863" lon="12.259864714932588"><ele>512.6666666666666</ele><time>2026-03-29T07:59:28Z</time></trkpt><trkpt lat="43.21513961247624" lon="12.25997362438712"><ele>510.3333333333333</ele><time>2026-03-29T07:59:29Z</time></trkpt><trkpt lat="43.21518939194618" lon="12.260056399457879"><ele>508.0</ele><time>2026-03-29T07:59:30Z</time></trkpt><trkpt lat="43.21525686046192" lon="12.260131757107112"><ele>505.66666666666663</ele><time>2026-03-29T07:59:31Z</time></trkpt><trkpt lat="43.21533521339481" lon="12.26020961444316"><ele>503.3333333333333</ele><time>2026-03-29T07:59:32Z</time></trkpt><trkpt lat="43.21538233164172" lon="12.260301081758058"><ele>501.0</ele><time>2026-03-29T07:59:33Z</time></trkpt><trkpt lat="43.215428181048026" lon="12.260375761515023"><ele>501.0</ele><time>2026-03-29T07:59:34Z</time></trkpt><trkpt lat="43.21549457434957" lon="12.26041434813239"><ele>501.0</ele><time>2026-03-29T07:59:35Z</time></trkpt><trkpt lat="43.215605909643" lon="12.260408831267295"><ele>501.0</ele><time>2026-03-29T07:59:37Z</time></trkpt><trkpt lat="43.21565604701921" lon="12.260321139214424"><ele>501.0</ele><time>2026-03-29T07:59:38Z</time></trkpt><trkpt lat="43.21578220609535" lon="12.260328587257307"><ele>501.0</ele><time>2026-03-29T07:59:41Z</time></trkpt><trkpt lat="43.21587289782041" lon="12.260409526116995"><ele>502.0</ele><time>2026-03-29T07:59:44Z</time></trkpt><trkpt lat="43.21597611652811" lon="12.260478565427006"><ele>503.0</ele><time>2026-03-29T07:59:46Z</time></trkpt><trkpt lat="43.216050305470645" lon="12.260526373273416"><ele>504.0</ele><time>2026-03-29T07:59:49Z</time></trkpt><trkpt lat="43.21607902361307" lon="12.260606192382228"><ele>505.0</ele><time>2026-03-29T07:59:51Z</time></trkpt><trkpt lat="43.21601294913123" lon="12.260724777918453"><ele>506.0</ele><time>2026-03-29T07:59:54Z</time></trkpt><trkpt lat="43.21606594600196" lon="12.26078618401546"><ele>507.0</ele><time>2026-03-29T08:00:10.999Z</time></trkpt><trkpt lat="43.216139039821975" lon="12.26076009531411"><ele>504.1666666666667</ele><time>2026-03-29T08:00:15.999Z</time></trkpt><trkpt lat="43.21620144311003" lon="12.260742424125029"><ele>501.33333333333337</ele><time>2026-03-29T08:00:19.999Z</time></trkpt><trkpt lat="43.216262267270444" lon="12.260712827238882"><ele>498.5</ele><time>2026-03-29T08:00:27.999Z</time></trkpt><trkpt lat="43.21632927711138" lon="12.260753639357008"><ele>495.6666666666667</ele><time>2026-03-29T08:00:33.999Z</time></trkpt><trkpt lat="43.21634934030746" lon="12.26084103033398"><ele>492.83333333333337</ele><time>2026-03-29T08:00:35.999Z</time></trkpt><trkpt lat="43.216343667254414" lon="12.260958456610721"><ele>490.0</ele><time>2026-03-29T08:00:38.999Z</time></trkpt><trkpt lat="43.216318740879196" lon="12.261092589989424"><ele>490.00000000000006</ele><time>2026-03-29T08:00:40.999Z</time></trkpt><trkpt lat="43.21638317560429" lon="12.26118692878479"><ele>490.0</ele><time>2026-03-29T08:00:42.999Z</time></trkpt><trkpt lat="43.216448091191644" lon="12.26110411200838"><ele>490.0</ele><time>2026-03-29T08:00:46.999Z</time></trkpt><trkpt lat="43.21650368780166" lon="12.261034749779975"><ele>490.0</ele><time>2026-03-29T08:00:48.999Z</time></trkpt><trkpt lat="43.21656846859449" lon="12.260981176437241"><ele>490.00000000000006</ele><time>2026-03-29T08:00:49.999Z</time></trkpt><trkpt lat="43.21662921933105" lon="12.260918750239519"><ele>490.0</ele><time>2026-03-29T08:00:50.999Z</time></trkpt><trkpt lat="43.21668703329097" lon="12.260880263367397"><ele>491.1666666666667</ele><time>2026-03-29T08:00:51.999Z</time></trkpt><trkpt lat="43.21675039761456" lon="12.260871625987042"><ele>492.33333333333337</ele><time>2026-03-29T08:00:52.999Z</time></trkpt><trkpt lat="43.21681353416567" lon="12.260852612265555"><ele>493.5</ele><time>2026-03-29T08:00:53.999Z</time></trkpt><trkpt lat="43.21687165406914" lon="12.260788635371135"><ele>494.66666666666663</ele><time>2026-03-29T08:00:54.999Z</time></trkpt><trkpt lat="43.2169148308744" lon="12.260667057529885"><ele>495.8333333333333</ele><time>2026-03-29T08:00:56.999Z</time></trkpt><trkpt lat="43.2169927295853" lon="12.260567711734602"><ele>497.0</ele><time>2026-03-29T08:00:58.999Z</time></trkpt><trkpt lat="43.217055526173" lon="12.26049347612678"><ele>499.6</ele><time>2026-03-29T08:01:00.999Z</time></trkpt><trkpt lat="43.217144902507265" lon="12.260543949499544"><ele>502.20000000000005</ele><time>2026-03-29T08:01:02.999Z</time></trkpt><trkpt lat="43.21725746564259" lon="12.260574878416488"><ele>504.8</ele><time>2026-03-29T08:01:04.999Z</time></trkpt><trkpt lat="43.217358908902554" lon="12.260550529159296"><ele>507.4</ele><time>2026-03-29T08:01:06.998Z</time></trkpt><trkpt lat="43.21746017950464" lon="12.260628563010354"><ele>510.0</ele><time>2026-03-29T08:01:08.998Z</time></trkpt><trkpt lat="43.21756435749235" lon="12.260659536695456"><ele>510.0</ele><time>2026-03-29T08:01:10.998Z</time></trkpt><trkpt lat="43.217622807734834" lon="12.260627077842607"><ele>510.0</ele><time>2026-03-29T08:01:12.998Z</time></trkpt><trkpt lat="43.21771185369323" lon="12.260762067013811"><ele>510.0</ele><time>2026-03-29T08:01:14.998Z</time></trkpt><trkpt lat="43.217737193830374" lon="12.260853903238216"><ele>510.0</ele><time>2026-03-29T08:01:15.998Z</time></trkpt><trkpt lat="43.21774223415545" lon="12.261032280952826"><ele>510.0</ele><time>2026-03-29T08:01:18Z</time></trkpt><trkpt lat="43.21774364358725" lon="12.261145794573574"><ele>510.0</ele><time>2026-03-29T08:01:19Z</time></trkpt><trkpt lat="43.217740098647894" lon="12.261270348886521"><ele>510.0</ele><time>2026-03-29T08:01:21Z</time></trkpt><trkpt lat="43.21772515751249" lon="12.261425258838292"><ele>510.0</ele><time>2026-03-29T08:01:23Z</time></trkpt><trkpt lat="43.21768478820936" lon="12.261524632772346"><ele>510.0</ele><time>2026-03-29T08:01:24Z</time></trkpt><trkpt lat="43.217645370565904" lon="12.261601266134464"><ele>510.0</ele><time>2026-03-29T08:01:25Z</time></trkpt><trkpt lat="43.217642313721875" lon="12.26177070953242"><ele>508.6</ele><time>2026-03-29T08:01:27Z</time></trkpt><trkpt lat="43.217711244435485" lon="12.261912470586193"><ele>507.2</ele><time>2026-03-29T08:01:29Z</time></trkpt><trkpt lat="43.217769929129226" lon="12.261979529158909"><ele>505.79999999999995</ele><time>2026-03-29T08:01:30Z</time></trkpt><trkpt lat="43.21781819678043" lon="12.262061421456135"><ele>504.4</ele><time>2026-03-29T08:01:31Z</time></trkpt><trkpt lat="43.21790617591567" lon="12.262161719359973"><ele>503.0</ele><time>2026-03-29T08:01:33Z</time></trkpt><trkpt lat="43.21800642597081" lon="12.262178390596373"><ele>503.0</ele><time>2026-03-29T08:01:35Z</time></trkpt><trkpt lat="43.21812716914299" lon="12.262205061265643"><ele>502.99999999999994</ele><time>2026-03-29T08:01:37Z</time></trkpt><trkpt lat="43.2182192715702" lon="12.262329193633192"><ele>502.99999999999994</ele><time>2026-03-29T08:01:39Z</time></trkpt><trkpt lat="43.21828248289955" lon="12.262371591904598"><ele>503.0</ele><time>2026-03-29T08:01:40Z</time></trkpt><trkpt lat="43.21835522839998" lon="12.262407834738177"><ele>503.0</ele><time>2026-03-29T08:01:41Z</time></trkpt><trkpt lat="43.21841693905775" lon="12.262441094003488"><ele>504.79999999999995</ele><time>2026-03-29T08:01:42Z</time></trkpt><trkpt lat="43.21853140201405" lon="12.262397217255955"><ele>506.59999999999997</ele><time>2026-03-29T08:01:44Z</time></trkpt><trkpt lat="43.21862388458144" lon="12.26226779738786"><ele>508.40000000000003</ele><time>2026-03-29T08:01:46Z</time></trkpt><trkpt lat="43.21869154155168" lon="12.262200601983293"><ele>510.20000000000005</ele><time>2026-03-29T08:01:47Z</time></trkpt><trkpt lat="43.21876373407865" lon="12.262140439998607"><ele>512.0</ele><time>2026-03-29T08:01:48Z</time></trkpt><trkpt lat="43.218832151905076" lon="12.262132757520204"><ele>515.6666666666666</ele><time>2026-03-29T08:01:49Z</time></trkpt><trkpt lat="43.21892135421345" lon="12.262151390673564"><ele>519.3333333333333</ele><time>2026-03-29T08:01:50Z</time></trkpt><trkpt lat="43.21899271408066" lon="12.262129165390279"><ele>523.0</ele><time>2026-03-29T08:01:51Z</time></trkpt><trkpt lat="43.219058935349246" lon="12.262102754049135"><ele>526.6666666666666</ele><time>2026-03-29T08:01:52Z</time></trkpt><trkpt lat="43.219129591394235" lon="12.262105482726362"><ele>530.3333333333334</ele><time>2026-03-29T08:01:53Z</time></trkpt><trkpt lat="43.21923766551803" lon="12.262100781020063"><ele>534.0</ele><time>2026-03-29T08:01:55Z</time></trkpt><trkpt lat="43.219353951201235" lon="12.26206719433555"><ele>536.0</ele><time>2026-03-29T08:01:57Z</time></trkpt><trkpt lat="43.219444568476575" lon="12.262040654819232"><ele>538.0</ele><time>2026-03-29T08:01:59Z</time></trkpt><trkpt lat="43.21951647501248" lon="12.261991541053787"><ele>540.0</ele><time>2026-03-29T08:02:01Z</time></trkpt><trkpt lat="43.21960651788557" lon="12.261951794627587"><ele>542.0</ele><time>2026-03-29T08:02:02Z</time></trkpt><trkpt lat="43.21970276036366" lon="12.261930920648178"><ele>544.0</ele><time>2026-03-29T08:02:03Z</time></trkpt><trkpt lat="43.21980562841578" lon="12.2619404614192"><ele>543.0</ele><time>2026-03-29T08:02:05Z</time></trkpt><trkpt lat="43.21990233708403" lon="12.262044318128941"><ele>542.0</ele><time>2026-03-29T08:02:07Z</time></trkpt><trkpt lat="43.21996206407481" lon="12.26209347720618"><ele>541.0</ele><time>2026-03-29T08:02:08Z</time></trkpt><trkpt lat="43.22010214956975" lon="12.262135603493439"><ele>540.0</ele><time>2026-03-29T08:02:09.999Z</time></trkpt><trkpt lat="43.2201710942465" lon="12.262179904007297"><ele>539.0</ele><time>2026-03-29T08:02:10.999Z</time></trkpt><trkpt lat="43.22024861234002" lon="12.262260149438228"><ele>537.3333333333333</ele><time>2026-03-29T08:02:11.999Z</time></trkpt><trkpt lat="43.22031493700056" lon="12.262326721431188"><ele>535.6666666666666</ele><time>2026-03-29T08:02:12.999Z</time></trkpt><trkpt lat="43.22037303758174" lon="12.262365463256893"><ele>534.0</ele><time>2026-03-29T08:02:13.999Z</time></trkpt><trkpt lat="43.22048931327406" lon="12.262382618963898"><ele>532.3333333333334</ele><time>2026-03-29T08:02:15.999Z</time></trkpt><trkpt lat="43.220564852984566" lon="12.262365085675478"><ele>530.6666666666667</ele><time>2026-03-29T08:02:16.999Z</time></trkpt><trkpt lat="43.22064404519781" lon="12.262335767680781"><ele>529.0</ele><time>2026-03-29T08:02:17.999Z</time></trkpt><trkpt lat="43.22070987390474" lon="12.262303637352442"><ele>529.0</ele><time>2026-03-29T08:02:18.999Z</time></trkpt><trkpt lat="43.220776723513275" lon="12.262279962576446"><ele>529.0</ele><time>2026-03-29T08:02:19.999Z</time></trkpt><trkpt lat="43.220859645468614" lon="12.262300153826216"><ele>529.0</ele><time>2026-03-29T08:02:21.999Z</time></trkpt><trkpt lat="43.220965063131075" lon="12.262347731554579"><ele>529.0</ele><time>2026-03-29T08:02:23.999Z</time></trkpt><trkpt lat="43.22103567847388" lon="12.262373936346668"><ele>529.0</ele><time>2026-03-29T08:02:24.999Z</time></trkpt><trkpt lat="43.22113333170142" lon="12.262411042635794"><ele>529.0</ele><time>2026-03-29T08:02:25.999Z</time></trkpt><trkpt lat="43.22121928226681" lon="12.26247415990206"><ele>529.0</ele><time>2026-03-29T08:02:26.999Z</time></trkpt><trkpt lat="43.221292902088734" lon="12.262530924832538"><ele>529.0</ele><time>2026-03-29T08:02:27.999Z</time></trkpt><trkpt lat="43.221364715625114" lon="12.26256830001874"><ele>529.0</ele><time>2026-03-29T08:02:28.999Z</time></trkpt><trkpt lat="43.22144648497142" lon="12.262603430895556"><ele>529.0</ele><time>2026-03-29T08:02:29.999Z</time></trkpt><trkpt lat="43.221524755442665" lon="12.262661324149647"><ele>529.0</ele><time>2026-03-29T08:02:30.999Z</time></trkpt><trkpt lat="43.22156899422613" lon="12.26275999899153"><ele>529.0</ele><time>2026-03-29T08:02:31.999Z</time></trkpt><trkpt lat="43.22162000860192" lon="12.262844207108238"><ele>529.8333333333334</ele><time>2026-03-29T08:02:33.999Z</time></trkpt><trkpt lat="43.22160320378445" lon="12.26273958195609"><ele>530.6666666666667</ele><time>2026-03-29T08:02:35.999Z</time></trkpt><trkpt lat="43.221631771974856" lon="12.26264301650988"><ele>531.5</ele><time>2026-03-29T08:02:38.999Z</time></trkpt><trkpt lat="43.22164485802811" lon="12.26254629917905"><ele>532.3333333333334</ele><time>2026-03-29T08:02:40.999Z</time></trkpt><trkpt lat="43.22170549702412" lon="12.262356902226664"><ele>533.1666666666666</ele><time>2026-03-29T08:02:41.999Z</time></trkpt><trkpt lat="43.221689275814434" lon="12.262260679002011"><ele>534.0</ele><time>2026-03-29T08:02:43.999Z</time></trkpt><trkpt lat="43.22165565969083" lon="12.262160003259053"><ele>537.0</ele><time>2026-03-29T08:02:45.999Z</time></trkpt><trkpt lat="43.22158663811397" lon="12.26205982571025"><ele>540.0</ele><time>2026-03-29T08:02:47.999Z</time></trkpt><trkpt lat="43.22150262766428" lon="12.261996097297926"><ele>543.0</ele><time>2026-03-29T08:02:49.999Z</time></trkpt><trkpt lat="43.22143652454194" lon="12.261921729795096"><ele>546.0</ele><time>2026-03-29T08:02:51.999Z</time></trkpt><trkpt lat="43.22148416105786" lon="12.261796362880547"><ele>549.0</ele><time>2026-03-29T08:02:54.999Z</time></trkpt><trkpt lat="43.221523683581495" lon="12.261727922045461"><ele>552.0</ele><time>2026-03-29T08:02:55.999Z</time></trkpt><trkpt lat="43.22156785539133" lon="12.261604646064237"><ele>552.0</ele><time>2026-03-29T08:02:57.999Z</time></trkpt><trkpt lat="43.221549280071635" lon="12.261512073395982"><ele>552.0</ele><time>2026-03-29T08:02:59.999Z</time></trkpt><trkpt lat="43.2214879396126" lon="12.26154382434145"><ele>552.0</ele><time>2026-03-29T08:03:04.999Z</time></trkpt><trkpt lat="43.22142089430631" lon="12.26145569620768"><ele>552.0</ele><time>2026-03-29T08:04:10Z</time></trkpt><trkpt lat="43.22137915774894" lon="12.261376210586121"><ele>552.0</ele><time>2026-03-29T08:04:13.999Z</time></trkpt><trkpt lat="43.22135532877524" lon="12.26128290221707"><ele>552.0</ele><time>2026-03-29T08:04:16.999Z</time></trkpt><trkpt lat="43.22131159259711" lon="12.261220376572371"><ele>552.0</ele><time>2026-03-29T08:04:19.999Z</time></trkpt><trkpt lat="43.22125851873418" lon="12.261168150577852"><ele>557.8000000000001</ele><time>2026-03-29T08:04:23.999Z</time></trkpt><trkpt lat="43.22119903797466" lon="12.261132238507031"><ele>563.6</ele><time>2026-03-29T08:04:26.999Z</time></trkpt><trkpt lat="43.22117996960592" lon="12.261025794597437"><ele>569.4000000000001</ele><time>2026-03-29T08:04:30.999Z</time></trkpt><trkpt lat="43.22123176182146" lon="12.26091448676882"><ele>575.2</ele><time>2026-03-29T08:04:32.999Z</time></trkpt><trkpt lat="43.221257371493785" lon="12.260756602999495"><ele>581.0</ele><time>2026-03-29T08:04:35.999Z</time></trkpt><trkpt lat="43.22126054774167" lon="12.260624457772328"><ele>583.0</ele><time>2026-03-29T08:04:38.999Z</time></trkpt><trkpt lat="43.22125332088833" lon="12.26052027443894"><ele>585.0</ele><time>2026-03-29T08:04:40.999Z</time></trkpt><trkpt lat="43.22118950894091" lon="12.260455613487082"><ele>587.0</ele><time>2026-03-29T08:04:43.999Z</time></trkpt><trkpt lat="43.221122914106836" lon="12.260422429885436"><ele>589.0</ele><time>2026-03-29T08:04:44.999Z</time></trkpt><trkpt lat="43.22103774107413" lon="12.260342849453973"><ele>591.0</ele><time>2026-03-29T08:04:46.999Z</time></trkpt><trkpt lat="43.22097679588764" lon="12.26028058660771"><ele>593.0</ele><time>2026-03-29T08:04:47.999Z</time></trkpt><trkpt lat="43.22091371952654" lon="12.260208896094056"><ele>593.0</ele><time>2026-03-29T08:04:48.999Z</time></trkpt><trkpt lat="43.220860828895674" lon="12.26013884208715"><ele>593.0</ele><time>2026-03-29T08:04:49.999Z</time></trkpt><trkpt lat="43.220797846458545" lon="12.260077560748721"><ele>593.0</ele><time>2026-03-29T08:04:50.999Z</time></trkpt><trkpt lat="43.22073842364445" lon="12.260024132519677"><ele>593.0</ele><time>2026-03-29T08:04:51.999Z</time></trkpt><trkpt lat="43.220671292686966" lon="12.25996821754816"><ele>593.0</ele><time>2026-03-29T08:04:52.999Z</time></trkpt><trkpt lat="43.220604160711645" lon="12.25990830806901"><ele>593.0</ele><time>2026-03-29T08:04:53.999Z</time></trkpt><trkpt lat="43.220504189528974" lon="12.259810127062952"><ele>593.0</ele><time>2026-03-29T08:04:55.999Z</time></trkpt><trkpt lat="43.220388447063684" lon="12.25978830288106"><ele>593.0</ele><time>2026-03-29T08:04:57.999Z</time></trkpt><trkpt lat="43.22025696387008" lon="12.25974551419078"><ele>593.0</ele><time>2026-03-29T08:04:59.999Z</time></trkpt><trkpt lat="43.2201885343575" lon="12.259718113395227"><ele>593.0</ele><time>2026-03-29T08:05:00.999Z</time></trkpt><trkpt lat="43.22011703967066" lon="12.259711530416045"><ele>593.0</ele><time>2026-03-29T08:05:01.999Z</time></trkpt><trkpt lat="43.22004383133691" lon="12.259709773971387"><ele>593.0</ele><time>2026-03-29T08:05:02.999Z</time></trkpt><trkpt lat="43.219978535264886" lon="12.259676918863214"><ele>593.0</ele><time>2026-03-29T08:05:03.999Z</time></trkpt><trkpt lat="43.219917272491784" lon="12.259619839058471"><ele>593.0</ele><time>2026-03-29T08:05:05.999Z</time></trkpt><trkpt lat="43.219915531646464" lon="12.259488574358171"><ele>593.0</ele><time>2026-03-29T08:05:07.999Z</time></trkpt><trkpt lat="43.21988211671263" lon="12.259399887470568"><ele>593.0</ele><time>2026-03-29T08:05:08.999Z</time></trkpt><trkpt lat="43.21988077807323" lon="12.259284486999151"><ele>593.0</ele><time>2026-03-29T08:05:09.999Z</time></trkpt><trkpt lat="43.21989084114252" lon="12.259198896985401"><ele>593.0</ele><time>2026-03-29T08:05:10.999Z</time></trkpt><trkpt lat="43.21984337122867" lon="12.259093394060345"><ele>593.0</ele><time>2026-03-29T08:05:13.998Z</time></trkpt><trkpt lat="43.2197644383995" lon="12.259039153139392"><ele>593.0</ele><time>2026-03-29T08:05:15.998Z</time></trkpt><trkpt lat="43.219761318781806" lon="12.258866089782686"><ele>593.0</ele><time>2026-03-29T08:05:17.998Z</time></trkpt><trkpt lat="43.2197395651767" lon="12.25873732662246"><ele>593.0</ele><time>2026-03-29T08:05:19.998Z</time></trkpt><trkpt lat="43.21980376859508" lon="12.258697395926772"><ele>596.8</ele><time>2026-03-29T08:05:21.998Z</time></trkpt><trkpt lat="43.219870827003184" lon="12.258649047488033"><ele>600.5999999999999</ele><time>2026-03-29T08:05:23.998Z</time></trkpt><trkpt lat="43.21992119388885" lon="12.258524637389067"><ele>604.4000000000001</ele><time>2026-03-29T08:05:25.998Z</time></trkpt><trkpt lat="43.219993264135496" lon="12.258402323442947"><ele>608.2</ele><time>2026-03-29T08:05:27.998Z</time></trkpt><trkpt lat="43.22002597363798" lon="12.258314647863305"><ele>612.0</ele><time>2026-03-29T08:05:30Z</time></trkpt><trkpt lat="43.220085171706295" lon="12.25822584928127"><ele>612.0</ele><time>2026-03-29T08:05:32Z</time></trkpt><trkpt lat="43.22004648103001" lon="12.258154025521653"><ele>612.0</ele><time>2026-03-29T08:05:35Z</time></trkpt><trkpt lat="43.21995375010391" lon="12.25819058950395"><ele>612.0</ele><time>2026-03-29T08:05:37Z</time></trkpt><trkpt lat="43.219900252650774" lon="12.258100085672265"><ele>612.0</ele><time>2026-03-29T08:05:39Z</time></trkpt><trkpt lat="43.219916994590065" lon="12.25798603337294"><ele>612.0</ele><time>2026-03-29T08:05:41Z</time></trkpt><trkpt lat="43.219950527154886" lon="12.257891694109944"><ele>612.0</ele><time>2026-03-29T08:05:43Z</time></trkpt><trkpt lat="43.219954976489724" lon="12.257804325686266"><ele>616.4</ele><time>2026-03-29T08:05:45Z</time></trkpt><trkpt lat="43.21999354724007" lon="12.257694810795797"><ele>620.8000000000001</ele><time>2026-03-29T08:05:47Z</time></trkpt><trkpt lat="43.22006350086497" lon="12.257592363255968"><ele>625.2</ele><time>2026-03-29T08:05:49Z</time></trkpt><trkpt lat="43.22009458798431" lon="12.257439171818971"><ele>629.6</ele><time>2026-03-29T08:05:51Z</time></trkpt><trkpt lat="43.220102656013744" lon="12.257270395338194"><ele>634.0</ele><time>2026-03-29T08:05:53Z</time></trkpt><trkpt lat="43.220145882905946" lon="12.25712689957088"><ele>636.6666666666667</ele><time>2026-03-29T08:05:55Z</time></trkpt><trkpt lat="43.22018758602071" lon="12.257044006653453"><ele>639.3333333333334</ele><time>2026-03-29T08:05:56Z</time></trkpt><trkpt lat="43.220240046863395" lon="12.256972546251646"><ele>642.0</ele><time>2026-03-29T08:05:57Z</time></trkpt><trkpt lat="43.22028372168338" lon="12.256889902896862"><ele>644.6666666666666</ele><time>2026-03-29T08:05:58Z</time></trkpt><trkpt lat="43.220314013762916" lon="12.256803334993023"><ele>647.3333333333333</ele><time>2026-03-29T08:05:59Z</time></trkpt><trkpt lat="43.220328995254754" lon="12.256659558167009"><ele>650.0</ele><time>2026-03-29T08:06:01Z</time></trkpt><trkpt lat="43.22031568032888" lon="12.256544234499666"><ele>650.0</ele><time>2026-03-29T08:06:03Z</time></trkpt><trkpt lat="43.22026724992558" lon="12.256475980073532"><ele>650.0</ele><time>2026-03-29T08:06:05Z</time></trkpt><trkpt lat="43.220182333050744" lon="12.256529828650182"><ele>650.0</ele><time>2026-03-29T08:06:07Z</time></trkpt><trkpt lat="43.2200986039273" lon="12.256593105939295"><ele>650.0</ele><time>2026-03-29T08:06:09Z</time></trkpt><trkpt lat="43.22003734528392" lon="12.25662726559146"><ele>650.0</ele><time>2026-03-29T08:06:10Z</time></trkpt><trkpt lat="43.21995602548305" lon="12.256645363062903"><ele>650.0</ele><time>2026-03-29T08:06:11Z</time></trkpt><trkpt lat="43.219843733112754" lon="12.2566629070187"><ele>649.0</ele><time>2026-03-29T08:06:12Z</time></trkpt><trkpt lat="43.21977299063994" lon="12.256674003223202"><ele>648.0</ele><time>2026-03-29T08:06:12.999Z</time></trkpt><trkpt lat="43.21967354026787" lon="12.256647327290906"><ele>647.0</ele><time>2026-03-29T08:06:14.999Z</time></trkpt><trkpt lat="43.21960617707344" lon="12.25661129658034"><ele>646.0</ele><time>2026-03-29T08:06:15.999Z</time></trkpt><trkpt lat="43.21954454933657" lon="12.25655604944405"><ele>645.0</ele><time>2026-03-29T08:06:16.999Z</time></trkpt><trkpt lat="43.21950331583397" lon="12.256463016627501"><ele>644.0</ele><time>2026-03-29T08:06:17.999Z</time></trkpt><trkpt lat="43.21945136060646" lon="12.256354805371725"><ele>644.0</ele><time>2026-03-29T08:06:19.999Z</time></trkpt><trkpt lat="43.21948891371839" lon="12.256260503481474"><ele>644.0</ele><time>2026-03-29T08:06:21.999Z</time></trkpt><trkpt lat="43.21952764609692" lon="12.256175270000401"><ele>644.0</ele><time>2026-03-29T08:06:22.999Z</time></trkpt><trkpt lat="43.21956147106589" lon="12.256086470019014"><ele>644.0</ele><time>2026-03-29T08:06:23.999Z</time></trkpt><trkpt lat="43.219608708608376" lon="12.255962115649938"><ele>644.0</ele><time>2026-03-29T08:06:30.999Z</time></trkpt><trkpt lat="43.21968076628035" lon="12.25605138837312"><ele>644.0</ele><time>2026-03-29T08:06:33.999Z</time></trkpt><trkpt lat="43.2197599653617" lon="12.256134354268783"><ele>648.2</ele><time>2026-03-29T08:06:35.999Z</time></trkpt><trkpt lat="43.219862160508384" lon="12.256173421584489"><ele>652.4000000000001</ele><time>2026-03-29T08:06:37.999Z</time></trkpt><trkpt lat="43.219931585775456" lon="12.256180039558815"><ele>656.6</ele><time>2026-03-29T08:06:38.999Z</time></trkpt><trkpt lat="43.22003316506012" lon="12.256153968618761"><ele>660.8</ele><time>2026-03-29T08:06:39.999Z</time></trkpt><trkpt lat="43.220125565069324" lon="12.25613252535316"><ele>665.0</ele><time>2026-03-29T08:06:40.999Z</time></trkpt><trkpt lat="43.220203081969956" lon="12.256108498990812"><ele>665.0</ele><time>2026-03-29T08:06:41.999Z</time></trkpt><trkpt lat="43.2202741252747" lon="12.256081595684211"><ele>665.0</ele><time>2026-03-29T08:06:42.999Z</time></trkpt><trkpt lat="43.22032702660832" lon="12.256034763395508"><ele>665.0</ele><time>2026-03-29T08:06:43.999Z</time></trkpt><trkpt lat="43.220419302076444" lon="12.255953032557935"><ele>665.0</ele><time>2026-03-29T08:06:45.999Z</time></trkpt><trkpt lat="43.220500703006294" lon="12.255872533300028"><ele>665.0</ele><time>2026-03-29T08:06:47.999Z</time></trkpt><trkpt lat="43.22056989551254" lon="12.255778962194627"><ele>665.0</ele><time>2026-03-29T08:06:49.999Z</time></trkpt><trkpt lat="43.22063888271356" lon="12.255690797915278"><ele>664.1666666666666</ele><time>2026-03-29T08:06:51.999Z</time></trkpt><trkpt lat="43.220682977346684" lon="12.255627869122419"><ele>663.3333333333333</ele><time>2026-03-29T08:06:52.999Z</time></trkpt><trkpt lat="43.220718390617186" lon="12.255547622653065"><ele>662.5</ele><time>2026-03-29T08:06:53.999Z</time></trkpt><trkpt lat="43.22074895433115" lon="12.255460550161084"><ele>661.6666666666666</ele><time>2026-03-29T08:06:54.999Z</time></trkpt><trkpt lat="43.22081233768793" lon="12.255407460543951"><ele>660.8333333333334</ele><time>2026-03-29T08:06:55.999Z</time></trkpt><trkpt lat="43.220888095638934" lon="12.25536212399455"><ele>660.0</ele><time>2026-03-29T08:06:56.999Z</time></trkpt><trkpt lat="43.22096661549769" lon="12.255230795304108"><ele>660.0</ele><time>2026-03-29T08:06:58.999Z</time></trkpt><trkpt lat="43.22100046646296" lon="12.255133860148483"><ele>660.0</ele><time>2026-03-29T08:06:59.999Z</time></trkpt><trkpt lat="43.22101435279968" lon="12.255028238505103"><ele>660.0</ele><time>2026-03-29T08:07:00.999Z</time></trkpt><trkpt lat="43.221037436105185" lon="12.254922055143785"><ele>660.0</ele><time>2026-03-29T08:07:01.999Z</time></trkpt><trkpt lat="43.22104137273667" lon="12.254831626794466"><ele>660.0</ele><time>2026-03-29T08:07:02.999Z</time></trkpt><trkpt lat="43.2211292991301" lon="12.254732532440187"><ele>660.0</ele><time>2026-03-29T08:07:04.999Z</time></trkpt><trkpt lat="43.221183675313654" lon="12.254685850610349"><ele>660.0</ele><time>2026-03-29T08:07:05.999Z</time></trkpt><trkpt lat="43.22126234097928" lon="12.254560755773038"><ele>660.0</ele><time>2026-03-29T08:07:07.999Z</time></trkpt><trkpt lat="43.22129635853314" lon="12.254484153220725"><ele>660.0</ele><time>2026-03-29T08:07:08.999Z</time></trkpt><trkpt lat="43.22137873436301" lon="12.254377038536504"><ele>660.0</ele><time>2026-03-29T08:07:10.999Z</time></trkpt><trkpt lat="43.2214509700401" lon="12.25439189604783"><ele>660.0</ele><time>2026-03-29T08:07:11.999Z</time></trkpt><trkpt lat="43.2215443340022" lon="12.254455429688297"><ele>660.0</ele><time>2026-03-29T08:07:12.998Z</time></trkpt><trkpt lat="43.22162570357076" lon="12.254509973471679"><ele>660.0</ele><time>2026-03-29T08:07:13.998Z</time></trkpt><trkpt lat="43.22175093725379" lon="12.254553070638252"><ele>660.0</ele><time>2026-03-29T08:07:15.998Z</time></trkpt><trkpt lat="43.221814111349275" lon="12.254572353020755"><ele>660.0</ele><time>2026-03-29T08:07:17.998Z</time></trkpt><trkpt lat="43.22190231631247" lon="12.254630140392276"><ele>660.0</ele><time>2026-03-29T08:07:19.998Z</time></trkpt><trkpt lat="43.221951355342924" lon="12.254694391841229"><ele>655.8333333333334</ele><time>2026-03-29T08:07:20.998Z</time></trkpt><trkpt lat="43.22201073060515" lon="12.254814655491902"><ele>651.6666666666666</ele><time>2026-03-29T08:07:21.998Z</time></trkpt><trkpt lat="43.222072940648346" lon="12.254859933648945"><ele>647.5</ele><time>2026-03-29T08:07:22.998Z</time></trkpt><trkpt lat="43.222143278702575" lon="12.254864392455309"><ele>643.3333333333333</ele><time>2026-03-29T08:07:23.998Z</time></trkpt><trkpt lat="43.22220905326329" lon="12.254884084180064"><ele>639.1666666666666</ele><time>2026-03-29T08:07:24.998Z</time></trkpt><trkpt lat="43.22227255571457" lon="12.254860819198264"><ele>635.0</ele><time>2026-03-29T08:07:25.998Z</time></trkpt><trkpt lat="43.22235517392256" lon="12.254821230335283"><ele>634.2</ele><time>2026-03-29T08:07:26.998Z</time></trkpt><trkpt lat="43.22244192053368" lon="12.254789669976597"><ele>633.4</ele><time>2026-03-29T08:07:27.998Z</time></trkpt><trkpt lat="43.22253211292286" lon="12.254783962184"><ele>632.6</ele><time>2026-03-29T08:07:29.998Z</time></trkpt><trkpt lat="43.222593943730914" lon="12.254862992266244"><ele>631.8</ele><time>2026-03-29T08:07:31.998Z</time></trkpt><trkpt lat="43.22267121949876" lon="12.254974550221458"><ele>631.0</ele><time>2026-03-29T08:07:33.998Z</time></trkpt><trkpt lat="43.222773784728616" lon="12.25505665690266"><ele>631.0</ele><time>2026-03-29T08:07:36Z</time></trkpt><trkpt lat="43.22284183045753" lon="12.25510317329297"><ele>631.0</ele><time>2026-03-29T08:07:37Z</time></trkpt><trkpt lat="43.222923125845426" lon="12.255213550262537"><ele>631.0</ele><time>2026-03-29T08:07:39Z</time></trkpt><trkpt lat="43.222989991059485" lon="12.25530553245751"><ele>631.0</ele><time>2026-03-29T08:07:41Z</time></trkpt><trkpt lat="43.22307051428294" lon="12.255338815473298"><ele>631.0</ele><time>2026-03-29T08:07:43Z</time></trkpt><trkpt lat="43.2231267097206" lon="12.255274992130822"><ele>631.0</ele><time>2026-03-29T08:07:45Z</time></trkpt><trkpt lat="43.223215233280186" lon="12.255213845733566"><ele>633.4</ele><time>2026-03-29T08:07:48Z</time></trkpt><trkpt lat="43.2233196475729" lon="12.255175561146482"><ele>635.8</ele><time>2026-03-29T08:07:50Z</time></trkpt><trkpt lat="43.22334918859404" lon="12.255035863678579"><ele>638.1999999999999</ele><time>2026-03-29T08:07:52Z</time></trkpt><trkpt lat="43.22334290460616" lon="12.25493830177067"><ele>640.6</ele><time>2026-03-29T08:07:53Z</time></trkpt><trkpt lat="43.2234020380138" lon="12.254884866390961"><ele>643.0</ele><time>2026-03-29T08:07:55Z</time></trkpt><trkpt lat="43.223516568961145" lon="12.254818674171252"><ele>648.4</ele><time>2026-03-29T08:07:57Z</time></trkpt><trkpt lat="43.223587358631306" lon="12.254778564361365"><ele>653.8</ele><time>2026-03-29T08:07:58Z</time></trkpt><trkpt lat="43.223648710013784" lon="12.254739608650684"><ele>659.2</ele><time>2026-03-29T08:07:59Z</time></trkpt><trkpt lat="43.22371954934423" lon="12.254600345290033"><ele>664.6</ele><time>2026-03-29T08:08:01Z</time></trkpt><trkpt lat="43.22381703056274" lon="12.254466071446972"><ele>670.0</ele><time>2026-03-29T08:08:03Z</time></trkpt><trkpt lat="43.22389412143067" lon="12.254421516979159"><ele>670.0</ele><time>2026-03-29T08:08:04Z</time></trkpt><trkpt lat="43.22397641373346" lon="12.254370305928228"><ele>670.0</ele><time>2026-03-29T08:08:05Z</time></trkpt><trkpt lat="43.22406082531144" lon="12.254298098916989"><ele>670.0</ele><time>2026-03-29T08:08:06Z</time></trkpt><trkpt lat="43.22416058445052" lon="12.254207023065515"><ele>670.0</ele><time>2026-03-29T08:08:07Z</time></trkpt><trkpt lat="43.224243382805426" lon="12.254117971762234"><ele>670.0</ele><time>2026-03-29T08:08:08Z</time></trkpt><trkpt lat="43.22431710841478" lon="12.254045666120911"><ele>669.3333333333334</ele><time>2026-03-29T08:08:09Z</time></trkpt><trkpt lat="43.22438646147962" lon="12.253978155930053"><ele>668.6666666666667</ele><time>2026-03-29T08:08:10Z</time></trkpt><trkpt lat="43.22445844982794" lon="12.253919211886592"><ele>668.0</ele><time>2026-03-29T08:08:11Z</time></trkpt><trkpt lat="43.22453757591132" lon="12.25390924892977"><ele>667.3333333333334</ele><time>2026-03-29T08:08:12Z</time></trkpt><trkpt lat="43.22462895645615" lon="12.253927013659478"><ele>666.6666666666666</ele><time>2026-03-29T08:08:13Z</time></trkpt><trkpt lat="43.224714691607176" lon="12.253945651468145"><ele>666.0</ele><time>2026-03-29T08:08:14Z</time></trkpt><trkpt lat="43.22480123089758" lon="12.253945345423858"><ele>666.8</ele><time>2026-03-29T08:08:15Z</time></trkpt><trkpt lat="43.224897541204" lon="12.253959982703316"><ele>667.5999999999999</ele><time>2026-03-29T08:08:15.999Z</time></trkpt><trkpt lat="43.224998126298466" lon="12.253989449294664"><ele>668.4</ele><time>2026-03-29T08:08:16.999Z</time></trkpt><trkpt lat="43.22509931376921" lon="12.254023127935161"><ele>669.2</ele><time>2026-03-29T08:08:17.999Z</time></trkpt><trkpt lat="43.225172266166126" lon="12.254114931674405"><ele>670.0</ele><time>2026-03-29T08:08:18.999Z</time></trkpt><trkpt lat="43.225249516363746" lon="12.254159671849592"><ele>670.0</ele><time>2026-03-29T08:08:19.999Z</time></trkpt><trkpt lat="43.22534224619463" lon="12.254171442161798"><ele>670.0</ele><time>2026-03-29T08:08:20.999Z</time></trkpt><trkpt lat="43.2254503789497" lon="12.254153685713096"><ele>670.0</ele><time>2026-03-29T08:08:21.999Z</time></trkpt><trkpt lat="43.22555821285327" lon="12.254158192115945"><ele>670.0</ele><time>2026-03-29T08:08:22.999Z</time></trkpt><trkpt lat="43.22565170381266" lon="12.254185378443864"><ele>670.0</ele><time>2026-03-29T08:08:23.999Z</time></trkpt><trkpt lat="43.225744205375484" lon="12.254196623939391"><ele>671.0</ele><time>2026-03-29T08:08:24.999Z</time></trkpt><trkpt lat="43.22580905209483" lon="12.254158397280168"><ele>672.0</ele><time>2026-03-29T08:08:25.999Z</time></trkpt><trkpt lat="43.22587148207459" lon="12.254076516166947"><ele>673.0</ele><time>2026-03-29T08:08:26.999Z</time></trkpt><trkpt lat="43.225926800557794" lon="12.253975687475625"><ele>674.0</ele><time>2026-03-29T08:08:27.999Z</time></trkpt><trkpt lat="43.22597229615584" lon="12.253854007362982"><ele>675.0</ele><time>2026-03-29T08:08:28.999Z</time></trkpt><trkpt lat="43.22600010720331" lon="12.253742984388388"><ele>676.0</ele><time>2026-03-29T08:08:29.999Z</time></trkpt><trkpt lat="43.22600018508913" lon="12.25361049235893"><ele>679.8</ele><time>2026-03-29T08:08:31.999Z</time></trkpt><trkpt lat="43.22603883122204" lon="12.253517558082317"><ele>683.5999999999999</ele><time>2026-03-29T08:08:32.999Z</time></trkpt><trkpt lat="43.226053768521794" lon="12.253413812695117"><ele>687.4</ele><time>2026-03-29T08:08:33.999Z</time></trkpt><trkpt lat="43.22608219006038" lon="12.25325437175294"><ele>691.2</ele><time>2026-03-29T08:08:34.999Z</time></trkpt><trkpt lat="43.22611284975365" lon="12.253040312426505"><ele>695.0</ele><time>2026-03-29T08:08:35.999Z</time></trkpt><trkpt lat="43.226142836484236" lon="12.252856052907775"><ele>698.4</ele><time>2026-03-29T08:08:36.999Z</time></trkpt><trkpt lat="43.22615808392088" lon="12.252713543315126"><ele>701.8</ele><time>2026-03-29T08:08:37.999Z</time></trkpt><trkpt lat="43.226176718366894" lon="12.252573400831896"><ele>705.2</ele><time>2026-03-29T08:08:38.999Z</time></trkpt><trkpt lat="43.22619678266577" lon="12.25244352542354"><ele>708.6</ele><time>2026-03-29T08:08:39.999Z</time></trkpt><trkpt lat="43.2262168382278" lon="12.252340760173048"><ele>712.0</ele><time>2026-03-29T08:08:40.999Z</time></trkpt><trkpt lat="43.22624136025844" lon="12.252247666557992"><ele>713.6666666666667</ele><time>2026-03-29T08:08:41.999Z</time></trkpt><trkpt lat="43.226301250656675" lon="12.252165457512781"><ele>715.3333333333334</ele><time>2026-03-29T08:08:43.999Z</time></trkpt><trkpt lat="43.226388826337065" lon="12.252154150939791"><ele>717.0</ele><time>2026-03-29T08:08:45.999Z</time></trkpt><trkpt lat="43.22645460852368" lon="12.252143726961643"><ele>718.6666666666666</ele><time>2026-03-29T08:08:46.999Z</time></trkpt><trkpt lat="43.226536887858565" lon="12.252113824737563"><ele>720.3333333333333</ele><time>2026-03-29T08:08:47.999Z</time></trkpt><trkpt lat="43.22665159715735" lon="12.252065568562122"><ele>722.0</ele><time>2026-03-29T08:08:48.999Z</time></trkpt><trkpt lat="43.2267579384192" lon="12.25201364757619"><ele>722.0</ele><time>2026-03-29T08:08:49.999Z</time></trkpt><trkpt lat="43.226850792911016" lon="12.251963087105885"><ele>722.0</ele><time>2026-03-29T08:08:50.999Z</time></trkpt><trkpt lat="43.22691678752317" lon="12.25192366857679"><ele>722.0</ele><time>2026-03-29T08:08:51.999Z</time></trkpt><trkpt lat="43.226998358835345" lon="12.25186612667583"><ele>722.0</ele><time>2026-03-29T08:08:52.999Z</time></trkpt><trkpt lat="43.227095757409025" lon="12.251797419403097"><ele>722.0</ele><time>2026-03-29T08:08:53.999Z</time></trkpt><trkpt lat="43.22719280547838" lon="12.251728408783109"><ele>722.0</ele><time>2026-03-29T08:08:54.999Z</time></trkpt><trkpt lat="43.227267128109496" lon="12.251674321518294"><ele>722.0</ele><time>2026-03-29T08:08:55.999Z</time></trkpt><trkpt lat="43.22739698297788" lon="12.251598727170364"><ele>722.0</ele><time>2026-03-29T08:08:57.999Z</time></trkpt><trkpt lat="43.227471769250016" lon="12.251588007497762"><ele>722.0</ele><time>2026-03-29T08:08:58.999Z</time></trkpt><trkpt lat="43.22754640375336" lon="12.251611905070252"><ele>722.0</ele><time>2026-03-29T08:08:59.999Z</time></trkpt><trkpt lat="43.22762588414503" lon="12.25162734826228"><ele>722.0</ele><time>2026-03-29T08:09:00.999Z</time></trkpt><trkpt lat="43.227711278047884" lon="12.251634257448583"><ele>722.0</ele><time>2026-03-29T08:09:01.999Z</time></trkpt><trkpt lat="43.22780409161733" lon="12.251672146082239"><ele>722.0</ele><time>2026-03-29T08:09:02.999Z</time></trkpt><trkpt lat="43.227904735231256" lon="12.251689643237764"><ele>722.0</ele><time>2026-03-29T08:09:03.999Z</time></trkpt><trkpt lat="43.228005683000035" lon="12.251691728646335"><ele>722.0</ele><time>2026-03-29T08:09:04.999Z</time></trkpt><trkpt lat="43.22810276081456" lon="12.251719432300478"><ele>722.2</ele><time>2026-03-29T08:09:05.999Z</time></trkpt><trkpt lat="43.228198567195456" lon="12.251724278563398"><ele>722.4000000000001</ele><time>2026-03-29T08:09:06.999Z</time></trkpt><trkpt lat="43.22829359123405" lon="12.251731001109949"><ele>722.5999999999999</ele><time>2026-03-29T08:09:07.999Z</time></trkpt><trkpt lat="43.228375327543276" lon="12.251737834973026"><ele>722.8</ele><time>2026-03-29T08:09:08.999Z</time></trkpt><trkpt lat="43.22846723507359" lon="12.251732484903636"><ele>723.0</ele><time>2026-03-29T08:09:09.999Z</time></trkpt><trkpt lat="43.228560985208595" lon="12.251750423251044"><ele>723.0</ele><time>2026-03-29T08:09:10.999Z</time></trkpt><trkpt lat="43.228629763873265" lon="12.251748291067907"><ele>723.0</ele><time>2026-03-29T08:09:11.999Z</time></trkpt><trkpt lat="43.22869477506521" lon="12.251740781091007"><ele>723.0</ele><time>2026-03-29T08:09:12.999Z</time></trkpt><trkpt lat="43.22875657685379" lon="12.251647594168388"><ele>723.0</ele><time>2026-03-29T08:09:13.999Z</time></trkpt><trkpt lat="43.22881118232603" lon="12.251553593888367"><ele>723.0</ele><time>2026-03-29T08:09:14.999Z</time></trkpt><trkpt lat="43.22886834959118" lon="12.251441989645064"><ele>723.0</ele><time>2026-03-29T08:09:15.998Z</time></trkpt><trkpt lat="43.2289461538219" lon="12.251340815361056"><ele>725.2</ele><time>2026-03-29T08:09:16.998Z</time></trkpt><trkpt lat="43.229022252681425" lon="12.25123668855856"><ele>727.4</ele><time>2026-03-29T08:09:17.998Z</time></trkpt><trkpt lat="43.229098538593206" lon="12.25114306928381"><ele>729.6</ele><time>2026-03-29T08:09:18.998Z</time></trkpt><trkpt lat="43.22919003711425" lon="12.251050168752482"><ele>731.8000000000001</ele><time>2026-03-29T08:09:19.998Z</time></trkpt><trkpt lat="43.22929285162035" lon="12.251011744547618"><ele>734.0</ele><time>2026-03-29T08:09:20.998Z</time></trkpt><trkpt lat="43.22937446783622" lon="12.25095531030292"><ele>734.0</ele><time>2026-03-29T08:09:21.998Z</time></trkpt><trkpt lat="43.229428377099055" lon="12.250899705773612"><ele>734.0</ele><time>2026-03-29T08:09:22.998Z</time></trkpt><trkpt lat="43.22949321072239" lon="12.250836382519191"><ele>734.0</ele><time>2026-03-29T08:09:23.998Z</time></trkpt><trkpt lat="43.229539326575946" lon="12.250733197321448"><ele>734.0</ele><time>2026-03-29T08:09:24.998Z</time></trkpt><trkpt lat="43.22957287573114" lon="12.250616249067084"><ele>734.0</ele><time>2026-03-29T08:09:25.998Z</time></trkpt><trkpt lat="43.22962783216784" lon="12.250548090067841"><ele>734.0</ele><time>2026-03-29T08:09:26.998Z</time></trkpt><trkpt lat="43.2297324957015" lon="12.250457389554656"><ele>736.6</ele><time>2026-03-29T08:09:28.998Z</time></trkpt><trkpt lat="43.229852706000436" lon="12.250448154684392"><ele>739.2</ele><time>2026-03-29T08:09:30.998Z</time></trkpt><trkpt lat="43.22992837832059" lon="12.25043527129151"><ele>741.8000000000001</ele><time>2026-03-29T08:09:31.998Z</time></trkpt><trkpt lat="43.230004736769594" lon="12.250431869738367"><ele>744.4000000000001</ele><time>2026-03-29T08:09:32.998Z</time></trkpt><trkpt lat="43.23011915155869" lon="12.250445641392181"><ele>747.0</ele><time>2026-03-29T08:09:34.998Z</time></trkpt><trkpt lat="43.23023881244315" lon="12.250489510280893"><ele>747.0</ele><time>2026-03-29T08:09:36.998Z</time></trkpt><trkpt lat="43.23031333207908" lon="12.250536291419216"><ele>747.0</ele><time>2026-03-29T08:09:37.998Z</time></trkpt><trkpt lat="43.23040571526482" lon="12.250565771851752"><ele>747.0</ele><time>2026-03-29T08:09:39.998Z</time></trkpt><trkpt lat="43.23047562426387" lon="12.25060576401721"><ele>747.0</ele><time>2026-03-29T08:09:43Z</time></trkpt><trkpt lat="43.230449517962214" lon="12.25050902806768"><ele>747.0</ele><time>2026-03-29T08:12:25Z</time></trkpt><trkpt lat="43.230559313153556" lon="12.2505128847926"><ele>747.0</ele><time>2026-03-29T08:13:28.998Z</time></trkpt><trkpt lat="43.23062485254513" lon="12.250512157018335"><ele>745.5</ele><time>2026-03-29T08:13:29.998Z</time></trkpt><trkpt lat="43.230712826902206" lon="12.25050753165617"><ele>744.0</ele><time>2026-03-29T08:13:30.998Z</time></trkpt><trkpt lat="43.2307996272464" lon="12.250514650967633"><ele>742.5</ele><time>2026-03-29T08:13:31.998Z</time></trkpt><trkpt lat="43.23088061271259" lon="12.250484304161937"><ele>741.0</ele><time>2026-03-29T08:13:32.998Z</time></trkpt><trkpt lat="43.23095588501505" lon="12.250438327050983"><ele>739.5</ele><time>2026-03-29T08:13:33.998Z</time></trkpt><trkpt lat="43.231026065326375" lon="12.250383083189911"><ele>738.0</ele><time>2026-03-29T08:13:34.998Z</time></trkpt><trkpt lat="43.231101201032075" lon="12.250315779687282"><ele>738.0</ele><time>2026-03-29T08:13:35.998Z</time></trkpt><trkpt lat="43.231168570174695" lon="12.250254953957153"><ele>738.0</ele><time>2026-03-29T08:13:36.998Z</time></trkpt><trkpt lat="43.23124604161556" lon="12.250202660195997"><ele>738.0</ele><time>2026-03-29T08:13:37.998Z</time></trkpt><trkpt lat="43.23132521404511" lon="12.250169798895529"><ele>738.0</ele><time>2026-03-29T08:13:38.998Z</time></trkpt><trkpt lat="43.231402519904066" lon="12.25015057756889"><ele>738.0</ele><time>2026-03-29T08:13:39.998Z</time></trkpt><trkpt lat="43.231485301187455" lon="12.250139474135366"><ele>738.0</ele><time>2026-03-29T08:13:40.998Z</time></trkpt><trkpt lat="43.23156843734492" lon="12.2501139382285"><ele>736.4285714285714</ele><time>2026-03-29T08:13:41.998Z</time></trkpt><trkpt lat="43.23164137791796" lon="12.250127139005258"><ele>734.8571428571429</ele><time>2026-03-29T08:13:42.998Z</time></trkpt><trkpt lat="43.23170569005258" lon="12.250157329409898"><ele>733.2857142857142</ele><time>2026-03-29T08:13:43.998Z</time></trkpt><trkpt lat="43.23177550885058" lon="12.250190492447738"><ele>731.7142857142858</ele><time>2026-03-29T08:13:44.998Z</time></trkpt><trkpt lat="43.23184818465203" lon="12.25019623611132"><ele>730.1428571428572</ele><time>2026-03-29T08:13:45.998Z</time></trkpt><trkpt lat="43.23192041627295" lon="12.250176642852988"><ele>728.5714285714286</ele><time>2026-03-29T08:13:46.998Z</time></trkpt><trkpt lat="43.23199026493332" lon="12.250134676829358"><ele>727.0</ele><time>2026-03-29T08:13:47.998Z</time></trkpt><trkpt lat="43.23205237633187" lon="12.250079856982847"><ele>727.0</ele><time>2026-03-29T08:13:48.998Z</time></trkpt><trkpt lat="43.23211185553684" lon="12.250022568844502"><ele>727.0</ele><time>2026-03-29T08:13:49.998Z</time></trkpt><trkpt lat="43.232188108868385" lon="12.24999404084386"><ele>727.0</ele><time>2026-03-29T08:13:50.998Z</time></trkpt><trkpt lat="43.23225307386025" lon="12.249947324357958"><ele>727.0</ele><time>2026-03-29T08:13:51.998Z</time></trkpt><trkpt lat="43.23230886656764" lon="12.249870241039769"><ele>727.0</ele><time>2026-03-29T08:13:53Z</time></trkpt><trkpt lat="43.23236860432012" lon="12.249801787148991"><ele>727.0</ele><time>2026-03-29T08:13:54Z</time></trkpt><trkpt lat="43.23242587967006" lon="12.249734077613029"><ele>727.8333333333334</ele><time>2026-03-29T08:13:55Z</time></trkpt><trkpt lat="43.23247115152542" lon="12.249651066501158"><ele>728.6666666666667</ele><time>2026-03-29T08:13:56Z</time></trkpt><trkpt lat="43.232515610711786" lon="12.249575074570993"><ele>729.5</ele><time>2026-03-29T08:13:57Z</time></trkpt><trkpt lat="43.2326123174357" lon="12.24946952552304"><ele>730.3333333333334</ele><time>2026-03-29T08:13:59Z</time></trkpt><trkpt lat="43.23268291336127" lon="12.249418172518597"><ele>731.1666666666666</ele><time>2026-03-29T08:14:00Z</time></trkpt><trkpt lat="43.23276578487607" lon="12.24937230626701"><ele>732.0</ele><time>2026-03-29T08:14:01Z</time></trkpt><trkpt lat="43.232842295415914" lon="12.249337039698208"><ele>732.0</ele><time>2026-03-29T08:14:02Z</time></trkpt><trkpt lat="43.23292301355379" lon="12.249302603409843"><ele>732.0</ele><time>2026-03-29T08:14:03Z</time></trkpt><trkpt lat="43.23300713252021" lon="12.249272241284446"><ele>732.0</ele><time>2026-03-29T08:14:04Z</time></trkpt><trkpt lat="43.233095361031005" lon="12.24924114584195"><ele>732.0</ele><time>2026-03-29T08:14:05Z</time></trkpt><trkpt lat="43.23318553466061" lon="12.249212360320294"><ele>732.0</ele><time>2026-03-29T08:14:06Z</time></trkpt><trkpt lat="43.23327436542803" lon="12.249185742840078"><ele>732.0</ele><time>2026-03-29T08:14:07Z</time></trkpt><trkpt lat="43.23337247884915" lon="12.249156566371473"><ele>730.0</ele><time>2026-03-29T08:14:08Z</time></trkpt><trkpt lat="43.23346517686325" lon="12.249135576477943"><ele>728.0</ele><time>2026-03-29T08:14:09Z</time></trkpt><trkpt lat="43.233548661704056" lon="12.249116537966222"><ele>726.0</ele><time>2026-03-29T08:14:10Z</time></trkpt><trkpt lat="43.23363194539349" lon="12.249099899031894"><ele>724.0</ele><time>2026-03-29T08:14:11Z</time></trkpt><trkpt lat="43.23371445481491" lon="12.249086951267179"><ele>722.0</ele><time>2026-03-29T08:14:12Z</time></trkpt><trkpt lat="43.2337944793371" lon="12.249077629765546"><ele>720.0</ele><time>2026-03-29T08:14:13Z</time></trkpt><trkpt lat="43.233879271785156" lon="12.249069099559291"><ele>720.0</ele><time>2026-03-29T08:14:14Z</time></trkpt><trkpt lat="43.233968736518236" lon="12.249076378794998"><ele>720.0</ele><time>2026-03-29T08:14:15Z</time></trkpt><trkpt lat="43.23405943532055" lon="12.24910455346239"><ele>720.0</ele><time>2026-03-29T08:14:16Z</time></trkpt><trkpt lat="43.2341500878762" lon="12.249131419860353"><ele>720.0</ele><time>2026-03-29T08:14:17Z</time></trkpt><trkpt lat="43.23423488622147" lon="12.24916330776422"><ele>720.0</ele><time>2026-03-29T08:14:18Z</time></trkpt><trkpt lat="43.23432350387232" lon="12.24919356825748"><ele>719.3333333333334</ele><time>2026-03-29T08:14:19Z</time></trkpt><trkpt lat="43.234408881871694" lon="12.249248351816727"><ele>718.6666666666666</ele><time>2026-03-29T08:14:20Z</time></trkpt><trkpt lat="43.234499380677185" lon="12.249309652847566"><ele>718.0</ele><time>2026-03-29T08:14:21Z</time></trkpt><trkpt lat="43.23458455608879" lon="12.249336077507325"><ele>717.3333333333333</ele><time>2026-03-29T08:14:22Z</time></trkpt><trkpt lat="43.23466224676428" lon="12.249327971587888"><ele>716.6666666666666</ele><time>2026-03-29T08:14:23Z</time></trkpt><trkpt lat="43.234719728166986" lon="12.24925965185739"><ele>716.0</ele><time>2026-03-29T08:14:24Z</time></trkpt><trkpt lat="43.23477994889101" lon="12.249210794248182"><ele>715.0</ele><time>2026-03-29T08:14:25Z</time></trkpt><trkpt lat="43.23481287305881" lon="12.249090213749476"><ele>714.0</ele><time>2026-03-29T08:14:25.999Z</time></trkpt><trkpt lat="43.234840557667994" lon="12.248985728155645"><ele>713.0</ele><time>2026-03-29T08:14:26.999Z</time></trkpt><trkpt lat="43.2348710468319" lon="12.248865072637855"><ele>712.0</ele><time>2026-03-29T08:14:27.999Z</time></trkpt><trkpt lat="43.23489506292392" lon="12.24875056427745"><ele>711.0</ele><time>2026-03-29T08:14:28.999Z</time></trkpt><trkpt lat="43.23492482000021" lon="12.248650703711021"><ele>710.0</ele><time>2026-03-29T08:14:29.999Z</time></trkpt><trkpt lat="43.234964044003796" lon="12.248562293321799"><ele>712.3333333333333</ele><time>2026-03-29T08:14:30.999Z</time></trkpt><trkpt lat="43.23501802118034" lon="12.248478782852654"><ele>714.6666666666666</ele><time>2026-03-29T08:14:31.999Z</time></trkpt><trkpt lat="43.23508651862548" lon="12.24838417797338"><ele>717.0</ele><time>2026-03-29T08:14:32.999Z</time></trkpt><trkpt lat="43.235170743787975" lon="12.248299071252593"><ele>719.3333333333334</ele><time>2026-03-29T08:14:33.999Z</time></trkpt><trkpt lat="43.23522668028438" lon="12.248225952559684"><ele>721.6666666666667</ele><time>2026-03-29T08:14:34.999Z</time></trkpt><trkpt lat="43.23527562381413" lon="12.24813237593418"><ele>724.0</ele><time>2026-03-29T08:14:35.999Z</time></trkpt><trkpt lat="43.23531170892567" lon="12.248049993757423"><ele>723.3333333333334</ele><time>2026-03-29T08:14:36.999Z</time></trkpt><trkpt lat="43.23535337378024" lon="12.247984999780511"><ele>722.6666666666667</ele><time>2026-03-29T08:14:37.999Z</time></trkpt><trkpt lat="43.235419192852035" lon="12.247894029675596"><ele>722.0</ele><time>2026-03-29T08:14:39.999Z</time></trkpt><trkpt lat="43.235470248130646" lon="12.24783768520134"><ele>721.3333333333334</ele><time>2026-03-29T08:14:40.999Z</time></trkpt><trkpt lat="43.23554120178006" lon="12.247767386026638"><ele>720.6666666666666</ele><time>2026-03-29T08:14:41.999Z</time></trkpt><trkpt lat="43.23559675996615" lon="12.247709150266537"><ele>720.0</ele><time>2026-03-29T08:14:42.999Z</time></trkpt><trkpt lat="43.235676950345066" lon="12.247637434453342"><ele>720.0</ele><time>2026-03-29T08:14:43.999Z</time></trkpt><trkpt lat="43.23575767040273" lon="12.247548645650017"><ele>720.0</ele><time>2026-03-29T08:14:44.999Z</time></trkpt><trkpt lat="43.23582765772726" lon="12.247438441413761"><ele>720.0</ele><time>2026-03-29T08:14:45.999Z</time></trkpt><trkpt lat="43.235895845762705" lon="12.247332260304542"><ele>720.0</ele><time>2026-03-29T08:14:46.999Z</time></trkpt><trkpt lat="43.23596580005587" lon="12.247216979725906"><ele>720.0</ele><time>2026-03-29T08:14:47.999Z</time></trkpt><trkpt lat="43.23603316820137" lon="12.24711704838957"><ele>722.0</ele><time>2026-03-29T08:14:48.999Z</time></trkpt><trkpt lat="43.23611233365672" lon="12.247054207929997"><ele>724.0</ele><time>2026-03-29T08:14:49.999Z</time></trkpt><trkpt lat="43.236187257198175" lon="12.246998038630645"><ele>726.0</ele><time>2026-03-29T08:14:50.999Z</time></trkpt><trkpt lat="43.23630198587307" lon="12.246919405099195"><ele>728.0</ele><time>2026-03-29T08:14:52.999Z</time></trkpt><trkpt lat="43.23634537661062" lon="12.246800109824154"><ele>730.0</ele><time>2026-03-29T08:14:54.999Z</time></trkpt><trkpt lat="43.23640931432832" lon="12.246618078778882"><ele>730.0</ele><time>2026-03-29T08:14:56.999Z</time></trkpt><trkpt lat="43.236441498985755" lon="12.246490390076302"><ele>730.0</ele><time>2026-03-29T08:14:57.999Z</time></trkpt><trkpt lat="43.23647412133959" lon="12.246360964796693"><ele>730.0</ele><time>2026-03-29T08:14:58.999Z</time></trkpt><trkpt lat="43.23650430687724" lon="12.246228640617614"><ele>730.0</ele><time>2026-03-29T08:14:59.999Z</time></trkpt><trkpt lat="43.23652664334504" lon="12.246104816457073"><ele>730.0</ele><time>2026-03-29T08:15:00.999Z</time></trkpt><trkpt lat="43.236537072910814" lon="12.24596611139762"><ele>729.2</ele><time>2026-03-29T08:15:01.999Z</time></trkpt><trkpt lat="43.2365552731031" lon="12.245849490269904"><ele>728.4</ele><time>2026-03-29T08:15:02.999Z</time></trkpt><trkpt lat="43.23657405448421" lon="12.2457397601313"><ele>727.5999999999999</ele><time>2026-03-29T08:15:03.999Z</time></trkpt><trkpt lat="43.23658679867846" lon="12.24564405559349"><ele>726.8</ele><time>2026-03-29T08:15:04.999Z</time></trkpt><trkpt lat="43.236622255640945" lon="12.245502635166215"><ele>726.0</ele><time>2026-03-29T08:15:06.999Z</time></trkpt><trkpt lat="43.236730438798595" lon="12.245365260159081"><ele>726.0</ele><time>2026-03-29T08:15:08.999Z</time></trkpt><trkpt lat="43.23681758094948" lon="12.24527761752662"><ele>726.0</ele><time>2026-03-29T08:15:09.999Z</time></trkpt><trkpt lat="43.2369114041755" lon="12.245186718155026"><ele>726.0</ele><time>2026-03-29T08:15:10.999Z</time></trkpt><trkpt lat="43.23701265616625" lon="12.245102023940532"><ele>726.0</ele><time>2026-03-29T08:15:11.999Z</time></trkpt><trkpt lat="43.237117653453765" lon="12.245016567011191"><ele>726.0</ele><time>2026-03-29T08:15:12.999Z</time></trkpt><trkpt lat="43.23723278771948" lon="12.2449273995238"><ele>726.0</ele><time>2026-03-29T08:15:13.999Z</time></trkpt><trkpt lat="43.23735003468288" lon="12.24484018126246"><ele>726.0</ele><time>2026-03-29T08:15:14.999Z</time></trkpt><trkpt lat="43.23747418432325" lon="12.244742712018377"><ele>726.0</ele><time>2026-03-29T08:15:15.999Z</time></trkpt><trkpt lat="43.23760052599878" lon="12.244641737559643"><ele>723.25</ele><time>2026-03-29T08:15:16.999Z</time></trkpt><trkpt lat="43.23772624749761" lon="12.244541487070347"><ele>720.5</ele><time>2026-03-29T08:15:17.999Z</time></trkpt><trkpt lat="43.23784820220508" lon="12.244447035786976"><ele>717.75</ele><time>2026-03-29T08:15:18.999Z</time></trkpt><trkpt lat="43.237971366694524" lon="12.244352720819588"><ele>715.0</ele><time>2026-03-29T08:15:19.999Z</time></trkpt><trkpt lat="43.23809830459729" lon="12.244254382906309"><ele>715.25</ele><time>2026-03-29T08:15:20.999Z</time></trkpt><trkpt lat="43.23823106937241" lon="12.24416941201047"><ele>715.5</ele><time>2026-03-29T08:15:21.999Z</time></trkpt><trkpt lat="43.23836841001765" lon="12.244102525104564"><ele>715.75</ele><time>2026-03-29T08:15:22.999Z</time></trkpt><trkpt lat="43.238504952816626" lon="12.244069587070035"><ele>716.0</ele><time>2026-03-29T08:15:23.998Z</time></trkpt><trkpt lat="43.23863918637119" lon="12.244048953595414"><ele>716.0</ele><time>2026-03-29T08:15:24.998Z</time></trkpt><trkpt lat="43.238773794086576" lon="12.243999341547266"><ele>716.0</ele><time>2026-03-29T08:15:25.998Z</time></trkpt><trkpt lat="43.238903404080126" lon="12.243900563381251"><ele>716.0</ele><time>2026-03-29T08:15:26.998Z</time></trkpt><trkpt lat="43.239023446785964" lon="12.243768755321595"><ele>716.0</ele><time>2026-03-29T08:15:27.998Z</time></trkpt><trkpt lat="43.23913587234032" lon="12.243629724164673"><ele>714.0</ele><time>2026-03-29T08:15:28.998Z</time></trkpt><trkpt lat="43.2392439747506" lon="12.24349519224959"><ele>712.0</ele><time>2026-03-29T08:15:29.998Z</time></trkpt><trkpt lat="43.23935352433341" lon="12.243363489938016"><ele>710.0</ele><time>2026-03-29T08:15:30.998Z</time></trkpt><trkpt lat="43.23946516015506" lon="12.243232100814941"><ele>708.0</ele><time>2026-03-29T08:15:31.998Z</time></trkpt><trkpt lat="43.23958600603142" lon="12.243102745167162"><ele>706.25</ele><time>2026-03-29T08:15:32.998Z</time></trkpt><trkpt lat="43.239707989800365" lon="12.242985277476153"><ele>704.5</ele><time>2026-03-29T08:15:33.998Z</time></trkpt><trkpt lat="43.23982691896623" lon="12.242879884880285"><ele>702.75</ele><time>2026-03-29T08:15:34.998Z</time></trkpt><trkpt lat="43.23994176092379" lon="12.242770494904864"><ele>701.0</ele><time>2026-03-29T08:15:35.998Z</time></trkpt><trkpt lat="43.240050425300915" lon="12.242667245802176"><ele>700.1999999999999</ele><time>2026-03-29T08:15:36.998Z</time></trkpt><trkpt lat="43.24015652127499" lon="12.242569114804569"><ele>699.4</ele><time>2026-03-29T08:15:37.998Z</time></trkpt><trkpt lat="43.24025396386306" lon="12.24247593472102"><ele>698.6</ele><time>2026-03-29T08:15:38.998Z</time></trkpt><trkpt lat="43.24034244795977" lon="12.242401294628651"><ele>697.8</ele><time>2026-03-29T08:15:39.998Z</time></trkpt><trkpt lat="43.24043532288867" lon="12.242363368522295"><ele>697.0</ele><time>2026-03-29T08:15:40.998Z</time></trkpt><trkpt lat="43.24051424008426" lon="12.242269439033096"><ele>696.0</ele><time>2026-03-29T08:15:41.998Z</time></trkpt><trkpt lat="43.240598785084565" lon="12.242179876925878"><ele>695.0</ele><time>2026-03-29T08:15:42.998Z</time></trkpt><trkpt lat="43.24068457404167" lon="12.242079012390107"><ele>694.0</ele><time>2026-03-29T08:15:43.998Z</time></trkpt><trkpt lat="43.24076932904351" lon="12.241975987086276"><ele>693.0</ele><time>2026-03-29T08:15:44.998Z</time></trkpt><trkpt lat="43.240857033455406" lon="12.241869707605899"><ele>695.0</ele><time>2026-03-29T08:15:45.998Z</time></trkpt><trkpt lat="43.24094760418603" lon="12.241770497160076"><ele>697.0</ele><time>2026-03-29T08:15:46.998Z</time></trkpt><trkpt lat="43.2410539686215" lon="12.241707401795116"><ele>699.0</ele><time>2026-03-29T08:15:47.998Z</time></trkpt><trkpt lat="43.24116680885643" lon="12.241661190983022"><ele>701.0</ele><time>2026-03-29T08:15:48.998Z</time></trkpt><trkpt lat="43.241280816789775" lon="12.241605630441054"><ele>701.0</ele><time>2026-03-29T08:15:49.998Z</time></trkpt><trkpt lat="43.241388087897626" lon="12.241529897973383"><ele>701.0</ele><time>2026-03-29T08:15:50.998Z</time></trkpt><trkpt lat="43.24148996201157" lon="12.241469521835926"><ele>701.0</ele><time>2026-03-29T08:15:51.998Z</time></trkpt><trkpt lat="43.241589409580826" lon="12.241402303899463"><ele>701.0</ele><time>2026-03-29T08:15:52.998Z</time></trkpt><trkpt lat="43.24168133157435" lon="12.241327020876554"><ele>701.0</ele><time>2026-03-29T08:15:53.998Z</time></trkpt><trkpt lat="43.24178020567406" lon="12.241281685122294"><ele>702.4</ele><time>2026-03-29T08:15:54.998Z</time></trkpt><trkpt lat="43.24187226086829" lon="12.241222616251338"><ele>703.8</ele><time>2026-03-29T08:15:55.998Z</time></trkpt><trkpt lat="43.24196177641648" lon="12.241177889256123"><ele>705.1999999999999</ele><time>2026-03-29T08:15:56.998Z</time></trkpt><trkpt lat="43.24204143459731" lon="12.24112532407321"><ele>706.5999999999999</ele><time>2026-03-29T08:15:57.998Z</time></trkpt><trkpt lat="43.24212154889937" lon="12.241144959763453"><ele>708.0</ele><time>2026-03-29T08:15:59Z</time></trkpt><trkpt lat="43.242218193622755" lon="12.2411692865235"><ele>708.5</ele><time>2026-03-29T08:16:00Z</time></trkpt><trkpt lat="43.24234103459584" lon="12.24111292843766"><ele>709.0</ele><time>2026-03-29T08:16:01Z</time></trkpt><trkpt lat="43.2424565544595" lon="12.241138161231051"><ele>709.5</ele><time>2026-03-29T08:16:02Z</time></trkpt><trkpt lat="43.24258536136692" lon="12.24118610539412"><ele>710.0</ele><time>2026-03-29T08:16:03Z</time></trkpt><trkpt lat="43.242709929943196" lon="12.241211639020442"><ele>710.0</ele><time>2026-03-29T08:16:04Z</time></trkpt><trkpt lat="43.242820092587294" lon="12.241256052340091"><ele>710.0</ele><time>2026-03-29T08:16:05Z</time></trkpt><trkpt lat="43.24298550902663" lon="12.24128628322094"><ele>710.0</ele><time>2026-03-29T08:16:06Z</time></trkpt><trkpt lat="43.24314133706924" lon="12.241317949466827"><ele>710.0</ele><time>2026-03-29T08:16:07Z</time></trkpt><trkpt lat="43.243312221348575" lon="12.241382829178276"><ele>713.3333333333333</ele><time>2026-03-29T08:16:08Z</time></trkpt><trkpt lat="43.24348092104617" lon="12.241509941735826"><ele>716.6666666666666</ele><time>2026-03-29T08:16:09Z</time></trkpt><trkpt lat="43.243624355629215" lon="12.24159973778843"><ele>720.0</ele><time>2026-03-29T08:16:10Z</time></trkpt><trkpt lat="43.24373801381366" lon="12.241669298420646"><ele>720.0</ele><time>2026-03-29T08:16:11Z</time></trkpt><trkpt lat="43.24385927490131" lon="12.241767956914535"><ele>720.0</ele><time>2026-03-29T08:16:12Z</time></trkpt><trkpt lat="43.24399458593031" lon="12.241897814849288"><ele>720.0</ele><time>2026-03-29T08:16:13Z</time></trkpt><trkpt lat="43.244102491709995" lon="12.242039957220278"><ele>720.0</ele><time>2026-03-29T08:16:14Z</time></trkpt><trkpt lat="43.24420635955585" lon="12.242148585012773"><ele>720.0</ele><time>2026-03-29T08:16:15Z</time></trkpt><trkpt lat="43.24434209665171" lon="12.242221799029519"><ele>720.0</ele><time>2026-03-29T08:16:16Z</time></trkpt><trkpt lat="43.24447855710109" lon="12.242287985841505"><ele>720.0</ele><time>2026-03-29T08:16:17Z</time></trkpt><trkpt lat="43.2446167548103" lon="12.242364983100765"><ele>720.0</ele><time>2026-03-29T08:16:18Z</time></trkpt><trkpt lat="43.24477078782374" lon="12.2424283434312"><ele>720.0</ele><time>2026-03-29T08:16:19Z</time></trkpt><trkpt lat="43.24491171842388" lon="12.24249621040109"><ele>720.0</ele><time>2026-03-29T08:16:20Z</time></trkpt><trkpt lat="43.24505937306744" lon="12.242544484758026"><ele>719.5</ele><time>2026-03-29T08:16:21Z</time></trkpt><trkpt lat="43.24518301183895" lon="12.242611842756917"><ele>719.0</ele><time>2026-03-29T08:16:22Z</time></trkpt><trkpt lat="43.24530794981455" lon="12.242700250117155"><ele>718.5</ele><time>2026-03-29T08:16:23Z</time></trkpt><trkpt lat="43.2454242785773" lon="12.242802561450977"><ele>718.0</ele><time>2026-03-29T08:16:24Z</time></trkpt><trkpt lat="43.245543017199786" lon="12.242911237965629"><ele>718.25</ele><time>2026-03-29T08:16:25Z</time></trkpt><trkpt lat="43.24567148972843" lon="12.243015913075082"><ele>718.5</ele><time>2026-03-29T08:16:26Z</time></trkpt><trkpt lat="43.24579219492402" lon="12.243125009572273"><ele>718.75</ele><time>2026-03-29T08:16:27Z</time></trkpt><trkpt lat="43.2459167512982" lon="12.243199907827979"><ele>719.0</ele><time>2026-03-29T08:16:28Z</time></trkpt><trkpt lat="43.246041784348826" lon="12.243267098389568"><ele>720.0</ele><time>2026-03-29T08:16:28.999Z</time></trkpt><trkpt lat="43.246162644575826" lon="12.243313826846416"><ele>721.0</ele><time>2026-03-29T08:16:29.999Z</time></trkpt><trkpt lat="43.24629684175522" lon="12.243336455022757"><ele>722.0</ele><time>2026-03-29T08:16:30.999Z</time></trkpt><trkpt lat="43.2464402666049" lon="12.243369702341148"><ele>723.0</ele><time>2026-03-29T08:16:31.999Z</time></trkpt><trkpt lat="43.24659541091393" lon="12.243397465368158"><ele>724.6666666666666</ele><time>2026-03-29T08:16:32.999Z</time></trkpt><trkpt lat="43.24675409966216" lon="12.243454567472433"><ele>726.3333333333333</ele><time>2026-03-29T08:16:33.999Z</time></trkpt><trkpt lat="43.24691048309626" lon="12.243502587000947"><ele>728.0</ele><time>2026-03-29T08:16:34.999Z</time></trkpt><trkpt lat="43.24705205187646" lon="12.243538825774454"><ele>728.0</ele><time>2026-03-29T08:16:35.999Z</time></trkpt><trkpt lat="43.24718752713375" lon="12.24356909239785"><ele>728.0</ele><time>2026-03-29T08:16:36.999Z</time></trkpt><trkpt lat="43.24730658559209" lon="12.243592512945078"><ele>728.0</ele><time>2026-03-29T08:16:37.999Z</time></trkpt><trkpt lat="43.24741598997338" lon="12.243648552116955"><ele>728.0</ele><time>2026-03-29T08:16:38.999Z</time></trkpt><trkpt lat="43.247507597459794" lon="12.243746481265898"><ele>728.25</ele><time>2026-03-29T08:16:39.999Z</time></trkpt><trkpt lat="43.24759168483299" lon="12.243879860293893"><ele>728.5</ele><time>2026-03-29T08:16:40.999Z</time></trkpt><trkpt lat="43.24768213993427" lon="12.24400771485366"><ele>728.75</ele><time>2026-03-29T08:16:41.999Z</time></trkpt><trkpt lat="43.24777056394235" lon="12.244093817910354"><ele>729.0</ele><time>2026-03-29T08:16:42.999Z</time></trkpt><trkpt lat="43.24784973175307" lon="12.244129188867353"><ele>729.0</ele><time>2026-03-29T08:16:43.999Z</time></trkpt><trkpt lat="43.247916387445166" lon="12.244103487481427"><ele>729.0</ele><time>2026-03-29T08:16:44.999Z</time></trkpt><trkpt lat="43.247967425099404" lon="12.243958954124437"><ele>729.0</ele><time>2026-03-29T08:16:46.999Z</time></trkpt><trkpt lat="43.24797960915498" lon="12.24385225044942"><ele>729.0</ele><time>2026-03-29T08:16:47.999Z</time></trkpt><trkpt lat="43.24798091695304" lon="12.243741241379144"><ele>729.0</ele><time>2026-03-29T08:16:48.999Z</time></trkpt><trkpt lat="43.24800516278694" lon="12.2436348997237"><ele>729.0</ele><time>2026-03-29T08:16:49.999Z</time></trkpt><trkpt lat="43.248025836842004" lon="12.243546702246032"><ele>729.8000000000001</ele><time>2026-03-29T08:16:50.999Z</time></trkpt><trkpt lat="43.24806369385228" lon="12.243459128572857"><ele>730.6</ele><time>2026-03-29T08:16:51.999Z</time></trkpt><trkpt lat="43.248119173524245" lon="12.24336840170436"><ele>731.4</ele><time>2026-03-29T08:16:52.999Z</time></trkpt><trkpt lat="43.248194333222465" lon="12.243260166685516"><ele>732.2</ele><time>2026-03-29T08:16:53.999Z</time></trkpt><trkpt lat="43.248269881673295" lon="12.24316197920696"><ele>733.0</ele><time>2026-03-29T08:16:54.999Z</time></trkpt><trkpt lat="43.24833362462788" lon="12.243081386238579"><ele>734.1666666666667</ele><time>2026-03-29T08:16:55.999Z</time></trkpt><trkpt lat="43.24839597318801" lon="12.243003152744006"><ele>735.3333333333334</ele><time>2026-03-29T08:16:56.999Z</time></trkpt><trkpt lat="43.248478648996254" lon="12.242980622669869"><ele>736.5</ele><time>2026-03-29T08:16:57.999Z</time></trkpt><trkpt lat="43.24856343355208" lon="12.24301662007712"><ele>737.6666666666666</ele><time>2026-03-29T08:16:58.999Z</time></trkpt><trkpt lat="43.24864572537808" lon="12.243064493823905"><ele>738.8333333333333</ele><time>2026-03-29T08:16:59.999Z</time></trkpt><trkpt lat="43.248714066489875" lon="12.243083093769094"><ele>740.0</ele><time>2026-03-29T08:17:00.999Z</time></trkpt><trkpt lat="43.248794413536004" lon="12.243134939239887"><ele>741.3333333333333</ele><time>2026-03-29T08:17:01.999Z</time></trkpt><trkpt lat="43.24887549771408" lon="12.243219712733028"><ele>742.6666666666666</ele><time>2026-03-29T08:17:02.999Z</time></trkpt><trkpt lat="43.248934548889125" lon="12.243329446343814"><ele>744.0</ele><time>2026-03-29T08:17:03.999Z</time></trkpt><trkpt lat="43.24899210179255" lon="12.2433998059697"><ele>745.3333333333334</ele><time>2026-03-29T08:17:04.999Z</time></trkpt><trkpt lat="43.24906000117502" lon="12.243412249230632"><ele>746.6666666666667</ele><time>2026-03-29T08:17:05.999Z</time></trkpt><trkpt lat="43.24914722933989" lon="12.243418597160398"><ele>748.0</ele><time>2026-03-29T08:17:06.999Z</time></trkpt><trkpt lat="43.249237790890476" lon="12.2434224973453"><ele>750.2</ele><time>2026-03-29T08:17:07.999Z</time></trkpt><trkpt lat="43.24934179357767" lon="12.243425105959819"><ele>752.4</ele><time>2026-03-29T08:17:08.999Z</time></trkpt><trkpt lat="43.249438083691096" lon="12.243429033193118"><ele>754.6</ele><time>2026-03-29T08:17:09.999Z</time></trkpt><trkpt lat="43.24954494750924" lon="12.24343339168901"><ele>756.8000000000001</ele><time>2026-03-29T08:17:10.999Z</time></trkpt><trkpt lat="43.24966918943611" lon="12.243415703327194"><ele>759.0</ele><time>2026-03-29T08:17:11.999Z</time></trkpt><trkpt lat="43.249786488418465" lon="12.243435422962003"><ele>759.5</ele><time>2026-03-29T08:17:12.999Z</time></trkpt><trkpt lat="43.24990777806576" lon="12.243416295048107"><ele>760.0</ele><time>2026-03-29T08:17:13.999Z</time></trkpt><trkpt lat="43.250030192864976" lon="12.243438450471727"><ele>760.5</ele><time>2026-03-29T08:17:14.999Z</time></trkpt><trkpt lat="43.25014052438298" lon="12.243431884474358"><ele>761.0</ele><time>2026-03-29T08:17:15.999Z</time></trkpt><trkpt lat="43.25025947540201" lon="12.243463212798206"><ele>761.0</ele><time>2026-03-29T08:17:16.999Z</time></trkpt><trkpt lat="43.25037051416963" lon="12.243475231780236"><ele>761.0</ele><time>2026-03-29T08:17:17.999Z</time></trkpt><trkpt lat="43.25049050778727" lon="12.243466412263066"><ele>761.0</ele><time>2026-03-29T08:17:18.999Z</time></trkpt><trkpt lat="43.250588676649656" lon="12.243517272044299"><ele>761.0</ele><time>2026-03-29T08:17:19.999Z</time></trkpt><trkpt lat="43.25067165258174" lon="12.243560063316833"><ele>761.0</ele><time>2026-03-29T08:17:20.999Z</time></trkpt><trkpt lat="43.250795293930715" lon="12.243614121217174"><ele>762.0</ele><time>2026-03-29T08:17:21.999Z</time></trkpt><trkpt lat="43.25079835925359" lon="12.243738193826701"><ele>763.0</ele><time>2026-03-29T08:17:22.999Z</time></trkpt><trkpt lat="43.2509102176938" lon="12.24386803534233"><ele>764.0</ele><time>2026-03-29T08:17:23.999Z</time></trkpt><trkpt lat="43.251116905748596" lon="12.243993958039502"><ele>770.0</ele><time>2026-03-29T08:17:24.999Z</time></trkpt><trkpt lat="43.251305339757536" lon="12.24405303652746"><ele>776.0</ele><time>2026-03-29T08:17:25.999Z</time></trkpt><trkpt lat="43.251455861996675" lon="12.244082206846985"><ele>782.0</ele><time>2026-03-29T08:17:26.999Z</time></trkpt><trkpt lat="43.251626978479294" lon="12.244107810110357"><ele>783.5</ele><time>2026-03-29T08:17:27.999Z</time></trkpt><trkpt lat="43.251777259653736" lon="12.24412203867955"><ele>785.0</ele><time>2026-03-29T08:17:28.998Z</time></trkpt><trkpt lat="43.251911690815476" lon="12.244130932651625"><ele>786.5</ele><time>2026-03-29T08:17:29.998Z</time></trkpt><trkpt lat="43.25206238423986" lon="12.244138830234764"><ele>788.0</ele><time>2026-03-29T08:17:30.998Z</time></trkpt><trkpt lat="43.25220204424349" lon="12.244145050898645"><ele>787.25</ele><time>2026-03-29T08:17:31.998Z</time></trkpt><trkpt lat="43.2523326411413" lon="12.244150867871845"><ele>786.5</ele><time>2026-03-29T08:17:32.998Z</time></trkpt><trkpt lat="43.25246258134758" lon="12.244156655600182"><ele>785.75</ele><time>2026-03-29T08:17:33.998Z</time></trkpt><trkpt lat="43.25260727760107" lon="12.24416051323864"><ele>785.0</ele><time>2026-03-29T08:17:34.998Z</time></trkpt><trkpt lat="43.252729789139416" lon="12.244161014779346"><ele>785.0</ele><time>2026-03-29T08:17:35.998Z</time></trkpt><trkpt lat="43.25281897481546" lon="12.244166713263176"><ele>785.0</ele><time>2026-03-29T08:17:36.998Z</time></trkpt><trkpt lat="43.25290948685157" lon="12.244186115668683"><ele>785.0</ele><time>2026-03-29T08:17:37.998Z</time></trkpt><trkpt lat="43.25302273736526" lon="12.244245058208174"><ele>785.0</ele><time>2026-03-29T08:17:39.998Z</time></trkpt><trkpt lat="43.25308903680638" lon="12.244292028338336"><ele>785.0</ele><time>2026-03-29T08:17:40.998Z</time></trkpt><trkpt lat="43.25315550695756" lon="12.244347644170276"><ele>782.6</ele><time>2026-03-29T08:17:41.998Z</time></trkpt><trkpt lat="43.253251603673526" lon="12.244428845854696"><ele>780.2</ele><time>2026-03-29T08:17:42.998Z</time></trkpt><trkpt lat="43.253345208124756" lon="12.244511879692075"><ele>777.8</ele><time>2026-03-29T08:17:43.998Z</time></trkpt><trkpt lat="43.25344108189345" lon="12.244602173673124"><ele>775.4</ele><time>2026-03-29T08:17:44.998Z</time></trkpt><trkpt lat="43.25352037644167" lon="12.244679669949393"><ele>773.0</ele><time>2026-03-29T08:17:45.998Z</time></trkpt><trkpt lat="43.2535857861346" lon="12.244722812368753"><ele>773.0</ele><time>2026-03-29T08:17:46.998Z</time></trkpt><trkpt lat="43.25365537843605" lon="12.244767032666784"><ele>773.0</ele><time>2026-03-29T08:17:47.998Z</time></trkpt><trkpt lat="43.25372951789224" lon="12.244830023188003"><ele>773.0</ele><time>2026-03-29T08:17:49.998Z</time></trkpt><trkpt lat="43.2537684797654" lon="12.244954514357607"><ele>773.0</ele><time>2026-03-29T08:17:51.998Z</time></trkpt><trkpt lat="43.253813875421436" lon="12.245071473233127"><ele>773.0</ele><time>2026-03-29T08:17:52.998Z</time></trkpt><trkpt lat="43.25392795568524" lon="12.24518011791865"><ele>754.0</ele><time>2026-03-29T08:17:54.998Z</time></trkpt><trkpt lat="43.25459634322314" lon="12.244766328072787"><ele>754.0</ele><time>2026-03-29T08:17:56.998Z</time></trkpt><trkpt lat="43.25470262349324" lon="12.244739312681387"><ele>754.0</ele><time>2026-03-29T08:17:57.998Z</time></trkpt><trkpt lat="43.25481465528161" lon="12.244739544399735"><ele>754.0</ele><time>2026-03-29T08:17:58.998Z</time></trkpt><trkpt lat="43.2549269138007" lon="12.244771920824434"><ele>754.0</ele><time>2026-03-29T08:17:59.998Z</time></trkpt><trkpt lat="43.255029903102866" lon="12.244781462953194"><ele>754.0</ele><time>2026-03-29T08:18:00.998Z</time></trkpt><trkpt lat="43.25510365136757" lon="12.244736653744345"><ele>754.6</ele><time>2026-03-29T08:18:01.998Z</time></trkpt><trkpt lat="43.25521088101087" lon="12.244730036320107"><ele>755.2</ele><time>2026-03-29T08:18:04Z</time></trkpt><trkpt lat="43.255281487553034" lon="12.244770834846761"><ele>755.8000000000001</ele><time>2026-03-29T08:18:05Z</time></trkpt><trkpt lat="43.25535631597545" lon="12.244816371896517"><ele>756.4000000000001</ele><time>2026-03-29T08:18:06Z</time></trkpt><trkpt lat="43.25547153944176" lon="12.244882858818618"><ele>757.0</ele><time>2026-03-29T08:18:08Z</time></trkpt><trkpt lat="43.25558572739675" lon="12.244785441243193"><ele>755.5</ele><time>2026-03-29T08:18:10Z</time></trkpt><trkpt lat="43.25564093038358" lon="12.24473371975273"><ele>754.0</ele><time>2026-03-29T08:18:11Z</time></trkpt><trkpt lat="43.25576827342831" lon="12.244734054197737"><ele>752.5</ele><time>2026-03-29T08:18:13Z</time></trkpt><trkpt lat="43.25583546797345" lon="12.244763629149903"><ele>751.0</ele><time>2026-03-29T08:18:14Z</time></trkpt><trkpt lat="43.25589663857505" lon="12.244791657037375"><ele>749.5</ele><time>2026-03-29T08:18:15Z</time></trkpt><trkpt lat="43.25593901056643" lon="12.244872287427544"><ele>748.0</ele><time>2026-03-29T08:18:16Z</time></trkpt><trkpt lat="43.25597277742735" lon="12.244963209005945"><ele>748.0</ele><time>2026-03-29T08:18:17Z</time></trkpt><trkpt lat="43.256012270872546" lon="12.245083177367976"><ele>748.0</ele><time>2026-03-29T08:18:18Z</time></trkpt><trkpt lat="43.25609459585693" lon="12.245198821429348"><ele>748.0</ele><time>2026-03-29T08:18:19Z</time></trkpt><trkpt lat="43.25618468232813" lon="12.245326650177207"><ele>748.0</ele><time>2026-03-29T08:18:20Z</time></trkpt><trkpt lat="43.256228470450736" lon="12.24540178113791"><ele>748.0</ele><time>2026-03-29T08:18:21Z</time></trkpt><trkpt lat="43.25625487084518" lon="12.245497635451878"><ele>748.0</ele><time>2026-03-29T08:18:23Z</time></trkpt><trkpt lat="43.25630582700234" lon="12.245442178409046"><ele>748.0</ele><time>2026-03-29T08:18:25Z</time></trkpt><trkpt lat="43.25635425236997" lon="12.245377661271618"><ele>748.0</ele><time>2026-03-29T08:18:26Z</time></trkpt><trkpt lat="43.256413868354144" lon="12.24528911120881"><ele>748.0</ele><time>2026-03-29T08:18:27Z</time></trkpt><trkpt lat="43.25645993440849" lon="12.24521608171706"><ele>748.0</ele><time>2026-03-29T08:18:28Z</time></trkpt><trkpt lat="43.25651060737793" lon="12.245148597444262"><ele>748.0</ele><time>2026-03-29T08:18:29Z</time></trkpt><trkpt lat="43.25656569830305" lon="12.245086225174413"><ele>748.0</ele><time>2026-03-29T08:18:30Z</time></trkpt><trkpt lat="43.25664485093725" lon="12.2450388228922"><ele>745.8333333333334</ele><time>2026-03-29T08:18:32Z</time></trkpt><trkpt lat="43.25672981110404" lon="12.24500392162742"><ele>743.6666666666667</ele><time>2026-03-29T08:18:32.999Z</time></trkpt><trkpt lat="43.25681839025012" lon="12.244954208238946"><ele>741.5</ele><time>2026-03-29T08:18:33.999Z</time></trkpt><trkpt lat="43.25688429352141" lon="12.24488624559472"><ele>739.3333333333334</ele><time>2026-03-29T08:18:34.999Z</time></trkpt><trkpt lat="43.256952291795635" lon="12.244813476450602"><ele>737.1666666666666</ele><time>2026-03-29T08:18:35.999Z</time></trkpt><trkpt lat="43.25701214604892" lon="12.244735619509733"><ele>735.0</ele><time>2026-03-29T08:18:36.999Z</time></trkpt><trkpt lat="43.25707946659179" lon="12.244675871853484"><ele>733.3333333333334</ele><time>2026-03-29T08:18:37.999Z</time></trkpt><trkpt lat="43.257147872655615" lon="12.244620853498938"><ele>731.6666666666666</ele><time>2026-03-29T08:18:38.999Z</time></trkpt><trkpt lat="43.25720365663962" lon="12.244545400069397"><ele>730.0</ele><time>2026-03-29T08:18:39.999Z</time></trkpt><trkpt lat="43.25725213770542" lon="12.244465944026068"><ele>728.3333333333333</ele><time>2026-03-29T08:18:40.999Z</time></trkpt><trkpt lat="43.25731116761515" lon="12.24439312806551"><ele>726.6666666666666</ele><time>2026-03-29T08:18:41.999Z</time></trkpt><trkpt lat="43.25737393475881" lon="12.244336546485638"><ele>725.0</ele><time>2026-03-29T08:18:42.999Z</time></trkpt><trkpt lat="43.2574317368768" lon="12.244293464807875"><ele>721.8333333333333</ele><time>2026-03-29T08:18:43.999Z</time></trkpt><trkpt lat="43.25748289829959" lon="12.244211245039908"><ele>718.6666666666666</ele><time>2026-03-29T08:18:44.999Z</time></trkpt><trkpt lat="43.25753711480488" lon="12.244102415774984"><ele>715.5</ele><time>2026-03-29T08:18:45.999Z</time></trkpt><trkpt lat="43.25760071334418" lon="12.24401647944093"><ele>712.3333333333334</ele><time>2026-03-29T08:18:46.999Z</time></trkpt><trkpt lat="43.25766958412314" lon="12.243923260340386"><ele>709.1666666666667</ele><time>2026-03-29T08:18:47.999Z</time></trkpt><trkpt lat="43.25772384979323" lon="12.243847223940687"><ele>706.0</ele><time>2026-03-29T08:18:48.999Z</time></trkpt><trkpt lat="43.25778968434219" lon="12.243772950209166"><ele>705.0</ele><time>2026-03-29T08:18:49.999Z</time></trkpt><trkpt lat="43.2578845053026" lon="12.243690553708067"><ele>704.0</ele><time>2026-03-29T08:18:51.999Z</time></trkpt><trkpt lat="43.257956344835854" lon="12.243637359634299"><ele>703.0</ele><time>2026-03-29T08:18:52.999Z</time></trkpt><trkpt lat="43.25802651336685" lon="12.243596542459306"><ele>702.0</ele><time>2026-03-29T08:18:53.999Z</time></trkpt><trkpt lat="43.258095393059726" lon="12.243547786362512"><ele>701.0</ele><time>2026-03-29T08:18:54.999Z</time></trkpt><trkpt lat="43.25815614551374" lon="12.243501818907415"><ele>700.0</ele><time>2026-03-29T08:18:55.999Z</time></trkpt><trkpt lat="43.25827529384084" lon="12.243542974193527"><ele>697.6666666666667</ele><time>2026-03-29T08:18:57.999Z</time></trkpt><trkpt lat="43.25834548337736" lon="12.243569019836881"><ele>695.3333333333334</ele><time>2026-03-29T08:18:58.999Z</time></trkpt><trkpt lat="43.258426160469284" lon="12.24354009949561"><ele>693.0</ele><time>2026-03-29T08:19:00.999Z</time></trkpt><trkpt lat="43.25843753765122" lon="12.243449260304564"><ele>690.6666666666666</ele><time>2026-03-29T08:19:01.999Z</time></trkpt><trkpt lat="43.25842055488541" lon="12.243347364140414"><ele>688.3333333333333</ele><time>2026-03-29T08:19:02.999Z</time></trkpt><trkpt lat="43.258393618558685" lon="12.243212628985901"><ele>686.0</ele><time>2026-03-29T08:19:03.999Z</time></trkpt><trkpt lat="43.25838955346082" lon="12.243075428393471"><ele>685.1666666666666</ele><time>2026-03-29T08:19:04.999Z</time></trkpt><trkpt lat="43.25841041802436" lon="12.24297559771732"><ele>684.3333333333333</ele><time>2026-03-29T08:19:06.999Z</time></trkpt><trkpt lat="43.2583848655774" lon="12.24287261598728"><ele>683.5</ele><time>2026-03-29T08:19:10.999Z</time></trkpt><trkpt lat="43.25839464410149" lon="12.242785429360275"><ele>682.6666666666666</ele><time>2026-03-29T08:19:13.999Z</time></trkpt><trkpt lat="43.25844106508683" lon="12.24263732655321"><ele>681.8333333333334</ele><time>2026-03-29T08:19:15.999Z</time></trkpt><trkpt lat="43.25844619436432" lon="12.242537332476891"><ele>681.0</ele><time>2026-03-29T08:19:16.999Z</time></trkpt><trkpt lat="43.258456964162136" lon="12.242364587824586"><ele>678.5999999999999</ele><time>2026-03-29T08:19:18.999Z</time></trkpt><trkpt lat="43.25845192936054" lon="12.242220053279958"><ele>676.2</ele><time>2026-03-29T08:19:20.999Z</time></trkpt><trkpt lat="43.25850807625776" lon="12.242067853220044"><ele>673.8</ele><time>2026-03-29T08:19:22.999Z</time></trkpt><trkpt lat="43.258550694438654" lon="12.241981515031885"><ele>671.4000000000001</ele><time>2026-03-29T08:19:23.999Z</time></trkpt><trkpt lat="43.25861193455742" lon="12.241929030876785"><ele>669.0</ele><time>2026-03-29T08:19:29.999Z</time></trkpt><trkpt lat="43.258750015038316" lon="12.241793218395955"><ele>669.0</ele><time>2026-03-29T08:19:31.998Z</time></trkpt><trkpt lat="43.258841298209475" lon="12.241745508032523"><ele>669.0</ele><time>2026-03-29T08:19:32.998Z</time></trkpt><trkpt lat="43.25888792090315" lon="12.241675406668664"><ele>669.0</ele><time>2026-03-29T08:19:33.998Z</time></trkpt><trkpt lat="43.25898639470765" lon="12.241682986932053"><ele>669.0</ele><time>2026-03-29T08:19:35.998Z</time></trkpt><trkpt lat="43.25905408164209" lon="12.241727726352654"><ele>669.0</ele><time>2026-03-29T08:19:36.998Z</time></trkpt><trkpt lat="43.25910770936942" lon="12.241778498744914"><ele>669.0</ele><time>2026-03-29T08:19:37.998Z</time></trkpt><trkpt lat="43.25921056787274" lon="12.24186690849549"><ele>669.0</ele><time>2026-03-29T08:19:39.998Z</time></trkpt><trkpt lat="43.25926964230421" lon="12.241922021972627"><ele>669.0</ele><time>2026-03-29T08:19:40.998Z</time></trkpt><trkpt lat="43.25933273131172" lon="12.242006632675231"><ele>669.0</ele><time>2026-03-29T08:19:41.998Z</time></trkpt><trkpt lat="43.259372196740095" lon="12.242145005013388"><ele>669.0</ele><time>2026-03-29T08:19:43.998Z</time></trkpt><trkpt lat="43.259372907274475" lon="12.242311561201939"><ele>669.0</ele><time>2026-03-29T08:19:45.998Z</time></trkpt><trkpt lat="43.25938504261702" lon="12.242405393370824"><ele>669.0</ele><time>2026-03-29T08:19:48.998Z</time></trkpt><trkpt lat="43.2594150959105" lon="12.242497532268587"><ele>669.0</ele><time>2026-03-29T08:19:50.998Z</time></trkpt><trkpt lat="43.259503612289635" lon="12.242645839613822"><ele>669.0</ele><time>2026-03-29T08:19:52.998Z</time></trkpt><trkpt lat="43.25959383474299" lon="12.242750848529248"><ele>669.0</ele><time>2026-03-29T08:19:54.998Z</time></trkpt><trkpt lat="43.25964986611842" lon="12.242821921573434"><ele>669.0</ele><time>2026-03-29T08:19:55.998Z</time></trkpt><trkpt lat="43.25972436500039" lon="12.242892789896649"><ele>665.4000000000001</ele><time>2026-03-29T08:19:56.998Z</time></trkpt><trkpt lat="43.259835934444396" lon="12.242906035778452"><ele>661.8</ele><time>2026-03-29T08:19:57.998Z</time></trkpt><trkpt lat="43.25991208176839" lon="12.242952705924301"><ele>658.2</ele><time>2026-03-29T08:19:58.998Z</time></trkpt><trkpt lat="43.259994479024726" lon="12.24303980867526"><ele>654.5999999999999</ele><time>2026-03-29T08:19:59.998Z</time></trkpt><trkpt lat="43.26008153968283" lon="12.243106663221521"><ele>651.0</ele><time>2026-03-29T08:20:00.998Z</time></trkpt><trkpt lat="43.260160861743024" lon="12.243145531734344"><ele>650.8333333333334</ele><time>2026-03-29T08:20:01.998Z</time></trkpt><trkpt lat="43.260251349043266" lon="12.243187281525145"><ele>650.6666666666666</ele><time>2026-03-29T08:20:02.998Z</time></trkpt><trkpt lat="43.26030467079892" lon="12.243267606458607"><ele>650.5</ele><time>2026-03-29T08:20:03.998Z</time></trkpt><trkpt lat="43.260364061635734" lon="12.243355374805546"><ele>650.3333333333333</ele><time>2026-03-29T08:20:05.998Z</time></trkpt><trkpt lat="43.26045510129762" lon="12.243335417507357"><ele>650.1666666666666</ele><time>2026-03-29T08:20:06.998Z</time></trkpt><trkpt lat="43.2605446983172" lon="12.243336499754228"><ele>650.0</ele><time>2026-03-29T08:20:07.998Z</time></trkpt><trkpt lat="43.26067079371058" lon="12.243372206744775"><ele>648.5</ele><time>2026-03-29T08:20:10Z</time></trkpt><trkpt lat="43.260736800752106" lon="12.243355967991624"><ele>647.0</ele><time>2026-03-29T08:20:11Z</time></trkpt><trkpt lat="43.26079630155205" lon="12.243309238066"><ele>645.5</ele><time>2026-03-29T08:20:12Z</time></trkpt><trkpt lat="43.26088007594006" lon="12.243328764304879"><ele>644.0</ele><time>2026-03-29T08:20:14Z</time></trkpt><trkpt lat="43.260952997644566" lon="12.243462191465444"><ele>642.5</ele><time>2026-03-29T08:20:16Z</time></trkpt><trkpt lat="43.261031604180864" lon="12.24352980555731"><ele>641.0</ele><time>2026-03-29T08:20:17Z</time></trkpt><trkpt lat="43.26110930500544" lon="12.243577620681167"><ele>641.0</ele><time>2026-03-29T08:20:18Z</time></trkpt><trkpt lat="43.26118472134787" lon="12.243605764772223"><ele>641.0</ele><time>2026-03-29T08:20:19Z</time></trkpt><trkpt lat="43.26125065100543" lon="12.24362608725295"><ele>641.0</ele><time>2026-03-29T08:20:20Z</time></trkpt><trkpt lat="43.26131183418582" lon="12.24358543575261"><ele>641.0</ele><time>2026-03-29T08:20:21Z</time></trkpt><trkpt lat="43.26142664029943" lon="12.24355710545011"><ele>641.0</ele><time>2026-03-29T08:20:22Z</time></trkpt><trkpt lat="43.26151157564105" lon="12.243530074190028"><ele>641.0</ele><time>2026-03-29T08:20:23Z</time></trkpt><trkpt lat="43.261596889166995" lon="12.243550985200617"><ele>638.8</ele><time>2026-03-29T08:20:24Z</time></trkpt><trkpt lat="43.261700942770815" lon="12.243570951620951"><ele>636.5999999999999</ele><time>2026-03-29T08:20:25Z</time></trkpt><trkpt lat="43.261799816477385" lon="12.24357480942688"><ele>634.4</ele><time>2026-03-29T08:20:26Z</time></trkpt><trkpt lat="43.261898542204584" lon="12.243609200439087"><ele>632.2</ele><time>2026-03-29T08:20:27Z</time></trkpt><trkpt lat="43.26198537950133" lon="12.243650398316726"><ele>630.0</ele><time>2026-03-29T08:20:28Z</time></trkpt><trkpt lat="43.262080593200224" lon="12.243663833852231"><ele>630.0</ele><time>2026-03-29T08:20:29Z</time></trkpt><trkpt lat="43.262167489657344" lon="12.243703511229466"><ele>630.0</ele><time>2026-03-29T08:20:30Z</time></trkpt><trkpt lat="43.262238380896456" lon="12.243770920774343"><ele>630.0</ele><time>2026-03-29T08:20:31Z</time></trkpt><trkpt lat="43.26234397260827" lon="12.243834275171757"><ele>630.0</ele><time>2026-03-29T08:20:32Z</time></trkpt><trkpt lat="43.26243798871801" lon="12.243866738585965"><ele>630.0</ele><time>2026-03-29T08:20:33Z</time></trkpt><trkpt lat="43.26251370416633" lon="12.243945237874161"><ele>628.0</ele><time>2026-03-29T08:20:34Z</time></trkpt><trkpt lat="43.262629394782486" lon="12.24406375801884"><ele>626.0</ele><time>2026-03-29T08:20:34.999Z</time></trkpt><trkpt lat="43.26275457365307" lon="12.244129116622798"><ele>624.0</ele><time>2026-03-29T08:20:35.999Z</time></trkpt><trkpt lat="43.262834740042244" lon="12.244165784735392"><ele>622.0</ele><time>2026-03-29T08:20:38.999Z</time></trkpt><trkpt lat="43.26283695412713" lon="12.24405121508907"><ele>620.0</ele><time>2026-03-29T08:20:40.999Z</time></trkpt><trkpt lat="43.262864655505425" lon="12.243915434153703"><ele>620.0</ele><time>2026-03-29T08:20:42.999Z</time></trkpt><trkpt lat="43.262888559967145" lon="12.24382399313143"><ele>620.0</ele><time>2026-03-29T08:20:43.999Z</time></trkpt><trkpt lat="43.262889475142465" lon="12.24372586671084"><ele>620.0</ele><time>2026-03-29T08:20:44.999Z</time></trkpt><trkpt lat="43.26287691333319" lon="12.243622825452368"><ele>620.0</ele><time>2026-03-29T08:20:45.999Z</time></trkpt><trkpt lat="43.26287054721234" lon="12.243496730891431"><ele>620.0</ele><time>2026-03-29T08:20:46.999Z</time></trkpt><trkpt lat="43.26285969162474" lon="12.243385068560263"><ele>620.0</ele><time>2026-03-29T08:20:47.999Z</time></trkpt><trkpt lat="43.262838802843675" lon="12.2432642008483"><ele>620.0</ele><time>2026-03-29T08:20:48.999Z</time></trkpt><trkpt lat="43.26282148040737" lon="12.243142175928783"><ele>620.0</ele><time>2026-03-29T08:20:49.999Z</time></trkpt><trkpt lat="43.2628099531248" lon="12.243040909060557"><ele>620.0</ele><time>2026-03-29T08:20:50.999Z</time></trkpt><trkpt lat="43.262811508025166" lon="12.24294058279823"><ele>620.0</ele><time>2026-03-29T08:20:51.999Z</time></trkpt><trkpt lat="43.26284151746757" lon="12.242847620107955"><ele>620.0</ele><time>2026-03-29T08:20:52.999Z</time></trkpt><trkpt lat="43.26285061769247" lon="12.242742689294653"><ele>620.0</ele><time>2026-03-29T08:20:53.999Z</time></trkpt><trkpt lat="43.26284133972277" lon="12.242635869809014"><ele>619.8333333333333</ele><time>2026-03-29T08:20:54.999Z</time></trkpt><trkpt lat="43.26282000459173" lon="12.242528846324637"><ele>619.6666666666666</ele><time>2026-03-29T08:20:55.999Z</time></trkpt><trkpt lat="43.262799409342406" lon="12.242435042461354"><ele>619.5</ele><time>2026-03-29T08:20:56.999Z</time></trkpt><trkpt lat="43.26284328858328" lon="12.242313404206836"><ele>619.3333333333334</ele><time>2026-03-29T08:20:58.999Z</time></trkpt><trkpt lat="43.26286674135116" lon="12.242211856394647"><ele>619.1666666666667</ele><time>2026-03-29T08:20:59.999Z</time></trkpt><trkpt lat="43.26288692008269" lon="12.24209234548101"><ele>619.0</ele><time>2026-03-29T08:21:00.999Z</time></trkpt><trkpt lat="43.26297842616761" lon="12.24198708430813"><ele>617.8333333333334</ele><time>2026-03-29T08:21:02.999Z</time></trkpt><trkpt lat="43.263022924665684" lon="12.241919713606181"><ele>616.6666666666667</ele><time>2026-03-29T08:21:03.999Z</time></trkpt><trkpt lat="43.26305380775712" lon="12.241813363643994"><ele>615.5</ele><time>2026-03-29T08:21:04.999Z</time></trkpt><trkpt lat="43.26305950316982" lon="12.241689229635941"><ele>614.3333333333334</ele><time>2026-03-29T08:21:05.999Z</time></trkpt><trkpt lat="43.263042895724894" lon="12.241581983193646"><ele>613.1666666666666</ele><time>2026-03-29T08:21:06.999Z</time></trkpt><trkpt lat="43.26297568722245" lon="12.241458464268462"><ele>612.0</ele><time>2026-03-29T08:21:07.999Z</time></trkpt><trkpt lat="43.26291048139279" lon="12.24134338894651"><ele>610.2</ele><time>2026-03-29T08:21:08.999Z</time></trkpt><trkpt lat="43.262850959947755" lon="12.241216974427907"><ele>608.4000000000001</ele><time>2026-03-29T08:21:09.999Z</time></trkpt><trkpt lat="43.26283222629377" lon="12.24104461707648"><ele>606.5999999999999</ele><time>2026-03-29T08:21:11.999Z</time></trkpt><trkpt lat="43.26280498322767" lon="12.240964660148292"><ele>604.8</ele><time>2026-03-29T08:21:12.999Z</time></trkpt><trkpt lat="43.262706935434" lon="12.240948796956873"><ele>603.0</ele><time>2026-03-29T08:21:13.999Z</time></trkpt><trkpt lat="43.2625846553839" lon="12.240976461809378"><ele>603.0</ele><time>2026-03-29T08:21:14.999Z</time></trkpt><trkpt lat="43.26244432234582" lon="12.24099992653051"><ele>603.0</ele><time>2026-03-29T08:21:15.999Z</time></trkpt><trkpt lat="43.26234765758335" lon="12.241011694559338"><ele>603.0</ele><time>2026-03-29T08:21:16.999Z</time></trkpt><trkpt lat="43.26226511594596" lon="12.241065356447365"><ele>603.0</ele><time>2026-03-29T08:21:17.999Z</time></trkpt><trkpt lat="43.262203797307556" lon="12.241042319251946"><ele>603.0</ele><time>2026-03-29T08:21:19.999Z</time></trkpt><trkpt lat="43.26218677861588" lon="12.240951705022047"><ele>602.4</ele><time>2026-03-29T08:21:21.999Z</time></trkpt><trkpt lat="43.262194357100455" lon="12.2408559706577"><ele>601.8</ele><time>2026-03-29T08:21:22.999Z</time></trkpt><trkpt lat="43.262134427579404" lon="12.240729833710839"><ele>601.2</ele><time>2026-03-29T08:21:24.999Z</time></trkpt><trkpt lat="43.26215967647608" lon="12.240573810959189"><ele>600.6</ele><time>2026-03-29T08:21:26.999Z</time></trkpt><trkpt lat="43.262166109595064" lon="12.24041508514417"><ele>600.0</ele><time>2026-03-29T08:21:27.999Z</time></trkpt><trkpt lat="43.26212947630281" lon="12.240290275382009"><ele>600.0</ele><time>2026-03-29T08:21:28.999Z</time></trkpt><trkpt lat="43.26212078518177" lon="12.24019786519188"><ele>600.0</ele><time>2026-03-29T08:21:29.999Z</time></trkpt><trkpt lat="43.26209524688827" lon="12.240108051930012"><ele>600.0</ele><time>2026-03-29T08:21:30.999Z</time></trkpt><trkpt lat="43.26204254254465" lon="12.240058899994027"><ele>600.0</ele><time>2026-03-29T08:21:31.999Z</time></trkpt><trkpt lat="43.26200773176529" lon="12.239824900096437"><ele>600.0</ele><time>2026-03-29T08:21:32.999Z</time></trkpt><trkpt lat="43.261930967122545" lon="12.239820664970075"><ele>600.0</ele><time>2026-03-29T08:21:34.998Z</time></trkpt><trkpt lat="43.26179534518069" lon="12.23983942185729"><ele>600.0</ele><time>2026-03-29T08:21:35.998Z</time></trkpt><trkpt lat="43.26171616024957" lon="12.239896153917226"><ele>600.0</ele><time>2026-03-29T08:21:36.998Z</time></trkpt><trkpt lat="43.26165856774102" lon="12.239939417991643"><ele>600.0</ele><time>2026-03-29T08:21:37.998Z</time></trkpt><trkpt lat="43.261585548519214" lon="12.239885400731946"><ele>600.0</ele><time>2026-03-29T08:21:40.998Z</time></trkpt><trkpt lat="43.261484101920665" lon="12.23983460654335"><ele>601.4</ele><time>2026-03-29T08:21:44.998Z</time></trkpt><trkpt lat="43.261427215957575" lon="12.239712897698286"><ele>602.8</ele><time>2026-03-29T08:21:46.998Z</time></trkpt><trkpt lat="43.261365483573464" lon="12.239603899724099"><ele>604.2</ele><time>2026-03-29T08:21:48.998Z</time></trkpt><trkpt lat="43.261317104295195" lon="12.239529482906102"><ele>605.6</ele><time>2026-03-29T08:21:49.998Z</time></trkpt><trkpt lat="43.26125596188522" lon="12.239396844420497"><ele>607.0</ele><time>2026-03-29T08:21:50.998Z</time></trkpt><trkpt lat="43.26122251168007" lon="12.239304698715403"><ele>607.0</ele><time>2026-03-29T08:21:51.998Z</time></trkpt><trkpt lat="43.26118072511706" lon="12.23922876284598"><ele>607.0</ele><time>2026-03-29T08:21:52.998Z</time></trkpt><trkpt lat="43.261200151545964" lon="12.239054828489097"><ele>607.0</ele><time>2026-03-29T08:21:54.998Z</time></trkpt><trkpt lat="43.26126658282044" lon="12.238909872326813"><ele>607.0</ele><time>2026-03-29T08:21:55.998Z</time></trkpt><trkpt lat="43.26129175730674" lon="12.238808426475018"><ele>607.0</ele><time>2026-03-29T08:21:56.998Z</time></trkpt><trkpt lat="43.261285640479684" lon="12.23870601410541"><ele>604.2</ele><time>2026-03-29T08:21:57.998Z</time></trkpt><trkpt lat="43.26127588803399" lon="12.238592579062646"><ele>601.4000000000001</ele><time>2026-03-29T08:21:58.998Z</time></trkpt><trkpt lat="43.261231288232366" lon="12.238470565815236"><ele>598.5999999999999</ele><time>2026-03-29T08:21:59.998Z</time></trkpt><trkpt lat="43.26118226572065" lon="12.238336564902626"><ele>595.8</ele><time>2026-03-29T08:22:00.998Z</time></trkpt><trkpt lat="43.26112422716219" lon="12.238230194448281"><ele>593.0</ele><time>2026-03-29T08:22:01.998Z</time></trkpt><trkpt lat="43.26106283161147" lon="12.238150094286992"><ele>593.0</ele><time>2026-03-29T08:22:02.998Z</time></trkpt><trkpt lat="43.26090602410838" lon="12.238176434784481"><ele>593.0</ele><time>2026-03-29T08:22:03.998Z</time></trkpt><trkpt lat="43.26083510457639" lon="12.238117546561016"><ele>593.0</ele><time>2026-03-29T08:22:04.998Z</time></trkpt><trkpt lat="43.26076980790357" lon="12.238014520274405"><ele>593.0</ele><time>2026-03-29T08:22:05.998Z</time></trkpt><trkpt lat="43.26069045560019" lon="12.237945314710437"><ele>593.0</ele><time>2026-03-29T08:22:06.998Z</time></trkpt><trkpt lat="43.26065152868576" lon="12.237858306718318"><ele>591.8</ele><time>2026-03-29T08:22:07.998Z</time></trkpt><trkpt lat="43.26057690335437" lon="12.237824234098271"><ele>590.5999999999999</ele><time>2026-03-29T08:22:08.998Z</time></trkpt><trkpt lat="43.26050466214045" lon="12.237780302463417"><ele>589.4000000000001</ele><time>2026-03-29T08:22:09.998Z</time></trkpt><trkpt lat="43.26039412149797" lon="12.237727447280921"><ele>588.2</ele><time>2026-03-29T08:22:10.998Z</time></trkpt><trkpt lat="43.26030752608746" lon="12.237710968400815"><ele>587.0</ele><time>2026-03-29T08:22:11.998Z</time></trkpt><trkpt lat="43.260219410865666" lon="12.237668382079752"><ele>587.0</ele><time>2026-03-29T08:22:12.998Z</time></trkpt><trkpt lat="43.26013798766234" lon="12.237594576513334"><ele>587.0</ele><time>2026-03-29T08:22:13.998Z</time></trkpt><trkpt lat="43.26007725775135" lon="12.237525073249412"><ele>587.0</ele><time>2026-03-29T08:22:14.998Z</time></trkpt><trkpt lat="43.26002492414157" lon="12.237292962197529"><ele>587.0</ele><time>2026-03-29T08:22:17Z</time></trkpt><trkpt lat="43.259994246262124" lon="12.237131395451346"><ele>584.6</ele><time>2026-03-29T08:22:18Z</time></trkpt><trkpt lat="43.259955832025796" lon="12.23701576154584"><ele>582.2</ele><time>2026-03-29T08:22:19Z</time></trkpt><trkpt lat="43.25992401698063" lon="12.236854673163368"><ele>579.8</ele><time>2026-03-29T08:22:21Z</time></trkpt><trkpt lat="43.25992478681338" lon="12.236747637776263"><ele>577.4</ele><time>2026-03-29T08:22:22Z</time></trkpt><trkpt lat="43.259970436574584" lon="12.236615695015471"><ele>575.0</ele><time>2026-03-29T08:22:24Z</time></trkpt><trkpt lat="43.26006122543412" lon="12.2366919582088"><ele>575.0</ele><time>2026-03-29T08:22:27Z</time></trkpt><trkpt lat="43.26014821956139" lon="12.236652231896112"><ele>575.0</ele><time>2026-03-29T08:22:29Z</time></trkpt><trkpt lat="43.26023932971822" lon="12.236595058376022"><ele>575.0</ele><time>2026-03-29T08:22:30Z</time></trkpt><trkpt lat="43.26035608675667" lon="12.236597141669648"><ele>575.0</ele><time>2026-03-29T08:22:32Z</time></trkpt><trkpt lat="43.2604037501291" lon="12.236537176452005"><ele>575.0</ele><time>2026-03-29T08:22:34Z</time></trkpt><trkpt lat="43.26037024694795" lon="12.236447781786621"><ele>575.0</ele><time>2026-03-29T08:22:37Z</time></trkpt><trkpt lat="43.26047253516419" lon="12.236061499441236"><ele>572.2</ele><time>2026-03-29T08:22:38.999Z</time></trkpt><trkpt lat="43.26046092088291" lon="12.235937304914568"><ele>569.4</ele><time>2026-03-29T08:22:39.999Z</time></trkpt><trkpt lat="43.26043548798368" lon="12.235818446368226"><ele>566.6</ele><time>2026-03-29T08:22:40.999Z</time></trkpt><trkpt lat="43.26040111291457" lon="12.235709057149005"><ele>563.8</ele><time>2026-03-29T08:22:41.999Z</time></trkpt><trkpt lat="43.26029334112226" lon="12.235624667322373"><ele>561.0</ele><time>2026-03-29T08:22:43.999Z</time></trkpt><trkpt lat="43.26021304401729" lon="12.23564120362068"><ele>561.0</ele><time>2026-03-29T08:22:44.999Z</time></trkpt><trkpt lat="43.260133743785886" lon="12.235669351586822"><ele>561.0</ele><time>2026-03-29T08:22:45.999Z</time></trkpt><trkpt lat="43.26005821313154" lon="12.235678271967812"><ele>561.0</ele><time>2026-03-29T08:22:46.999Z</time></trkpt><trkpt lat="43.25997572576622" lon="12.235665692557149"><ele>561.0</ele><time>2026-03-29T08:22:47.999Z</time></trkpt><trkpt lat="43.259847682483674" lon="12.235622633540354"><ele>561.0</ele><time>2026-03-29T08:22:49.999Z</time></trkpt><trkpt lat="43.259839431012075" lon="12.235518086385202"><ele>561.0</ele><time>2026-03-29T08:22:53.999Z</time></trkpt><trkpt lat="43.25988315814266" lon="12.23542836432027"><ele>557.2</ele><time>2026-03-29T08:22:54.999Z</time></trkpt><trkpt lat="43.25993627991915" lon="12.23534125748633"><ele>553.4000000000001</ele><time>2026-03-29T08:22:55.999Z</time></trkpt><trkpt lat="43.25999119590962" lon="12.235240266948086"><ele>549.6</ele><time>2026-03-29T08:22:56.999Z</time></trkpt><trkpt lat="43.260029866487045" lon="12.235137575044154"><ele>545.8000000000001</ele><time>2026-03-29T08:22:57.999Z</time></trkpt><trkpt lat="43.260073067201645" lon="12.235025819257649"><ele>542.0</ele><time>2026-03-29T08:22:59.999Z</time></trkpt><trkpt lat="43.26000037199807" lon="12.234875710462962"><ele>542.0</ele><time>2026-03-29T08:23:01.999Z</time></trkpt><trkpt lat="43.25993678454635" lon="12.234827386208815"><ele>542.0</ele><time>2026-03-29T08:23:02.999Z</time></trkpt><trkpt lat="43.25987345092786" lon="12.234816135192473"><ele>542.0</ele><time>2026-03-29T08:23:03.999Z</time></trkpt><trkpt lat="43.259736211361925" lon="12.234932595835257"><ele>542.0</ele><time>2026-03-29T08:23:04.999Z</time></trkpt><trkpt lat="43.259637426753336" lon="12.234997020284581"><ele>542.0</ele><time>2026-03-29T08:23:05.999Z</time></trkpt><trkpt lat="43.259498164917034" lon="12.235073078457992"><ele>541.75</ele><time>2026-03-29T08:23:06.999Z</time></trkpt><trkpt lat="43.25937157988574" lon="12.235232040960216"><ele>541.5</ele><time>2026-03-29T08:23:07.999Z</time></trkpt><trkpt lat="43.259228178820216" lon="12.235302013188692"><ele>541.25</ele><time>2026-03-29T08:23:08.999Z</time></trkpt><trkpt lat="43.259125324562056" lon="12.235328169591016"><ele>541.0</ele><time>2026-03-29T08:23:09.999Z</time></trkpt><trkpt lat="43.259063203863086" lon="12.235360933892439"><ele>541.0</ele><time>2026-03-29T08:23:11.999Z</time></trkpt><trkpt lat="43.258987838093304" lon="12.235375104947336"><ele>541.0</ele><time>2026-03-29T08:23:13.999Z</time></trkpt><trkpt lat="43.2589030032601" lon="12.235304128845817"><ele>541.0</ele><time>2026-03-29T08:23:16.999Z</time></trkpt><trkpt lat="43.258885866036415" lon="12.235212960367228"><ele>541.0</ele><time>2026-03-29T08:23:17.999Z</time></trkpt><trkpt lat="43.25889312009181" lon="12.235066679576885"><ele>541.0</ele><time>2026-03-29T08:23:18.999Z</time></trkpt><trkpt lat="43.258893663333886" lon="12.234882429201207"><ele>540.2</ele><time>2026-03-29T08:23:19.999Z</time></trkpt><trkpt lat="43.25884461911104" lon="12.234777104209828"><ele>539.4000000000001</ele><time>2026-03-29T08:23:20.999Z</time></trkpt><trkpt lat="43.25877057571318" lon="12.23469840404775"><ele>538.6</ele><time>2026-03-29T08:23:21.999Z</time></trkpt><trkpt lat="43.258702689601336" lon="12.234661781341709"><ele>537.8000000000001</ele><time>2026-03-29T08:23:22.999Z</time></trkpt><trkpt lat="43.25859394275774" lon="12.234604527672253"><ele>537.0</ele><time>2026-03-29T08:23:23.999Z</time></trkpt><trkpt lat="43.258495240937414" lon="12.234548027854862"><ele>537.0</ele><time>2026-03-29T08:23:24.999Z</time></trkpt><trkpt lat="43.258421305685005" lon="12.234551510855626"><ele>537.0</ele><time>2026-03-29T08:23:25.999Z</time></trkpt><trkpt lat="43.25830803084237" lon="12.234538052445027"><ele>537.0</ele><time>2026-03-29T08:23:27.999Z</time></trkpt><trkpt lat="43.258165072015004" lon="12.23442494123641"><ele>537.0</ele><time>2026-03-29T08:23:29.999Z</time></trkpt><trkpt lat="43.25807072365506" lon="12.234405087200688"><ele>537.0</ele><time>2026-03-29T08:23:30.999Z</time></trkpt><trkpt lat="43.25801119760722" lon="12.234324428889645"><ele>538.0</ele><time>2026-03-29T08:23:31.999Z</time></trkpt><trkpt lat="43.25793784136387" lon="12.234246710849005"><ele>539.0</ele><time>2026-03-29T08:23:32.999Z</time></trkpt><trkpt lat="43.25788230991803" lon="12.234117121966609"><ele>540.0</ele><time>2026-03-29T08:23:34.999Z</time></trkpt><trkpt lat="43.25785502363513" lon="12.233976306865936"><ele>541.0</ele><time>2026-03-29T08:23:36.999Z</time></trkpt><trkpt lat="43.25781611311947" lon="12.23389124942173"><ele>542.0</ele><time>2026-03-29T08:23:38.998Z</time></trkpt><trkpt lat="43.257771767972045" lon="12.23382238871846"><ele>543.0</ele><time>2026-03-29T08:23:39.998Z</time></trkpt><trkpt lat="43.257665433810324" lon="12.233744047325306"><ele>543.0</ele><time>2026-03-29T08:23:41.998Z</time></trkpt><trkpt lat="43.25759279809599" lon="12.233740484211653"><ele>543.0</ele><time>2026-03-29T08:23:44.998Z</time></trkpt><trkpt lat="43.25751543306139" lon="12.233713187083692"><ele>543.0</ele><time>2026-03-29T08:23:46.998Z</time></trkpt><trkpt lat="43.25730373464216" lon="12.233538118603697"><ele>543.0</ele><time>2026-03-29T08:23:48.998Z</time></trkpt><trkpt lat="43.25725684070339" lon="12.233468295512775"><ele>543.8333333333334</ele><time>2026-03-29T08:23:49.998Z</time></trkpt><trkpt lat="43.25723358698759" lon="12.233379186253785"><ele>544.6666666666666</ele><time>2026-03-29T08:23:50.998Z</time></trkpt><trkpt lat="43.25723154944586" lon="12.233283914884867"><ele>545.5</ele><time>2026-03-29T08:23:51.998Z</time></trkpt><trkpt lat="43.25723265167934" lon="12.233169656060399"><ele>546.3333333333333</ele><time>2026-03-29T08:23:52.998Z</time></trkpt><trkpt lat="43.25722245967188" lon="12.233082922778955"><ele>547.1666666666666</ele><time>2026-03-29T08:23:53.998Z</time></trkpt><trkpt lat="43.25717359392644" lon="12.232997447932783"><ele>548.0</ele><time>2026-03-29T08:23:55.998Z</time></trkpt><trkpt lat="43.25714769468439" lon="12.233172115594032"><ele>550.1999999999999</ele><time>2026-03-29T08:23:57.998Z</time></trkpt><trkpt lat="43.257130316216745" lon="12.233298248155261"><ele>552.4</ele><time>2026-03-29T08:23:59.998Z</time></trkpt><trkpt lat="43.257072926846085" lon="12.233424634780304"><ele>554.5999999999999</ele><time>2026-03-29T08:24:01.998Z</time></trkpt><trkpt lat="43.256973490731156" lon="12.23352067912459"><ele>556.8</ele><time>2026-03-29T08:24:03.998Z</time></trkpt><trkpt lat="43.25692503394865" lon="12.233577283303687"><ele>559.0</ele><time>2026-03-29T08:24:04.998Z</time></trkpt><trkpt lat="43.25684018112148" lon="12.233680910904827"><ele>559.0</ele><time>2026-03-29T08:24:06.998Z</time></trkpt><trkpt lat="43.256757457634215" lon="12.233717974622195"><ele>559.0</ele><time>2026-03-29T08:24:09.998Z</time></trkpt><trkpt lat="43.25665424283804" lon="12.23377463092035"><ele>559.0</ele><time>2026-03-29T08:24:11.998Z</time></trkpt><trkpt lat="43.256592863188374" lon="12.233807798431151"><ele>559.0</ele><time>2026-03-29T08:24:12.998Z</time></trkpt><trkpt lat="43.25653329029502" lon="12.233859125285957"><ele>559.0</ele><time>2026-03-29T08:24:13.998Z</time></trkpt><trkpt lat="43.25645706485261" lon="12.233956375464084"><ele>559.0</ele><time>2026-03-29T08:24:15.998Z</time></trkpt><trkpt lat="43.25635333795871" lon="12.23401343030858"><ele>562.0</ele><time>2026-03-29T08:24:30Z</time></trkpt><trkpt lat="43.25626754923453" lon="12.234036007839146"><ele>565.0</ele><time>2026-03-29T08:24:32Z</time></trkpt><trkpt lat="43.25617847205132" lon="12.234110439516312"><ele>568.0</ele><time>2026-03-29T08:24:34Z</time></trkpt><trkpt lat="43.25615574624661" lon="12.234228544326385"><ele>571.0</ele><time>2026-03-29T08:24:36Z</time></trkpt><trkpt lat="43.2561846361135" lon="12.234309740806754"><ele>574.0</ele><time>2026-03-29T08:24:37Z</time></trkpt><trkpt lat="43.25620932776233" lon="12.234408907976643"><ele>577.0</ele><time>2026-03-29T08:24:38Z</time></trkpt><trkpt lat="43.25627265673029" lon="12.234507301191352"><ele>577.0</ele><time>2026-03-29T08:24:39Z</time></trkpt><trkpt lat="43.25634196651484" lon="12.234594876245923"><ele>577.0</ele><time>2026-03-29T08:24:39.999Z</time></trkpt><trkpt lat="43.25632886741595" lon="12.234737642778923"><ele>577.0</ele><time>2026-03-29T08:24:41.999Z</time></trkpt><trkpt lat="43.25628007237936" lon="12.234797938765636"><ele>577.0</ele><time>2026-03-29T08:24:45.999Z</time></trkpt><trkpt lat="43.25631937732437" lon="12.23488370780296"><ele>577.0</ele><time>2026-03-29T08:24:48.999Z</time></trkpt><trkpt lat="43.25634753676301" lon="12.234993080752645"><ele>577.0</ele><time>2026-03-29T08:24:51.999Z</time></trkpt><trkpt lat="43.25634145678516" lon="12.235287950487942"><ele>579.1666666666667</ele><time>2026-03-29T08:24:54.999Z</time></trkpt><trkpt lat="43.256298970860364" lon="12.235386302382812"><ele>581.3333333333334</ele><time>2026-03-29T08:24:55.999Z</time></trkpt><trkpt lat="43.25627659140922" lon="12.235480584846215"><ele>583.5</ele><time>2026-03-29T08:24:56.999Z</time></trkpt><trkpt lat="43.256285539316266" lon="12.235638249537569"><ele>585.6666666666666</ele><time>2026-03-29T08:24:58.999Z</time></trkpt><trkpt lat="43.25621911793003" lon="12.23570058446847"><ele>587.8333333333333</ele><time>2026-03-29T08:25:01.999Z</time></trkpt><trkpt lat="43.2561919200618" lon="12.235789536559585"><ele>590.0</ele><time>2026-03-29T08:25:03.999Z</time></trkpt><trkpt lat="43.25618360077866" lon="12.235921837484709"><ele>593.2</ele><time>2026-03-29T08:25:05.999Z</time></trkpt><trkpt lat="43.25615146711805" lon="12.23606753461181"><ele>596.4</ele><time>2026-03-29T08:25:07.999Z</time></trkpt><trkpt lat="43.25610007962788" lon="12.236214824732942"><ele>599.6</ele><time>2026-03-29T08:25:09.999Z</time></trkpt><trkpt lat="43.256055346143626" lon="12.236300945990562"><ele>602.8</ele><time>2026-03-29T08:25:10.999Z</time></trkpt><trkpt lat="43.25600097707238" lon="12.236382493973187"><ele>606.0</ele><time>2026-03-29T08:25:11.999Z</time></trkpt><trkpt lat="43.25592981839456" lon="12.236452152869726"><ele>606.0</ele><time>2026-03-29T08:25:12.999Z</time></trkpt><trkpt lat="43.25586455957259" lon="12.236495614347637"><ele>606.0</ele><time>2026-03-29T08:25:13.999Z</time></trkpt><trkpt lat="43.255772124169056" lon="12.236435839533403"><ele>606.0</ele><time>2026-03-29T08:25:15.999Z</time></trkpt><trkpt lat="43.25565660173636" lon="12.236415679697927"><ele>606.0</ele><time>2026-03-29T08:25:17.999Z</time></trkpt><trkpt lat="43.255593063768835" lon="12.236370210354302"><ele>606.0</ele><time>2026-03-29T08:25:19.999Z</time></trkpt><trkpt lat="43.25550211089145" lon="12.236436332475714"><ele>609.8</ele><time>2026-03-29T08:25:21.999Z</time></trkpt><trkpt lat="43.25545506888127" lon="12.236503787017945"><ele>613.6</ele><time>2026-03-29T08:25:22.999Z</time></trkpt><trkpt lat="43.2553818004079" lon="12.23664291652256"><ele>617.4</ele><time>2026-03-29T08:25:24.999Z</time></trkpt><trkpt lat="43.25537806223837" lon="12.236766133049349"><ele>621.2</ele><time>2026-03-29T08:25:25.999Z</time></trkpt><trkpt lat="43.255373199503794" lon="12.236915680683223"><ele>625.0</ele><time>2026-03-29T08:25:26.999Z</time></trkpt><trkpt lat="43.255364950480285" lon="12.237051696853657"><ele>625.0</ele><time>2026-03-29T08:25:27.999Z</time></trkpt><trkpt lat="43.25541246011064" lon="12.237283228732757"><ele>625.0</ele><time>2026-03-29T08:25:29.999Z</time></trkpt><trkpt lat="43.25539866144689" lon="12.237433526008818"><ele>625.0</ele><time>2026-03-29T08:25:31.999Z</time></trkpt><trkpt lat="43.255334690677444" lon="12.237473752023098"><ele>625.0</ele><time>2026-03-29T08:25:35.999Z</time></trkpt><trkpt lat="43.25528221019529" lon="12.23756451744495"><ele>625.0</ele><time>2026-03-29T08:25:38.999Z</time></trkpt><trkpt lat="43.25522196436275" lon="12.237608812641325"><ele>626.8</ele><time>2026-03-29T08:25:39.999Z</time></trkpt><trkpt lat="43.25516470897919" lon="12.237666905519431"><ele>628.6</ele><time>2026-03-29T08:25:40.998Z</time></trkpt><trkpt lat="43.255077235129924" lon="12.237708091094252"><ele>630.4</ele><time>2026-03-29T08:25:41.998Z</time></trkpt><trkpt lat="43.255029680388006" lon="12.237789734656252"><ele>632.2</ele><time>2026-03-29T08:25:42.998Z</time></trkpt><trkpt lat="43.254915002101136" lon="12.23790477379535"><ele>634.0</ele><time>2026-03-29T08:25:44.998Z</time></trkpt><trkpt lat="43.254846905694" lon="12.237980493828823"><ele>634.0</ele><time>2026-03-29T08:25:45.998Z</time></trkpt><trkpt lat="43.25478798299156" lon="12.23805988202418"><ele>634.0</ele><time>2026-03-29T08:25:46.998Z</time></trkpt><trkpt lat="43.25475362772264" lon="12.23817721021112"><ele>634.0</ele><time>2026-03-29T08:25:47.998Z</time></trkpt><trkpt lat="43.2547233968019" lon="12.238290991431496"><ele>634.0</ele><time>2026-03-29T08:25:48.998Z</time></trkpt><trkpt lat="43.25469672519405" lon="12.238390602330057"><ele>634.0</ele><time>2026-03-29T08:25:49.998Z</time></trkpt><trkpt lat="43.25465446500992" lon="12.238539458109168"><ele>633.6</ele><time>2026-03-29T08:25:50.998Z</time></trkpt><trkpt lat="43.25462229129006" lon="12.23869060688399"><ele>633.2</ele><time>2026-03-29T08:25:51.998Z</time></trkpt><trkpt lat="43.25459755883504" lon="12.238810211480795"><ele>632.8000000000001</ele><time>2026-03-29T08:25:52.998Z</time></trkpt><trkpt lat="43.25455697450286" lon="12.238936250054982"><ele>632.4</ele><time>2026-03-29T08:25:53.998Z</time></trkpt><trkpt lat="43.25451783830029" lon="12.239048041846697"><ele>632.0</ele><time>2026-03-29T08:25:54.998Z</time></trkpt><trkpt lat="43.254516974730876" lon="12.239142147941049"><ele>633.1666666666666</ele><time>2026-03-29T08:25:55.998Z</time></trkpt><trkpt lat="43.254509928138376" lon="12.239240424085358"><ele>634.3333333333333</ele><time>2026-03-29T08:25:56.998Z</time></trkpt><trkpt lat="43.25449867391851" lon="12.239340988734805"><ele>635.5</ele><time>2026-03-29T08:25:57.998Z</time></trkpt><trkpt lat="43.25446401843952" lon="12.23948032232889"><ele>636.6666666666666</ele><time>2026-03-29T08:25:59.998Z</time></trkpt><trkpt lat="43.25437850332343" lon="12.239520186492229"><ele>637.8333333333334</ele><time>2026-03-29T08:26:01.998Z</time></trkpt><trkpt lat="43.254286768253465" lon="12.239532489054989"><ele>639.0</ele><time>2026-03-29T08:26:03.998Z</time></trkpt><trkpt lat="43.25420088806737" lon="12.239520182891155"><ele>639.0</ele><time>2026-03-29T08:26:06.998Z</time></trkpt><trkpt lat="43.254129492743644" lon="12.239564158936734"><ele>639.0</ele><time>2026-03-29T08:26:08.998Z</time></trkpt><trkpt lat="43.254049910336356" lon="12.23956541039754"><ele>639.0</ele><time>2026-03-29T08:26:09.998Z</time></trkpt><trkpt lat="43.25394587648734" lon="12.239564429923105"><ele>639.0</ele><time>2026-03-29T08:26:10.998Z</time></trkpt><trkpt lat="43.253876345434435" lon="12.23948805147052"><ele>639.0</ele><time>2026-03-29T08:26:12.998Z</time></trkpt><trkpt lat="43.25384253160851" lon="12.239409344981187"><ele>639.0</ele><time>2026-03-29T08:26:13.998Z</time></trkpt><trkpt lat="43.2537524992896" lon="12.239363860093846"><ele>639.5</ele><time>2026-03-29T08:26:15.998Z</time></trkpt><trkpt lat="43.253688963083874" lon="12.23940623974837"><ele>640.0</ele><time>2026-03-29T08:26:18.998Z</time></trkpt><trkpt lat="43.253560801501614" lon="12.239417770744458"><ele>640.5</ele><time>2026-03-29T08:26:19.998Z</time></trkpt><trkpt lat="43.25350002622706" lon="12.23945897827468"><ele>641.0</ele><time>2026-03-29T08:26:20.998Z</time></trkpt><trkpt lat="43.25344012570108" lon="12.239508594369408"><ele>641.5</ele><time>2026-03-29T08:26:21.998Z</time></trkpt><trkpt lat="43.253384241973855" lon="12.239552243920745"><ele>642.0</ele><time>2026-03-29T08:26:22.998Z</time></trkpt><trkpt lat="43.25327678897907" lon="12.239612617509367"><ele>642.0</ele><time>2026-03-29T08:26:24.998Z</time></trkpt><trkpt lat="43.25319800608239" lon="12.239689794498684"><ele>642.0</ele><time>2026-03-29T08:26:26.998Z</time></trkpt><trkpt lat="43.25312883230959" lon="12.239728433533518"><ele>642.0</ele><time>2026-03-29T08:26:29Z</time></trkpt><trkpt lat="43.25304137639158" lon="12.239703959591619"><ele>642.0</ele><time>2026-03-29T08:26:31Z</time></trkpt><trkpt lat="43.25291934597551" lon="12.239642877995493"><ele>642.0</ele><time>2026-03-29T08:26:33Z</time></trkpt><trkpt lat="43.25285220094797" lon="12.239625337032816"><ele>641.6666666666666</ele><time>2026-03-29T08:26:34Z</time></trkpt><trkpt lat="43.25278004530348" lon="12.239631074435872"><ele>641.3333333333334</ele><time>2026-03-29T08:26:35Z</time></trkpt><trkpt lat="43.252707178502014" lon="12.239642876552182"><ele>641.0</ele><time>2026-03-29T08:26:36Z</time></trkpt><trkpt lat="43.25263495234476" lon="12.239658074397347"><ele>640.6666666666667</ele><time>2026-03-29T08:26:37Z</time></trkpt><trkpt lat="43.25255531078371" lon="12.23966630254973"><ele>640.3333333333334</ele><time>2026-03-29T08:26:38Z</time></trkpt><trkpt lat="43.252425454815175" lon="12.239657501925779"><ele>640.0</ele><time>2026-03-29T08:26:39Z</time></trkpt><trkpt lat="43.25233318543989" lon="12.239604686261764"><ele>641.3333333333334</ele><time>2026-03-29T08:26:40Z</time></trkpt><trkpt lat="43.252251413459504" lon="12.239557956403049"><ele>642.6666666666667</ele><time>2026-03-29T08:26:41Z</time></trkpt><trkpt lat="43.25216487774079" lon="12.239537959677751"><ele>644.0</ele><time>2026-03-29T08:26:42Z</time></trkpt><trkpt lat="43.25208415528705" lon="12.239540316847545"><ele>645.3333333333334</ele><time>2026-03-29T08:26:42.999Z</time></trkpt><trkpt lat="43.252005822873734" lon="12.239524190758782"><ele>646.6666666666666</ele><time>2026-03-29T08:26:43.999Z</time></trkpt><trkpt lat="43.25192029793603" lon="12.239495814279252"><ele>648.0</ele><time>2026-03-29T08:26:44.999Z</time></trkpt><trkpt lat="43.25182899220418" lon="12.239459017987505"><ele>648.0</ele><time>2026-03-29T08:26:45.999Z</time></trkpt><trkpt lat="43.251728029518766" lon="12.239428012913725"><ele>648.0</ele><time>2026-03-29T08:26:46.999Z</time></trkpt><trkpt lat="43.251637322017096" lon="12.239410909020021"><ele>648.0</ele><time>2026-03-29T08:26:47.999Z</time></trkpt><trkpt lat="43.25157105293121" lon="12.23939431136715"><ele>648.0</ele><time>2026-03-29T08:26:48.999Z</time></trkpt><trkpt lat="43.25148699344431" lon="12.23925939597056"><ele>648.0</ele><time>2026-03-29T08:26:50.999Z</time></trkpt><trkpt lat="43.2514442462215" lon="12.239143895607967"><ele>648.0</ele><time>2026-03-29T08:26:51.999Z</time></trkpt><trkpt lat="43.251372342088935" lon="12.23906765080905"><ele>648.0</ele><time>2026-03-29T08:26:53.999Z</time></trkpt><trkpt lat="43.251341429209475" lon="12.238868917924801"><ele>648.0</ele><time>2026-03-29T08:26:55.999Z</time></trkpt><trkpt lat="43.251315676476985" lon="12.238750652974547"><ele>648.0</ele><time>2026-03-29T08:26:56.999Z</time></trkpt><trkpt lat="43.251262124002764" lon="12.238678823005031"><ele>648.0</ele><time>2026-03-29T08:26:57.999Z</time></trkpt><trkpt lat="43.25120718346856" lon="12.23861797540064"><ele>648.0</ele><time>2026-03-29T08:26:58.999Z</time></trkpt><trkpt lat="43.25113670229587" lon="12.23857622022412"><ele>648.0</ele><time>2026-03-29T08:26:59.999Z</time></trkpt><trkpt lat="43.25104396285108" lon="12.238520559083657"><ele>648.0</ele><time>2026-03-29T08:27:00.999Z</time></trkpt><trkpt lat="43.25091844126093" lon="12.238465199267441"><ele>648.0</ele><time>2026-03-29T08:27:01.999Z</time></trkpt><trkpt lat="43.25083534159786" lon="12.238441903444917"><ele>648.0</ele><time>2026-03-29T08:27:02.999Z</time></trkpt><trkpt lat="43.2507284901672" lon="12.238435876254087"><ele>648.25</ele><time>2026-03-29T08:27:03.999Z</time></trkpt><trkpt lat="43.25058103534567" lon="12.238448883987138"><ele>648.5</ele><time>2026-03-29T08:27:04.999Z</time></trkpt><trkpt lat="43.25045215243712" lon="12.23845001992536"><ele>648.75</ele><time>2026-03-29T08:27:05.999Z</time></trkpt><trkpt lat="43.250356357337296" lon="12.238466100230973"><ele>649.0</ele><time>2026-03-29T08:27:06.999Z</time></trkpt><trkpt lat="43.25024973896544" lon="12.238484061580369"><ele>649.0</ele><time>2026-03-29T08:27:07.999Z</time></trkpt><trkpt lat="43.25013588853969" lon="12.238496426129071"><ele>649.0</ele><time>2026-03-29T08:27:08.999Z</time></trkpt><trkpt lat="43.25001616150932" lon="12.238498848463285"><ele>649.0</ele><time>2026-03-29T08:27:09.999Z</time></trkpt><trkpt lat="43.24991387622008" lon="12.23850414750137"><ele>649.0</ele><time>2026-03-29T08:27:10.999Z</time></trkpt><trkpt lat="43.249824117183124" lon="12.238483958825583"><ele>649.0</ele><time>2026-03-29T08:27:11.999Z</time></trkpt><trkpt lat="43.24974454700417" lon="12.238431337455765"><ele>648.6</ele><time>2026-03-29T08:27:12.999Z</time></trkpt><trkpt lat="43.24966706976082" lon="12.238373902657676"><ele>648.2</ele><time>2026-03-29T08:27:13.999Z</time></trkpt><trkpt lat="43.249582222587314" lon="12.238327719001271"><ele>647.8000000000001</ele><time>2026-03-29T08:27:14.999Z</time></trkpt><trkpt lat="43.249489807087805" lon="12.238223858614518"><ele>647.4000000000001</ele><time>2026-03-29T08:27:15.999Z</time></trkpt><trkpt lat="43.2494144283071" lon="12.238093966391258"><ele>647.0</ele><time>2026-03-29T08:27:16.999Z</time></trkpt><trkpt lat="43.24933152266529" lon="12.238029690048476"><ele>647.0</ele><time>2026-03-29T08:27:17.999Z</time></trkpt><trkpt lat="43.249291893422395" lon="12.237932844413894"><ele>647.0</ele><time>2026-03-29T08:27:18.999Z</time></trkpt><trkpt lat="43.24927492134683" lon="12.237814422604881"><ele>647.0</ele><time>2026-03-29T08:27:19.999Z</time></trkpt><trkpt lat="43.24921199607473" lon="12.237700874796484"><ele>647.0</ele><time>2026-03-29T08:27:20.999Z</time></trkpt><trkpt lat="43.249127552938255" lon="12.237552607846698"><ele>647.0</ele><time>2026-03-29T08:27:21.999Z</time></trkpt><trkpt lat="43.24904307804604" lon="12.237415446196609"><ele>648.2</ele><time>2026-03-29T08:27:22.999Z</time></trkpt><trkpt lat="43.24899060661061" lon="12.237267189780031"><ele>649.4000000000001</ele><time>2026-03-29T08:27:23.999Z</time></trkpt><trkpt lat="43.248964678654815" lon="12.237119135270321"><ele>650.5999999999999</ele><time>2026-03-29T08:27:24.999Z</time></trkpt><trkpt lat="43.248946182096404" lon="12.236977513513933"><ele>651.8</ele><time>2026-03-29T08:27:25.999Z</time></trkpt><trkpt lat="43.24893988088668" lon="12.236826136534887"><ele>653.0</ele><time>2026-03-29T08:27:26.999Z</time></trkpt><trkpt lat="43.248933589632074" lon="12.23667593615235"><ele>653.0</ele><time>2026-03-29T08:27:27.999Z</time></trkpt><trkpt lat="43.24891527984865" lon="12.236560673979547"><ele>653.0</ele><time>2026-03-29T08:27:28.999Z</time></trkpt><trkpt lat="43.24887402228359" lon="12.23643135430372"><ele>653.0</ele><time>2026-03-29T08:27:29.999Z</time></trkpt><trkpt lat="43.24881457711891" lon="12.236283249250398"><ele>653.0</ele><time>2026-03-29T08:27:30.999Z</time></trkpt><trkpt lat="43.24876337725135" lon="12.236163144216752"><ele>653.0</ele><time>2026-03-29T08:27:31.999Z</time></trkpt><trkpt lat="43.24871016445781" lon="12.236048629162244"><ele>650.4</ele><time>2026-03-29T08:27:32.999Z</time></trkpt><trkpt lat="43.24866361038481" lon="12.235949955247005"><ele>647.8</ele><time>2026-03-29T08:27:33.999Z</time></trkpt><trkpt lat="43.24859269049995" lon="12.235851121546586"><ele>645.2</ele><time>2026-03-29T08:27:34.999Z</time></trkpt><trkpt lat="43.2484991873018" lon="12.235766378966298"><ele>642.6</ele><time>2026-03-29T08:27:35.999Z</time></trkpt><trkpt lat="43.24840615975686" lon="12.235682775079686"><ele>640.0</ele><time>2026-03-29T08:27:36.999Z</time></trkpt><trkpt lat="43.2483348191899" lon="12.235627253938565"><ele>637.25</ele><time>2026-03-29T08:27:37.999Z</time></trkpt><trkpt lat="43.24825267860561" lon="12.23555075981028"><ele>634.5</ele><time>2026-03-29T08:27:39.999Z</time></trkpt><trkpt lat="43.248183817215505" lon="12.235449025545329"><ele>631.75</ele><time>2026-03-29T08:27:41.998Z</time></trkpt><trkpt lat="43.248114636395194" lon="12.235357355305402"><ele>629.0</ele><time>2026-03-29T08:27:43.998Z</time></trkpt><trkpt lat="43.24813077833661" lon="12.235128211527218"><ele>627.25</ele><time>2026-03-29T08:27:44.998Z</time></trkpt><trkpt lat="43.24811513334227" lon="12.23500959632227"><ele>625.5</ele><time>2026-03-29T08:27:45.998Z</time></trkpt><trkpt lat="43.24807192703948" lon="12.234909248904442"><ele>623.75</ele><time>2026-03-29T08:27:46.998Z</time></trkpt><trkpt lat="43.24800759414765" lon="12.234840414113286"><ele>622.0</ele><time>2026-03-29T08:27:47.998Z</time></trkpt><trkpt lat="43.24782349045822" lon="12.23493489147799"><ele>622.0</ele><time>2026-03-29T08:27:48.998Z</time></trkpt><trkpt lat="43.2477654002118" lon="12.234858047655882"><ele>622.0</ele><time>2026-03-29T08:27:49.998Z</time></trkpt><trkpt lat="43.247658313058324" lon="12.234822206654922"><ele>622.0</ele><time>2026-03-29T08:27:51.998Z</time></trkpt><trkpt lat="43.24753216352901" lon="12.234781002723958"><ele>622.0</ele><time>2026-03-29T08:27:52.998Z</time></trkpt><trkpt lat="43.24741505223964" lon="12.234686118924266"><ele>623.0</ele><time>2026-03-29T08:27:53.998Z</time></trkpt><trkpt lat="43.24732248404154" lon="12.234574875836865"><ele>624.0</ele><time>2026-03-29T08:27:54.998Z</time></trkpt><trkpt lat="43.24725561462228" lon="12.234472657953035"><ele>625.0</ele><time>2026-03-29T08:27:55.998Z</time></trkpt><trkpt lat="43.247210944979244" lon="12.234396181403735"><ele>626.0</ele><time>2026-03-29T08:27:56.998Z</time></trkpt><trkpt lat="43.24715007390306" lon="12.23428210767918"><ele>627.0</ele><time>2026-03-29T08:27:57.998Z</time></trkpt><trkpt lat="43.24708450905123" lon="12.234136538418138"><ele>619.6666666666666</ele><time>2026-03-29T08:27:58.998Z</time></trkpt><trkpt lat="43.24702513272037" lon="12.233895947901404"><ele>612.3333333333333</ele><time>2026-03-29T08:27:59.998Z</time></trkpt><trkpt lat="43.247011491861635" lon="12.2336972804307"><ele>605.0</ele><time>2026-03-29T08:28:00.998Z</time></trkpt><trkpt lat="43.24699597372615" lon="12.233513087792648"><ele>605.0</ele><time>2026-03-29T08:28:02.998Z</time></trkpt><trkpt lat="43.246980786822725" lon="12.233415345287904"><ele>605.0</ele><time>2026-03-29T08:28:03.998Z</time></trkpt><trkpt lat="43.2469593770766" lon="12.233305756304091"><ele>605.0</ele><time>2026-03-29T08:28:04.998Z</time></trkpt><trkpt lat="43.246935148391714" lon="12.2332243450062"><ele>605.0</ele><time>2026-03-29T08:28:05.999Z</time></trkpt><trkpt lat="43.24690624975594" lon="12.233127330474526"><ele>605.0</ele><time>2026-03-29T08:28:06.999Z</time></trkpt><trkpt lat="43.24687600097601" lon="12.233030909612527"><ele>605.0</ele><time>2026-03-29T08:28:07.999Z</time></trkpt><trkpt lat="43.24684814379793" lon="12.232941740060232"><ele>605.0</ele><time>2026-03-29T08:28:08.999Z</time></trkpt><trkpt lat="43.246820197842176" lon="12.232859536640849"><ele>606.1666666666666</ele><time>2026-03-29T08:28:09.999Z</time></trkpt><trkpt lat="43.24679052912705" lon="12.232772265701033"><ele>607.3333333333333</ele><time>2026-03-29T08:28:10.999Z</time></trkpt><trkpt lat="43.24676102453071" lon="12.232685477521603"><ele>608.5</ele><time>2026-03-29T08:28:11.999Z</time></trkpt><trkpt lat="43.246725798346446" lon="12.232581859223362"><ele>609.6666666666666</ele><time>2026-03-29T08:28:12.999Z</time></trkpt><trkpt lat="43.246684889920544" lon="12.232461526542394"><ele>610.8333333333334</ele><time>2026-03-29T08:28:13.999Z</time></trkpt><trkpt lat="43.24664479426533" lon="12.232348555915072"><ele>612.0</ele><time>2026-03-29T08:28:14.999Z</time></trkpt><trkpt lat="43.24660319221512" lon="12.232232450827224"><ele>612.6666666666666</ele><time>2026-03-29T08:28:15.999Z</time></trkpt><trkpt lat="43.24656501109521" lon="12.23212557664825"><ele>613.3333333333334</ele><time>2026-03-29T08:28:16.999Z</time></trkpt><trkpt lat="43.24652597661531" lon="12.232014417447171"><ele>614.0</ele><time>2026-03-29T08:28:17.999Z</time></trkpt><trkpt lat="43.24648650344041" lon="12.231890721425325"><ele>614.6666666666667</ele><time>2026-03-29T08:28:18.999Z</time></trkpt><trkpt lat="43.2464573450057" lon="12.231779559633074"><ele>615.3333333333334</ele><time>2026-03-29T08:28:19.999Z</time></trkpt><trkpt lat="43.2464276941084" lon="12.231683753521397"><ele>616.0</ele><time>2026-03-29T08:28:20.999Z</time></trkpt><trkpt lat="43.24639871953755" lon="12.231606842548022"><ele>612.4</ele><time>2026-03-29T08:28:21.999Z</time></trkpt><trkpt lat="43.246329053580745" lon="12.231440483841526"><ele>608.8</ele><time>2026-03-29T08:28:23.999Z</time></trkpt><trkpt lat="43.24627284331935" lon="12.231342636517018"><ele>605.1999999999999</ele><time>2026-03-29T08:28:24.999Z</time></trkpt><trkpt lat="43.246215857021504" lon="12.231253252654842"><ele>601.6</ele><time>2026-03-29T08:28:25.999Z</time></trkpt><trkpt lat="43.24614591282529" lon="12.231167065424074"><ele>598.0</ele><time>2026-03-29T08:28:26.999Z</time></trkpt><trkpt lat="43.24606635564128" lon="12.231076841200604"><ele>598.0</ele><time>2026-03-29T08:28:27.999Z</time></trkpt><trkpt lat="43.24599430633214" lon="12.23096984694261"><ele>598.0</ele><time>2026-03-29T08:28:28.999Z</time></trkpt><trkpt lat="43.24589859554746" lon="12.230894626853114"><ele>598.0</ele><time>2026-03-29T08:28:29.999Z</time></trkpt><trkpt lat="43.24580935991046" lon="12.230821606003277"><ele>598.0</ele><time>2026-03-29T08:28:30.999Z</time></trkpt><trkpt lat="43.24572838351389" lon="12.230755343645242"><ele>598.0</ele><time>2026-03-29T08:28:31.999Z</time></trkpt><trkpt lat="43.2456562499486" lon="12.230676950084977"><ele>596.1999999999999</ele><time>2026-03-29T08:28:32.999Z</time></trkpt><trkpt lat="43.24558345565371" lon="12.230592827235208"><ele>594.4</ele><time>2026-03-29T08:28:34Z</time></trkpt><trkpt lat="43.245499575798405" lon="12.230515397367109"><ele>592.5999999999999</ele><time>2026-03-29T08:28:35Z</time></trkpt><trkpt lat="43.24542196890948" lon="12.230440038859525"><ele>590.8</ele><time>2026-03-29T08:28:36Z</time></trkpt><trkpt lat="43.245338777235254" lon="12.230355765483429"><ele>589.0</ele><time>2026-03-29T08:28:37Z</time></trkpt><trkpt lat="43.24523141648261" lon="12.230264062674522"><ele>589.0</ele><time>2026-03-29T08:28:38Z</time></trkpt><trkpt lat="43.24512393820805" lon="12.230174565356915"><ele>589.0</ele><time>2026-03-29T08:28:39Z</time></trkpt><trkpt lat="43.24501079582681" lon="12.230055106986326"><ele>589.0</ele><time>2026-03-29T08:28:40Z</time></trkpt><trkpt lat="43.24489834219277" lon="12.229925326544693"><ele>589.0</ele><time>2026-03-29T08:28:41Z</time></trkpt><trkpt lat="43.24477563256405" lon="12.229793084843706"><ele>585.3333333333334</ele><time>2026-03-29T08:28:42Z</time></trkpt><trkpt lat="43.24464359089243" lon="12.229659606564605"><ele>581.6666666666666</ele><time>2026-03-29T08:28:43Z</time></trkpt><trkpt lat="43.24451146450511" lon="12.229531529294476"><ele>578.0</ele><time>2026-03-29T08:28:44Z</time></trkpt><trkpt lat="43.244378494130935" lon="12.229393946755293"><ele>578.0</ele><time>2026-03-29T08:28:45Z</time></trkpt><trkpt lat="43.24426190033488" lon="12.229249412058767"><ele>578.0</ele><time>2026-03-29T08:28:46Z</time></trkpt><trkpt lat="43.24421316575958" lon="12.229077632167689"><ele>578.0</ele><time>2026-03-29T08:28:47Z</time></trkpt><trkpt lat="43.24420259537858" lon="12.228920575927079"><ele>578.0</ele><time>2026-03-29T08:28:48Z</time></trkpt><trkpt lat="43.24425321300142" lon="12.22878064646271"><ele>576.75</ele><time>2026-03-29T08:28:49Z</time></trkpt><trkpt lat="43.244324481596905" lon="12.228645046946456"><ele>575.5</ele><time>2026-03-29T08:28:50Z</time></trkpt><trkpt lat="43.244408662887054" lon="12.228500991100663"><ele>574.25</ele><time>2026-03-29T08:28:51Z</time></trkpt><trkpt lat="43.24448633576125" lon="12.228343546745561"><ele>573.0</ele><time>2026-03-29T08:28:52Z</time></trkpt><trkpt lat="43.2445682796268" lon="12.228187234615032"><ele>572.25</ele><time>2026-03-29T08:28:53Z</time></trkpt><trkpt lat="43.24463653211845" lon="12.22802612714125"><ele>571.5</ele><time>2026-03-29T08:28:54Z</time></trkpt><trkpt lat="43.2446738822968" lon="12.227861761729939"><ele>570.75</ele><time>2026-03-29T08:28:55Z</time></trkpt><trkpt lat="43.244670405125355" lon="12.227684832849565"><ele>570.0</ele><time>2026-03-29T08:28:56Z</time></trkpt><trkpt lat="43.24463419666976" lon="12.227520157652556"><ele>570.0</ele><time>2026-03-29T08:28:57Z</time></trkpt><trkpt lat="43.24457017396441" lon="12.227381567984072"><ele>570.0</ele><time>2026-03-29T08:28:58Z</time></trkpt><trkpt lat="43.244498947773835" lon="12.227258583566943"><ele>570.0</ele><time>2026-03-29T08:28:59Z</time></trkpt><trkpt lat="43.244431411707865" lon="12.227144032963965"><ele>570.0</ele><time>2026-03-29T08:29:00Z</time></trkpt><trkpt lat="43.24437119319062" lon="12.22703386146624"><ele>570.0</ele><time>2026-03-29T08:29:01Z</time></trkpt><trkpt lat="43.244307232389474" lon="12.226913897362955"><ele>570.75</ele><time>2026-03-29T08:29:02Z</time></trkpt><trkpt lat="43.24423419910538" lon="12.226795646377681"><ele>571.5</ele><time>2026-03-29T08:29:03Z</time></trkpt><trkpt lat="43.2441590148102" lon="12.226667035210406"><ele>572.25</ele><time>2026-03-29T08:29:04Z</time></trkpt><trkpt lat="43.244082001987586" lon="12.226534623050082"><ele>573.0</ele><time>2026-03-29T08:29:05Z</time></trkpt><trkpt lat="43.244006366457924" lon="12.226398661882332"><ele>575.1999999999999</ele><time>2026-03-29T08:29:06Z</time></trkpt><trkpt lat="43.24393933046164" lon="12.226267804806229"><ele>577.4</ele><time>2026-03-29T08:29:07Z</time></trkpt><trkpt lat="43.24390662571559" lon="12.226133274946488"><ele>579.5999999999999</ele><time>2026-03-29T08:29:08Z</time></trkpt><trkpt lat="43.24387668798007" lon="12.22602508025366"><ele>581.8</ele><time>2026-03-29T08:29:09Z</time></trkpt><trkpt lat="43.24386385779937" lon="12.225866579430702"><ele>584.0</ele><time>2026-03-29T08:29:11Z</time></trkpt><trkpt lat="43.243687201383075" lon="12.22579076109332"><ele>584.0</ele><time>2026-03-29T08:29:13Z</time></trkpt><trkpt lat="43.24362044917992" lon="12.225788935191098"><ele>584.0</ele><time>2026-03-29T08:29:14Z</time></trkpt><trkpt lat="43.24353501820419" lon="12.225778810818815"><ele>584.0</ele><time>2026-03-29T08:29:15Z</time></trkpt><trkpt lat="43.24341542928137" lon="12.225749770322297"><ele>584.0</ele><time>2026-03-29T08:29:16Z</time></trkpt><trkpt lat="43.24324699826385" lon="12.225703261177308"><ele>584.0</ele><time>2026-03-29T08:29:17Z</time></trkpt><trkpt lat="43.24312376054721" lon="12.225641358534373"><ele>590.75</ele><time>2026-03-29T08:29:18Z</time></trkpt><trkpt lat="43.24302357035341" lon="12.22559273353494"><ele>597.5</ele><time>2026-03-29T08:29:19Z</time></trkpt><trkpt lat="43.24289707024157" lon="12.22552021290563"><ele>604.25</ele><time>2026-03-29T08:29:20Z</time></trkpt><trkpt lat="43.242760609698806" lon="12.225425601999754"><ele>611.0</ele><time>2026-03-29T08:29:21Z</time></trkpt><trkpt lat="43.24266315111286" lon="12.225349672366198"><ele>611.0</ele><time>2026-03-29T08:29:22Z</time></trkpt><trkpt lat="43.24256237758475" lon="12.225283318999955"><ele>611.0</ele><time>2026-03-29T08:29:23Z</time></trkpt><trkpt lat="43.24248000551518" lon="12.225205514657109"><ele>611.0</ele><time>2026-03-29T08:29:24Z</time></trkpt><trkpt lat="43.24239895214708" lon="12.225121411491756"><ele>611.0</ele><time>2026-03-29T08:29:25Z</time></trkpt><trkpt lat="43.24233729968801" lon="12.225076921293363"><ele>611.0</ele><time>2026-03-29T08:29:26Z</time></trkpt><trkpt lat="43.24226673474921" lon="12.225011923773973"><ele>611.4</ele><time>2026-03-29T08:29:28Z</time></trkpt><trkpt lat="43.24221709053929" lon="12.22493687961826"><ele>611.8</ele><time>2026-03-29T08:29:30Z</time></trkpt><trkpt lat="43.24219126886702" lon="12.2248050944109"><ele>612.1999999999999</ele><time>2026-03-29T08:29:31Z</time></trkpt><trkpt lat="43.2420912907951" lon="12.224736529906682"><ele>612.6</ele><time>2026-03-29T08:29:33Z</time></trkpt><trkpt lat="43.24202844945247" lon="12.224707572418655"><ele>613.0</ele><time>2026-03-29T08:29:34Z</time></trkpt><trkpt lat="43.24190534991761" lon="12.22459523160059"><ele>613.0</ele><time>2026-03-29T08:29:36Z</time></trkpt><trkpt lat="43.241824866872726" lon="12.22453436186651"><ele>613.0</ele><time>2026-03-29T08:29:37Z</time></trkpt><trkpt lat="43.24176861770998" lon="12.224490566381805"><ele>613.0</ele><time>2026-03-29T08:29:39Z</time></trkpt><trkpt lat="43.24178655876049" lon="12.224378109422465"><ele>613.0</ele><time>2026-03-29T08:29:44Z</time></trkpt><trkpt lat="43.241794576041826" lon="12.224113953168159"><ele>613.0</ele><time>2026-03-29T08:29:46.999Z</time></trkpt><trkpt lat="43.24183904472647" lon="12.224047089611169"><ele>615.4</ele><time>2026-03-29T08:29:47.999Z</time></trkpt><trkpt lat="43.24186334144827" lon="12.223878453522808"><ele>617.8</ele><time>2026-03-29T08:29:49.999Z</time></trkpt><trkpt lat="43.241876763177395" lon="12.223772818985806"><ele>620.2</ele><time>2026-03-29T08:29:50.999Z</time></trkpt><trkpt lat="43.24186903666916" lon="12.223666437037352"><ele>622.6</ele><time>2026-03-29T08:29:51.999Z</time></trkpt><trkpt lat="43.241841750605666" lon="12.223541736352143"><ele>625.0</ele><time>2026-03-29T08:29:53.999Z</time></trkpt><trkpt lat="43.24183517439542" lon="12.223409235633778"><ele>625.0000000000001</ele><time>2026-03-29T08:29:56.999Z</time></trkpt><trkpt lat="43.241801285419974" lon="12.223326869083488"><ele>625.0</ele><time>2026-03-29T08:29:57.999Z</time></trkpt><trkpt lat="43.24175343897352" lon="12.223251098490737"><ele>625.0</ele><time>2026-03-29T08:29:58.999Z</time></trkpt><trkpt lat="43.24169886222292" lon="12.223191778819588"><ele>625.0</ele><time>2026-03-29T08:29:59.999Z</time></trkpt><trkpt lat="43.241640259753105" lon="12.223136284739708"><ele>625.0</ele><time>2026-03-29T08:30:00.999Z</time></trkpt><trkpt lat="43.24158494254567" lon="12.223094105413118"><ele>625.0000000000001</ele><time>2026-03-29T08:30:01.999Z</time></trkpt><trkpt lat="43.2415365630608" lon="12.223024062082361"><ele>625.0</ele><time>2026-03-29T08:30:06.999Z</time></trkpt><trkpt lat="43.2415525504029" lon="12.222935106600152"><ele>624.1666666666667</ele><time>2026-03-29T08:30:09.999Z</time></trkpt><trkpt lat="43.24149199820499" lon="12.222857881152171"><ele>623.3333333333334</ele><time>2026-03-29T08:30:10.999Z</time></trkpt><trkpt lat="43.2413994060313" lon="12.22283602420991"><ele>622.5</ele><time>2026-03-29T08:30:12.999Z</time></trkpt><trkpt lat="43.24133504763419" lon="12.222825217582646"><ele>621.6666666666666</ele><time>2026-03-29T08:30:15.999Z</time></trkpt><trkpt lat="43.24126704212386" lon="12.222780787068478"><ele>620.8333333333333</ele><time>2026-03-29T08:30:17.999Z</time></trkpt><trkpt lat="43.24128862058371" lon="12.222631522974856"><ele>620.0</ele><time>2026-03-29T08:30:19.999Z</time></trkpt><trkpt lat="43.24130323323125" lon="12.222507557517218"><ele>617.4</ele><time>2026-03-29T08:30:21.999Z</time></trkpt><trkpt lat="43.24132331487709" lon="12.222381335321616"><ele>614.8</ele><time>2026-03-29T08:30:23.999Z</time></trkpt><trkpt lat="43.241241363269566" lon="12.222294976000791"><ele>612.2</ele><time>2026-03-29T08:30:25.999Z</time></trkpt><trkpt lat="43.241114370793916" lon="12.222322928131444"><ele>609.6</ele><time>2026-03-29T08:30:27.999Z</time></trkpt><trkpt lat="43.241035226677006" lon="12.22235749195644"><ele>607.0</ele><time>2026-03-29T08:30:28.999Z</time></trkpt><trkpt lat="43.24095225177332" lon="12.222382160801551"><ele>607.0</ele><time>2026-03-29T08:30:29.999Z</time></trkpt><trkpt lat="43.24086638224941" lon="12.222408092883915"><ele>607.0</ele><time>2026-03-29T08:30:30.999Z</time></trkpt><trkpt lat="43.240781072759795" lon="12.222446548830057"><ele>607.0</ele><time>2026-03-29T08:30:31.999Z</time></trkpt><trkpt lat="43.24069283422338" lon="12.222492214737809"><ele>607.0</ele><time>2026-03-29T08:30:32.999Z</time></trkpt><trkpt lat="43.24060585069252" lon="12.22253664236865"><ele>607.0</ele><time>2026-03-29T08:30:33.999Z</time></trkpt><trkpt lat="43.24051994383478" lon="12.222579761919992"><ele>605.5</ele><time>2026-03-29T08:30:34.999Z</time></trkpt><trkpt lat="43.24043554607811" lon="12.222619643326047"><ele>604.0</ele><time>2026-03-29T08:30:35.999Z</time></trkpt><trkpt lat="43.24034781018593" lon="12.22263606086165"><ele>602.5</ele><time>2026-03-29T08:30:36.999Z</time></trkpt><trkpt lat="43.24026074598039" lon="12.222631635384479"><ele>601.0</ele><time>2026-03-29T08:30:37.999Z</time></trkpt><trkpt lat="43.24018211947957" lon="12.222626692824702"><ele>599.5</ele><time>2026-03-29T08:30:38.999Z</time></trkpt><trkpt lat="43.24010618452394" lon="12.222619604883059"><ele>598.0</ele><time>2026-03-29T08:30:40Z</time></trkpt><trkpt lat="43.24003136632551" lon="12.222595829502396"><ele>598.0</ele><time>2026-03-29T08:30:41Z</time></trkpt><trkpt lat="43.23994682450262" lon="12.222561313049837"><ele>598.0</ele><time>2026-03-29T08:30:42Z</time></trkpt><trkpt lat="43.23985597321182" lon="12.222517394945836"><ele>598.0</ele><time>2026-03-29T08:30:43Z</time></trkpt><trkpt lat="43.23975915859393" lon="12.222465701759244"><ele>598.0</ele><time>2026-03-29T08:30:44Z</time></trkpt><trkpt lat="43.239667044520935" lon="12.222395526790702"><ele>598.0</ele><time>2026-03-29T08:30:45Z</time></trkpt><trkpt lat="43.23957050331118" lon="12.222324925348635"><ele>597.1999999999999</ele><time>2026-03-29T08:30:46Z</time></trkpt><trkpt lat="43.239468552545986" lon="12.2222664145746"><ele>596.4</ele><time>2026-03-29T08:30:47Z</time></trkpt><trkpt lat="43.239369531271144" lon="12.222203347493982"><ele>595.5999999999999</ele><time>2026-03-29T08:30:48Z</time></trkpt><trkpt lat="43.23927056835975" lon="12.222139086775883"><ele>594.8</ele><time>2026-03-29T08:30:49Z</time></trkpt><trkpt lat="43.23917152369533" lon="12.222080765162094"><ele>594.0</ele><time>2026-03-29T08:30:50Z</time></trkpt><trkpt lat="43.23906773292892" lon="12.222023387084535"><ele>596.5</ele><time>2026-03-29T08:30:51Z</time></trkpt><trkpt lat="43.23895892787719" lon="12.22196781728858"><ele>599.0</ele><time>2026-03-29T08:30:52Z</time></trkpt><trkpt lat="43.238848682308564" lon="12.221912785937855"><ele>601.5</ele><time>2026-03-29T08:30:53Z</time></trkpt><trkpt lat="43.23874664974842" lon="12.221851923649162"><ele>604.0</ele><time>2026-03-29T08:30:54Z</time></trkpt><trkpt lat="43.23864453138921" lon="12.221792301502537"><ele>604.0</ele><time>2026-03-29T08:30:55Z</time></trkpt><trkpt lat="43.23853958548616" lon="12.221728568277033"><ele>604.0</ele><time>2026-03-29T08:30:56Z</time></trkpt><trkpt lat="43.2384316772149" lon="12.221668097874257"><ele>604.0</ele><time>2026-03-29T08:30:57Z</time></trkpt><trkpt lat="43.238324666890726" lon="12.22160569098955"><ele>604.0</ele><time>2026-03-29T08:30:58Z</time></trkpt><trkpt lat="43.23821873260796" lon="12.221532851616919"><ele>600.5</ele><time>2026-03-29T08:30:59Z</time></trkpt><trkpt lat="43.23811181015104" lon="12.221453900233604"><ele>597.0</ele><time>2026-03-29T08:31:00Z</time></trkpt><trkpt lat="43.238004978706634" lon="12.221377464651127"><ele>593.5</ele><time>2026-03-29T08:31:01Z</time></trkpt><trkpt lat="43.23790797849811" lon="12.221305252300317"><ele>590.0</ele><time>2026-03-29T08:31:02Z</time></trkpt><trkpt lat="43.23781030277364" lon="12.221248540169265"><ele>590.0</ele><time>2026-03-29T08:31:03Z</time></trkpt><trkpt lat="43.23771669521308" lon="12.221207792893969"><ele>590.0</ele><time>2026-03-29T08:31:04Z</time></trkpt><trkpt lat="43.23761672858463" lon="12.22119263044603"><ele>590.0</ele><time>2026-03-29T08:31:05Z</time></trkpt><trkpt lat="43.237515174284546" lon="12.221192541480079"><ele>590.0</ele><time>2026-03-29T08:31:06Z</time></trkpt><trkpt lat="43.237417026890746" lon="12.221155300569256"><ele>590.0</ele><time>2026-03-29T08:31:07Z</time></trkpt><trkpt lat="43.2372993447855" lon="12.221134503101167"><ele>588.6</ele><time>2026-03-29T08:31:08Z</time></trkpt><trkpt lat="43.237188557653454" lon="12.221139289825496"><ele>587.2</ele><time>2026-03-29T08:31:09Z</time></trkpt><trkpt lat="43.23708755293096" lon="12.221122852908143"><ele>585.8</ele><time>2026-03-29T08:31:10Z</time></trkpt><trkpt lat="43.236992570284116" lon="12.221110903295417"><ele>584.4</ele><time>2026-03-29T08:31:11Z</time></trkpt><trkpt lat="43.23689712421232" lon="12.221095472260783"><ele>583.0</ele><time>2026-03-29T08:31:12Z</time></trkpt><trkpt lat="43.236797080225394" lon="12.221074779446784"><ele>583.0</ele><time>2026-03-29T08:31:13Z</time></trkpt><trkpt lat="43.23670518578986" lon="12.22102371853091"><ele>583.0</ele><time>2026-03-29T08:31:14Z</time></trkpt><trkpt lat="43.236616931645315" lon="12.22097396431702"><ele>583.0</ele><time>2026-03-29T08:31:15Z</time></trkpt><trkpt lat="43.23653910079889" lon="12.220918719881038"><ele>583.0</ele><time>2026-03-29T08:31:16Z</time></trkpt><trkpt lat="43.2364743649102" lon="12.220835928506636"><ele>583.0</ele><time>2026-03-29T08:31:17Z</time></trkpt><trkpt lat="43.23642250283446" lon="12.220747446429584"><ele>579.8</ele><time>2026-03-29T08:31:18Z</time></trkpt><trkpt lat="43.23638091402291" lon="12.22063781755639"><ele>576.5999999999999</ele><time>2026-03-29T08:31:19Z</time></trkpt><trkpt lat="43.23633081839329" lon="12.22049659331741"><ele>573.4000000000001</ele><time>2026-03-29T08:31:20Z</time></trkpt><trkpt lat="43.23628514922688" lon="12.220351400318991"><ele>570.2</ele><time>2026-03-29T08:31:21Z</time></trkpt><trkpt lat="43.2362438408752" lon="12.220211609030688"><ele>567.0</ele><time>2026-03-29T08:31:22Z</time></trkpt><trkpt lat="43.236209165208656" lon="12.220084143060124"><ele>567.0</ele><time>2026-03-29T08:31:23Z</time></trkpt><trkpt lat="43.236179646370886" lon="12.21995732027881"><ele>567.0</ele><time>2026-03-29T08:31:24Z</time></trkpt><trkpt lat="43.23615627794947" lon="12.219827931557285"><ele>567.0</ele><time>2026-03-29T08:31:25Z</time></trkpt><trkpt lat="43.236135989650975" lon="12.219683067509063"><ele>567.0</ele><time>2026-03-29T08:31:26Z</time></trkpt><trkpt lat="43.236116024532535" lon="12.219534744271854"><ele>567.0</ele><time>2026-03-29T08:31:27Z</time></trkpt><trkpt lat="43.236099326770024" lon="12.219400735659917"><ele>567.0</ele><time>2026-03-29T08:31:28Z</time></trkpt><trkpt lat="43.236083474742685" lon="12.219270622484736"><ele>567.0</ele><time>2026-03-29T08:31:29Z</time></trkpt><trkpt lat="43.23606548051844" lon="12.219138026131406"><ele>567.0</ele><time>2026-03-29T08:31:30Z</time></trkpt><trkpt lat="43.2360216631587" lon="12.218995555969155"><ele>567.0</ele><time>2026-03-29T08:31:31Z</time></trkpt><trkpt lat="43.23597454993939" lon="12.218858666503941"><ele>567.0</ele><time>2026-03-29T08:31:32Z</time></trkpt><trkpt lat="43.2359076497163" lon="12.218745016278747"><ele>567.25</ele><time>2026-03-29T08:31:33Z</time></trkpt><trkpt lat="43.23582299076722" lon="12.218652208856351"><ele>567.5</ele><time>2026-03-29T08:31:34Z</time></trkpt><trkpt lat="43.235731611933254" lon="12.21856059211292"><ele>567.75</ele><time>2026-03-29T08:31:35Z</time></trkpt><trkpt lat="43.235638460633886" lon="12.21845680161839"><ele>568.0</ele><time>2026-03-29T08:31:36Z</time></trkpt><trkpt lat="43.23552469852833" lon="12.21840500138105"><ele>566.25</ele><time>2026-03-29T08:31:37Z</time></trkpt><trkpt lat="43.235419613785396" lon="12.2183443142303"><ele>564.5</ele><time>2026-03-29T08:31:38Z</time></trkpt><trkpt lat="43.23530967193677" lon="12.218282462136258"><ele>562.75</ele><time>2026-03-29T08:31:39Z</time></trkpt><trkpt lat="43.23520155576312" lon="12.218222629835159"><ele>561.0</ele><time>2026-03-29T08:31:40Z</time></trkpt><trkpt lat="43.23510264828345" lon="12.218163596972959"><ele>561.6</ele><time>2026-03-29T08:31:41Z</time></trkpt><trkpt lat="43.235012338681564" lon="12.218104546102694"><ele>562.2</ele><time>2026-03-29T08:31:42Z</time></trkpt><trkpt lat="43.23492609178633" lon="12.218037921492513"><ele>562.8</ele><time>2026-03-29T08:31:43Z</time></trkpt><trkpt lat="43.234847407207354" lon="12.217937425857285"><ele>563.4</ele><time>2026-03-29T08:31:44Z</time></trkpt><trkpt lat="43.23475449137615" lon="12.217845398945055"><ele>564.0</ele><time>2026-03-29T08:31:45Z</time></trkpt><trkpt lat="43.234678528407535" lon="12.21774928366053"><ele>562.0</ele><time>2026-03-29T08:31:46Z</time></trkpt><trkpt lat="43.2346099544047" lon="12.21764396130618"><ele>560.0</ele><time>2026-03-29T08:31:47Z</time></trkpt><trkpt lat="43.23452690075464" lon="12.217532140586592"><ele>558.0</ele><time>2026-03-29T08:31:48Z</time></trkpt><trkpt lat="43.23445212013786" lon="12.217396118844563"><ele>556.0</ele><time>2026-03-29T08:31:48.999Z</time></trkpt><trkpt lat="43.234396948893036" lon="12.217254970023422"><ele>556.0</ele><time>2026-03-29T08:31:49.999Z</time></trkpt><trkpt lat="43.234354556510674" lon="12.217130295711746"><ele>556.0</ele><time>2026-03-29T08:31:50.999Z</time></trkpt><trkpt lat="43.23432297334218" lon="12.217007613384736"><ele>556.0</ele><time>2026-03-29T08:31:51.999Z</time></trkpt><trkpt lat="43.234290774148995" lon="12.216866074817725"><ele>556.0</ele><time>2026-03-29T08:31:52.999Z</time></trkpt><trkpt lat="43.234257710506" lon="12.216704366386413"><ele>556.0</ele><time>2026-03-29T08:31:53.999Z</time></trkpt><trkpt lat="43.234226415566035" lon="12.216549193554542"><ele>555.4</ele><time>2026-03-29T08:31:54.999Z</time></trkpt><trkpt lat="43.23419003197541" lon="12.216381497008424"><ele>554.8</ele><time>2026-03-29T08:31:55.999Z</time></trkpt><trkpt lat="43.234156280173664" lon="12.216233164938323"><ele>554.1999999999999</ele><time>2026-03-29T08:31:56.999Z</time></trkpt><trkpt lat="43.234122467916855" lon="12.216106168451123"><ele>553.6</ele><time>2026-03-29T08:31:57.999Z</time></trkpt><trkpt lat="43.2340837725451" lon="12.216000897791702"><ele>553.0</ele><time>2026-03-29T08:31:58.999Z</time></trkpt><trkpt lat="43.23403073139639" lon="12.215917049200257"><ele>551.4</ele><time>2026-03-29T08:31:59.999Z</time></trkpt><trkpt lat="43.23396055587115" lon="12.215861158677578"><ele>549.8</ele><time>2026-03-29T08:32:00.999Z</time></trkpt><trkpt lat="43.23388879976059" lon="12.215789632999977"><ele>548.2</ele><time>2026-03-29T08:32:01.999Z</time></trkpt><trkpt lat="43.23380794083308" lon="12.215716528058232"><ele>546.6</ele><time>2026-03-29T08:32:02.999Z</time></trkpt><trkpt lat="43.23372772420281" lon="12.215637760074905"><ele>545.0</ele><time>2026-03-29T08:32:03.999Z</time></trkpt><trkpt lat="43.23365396816107" lon="12.21554300404524"><ele>545.0</ele><time>2026-03-29T08:32:04.999Z</time></trkpt><trkpt lat="43.23362717678585" lon="12.215451778532525"><ele>545.0</ele><time>2026-03-29T08:32:05.999Z</time></trkpt><trkpt lat="43.23358402476475" lon="12.215328752592681"><ele>545.0</ele><time>2026-03-29T08:32:06.999Z</time></trkpt><trkpt lat="43.23356251594573" lon="12.215223777721448"><ele>545.0</ele><time>2026-03-29T08:32:07.999Z</time></trkpt><trkpt lat="43.23354118062221" lon="12.21511460582862"><ele>545.0</ele><time>2026-03-29T08:32:08.999Z</time></trkpt><trkpt lat="43.23356348950578" lon="12.215012438394707"><ele>545.0</ele><time>2026-03-29T08:32:09.999Z</time></trkpt><trkpt lat="43.23360383919101" lon="12.214921648106678"><ele>545.0</ele><time>2026-03-29T08:32:10.999Z</time></trkpt><trkpt lat="43.233662965556356" lon="12.214831353728927"><ele>545.0</ele><time>2026-03-29T08:32:11.999Z</time></trkpt><trkpt lat="43.233740389753955" lon="12.214735953847786"><ele>545.0</ele><time>2026-03-29T08:32:12.999Z</time></trkpt><trkpt lat="43.23381794596703" lon="12.214660157776656"><ele>545.0</ele><time>2026-03-29T08:32:13.999Z</time></trkpt><trkpt lat="43.2338942161174" lon="12.214584916779309"><ele>545.0</ele><time>2026-03-29T08:32:14.999Z</time></trkpt><trkpt lat="43.233976172573804" lon="12.214521714929475"><ele>544.6</ele><time>2026-03-29T08:32:15.999Z</time></trkpt><trkpt lat="43.23407132939297" lon="12.21451204188657"><ele>544.2</ele><time>2026-03-29T08:32:16.999Z</time></trkpt><trkpt lat="43.23416720771976" lon="12.21449946817608"><ele>543.8</ele><time>2026-03-29T08:32:17.999Z</time></trkpt><trkpt lat="43.23427847177424" lon="12.214469829611703"><ele>543.4</ele><time>2026-03-29T08:32:18.999Z</time></trkpt><trkpt lat="43.23438064657265" lon="12.214461288926895"><ele>543.0</ele><time>2026-03-29T08:32:19.999Z</time></trkpt><trkpt lat="43.23447002740925" lon="12.214446210716442"><ele>543.0</ele><time>2026-03-29T08:32:20.999Z</time></trkpt><trkpt lat="43.23455087866538" lon="12.214441682771925"><ele>543.0</ele><time>2026-03-29T08:32:21.999Z</time></trkpt><trkpt lat="43.23462187581261" lon="12.214461106272276"><ele>543.0</ele><time>2026-03-29T08:32:22.999Z</time></trkpt><trkpt lat="43.23467651675289" lon="12.214518589449716"><ele>543.0</ele><time>2026-03-29T08:32:23.999Z</time></trkpt><trkpt lat="43.234714709880784" lon="12.214619101441885"><ele>543.0</ele><time>2026-03-29T08:32:24.999Z</time></trkpt><trkpt lat="43.234759214372225" lon="12.214757304045111"><ele>543.0</ele><time>2026-03-29T08:32:25.999Z</time></trkpt><trkpt lat="43.23481094185979" lon="12.214935347460642"><ele>542.5</ele><time>2026-03-29T08:32:26.999Z</time></trkpt><trkpt lat="43.23487274334133" lon="12.215119392304649"><ele>542.0</ele><time>2026-03-29T08:32:27.999Z</time></trkpt><trkpt lat="43.23492638141065" lon="12.215276379683285"><ele>541.5</ele><time>2026-03-29T08:32:28.999Z</time></trkpt><trkpt lat="43.234985232136154" lon="12.215397766078762"><ele>541.0</ele><time>2026-03-29T08:32:29.999Z</time></trkpt><trkpt lat="43.235034508039725" lon="12.215467405649242"><ele>541.0</ele><time>2026-03-29T08:32:30.999Z</time></trkpt><trkpt lat="43.23515159263517" lon="12.215488519736402"><ele>541.0</ele><time>2026-03-29T08:32:32.999Z</time></trkpt><trkpt lat="43.235222741275905" lon="12.215438457399632"><ele>541.0</ele><time>2026-03-29T08:32:33.999Z</time></trkpt><trkpt lat="43.23528761248595" lon="12.215375920313539"><ele>541.0</ele><time>2026-03-29T08:32:34.999Z</time></trkpt><trkpt lat="43.23531736674401" lon="12.21527485989392"><ele>541.0</ele><time>2026-03-29T08:32:35.999Z</time></trkpt><trkpt lat="43.23533274465505" lon="12.215158256516622"><ele>541.0</ele><time>2026-03-29T08:32:36.999Z</time></trkpt><trkpt lat="43.23529092195879" lon="12.21504738063937"><ele>541.0</ele><time>2026-03-29T08:32:37.999Z</time></trkpt><trkpt lat="43.2352507273631" lon="12.21494149206052"><ele>541.0</ele><time>2026-03-29T08:32:38.999Z</time></trkpt><trkpt lat="43.23519764954151" lon="12.214821686006681"><ele>541.0</ele><time>2026-03-29T08:32:39.999Z</time></trkpt><trkpt lat="43.23515827259716" lon="12.214708664372901"><ele>541.0</ele><time>2026-03-29T08:32:40.999Z</time></trkpt><trkpt lat="43.23512492595807" lon="12.214581154246183"><ele>541.0</ele><time>2026-03-29T08:32:41.999Z</time></trkpt><trkpt lat="43.23509515351392" lon="12.214414915467318"><ele>539.0</ele><time>2026-03-29T08:32:42.999Z</time></trkpt><trkpt lat="43.235064673084906" lon="12.214222318683747"><ele>537.0</ele><time>2026-03-29T08:32:43.999Z</time></trkpt><trkpt lat="43.23503131428291" lon="12.214038156456658"><ele>535.0</ele><time>2026-03-29T08:32:44.999Z</time></trkpt><trkpt lat="43.234995318286494" lon="12.21384716597818"><ele>533.0</ele><time>2026-03-29T08:32:46Z</time></trkpt><trkpt lat="43.2349472870195" lon="12.213662578031464"><ele>529.1999999999999</ele><time>2026-03-29T08:32:47Z</time></trkpt><trkpt lat="43.23490975602539" lon="12.213512755095314"><ele>525.4</ele><time>2026-03-29T08:32:48Z</time></trkpt><trkpt lat="43.23488411911914" lon="12.213377312746468"><ele>521.5999999999999</ele><time>2026-03-29T08:32:49Z</time></trkpt><trkpt lat="43.23486871878413" lon="12.213248484059577"><ele>517.8</ele><time>2026-03-29T08:32:50Z</time></trkpt><trkpt lat="43.23487495229814" lon="12.213133817490322"><ele>514.0</ele><time>2026-03-29T08:32:51Z</time></trkpt><trkpt lat="43.234939585294" lon="12.21303673835389"><ele>511.25</ele><time>2026-03-29T08:32:52Z</time></trkpt><trkpt lat="43.23500035936103" lon="12.212954742470627"><ele>508.5</ele><time>2026-03-29T08:32:53Z</time></trkpt><trkpt lat="43.23510674532331" lon="12.212930691070524"><ele>505.75</ele><time>2026-03-29T08:32:54Z</time></trkpt><trkpt lat="43.23525907916046" lon="12.212864007073541"><ele>503.0</ele><time>2026-03-29T08:32:55Z</time></trkpt><trkpt lat="43.23540753656529" lon="12.212793361609869"><ele>502.99999999999994</ele><time>2026-03-29T08:32:56Z</time></trkpt><trkpt lat="43.23549988032135" lon="12.212759861888777"><ele>503.0</ele><time>2026-03-29T08:32:57Z</time></trkpt><trkpt lat="43.235560198393785" lon="12.212695325283262"><ele>503.0</ele><time>2026-03-29T08:32:58Z</time></trkpt><trkpt lat="43.23559912632966" lon="12.212609851839566"><ele>503.0</ele><time>2026-03-29T08:32:59Z</time></trkpt><trkpt lat="43.23560132181797" lon="12.212495184807759"><ele>502.99999999999994</ele><time>2026-03-29T08:33:00Z</time></trkpt><trkpt lat="43.23556146517918" lon="12.212380512498937"><ele>503.0</ele><time>2026-03-29T08:33:01Z</time></trkpt><trkpt lat="43.23549823707277" lon="12.212303526098587"><ele>503.0</ele><time>2026-03-29T08:33:02Z</time></trkpt><trkpt lat="43.235412391363305" lon="12.212291320544905"><ele>502.99999999999994</ele><time>2026-03-29T08:33:03Z</time></trkpt><trkpt lat="43.23532691951439" lon="12.21230324318925"><ele>502.99999999999994</ele><time>2026-03-29T08:33:04Z</time></trkpt><trkpt lat="43.23524463608883" lon="12.212345456601732"><ele>503.0</ele><time>2026-03-29T08:33:05Z</time></trkpt><trkpt lat="43.23515498758136" lon="12.212403723011137"><ele>503.0</ele><time>2026-03-29T08:33:06Z</time></trkpt><trkpt lat="43.23502805826408" lon="12.212462186474507"><ele>503.0</ele><time>2026-03-29T08:33:07Z</time></trkpt><trkpt lat="43.234886007434326" lon="12.21251985527455"><ele>503.0</ele><time>2026-03-29T08:33:08Z</time></trkpt><trkpt lat="43.234736870952524" lon="12.212581228729375"><ele>503.0</ele><time>2026-03-29T08:33:09Z</time></trkpt><trkpt lat="43.234589415481395" lon="12.212654731013632"><ele>502.79999999999995</ele><time>2026-03-29T08:33:10Z</time></trkpt><trkpt lat="43.23444314301939" lon="12.21270721228615"><ele>502.59999999999997</ele><time>2026-03-29T08:33:11Z</time></trkpt><trkpt lat="43.234331970058214" lon="12.212723141223139"><ele>502.40000000000003</ele><time>2026-03-29T08:33:12Z</time></trkpt><trkpt lat="43.23424994288514" lon="12.212684650938325"><ele>502.20000000000005</ele><time>2026-03-29T08:33:13Z</time></trkpt><trkpt lat="43.23417762432896" lon="12.212618463728214"><ele>502.0</ele><time>2026-03-29T08:33:14Z</time></trkpt><trkpt lat="43.23414971231544" lon="12.212449758330596"><ele>502.0</ele><time>2026-03-29T08:33:15Z</time></trkpt><trkpt lat="43.23408347472793" lon="12.212335127309252"><ele>502.00000000000006</ele><time>2026-03-29T08:33:16Z</time></trkpt><trkpt lat="43.23401350478336" lon="12.212261265230586"><ele>502.00000000000006</ele><time>2026-03-29T08:33:17Z</time></trkpt><trkpt lat="43.2339122737302" lon="12.21222653106197"><ele>502.0</ele><time>2026-03-29T08:33:18Z</time></trkpt><trkpt lat="43.2338057413624" lon="12.212228188532373"><ele>502.0</ele><time>2026-03-29T08:33:19Z</time></trkpt><trkpt lat="43.23369995319409" lon="12.212264640631345"><ele>501.0</ele><time>2026-03-29T08:33:20Z</time></trkpt><trkpt lat="43.23361146323264" lon="12.212335997217"><ele>500.00000000000006</ele><time>2026-03-29T08:33:21Z</time></trkpt><trkpt lat="43.233526897440626" lon="12.212425973486496"><ele>499.00000000000006</ele><time>2026-03-29T08:33:22Z</time></trkpt><trkpt lat="43.23344425073597" lon="12.212517604573652"><ele>498.0</ele><time>2026-03-29T08:33:23Z</time></trkpt><trkpt lat="43.23337694946823" lon="12.212596545065633"><ele>497.0</ele><time>2026-03-29T08:33:24Z</time></trkpt><trkpt lat="43.23331811745365" lon="12.212662901087981"><ele>497.0</ele><time>2026-03-29T08:33:25Z</time></trkpt><trkpt lat="43.23324502989015" lon="12.212690222143662"><ele>497.00000000000006</ele><time>2026-03-29T08:33:26Z</time></trkpt><trkpt lat="43.23311650097029" lon="12.212622469330036"><ele>497.00000000000006</ele><time>2026-03-29T08:33:28Z</time></trkpt><trkpt lat="43.233083784623226" lon="12.212530249001428"><ele>497.0</ele><time>2026-03-29T08:33:29Z</time></trkpt><trkpt lat="43.233021869724496" lon="12.212386604493732"><ele>497.0</ele><time>2026-03-29T08:33:30Z</time></trkpt><trkpt lat="43.232962317342995" lon="12.212269650901758"><ele>492.20000000000005</ele><time>2026-03-29T08:33:31Z</time></trkpt><trkpt lat="43.23287145381849" lon="12.212206741069577"><ele>487.40000000000003</ele><time>2026-03-29T08:33:32Z</time></trkpt><trkpt lat="43.232772462811766" lon="12.21218287356128"><ele>482.59999999999997</ele><time>2026-03-29T08:33:33Z</time></trkpt><trkpt lat="43.23266486516528" lon="12.212201636679108"><ele>477.79999999999995</ele><time>2026-03-29T08:33:34Z</time></trkpt><trkpt lat="43.232556553951966" lon="12.212264745292511"><ele>473.0</ele><time>2026-03-29T08:33:35Z</time></trkpt><trkpt lat="43.232433462562774" lon="12.212315903876611"><ele>473.2</ele><time>2026-03-29T08:33:36Z</time></trkpt><trkpt lat="43.23234347401299" lon="12.212341589035546"><ele>473.4</ele><time>2026-03-29T08:33:37Z</time></trkpt><trkpt lat="43.23223254363649" lon="12.212343877927076"><ele>473.59999999999997</ele><time>2026-03-29T08:33:38Z</time></trkpt><trkpt lat="43.2321465393992" lon="12.212215360357941"><ele>473.79999999999995</ele><time>2026-03-29T08:33:39Z</time></trkpt><trkpt lat="43.23209841541966" lon="12.212103931684908"><ele>474.0</ele><time>2026-03-29T08:33:40Z</time></trkpt><trkpt lat="43.232036086562424" lon="12.211988555212594"><ele>474.0</ele><time>2026-03-29T08:33:41Z</time></trkpt><trkpt lat="43.23197252754346" lon="12.211932263077648"><ele>474.0</ele><time>2026-03-29T08:33:42Z</time></trkpt><trkpt lat="43.23187111500834" lon="12.211934736796923"><ele>474.0</ele><time>2026-03-29T08:33:43Z</time></trkpt><trkpt lat="43.23174988945391" lon="12.21192492879341"><ele>474.0</ele><time>2026-03-29T08:33:44Z</time></trkpt><trkpt lat="43.23164635712125" lon="12.211944499146115"><ele>474.0</ele><time>2026-03-29T08:33:45Z</time></trkpt><trkpt lat="43.23145568566639" lon="12.211954980798657"><ele>473.0</ele><time>2026-03-29T08:33:46Z</time></trkpt><trkpt lat="43.231303497507234" lon="12.211996183571062"><ele>472.0</ele><time>2026-03-29T08:33:47Z</time></trkpt><trkpt lat="43.23116689466568" lon="12.212018319212458"><ele>471.0</ele><time>2026-03-29T08:33:48Z</time></trkpt><trkpt lat="43.2310697810211" lon="12.211982801722458"><ele>470.0</ele><time>2026-03-29T08:33:49Z</time></trkpt><trkpt lat="43.23098315268368" lon="12.211906615490356"><ele>470.0</ele><time>2026-03-29T08:33:50Z</time></trkpt><trkpt lat="43.23089900407297" lon="12.211778854512854"><ele>470.0</ele><time>2026-03-29T08:33:51Z</time></trkpt><trkpt lat="43.230801485373696" lon="12.211673891063322"><ele>470.0</ele><time>2026-03-29T08:33:51.999Z</time></trkpt><trkpt lat="43.230705931240415" lon="12.211543562435617"><ele>470.0</ele><time>2026-03-29T08:33:52.999Z</time></trkpt><trkpt lat="43.230626924770704" lon="12.211415942255822"><ele>467.8</ele><time>2026-03-29T08:33:53.999Z</time></trkpt><trkpt lat="43.230619149233114" lon="12.211290038876045"><ele>465.6</ele><time>2026-03-29T08:33:54.999Z</time></trkpt><trkpt lat="43.230619149987334" lon="12.21115486518208"><ele>463.4</ele><time>2026-03-29T08:33:55.999Z</time></trkpt><trkpt lat="43.23066136447962" lon="12.21102873019776"><ele>461.2</ele><time>2026-03-29T08:33:56.999Z</time></trkpt><trkpt lat="43.2307030862572" lon="12.210870645816765"><ele>459.0</ele><time>2026-03-29T08:33:57.999Z</time></trkpt><trkpt lat="43.230767340547445" lon="12.210622223381135"><ele>455.5</ele><time>2026-03-29T08:33:58.999Z</time></trkpt><trkpt lat="43.230852516108" lon="12.210284148820033"><ele>452.0</ele><time>2026-03-29T08:33:59.999Z</time></trkpt><trkpt lat="43.2309325569685" lon="12.209976180422741"><ele>452.0</ele><time>2026-03-29T08:34:00.999Z</time></trkpt><trkpt lat="43.23100166274038" lon="12.209710145283577"><ele>452.0</ele><time>2026-03-29T08:34:01.999Z</time></trkpt><trkpt lat="43.23106748526541" lon="12.209457511340386"><ele>452.0</ele><time>2026-03-29T08:34:02.999Z</time></trkpt><trkpt lat="43.23112378946563" lon="12.209250984255762"><ele>452.0</ele><time>2026-03-29T08:34:03.999Z</time></trkpt><trkpt lat="43.231150416150484" lon="12.209091889392838"><ele>452.0</ele><time>2026-03-29T08:34:04.999Z</time></trkpt><trkpt lat="43.23120409498308" lon="12.208908230552996"><ele>452.0</ele><time>2026-03-29T08:34:05.999Z</time></trkpt><trkpt lat="43.23124765829817" lon="12.208711869697751"><ele>452.0</ele><time>2026-03-29T08:34:06.999Z</time></trkpt><trkpt lat="43.23125721838413" lon="12.208480378588938"><ele>450.3333333333333</ele><time>2026-03-29T08:34:07.999Z</time></trkpt><trkpt lat="43.231275418561154" lon="12.208253810200608"><ele>448.66666666666663</ele><time>2026-03-29T08:34:08.999Z</time></trkpt><trkpt lat="43.23130310576251" lon="12.208052123355953"><ele>447.0</ele><time>2026-03-29T08:34:09.999Z</time></trkpt><trkpt lat="43.231333291599135" lon="12.20786666356434"><ele>447.0</ele><time>2026-03-29T08:34:10.999Z</time></trkpt><trkpt lat="43.231373458446946" lon="12.207711911933776"><ele>447.00000000000006</ele><time>2026-03-29T08:34:11.999Z</time></trkpt><trkpt lat="43.23139673660748" lon="12.207573633278084"><ele>447.00000000000006</ele><time>2026-03-29T08:34:12.999Z</time></trkpt><trkpt lat="43.23142439269679" lon="12.207426839488821"><ele>447.0</ele><time>2026-03-29T08:34:13.999Z</time></trkpt><trkpt lat="43.23145529446464" lon="12.207299981525452"><ele>447.0</ele><time>2026-03-29T08:34:14.999Z</time></trkpt><trkpt lat="43.23150433941488" lon="12.207157382406251"><ele>447.33333333333337</ele><time>2026-03-29T08:34:15.999Z</time></trkpt><trkpt lat="43.231544750661946" lon="12.207072712136556"><ele>447.6666666666667</ele><time>2026-03-29T08:34:17.999Z</time></trkpt><trkpt lat="43.23123881358067" lon="12.206814472403524"><ele>448.0</ele><time>2026-03-29T08:34:19.999Z</time></trkpt><trkpt lat="43.23112221803583" lon="12.20683367608303"><ele>449.2</ele><time>2026-03-29T08:34:21.999Z</time></trkpt><trkpt lat="43.231033774093646" lon="12.20689190340991"><ele>450.4</ele><time>2026-03-29T08:34:23.999Z</time></trkpt><trkpt lat="43.23098320570256" lon="12.206974443935271"><ele>451.59999999999997</ele><time>2026-03-29T08:34:25.999Z</time></trkpt><trkpt lat="43.23088645911658" lon="12.207049665595655"><ele>452.79999999999995</ele><time>2026-03-29T08:34:27.999Z</time></trkpt><trkpt lat="43.23082975716134" lon="12.207095751859583"><ele>454.0</ele><time>2026-03-29T08:34:28.999Z</time></trkpt><trkpt lat="43.230741200682594" lon="12.207153698149657"><ele>454.00000000000006</ele><time>2026-03-29T08:34:29.999Z</time></trkpt><trkpt lat="43.23065318824133" lon="12.207204775632144"><ele>454.0</ele><time>2026-03-29T08:34:30.999Z</time></trkpt><trkpt lat="43.23057594502568" lon="12.207265431124428"><ele>454.0</ele><time>2026-03-29T08:34:31.999Z</time></trkpt><trkpt lat="43.230503034140256" lon="12.207317141856143"><ele>454.0</ele><time>2026-03-29T08:34:32.999Z</time></trkpt><trkpt lat="43.23044172223513" lon="12.207377141685363"><ele>454.00000000000006</ele><time>2026-03-29T08:34:33.999Z</time></trkpt><trkpt lat="43.23034995221302" lon="12.207431889118944"><ele>454.0</ele><time>2026-03-29T08:34:34.999Z</time></trkpt><trkpt lat="43.23027591869994" lon="12.207468942967731"><ele>452.83333333333337</ele><time>2026-03-29T08:34:35.999Z</time></trkpt><trkpt lat="43.230209738725236" lon="12.207500860631239"><ele>451.6666666666667</ele><time>2026-03-29T08:34:36.999Z</time></trkpt><trkpt lat="43.23010112033802" lon="12.207538077040697"><ele>450.5</ele><time>2026-03-29T08:34:38.999Z</time></trkpt><trkpt lat="43.230039111894456" lon="12.20758478400057"><ele>449.33333333333337</ele><time>2026-03-29T08:34:39.999Z</time></trkpt><trkpt lat="43.22996404399436" lon="12.207598559136041"><ele>448.1666666666667</ele><time>2026-03-29T08:34:40.999Z</time></trkpt><trkpt lat="43.229857598835736" lon="12.207621170565332"><ele>447.0</ele><time>2026-03-29T08:34:43.999Z</time></trkpt><trkpt lat="43.22980838712225" lon="12.207676933476048"><ele>446.6</ele><time>2026-03-29T08:34:44.999Z</time></trkpt><trkpt lat="43.229751770158664" lon="12.207742892381878"><ele>446.20000000000005</ele><time>2026-03-29T08:34:45.999Z</time></trkpt><trkpt lat="43.22966530414162" lon="12.207790220161092"><ele>445.8</ele><time>2026-03-29T08:34:46.999Z</time></trkpt><trkpt lat="43.22957113560686" lon="12.207837548118606"><ele>445.4</ele><time>2026-03-29T08:34:47.999Z</time></trkpt><trkpt lat="43.22946388410499" lon="12.20784795273138"><ele>445.0</ele><time>2026-03-29T08:34:48.999Z</time></trkpt><trkpt lat="43.22939194228379" lon="12.207875337691465"><ele>445.00000000000006</ele><time>2026-03-29T08:34:49.999Z</time></trkpt><trkpt lat="43.22933456951605" lon="12.207918690654004"><ele>445.0</ele><time>2026-03-29T08:34:50.999Z</time></trkpt><trkpt lat="43.22927541148215" lon="12.207863885425223"><ele>445.0</ele><time>2026-03-29T08:34:52Z</time></trkpt><trkpt lat="43.229175064687006" lon="12.2078088454044"><ele>445.0</ele><time>2026-03-29T08:34:54Z</time></trkpt><trkpt lat="43.22911310305862" lon="12.207777121270475"><ele>445.00000000000006</ele><time>2026-03-29T08:34:55Z</time></trkpt><trkpt lat="43.229027250781236" lon="12.20775318662146"><ele>445.0</ele><time>2026-03-29T08:34:56Z</time></trkpt><trkpt lat="43.228947089845676" lon="12.207746569146012"><ele>444.33333333333337</ele><time>2026-03-29T08:34:57Z</time></trkpt><trkpt lat="43.228828011824184" lon="12.20778202274054"><ele>443.6666666666667</ele><time>2026-03-29T08:34:59Z</time></trkpt><trkpt lat="43.22875536264211" lon="12.207814809056382"><ele>443.0</ele><time>2026-03-29T08:35:00Z</time></trkpt><trkpt lat="43.228689981492415" lon="12.207832005225905"><ele>442.33333333333337</ele><time>2026-03-29T08:35:01Z</time></trkpt><trkpt lat="43.228617911942166" lon="12.207855940216078"><ele>441.6666666666667</ele><time>2026-03-29T08:35:02Z</time></trkpt><trkpt lat="43.22854303785513" lon="12.207892711369999"><ele>441.0</ele><time>2026-03-29T08:35:03Z</time></trkpt><trkpt lat="43.22847860797292" lon="12.207928630228277"><ele>441.0</ele><time>2026-03-29T08:35:04Z</time></trkpt><trkpt lat="43.228451375502786" lon="12.208021760544796"><ele>441.0</ele><time>2026-03-29T08:35:10Z</time></trkpt><trkpt lat="43.22857732939917" lon="12.208169841146907"><ele>441.0</ele><time>2026-03-29T08:35:13Z</time></trkpt><trkpt lat="43.228654129174174" lon="12.20823392634105"><ele>441.0</ele><time>2026-03-29T08:35:14Z</time></trkpt><trkpt lat="43.22871748066476" lon="12.208290348314819"><ele>441.0</ele><time>2026-03-29T08:35:15Z</time></trkpt><trkpt lat="43.22875244256058" lon="12.20842145573386"><ele>437.57142857142856</ele><time>2026-03-29T08:35:17Z</time></trkpt><trkpt lat="43.2287409567823" lon="12.208522768229535"><ele>434.1428571428571</ele><time>2026-03-29T08:35:18Z</time></trkpt><trkpt lat="43.228696023164794" lon="12.208588654230724"><ele>430.7142857142857</ele><time>2026-03-29T08:35:19Z</time></trkpt><trkpt lat="43.22863484609748" lon="12.20863039741543"><ele>427.2857142857143</ele><time>2026-03-29T08:35:20Z</time></trkpt><trkpt lat="43.22857183203569" lon="12.208677136648408"><ele>423.85714285714283</ele><time>2026-03-29T08:35:21Z</time></trkpt><trkpt lat="43.22849877049327" lon="12.208701079863223"><ele>420.42857142857144</ele><time>2026-03-29T08:35:22Z</time></trkpt><trkpt lat="43.22843561226109" lon="12.208680077891906"><ele>417.0</ele><time>2026-03-29T08:35:23Z</time></trkpt><trkpt lat="43.228356541662144" lon="12.208636703709551"><ele>417.0</ele><time>2026-03-29T08:35:24Z</time></trkpt><trkpt lat="43.22827581239017" lon="12.208599859591626"><ele>417.0</ele><time>2026-03-29T08:35:25Z</time></trkpt><trkpt lat="43.228189336237655" lon="12.208569664602765"><ele>417.0</ele><time>2026-03-29T08:35:26Z</time></trkpt><trkpt lat="43.228118888362005" lon="12.208560727395284"><ele>417.0</ele><time>2026-03-29T08:35:27Z</time></trkpt><trkpt lat="43.22810515388558" lon="12.208685175267954"><ele>417.0</ele><time>2026-03-29T08:35:30Z</time></trkpt><trkpt lat="43.22807746695576" lon="12.2088407619243"><ele>417.40000000000003</ele><time>2026-03-29T08:35:32Z</time></trkpt><trkpt lat="43.22797831467197" lon="12.208928264929515"><ele>417.8</ele><time>2026-03-29T08:35:34Z</time></trkpt><trkpt lat="43.22791095553469" lon="12.209063327414075"><ele>418.2</ele><time>2026-03-29T08:35:36Z</time></trkpt><trkpt lat="43.2278611708741" lon="12.209120175196249"><ele>418.6</ele><time>2026-03-29T08:35:38Z</time></trkpt><trkpt lat="43.227787218007286" lon="12.20904700637044"><ele>419.0</ele><time>2026-03-29T08:35:42Z</time></trkpt><trkpt lat="43.22767791433091" lon="12.20905835343635"><ele>413.4</ele><time>2026-03-29T08:35:44Z</time></trkpt><trkpt lat="43.22760562223014" lon="12.20909501854846"><ele>407.79999999999995</ele><time>2026-03-29T08:35:45Z</time></trkpt><trkpt lat="43.2275054687824" lon="12.209137857015728"><ele>402.20000000000005</ele><time>2026-03-29T08:35:46Z</time></trkpt><trkpt lat="43.22738441255631" lon="12.209178088454163"><ele>396.6</ele><time>2026-03-29T08:35:47Z</time></trkpt><trkpt lat="43.22726510737392" lon="12.20922053005248"><ele>391.0</ele><time>2026-03-29T08:35:48Z</time></trkpt><trkpt lat="43.22716200608874" lon="12.209230068544084"><ele>391.0</ele><time>2026-03-29T08:35:49Z</time></trkpt><trkpt lat="43.22705384497388" lon="12.20923856442493"><ele>391.0</ele><time>2026-03-29T08:35:50Z</time></trkpt><trkpt lat="43.22693423819831" lon="12.209214843382888"><ele>391.0</ele><time>2026-03-29T08:35:51Z</time></trkpt><trkpt lat="43.22683767438083" lon="12.209191831910827"><ele>391.0</ele><time>2026-03-29T08:35:52Z</time></trkpt><trkpt lat="43.2267138745359" lon="12.209140257374907"><ele>391.0</ele><time>2026-03-29T08:35:54Z</time></trkpt><trkpt lat="43.226581518550304" lon="12.20911754021472"><ele>391.0</ele><time>2026-03-29T08:35:55.999Z</time></trkpt><trkpt lat="43.226464461616764" lon="12.209135437611822"><ele>391.0</ele><time>2026-03-29T08:35:56.999Z</time></trkpt><trkpt lat="43.22635567270359" lon="12.209127480644673"><ele>391.0</ele><time>2026-03-29T08:35:58.999Z</time></trkpt><trkpt lat="43.226252997629864" lon="12.209190542468823"><ele>393.8</ele><time>2026-03-29T08:36:01.999Z</time></trkpt><trkpt lat="43.226222630928476" lon="12.20933932591551"><ele>396.6</ele><time>2026-03-29T08:36:02.999Z</time></trkpt><trkpt lat="43.22616502370194" lon="12.209459516474883"><ele>399.4</ele><time>2026-03-29T08:36:03.999Z</time></trkpt><trkpt lat="43.22609160916011" lon="12.209542431501408"><ele>402.2</ele><time>2026-03-29T08:36:04.999Z</time></trkpt><trkpt lat="43.22604555398761" lon="12.209634904950738"><ele>405.0</ele><time>2026-03-29T08:36:05.999Z</time></trkpt><trkpt lat="43.22599442001666" lon="12.209698078390113"><ele>405.0</ele><time>2026-03-29T08:36:06.999Z</time></trkpt><trkpt lat="43.22594421289965" lon="12.20975935462263"><ele>405.0</ele><time>2026-03-29T08:36:07.999Z</time></trkpt><trkpt lat="43.22588623128998" lon="12.209826334802186"><ele>405.0</ele><time>2026-03-29T08:36:08.999Z</time></trkpt><trkpt lat="43.225825234162876" lon="12.209957262778346"><ele>405.0</ele><time>2026-03-29T08:36:10.999Z</time></trkpt><trkpt lat="43.22578487616723" lon="12.21002466291123"><ele>405.0</ele><time>2026-03-29T08:36:11.999Z</time></trkpt><trkpt lat="43.225692626651295" lon="12.210145910832345"><ele>405.0</ele><time>2026-03-29T08:36:13.999Z</time></trkpt><trkpt lat="43.225631177995126" lon="12.210190735788334"><ele>399.5</ele><time>2026-03-29T08:36:14.999Z</time></trkpt><trkpt lat="43.225578030015946" lon="12.210237942703833"><ele>394.0</ele><time>2026-03-29T08:36:15.999Z</time></trkpt><trkpt lat="43.225487678909865" lon="12.210306406438125"><ele>388.5</ele><time>2026-03-29T08:36:17.999Z</time></trkpt><trkpt lat="43.22539991400033" lon="12.210363484361244"><ele>383.0</ele><time>2026-03-29T08:36:19.999Z</time></trkpt><trkpt lat="43.22530921446207" lon="12.210429441526731"><ele>377.5</ele><time>2026-03-29T08:36:21.999Z</time></trkpt><trkpt lat="43.22525141519644" lon="12.210474600084858"><ele>372.0</ele><time>2026-03-29T08:36:22.999Z</time></trkpt><trkpt lat="43.22518103550357" lon="12.210507104321909"><ele>372.0</ele><time>2026-03-29T08:36:23.999Z</time></trkpt><trkpt lat="43.2250997869028" lon="12.210556503480902"><ele>372.0</ele><time>2026-03-29T08:36:25.999Z</time></trkpt><trkpt lat="43.225023357437856" lon="12.210587943734744"><ele>372.0</ele><time>2026-03-29T08:36:27.999Z</time></trkpt><trkpt lat="43.22493396825339" lon="12.210563903350064"><ele>372.0</ele><time>2026-03-29T08:36:29.999Z</time></trkpt><trkpt lat="43.22482637775436" lon="12.21059468566899"><ele>372.0</ele><time>2026-03-29T08:36:31.999Z</time></trkpt><trkpt lat="43.22474537927764" lon="12.210599452448264"><ele>370.0</ele><time>2026-03-29T08:36:33.999Z</time></trkpt><trkpt lat="43.22461882289333" lon="12.210598767854624"><ele>368.0</ele><time>2026-03-29T08:36:35.999Z</time></trkpt><trkpt lat="43.224552524608185" lon="12.210606658459728"><ele>366.0</ele><time>2026-03-29T08:36:36.999Z</time></trkpt><trkpt lat="43.22445212405437" lon="12.210608010225377"><ele>364.0</ele><time>2026-03-29T08:36:38.999Z</time></trkpt><trkpt lat="43.22436737096511" lon="12.210605894164257"><ele>362.0</ele><time>2026-03-29T08:36:40.999Z</time></trkpt><trkpt lat="43.2242910256549" lon="12.210562755241256"><ele>362.0</ele><time>2026-03-29T08:36:43.999Z</time></trkpt><trkpt lat="43.22422291831591" lon="12.21049827986142"><ele>362.0</ele><time>2026-03-29T08:36:44.999Z</time></trkpt><trkpt lat="43.224140267903756" lon="12.210448336856793"><ele>362.0</ele><time>2026-03-29T08:36:45.999Z</time></trkpt><trkpt lat="43.224062985964956" lon="12.210443042076495"><ele>362.0</ele><time>2026-03-29T08:36:46.999Z</time></trkpt><trkpt lat="43.22398639236571" lon="12.210455897036338"><ele>362.0</ele><time>2026-03-29T08:36:47.999Z</time></trkpt><trkpt lat="43.22389660236933" lon="12.210440782635498"><ele>362.0</ele><time>2026-03-29T08:36:49.999Z</time></trkpt><trkpt lat="43.22375179079236" lon="12.21031038637504"><ele>357.8</ele><time>2026-03-29T08:36:51.999Z</time></trkpt><trkpt lat="43.22365686963838" lon="12.210218283209718"><ele>353.6</ele><time>2026-03-29T08:36:52.999Z</time></trkpt><trkpt lat="43.22358146627821" lon="12.210158175689644"><ele>349.40000000000003</ele><time>2026-03-29T08:36:53.999Z</time></trkpt><trkpt lat="43.22351028326305" lon="12.210056373746298"><ele>345.20000000000005</ele><time>2026-03-29T08:36:55.998Z</time></trkpt><trkpt lat="43.22343364462195" lon="12.209996642423604"><ele>341.0</ele><time>2026-03-29T08:36:58Z</time></trkpt><trkpt lat="43.223339509039256" lon="12.209906081693232"><ele>340.4</ele><time>2026-03-29T08:36:59Z</time></trkpt><trkpt lat="43.22324266740328" lon="12.209790657265039"><ele>339.8</ele><time>2026-03-29T08:37:00Z</time></trkpt><trkpt lat="43.22318105858271" lon="12.209733075716349"><ele>339.2</ele><time>2026-03-29T08:37:01Z</time></trkpt><trkpt lat="43.22311218951367" lon="12.209671808676463"><ele>338.59999999999997</ele><time>2026-03-29T08:37:02Z</time></trkpt><trkpt lat="43.222998891733866" lon="12.209599273732906"><ele>338.0</ele><time>2026-03-29T08:37:03Z</time></trkpt><trkpt lat="43.222871804412435" lon="12.2095405882492"><ele>338.0</ele><time>2026-03-29T08:37:04Z</time></trkpt><trkpt lat="43.222763594953335" lon="12.20947344683379"><ele>338.0</ele><time>2026-03-29T08:37:05Z</time></trkpt><trkpt lat="43.22266288465819" lon="12.209389159938901"><ele>338.0</ele><time>2026-03-29T08:37:06Z</time></trkpt><trkpt lat="43.22257666055277" lon="12.209344972769891"><ele>338.0</ele><time>2026-03-29T08:37:07Z</time></trkpt><trkpt lat="43.22252318271836" lon="12.209239363266967"><ele>338.0</ele><time>2026-03-29T08:37:08Z</time></trkpt><trkpt lat="43.22244303541431" lon="12.209130876771917"><ele>338.0</ele><time>2026-03-29T08:37:09Z</time></trkpt><trkpt lat="43.222337770845705" lon="12.2090494730325"><ele>338.0</ele><time>2026-03-29T08:37:10Z</time></trkpt><trkpt lat="43.22224723893103" lon="12.20896027560494"><ele>338.0</ele><time>2026-03-29T08:37:11Z</time></trkpt><trkpt lat="43.22217504096236" lon="12.208853592885319"><ele>338.0</ele><time>2026-03-29T08:37:12Z</time></trkpt><trkpt lat="43.22210823358475" lon="12.208746164876494"><ele>338.0</ele><time>2026-03-29T08:37:13Z</time></trkpt><trkpt lat="43.22204246646249" lon="12.208656657055943"><ele>336.79999999999995</ele><time>2026-03-29T08:37:14Z</time></trkpt><trkpt lat="43.22196204598916" lon="12.208568534947934"><ele>335.6</ele><time>2026-03-29T08:37:15Z</time></trkpt><trkpt lat="43.22188267505194" lon="12.208479539331575"><ele>334.4</ele><time>2026-03-29T08:37:16Z</time></trkpt><trkpt lat="43.2217944474599" lon="12.208378141725547"><ele>333.20000000000005</ele><time>2026-03-29T08:37:17Z</time></trkpt><trkpt lat="43.22169777560797" lon="12.208276916144019"><ele>332.0</ele><time>2026-03-29T08:37:18Z</time></trkpt><trkpt lat="43.22159370716794" lon="12.208167814522476"><ele>333.0</ele><time>2026-03-29T08:37:19Z</time></trkpt><trkpt lat="43.2214737272442" lon="12.208055655363134"><ele>334.0</ele><time>2026-03-29T08:37:20Z</time></trkpt><trkpt lat="43.22135003582897" lon="12.207967940914276"><ele>335.0</ele><time>2026-03-29T08:37:21Z</time></trkpt><trkpt lat="43.221233558356225" lon="12.207892913872989"><ele>336.0</ele><time>2026-03-29T08:37:22Z</time></trkpt><trkpt lat="43.22112975231327" lon="12.207861405503781"><ele>336.0</ele><time>2026-03-29T08:37:23Z</time></trkpt><trkpt lat="43.22105178901971" lon="12.207865703869594"><ele>336.0</ele><time>2026-03-29T08:37:24Z</time></trkpt><trkpt lat="43.220974333290776" lon="12.207868522897735"><ele>336.0</ele><time>2026-03-29T08:37:25Z</time></trkpt><trkpt lat="43.22090701492399" lon="12.207881102800421"><ele>336.0</ele><time>2026-03-29T08:37:26Z</time></trkpt><trkpt lat="43.220770512550786" lon="12.207868109378962"><ele>336.0</ele><time>2026-03-29T08:37:28Z</time></trkpt><trkpt lat="43.22064137630802" lon="12.207843711424344"><ele>333.6</ele><time>2026-03-29T08:37:29Z</time></trkpt><trkpt lat="43.220526823492435" lon="12.207825728931866"><ele>331.20000000000005</ele><time>2026-03-29T08:37:30Z</time></trkpt><trkpt lat="43.22042804153729" lon="12.207851941598783"><ele>328.79999999999995</ele><time>2026-03-29T08:37:31Z</time></trkpt><trkpt lat="43.2203285551106" lon="12.207889304873879"><ele>326.4</ele><time>2026-03-29T08:37:32Z</time></trkpt><trkpt lat="43.22022778343027" lon="12.207938565389048"><ele>324.0</ele><time>2026-03-29T08:37:33Z</time></trkpt><trkpt lat="43.220114274965574" lon="12.207955364325272"><ele>324.0</ele><time>2026-03-29T08:37:34Z</time></trkpt><trkpt lat="43.2200197590271" lon="12.207909502924258"><ele>324.0</ele><time>2026-03-29T08:37:35Z</time></trkpt><trkpt lat="43.219959412774934" lon="12.207815683932944"><ele>324.0</ele><time>2026-03-29T08:37:36Z</time></trkpt><trkpt lat="43.2199281817055" lon="12.207693095677556"><ele>324.0</ele><time>2026-03-29T08:37:37Z</time></trkpt><trkpt lat="43.2198973880074" lon="12.207521260401105"><ele>324.0</ele><time>2026-03-29T08:37:38Z</time></trkpt><trkpt lat="43.21984228506945" lon="12.207313341177409"><ele>323.0</ele><time>2026-03-29T08:37:39Z</time></trkpt><trkpt lat="43.21975441276364" lon="12.20706487067615"><ele>322.0</ele><time>2026-03-29T08:37:40Z</time></trkpt><trkpt lat="43.21964896977255" lon="12.206783845430005"><ele>321.0</ele><time>2026-03-29T08:37:41Z</time></trkpt><trkpt lat="43.21953567603552" lon="12.206491123913942"><ele>320.3333333333333</ele><time>2026-03-29T08:37:42Z</time></trkpt><trkpt lat="43.21943278322896" lon="12.206230911008422"><ele>319.66666666666663</ele><time>2026-03-29T08:37:43Z</time></trkpt><trkpt lat="43.21935077448048" lon="12.205993092275008"><ele>319.0</ele><time>2026-03-29T08:37:44Z</time></trkpt><trkpt lat="43.21930008325973" lon="12.205768712367691"><ele>319.3333333333333</ele><time>2026-03-29T08:37:45Z</time></trkpt><trkpt lat="43.21925549697427" lon="12.205544955206271"><ele>319.6666666666667</ele><time>2026-03-29T08:37:46Z</time></trkpt><trkpt lat="43.2192124497235" lon="12.205313823110226"><ele>320.0</ele><time>2026-03-29T08:37:47Z</time></trkpt><trkpt lat="43.2191864187684" lon="12.205085628147259"><ele>320.0</ele><time>2026-03-29T08:37:48Z</time></trkpt><trkpt lat="43.219178047140794" lon="12.204882882964503"><ele>320.0</ele><time>2026-03-29T08:37:49Z</time></trkpt><trkpt lat="43.21918317660465" lon="12.204708060558325"><ele>320.0</ele><time>2026-03-29T08:37:50Z</time></trkpt><trkpt lat="43.21920200363567" lon="12.204544809834681"><ele>320.0</ele><time>2026-03-29T08:37:51Z</time></trkpt><trkpt lat="43.21925301678923" lon="12.204384162358801"><ele>320.33333333333337</ele><time>2026-03-29T08:37:52Z</time></trkpt><trkpt lat="43.21933250194329" lon="12.2042126786013"><ele>320.6666666666667</ele><time>2026-03-29T08:37:53Z</time></trkpt><trkpt lat="43.2193935107466" lon="12.204021471341267"><ele>321.0</ele><time>2026-03-29T08:37:54Z</time></trkpt><trkpt lat="43.21943982942172" lon="12.203815793624642"><ele>320.25</ele><time>2026-03-29T08:37:55Z</time></trkpt><trkpt lat="43.21946442010528" lon="12.203618521258225"><ele>319.5</ele><time>2026-03-29T08:37:56Z</time></trkpt><trkpt lat="43.21949236569711" lon="12.203442561913239"><ele>318.75</ele><time>2026-03-29T08:37:57Z</time></trkpt><trkpt lat="43.21954231274962" lon="12.203270460197277"><ele>318.0</ele><time>2026-03-29T08:37:57.999Z</time></trkpt><trkpt lat="43.21961225643146" lon="12.203094721452986"><ele>318.0</ele><time>2026-03-29T08:37:58.999Z</time></trkpt><trkpt lat="43.219693487509424" lon="12.202911671501225"><ele>318.0</ele><time>2026-03-29T08:37:59.999Z</time></trkpt><trkpt lat="43.21978654307509" lon="12.202722432527025"><ele>318.0</ele><time>2026-03-29T08:38:00.999Z</time></trkpt><trkpt lat="43.219878826169" lon="12.202521957081283"><ele>318.0</ele><time>2026-03-29T08:38:01.999Z</time></trkpt><trkpt lat="43.21994891478512" lon="12.202326747925946"><ele>318.0</ele><time>2026-03-29T08:38:02.999Z</time></trkpt><trkpt lat="43.2199827701566" lon="12.202160827691259"><ele>318.0</ele><time>2026-03-29T08:38:03.999Z</time></trkpt><trkpt lat="43.21999643350503" lon="12.202041438284738"><ele>318.0</ele><time>2026-03-29T08:38:04.999Z</time></trkpt><trkpt lat="43.21998219262187" lon="12.201955333030492"><ele>318.0</ele><time>2026-03-29T08:38:05.999Z</time></trkpt><trkpt lat="43.21989030709664" lon="12.201835992808613"><ele>317.4</ele><time>2026-03-29T08:38:07.999Z</time></trkpt><trkpt lat="43.21980254015437" lon="12.201755624977762"><ele>316.8</ele><time>2026-03-29T08:38:09.999Z</time></trkpt><trkpt lat="43.21971847299326" lon="12.201677437474103"><ele>316.2</ele><time>2026-03-29T08:38:11.999Z</time></trkpt><trkpt lat="43.219643824896636" lon="12.201557018624548"><ele>315.6</ele><time>2026-03-29T08:38:13.999Z</time></trkpt><trkpt lat="43.21957904424071" lon="12.201519490068359"><ele>315.0</ele><time>2026-03-29T08:38:14.999Z</time></trkpt><trkpt lat="43.219498913320066" lon="12.201517434415843"><ele>315.0</ele><time>2026-03-29T08:38:15.999Z</time></trkpt><trkpt lat="43.21941916561144" lon="12.20156168639071"><ele>315.0</ele><time>2026-03-29T08:38:16.999Z</time></trkpt><trkpt lat="43.21932613478122" lon="12.2016541366494"><ele>315.0</ele><time>2026-03-29T08:38:17.999Z</time></trkpt><trkpt lat="43.219227637653646" lon="12.20174470963449"><ele>315.0</ele><time>2026-03-29T08:38:18.999Z</time></trkpt><trkpt lat="43.21911244461287" lon="12.201829809063936"><ele>315.0</ele><time>2026-03-29T08:38:19.999Z</time></trkpt><trkpt lat="43.218995202610635" lon="12.201907440703321"><ele>315.0</ele><time>2026-03-29T08:38:20.999Z</time></trkpt><trkpt lat="43.21889482780712" lon="12.201971130444699"><ele>315.0</ele><time>2026-03-29T08:38:21.999Z</time></trkpt><trkpt lat="43.218822620898194" lon="12.202019214104427"><ele>315.0</ele><time>2026-03-29T08:38:22.999Z</time></trkpt><trkpt lat="43.21875144055291" lon="12.202020698408854"><ele>315.0</ele><time>2026-03-29T08:38:24.999Z</time></trkpt><trkpt lat="43.21870763250406" lon="12.201929397056048"><ele>314.75</ele><time>2026-03-29T08:38:27.999Z</time></trkpt><trkpt lat="43.21865708637295" lon="12.201770555390775"><ele>314.5</ele><time>2026-03-29T08:38:29.999Z</time></trkpt><trkpt lat="43.21861348132303" lon="12.201633394327583"><ele>314.25</ele><time>2026-03-29T08:38:30.999Z</time></trkpt><trkpt lat="43.218550772759855" lon="12.201460305411365"><ele>314.0</ele><time>2026-03-29T08:38:31.999Z</time></trkpt><trkpt lat="43.21847375627913" lon="12.201243607984129"><ele>313.0</ele><time>2026-03-29T08:38:32.999Z</time></trkpt><trkpt lat="43.21837373378024" lon="12.200995329848363"><ele>312.0</ele><time>2026-03-29T08:38:33.999Z</time></trkpt><trkpt lat="43.21825869211059" lon="12.200701180225844"><ele>311.5</ele><time>2026-03-29T08:38:34.999Z</time></trkpt><trkpt lat="43.218135287486014" lon="12.200383686693606"><ele>311.0</ele><time>2026-03-29T08:38:35.999Z</time></trkpt><trkpt lat="43.217995105522284" lon="12.200051995422996"><ele>310.5</ele><time>2026-03-29T08:38:36.999Z</time></trkpt><trkpt lat="43.21785571577417" lon="12.199711110686598"><ele>310.0</ele><time>2026-03-29T08:38:37.999Z</time></trkpt><trkpt lat="43.2177230793065" lon="12.199374195281436"><ele>310.0</ele><time>2026-03-29T08:38:38.999Z</time></trkpt><trkpt lat="43.2176175250921" lon="12.199093499921291"><ele>310.0</ele><time>2026-03-29T08:38:39.999Z</time></trkpt><trkpt lat="43.2175295084359" lon="12.198871944101173"><ele>310.0</ele><time>2026-03-29T08:38:40.999Z</time></trkpt><trkpt lat="43.21744624224002" lon="12.198671306794825"><ele>310.0</ele><time>2026-03-29T08:38:41.999Z</time></trkpt><trkpt lat="43.21737115526009" lon="12.198464010694728"><ele>310.0</ele><time>2026-03-29T08:38:42.999Z</time></trkpt><trkpt lat="43.21731741586818" lon="12.198234011770266"><ele>310.0</ele><time>2026-03-29T08:38:43.999Z</time></trkpt><trkpt lat="43.21729325641579" lon="12.197997377856376"><ele>310.3333333333333</ele><time>2026-03-29T08:38:44.999Z</time></trkpt><trkpt lat="43.217283863933766" lon="12.197744625062342"><ele>310.6666666666667</ele><time>2026-03-29T08:38:45.999Z</time></trkpt><trkpt lat="43.217259908416096" lon="12.197485381718016"><ele>311.0</ele><time>2026-03-29T08:38:46.999Z</time></trkpt><trkpt lat="43.2172260610798" lon="12.197249354665901"><ele>311.0</ele><time>2026-03-29T08:38:47.999Z</time></trkpt><trkpt lat="43.21719380365634" lon="12.197043638134842"><ele>311.0</ele><time>2026-03-29T08:38:48.999Z</time></trkpt><trkpt lat="43.217167543342015" lon="12.196846562589679"><ele>311.0</ele><time>2026-03-29T08:38:49.999Z</time></trkpt><trkpt lat="43.21714763027718" lon="12.196645901413389"><ele>311.0</ele><time>2026-03-29T08:38:50.999Z</time></trkpt><trkpt lat="43.21714146364816" lon="12.19644215014747"><ele>311.33333333333337</ele><time>2026-03-29T08:38:51.999Z</time></trkpt><trkpt lat="43.21715170835538" lon="12.196250380030927"><ele>311.6666666666667</ele><time>2026-03-29T08:38:52.999Z</time></trkpt><trkpt lat="43.217185548284206" lon="12.196045355244491"><ele>312.0</ele><time>2026-03-29T08:38:53.999Z</time></trkpt><trkpt lat="43.21724629716138" lon="12.195818184015959"><ele>312.0</ele><time>2026-03-29T08:38:54.999Z</time></trkpt><trkpt lat="43.21731363750489" lon="12.195575544627703"><ele>312.0</ele><time>2026-03-29T08:38:55.999Z</time></trkpt><trkpt lat="43.21737804814503" lon="12.195321913997432"><ele>312.0</ele><time>2026-03-29T08:38:56.998Z</time></trkpt><trkpt lat="43.217430761057656" lon="12.195103270335363"><ele>312.0</ele><time>2026-03-29T08:38:57.998Z</time></trkpt><trkpt lat="43.21746958206994" lon="12.194938324217667"><ele>312.0</ele><time>2026-03-29T08:38:58.998Z</time></trkpt><trkpt lat="43.21749116119986" lon="12.194835562370436"><ele>312.0</ele><time>2026-03-29T08:38:59.998Z</time></trkpt><trkpt lat="43.217478913876114" lon="12.194688771281466"><ele>312.0</ele><time>2026-03-29T08:39:01.998Z</time></trkpt><trkpt lat="43.21745357146455" lon="12.194603760841447"><ele>312.0</ele><time>2026-03-29T08:39:02.998Z</time></trkpt><trkpt lat="43.21740323178729" lon="12.194489148796128"><ele>312.3333333333333</ele><time>2026-03-29T08:39:04Z</time></trkpt><trkpt lat="43.217318465114566" lon="12.194345223373743"><ele>312.66666666666663</ele><time>2026-03-29T08:39:05Z</time></trkpt><trkpt lat="43.21723204844822" lon="12.194182025272674"><ele>313.0</ele><time>2026-03-29T08:39:06Z</time></trkpt><trkpt lat="43.21714399638609" lon="12.19398113312595"><ele>313.3333333333333</ele><time>2026-03-29T08:39:07Z</time></trkpt><trkpt lat="43.21706109854596" lon="12.193763613209496"><ele>313.6666666666667</ele><time>2026-03-29T08:39:08Z</time></trkpt><trkpt lat="43.21697106530594" lon="12.19352974256869"><ele>314.0</ele><time>2026-03-29T08:39:09Z</time></trkpt><trkpt lat="43.21685594138872" lon="12.193252024745991"><ele>313.6666666666667</ele><time>2026-03-29T08:39:10Z</time></trkpt><trkpt lat="43.216749628175826" lon="12.192987126017524"><ele>313.3333333333333</ele><time>2026-03-29T08:39:11Z</time></trkpt><trkpt lat="43.216648787126125" lon="12.192747374582728"><ele>313.0</ele><time>2026-03-29T08:39:12Z</time></trkpt><trkpt lat="43.216541121610064" lon="12.192513523537135"><ele>313.5</ele><time>2026-03-29T08:39:13Z</time></trkpt><trkpt lat="43.216470140855684" lon="12.192319245518867"><ele>314.0</ele><time>2026-03-29T08:39:14Z</time></trkpt><trkpt lat="43.21644795889343" lon="12.192162559727096"><ele>314.5</ele><time>2026-03-29T08:39:15Z</time></trkpt><trkpt lat="43.21644517696054" lon="12.192020941573375"><ele>315.0</ele><time>2026-03-29T08:39:16Z</time></trkpt><trkpt lat="43.216439173549524" lon="12.19191721638285"><ele>314.5</ele><time>2026-03-29T08:39:17Z</time></trkpt><trkpt lat="43.216522170432555" lon="12.19183220018321"><ele>314.0</ele><time>2026-03-29T08:39:20Z</time></trkpt><trkpt lat="43.2166307932054" lon="12.191831900201892"><ele>313.5</ele><time>2026-03-29T08:39:21Z</time></trkpt><trkpt lat="43.21675929854481" lon="12.191851025616623"><ele>313.0</ele><time>2026-03-29T08:39:22Z</time></trkpt><trkpt lat="43.21688438981339" lon="12.19184851898529"><ele>313.0</ele><time>2026-03-29T08:39:23Z</time></trkpt><trkpt lat="43.21701826310312" lon="12.191836805616166"><ele>313.0</ele><time>2026-03-29T08:39:24Z</time></trkpt><trkpt lat="43.21715653713212" lon="12.191814761597291"><ele>313.0</ele><time>2026-03-29T08:39:25Z</time></trkpt><trkpt lat="43.217303796770246" lon="12.191796726184814"><ele>313.0</ele><time>2026-03-29T08:39:26Z</time></trkpt><trkpt lat="43.217456947229046" lon="12.191782311571217"><ele>312.75</ele><time>2026-03-29T08:39:27Z</time></trkpt><trkpt lat="43.21760675767629" lon="12.191771081192885"><ele>312.5</ele><time>2026-03-29T08:39:28Z</time></trkpt><trkpt lat="43.21775324500597" lon="12.191759412482659"><ele>312.25</ele><time>2026-03-29T08:39:29Z</time></trkpt><trkpt lat="43.217903459649904" lon="12.191747338291087"><ele>312.0</ele><time>2026-03-29T08:39:30Z</time></trkpt><trkpt lat="43.21805764698041" lon="12.191730203702235"><ele>312.0</ele><time>2026-03-29T08:39:31Z</time></trkpt><trkpt lat="43.218220009584265" lon="12.191714530592586"><ele>312.0</ele><time>2026-03-29T08:39:32Z</time></trkpt><trkpt lat="43.21838045642904" lon="12.191691985500546"><ele>312.0</ele><time>2026-03-29T08:39:33Z</time></trkpt><trkpt lat="43.218518126087346" lon="12.191667729921319"><ele>312.0</ele><time>2026-03-29T08:39:34Z</time></trkpt><trkpt lat="43.21865256080523" lon="12.191641250710987"><ele>312.0</ele><time>2026-03-29T08:39:35Z</time></trkpt><trkpt lat="43.21877905914551" lon="12.191604726511923"><ele>312.0</ele><time>2026-03-29T08:39:36Z</time></trkpt><trkpt lat="43.218883884760295" lon="12.19156422455943"><ele>312.0</ele><time>2026-03-29T08:39:37Z</time></trkpt><trkpt lat="43.218984148991076" lon="12.191509012161658"><ele>313.0</ele><time>2026-03-29T08:39:38Z</time></trkpt><trkpt lat="43.219086655463265" lon="12.191423368296144"><ele>314.0</ele><time>2026-03-29T08:39:39Z</time></trkpt><trkpt lat="43.21918051967722" lon="12.191294057036588"><ele>315.0</ele><time>2026-03-29T08:39:40Z</time></trkpt><trkpt lat="43.219273573478226" lon="12.191096389855387"><ele>316.0</ele><time>2026-03-29T08:39:41Z</time></trkpt><trkpt lat="43.219391630816354" lon="12.190861936584046"><ele>315.5</ele><time>2026-03-29T08:39:42Z</time></trkpt><trkpt lat="43.21954638901387" lon="12.190623266936544"><ele>315.0</ele><time>2026-03-29T08:39:43Z</time></trkpt><trkpt lat="43.21969616385581" lon="12.190390746332135"><ele>315.0</ele><time>2026-03-29T08:39:44Z</time></trkpt><trkpt lat="43.21981120653153" lon="12.190209234183525"><ele>315.0</ele><time>2026-03-29T08:39:45Z</time></trkpt><trkpt lat="43.21991288895405" lon="12.190023922189383"><ele>315.0</ele><time>2026-03-29T08:39:46Z</time></trkpt><trkpt lat="43.22005265857396" lon="12.189793985928095"><ele>316.0</ele><time>2026-03-29T08:39:47Z</time></trkpt><trkpt lat="43.220219417401836" lon="12.189552542107267"><ele>317.0</ele><time>2026-03-29T08:39:48Z</time></trkpt><trkpt lat="43.220376605742224" lon="12.189325477144388"><ele>317.0</ele><time>2026-03-29T08:39:49Z</time></trkpt><trkpt lat="43.22049466307389" lon="12.18915110803046"><ele>317.0</ele><time>2026-03-29T08:39:50Z</time></trkpt><trkpt lat="43.22058513994387" lon="12.189011260129183"><ele>317.0</ele><time>2026-03-29T08:39:51Z</time></trkpt><trkpt lat="43.22066122704023" lon="12.188856202389218"><ele>317.0</ele><time>2026-03-29T08:39:52Z</time></trkpt><trkpt lat="43.22072721780762" lon="12.188662372017028"><ele>316.6666666666667</ele><time>2026-03-29T08:39:53Z</time></trkpt><trkpt lat="43.220776142110104" lon="12.188395928835622"><ele>316.3333333333333</ele><time>2026-03-29T08:39:54Z</time></trkpt><trkpt lat="43.220816376729175" lon="12.188105170006564"><ele>316.0</ele><time>2026-03-29T08:39:55Z</time></trkpt><trkpt lat="43.220842734021275" lon="12.187805853587887"><ele>318.0</ele><time>2026-03-29T08:39:56Z</time></trkpt><trkpt lat="43.22086157281397" lon="12.187485252094973"><ele>320.0</ele><time>2026-03-29T08:39:57Z</time></trkpt><trkpt lat="43.220882679317114" lon="12.187181606680387"><ele>320.75</ele><time>2026-03-29T08:39:58Z</time></trkpt><trkpt lat="43.220904503601396" lon="12.186925114359509"><ele>321.5</ele><time>2026-03-29T08:39:59Z</time></trkpt><trkpt lat="43.220925889066784" lon="12.186726184602026"><ele>322.25</ele><time>2026-03-29T08:40:00Z</time></trkpt><trkpt lat="43.22094800522918" lon="12.186587136407196"><ele>323.0</ele><time>2026-03-29T08:40:00.999Z</time></trkpt><trkpt lat="43.220977276398884" lon="12.186486410145124"><ele>323.0</ele><time>2026-03-29T08:40:02.999Z</time></trkpt><trkpt lat="43.221052523274686" lon="12.186290673308626"><ele>323.0</ele><time>2026-03-29T08:40:04.999Z</time></trkpt><trkpt lat="43.2211255634952" lon="12.186150604653573"><ele>323.0</ele><time>2026-03-29T08:40:05.999Z</time></trkpt><trkpt lat="43.22121707296837" lon="12.186021202858116"><ele>323.0</ele><time>2026-03-29T08:40:06.999Z</time></trkpt><trkpt lat="43.22132714406316" lon="12.185915460909849"><ele>323.0</ele><time>2026-03-29T08:40:07.999Z</time></trkpt><trkpt lat="43.2214489249604" lon="12.185824072057333"><ele>323.0</ele><time>2026-03-29T08:40:08.999Z</time></trkpt><trkpt lat="43.22157470989942" lon="12.18571795805742"><ele>323.0</ele><time>2026-03-29T08:40:09.999Z</time></trkpt><trkpt lat="43.22169491594144" lon="12.185606298905682"><ele>323.0</ele><time>2026-03-29T08:40:10.999Z</time></trkpt><trkpt lat="43.22181010364932" lon="12.185507744258988"><ele>325.0</ele><time>2026-03-29T08:40:11.999Z</time></trkpt><trkpt lat="43.221899532918364" lon="12.185441569483052"><ele>327.0</ele><time>2026-03-29T08:40:12.999Z</time></trkpt><trkpt lat="43.22198252700938" lon="12.185420334290747"><ele>329.0</ele><time>2026-03-29T08:40:13.999Z</time></trkpt><trkpt lat="43.222054589255855" lon="12.185477678658588"><ele>331.0</ele><time>2026-03-29T08:40:14.999Z</time></trkpt><trkpt lat="43.22212105466356" lon="12.185591060054474"><ele>333.0</ele><time>2026-03-29T08:40:15.999Z</time></trkpt><trkpt lat="43.22220008917852" lon="12.185748898768209"><ele>333.3333333333333</ele><time>2026-03-29T08:40:16.999Z</time></trkpt><trkpt lat="43.22231218037775" lon="12.185921431202443"><ele>333.66666666666663</ele><time>2026-03-29T08:40:17.999Z</time></trkpt><trkpt lat="43.22245166943649" lon="12.186120207212035"><ele>334.0</ele><time>2026-03-29T08:40:18.999Z</time></trkpt><trkpt lat="43.22253816328746" lon="12.18631157676331"><ele>337.2</ele><time>2026-03-29T08:40:19.999Z</time></trkpt><trkpt lat="43.22257963529067" lon="12.186490744796824"><ele>340.4</ele><time>2026-03-29T08:40:20.999Z</time></trkpt><trkpt lat="43.222605169600335" lon="12.186646767354356"><ele>343.6</ele><time>2026-03-29T08:40:21.999Z</time></trkpt><trkpt lat="43.222646660160144" lon="12.186743125494438"><ele>346.8</ele><time>2026-03-29T08:40:22.999Z</time></trkpt><trkpt lat="43.222726975582894" lon="12.186789334948752"><ele>350.0</ele><time>2026-03-29T08:40:23.999Z</time></trkpt><trkpt lat="43.222840712441105" lon="12.186812962822756"><ele>350.0</ele><time>2026-03-29T08:40:24.999Z</time></trkpt><trkpt lat="43.22296357008399" lon="12.186835505985854"><ele>350.0</ele><time>2026-03-29T08:40:25.999Z</time></trkpt><trkpt lat="43.223087021921636" lon="12.186873107387367"><ele>350.0</ele><time>2026-03-29T08:40:26.999Z</time></trkpt><trkpt lat="43.22319072657681" lon="12.186916169142783"><ele>350.0</ele><time>2026-03-29T08:40:27.999Z</time></trkpt><trkpt lat="43.22327632236755" lon="12.18692202075622"><ele>350.0</ele><time>2026-03-29T08:40:28.999Z</time></trkpt><trkpt lat="43.223346736211624" lon="12.18688997608024"><ele>353.0</ele><time>2026-03-29T08:40:29.999Z</time></trkpt><trkpt lat="43.22342820387573" lon="12.186822394484723"><ele>356.0</ele><time>2026-03-29T08:40:30.999Z</time></trkpt><trkpt lat="43.22348842417551" lon="12.186780041566573"><ele>359.0</ele><time>2026-03-29T08:40:31.999Z</time></trkpt><trkpt lat="43.22363577211735" lon="12.186744835231123"><ele>362.0</ele><time>2026-03-29T08:40:33.999Z</time></trkpt><trkpt lat="43.22375608680385" lon="12.186687734016994"><ele>365.0</ele><time>2026-03-29T08:40:34.999Z</time></trkpt><trkpt lat="43.22387319290006" lon="12.18659955574081"><ele>365.75</ele><time>2026-03-29T08:40:35.999Z</time></trkpt><trkpt lat="43.22399022647325" lon="12.18651394609401"><ele>366.5</ele><time>2026-03-29T08:40:36.999Z</time></trkpt><trkpt lat="43.224108596472796" lon="12.186439310511558"><ele>367.25</ele><time>2026-03-29T08:40:37.999Z</time></trkpt><trkpt lat="43.22421335375707" lon="12.18637607582057"><ele>368.0</ele><time>2026-03-29T08:40:38.999Z</time></trkpt><trkpt lat="43.2243177339397" lon="12.186312941868024"><ele>369.33333333333337</ele><time>2026-03-29T08:40:39.999Z</time></trkpt><trkpt lat="43.2244027102542" lon="12.186269965190242"><ele>370.6666666666667</ele><time>2026-03-29T08:40:40.999Z</time></trkpt><trkpt lat="43.22449076073398" lon="12.186162634046415"><ele>372.0</ele><time>2026-03-29T08:40:42.999Z</time></trkpt><trkpt lat="43.22448359158138" lon="12.186060999056828"><ele>373.3333333333333</ele><time>2026-03-29T08:40:43.999Z</time></trkpt><trkpt lat="43.22444784385398" lon="12.185968838893638"><ele>374.66666666666663</ele><time>2026-03-29T08:40:44.999Z</time></trkpt><trkpt lat="43.22438135283844" lon="12.185886402787885"><ele>376.0</ele><time>2026-03-29T08:40:45.999Z</time></trkpt><trkpt lat="43.2243023438192" lon="12.185802086355327"><ele>375.66666666666663</ele><time>2026-03-29T08:40:46.999Z</time></trkpt><trkpt lat="43.22425408160363" lon="12.185672745411566"><ele>375.3333333333333</ele><time>2026-03-29T08:40:47.999Z</time></trkpt><trkpt lat="43.224202825120116" lon="12.185560785272225"><ele>375.0</ele><time>2026-03-29T08:40:48.999Z</time></trkpt><trkpt lat="43.22415998638196" lon="12.185481518491564"><ele>374.6666666666667</ele><time>2026-03-29T08:40:49.999Z</time></trkpt><trkpt lat="43.22413923739326" lon="12.185386421832742"><ele>374.33333333333337</ele><time>2026-03-29T08:40:50.999Z</time></trkpt><trkpt lat="43.22414826692048" lon="12.185277173358593"><ele>374.0</ele><time>2026-03-29T08:40:51.999Z</time></trkpt><trkpt lat="43.22417896429832" lon="12.185138482014855"><ele>374.0</ele><time>2026-03-29T08:40:52.999Z</time></trkpt><trkpt lat="43.22422193827649" lon="12.184920205715795"><ele>374.0</ele><time>2026-03-29T08:40:53.999Z</time></trkpt><trkpt lat="43.224265337881" lon="12.18466577709344"><ele>374.0</ele><time>2026-03-29T08:40:54.999Z</time></trkpt><trkpt lat="43.224311229349" lon="12.184410046091108"><ele>373.79999999999995</ele><time>2026-03-29T08:40:55.999Z</time></trkpt><trkpt lat="43.2243497304683" lon="12.18423144437983"><ele>373.59999999999997</ele><time>2026-03-29T08:40:56.999Z</time></trkpt><trkpt lat="43.22433393785108" lon="12.18414149051218"><ele>373.4</ele><time>2026-03-29T08:40:57.999Z</time></trkpt><trkpt lat="43.224316427740895" lon="12.184055654795348"><ele>373.2</ele><time>2026-03-29T08:40:58.999Z</time></trkpt><trkpt lat="43.224288251385865" lon="12.183897328050438"><ele>373.0</ele><time>2026-03-29T08:40:59.999Z</time></trkpt><trkpt lat="43.22424857757177" lon="12.183668291912786"><ele>373.75</ele><time>2026-03-29T08:41:00.998Z</time></trkpt><trkpt lat="43.22423590055741" lon="12.18341854628693"><ele>374.5</ele><time>2026-03-29T08:41:01.998Z</time></trkpt><trkpt lat="43.22422675435785" lon="12.183248418172994"><ele>375.25</ele><time>2026-03-29T08:41:02.998Z</time></trkpt><trkpt lat="43.224171556418135" lon="12.183146361774627"><ele>376.0</ele><time>2026-03-29T08:41:03.998Z</time></trkpt><trkpt lat="43.224100841660544" lon="12.1830450355627"><ele>377.5</ele><time>2026-03-29T08:41:04.998Z</time></trkpt><trkpt lat="43.22399859886298" lon="12.182953975955774"><ele>379.0</ele><time>2026-03-29T08:41:05.998Z</time></trkpt><trkpt lat="43.223886407966226" lon="12.182864304011204"><ele>380.5</ele><time>2026-03-29T08:41:06.998Z</time></trkpt><trkpt lat="43.22376381193843" lon="12.182764180396392"><ele>382.0</ele><time>2026-03-29T08:41:07.998Z</time></trkpt><trkpt lat="43.22362955486811" lon="12.182677261501759"><ele>382.0</ele><time>2026-03-29T08:41:08.998Z</time></trkpt><trkpt lat="43.223513973126806" lon="12.182630433433545"><ele>382.0</ele><time>2026-03-29T08:41:10Z</time></trkpt><trkpt lat="43.223419227369874" lon="12.18257925829366"><ele>382.0</ele><time>2026-03-29T08:41:11Z</time></trkpt><trkpt lat="43.22334591626105" lon="12.182476048003764"><ele>382.0</ele><time>2026-03-29T08:41:12Z</time></trkpt><trkpt lat="43.22329242815825" lon="12.182308890160055"><ele>383.0</ele><time>2026-03-29T08:41:13Z</time></trkpt><trkpt lat="43.22322645303629" lon="12.182120941673674"><ele>384.0</ele><time>2026-03-29T08:41:14Z</time></trkpt><trkpt lat="43.22313350104096" lon="12.181910356215603"><ele>385.0</ele><time>2026-03-29T08:41:15Z</time></trkpt><trkpt lat="43.223035480915776" lon="12.181746713132387"><ele>385.0</ele><time>2026-03-29T08:41:16Z</time></trkpt><trkpt lat="43.22292346723435" lon="12.181618664073975"><ele>385.0</ele><time>2026-03-29T08:41:17Z</time></trkpt><trkpt lat="43.22281848692367" lon="12.181496597965102"><ele>385.0</ele><time>2026-03-29T08:41:18Z</time></trkpt><trkpt lat="43.22273774573347" lon="12.181370150588496"><ele>385.0</ele><time>2026-03-29T08:41:19Z</time></trkpt><trkpt lat="43.22268616614843" lon="12.181221868911924"><ele>386.33333333333337</ele><time>2026-03-29T08:41:20Z</time></trkpt><trkpt lat="43.22266605681465" lon="12.18109862447041"><ele>387.6666666666667</ele><time>2026-03-29T08:41:21Z</time></trkpt><trkpt lat="43.222647877005166" lon="12.181003717063522"><ele>389.0</ele><time>2026-03-29T08:41:23Z</time></trkpt><trkpt lat="43.22264625865292" lon="12.180913925390904"><ele>390.33333333333337</ele><time>2026-03-29T08:41:25Z</time></trkpt><trkpt lat="43.22260664086785" lon="12.180991618845674"><ele>391.6666666666667</ele><time>2026-03-29T08:41:29Z</time></trkpt><trkpt lat="43.22266333272318" lon="12.181122270546492"><ele>393.0</ele><time>2026-03-29T08:41:31Z</time></trkpt><trkpt lat="43.222714228502674" lon="12.181059967796832"><ele>393.0</ele><time>2026-03-29T08:41:34Z</time></trkpt><trkpt lat="43.22274542715379" lon="12.180969239651857"><ele>393.0</ele><time>2026-03-29T08:41:36Z</time></trkpt><trkpt lat="43.22283605642514" lon="12.180864826626392"><ele>393.0</ele><time>2026-03-29T08:41:37Z</time></trkpt><trkpt lat="43.222900597441196" lon="12.180852229455471"><ele>393.0</ele><time>2026-03-29T08:41:38Z</time></trkpt><trkpt lat="43.222987294470435" lon="12.18088306391729"><ele>393.0</ele><time>2026-03-29T08:41:39Z</time></trkpt><trkpt lat="43.22304100298121" lon="12.18093355678702"><ele>393.0</ele><time>2026-03-29T08:41:40Z</time></trkpt><trkpt lat="43.223076809017506" lon="12.18101435631611"><ele>393.0</ele><time>2026-03-29T08:41:41Z</time></trkpt><trkpt lat="43.22312837192495" lon="12.18107501739114"><ele>393.0</ele><time>2026-03-29T08:41:42Z</time></trkpt><trkpt lat="43.22325172868236" lon="12.181042678054471"><ele>393.0</ele><time>2026-03-29T08:41:44Z</time></trkpt><trkpt lat="43.223343535235195" lon="12.181012968810078"><ele>393.0</ele><time>2026-03-29T08:41:45Z</time></trkpt><trkpt lat="43.223482467094726" lon="12.181029491860036"><ele>393.0</ele><time>2026-03-29T08:41:46Z</time></trkpt><trkpt lat="43.22359516946062" lon="12.181038076823903"><ele>397.25</ele><time>2026-03-29T08:41:47Z</time></trkpt><trkpt lat="43.22370511673504" lon="12.18105371099905"><ele>401.5</ele><time>2026-03-29T08:41:48Z</time></trkpt><trkpt lat="43.223809673222775" lon="12.181084880848092"><ele>405.75</ele><time>2026-03-29T08:41:49Z</time></trkpt><trkpt lat="43.223914171368456" lon="12.181155767903967"><ele>410.0</ele><time>2026-03-29T08:41:50Z</time></trkpt><trkpt lat="43.22402968249363" lon="12.181211256834402"><ele>412.8</ele><time>2026-03-29T08:41:51Z</time></trkpt><trkpt lat="43.22412861217402" lon="12.181219784926581"><ele>415.6</ele><time>2026-03-29T08:41:52Z</time></trkpt><trkpt lat="43.22422195897082" lon="12.181216230882038"><ele>418.4</ele><time>2026-03-29T08:41:53Z</time></trkpt><trkpt lat="43.22433375094719" lon="12.181195407594203"><ele>421.2</ele><time>2026-03-29T08:41:54Z</time></trkpt><trkpt lat="43.22444734927367" lon="12.181177133387918"><ele>424.0</ele><time>2026-03-29T08:41:55Z</time></trkpt><trkpt lat="43.22455078217846" lon="12.18115634747308"><ele>424.0</ele><time>2026-03-29T08:41:56Z</time></trkpt><trkpt lat="43.22464018705976" lon="12.181130312781482"><ele>424.0</ele><time>2026-03-29T08:41:58Z</time></trkpt><trkpt lat="43.22478687385896" lon="12.18112038470597"><ele>424.0</ele><time>2026-03-29T08:42:00Z</time></trkpt><trkpt lat="43.224877719519924" lon="12.181116123773739"><ele>424.0</ele><time>2026-03-29T08:42:01Z</time></trkpt><trkpt lat="43.22494887808397" lon="12.1811459775833"><ele>424.0</ele><time>2026-03-29T08:42:02Z</time></trkpt><trkpt lat="43.225040340573855" lon="12.181179464515514"><ele>425.33333333333337</ele><time>2026-03-29T08:42:03Z</time></trkpt><trkpt lat="43.225126625377044" lon="12.18117076907418"><ele>426.6666666666667</ele><time>2026-03-29T08:42:04Z</time></trkpt><trkpt lat="43.22523252276144" lon="12.181159775166181"><ele>428.0</ele><time>2026-03-29T08:42:05Z</time></trkpt><trkpt lat="43.22529861539221" lon="12.181173248035991"><ele>429.33333333333337</ele><time>2026-03-29T08:42:06Z</time></trkpt><trkpt lat="43.225355569542415" lon="12.181044341452738"><ele>430.6666666666667</ele><time>2026-03-29T08:42:08.999Z</time></trkpt><trkpt lat="43.2253477126196" lon="12.180952075608"><ele>432.0</ele><time>2026-03-29T08:42:09.999Z</time></trkpt><trkpt lat="43.22530298296125" lon="12.180831655066314"><ele>432.0</ele><time>2026-03-29T08:42:10.999Z</time></trkpt><trkpt lat="43.22525688114738" lon="12.180712876364488"><ele>432.0</ele><time>2026-03-29T08:42:11.999Z</time></trkpt><trkpt lat="43.22522258705748" lon="12.180622717925628"><ele>432.0</ele><time>2026-03-29T08:42:12.999Z</time></trkpt><trkpt lat="43.22517454961574" lon="12.180515256942998"><ele>432.0</ele><time>2026-03-29T08:42:13.999Z</time></trkpt><trkpt lat="43.22510666702427" lon="12.1804249366453"><ele>432.0</ele><time>2026-03-29T08:42:14.999Z</time></trkpt><trkpt lat="43.22503569611098" lon="12.180360492320416"><ele>432.0</ele><time>2026-03-29T08:42:15.999Z</time></trkpt><trkpt lat="43.22497237747734" lon="12.180306402293109"><ele>431.20000000000005</ele><time>2026-03-29T08:42:16.999Z</time></trkpt><trkpt lat="43.22488986604828" lon="12.180191676463723"><ele>430.40000000000003</ele><time>2026-03-29T08:42:18.999Z</time></trkpt><trkpt lat="43.224815444074544" lon="12.180170331589581"><ele>429.59999999999997</ele><time>2026-03-29T08:42:19.999Z</time></trkpt><trkpt lat="43.22474083970084" lon="12.180175117520234"><ele>428.79999999999995</ele><time>2026-03-29T08:42:20.999Z</time></trkpt><trkpt lat="43.224703255542394" lon="12.180084715057085"><ele>428.0</ele><time>2026-03-29T08:42:22.999Z</time></trkpt><trkpt lat="43.22477184609243" lon="12.1799515535345"><ele>428.0</ele><time>2026-03-29T08:42:24.999Z</time></trkpt><trkpt lat="43.224799709255784" lon="12.17986076810984"><ele>427.99999999999994</ele><time>2026-03-29T08:42:25.999Z</time></trkpt><trkpt lat="43.224858682762644" lon="12.179717140150784"><ele>427.99999999999994</ele><time>2026-03-29T08:42:27.999Z</time></trkpt><trkpt lat="43.22491957188615" lon="12.179682025425583"><ele>428.0</ele><time>2026-03-29T08:42:29.999Z</time></trkpt><trkpt lat="43.225036669529416" lon="12.17964416966413"><ele>428.0</ele><time>2026-03-29T08:42:31.999Z</time></trkpt><trkpt lat="43.22515786426049" lon="12.17959745297063"><ele>431.2</ele><time>2026-03-29T08:42:32.999Z</time></trkpt><trkpt lat="43.225279137457186" lon="12.17952791523687"><ele>434.4</ele><time>2026-03-29T08:42:33.999Z</time></trkpt><trkpt lat="43.22538435022367" lon="12.179450810908099"><ele>437.59999999999997</ele><time>2026-03-29T08:42:34.999Z</time></trkpt><trkpt lat="43.225436809288944" lon="12.179369735973827"><ele>440.79999999999995</ele><time>2026-03-29T08:42:36.999Z</time></trkpt><trkpt lat="43.22545406631094" lon="12.179285242163186"><ele>444.0</ele><time>2026-03-29T08:42:37.999Z</time></trkpt><trkpt lat="43.22546894475259" lon="12.179199042487662"><ele>444.0</ele><time>2026-03-29T08:42:38.999Z</time></trkpt><trkpt lat="43.22554761072637" lon="12.179088093966367"><ele>444.0</ele><time>2026-03-29T08:42:40.999Z</time></trkpt><trkpt lat="43.22562054106375" lon="12.179014218195874"><ele>444.0</ele><time>2026-03-29T08:42:41.999Z</time></trkpt><trkpt lat="43.22562993421547" lon="12.178908032959322"><ele>444.0</ele><time>2026-03-29T08:42:43.999Z</time></trkpt><trkpt lat="43.22561886985688" lon="12.178817744283371"><ele>444.0</ele><time>2026-03-29T08:42:44.999Z</time></trkpt><trkpt lat="43.22558536414655" lon="12.178733361561726"><ele>444.0</ele><time>2026-03-29T08:42:45.999Z</time></trkpt><trkpt lat="43.22556041059703" lon="12.178613528384291"><ele>446.79999999999995</ele><time>2026-03-29T08:42:47.999Z</time></trkpt><trkpt lat="43.22568146236959" lon="12.178526606095268"><ele>449.59999999999997</ele><time>2026-03-29T08:42:49.999Z</time></trkpt><trkpt lat="43.225744414169604" lon="12.178485548318603"><ele>452.4</ele><time>2026-03-29T08:42:50.999Z</time></trkpt><trkpt lat="43.22575310438817" lon="12.178333864968423"><ele>455.2</ele><time>2026-03-29T08:42:52.999Z</time></trkpt><trkpt lat="43.225741409076086" lon="12.178213023523407"><ele>458.0</ele><time>2026-03-29T08:42:53.999Z</time></trkpt><trkpt lat="43.22575506555623" lon="12.178088257495146"><ele>458.49999999999994</ele><time>2026-03-29T08:42:54.999Z</time></trkpt><trkpt lat="43.22577141392853" lon="12.177993338749241"><ele>459.0</ele><time>2026-03-29T08:42:55.999Z</time></trkpt><trkpt lat="43.22574184064274" lon="12.177868286418196"><ele>459.5</ele><time>2026-03-29T08:42:56.999Z</time></trkpt><trkpt lat="43.22570774574432" lon="12.177728192630996"><ele>460.0</ele><time>2026-03-29T08:42:57.999Z</time></trkpt><trkpt lat="43.225707885301766" lon="12.177610626156492"><ele>460.49999999999994</ele><time>2026-03-29T08:42:58.999Z</time></trkpt><trkpt lat="43.22571229327258" lon="12.177511006337415"><ele>461.0</ele><time>2026-03-29T08:42:59.999Z</time></trkpt><trkpt lat="43.225724236924194" lon="12.177327276028505"><ele>461.8</ele><time>2026-03-29T08:43:01.999Z</time></trkpt><trkpt lat="43.225739664054686" lon="12.177178373677755"><ele>462.6</ele><time>2026-03-29T08:43:02.999Z</time></trkpt><trkpt lat="43.22576317275061" lon="12.177017737203156"><ele>463.4</ele><time>2026-03-29T08:43:03.999Z</time></trkpt><trkpt lat="43.22577679310942" lon="12.176888170841329"><ele>464.2</ele><time>2026-03-29T08:43:04.999Z</time></trkpt><trkpt lat="43.22579837869414" lon="12.17679817005083"><ele>465.0</ele><time>2026-03-29T08:43:05.999Z</time></trkpt><trkpt lat="43.22588846653483" lon="12.176695685822025"><ele>465.0</ele><time>2026-03-29T08:43:07.999Z</time></trkpt><trkpt lat="43.225953497461795" lon="12.17660977185015"><ele>465.0</ele><time>2026-03-29T08:43:08.999Z</time></trkpt><trkpt lat="43.226008202324145" lon="12.176505641911547"><ele>465.0</ele><time>2026-03-29T08:43:09.998Z</time></trkpt><trkpt lat="43.22605011097764" lon="12.176394533082783"><ele>465.0</ele><time>2026-03-29T08:43:10.998Z</time></trkpt><trkpt lat="43.22608964156276" lon="12.17630149973024"><ele>465.0</ele><time>2026-03-29T08:43:11.998Z</time></trkpt><trkpt lat="43.22611620910311" lon="12.176212006418034"><ele>465.0</ele><time>2026-03-29T08:43:12.998Z</time></trkpt><trkpt lat="43.22612283343835" lon="12.176117081851393"><ele>466.3333333333333</ele><time>2026-03-29T08:43:13.998Z</time></trkpt><trkpt lat="43.22617543897764" lon="12.175993357632725"><ele>467.66666666666663</ele><time>2026-03-29T08:43:16Z</time></trkpt><trkpt lat="43.22618217733572" lon="12.175904558277349"><ele>469.0</ele><time>2026-03-29T08:43:17Z</time></trkpt><trkpt lat="43.22617018867344" lon="12.17581345039675"><ele>470.3333333333333</ele><time>2026-03-29T08:43:18Z</time></trkpt><trkpt lat="43.22620229589513" lon="12.175672850633257"><ele>471.66666666666663</ele><time>2026-03-29T08:43:20Z</time></trkpt><trkpt lat="43.226258810869126" lon="12.175566663654433"><ele>473.0</ele><time>2026-03-29T08:43:22Z</time></trkpt><trkpt lat="43.22625792326596" lon="12.175455887199313"><ele>475.16666666666663</ele><time>2026-03-29T08:43:24Z</time></trkpt><trkpt lat="43.226218610783825" lon="12.17532314761561"><ele>477.3333333333333</ele><time>2026-03-29T08:43:26Z</time></trkpt><trkpt lat="43.22622553913299" lon="12.1752311945683"><ele>479.5</ele><time>2026-03-29T08:43:38Z</time></trkpt><trkpt lat="43.226233977781135" lon="12.175139792224028"><ele>481.66666666666663</ele><time>2026-03-29T08:43:46Z</time></trkpt><trkpt lat="43.226210813143815" lon="12.17504566751497"><ele>483.8333333333333</ele><time>2026-03-29T08:43:48Z</time></trkpt><trkpt lat="43.2261714244069" lon="12.174955574371337"><ele>486.0</ele><time>2026-03-29T08:43:50Z</time></trkpt><trkpt lat="43.226139773868844" lon="12.174862269419686"><ele>488.4</ele><time>2026-03-29T08:43:52Z</time></trkpt><trkpt lat="43.22608627154293" lon="12.17475072712306"><ele>490.8</ele><time>2026-03-29T08:43:54Z</time></trkpt><trkpt lat="43.22603054628477" lon="12.174655923513692"><ele>493.19999999999993</ele><time>2026-03-29T08:43:55Z</time></trkpt><trkpt lat="43.22596815822201" lon="12.174520987948222"><ele>495.59999999999997</ele><time>2026-03-29T08:43:57Z</time></trkpt><trkpt lat="43.22593448676427" lon="12.174414891846423"><ele>498.0</ele><time>2026-03-29T08:43:59Z</time></trkpt><trkpt lat="43.226019511590536" lon="12.174366055750664"><ele>498.0</ele><time>2026-03-29T08:44:02Z</time></trkpt><trkpt lat="43.226173405635244" lon="12.17425687273174"><ele>498.0</ele><time>2026-03-29T08:44:05Z</time></trkpt><trkpt lat="43.22626568475633" lon="12.174190521960364"><ele>498.0</ele><time>2026-03-29T08:44:07Z</time></trkpt><trkpt lat="43.22635036221696" lon="12.174153066339452"><ele>498.0</ele><time>2026-03-29T08:44:09Z</time></trkpt><trkpt lat="43.22642712556302" lon="12.174104296642247"><ele>501.2</ele><time>2026-03-29T08:44:10.999Z</time></trkpt><trkpt lat="43.226516035689066" lon="12.174073263401564"><ele>504.4</ele><time>2026-03-29T08:44:12.999Z</time></trkpt><trkpt lat="43.22660142192636" lon="12.174037374674548"><ele>507.59999999999997</ele><time>2026-03-29T08:44:14.999Z</time></trkpt><trkpt lat="43.22670209619822" lon="12.173992344951094"><ele>510.79999999999995</ele><time>2026-03-29T08:44:16.999Z</time></trkpt><trkpt lat="43.226818866317" lon="12.17399504103192"><ele>514.0</ele><time>2026-03-29T08:44:18.999Z</time></trkpt><trkpt lat="43.226887061726764" lon="12.173974151417447"><ele>515.8</ele><time>2026-03-29T08:44:19.999Z</time></trkpt><trkpt lat="43.22695329802696" lon="12.17394475237379"><ele>517.5999999999999</ele><time>2026-03-29T08:44:20.999Z</time></trkpt><trkpt lat="43.22701555893731" lon="12.173830233458334"><ele>519.4</ele><time>2026-03-29T08:44:22.999Z</time></trkpt><trkpt lat="43.226945457823824" lon="12.17380541758552"><ele>521.1999999999999</ele><time>2026-03-29T08:44:25.999Z</time></trkpt><trkpt lat="43.22684256921467" lon="12.173633899375837"><ele>523.0</ele><time>2026-03-29T08:44:28.999Z</time></trkpt><trkpt lat="43.22682264751319" lon="12.173500250958316"><ele>523.0</ele><time>2026-03-29T08:44:29.999Z</time></trkpt><trkpt lat="43.22675157067558" lon="12.173428257871302"><ele>523.0</ele><time>2026-03-29T08:44:31.999Z</time></trkpt><trkpt lat="43.22670527332464" lon="12.1733119776116"><ele>523.0</ele><time>2026-03-29T08:44:33.999Z</time></trkpt><trkpt lat="43.22671050701856" lon="12.173152917495461"><ele>523.0</ele><time>2026-03-29T08:44:35.999Z</time></trkpt><trkpt lat="43.2267815103679" lon="12.173063708155087"><ele>523.0</ele><time>2026-03-29T08:44:37.999Z</time></trkpt><trkpt lat="43.22689641616083" lon="12.173024071615782"><ele>525.4</ele><time>2026-03-29T08:44:39.999Z</time></trkpt><trkpt lat="43.22697908881982" lon="12.172942772776437"><ele>527.8</ele><time>2026-03-29T08:44:41.999Z</time></trkpt><trkpt lat="43.22694852462002" lon="12.172840491799848"><ele>530.2</ele><time>2026-03-29T08:44:43.999Z</time></trkpt><trkpt lat="43.22693046122692" lon="12.172690073521853"><ele>532.6</ele><time>2026-03-29T08:44:45.999Z</time></trkpt><trkpt lat="43.22694664215871" lon="12.172551683787116"><ele>535.0</ele><time>2026-03-29T08:44:47.999Z</time></trkpt><trkpt lat="43.226965962051096" lon="12.172438250066431"><ele>537.5</ele><time>2026-03-29T08:44:50.999Z</time></trkpt><trkpt lat="43.22696907406237" lon="12.172338882589589"><ele>540.0</ele><time>2026-03-29T08:44:51.999Z</time></trkpt><trkpt lat="43.22697517513663" lon="12.172243084982284"><ele>542.5</ele><time>2026-03-29T08:44:52.999Z</time></trkpt><trkpt lat="43.22693321238915" lon="12.172113534991167"><ele>545.0</ele><time>2026-03-29T08:44:54.999Z</time></trkpt><trkpt lat="43.22689912727375" lon="12.172034312055413"><ele>547.5</ele><time>2026-03-29T08:44:55.999Z</time></trkpt><trkpt lat="43.22684962044057" lon="12.171955979136024"><ele>550.0</ele><time>2026-03-29T08:44:56.999Z</time></trkpt><trkpt lat="43.226772005181935" lon="12.171830605315046"><ele>550.0</ele><time>2026-03-29T08:44:58.999Z</time></trkpt><trkpt lat="43.22668010991563" lon="12.171712153463842"><ele>550.0</ele><time>2026-03-29T08:45:00.999Z</time></trkpt><trkpt lat="43.22658700834115" lon="12.171592606114215"><ele>550.0</ele><time>2026-03-29T08:45:02.999Z</time></trkpt><trkpt lat="43.22668474927335" lon="12.171531279703826"><ele>550.0</ele><time>2026-03-29T08:45:05.999Z</time></trkpt><trkpt lat="43.22683065062312" lon="12.171490690859626"><ele>552.0</ele><time>2026-03-29T08:45:07.999Z</time></trkpt><trkpt lat="43.22693440028221" lon="12.171504550128972"><ele>554.0</ele><time>2026-03-29T08:45:08.999Z</time></trkpt><trkpt lat="43.227010368598414" lon="12.171493628667342"><ele>556.0</ele><time>2026-03-29T08:45:09.998Z</time></trkpt><trkpt lat="43.22706084055391" lon="12.171405063278412"><ele>558.0</ele><time>2026-03-29T08:45:11.998Z</time></trkpt><trkpt lat="43.22702305538191" lon="12.171320801065164"><ele>560.0</ele><time>2026-03-29T08:45:13.998Z</time></trkpt><trkpt lat="43.227009640050476" lon="12.17107132608216"><ele>560.0</ele><time>2026-03-29T08:45:15.998Z</time></trkpt><trkpt lat="43.22693797975812" lon="12.171013278460602"><ele>560.0</ele><time>2026-03-29T08:45:16.998Z</time></trkpt><trkpt lat="43.22685407766996" lon="12.170945485766186"><ele>560.0</ele><time>2026-03-29T08:45:17.998Z</time></trkpt><trkpt lat="43.226774343003925" lon="12.170875050991798"><ele>560.0</ele><time>2026-03-29T08:45:18.998Z</time></trkpt><trkpt lat="43.22673784844125" lon="12.170735422747363"><ele>560.0</ele><time>2026-03-29T08:45:20.998Z</time></trkpt><trkpt lat="43.226759371151026" lon="12.170585726450975"><ele>560.0</ele><time>2026-03-29T08:45:23Z</time></trkpt><trkpt lat="43.22680916230949" lon="12.17048008171399"><ele>560.0</ele><time>2026-03-29T08:45:25Z</time></trkpt><trkpt lat="43.22692276401766" lon="12.170545782872964"><ele>560.0</ele><time>2026-03-29T08:45:27Z</time></trkpt><trkpt lat="43.22702953199103" lon="12.170602320124924"><ele>560.0</ele><time>2026-03-29T08:45:28Z</time></trkpt><trkpt lat="43.22713927908922" lon="12.170652104237895"><ele>560.0</ele><time>2026-03-29T08:45:29Z</time></trkpt><trkpt lat="43.22726155870903" lon="12.170696803411273"><ele>562.0</ele><time>2026-03-29T08:45:30Z</time></trkpt><trkpt lat="43.22737898697808" lon="12.170742749608626"><ele>564.0</ele><time>2026-03-29T08:45:31Z</time></trkpt><trkpt lat="43.22747355011468" lon="12.170761667744392"><ele>566.0</ele><time>2026-03-29T08:45:32Z</time></trkpt><trkpt lat="43.22738939317346" lon="12.170734435890108"><ele>568.0</ele><time>2026-03-29T08:45:37Z</time></trkpt><trkpt lat="43.22747072599311" lon="12.170714292573187"><ele>570.0</ele><time>2026-03-29T08:45:45Z</time></trkpt><trkpt lat="43.22753499715567" lon="12.170747385839594"><ele>570.0</ele><time>2026-03-29T08:45:46Z</time></trkpt><trkpt lat="43.22758255249705" lon="12.1708166470064"><ele>570.0</ele><time>2026-03-29T08:45:47Z</time></trkpt><trkpt lat="43.22771616169687" lon="12.170908184582084"><ele>570.0</ele><time>2026-03-29T08:45:49Z</time></trkpt><trkpt lat="43.22781902331214" lon="12.170921562080702"><ele>570.0</ele><time>2026-03-29T08:45:50Z</time></trkpt><trkpt lat="43.22790977004396" lon="12.17093322903574"><ele>570.0</ele><time>2026-03-29T08:45:51Z</time></trkpt><trkpt lat="43.22798941623225" lon="12.170902830887767"><ele>570.0</ele><time>2026-03-29T08:45:52Z</time></trkpt><trkpt lat="43.228064223237276" lon="12.17086224983823"><ele>570.0</ele><time>2026-03-29T08:45:53Z</time></trkpt><trkpt lat="43.2281310827821" lon="12.170858748320608"><ele>570.0</ele><time>2026-03-29T08:45:54Z</time></trkpt><trkpt lat="43.22819847238649" lon="12.170907675119164"><ele>570.0</ele><time>2026-03-29T08:45:55Z</time></trkpt><trkpt lat="43.22824854996998" lon="12.17099887643331"><ele>570.0</ele><time>2026-03-29T08:45:56Z</time></trkpt><trkpt lat="43.228310927290764" lon="12.171040775680755"><ele>570.0</ele><time>2026-03-29T08:45:57Z</time></trkpt><trkpt lat="43.22835100270398" lon="12.17112482614044"><ele>570.0</ele><time>2026-03-29T08:45:58Z</time></trkpt><trkpt lat="43.228417732743964" lon="12.171228960482987"><ele>570.4</ele><time>2026-03-29T08:46:00Z</time></trkpt><trkpt lat="43.2285567144344" lon="12.171241647850243"><ele>570.8</ele><time>2026-03-29T08:46:02Z</time></trkpt><trkpt lat="43.228648707572276" lon="12.171273732801453"><ele>571.2</ele><time>2026-03-29T08:46:03Z</time></trkpt><trkpt lat="43.228748216608594" lon="12.171341064889468"><ele>571.6</ele><time>2026-03-29T08:46:04Z</time></trkpt><trkpt lat="43.22883914694167" lon="12.171392271500482"><ele>572.0</ele><time>2026-03-29T08:46:05Z</time></trkpt><trkpt lat="43.22889246866329" lon="12.17144743174929"><ele>574.0</ele><time>2026-03-29T08:46:06Z</time></trkpt><trkpt lat="43.228977457602724" lon="12.171481129067907"><ele>576.0</ele><time>2026-03-29T08:46:07Z</time></trkpt><trkpt lat="43.22905519710415" lon="12.171502018847233"><ele>578.0</ele><time>2026-03-29T08:46:08Z</time></trkpt><trkpt lat="43.2291643750164" lon="12.171529012117793"><ele>580.0</ele><time>2026-03-29T08:46:09Z</time></trkpt><trkpt lat="43.229255068264166" lon="12.171597754785598"><ele>582.0</ele><time>2026-03-29T08:46:10Z</time></trkpt><trkpt lat="43.2293645293916" lon="12.171711730497831"><ele>578.0</ele><time>2026-03-29T08:46:10.999Z</time></trkpt><trkpt lat="43.22946010834717" lon="12.171802068773554"><ele>574.0</ele><time>2026-03-29T08:46:11.999Z</time></trkpt><trkpt lat="43.22951646275681" lon="12.171862773813729"><ele>570.0</ele><time>2026-03-29T08:46:12.999Z</time></trkpt><trkpt lat="43.22956543965427" lon="12.171929749406216"><ele>566.0</ele><time>2026-03-29T08:46:13.999Z</time></trkpt><trkpt lat="43.22962436325313" lon="12.172003120015606"><ele>562.0</ele><time>2026-03-29T08:46:14.999Z</time></trkpt><trkpt lat="43.229677486420016" lon="12.172052451533157"><ele>558.0</ele><time>2026-03-29T08:46:15.999Z</time></trkpt><trkpt lat="43.229752076123766" lon="12.172085135985313"><ele>559.4</ele><time>2026-03-29T08:46:16.999Z</time></trkpt><trkpt lat="43.22990154277731" lon="12.172119419232608"><ele>560.8</ele><time>2026-03-29T08:46:18.999Z</time></trkpt><trkpt lat="43.23000291989458" lon="12.172149186342141"><ele>562.2</ele><time>2026-03-29T08:46:19.999Z</time></trkpt><trkpt lat="43.230092542562964" lon="12.172172951475995"><ele>563.6</ele><time>2026-03-29T08:46:20.999Z</time></trkpt><trkpt lat="43.23017273522018" lon="12.172179734282375"><ele>565.0</ele><time>2026-03-29T08:46:21.999Z</time></trkpt><trkpt lat="43.230257929734805" lon="12.172151743380773"><ele>565.0</ele><time>2026-03-29T08:46:22.999Z</time></trkpt><trkpt lat="43.23033734638599" lon="12.172096920718507"><ele>565.0</ele><time>2026-03-29T08:46:23.999Z</time></trkpt><trkpt lat="43.23042905063518" lon="12.17205904732828"><ele>565.0</ele><time>2026-03-29T08:46:24.999Z</time></trkpt><trkpt lat="43.23051213163" lon="12.172027968096868"><ele>565.0</ele><time>2026-03-29T08:46:25.999Z</time></trkpt><trkpt lat="43.23058944449786" lon="12.17196985742549"><ele>565.0</ele><time>2026-03-29T08:46:26.999Z</time></trkpt><trkpt lat="43.230671176348075" lon="12.171877688488284"><ele>563.5</ele><time>2026-03-29T08:46:27.999Z</time></trkpt><trkpt lat="43.230752464932365" lon="12.171805264497593"><ele>562.0</ele><time>2026-03-29T08:46:28.999Z</time></trkpt><trkpt lat="43.230781737717535" lon="12.171725283078347"><ele>560.5</ele><time>2026-03-29T08:46:29.999Z</time></trkpt><trkpt lat="43.23077624233453" lon="12.171627849165866"><ele>559.0</ele><time>2026-03-29T08:46:30.999Z</time></trkpt><trkpt lat="43.230800127422974" lon="12.171511555032067"><ele>557.5</ele><time>2026-03-29T08:46:31.999Z</time></trkpt><trkpt lat="43.23084281766034" lon="12.171391210533457"><ele>556.0</ele><time>2026-03-29T08:46:32.999Z</time></trkpt><trkpt lat="43.23089271436295" lon="12.171284597507764"><ele>556.0</ele><time>2026-03-29T08:46:33.999Z</time></trkpt><trkpt lat="43.23095990823623" lon="12.17120485751912"><ele>556.0</ele><time>2026-03-29T08:46:34.999Z</time></trkpt><trkpt lat="43.23099469090164" lon="12.171101943552253"><ele>556.0</ele><time>2026-03-29T08:46:35.999Z</time></trkpt><trkpt lat="43.23100177334523" lon="12.171011161500601"><ele>556.0</ele><time>2026-03-29T08:46:36.999Z</time></trkpt><trkpt lat="43.231033677966465" lon="12.170852761676953"><ele>556.0</ele><time>2026-03-29T08:46:38.999Z</time></trkpt><trkpt lat="43.231128438087914" lon="12.170775097959293"><ele>556.0</ele><time>2026-03-29T08:46:40.999Z</time></trkpt><trkpt lat="43.231212014874984" lon="12.170764719852789"><ele>556.0</ele><time>2026-03-29T08:46:41.999Z</time></trkpt><trkpt lat="43.231302184110575" lon="12.170708308139737"><ele>556.0</ele><time>2026-03-29T08:46:42.999Z</time></trkpt><trkpt lat="43.231356403116415" lon="12.170605947850635"><ele>556.0</ele><time>2026-03-29T08:46:43.999Z</time></trkpt><trkpt lat="43.23138806901355" lon="12.170522132291815"><ele>556.0</ele><time>2026-03-29T08:46:44.999Z</time></trkpt><trkpt lat="43.23139786342645" lon="12.170425782552114"><ele>556.0</ele><time>2026-03-29T08:46:45.999Z</time></trkpt><trkpt lat="43.23140143653519" lon="12.170338603322636"><ele>557.25</ele><time>2026-03-29T08:46:46.999Z</time></trkpt><trkpt lat="43.231480709846295" lon="12.170253235387184"><ele>558.5</ele><time>2026-03-29T08:46:48.999Z</time></trkpt><trkpt lat="43.23155063667366" lon="12.170254951200368"><ele>559.75</ele><time>2026-03-29T08:46:50.999Z</time></trkpt><trkpt lat="43.2317904943605" lon="12.170126855349666"><ele>561.0</ele><time>2026-03-29T08:46:51.999Z</time></trkpt><trkpt lat="43.231864035928936" lon="12.170108319052119"><ele>561.0</ele><time>2026-03-29T08:46:52.999Z</time></trkpt><trkpt lat="43.231941502785354" lon="12.170069028468841"><ele>561.0</ele><time>2026-03-29T08:46:53.999Z</time></trkpt><trkpt lat="43.232010278097405" lon="12.16999895526612"><ele>561.0</ele><time>2026-03-29T08:46:54.999Z</time></trkpt><trkpt lat="43.23208739612433" lon="12.169940796510256"><ele>561.0</ele><time>2026-03-29T08:46:55.999Z</time></trkpt><trkpt lat="43.23216496979357" lon="12.169885620748396"><ele>561.0</ele><time>2026-03-29T08:46:56.999Z</time></trkpt><trkpt lat="43.232239885224104" lon="12.169828916375634"><ele>561.0</ele><time>2026-03-29T08:46:57.999Z</time></trkpt><trkpt lat="43.23230834032378" lon="12.169738889182865"><ele>562.2</ele><time>2026-03-29T08:46:58.999Z</time></trkpt><trkpt lat="43.23236427855346" lon="12.16962562192139"><ele>563.4000000000001</ele><time>2026-03-29T08:46:59.999Z</time></trkpt><trkpt lat="43.23241444649453" lon="12.16949369384679"><ele>564.6</ele><time>2026-03-29T08:47:00.999Z</time></trkpt><trkpt lat="43.23246555899553" lon="12.169364127903975"><ele>565.8000000000001</ele><time>2026-03-29T08:47:01.999Z</time></trkpt><trkpt lat="43.23252471793201" lon="12.1692797349852"><ele>567.0</ele><time>2026-03-29T08:47:02.999Z</time></trkpt><trkpt lat="43.232593952438684" lon="12.16919062967043"><ele>567.0</ele><time>2026-03-29T08:47:03.999Z</time></trkpt><trkpt lat="43.23266305607132" lon="12.169096804132367"><ele>567.0</ele><time>2026-03-29T08:47:04.999Z</time></trkpt><trkpt lat="43.23273431573616" lon="12.169008482745749"><ele>567.0</ele><time>2026-03-29T08:47:05.999Z</time></trkpt><trkpt lat="43.232811390408074" lon="12.168930017694557"><ele>567.0</ele><time>2026-03-29T08:47:06.999Z</time></trkpt><trkpt lat="43.232899197561586" lon="12.168827441258252"><ele>567.0</ele><time>2026-03-29T08:47:07.999Z</time></trkpt><trkpt lat="43.232988912912866" lon="12.168752649848441"><ele>568.8000000000001</ele><time>2026-03-29T08:47:08.999Z</time></trkpt><trkpt lat="43.23307513348982" lon="12.168712105201173"><ele>570.6</ele><time>2026-03-29T08:47:09.999Z</time></trkpt><trkpt lat="43.23314734500393" lon="12.168773889441706"><ele>572.4000000000001</ele><time>2026-03-29T08:47:11.998Z</time></trkpt><trkpt lat="43.23324722312478" lon="12.16881553673169"><ele>574.2</ele><time>2026-03-29T08:47:14.998Z</time></trkpt><trkpt lat="43.233352204683506" lon="12.168749808925723"><ele>576.0</ele><time>2026-03-29T08:47:15.998Z</time></trkpt><trkpt lat="43.23342162428268" lon="12.168783392513351"><ele>576.0</ele><time>2026-03-29T08:47:16.998Z</time></trkpt><trkpt lat="43.23348934408563" lon="12.16878424002079"><ele>576.0</ele><time>2026-03-29T08:47:17.998Z</time></trkpt><trkpt lat="43.233546391212826" lon="12.168713386268387"><ele>576.0</ele><time>2026-03-29T08:47:18.998Z</time></trkpt><trkpt lat="43.23349759349383" lon="12.168586162165548"><ele>576.0</ele><time>2026-03-29T08:47:20.998Z</time></trkpt><trkpt lat="43.23339445315212" lon="12.168569962705616"><ele>576.0</ele><time>2026-03-29T08:47:22.998Z</time></trkpt><trkpt lat="43.23328154011817" lon="12.16849820112389"><ele>576.0</ele><time>2026-03-29T08:47:24.998Z</time></trkpt><trkpt lat="43.23335028028244" lon="12.168382579789647"><ele>576.0</ele><time>2026-03-29T08:47:28Z</time></trkpt><trkpt lat="43.23336090714473" lon="12.168296086136097"><ele>576.0</ele><time>2026-03-29T08:47:29Z</time></trkpt><trkpt lat="43.2333741489995" lon="12.16816060758993"><ele>576.0</ele><time>2026-03-29T08:47:30Z</time></trkpt><trkpt lat="43.23337420592954" lon="12.167990494483938"><ele>576.0</ele><time>2026-03-29T08:47:31Z</time></trkpt><trkpt lat="43.23334356678008" lon="12.167872757371416"><ele>576.8333333333334</ele><time>2026-03-29T08:47:32Z</time></trkpt><trkpt lat="43.23331341387017" lon="12.167796211768072"><ele>577.6666666666666</ele><time>2026-03-29T08:47:33Z</time></trkpt><trkpt lat="43.23330323845836" lon="12.167640191510937"><ele>578.5</ele><time>2026-03-29T08:47:35Z</time></trkpt><trkpt lat="43.2332993739126" lon="12.16752937359365"><ele>579.3333333333333</ele><time>2026-03-29T08:47:36Z</time></trkpt><trkpt lat="43.23328927776388" lon="12.167420869988511"><ele>580.1666666666666</ele><time>2026-03-29T08:47:37Z</time></trkpt><trkpt lat="43.23330258964668" lon="12.167317990171428"><ele>581.0</ele><time>2026-03-29T08:47:38Z</time></trkpt><trkpt lat="43.2333194963308" lon="12.16723160352672"><ele>581.4</ele><time>2026-03-29T08:47:39Z</time></trkpt><trkpt lat="43.23334136586277" lon="12.167099326897572"><ele>581.8</ele><time>2026-03-29T08:47:40Z</time></trkpt><trkpt lat="43.23335407244566" lon="12.166934066711057"><ele>582.1999999999999</ele><time>2026-03-29T08:47:41Z</time></trkpt><trkpt lat="43.23335674755466" lon="12.166818717054449"><ele>582.6</ele><time>2026-03-29T08:47:42Z</time></trkpt><trkpt lat="43.23334622424517" lon="12.166724342226953"><ele>583.0</ele><time>2026-03-29T08:47:43Z</time></trkpt><trkpt lat="43.233333084781755" lon="12.166614001200307"><ele>583.0</ele><time>2026-03-29T08:47:45Z</time></trkpt><trkpt lat="43.23340553364731" lon="12.166676039677947"><ele>583.0</ele><time>2026-03-29T08:47:47Z</time></trkpt><trkpt lat="43.23356774756304" lon="12.166660021678133"><ele>583.0</ele><time>2026-03-29T08:47:51Z</time></trkpt><trkpt lat="43.233677374674926" lon="12.166673441721038"><ele>583.0</ele><time>2026-03-29T08:47:53Z</time></trkpt><trkpt lat="43.23376132981006" lon="12.166655792592207"><ele>583.0</ele><time>2026-03-29T08:47:54Z</time></trkpt><trkpt lat="43.23385754071685" lon="12.166594081503975"><ele>582.25</ele><time>2026-03-29T08:47:55Z</time></trkpt><trkpt lat="43.23397962413027" lon="12.166517552318476"><ele>581.5</ele><time>2026-03-29T08:47:56Z</time></trkpt><trkpt lat="43.234090472352506" lon="12.166446912302817"><ele>580.75</ele><time>2026-03-29T08:47:57Z</time></trkpt><trkpt lat="43.234213724273566" lon="12.166383582824407"><ele>580.0</ele><time>2026-03-29T08:47:58Z</time></trkpt><trkpt lat="43.234334164319456" lon="12.166334860795297"><ele>580.0</ele><time>2026-03-29T08:47:59Z</time></trkpt><trkpt lat="43.234443302630865" lon="12.166415864805392"><ele>580.0</ele><time>2026-03-29T08:48:01Z</time></trkpt><trkpt lat="43.234533012627345" lon="12.166478967444164"><ele>580.0</ele><time>2026-03-29T08:48:02Z</time></trkpt><trkpt lat="43.23464125676008" lon="12.166513572537857"><ele>580.0</ele><time>2026-03-29T08:48:03Z</time></trkpt><trkpt lat="43.234767666307626" lon="12.16654146379859"><ele>576.8</ele><time>2026-03-29T08:48:04Z</time></trkpt><trkpt lat="43.23488018257106" lon="12.166566735644796"><ele>573.6</ele><time>2026-03-29T08:48:05Z</time></trkpt><trkpt lat="43.23495821016941" lon="12.16659300481672"><ele>570.4</ele><time>2026-03-29T08:48:06Z</time></trkpt><trkpt lat="43.23502866508637" lon="12.16665594228837"><ele>567.2</ele><time>2026-03-29T08:48:07Z</time></trkpt><trkpt lat="43.23509457893491" lon="12.166727237374035"><ele>564.0</ele><time>2026-03-29T08:48:08Z</time></trkpt><trkpt lat="43.235186457418436" lon="12.166784300343743"><ele>564.0</ele><time>2026-03-29T08:48:09Z</time></trkpt><trkpt lat="43.235246820664976" lon="12.166868386218654"><ele>564.0</ele><time>2026-03-29T08:48:10Z</time></trkpt><trkpt lat="43.23529404324611" lon="12.166925836653865"><ele>564.0</ele><time>2026-03-29T08:48:11Z</time></trkpt><trkpt lat="43.23536761112817" lon="12.16698950799617"><ele>564.0</ele><time>2026-03-29T08:48:12Z</time></trkpt><trkpt lat="43.235442378579855" lon="12.167065706082996"><ele>564.0</ele><time>2026-03-29T08:48:13Z</time></trkpt><trkpt lat="43.23552382462009" lon="12.16710385126333"><ele>564.0</ele><time>2026-03-29T08:48:14Z</time></trkpt><trkpt lat="43.23559308664413" lon="12.16714411898097"><ele>564.6666666666666</ele><time>2026-03-29T08:48:14.999Z</time></trkpt><trkpt lat="43.23564679686237" lon="12.16719798593894"><ele>565.3333333333334</ele><time>2026-03-29T08:48:15.999Z</time></trkpt><trkpt lat="43.23570717439684" lon="12.16729043446487"><ele>566.0</ele><time>2026-03-29T08:48:16.999Z</time></trkpt><trkpt lat="43.23576242750511" lon="12.167334774203905"><ele>566.6666666666667</ele><time>2026-03-29T08:48:17.999Z</time></trkpt><trkpt lat="43.23582662724359" lon="12.167435554264895"><ele>567.3333333333334</ele><time>2026-03-29T08:48:19.999Z</time></trkpt><trkpt lat="43.23593195297434" lon="12.167424466661336"><ele>568.0</ele><time>2026-03-29T08:48:21.999Z</time></trkpt><trkpt lat="43.23597909393458" lon="12.16736088952782"><ele>568.0</ele><time>2026-03-29T08:48:22.999Z</time></trkpt><trkpt lat="43.23601700360103" lon="12.16727484302314"><ele>568.0</ele><time>2026-03-29T08:48:23.999Z</time></trkpt><trkpt lat="43.236071880852414" lon="12.167188500038016"><ele>568.0</ele><time>2026-03-29T08:48:25.999Z</time></trkpt><trkpt lat="43.23611576583846" lon="12.167095978238514"><ele>568.0</ele><time>2026-03-29T08:48:26.999Z</time></trkpt><trkpt lat="43.236145778502724" lon="12.16699767564196"><ele>568.0</ele><time>2026-03-29T08:48:27.999Z</time></trkpt><trkpt lat="43.23618660232056" lon="12.166895353802458"><ele>568.0</ele><time>2026-03-29T08:48:28.999Z</time></trkpt><trkpt lat="43.23622538434402" lon="12.166804014798139"><ele>568.0</ele><time>2026-03-29T08:48:29.999Z</time></trkpt><trkpt lat="43.23629197732361" lon="12.1667598670155"><ele>568.0</ele><time>2026-03-29T08:48:31.999Z</time></trkpt><trkpt lat="43.236367116559926" lon="12.16681488893943"><ele>568.0</ele><time>2026-03-29T08:48:34.999Z</time></trkpt><trkpt lat="43.23642013494651" lon="12.166861620433728"><ele>568.0</ele><time>2026-03-29T08:48:36.999Z</time></trkpt><trkpt lat="43.236562973686205" lon="12.166901578126629"><ele>568.0</ele><time>2026-03-29T08:48:37.999Z</time></trkpt><trkpt lat="43.236678497195356" lon="12.166975414792159"><ele>565.5</ele><time>2026-03-29T08:48:38.999Z</time></trkpt><trkpt lat="43.236766217440774" lon="12.167034575058803"><ele>563.0</ele><time>2026-03-29T08:48:39.999Z</time></trkpt><trkpt lat="43.236832014529746" lon="12.167105260905954"><ele>560.5</ele><time>2026-03-29T08:48:40.999Z</time></trkpt><trkpt lat="43.23690558066589" lon="12.167165968241394"><ele>558.0</ele><time>2026-03-29T08:48:41.999Z</time></trkpt><trkpt lat="43.23698335326814" lon="12.167167018832357"><ele>555.5</ele><time>2026-03-29T08:48:42.999Z</time></trkpt><trkpt lat="43.23706008760185" lon="12.167131313326507"><ele>553.0</ele><time>2026-03-29T08:48:43.999Z</time></trkpt><trkpt lat="43.23715064577382" lon="12.167113670747572"><ele>553.0</ele><time>2026-03-29T08:48:44.999Z</time></trkpt><trkpt lat="43.23724087260098" lon="12.167088137228799"><ele>553.0</ele><time>2026-03-29T08:48:45.999Z</time></trkpt><trkpt lat="43.23732230177998" lon="12.167040580098675"><ele>553.0</ele><time>2026-03-29T08:48:46.999Z</time></trkpt><trkpt lat="43.2374077993611" lon="12.167023824557273"><ele>553.0</ele><time>2026-03-29T08:48:47.999Z</time></trkpt><trkpt lat="43.23748155422218" lon="12.166999159182787"><ele>553.0</ele><time>2026-03-29T08:48:48.999Z</time></trkpt><trkpt lat="43.23756039153415" lon="12.166977955067436"><ele>553.0</ele><time>2026-03-29T08:48:49.999Z</time></trkpt><trkpt lat="43.237639683623996" lon="12.16696991334789"><ele>551.6666666666667</ele><time>2026-03-29T08:48:50.999Z</time></trkpt><trkpt lat="43.237725044023385" lon="12.166975679558197"><ele>550.3333333333334</ele><time>2026-03-29T08:48:51.999Z</time></trkpt><trkpt lat="43.23780295453096" lon="12.167022930887278"><ele>549.0</ele><time>2026-03-29T08:48:52.999Z</time></trkpt><trkpt lat="43.237886430465025" lon="12.167055850266237"><ele>547.6666666666666</ele><time>2026-03-29T08:48:53.999Z</time></trkpt><trkpt lat="43.23797595600905" lon="12.167072014793009"><ele>546.3333333333333</ele><time>2026-03-29T08:48:54.999Z</time></trkpt><trkpt lat="43.238076288709635" lon="12.167082316131458"><ele>545.0</ele><time>2026-03-29T08:48:55.999Z</time></trkpt><trkpt lat="43.238167051293" lon="12.167081976870108"><ele>542.1666666666666</ele><time>2026-03-29T08:48:56.999Z</time></trkpt><trkpt lat="43.23825113974928" lon="12.167067784893248"><ele>539.3333333333333</ele><time>2026-03-29T08:48:57.999Z</time></trkpt><trkpt lat="43.23832036787916" lon="12.167045498631348"><ele>536.5</ele><time>2026-03-29T08:48:58.999Z</time></trkpt><trkpt lat="43.23838645676301" lon="12.16703640230873"><ele>533.6666666666666</ele><time>2026-03-29T08:48:59.999Z</time></trkpt><trkpt lat="43.238454229849246" lon="12.167078352696137"><ele>530.8333333333334</ele><time>2026-03-29T08:49:00.999Z</time></trkpt><trkpt lat="43.23854033800743" lon="12.167138445601681"><ele>528.0</ele><time>2026-03-29T08:49:01.999Z</time></trkpt><trkpt lat="43.23863026896438" lon="12.167171668680574"><ele>528.0</ele><time>2026-03-29T08:49:02.999Z</time></trkpt><trkpt lat="43.238707555272576" lon="12.167184518600358"><ele>528.0</ele><time>2026-03-29T08:49:05.999Z</time></trkpt><trkpt lat="43.23870364926872" lon="12.16709670554723"><ele>528.0</ele><time>2026-03-29T08:49:07.999Z</time></trkpt><trkpt lat="43.238621171280904" lon="12.16712778441276"><ele>528.0</ele><time>2026-03-29T08:49:12.999Z</time></trkpt><trkpt lat="43.2385885320133" lon="12.167006567383305"><ele>528.0</ele><time>2026-03-29T08:49:13.998Z</time></trkpt><trkpt lat="43.23871372136617" lon="12.166899966884701"><ele>533.0</ele><time>2026-03-29T08:49:16.998Z</time></trkpt><trkpt lat="43.23840212670075" lon="12.164864762094012"><ele>532.6666666666666</ele><time>2026-03-29T08:49:20.998Z</time></trkpt><trkpt lat="43.23825695565185" lon="12.164573521278527"><ele>532.3333333333334</ele><time>2026-03-29T08:49:21.998Z</time></trkpt><trkpt lat="43.238231114005174" lon="12.164397491576763"><ele>532.0</ele><time>2026-03-29T08:49:22.998Z</time></trkpt><trkpt lat="43.23823907349413" lon="12.164183181223175"><ele>531.3333333333334</ele><time>2026-03-29T08:49:23.998Z</time></trkpt><trkpt lat="43.23829136554933" lon="12.163990446237962"><ele>530.6666666666666</ele><time>2026-03-29T08:49:24.998Z</time></trkpt><trkpt lat="43.238275500534115" lon="12.163782757545658"><ele>530.0</ele><time>2026-03-29T08:49:25.998Z</time></trkpt><trkpt lat="43.238223724643284" lon="12.163567257485903"><ele>530.0</ele><time>2026-03-29T08:49:26.998Z</time></trkpt><trkpt lat="43.23814067367624" lon="12.163347115770609"><ele>530.0</ele><time>2026-03-29T08:49:27.998Z</time></trkpt><trkpt lat="43.23805847764204" lon="12.163228580706617"><ele>530.0</ele><time>2026-03-29T08:49:28.998Z</time></trkpt><trkpt lat="43.2379439805531" lon="12.163177450748963"><ele>530.0</ele><time>2026-03-29T08:49:29.998Z</time></trkpt><trkpt lat="43.23783156656275" lon="12.163108507484834"><ele>534.5</ele><time>2026-03-29T08:49:30.998Z</time></trkpt><trkpt lat="43.23771081257229" lon="12.163043148249042"><ele>539.0</ele><time>2026-03-29T08:49:31.998Z</time></trkpt><trkpt lat="43.23761034689374" lon="12.162958966205403"><ele>543.5</ele><time>2026-03-29T08:49:32.998Z</time></trkpt><trkpt lat="43.23761647723842" lon="12.162797264838092"><ele>548.0</ele><time>2026-03-29T08:49:34Z</time></trkpt><trkpt lat="43.2375683806599" lon="12.1626880050003"><ele>548.0</ele><time>2026-03-29T08:49:35Z</time></trkpt><trkpt lat="43.23750858331896" lon="12.1625464859171"><ele>548.0</ele><time>2026-03-29T08:49:36Z</time></trkpt><trkpt lat="43.23742298116002" lon="12.162450134925457"><ele>548.0</ele><time>2026-03-29T08:49:37Z</time></trkpt><trkpt lat="43.23731287579554" lon="12.162357935944891"><ele>548.0</ele><time>2026-03-29T08:49:38Z</time></trkpt><trkpt lat="43.23722444888389" lon="12.16230146444447"><ele>553.5</ele><time>2026-03-29T08:49:39Z</time></trkpt><trkpt lat="43.23712321128302" lon="12.16231707422741"><ele>559.0</ele><time>2026-03-29T08:49:40Z</time></trkpt><trkpt lat="43.23700566191246" lon="12.162290421709827"><ele>564.5</ele><time>2026-03-29T08:49:42Z</time></trkpt><trkpt lat="43.23700310528728" lon="12.162119851030734"><ele>570.0</ele><time>2026-03-29T08:49:44Z</time></trkpt><trkpt lat="43.23697515025424" lon="12.16195485441251"><ele>570.0</ele><time>2026-03-29T08:49:45Z</time></trkpt><trkpt lat="43.23692950620719" lon="12.161793743280546"><ele>570.0</ele><time>2026-03-29T08:49:46Z</time></trkpt><trkpt lat="43.23687276969136" lon="12.161669116716924"><ele>570.0</ele><time>2026-03-29T08:49:47Z</time></trkpt><trkpt lat="43.23680907678247" lon="12.161583952608275"><ele>570.0</ele><time>2026-03-29T08:49:48Z</time></trkpt><trkpt lat="43.236691464157055" lon="12.16156442144224"><ele>570.0</ele><time>2026-03-29T08:49:49Z</time></trkpt><trkpt lat="43.236545840161924" lon="12.161527633844551"><ele>576.25</ele><time>2026-03-29T08:49:50Z</time></trkpt><trkpt lat="43.23643218359622" lon="12.16150511368097"><ele>582.5</ele><time>2026-03-29T08:49:51Z</time></trkpt><trkpt lat="43.23635566579483" lon="12.161436824876233"><ele>588.75</ele><time>2026-03-29T08:49:53Z</time></trkpt><trkpt lat="43.23639422820321" lon="12.161185707942332"><ele>595.0</ele><time>2026-03-29T08:49:55Z</time></trkpt><trkpt lat="43.23645504402886" lon="12.161057964838317"><ele>593.2</ele><time>2026-03-29T08:49:56Z</time></trkpt><trkpt lat="43.23651062692017" lon="12.160944525781547"><ele>591.4</ele><time>2026-03-29T08:49:57Z</time></trkpt><trkpt lat="43.23652491203421" lon="12.160808631329576"><ele>589.6</ele><time>2026-03-29T08:49:58Z</time></trkpt><trkpt lat="43.23650261195358" lon="12.160655874130203"><ele>587.8</ele><time>2026-03-29T08:49:59Z</time></trkpt><trkpt lat="43.23646566153939" lon="12.160480262676705"><ele>586.0</ele><time>2026-03-29T08:50:00Z</time></trkpt><trkpt lat="43.23643174703433" lon="12.160272398437403"><ele>586.0</ele><time>2026-03-29T08:50:01Z</time></trkpt><trkpt lat="43.23639292360561" lon="12.160059702000485"><ele>586.0</ele><time>2026-03-29T08:50:02Z</time></trkpt><trkpt lat="43.23635740377077" lon="12.159900138998239"><ele>586.0</ele><time>2026-03-29T08:50:03Z</time></trkpt><trkpt lat="43.23630421605126" lon="12.159803527278621"><ele>586.0</ele><time>2026-03-29T08:50:04Z</time></trkpt><trkpt lat="43.2362457526508" lon="12.159755048782165"><ele>586.0</ele><time>2026-03-29T08:50:05Z</time></trkpt><trkpt lat="43.23622611461908" lon="12.159654754914653"><ele>583.5</ele><time>2026-03-29T08:50:07Z</time></trkpt><trkpt lat="43.236209587348874" lon="12.159551442945215"><ele>581.0</ele><time>2026-03-29T08:50:08Z</time></trkpt><trkpt lat="43.23612576517506" lon="12.159560138782107"><ele>578.5</ele><time>2026-03-29T08:50:09Z</time></trkpt><trkpt lat="43.23617276597727" lon="12.159378904971595"><ele>576.0</ele><time>2026-03-29T08:50:10Z</time></trkpt><trkpt lat="43.23616482744658" lon="12.159289541490498"><ele>573.5</ele><time>2026-03-29T08:50:11Z</time></trkpt><trkpt lat="43.23619422477667" lon="12.15920547544544"><ele>571.0</ele><time>2026-03-29T08:50:12Z</time></trkpt><trkpt lat="43.23624553985324" lon="12.159131605440834"><ele>571.0</ele><time>2026-03-29T08:50:13Z</time></trkpt><trkpt lat="43.23630849174494" lon="12.159069747553728"><ele>571.0</ele><time>2026-03-29T08:50:14Z</time></trkpt><trkpt lat="43.23637398764973" lon="12.158984746567915"><ele>571.0</ele><time>2026-03-29T08:50:15Z</time></trkpt><trkpt lat="43.23641870736111" lon="12.15889169232624"><ele>571.0</ele><time>2026-03-29T08:50:16Z</time></trkpt><trkpt lat="43.23648955069352" lon="12.158797235492525"><ele>571.0</ele><time>2026-03-29T08:50:17.999Z</time></trkpt><trkpt lat="43.236605811869545" lon="12.158848860911299"><ele>566.0</ele><time>2026-03-29T08:50:19.999Z</time></trkpt><trkpt lat="43.23669171874126" lon="12.158876368352653"><ele>561.0</ele><time>2026-03-29T08:50:20.999Z</time></trkpt><trkpt lat="43.23677101567851" lon="12.158857353633339"><ele>556.0</ele><time>2026-03-29T08:50:21.999Z</time></trkpt><trkpt lat="43.2368404081547" lon="12.158856305685637"><ele>551.0</ele><time>2026-03-29T08:50:22.999Z</time></trkpt><trkpt lat="43.2369081442068" lon="12.158833700491193"><ele>546.0</ele><time>2026-03-29T08:50:23.999Z</time></trkpt><trkpt lat="43.236985380514575" lon="12.158824409954535"><ele>541.0</ele><time>2026-03-29T08:50:24.999Z</time></trkpt><trkpt lat="43.23706333330157" lon="12.158789898078368"><ele>541.0000000000001</ele><time>2026-03-29T08:50:25.999Z</time></trkpt><trkpt lat="43.2371360943763" lon="12.158749062869614"><ele>541.0</ele><time>2026-03-29T08:50:26.999Z</time></trkpt><trkpt lat="43.23720390890598" lon="12.158678528978605"><ele>541.0</ele><time>2026-03-29T08:50:27.999Z</time></trkpt><trkpt lat="43.2372636429496" lon="12.158608199648103"><ele>541.0</ele><time>2026-03-29T08:50:28.999Z</time></trkpt><trkpt lat="43.23728210249216" lon="12.15852085716436"><ele>541.0</ele><time>2026-03-29T08:50:29.999Z</time></trkpt><trkpt lat="43.2372997665211" lon="12.158436087075847"><ele>541.0000000000001</ele><time>2026-03-29T08:50:30.999Z</time></trkpt><trkpt lat="43.23731529208548" lon="12.158347081398144"><ele>541.0</ele><time>2026-03-29T08:50:31.999Z</time></trkpt><trkpt lat="43.23741437668847" lon="12.15826619533717"><ele>536.8333333333334</ele><time>2026-03-29T08:50:33.999Z</time></trkpt><trkpt lat="43.237490116785416" lon="12.158169597531945"><ele>532.6666666666667</ele><time>2026-03-29T08:50:35.999Z</time></trkpt><trkpt lat="43.237500793443765" lon="12.158073656273482"><ele>528.5</ele><time>2026-03-29T08:50:36.999Z</time></trkpt><trkpt lat="43.23749867502666" lon="12.157954202406946"><ele>524.3333333333334</ele><time>2026-03-29T08:50:37.999Z</time></trkpt><trkpt lat="43.23750682565603" lon="12.15784821611871"><ele>520.1666666666666</ele><time>2026-03-29T08:50:38.999Z</time></trkpt><trkpt lat="43.237500978793086" lon="12.157760008313561"><ele>516.0</ele><time>2026-03-29T08:50:39.999Z</time></trkpt><trkpt lat="43.237489152373925" lon="12.15767262205198"><ele>516.0</ele><time>2026-03-29T08:50:40.999Z</time></trkpt><trkpt lat="43.23747530851982" lon="12.15758459663392"><ele>516.0</ele><time>2026-03-29T08:50:41.999Z</time></trkpt><trkpt lat="43.237519283471826" lon="12.15742935725791"><ele>516.0</ele><time>2026-03-29T08:50:43.999Z</time></trkpt><trkpt lat="43.23755573276427" lon="12.157322924770694"><ele>516.0</ele><time>2026-03-29T08:50:44.999Z</time></trkpt><trkpt lat="43.23756268759258" lon="12.157227337974012"><ele>516.0</ele><time>2026-03-29T08:50:45.999Z</time></trkpt><trkpt lat="43.2375241940331" lon="12.157045881770726"><ele>513.6666666666666</ele><time>2026-03-29T08:50:47.999Z</time></trkpt><trkpt lat="43.23750190837129" lon="12.156950906050655"><ele>511.33333333333337</ele><time>2026-03-29T08:50:48.999Z</time></trkpt><trkpt lat="43.23748941463847" lon="12.156861183165159"><ele>509.0</ele><time>2026-03-29T08:50:49.999Z</time></trkpt><trkpt lat="43.237433878083735" lon="12.156729952891977"><ele>506.6666666666667</ele><time>2026-03-29T08:50:51.999Z</time></trkpt><trkpt lat="43.23734178560553" lon="12.156660422550358"><ele>504.33333333333337</ele><time>2026-03-29T08:50:53.999Z</time></trkpt><trkpt lat="43.23730352826929" lon="12.156555837045323"><ele>502.0</ele><time>2026-03-29T08:50:55.999Z</time></trkpt><trkpt lat="43.23741560105309" lon="12.156434396676762"><ele>499.1666666666667</ele><time>2026-03-29T08:50:57.999Z</time></trkpt><trkpt lat="43.23749032950174" lon="12.156354461695546"><ele>496.33333333333337</ele><time>2026-03-29T08:50:58.999Z</time></trkpt><trkpt lat="43.23754849498917" lon="12.156298449244543"><ele>493.5</ele><time>2026-03-29T08:50:59.999Z</time></trkpt><trkpt lat="43.23762243190323" lon="12.156231293566222"><ele>490.66666666666663</ele><time>2026-03-29T08:51:00.999Z</time></trkpt><trkpt lat="43.23769993232028" lon="12.15615597328061"><ele>487.8333333333333</ele><time>2026-03-29T08:51:01.999Z</time></trkpt><trkpt lat="43.23774154782914" lon="12.156083310023462"><ele>485.0</ele><time>2026-03-29T08:51:02.999Z</time></trkpt><trkpt lat="43.23780445456379" lon="12.15595711632665"><ele>485.0</ele><time>2026-03-29T08:51:04.999Z</time></trkpt><trkpt lat="43.237756389888" lon="12.15588318831507"><ele>485.0</ele><time>2026-03-29T08:51:10.999Z</time></trkpt><trkpt lat="43.23766119102878" lon="12.155809645988574"><ele>485.0</ele><time>2026-03-29T08:51:11.999Z</time></trkpt><trkpt lat="43.23753956248778" lon="12.15574829462617"><ele>485.0</ele><time>2026-03-29T08:51:12.999Z</time></trkpt><trkpt lat="43.237456600210976" lon="12.155710221485313"><ele>485.0</ele><time>2026-03-29T08:51:13.999Z</time></trkpt><trkpt lat="43.23736330383989" lon="12.155679710232564"><ele>483.8</ele><time>2026-03-29T08:51:14.999Z</time></trkpt><trkpt lat="43.23726151964069" lon="12.15564017214841"><ele>482.6</ele><time>2026-03-29T08:51:15.999Z</time></trkpt><trkpt lat="43.23717520831505" lon="12.155627395071722"><ele>481.4</ele><time>2026-03-29T08:51:16.998Z</time></trkpt><trkpt lat="43.23708283024057" lon="12.155624996776229"><ele>480.2</ele><time>2026-03-29T08:51:17.998Z</time></trkpt><trkpt lat="43.2369972596781" lon="12.155589769852794"><ele>479.0</ele><time>2026-03-29T08:51:18.998Z</time></trkpt><trkpt lat="43.23693928078458" lon="12.15548869896446"><ele>479.0</ele><time>2026-03-29T08:51:19.998Z</time></trkpt><trkpt lat="43.236872885525976" lon="12.155408826212545"><ele>479.0</ele><time>2026-03-29T08:51:20.998Z</time></trkpt><trkpt lat="43.23677324545736" lon="12.155413605504123"><ele>479.0</ele><time>2026-03-29T08:51:22.998Z</time></trkpt><trkpt lat="43.23664238458286" lon="12.155481195018051"><ele>479.0</ele><time>2026-03-29T08:51:24.998Z</time></trkpt><trkpt lat="43.236549016834445" lon="12.155508023021044"><ele>479.0</ele><time>2026-03-29T08:51:25.998Z</time></trkpt><trkpt lat="43.23645093417251" lon="12.155484835696072"><ele>484.0</ele><time>2026-03-29T08:51:26.998Z</time></trkpt><trkpt lat="43.23635144142182" lon="12.155407439938896"><ele>489.0</ele><time>2026-03-29T08:51:27.998Z</time></trkpt><trkpt lat="43.2362388831777" lon="12.155323170989172"><ele>494.0</ele><time>2026-03-29T08:51:28.998Z</time></trkpt><trkpt lat="43.236150397342605" lon="12.155281898558064"><ele>499.0</ele><time>2026-03-29T08:51:29.998Z</time></trkpt><trkpt lat="43.23605979631568" lon="12.15535809184444"><ele>504.0</ele><time>2026-03-29T08:51:31.998Z</time></trkpt><trkpt lat="43.23598636507391" lon="12.155383098652793"><ele>504.0</ele><time>2026-03-29T08:51:32.998Z</time></trkpt><trkpt lat="43.235904050756865" lon="12.155372933426365"><ele>504.0</ele><time>2026-03-29T08:51:34.998Z</time></trkpt><trkpt lat="43.23584247886814" lon="12.15533268694577"><ele>504.0</ele><time>2026-03-29T08:51:38.998Z</time></trkpt><trkpt lat="43.23580347739318" lon="12.155187095381041"><ele>504.0</ele><time>2026-03-29T08:51:42Z</time></trkpt><trkpt lat="43.23575792778786" lon="12.15539351073509"><ele>504.0</ele><time>2026-03-29T08:51:44Z</time></trkpt><trkpt lat="43.23554924927698" lon="12.15550995979737"><ele>510.3333333333333</ele><time>2026-03-29T08:51:47Z</time></trkpt><trkpt lat="43.23547823369164" lon="12.155616568339969"><ele>516.6666666666666</ele><time>2026-03-29T08:51:48Z</time></trkpt><trkpt lat="43.23542329344384" lon="12.155693259974798"><ele>523.0</ele><time>2026-03-29T08:51:49Z</time></trkpt><trkpt lat="43.235363695571436" lon="12.155753516303044"><ele>529.3333333333333</ele><time>2026-03-29T08:51:50Z</time></trkpt><trkpt lat="43.23529946347248" lon="12.155807798739742"><ele>535.6666666666666</ele><time>2026-03-29T08:51:51Z</time></trkpt><trkpt lat="43.23522645227721" lon="12.155868713405306"><ele>542.0</ele><time>2026-03-29T08:51:52Z</time></trkpt><trkpt lat="43.23515656760199" lon="12.155905943949255"><ele>542.0</ele><time>2026-03-29T08:51:53Z</time></trkpt><trkpt lat="43.23506190281808" lon="12.155886219148051"><ele>542.0</ele><time>2026-03-29T08:51:55Z</time></trkpt><trkpt lat="43.23498843832383" lon="12.155804911045776"><ele>542.0</ele><time>2026-03-29T08:51:57Z</time></trkpt><trkpt lat="43.2349285143445" lon="12.155704149955005"><ele>542.0</ele><time>2026-03-29T08:51:59Z</time></trkpt><trkpt lat="43.23496263988363" lon="12.155568212891858"><ele>542.0</ele><time>2026-03-29T08:52:01Z</time></trkpt><trkpt lat="43.234983460451296" lon="12.155480177481936"><ele>545.0</ele><time>2026-03-29T08:52:02Z</time></trkpt><trkpt lat="43.23500158320397" lon="12.155391073125243"><ele>548.0</ele><time>2026-03-29T08:52:03Z</time></trkpt><trkpt lat="43.23506712173513" lon="12.155183334150117"><ele>551.0</ele><time>2026-03-29T08:52:04Z</time></trkpt><trkpt lat="43.235095145353846" lon="12.15504685015276"><ele>554.0</ele><time>2026-03-29T08:52:05Z</time></trkpt><trkpt lat="43.2351288143939" lon="12.15487356984759"><ele>554.1666666666666</ele><time>2026-03-29T08:52:06Z</time></trkpt><trkpt lat="43.235131697068766" lon="12.154781036658871"><ele>554.3333333333333</ele><time>2026-03-29T08:52:07Z</time></trkpt><trkpt lat="43.23509499607292" lon="12.154694097232488"><ele>554.5</ele><time>2026-03-29T08:52:08Z</time></trkpt><trkpt lat="43.23504269683834" lon="12.154633081328875"><ele>554.6666666666666</ele><time>2026-03-29T08:52:09Z</time></trkpt><trkpt lat="43.234968730285814" lon="12.154572642669162"><ele>554.8333333333334</ele><time>2026-03-29T08:52:10Z</time></trkpt><trkpt lat="43.23488879212066" lon="12.154503076400983"><ele>555.0</ele><time>2026-03-29T08:52:11Z</time></trkpt><trkpt lat="43.234870449299045" lon="12.15441811367866"><ele>555.0</ele><time>2026-03-29T08:52:12Z</time></trkpt><trkpt lat="43.2348648440581" lon="12.15430275441274"><ele>555.0</ele><time>2026-03-29T08:52:13Z</time></trkpt><trkpt lat="43.23479563922583" lon="12.154227408722038"><ele>555.0</ele><time>2026-03-29T08:52:15Z</time></trkpt><trkpt lat="43.23472785388498" lon="12.154244227349603"><ele>555.0</ele><time>2026-03-29T08:52:16Z</time></trkpt><trkpt lat="43.23463648972435" lon="12.154254259509125"><ele>555.0</ele><time>2026-03-29T08:52:17Z</time></trkpt><trkpt lat="43.23454035000643" lon="12.154258517825895"><ele>555.0</ele><time>2026-03-29T08:52:18Z</time></trkpt><trkpt lat="43.23442553221991" lon="12.15430088918008"><ele>560.6</ele><time>2026-03-29T08:52:19Z</time></trkpt><trkpt lat="43.2343266514992" lon="12.1543120436169"><ele>566.2</ele><time>2026-03-29T08:52:19.999Z</time></trkpt><trkpt lat="43.2342660013344" lon="12.15418778918306"><ele>571.8</ele><time>2026-03-29T08:52:21.999Z</time></trkpt><trkpt lat="43.2342031673933" lon="12.154120385830035"><ele>577.4</ele><time>2026-03-29T08:52:22.999Z</time></trkpt><trkpt lat="43.23414878320639" lon="12.154057708231896"><ele>583.0</ele><time>2026-03-29T08:52:23.999Z</time></trkpt><trkpt lat="43.234051455099795" lon="12.15412992667631"><ele>583.0</ele><time>2026-03-29T08:52:25.999Z</time></trkpt><trkpt lat="43.23400892448061" lon="12.154195745492848"><ele>583.0</ele><time>2026-03-29T08:52:26.999Z</time></trkpt><trkpt lat="43.23399915919511" lon="12.15430108630752"><ele>583.0</ele><time>2026-03-29T08:52:27.999Z</time></trkpt><trkpt lat="43.23398903813656" lon="12.154409172128194"><ele>583.0</ele><time>2026-03-29T08:52:28.999Z</time></trkpt><trkpt lat="43.234045140488824" lon="12.154569645726722"><ele>583.0</ele><time>2026-03-29T08:52:30.999Z</time></trkpt><trkpt lat="43.23409468676638" lon="12.15464308840801"><ele>583.0</ele><time>2026-03-29T08:52:31.999Z</time></trkpt><trkpt lat="43.23411010632677" lon="12.154730798335398"><ele>584.0</ele><time>2026-03-29T08:52:32.999Z</time></trkpt><trkpt lat="43.234125132925946" lon="12.154883056925353"><ele>585.0</ele><time>2026-03-29T08:52:33.999Z</time></trkpt><trkpt lat="43.23412740979995" lon="12.155016359061548"><ele>586.0</ele><time>2026-03-29T08:52:34.999Z</time></trkpt><trkpt lat="43.23412022053943" lon="12.155121779197911"><ele>587.0</ele><time>2026-03-29T08:52:35.999Z</time></trkpt><trkpt lat="43.23406048748617" lon="12.15518454895808"><ele>588.0</ele><time>2026-03-29T08:52:36.999Z</time></trkpt><trkpt lat="43.23393114312896" lon="12.155279092267858"><ele>593.4</ele><time>2026-03-29T08:52:38.999Z</time></trkpt><trkpt lat="43.233824990602905" lon="12.15531106830482"><ele>598.8</ele><time>2026-03-29T08:52:39.999Z</time></trkpt><trkpt lat="43.233731475668556" lon="12.155361774462824"><ele>604.2</ele><time>2026-03-29T08:52:40.999Z</time></trkpt><trkpt lat="43.23365691776603" lon="12.155342472052709"><ele>609.6</ele><time>2026-03-29T08:52:42.999Z</time></trkpt><trkpt lat="43.23359099139152" lon="12.155327052673458"><ele>615.0</ele><time>2026-03-29T08:52:43.999Z</time></trkpt><trkpt lat="43.23353582046334" lon="12.155209925555319"><ele>615.0</ele><time>2026-03-29T08:52:45.999Z</time></trkpt><trkpt lat="43.2334827369719" lon="12.155113038608745"><ele>615.0</ele><time>2026-03-29T08:52:46.999Z</time></trkpt><trkpt lat="43.23338890002774" lon="12.15507412054277"><ele>615.0</ele><time>2026-03-29T08:52:48.999Z</time></trkpt><trkpt lat="43.233326208209064" lon="12.155101674616507"><ele>615.0</ele><time>2026-03-29T08:52:49.999Z</time></trkpt><trkpt lat="43.23325411741635" lon="12.155037373136386"><ele>615.0</ele><time>2026-03-29T08:52:51.999Z</time></trkpt><trkpt lat="43.233123658026635" lon="12.155017009735397"><ele>620.25</ele><time>2026-03-29T08:52:53.999Z</time></trkpt><trkpt lat="43.23304683279644" lon="12.155014556865808"><ele>625.5</ele><time>2026-03-29T08:52:54.999Z</time></trkpt><trkpt lat="43.232899960745335" lon="12.15500380475683"><ele>630.75</ele><time>2026-03-29T08:52:55.999Z</time></trkpt><trkpt lat="43.23275631343107" lon="12.15498139892567"><ele>636.0</ele><time>2026-03-29T08:52:56.999Z</time></trkpt><trkpt lat="43.23260847005168" lon="12.15495782778866"><ele>636.0</ele><time>2026-03-29T08:52:57.999Z</time></trkpt><trkpt lat="43.23246453101821" lon="12.154948757136754"><ele>636.0</ele><time>2026-03-29T08:52:58.999Z</time></trkpt><trkpt lat="43.23232448192824" lon="12.154954471762252"><ele>636.0</ele><time>2026-03-29T08:52:59.999Z</time></trkpt><trkpt lat="43.23221035359573" lon="12.154968622546601"><ele>636.0</ele><time>2026-03-29T08:53:00.999Z</time></trkpt><trkpt lat="43.232134748360025" lon="12.155006503390892"><ele>639.4</ele><time>2026-03-29T08:53:01.999Z</time></trkpt><trkpt lat="43.232089570816" lon="12.155089616395475"><ele>642.8</ele><time>2026-03-29T08:53:02.999Z</time></trkpt><trkpt lat="43.23206339150068" lon="12.155175461212215"><ele>646.1999999999999</ele><time>2026-03-29T08:53:03.999Z</time></trkpt><trkpt lat="43.23201544829206" lon="12.155312849025805"><ele>649.6</ele><time>2026-03-29T08:53:05.999Z</time></trkpt><trkpt lat="43.23200778612934" lon="12.155453692415133"><ele>653.0</ele><time>2026-03-29T08:53:06.999Z</time></trkpt><trkpt lat="43.23200153629636" lon="12.155590195031328"><ele>651.0</ele><time>2026-03-29T08:53:07.999Z</time></trkpt><trkpt lat="43.23199381896714" lon="12.155713948346632"><ele>649.0</ele><time>2026-03-29T08:53:08.999Z</time></trkpt><trkpt lat="43.231978893153624" lon="12.155823565492632"><ele>647.0</ele><time>2026-03-29T08:53:09.999Z</time></trkpt><trkpt lat="43.231991873748505" lon="12.155920884614464"><ele>645.0</ele><time>2026-03-29T08:53:10.999Z</time></trkpt><trkpt lat="43.23192729680805" lon="12.155942989545983"><ele>643.0</ele><time>2026-03-29T08:53:11.999Z</time></trkpt><trkpt lat="43.231854938698895" lon="12.155924589222202"><ele>641.0</ele><time>2026-03-29T08:53:12.999Z</time></trkpt><trkpt lat="43.23174735212001" lon="12.155837034103255"><ele>641.0</ele><time>2026-03-29T08:53:13.999Z</time></trkpt><trkpt lat="43.231623727016455" lon="12.155818331836594"><ele>641.0</ele><time>2026-03-29T08:53:14.999Z</time></trkpt><trkpt lat="43.23147085840563" lon="12.155767155880726"><ele>641.0</ele><time>2026-03-29T08:53:15.999Z</time></trkpt><trkpt lat="43.23130513679713" lon="12.155673227264295"><ele>643.0</ele><time>2026-03-29T08:53:16.999Z</time></trkpt><trkpt lat="43.231226294571265" lon="12.155620942945157"><ele>645.0</ele><time>2026-03-29T08:53:17.999Z</time></trkpt><trkpt lat="43.2311265209571" lon="12.155641945873288"><ele>647.0</ele><time>2026-03-29T08:53:19.998Z</time></trkpt><trkpt lat="43.23104828416602" lon="12.155818425172672"><ele>649.0</ele><time>2026-03-29T08:53:21.998Z</time></trkpt><trkpt lat="43.23104690371516" lon="12.155961089364869"><ele>651.0</ele><time>2026-03-29T08:53:22.998Z</time></trkpt><trkpt lat="43.231045731096245" lon="12.15613461489622"><ele>651.0</ele><time>2026-03-29T08:53:23.998Z</time></trkpt><trkpt lat="43.23104546735176" lon="12.156355722536976"><ele>651.0</ele><time>2026-03-29T08:53:24.998Z</time></trkpt><trkpt lat="43.23106315105659" lon="12.156539147109099"><ele>651.0</ele><time>2026-03-29T08:53:25.998Z</time></trkpt><trkpt lat="43.23107111601433" lon="12.156653555215232"><ele>651.0</ele><time>2026-03-29T08:53:26.998Z</time></trkpt><trkpt lat="43.2310258766254" lon="12.156807977694363"><ele>650.5</ele><time>2026-03-29T08:53:27.998Z</time></trkpt><trkpt lat="43.23097241287985" lon="12.156952472797501"><ele>650.0</ele><time>2026-03-29T08:53:28.998Z</time></trkpt><trkpt lat="43.230916528914896" lon="12.157068433271682"><ele>649.5</ele><time>2026-03-29T08:53:29.998Z</time></trkpt><trkpt lat="43.23081021192132" lon="12.157158084127728"><ele>649.0</ele><time>2026-03-29T08:53:31.998Z</time></trkpt><trkpt lat="43.230717271436546" lon="12.157234533686205"><ele>647.6666666666667</ele><time>2026-03-29T08:53:32.998Z</time></trkpt><trkpt lat="43.23059073593925" lon="12.157341735257448"><ele>646.3333333333334</ele><time>2026-03-29T08:53:33.998Z</time></trkpt><trkpt lat="43.2304451419033" lon="12.157463655111366"><ele>645.0</ele><time>2026-03-29T08:53:34.998Z</time></trkpt><trkpt lat="43.23033063972695" lon="12.157549029305867"><ele>645.0</ele><time>2026-03-29T08:53:35.998Z</time></trkpt><trkpt lat="43.230209925405674" lon="12.157660884073204"><ele>645.0</ele><time>2026-03-29T08:53:36.998Z</time></trkpt><trkpt lat="43.23012950337146" lon="12.15775067790703"><ele>645.0</ele><time>2026-03-29T08:53:37.998Z</time></trkpt><trkpt lat="43.23002791841035" lon="12.157797893025538"><ele>645.0</ele><time>2026-03-29T08:53:39.998Z</time></trkpt><trkpt lat="43.229950251275454" lon="12.157780079917059"><ele>645.0</ele><time>2026-03-29T08:53:41.998Z</time></trkpt><trkpt lat="43.229948656333676" lon="12.157682244907672"><ele>645.0</ele><time>2026-03-29T08:53:50Z</time></trkpt><trkpt lat="43.2299998796319" lon="12.157520795240666"><ele>645.0</ele><time>2026-03-29T08:53:52Z</time></trkpt><trkpt lat="43.230017083850136" lon="12.157355224170583"><ele>645.0</ele><time>2026-03-29T08:53:53Z</time></trkpt><trkpt lat="43.23002130424065" lon="12.157184190038842"><ele>645.0</ele><time>2026-03-29T08:53:54Z</time></trkpt><trkpt lat="43.22999824627512" lon="12.157054675605218"><ele>646.8333333333334</ele><time>2026-03-29T08:53:55Z</time></trkpt><trkpt lat="43.22999540505489" lon="12.156924709607141"><ele>648.6666666666666</ele><time>2026-03-29T08:53:56Z</time></trkpt><trkpt lat="43.23001162745217" lon="12.156839145790475"><ele>650.5</ele><time>2026-03-29T08:53:57Z</time></trkpt><trkpt lat="43.23002369023468" lon="12.156742228694192"><ele>652.3333333333333</ele><time>2026-03-29T08:53:58Z</time></trkpt><trkpt lat="43.2300327305932" lon="12.156606781118754"><ele>654.1666666666666</ele><time>2026-03-29T08:53:59Z</time></trkpt><trkpt lat="43.23004288926944" lon="12.156495492243614"><ele>656.0</ele><time>2026-03-29T08:54:00Z</time></trkpt><trkpt lat="43.23005829496" lon="12.156391967186199"><ele>656.0</ele><time>2026-03-29T08:54:01Z</time></trkpt><trkpt lat="43.230100541214114" lon="12.15627330004591"><ele>656.0</ele><time>2026-03-29T08:54:02Z</time></trkpt><trkpt lat="43.230143294119216" lon="12.15616669489346"><ele>656.0</ele><time>2026-03-29T08:54:03Z</time></trkpt><trkpt lat="43.230169655830345" lon="12.15604702635098"><ele>656.0</ele><time>2026-03-29T08:54:04Z</time></trkpt><trkpt lat="43.23018906437634" lon="12.15590765097432"><ele>656.0</ele><time>2026-03-29T08:54:05Z</time></trkpt><trkpt lat="43.230209708471065" lon="12.15577916714693"><ele>655.1999999999999</ele><time>2026-03-29T08:54:06Z</time></trkpt><trkpt lat="43.23023895192714" lon="12.15564356070573"><ele>654.4</ele><time>2026-03-29T08:54:07Z</time></trkpt><trkpt lat="43.23026636570145" lon="12.155506229559457"><ele>653.6</ele><time>2026-03-29T08:54:08Z</time></trkpt><trkpt lat="43.230291133054116" lon="12.155378417336316"><ele>652.8</ele><time>2026-03-29T08:54:09Z</time></trkpt><trkpt lat="43.23031800458861" lon="12.155264659753932"><ele>652.0</ele><time>2026-03-29T08:54:10Z</time></trkpt><trkpt lat="43.23033915876503" lon="12.155174962750362"><ele>652.0</ele><time>2026-03-29T08:54:11Z</time></trkpt><trkpt lat="43.23037413960806" lon="12.15502803675494"><ele>652.0</ele><time>2026-03-29T08:54:13Z</time></trkpt><trkpt lat="43.23043887335763" lon="12.15489667813229"><ele>652.0</ele><time>2026-03-29T08:54:15Z</time></trkpt><trkpt lat="43.230484523366705" lon="12.15478177671529"><ele>652.0</ele><time>2026-03-29T08:54:16Z</time></trkpt><trkpt lat="43.230596622945924" lon="12.15469225559101"><ele>655.0</ele><time>2026-03-29T08:54:17Z</time></trkpt><trkpt lat="43.23070043283034" lon="12.15466237204755"><ele>658.0</ele><time>2026-03-29T08:54:18Z</time></trkpt><trkpt lat="43.23079265694878" lon="12.154670625097557"><ele>661.0</ele><time>2026-03-29T08:54:19Z</time></trkpt><trkpt lat="43.230895007758015" lon="12.154714941866898"><ele>664.0</ele><time>2026-03-29T08:54:20Z</time></trkpt><trkpt lat="43.231094807049715" lon="12.154864592040447"><ele>662.6666666666667</ele><time>2026-03-29T08:54:21Z</time></trkpt><trkpt lat="43.23119240852259" lon="12.1548879836367"><ele>661.3333333333334</ele><time>2026-03-29T08:54:21.999Z</time></trkpt><trkpt lat="43.23128496041873" lon="12.154896505391681"><ele>660.0</ele><time>2026-03-29T08:54:22.999Z</time></trkpt><trkpt lat="43.231369821422994" lon="12.15491179990309"><ele>658.6666666666666</ele><time>2026-03-29T08:54:23.999Z</time></trkpt><trkpt lat="43.23144603471187" lon="12.154884012466058"><ele>657.3333333333333</ele><time>2026-03-29T08:54:24.999Z</time></trkpt><trkpt lat="43.23151481517322" lon="12.15484182377986"><ele>656.0</ele><time>2026-03-29T08:54:25.999Z</time></trkpt><trkpt lat="43.23156399268286" lon="12.154781951317226"><ele>656.0</ele><time>2026-03-29T08:54:26.999Z</time></trkpt><trkpt lat="43.231588537254574" lon="12.154695423411551"><ele>656.0</ele><time>2026-03-29T08:54:27.999Z</time></trkpt><trkpt lat="43.23162273932111" lon="12.15456603804037"><ele>656.0</ele><time>2026-03-29T08:54:28.999Z</time></trkpt><trkpt lat="43.23165288055001" lon="12.15447004360538"><ele>656.0</ele><time>2026-03-29T08:54:29.999Z</time></trkpt><trkpt lat="43.23176731217082" lon="12.154407340608142"><ele>656.0</ele><time>2026-03-29T08:54:32.999Z</time></trkpt><trkpt lat="43.23178330410963" lon="12.1543164128188"><ele>656.0</ele><time>2026-03-29T08:54:35.999Z</time></trkpt><trkpt lat="43.23173821773906" lon="12.15405961902073"><ele>655.1666666666666</ele><time>2026-03-29T08:54:37.999Z</time></trkpt><trkpt lat="43.231701365081044" lon="12.153963118866713"><ele>654.3333333333333</ele><time>2026-03-29T08:54:38.999Z</time></trkpt><trkpt lat="43.2317236938214" lon="12.153812914772619"><ele>653.5</ele><time>2026-03-29T08:54:40.999Z</time></trkpt><trkpt lat="43.23173511929244" lon="12.153718257419392"><ele>652.6666666666666</ele><time>2026-03-29T08:54:41.999Z</time></trkpt><trkpt lat="43.23173127857877" lon="12.153607573615242"><ele>651.8333333333334</ele><time>2026-03-29T08:54:42.999Z</time></trkpt><trkpt lat="43.23170003691987" lon="12.15348994757083"><ele>651.0</ele><time>2026-03-29T08:54:43.999Z</time></trkpt><trkpt lat="43.231647807664515" lon="12.15336164614783"><ele>651.0</ele><time>2026-03-29T08:54:44.999Z</time></trkpt><trkpt lat="43.23161991703126" lon="12.153269067222254"><ele>651.0</ele><time>2026-03-29T08:54:45.999Z</time></trkpt><trkpt lat="43.23160727903975" lon="12.15313912176277"><ele>651.0</ele><time>2026-03-29T08:54:47.999Z</time></trkpt><trkpt lat="43.231589317376034" lon="12.152997600100587"><ele>651.0</ele><time>2026-03-29T08:54:49.999Z</time></trkpt><trkpt lat="43.23164924054149" lon="12.152891367306369"><ele>651.0</ele><time>2026-03-29T08:54:51.999Z</time></trkpt><trkpt lat="43.23175760315072" lon="12.152779581494443"><ele>651.5</ele><time>2026-03-29T08:54:53.999Z</time></trkpt><trkpt lat="43.231770510322" lon="12.152648357661965"><ele>652.0</ele><time>2026-03-29T08:54:55.999Z</time></trkpt><trkpt lat="43.23183174331279" lon="12.152602439839507"><ele>652.5</ele><time>2026-03-29T08:54:57.999Z</time></trkpt><trkpt lat="43.23192377521116" lon="12.152613985009731"><ele>653.0</ele><time>2026-03-29T08:54:58.999Z</time></trkpt><trkpt lat="43.23199839644177" lon="12.15266045104445"><ele>653.5</ele><time>2026-03-29T08:54:59.999Z</time></trkpt><trkpt lat="43.23208038697509" lon="12.15256316316442"><ele>654.0</ele><time>2026-03-29T08:55:01.999Z</time></trkpt><trkpt lat="43.23217335466281" lon="12.152478475443017"><ele>654.0</ele><time>2026-03-29T08:55:02.999Z</time></trkpt><trkpt lat="43.23225307556585" lon="12.152390372276981"><ele>654.0</ele><time>2026-03-29T08:55:03.999Z</time></trkpt><trkpt lat="43.23231867951181" lon="12.15231073532628"><ele>654.0</ele><time>2026-03-29T08:55:04.999Z</time></trkpt><trkpt lat="43.23239659685834" lon="12.152230321125286"><ele>654.0</ele><time>2026-03-29T08:55:05.999Z</time></trkpt><trkpt lat="43.2324453375428" lon="12.152162145966285"><ele>654.0</ele><time>2026-03-29T08:55:06.999Z</time></trkpt><trkpt lat="43.23249194624071" lon="12.152024762235705"><ele>652.4000000000001</ele><time>2026-03-29T08:55:08.999Z</time></trkpt><trkpt lat="43.2325149018156" lon="12.15182996782011"><ele>650.8</ele><time>2026-03-29T08:55:10.999Z</time></trkpt><trkpt lat="43.232500543482644" lon="12.151697625985127"><ele>649.2</ele><time>2026-03-29T08:55:11.999Z</time></trkpt><trkpt lat="43.23247953046319" lon="12.151550398275115"><ele>647.5999999999999</ele><time>2026-03-29T08:55:12.999Z</time></trkpt><trkpt lat="43.23244976032154" lon="12.151432531959124"><ele>646.0</ele><time>2026-03-29T08:55:13.999Z</time></trkpt><trkpt lat="43.23241566934807" lon="12.151322377966995"><ele>646.0</ele><time>2026-03-29T08:55:15.999Z</time></trkpt><trkpt lat="43.232377700235716" lon="12.151226478591951"><ele>646.0</ele><time>2026-03-29T08:55:17.999Z</time></trkpt><trkpt lat="43.2324495086484" lon="12.151209873334661"><ele>646.0</ele><time>2026-03-29T08:55:20.999Z</time></trkpt><trkpt lat="43.23250800946909" lon="12.151172132727314"><ele>646.0</ele><time>2026-03-29T08:55:21.998Z</time></trkpt><trkpt lat="43.232544038965834" lon="12.151083126476006"><ele>646.0</ele><time>2026-03-29T08:55:23.998Z</time></trkpt><trkpt lat="43.23260130523201" lon="12.15103889881727"><ele>646.0</ele><time>2026-03-29T08:55:27.998Z</time></trkpt><trkpt lat="43.23286555262032" lon="12.150844553810034"><ele>646.0</ele><time>2026-03-29T08:55:29.998Z</time></trkpt><trkpt lat="43.23298354352592" lon="12.150813633350259"><ele>646.0</ele><time>2026-03-29T08:55:31.998Z</time></trkpt><trkpt lat="43.23304941630763" lon="12.150758958042667"><ele>646.0</ele><time>2026-03-29T08:55:32.998Z</time></trkpt><trkpt lat="43.2331005330421" lon="12.150679211319007"><ele>646.0</ele><time>2026-03-29T08:55:33.998Z</time></trkpt><trkpt lat="43.233132839795424" lon="12.150589951494565"><ele>646.0</ele><time>2026-03-29T08:55:34.998Z</time></trkpt><trkpt lat="43.23318198610535" lon="12.150483203693877"><ele>646.0</ele><time>2026-03-29T08:55:35.998Z</time></trkpt><trkpt lat="43.233260967970686" lon="12.150377333678298"><ele>641.25</ele><time>2026-03-29T08:55:36.998Z</time></trkpt><trkpt lat="43.23336500025016" lon="12.150269680724442"><ele>636.5</ele><time>2026-03-29T08:55:37.998Z</time></trkpt><trkpt lat="43.23347644692555" lon="12.150171145675973"><ele>631.75</ele><time>2026-03-29T08:55:38.998Z</time></trkpt><trkpt lat="43.233565971689686" lon="12.150084818585169"><ele>627.0</ele><time>2026-03-29T08:55:39.998Z</time></trkpt><trkpt lat="43.23363115434024" lon="12.149986867106495"><ele>627.0</ele><time>2026-03-29T08:55:40.998Z</time></trkpt><trkpt lat="43.23368200499864" lon="12.1498849223717"><ele>627.0</ele><time>2026-03-29T08:55:41.998Z</time></trkpt><trkpt lat="43.23372253134472" lon="12.149794755406454"><ele>627.0</ele><time>2026-03-29T08:55:42.998Z</time></trkpt><trkpt lat="43.23375624153516" lon="12.14972069684389"><ele>627.0</ele><time>2026-03-29T08:55:43.998Z</time></trkpt><trkpt lat="43.23381848967912" lon="12.149620760227839"><ele>627.0</ele><time>2026-03-29T08:55:45.998Z</time></trkpt><trkpt lat="43.23394578152826" lon="12.149563051437957"><ele>623.6</ele><time>2026-03-29T08:55:47.998Z</time></trkpt><trkpt lat="43.234063020272245" lon="12.14953258017776"><ele>620.2</ele><time>2026-03-29T08:55:48.998Z</time></trkpt><trkpt lat="43.23419900133613" lon="12.149583550882447"><ele>616.8</ele><time>2026-03-29T08:55:49.998Z</time></trkpt><trkpt lat="43.23426438249436" lon="12.1495789850536"><ele>613.4</ele><time>2026-03-29T08:55:51Z</time></trkpt><trkpt lat="43.23438447210511" lon="12.149552386214996"><ele>610.0</ele><time>2026-03-29T08:55:53Z</time></trkpt><trkpt lat="43.234454129862335" lon="12.149584978703905"><ele>610.0</ele><time>2026-03-29T08:55:54Z</time></trkpt><trkpt lat="43.234574534107246" lon="12.149643866585139"><ele>610.0</ele><time>2026-03-29T08:55:55Z</time></trkpt><trkpt lat="43.23466950933702" lon="12.149670487801991"><ele>610.0</ele><time>2026-03-29T08:55:56Z</time></trkpt><trkpt lat="43.23474566068008" lon="12.149677883838878"><ele>610.0</ele><time>2026-03-29T08:55:57Z</time></trkpt><trkpt lat="43.2348247351861" lon="12.149690890693831"><ele>610.0</ele><time>2026-03-29T08:55:58Z</time></trkpt><trkpt lat="43.234902247237684" lon="12.149714961706673"><ele>609.2</ele><time>2026-03-29T08:55:59Z</time></trkpt><trkpt lat="43.2349759721018" lon="12.149745311084326"><ele>608.4</ele><time>2026-03-29T08:56:00Z</time></trkpt><trkpt lat="43.23503404417151" lon="12.149806179806095"><ele>607.6</ele><time>2026-03-29T08:56:01Z</time></trkpt><trkpt lat="43.235100477900076" lon="12.149901342244272"><ele>606.8</ele><time>2026-03-29T08:56:02Z</time></trkpt><trkpt lat="43.23519042055269" lon="12.15000055927756"><ele>606.0</ele><time>2026-03-29T08:56:03Z</time></trkpt><trkpt lat="43.23527941165342" lon="12.150027163307115"><ele>606.0</ele><time>2026-03-29T08:56:04Z</time></trkpt><trkpt lat="43.23535673584202" lon="12.150025680518121"><ele>606.0</ele><time>2026-03-29T08:56:05Z</time></trkpt><trkpt lat="43.23540046330319" lon="12.150137273958524"><ele>606.0</ele><time>2026-03-29T08:56:09Z</time></trkpt><trkpt lat="43.23552169101041" lon="12.150281442099239"><ele>606.0</ele><time>2026-03-29T08:56:11Z</time></trkpt><trkpt lat="43.235620179921874" lon="12.150334878874986"><ele>606.0</ele><time>2026-03-29T08:56:13Z</time></trkpt><trkpt lat="43.2356833850713" lon="12.150341685823095"><ele>601.2</ele><time>2026-03-29T08:56:14Z</time></trkpt><trkpt lat="43.2357666182512" lon="12.15036574170569"><ele>596.4000000000001</ele><time>2026-03-29T08:56:15Z</time></trkpt><trkpt lat="43.23585944494277" lon="12.150421919957836"><ele>591.6</ele><time>2026-03-29T08:56:16Z</time></trkpt><trkpt lat="43.23595297530557" lon="12.150478001939959"><ele>586.8000000000001</ele><time>2026-03-29T08:56:17Z</time></trkpt><trkpt lat="43.23603573169218" lon="12.150500522625908"><ele>582.0</ele><time>2026-03-29T08:56:18Z</time></trkpt><trkpt lat="43.23610973597898" lon="12.15046941383851"><ele>582.0</ele><time>2026-03-29T08:56:19Z</time></trkpt><trkpt lat="43.23620809780991" lon="12.150383453000002"><ele>582.0</ele><time>2026-03-29T08:56:21Z</time></trkpt><trkpt lat="43.236270901729824" lon="12.150391605577063"><ele>582.0</ele><time>2026-03-29T08:56:22Z</time></trkpt><trkpt lat="43.23637169547045" lon="12.150394848671919"><ele>582.0</ele><time>2026-03-29T08:56:23Z</time></trkpt><trkpt lat="43.236465299812174" lon="12.150398673825755"><ele>582.0</ele><time>2026-03-29T08:56:24Z</time></trkpt><trkpt lat="43.23654698805995" lon="12.150430508322401"><ele>578.5714285714286</ele><time>2026-03-29T08:56:24.999Z</time></trkpt><trkpt lat="43.23661964082276" lon="12.150459216719913"><ele>575.1428571428571</ele><time>2026-03-29T08:56:25.999Z</time></trkpt><trkpt lat="43.23668781146675" lon="12.150502714494097"><ele>571.7142857142857</ele><time>2026-03-29T08:56:26.999Z</time></trkpt><trkpt lat="43.23675765230101" lon="12.150527550116847"><ele>568.2857142857142</ele><time>2026-03-29T08:56:27.999Z</time></trkpt><trkpt lat="43.23682797084866" lon="12.150531480591724"><ele>564.8571428571429</ele><time>2026-03-29T08:56:28.999Z</time></trkpt><trkpt lat="43.23689662502806" lon="12.150548669914533"><ele>561.4285714285713</ele><time>2026-03-29T08:56:29.999Z</time></trkpt><trkpt lat="43.23696047074556" lon="12.150581534365385"><ele>558.0</ele><time>2026-03-29T08:56:30.999Z</time></trkpt><trkpt lat="43.237064329416995" lon="12.150519407939797"><ele>558.0</ele><time>2026-03-29T08:56:32.999Z</time></trkpt><trkpt lat="43.23715709747006" lon="12.150464187916276"><ele>558.0</ele><time>2026-03-29T08:56:34.999Z</time></trkpt><trkpt lat="43.23726858556027" lon="12.15045657235994"><ele>558.0</ele><time>2026-03-29T08:56:36.999Z</time></trkpt><trkpt lat="43.23737853991811" lon="12.150418460843202"><ele>558.0</ele><time>2026-03-29T08:56:38.999Z</time></trkpt><trkpt lat="43.23748313883006" lon="12.15042684498094"><ele>558.0</ele><time>2026-03-29T08:56:40.999Z</time></trkpt><trkpt lat="43.23755524919908" lon="12.15039795786296"><ele>553.8333333333334</ele><time>2026-03-29T08:56:41.999Z</time></trkpt><trkpt lat="43.23768240757943" lon="12.150380852568338"><ele>549.6666666666666</ele><time>2026-03-29T08:56:43.999Z</time></trkpt><trkpt lat="43.237759779511784" lon="12.150425790762093"><ele>545.5</ele><time>2026-03-29T08:56:44.999Z</time></trkpt><trkpt lat="43.23781786306603" lon="12.150465674761701"><ele>541.3333333333333</ele><time>2026-03-29T08:56:45.999Z</time></trkpt><trkpt lat="43.23788195891863" lon="12.150495327108978"><ele>537.1666666666666</ele><time>2026-03-29T08:56:46.999Z</time></trkpt><trkpt lat="43.237961937388995" lon="12.150488875758478"><ele>533.0</ele><time>2026-03-29T08:56:47.999Z</time></trkpt><trkpt lat="43.23803103688535" lon="12.150465544468991"><ele>533.0</ele><time>2026-03-29T08:56:48.999Z</time></trkpt><trkpt lat="43.23811799339045" lon="12.150470279937563"><ele>533.0</ele><time>2026-03-29T08:56:49.999Z</time></trkpt><trkpt lat="43.238215820093075" lon="12.150460130551718"><ele>533.0</ele><time>2026-03-29T08:56:50.999Z</time></trkpt><trkpt lat="43.23828343552682" lon="12.150441760309693"><ele>533.0</ele><time>2026-03-29T08:56:51.999Z</time></trkpt><trkpt lat="43.23838084458231" lon="12.150400213797049"><ele>533.0</ele><time>2026-03-29T08:56:53.999Z</time></trkpt><trkpt lat="43.238502366010394" lon="12.150372686546904"><ele>529.6</ele><time>2026-03-29T08:56:55.999Z</time></trkpt><trkpt lat="43.23862444580915" lon="12.150393171551922"><ele>526.1999999999999</ele><time>2026-03-29T08:56:57.999Z</time></trkpt><trkpt lat="43.23873779479713" lon="12.150343429431153"><ele>522.8</ele><time>2026-03-29T08:56:59.999Z</time></trkpt><trkpt lat="43.23881120151262" lon="12.15034606911755"><ele>519.4</ele><time>2026-03-29T08:57:00.999Z</time></trkpt><trkpt lat="43.23888548945075" lon="12.150276123677402"><ele>516.0</ele><time>2026-03-29T08:57:02.999Z</time></trkpt><trkpt lat="43.23895291984899" lon="12.150209006339876"><ele>514.1666666666666</ele><time>2026-03-29T08:57:04.999Z</time></trkpt><trkpt lat="43.23901761382306" lon="12.150114454330138"><ele>512.3333333333334</ele><time>2026-03-29T08:57:06.999Z</time></trkpt><trkpt lat="43.23909868637345" lon="12.150048752612896"><ele>510.5</ele><time>2026-03-29T08:57:08.999Z</time></trkpt><trkpt lat="43.23913803063271" lon="12.149940412700445"><ele>508.6666666666667</ele><time>2026-03-29T08:57:10.999Z</time></trkpt><trkpt lat="43.239216365096055" lon="12.149894174862233"><ele>506.83333333333337</ele><time>2026-03-29T08:57:14.999Z</time></trkpt><trkpt lat="43.239279225064756" lon="12.149885760933861"><ele>505.0</ele><time>2026-03-29T08:57:15.999Z</time></trkpt><trkpt lat="43.23934842544247" lon="12.149846219323654"><ele>501.0</ele><time>2026-03-29T08:57:17.999Z</time></trkpt><trkpt lat="43.239596413194946" lon="12.149674584464902"><ele>497.0</ele><time>2026-03-29T08:57:18.999Z</time></trkpt><trkpt lat="43.239677701325995" lon="12.149595203072078"><ele>493.0</ele><time>2026-03-29T08:57:19.999Z</time></trkpt><trkpt lat="43.23974970634567" lon="12.149523707472115"><ele>491.59999999999997</ele><time>2026-03-29T08:57:20.999Z</time></trkpt><trkpt lat="43.23980533362738" lon="12.149431742138168"><ele>490.19999999999993</ele><time>2026-03-29T08:57:21.999Z</time></trkpt><trkpt lat="43.23985770746855" lon="12.149325936418318"><ele>488.8</ele><time>2026-03-29T08:57:22.999Z</time></trkpt><trkpt lat="43.23991490209458" lon="12.149210696296231"><ele>487.4</ele><time>2026-03-29T08:57:23.998Z</time></trkpt><trkpt lat="43.23998048772564" lon="12.149091446200533"><ele>486.0</ele><time>2026-03-29T08:57:24.998Z</time></trkpt><trkpt lat="43.240043196253694" lon="12.14899312961809"><ele>484.0</ele><time>2026-03-29T08:57:25.998Z</time></trkpt><trkpt lat="43.2401038273699" lon="12.148913389152352"><ele>482.0</ele><time>2026-03-29T08:57:26.998Z</time></trkpt><trkpt lat="43.24016190628891" lon="12.148825937028269"><ele>480.0</ele><time>2026-03-29T08:57:27.998Z</time></trkpt><trkpt lat="43.24020097358279" lon="12.148743030434998"><ele>478.0</ele><time>2026-03-29T08:57:28.998Z</time></trkpt><trkpt lat="43.24015532755821" lon="12.14867961243521"><ele>476.0</ele><time>2026-03-29T08:57:30.998Z</time></trkpt><trkpt lat="43.24000730949496" lon="12.14863841625521"><ele>476.0</ele><time>2026-03-29T08:57:32.998Z</time></trkpt><trkpt lat="43.23993152713307" lon="12.148655461655993"><ele>476.0</ele><time>2026-03-29T08:57:33.998Z</time></trkpt><trkpt lat="43.239842782518906" lon="12.148663636725168"><ele>476.0</ele><time>2026-03-29T08:57:34.998Z</time></trkpt><trkpt lat="43.239728319692766" lon="12.148675920765546"><ele>476.0</ele><time>2026-03-29T08:57:35.998Z</time></trkpt><trkpt lat="43.23957093262676" lon="12.148691333221173"><ele>476.0</ele><time>2026-03-29T08:57:36.998Z</time></trkpt><trkpt lat="43.23949306354904" lon="12.14867731621477"><ele>476.3333333333333</ele><time>2026-03-29T08:57:37.998Z</time></trkpt><trkpt lat="43.239443971847614" lon="12.148595702815733"><ele>476.66666666666663</ele><time>2026-03-29T08:57:39.998Z</time></trkpt><trkpt lat="43.2394359976353" lon="12.14849599550424"><ele>477.0</ele><time>2026-03-29T08:57:40.998Z</time></trkpt><trkpt lat="43.23943643014365" lon="12.148368521723302"><ele>477.33333333333337</ele><time>2026-03-29T08:57:41.998Z</time></trkpt><trkpt lat="43.23944845535477" lon="12.14823365330323"><ele>477.6666666666667</ele><time>2026-03-29T08:57:42.998Z</time></trkpt><trkpt lat="43.239436813906835" lon="12.148093963075365"><ele>478.0</ele><time>2026-03-29T08:57:43.998Z</time></trkpt><trkpt lat="43.239390252676216" lon="12.148001070042334"><ele>474.75</ele><time>2026-03-29T08:57:44.998Z</time></trkpt><trkpt lat="43.239333838451756" lon="12.147879154212601"><ele>471.5</ele><time>2026-03-29T08:57:46.998Z</time></trkpt><trkpt lat="43.23938342161058" lon="12.147736046271982"><ele>468.25</ele><time>2026-03-29T08:57:48.998Z</time></trkpt><trkpt lat="43.23929456631863" lon="12.14759749905479"><ele>465.0</ele><time>2026-03-29T08:57:50.998Z</time></trkpt><trkpt lat="43.239191052999814" lon="12.147575211714676"><ele>465.0</ele><time>2026-03-29T08:57:51.998Z</time></trkpt><trkpt lat="43.23911317581959" lon="12.147512186528337"><ele>465.0</ele><time>2026-03-29T08:57:53.998Z</time></trkpt><trkpt lat="43.239107890592365" lon="12.147407243285006"><ele>465.0</ele><time>2026-03-29T08:57:56Z</time></trkpt><trkpt lat="43.23899865407009" lon="12.147081957466343"><ele>465.0</ele><time>2026-03-29T08:57:59Z</time></trkpt><trkpt lat="43.23896650476785" lon="12.146995225391475"><ele>465.8</ele><time>2026-03-29T08:58:00Z</time></trkpt><trkpt lat="43.2389669905861" lon="12.1468908874386"><ele>466.6</ele><time>2026-03-29T08:58:01Z</time></trkpt><trkpt lat="43.23891720473024" lon="12.146748106369419"><ele>467.4</ele><time>2026-03-29T08:58:03Z</time></trkpt><trkpt lat="43.238860994129695" lon="12.146650564671958"><ele>468.2</ele><time>2026-03-29T08:58:04Z</time></trkpt><trkpt lat="43.23881594016077" lon="12.146543482897425"><ele>469.0</ele><time>2026-03-29T08:58:05Z</time></trkpt><trkpt lat="43.23876064750099" lon="12.146426557157135"><ele>467.0</ele><time>2026-03-29T08:58:06Z</time></trkpt><trkpt lat="43.23872887143102" lon="12.14634969579326"><ele>465.0</ele><time>2026-03-29T08:58:07Z</time></trkpt><trkpt lat="43.23871459359787" lon="12.14616664112245"><ele>463.0</ele><time>2026-03-29T08:58:09Z</time></trkpt><trkpt lat="43.23867369815783" lon="12.146035819145462"><ele>461.0</ele><time>2026-03-29T08:58:10Z</time></trkpt><trkpt lat="43.23862122489538" lon="12.145948728087507"><ele>459.0</ele><time>2026-03-29T08:58:11Z</time></trkpt><trkpt lat="43.238593971627395" lon="12.145848311494724"><ele>459.0</ele><time>2026-03-29T08:58:12Z</time></trkpt><trkpt lat="43.23857957296878" lon="12.145762151456013"><ele>459.0</ele><time>2026-03-29T08:58:14Z</time></trkpt><trkpt lat="43.238534556340916" lon="12.145675797782147"><ele>459.0</ele><time>2026-03-29T08:58:15Z</time></trkpt><trkpt lat="43.23846872022698" lon="12.14557133770687"><ele>459.0</ele><time>2026-03-29T08:58:16Z</time></trkpt><trkpt lat="43.238436035119044" lon="12.14548447303477"><ele>459.0</ele><time>2026-03-29T08:58:17Z</time></trkpt><trkpt lat="43.23839026512185" lon="12.145378156556324"><ele>459.0</ele><time>2026-03-29T08:58:18Z</time></trkpt><trkpt lat="43.238343223273205" lon="12.145296666423365"><ele>457.5</ele><time>2026-03-29T08:58:19Z</time></trkpt><trkpt lat="43.23831209176936" lon="12.145207481606251"><ele>456.0</ele><time>2026-03-29T08:58:20Z</time></trkpt><trkpt lat="43.2382830129146" lon="12.145118033182957"><ele>454.5</ele><time>2026-03-29T08:58:21Z</time></trkpt><trkpt lat="43.23829046736024" lon="12.145019368217563"><ele>453.0</ele><time>2026-03-29T08:58:24Z</time></trkpt><trkpt lat="43.238325231790924" lon="12.14492342092878"><ele>451.5</ele><time>2026-03-29T08:58:26.999Z</time></trkpt><trkpt lat="43.238327290726026" lon="12.144741493537675"><ele>450.0</ele><time>2026-03-29T08:58:28.999Z</time></trkpt><trkpt lat="43.23834761583612" lon="12.14464613205457"><ele>449.66666666666663</ele><time>2026-03-29T08:58:29.999Z</time></trkpt><trkpt lat="43.23842396740986" lon="12.144532443865371"><ele>449.3333333333333</ele><time>2026-03-29T08:58:32.999Z</time></trkpt><trkpt lat="43.2385020528417" lon="12.144475779505337"><ele>449.0</ele><time>2026-03-29T08:58:37.999Z</time></trkpt><trkpt lat="43.23885906219675" lon="12.144060157143237"><ele>448.99999999999994</ele><time>2026-03-29T08:58:39.999Z</time></trkpt><trkpt lat="43.23895018100388" lon="12.144058340266564"><ele>449.0</ele><time>2026-03-29T08:58:40.999Z</time></trkpt><trkpt lat="43.23903703978739" lon="12.144049403284846"><ele>449.0</ele><time>2026-03-29T08:58:41.999Z</time></trkpt><trkpt lat="43.23910956515016" lon="12.144012594431354"><ele>449.0</ele><time>2026-03-29T08:58:42.999Z</time></trkpt><trkpt lat="43.23917772998305" lon="12.143957860417942"><ele>448.99999999999994</ele><time>2026-03-29T08:58:43.999Z</time></trkpt><trkpt lat="43.239245650385826" lon="12.1438744505438"><ele>449.0</ele><time>2026-03-29T08:58:44.999Z</time></trkpt><trkpt lat="43.23929480799748" lon="12.143763969114579"><ele>445.3333333333333</ele><time>2026-03-29T08:58:45.999Z</time></trkpt><trkpt lat="43.239335221661555" lon="12.143670418116056"><ele>441.66666666666663</ele><time>2026-03-29T08:58:46.999Z</time></trkpt><trkpt lat="43.23940473465077" lon="12.143615137289157"><ele>438.0</ele><time>2026-03-29T08:58:47.999Z</time></trkpt><trkpt lat="43.23947203408723" lon="12.143592599317286"><ele>434.33333333333337</ele><time>2026-03-29T08:58:48.999Z</time></trkpt><trkpt lat="43.239559552825654" lon="12.143576388379376"><ele>430.6666666666667</ele><time>2026-03-29T08:58:49.999Z</time></trkpt><trkpt lat="43.239643566774106" lon="12.143592827297933"><ele>427.0</ele><time>2026-03-29T08:58:50.999Z</time></trkpt><trkpt lat="43.23973216607392" lon="12.143649832513452"><ele>421.40000000000003</ele><time>2026-03-29T08:58:51.999Z</time></trkpt><trkpt lat="43.239832754210354" lon="12.14369252579653"><ele>415.80000000000007</ele><time>2026-03-29T08:58:52.999Z</time></trkpt><trkpt lat="43.239928317395744" lon="12.143685116389145"><ele>410.2</ele><time>2026-03-29T08:58:53.999Z</time></trkpt><trkpt lat="43.240017637955624" lon="12.143649188529233"><ele>404.6</ele><time>2026-03-29T08:58:54.999Z</time></trkpt><trkpt lat="43.24010685967219" lon="12.143628025296426"><ele>399.0</ele><time>2026-03-29T08:58:55.999Z</time></trkpt><trkpt lat="43.24019115770293" lon="12.143616632075178"><ele>399.0</ele><time>2026-03-29T08:58:56.999Z</time></trkpt><trkpt lat="43.24026715648001" lon="12.143613309831895"><ele>399.0</ele><time>2026-03-29T08:58:57.999Z</time></trkpt><trkpt lat="43.240341827917085" lon="12.143610393801499"><ele>399.0</ele><time>2026-03-29T08:58:58.999Z</time></trkpt><trkpt lat="43.240381605931326" lon="12.143535642097941"><ele>399.0</ele><time>2026-03-29T08:59:00.999Z</time></trkpt><trkpt lat="43.240343133054" lon="12.143398724459457"><ele>399.0</ele><time>2026-03-29T08:59:01.999Z</time></trkpt><trkpt lat="43.24033780161221" lon="12.143310340704224"><ele>399.0</ele><time>2026-03-29T08:59:02.999Z</time></trkpt><trkpt lat="43.240365304876846" lon="12.143176408135686"><ele>397.2</ele><time>2026-03-29T08:59:04.999Z</time></trkpt><trkpt lat="43.24048167751596" lon="12.143131147498941"><ele>395.4</ele><time>2026-03-29T08:59:06.999Z</time></trkpt><trkpt lat="43.24054404807359" lon="12.143102137742504"><ele>393.6</ele><time>2026-03-29T08:59:07.999Z</time></trkpt><trkpt lat="43.240561539626434" lon="12.142975797425649"><ele>391.8</ele><time>2026-03-29T08:59:09.999Z</time></trkpt><trkpt lat="43.240469663223045" lon="12.142886251190967"><ele>390.0</ele><time>2026-03-29T08:59:11.999Z</time></trkpt><trkpt lat="43.24039022889909" lon="12.142867069224469"><ele>390.0</ele><time>2026-03-29T08:59:12.999Z</time></trkpt><trkpt lat="43.240327704253815" lon="12.142841740699922"><ele>390.0</ele><time>2026-03-29T08:59:13.999Z</time></trkpt><trkpt lat="43.24029761275226" lon="12.142729153852153"><ele>390.0</ele><time>2026-03-29T08:59:15.999Z</time></trkpt><trkpt lat="43.24035414746727" lon="12.142640103603414"><ele>390.0</ele><time>2026-03-29T08:59:16.999Z</time></trkpt><trkpt lat="43.2404362756693" lon="12.142567953950813"><ele>390.0</ele><time>2026-03-29T08:59:17.999Z</time></trkpt><trkpt lat="43.240509409641064" lon="12.14249143810183"><ele>390.0</ele><time>2026-03-29T08:59:18.999Z</time></trkpt><trkpt lat="43.24058520161005" lon="12.142425043852077"><ele>388.0</ele><time>2026-03-29T08:59:19.999Z</time></trkpt><trkpt lat="43.240653398705135" lon="12.14233823374672"><ele>386.0</ele><time>2026-03-29T08:59:20.999Z</time></trkpt><trkpt lat="43.24070684817034" lon="12.142385840631519"><ele>384.0</ele><time>2026-03-29T08:59:22.999Z</time></trkpt><trkpt lat="43.24072894785538" lon="12.14247835830377"><ele>382.0</ele><time>2026-03-29T08:59:23.999Z</time></trkpt><trkpt lat="43.24076708846862" lon="12.142614598401526"><ele>380.0</ele><time>2026-03-29T08:59:24.999Z</time></trkpt><trkpt lat="43.240856904197535" lon="12.142662814011848"><ele>378.0</ele><time>2026-03-29T08:59:25.998Z</time></trkpt><trkpt lat="43.2409635235984" lon="12.142637591599126"><ele>376.3333333333333</ele><time>2026-03-29T08:59:26.998Z</time></trkpt><trkpt lat="43.24107338056127" lon="12.14262449390422"><ele>374.6666666666667</ele><time>2026-03-29T08:59:27.998Z</time></trkpt><trkpt lat="43.24117065005398" lon="12.14261460414399"><ele>373.0</ele><time>2026-03-29T08:59:28.998Z</time></trkpt><trkpt lat="43.24123676646034" lon="12.142654135573913"><ele>371.33333333333337</ele><time>2026-03-29T08:59:29.998Z</time></trkpt><trkpt lat="43.24127926039188" lon="12.142743388229944"><ele>369.6666666666667</ele><time>2026-03-29T08:59:30.998Z</time></trkpt><trkpt lat="43.241342184969255" lon="12.142826007778904"><ele>368.0</ele><time>2026-03-29T08:59:31.998Z</time></trkpt><trkpt lat="43.24138937959334" lon="12.142921951900666"><ele>368.0</ele><time>2026-03-29T08:59:32.998Z</time></trkpt><trkpt lat="43.24145609616081" lon="12.142960637817556"><ele>368.0</ele><time>2026-03-29T08:59:33.998Z</time></trkpt><trkpt lat="43.241528379899485" lon="12.14295971915919"><ele>368.0</ele><time>2026-03-29T08:59:34.998Z</time></trkpt><trkpt lat="43.24160368541704" lon="12.14294017602142"><ele>368.0</ele><time>2026-03-29T08:59:35.998Z</time></trkpt><trkpt lat="43.241710850360626" lon="12.142884291550068"><ele>368.0</ele><time>2026-03-29T08:59:36.998Z</time></trkpt><trkpt lat="43.241816435249525" lon="12.14281709897286"><ele>366.75</ele><time>2026-03-29T08:59:37.998Z</time></trkpt><trkpt lat="43.24192324626428" lon="12.142759442639436"><ele>365.5</ele><time>2026-03-29T08:59:38.998Z</time></trkpt><trkpt lat="43.24200949029378" lon="12.142665835242054"><ele>364.25</ele><time>2026-03-29T08:59:39.998Z</time></trkpt><trkpt lat="43.242130857150045" lon="12.14256905426623"><ele>363.0</ele><time>2026-03-29T08:59:40.998Z</time></trkpt><trkpt lat="43.24224810751621" lon="12.14247555589717"><ele>362.2</ele><time>2026-03-29T08:59:41.998Z</time></trkpt><trkpt lat="43.24235140140711" lon="12.142402876268704"><ele>361.4</ele><time>2026-03-29T08:59:42.998Z</time></trkpt><trkpt lat="43.242444444015916" lon="12.142373215198973"><ele>360.59999999999997</ele><time>2026-03-29T08:59:43.998Z</time></trkpt><trkpt lat="43.24251155092933" lon="12.142296497171865"><ele>359.79999999999995</ele><time>2026-03-29T08:59:44.998Z</time></trkpt><trkpt lat="43.242534032940085" lon="12.142212055938817"><ele>359.0</ele><time>2026-03-29T08:59:45.998Z</time></trkpt><trkpt lat="43.242644405519414" lon="12.142175509031434"><ele>359.0</ele><time>2026-03-29T08:59:46.998Z</time></trkpt><trkpt lat="43.242765793290744" lon="12.142217098600641"><ele>359.0</ele><time>2026-03-29T08:59:47.998Z</time></trkpt><trkpt lat="43.24288325107773" lon="12.142234018039737"><ele>359.0</ele><time>2026-03-29T08:59:48.998Z</time></trkpt><trkpt lat="43.24299624237284" lon="12.142230557129306"><ele>359.0</ele><time>2026-03-29T08:59:49.998Z</time></trkpt><trkpt lat="43.24310726273187" lon="12.142218906383166"><ele>356.25</ele><time>2026-03-29T08:59:50.998Z</time></trkpt><trkpt lat="43.2432395599611" lon="12.142235005192129"><ele>353.5</ele><time>2026-03-29T08:59:51.998Z</time></trkpt><trkpt lat="43.2433720546019" lon="12.142235436224148"><ele>350.75</ele><time>2026-03-29T08:59:52.998Z</time></trkpt><trkpt lat="43.24349512057489" lon="12.14222395299542"><ele>348.0</ele><time>2026-03-29T08:59:53.998Z</time></trkpt><trkpt lat="43.243633057164935" lon="12.142210205962177"><ele>348.0</ele><time>2026-03-29T08:59:54.998Z</time></trkpt><trkpt lat="43.24374547000983" lon="12.142199002666063"><ele>348.0</ele><time>2026-03-29T08:59:55.998Z</time></trkpt><trkpt lat="43.24384856284125" lon="12.142189723120431"><ele>348.0</ele><time>2026-03-29T08:59:56.998Z</time></trkpt><trkpt lat="43.24395742730993" lon="12.142186400755435"><ele>348.0</ele><time>2026-03-29T08:59:57.998Z</time></trkpt><trkpt lat="43.24405298046629" lon="12.142187922114582"><ele>348.0</ele><time>2026-03-29T08:59:58.998Z</time></trkpt><trkpt lat="43.24414784603596" lon="12.142221142904722"><ele>345.4</ele><time>2026-03-29T08:59:59.998Z</time></trkpt><trkpt lat="43.244235252051816" lon="12.142242699284289"><ele>342.79999999999995</ele><time>2026-03-29T09:00:00.998Z</time></trkpt><trkpt lat="43.244324601756" lon="12.142271897704841"><ele>340.2</ele><time>2026-03-29T09:00:02Z</time></trkpt><trkpt lat="43.24442104498087" lon="12.142302554859661"><ele>337.6</ele><time>2026-03-29T09:00:03Z</time></trkpt><trkpt lat="43.24451264229315" lon="12.14235241035466"><ele>335.0</ele><time>2026-03-29T09:00:04Z</time></trkpt><trkpt lat="43.24460029643836" lon="12.14241507883309"><ele>334.6</ele><time>2026-03-29T09:00:05Z</time></trkpt><trkpt lat="43.244686765047845" lon="12.14247971150648"><ele>334.2</ele><time>2026-03-29T09:00:06Z</time></trkpt><trkpt lat="43.24477206571471" lon="12.142539050606432"><ele>333.79999999999995</ele><time>2026-03-29T09:00:07Z</time></trkpt><trkpt lat="43.24486750991211" lon="12.142598331279874"><ele>333.4</ele><time>2026-03-29T09:00:08Z</time></trkpt><trkpt lat="43.2449526886373" lon="12.142656910227585"><ele>333.0</ele><time>2026-03-29T09:00:09Z</time></trkpt><trkpt lat="43.2450343716548" lon="12.142710937812446"><ele>331.4</ele><time>2026-03-29T09:00:10Z</time></trkpt><trkpt lat="43.24511222634487" lon="12.14276751409551"><ele>329.79999999999995</ele><time>2026-03-29T09:00:11Z</time></trkpt><trkpt lat="43.245199648394824" lon="12.142793963147192"><ele>328.2</ele><time>2026-03-29T09:00:12Z</time></trkpt><trkpt lat="43.2453041251829" lon="12.142824283386119"><ele>326.6</ele><time>2026-03-29T09:00:13Z</time></trkpt><trkpt lat="43.24541082121055" lon="12.142830050973615"><ele>325.0</ele><time>2026-03-29T09:00:14Z</time></trkpt><trkpt lat="43.24550567757856" lon="12.142838393268793"><ele>325.0</ele><time>2026-03-29T09:00:15Z</time></trkpt><trkpt lat="43.24559701675275" lon="12.14284905655704"><ele>325.0</ele><time>2026-03-29T09:00:16Z</time></trkpt><trkpt lat="43.245686586375484" lon="12.14285879148601"><ele>325.0</ele><time>2026-03-29T09:00:17Z</time></trkpt><trkpt lat="43.245782500386355" lon="12.14287965467961"><ele>325.0</ele><time>2026-03-29T09:00:18Z</time></trkpt><trkpt lat="43.24588121838701" lon="12.142903739799282"><ele>325.0</ele><time>2026-03-29T09:00:19Z</time></trkpt><trkpt lat="43.245982293170954" lon="12.142942097418244"><ele>323.8</ele><time>2026-03-29T09:00:20Z</time></trkpt><trkpt lat="43.246084790203334" lon="12.142991327653304"><ele>322.6</ele><time>2026-03-29T09:00:21Z</time></trkpt><trkpt lat="43.24617726539297" lon="12.143038252344818"><ele>321.4</ele><time>2026-03-29T09:00:22Z</time></trkpt><trkpt lat="43.246257137645955" lon="12.143086634075583"><ele>320.2</ele><time>2026-03-29T09:00:23Z</time></trkpt><trkpt lat="43.24631204649556" lon="12.143179189057946"><ele>319.0</ele><time>2026-03-29T09:00:24Z</time></trkpt><trkpt lat="43.24635949096632" lon="12.143252909601577"><ele>319.0</ele><time>2026-03-29T09:00:25Z</time></trkpt><trkpt lat="43.2463725481645" lon="12.1433434209188"><ele>319.0</ele><time>2026-03-29T09:00:26Z</time></trkpt><trkpt lat="43.24630091875152" lon="12.143451534190659"><ele>319.0</ele><time>2026-03-29T09:00:27.999Z</time></trkpt><trkpt lat="43.24626514678346" lon="12.143525013603954"><ele>319.0</ele><time>2026-03-29T09:00:28.999Z</time></trkpt><trkpt lat="43.24619992610138" lon="12.143651157163584"><ele>319.0</ele><time>2026-03-29T09:00:30.999Z</time></trkpt><trkpt lat="43.24615685948268" lon="12.143730521862656"><ele>319.0</ele><time>2026-03-29T09:00:32.999Z</time></trkpt><trkpt lat="43.246093208139904" lon="12.14384782087969"><ele>319.0</ele><time>2026-03-29T09:00:35.999Z</time></trkpt><trkpt lat="43.24605074755323" lon="12.143957514669177"><ele>319.0</ele><time>2026-03-29T09:00:37.999Z</time></trkpt><trkpt lat="43.24600752134177" lon="12.14402061732264"><ele>319.0</ele><time>2026-03-29T09:00:39.999Z</time></trkpt><trkpt lat="43.24608498727754" lon="12.144087245978756"><ele>319.0</ele><time>2026-03-29T09:00:41.999Z</time></trkpt><trkpt lat="43.24616719600103" lon="12.144211080523322"><ele>319.0</ele><time>2026-03-29T09:00:43.999Z</time></trkpt><trkpt lat="43.24623380031751" lon="12.144291215777034"><ele>319.16666666666663</ele><time>2026-03-29T09:00:44.999Z</time></trkpt><trkpt lat="43.24630062718972" lon="12.144365332258296"><ele>319.3333333333333</ele><time>2026-03-29T09:00:45.999Z</time></trkpt><trkpt lat="43.24636690719096" lon="12.144434435067687"><ele>319.5</ele><time>2026-03-29T09:00:46.999Z</time></trkpt><trkpt lat="43.24642818570769" lon="12.144472773598759"><ele>319.6666666666667</ele><time>2026-03-29T09:00:47.999Z</time></trkpt><trkpt lat="43.24650502918756" lon="12.14455288428718"><ele>319.83333333333337</ele><time>2026-03-29T09:00:49.999Z</time></trkpt><trkpt lat="43.24655881920005" lon="12.144613673018485"><ele>320.0</ele><time>2026-03-29T09:00:52.999Z</time></trkpt><trkpt lat="43.24661227413499" lon="12.14466019066066"><ele>308.0</ele><time>2026-03-29T09:00:58.999Z</time></trkpt><trkpt lat="43.2466690513239" lon="12.14461925412097"><ele>308.0</ele><time>2026-03-29T09:02:08Z</time></trkpt><trkpt lat="43.24668784912667" lon="12.144523283509626"><ele>308.0</ele><time>2026-03-29T09:02:42.999Z</time></trkpt><trkpt lat="43.246696618510974" lon="12.14442805149723"><ele>308.0</ele><time>2026-03-29T09:02:53.999Z</time></trkpt><trkpt lat="43.246696618510974" lon="12.14442805149723"><ele>308.0</ele><time>2026-03-29T09:02:53.999Z</time></trkpt><trkpt lat="43.246696618510974" lon="12.14442805149723"><ele>308.0</ele><time>2026-03-29T09:02:53.999Z</time></trkpt><trkpt lat="43.246696618510974" lon="12.14442805149723"><ele>308.0</ele><time>2026-03-29T09:02:53.999Z</time></trkpt><trkpt lat="43.246696618510974" lon="12.14442805149723"><ele>308.0</ele><time>2026-03-29T09:02:53.999Z</time></trkpt><trkpt lat="43.246696618510974" lon="12.14442805149723"><ele>308.0</ele><time>2026-03-29T09:02:53.999Z</time></trkpt><trkpt lat="43.246696618510974" lon="12.14442805149723"><ele>308.0</ele><time>2026-03-29T09:02:53.999Z</time></trkpt><trkpt lat="43.246696618510974" lon="12.14442805149723"><ele>308.0</ele><time>2026-03-29T09:02:53.999Z</time></trkpt><trkpt lat="43.246696618510974" lon="12.14442805149723"><ele>308.0</ele><time>2026-03-29T09:02:53.999Z</time></trkpt><trkpt lat="43.246696618510974" lon="12.14442805149723"><ele>308.0</ele><time>2026-03-29T09:02:53.999Z</time></trkpt><trkpt lat="43.246696618510974" lon="12.14442805149723"><ele>308.0</ele><time>2026-03-29T09:02:53.999Z</time></trkpt></trkseg><trkseg><trkpt lat="43.24667924729055" lon="12.14466109653708"><ele>308.0</ele><time>2026-03-29T09:20:47.999Z</time></trkpt><trkpt lat="43.24821081709356" lon="12.140581624241086"><ele>308.0</ele><time>2026-03-29T09:24:01.998Z</time></trkpt><trkpt lat="43.24829700642591" lon="12.140470988669408"><ele>308.0</ele><time>2026-03-29T09:24:02.998Z</time></trkpt><trkpt lat="43.24838848292155" lon="12.140353697047113"><ele>308.0</ele><time>2026-03-29T09:24:03.998Z</time></trkpt><trkpt lat="43.248486664144224" lon="12.140234961557017"><ele>308.0</ele><time>2026-03-29T09:24:04.998Z</time></trkpt><trkpt lat="43.24858670138541" lon="12.140110357027968"><ele>308.0</ele><time>2026-03-29T09:24:05.998Z</time></trkpt><trkpt lat="43.24868762272947" lon="12.139982492992413"><ele>308.0</ele><time>2026-03-29T09:24:06.998Z</time></trkpt><trkpt lat="43.24879035740339" lon="12.139853705249026"><ele>308.0</ele><time>2026-03-29T09:24:07.998Z</time></trkpt><trkpt lat="43.24889064382994" lon="12.139721561218806"><ele>308.0</ele><time>2026-03-29T09:24:08.998Z</time></trkpt><trkpt lat="43.248980127752354" lon="12.13960486316856"><ele>307.8</ele><time>2026-03-29T09:24:09.998Z</time></trkpt><trkpt lat="43.249067101061065" lon="12.139493029683681"><ele>307.6</ele><time>2026-03-29T09:24:10.998Z</time></trkpt><trkpt lat="43.249148441878454" lon="12.139390013488699"><ele>307.4</ele><time>2026-03-29T09:24:11.998Z</time></trkpt><trkpt lat="43.24921847736799" lon="12.139296934216205"><ele>307.2</ele><time>2026-03-29T09:24:12.998Z</time></trkpt><trkpt lat="43.24928228021214" lon="12.13920989888057"><ele>307.0</ele><time>2026-03-29T09:24:14Z</time></trkpt><trkpt lat="43.24933930937009" lon="12.139133409445005"><ele>307.0</ele><time>2026-03-29T09:24:15Z</time></trkpt><trkpt lat="43.249398755290734" lon="12.139062830004399"><ele>307.0</ele><time>2026-03-29T09:24:16Z</time></trkpt><trkpt lat="43.24945558172177" lon="12.138997111930404"><ele>307.0</ele><time>2026-03-29T09:24:17Z</time></trkpt><trkpt lat="43.24950987411069" lon="12.138939258453338"><ele>307.0</ele><time>2026-03-29T09:24:18Z</time></trkpt><trkpt lat="43.24961396527478" lon="12.13886590106432"><ele>307.0</ele><time>2026-03-29T09:24:20Z</time></trkpt><trkpt lat="43.249670231063675" lon="12.13880368129303"><ele>307.0</ele><time>2026-03-29T09:24:22Z</time></trkpt><trkpt lat="43.2496842320868" lon="12.138707520341287"><ele>355.0</ele><time>2026-03-29T09:24:25Z</time></trkpt><trkpt lat="43.2510797657068" lon="12.132845432802041"><ele>355.0</ele><time>2026-03-29T09:26:01.998Z</time></trkpt><trkpt lat="43.25103433547171" lon="12.132772200892521"><ele>355.0</ele><time>2026-03-29T09:26:02.998Z</time></trkpt><trkpt lat="43.250977908617365" lon="12.13283354210837"><ele>355.0</ele><time>2026-03-29T09:26:05.998Z</time></trkpt><trkpt lat="43.25098497598888" lon="12.132927946978446"><ele>355.0</ele><time>2026-03-29T09:26:06.998Z</time></trkpt><trkpt lat="43.25092577199737" lon="12.132981343466218"><ele>355.0</ele><time>2026-03-29T09:26:08.998Z</time></trkpt><trkpt lat="43.250824468891736" lon="12.132899715482745"><ele>355.0</ele><time>2026-03-29T09:26:10.998Z</time></trkpt><trkpt lat="43.250705477091905" lon="12.132868919309061"><ele>357.5</ele><time>2026-03-29T09:26:12.998Z</time></trkpt><trkpt lat="43.25058412176154" lon="12.13287744193544"><ele>360.0</ele><time>2026-03-29T09:26:14.998Z</time></trkpt><trkpt lat="43.2504969001274" lon="12.132868377251059"><ele>362.5</ele><time>2026-03-29T09:26:15.998Z</time></trkpt><trkpt lat="43.250385195136964" lon="12.1328718376423"><ele>365.0</ele><time>2026-03-29T09:26:16.998Z</time></trkpt><trkpt lat="43.250248998195495" lon="12.132909465300925"><ele>365.0</ele><time>2026-03-29T09:26:17.998Z</time></trkpt><trkpt lat="43.25016899944072" lon="12.132916950976096"><ele>365.0</ele><time>2026-03-29T09:26:18.998Z</time></trkpt><trkpt lat="43.250099711905264" lon="12.13289826458458"><ele>365.0</ele><time>2026-03-29T09:26:20Z</time></trkpt><trkpt lat="43.250027619747506" lon="12.132869411456758"><ele>365.0</ele><time>2026-03-29T09:26:21Z</time></trkpt><trkpt lat="43.249914296459636" lon="12.132925569666867"><ele>365.0</ele><time>2026-03-29T09:26:23Z</time></trkpt><trkpt lat="43.24982327345982" lon="12.132951271014347"><ele>365.0</ele><time>2026-03-29T09:26:24Z</time></trkpt><trkpt lat="43.249730440875815" lon="12.132919565916835"><ele>366.33333333333337</ele><time>2026-03-29T09:26:25Z</time></trkpt><trkpt lat="43.24966708007353" lon="12.132893553291574"><ele>367.6666666666667</ele><time>2026-03-29T09:26:26Z</time></trkpt><trkpt lat="43.24955464451725" lon="12.132932833911948"><ele>369.0</ele><time>2026-03-29T09:26:28Z</time></trkpt><trkpt lat="43.24949233466914" lon="12.132975952322337"><ele>370.3333333333333</ele><time>2026-03-29T09:26:29Z</time></trkpt><trkpt lat="43.2494157041137" lon="12.13304330772133"><ele>371.66666666666663</ele><time>2026-03-29T09:26:30Z</time></trkpt><trkpt lat="43.249341353533744" lon="12.133110569774583"><ele>373.0</ele><time>2026-03-29T09:26:31Z</time></trkpt><trkpt lat="43.249240074408355" lon="12.133166949914761"><ele>373.0</ele><time>2026-03-29T09:26:32Z</time></trkpt><trkpt lat="43.24913482433156" lon="12.133210766657033"><ele>373.0</ele><time>2026-03-29T09:26:33Z</time></trkpt><trkpt lat="43.24905750909076" lon="12.133238185218552"><ele>373.0</ele><time>2026-03-29T09:26:34Z</time></trkpt><trkpt lat="43.248983722447804" lon="12.133239201471095"><ele>373.0</ele><time>2026-03-29T09:26:35Z</time></trkpt><trkpt lat="43.24887558596598" lon="12.133231003115972"><ele>373.0</ele><time>2026-03-29T09:26:36Z</time></trkpt><trkpt lat="43.248790923208276" lon="12.133244630756431"><ele>378.25</ele><time>2026-03-29T09:26:37Z</time></trkpt><trkpt lat="43.24867895110351" lon="12.133338976388846"><ele>383.5</ele><time>2026-03-29T09:26:39Z</time></trkpt><trkpt lat="43.248528155880344" lon="12.133353489727833"><ele>388.75</ele><time>2026-03-29T09:26:41Z</time></trkpt><trkpt lat="43.24842777438249" lon="12.13336229112258"><ele>394.0</ele><time>2026-03-29T09:26:42Z</time></trkpt><trkpt lat="43.2483383809304" lon="12.13339271133116"><ele>394.0</ele><time>2026-03-29T09:26:43Z</time></trkpt><trkpt lat="43.248224331284185" lon="12.133333447942292"><ele>394.0</ele><time>2026-03-29T09:26:45Z</time></trkpt><trkpt lat="43.24813869893321" lon="12.133343868502354"><ele>394.0</ele><time>2026-03-29T09:26:46Z</time></trkpt><trkpt lat="43.24802277656267" lon="12.133301208939223"><ele>394.0</ele><time>2026-03-29T09:26:47.999Z</time></trkpt><trkpt lat="43.24794800206518" lon="12.133271393998507"><ele>394.0</ele><time>2026-03-29T09:26:48.999Z</time></trkpt><trkpt lat="43.24785489171072" lon="12.133228425358793"><ele>394.5</ele><time>2026-03-29T09:26:49.999Z</time></trkpt><trkpt lat="43.24774847620146" lon="12.133162903118262"><ele>395.0</ele><time>2026-03-29T09:26:50.999Z</time></trkpt><trkpt lat="43.24760283782647" lon="12.13306876997717"><ele>395.5</ele><time>2026-03-29T09:26:51.999Z</time></trkpt><trkpt lat="43.24750327139446" lon="12.1329941519852"><ele>396.0</ele><time>2026-03-29T09:26:52.999Z</time></trkpt><trkpt lat="43.247420553267396" lon="12.132909827819889"><ele>396.0</ele><time>2026-03-29T09:26:53.999Z</time></trkpt><trkpt lat="43.24732983269215" lon="12.132809381925908"><ele>396.0</ele><time>2026-03-29T09:26:54.999Z</time></trkpt><trkpt lat="43.24730026294685" lon="12.132725592879025"><ele>396.0</ele><time>2026-03-29T09:26:55.999Z</time></trkpt><trkpt lat="43.24719248496381" lon="12.13266577532708"><ele>396.0</ele><time>2026-03-29T09:26:58.999Z</time></trkpt><trkpt lat="43.247124794587286" lon="12.132682089895143"><ele>396.0</ele><time>2026-03-29T09:27:00.999Z</time></trkpt><trkpt lat="43.24453191663834" lon="12.134655654418134"><ele>414.3333333333333</ele><time>2026-03-29T09:28:01.998Z</time></trkpt><trkpt lat="43.24462139490767" lon="12.134641735826367"><ele>432.66666666666663</ele><time>2026-03-29T09:28:06.998Z</time></trkpt><trkpt lat="43.24462016718453" lon="12.134535364372832"><ele>451.0</ele><time>2026-03-29T09:28:09.998Z</time></trkpt><trkpt lat="43.24455134876052" lon="12.13448351786043"><ele>469.3333333333333</ele><time>2026-03-29T09:28:12.998Z</time></trkpt><trkpt lat="43.24447737590609" lon="12.134450163484317"><ele>487.66666666666663</ele><time>2026-03-29T09:28:13.998Z</time></trkpt><trkpt lat="43.2444098149087" lon="12.13439605090014"><ele>506.0</ele><time>2026-03-29T09:28:14.998Z</time></trkpt><trkpt lat="43.24436336582675" lon="12.13433240362739"><ele>506.0</ele><time>2026-03-29T09:28:15.998Z</time></trkpt><trkpt lat="43.244303064900436" lon="12.13426283735507"><ele>506.0</ele><time>2026-03-29T09:28:16.998Z</time></trkpt><trkpt lat="43.2442217409991" lon="12.134181439594848"><ele>506.0</ele><time>2026-03-29T09:28:17.998Z</time></trkpt><trkpt lat="43.24412184198108" lon="12.13410559237986"><ele>506.0</ele><time>2026-03-29T09:28:18.998Z</time></trkpt><trkpt lat="43.24402272238752" lon="12.134061503555035"><ele>506.0</ele><time>2026-03-29T09:28:19.998Z</time></trkpt><trkpt lat="43.24394352695481" lon="12.13400865085748"><ele>509.16666666666663</ele><time>2026-03-29T09:28:20.998Z</time></trkpt><trkpt lat="43.24389953287293" lon="12.133941900249901"><ele>512.3333333333333</ele><time>2026-03-29T09:28:21.998Z</time></trkpt><trkpt lat="43.24388110274247" lon="12.133773523716245"><ele>515.5</ele><time>2026-03-29T09:28:23.998Z</time></trkpt><trkpt lat="43.243850874978456" lon="12.133690313409506"><ele>518.6666666666666</ele><time>2026-03-29T09:28:24.998Z</time></trkpt><trkpt lat="43.243764112779814" lon="12.133650886955381"><ele>521.8333333333334</ele><time>2026-03-29T09:28:27Z</time></trkpt><trkpt lat="43.243692905369144" lon="12.133590569676977"><ele>525.0</ele><time>2026-03-29T09:28:28Z</time></trkpt><trkpt lat="43.24360621423854" lon="12.133529259098504"><ele>525.0</ele><time>2026-03-29T09:28:29Z</time></trkpt><trkpt lat="43.24353475766972" lon="12.133437050166666"><ele>525.0</ele><time>2026-03-29T09:28:30Z</time></trkpt><trkpt lat="43.24347264041741" lon="12.133323836806078"><ele>525.0</ele><time>2026-03-29T09:28:31Z</time></trkpt><trkpt lat="43.2434097077385" lon="12.133238883886925"><ele>525.0</ele><time>2026-03-29T09:28:32Z</time></trkpt><trkpt lat="43.243365282577194" lon="12.1331644528502"><ele>525.0</ele><time>2026-03-29T09:28:33Z</time></trkpt><trkpt lat="43.24332223256939" lon="12.133063451020776"><ele>525.0</ele><time>2026-03-29T09:28:34Z</time></trkpt><trkpt lat="43.243306925686106" lon="12.132960396844103"><ele>525.6666666666666</ele><time>2026-03-29T09:28:35Z</time></trkpt><trkpt lat="43.243291241248706" lon="12.13286280864519"><ele>526.3333333333334</ele><time>2026-03-29T09:28:36Z</time></trkpt><trkpt lat="43.24324757927573" lon="12.132762000968961"><ele>527.0</ele><time>2026-03-29T09:28:37Z</time></trkpt><trkpt lat="43.243190352667874" lon="12.132657224247277"><ele>527.6666666666667</ele><time>2026-03-29T09:28:38Z</time></trkpt><trkpt lat="43.243122466435814" lon="12.132561324918548"><ele>528.3333333333334</ele><time>2026-03-29T09:28:39Z</time></trkpt><trkpt lat="43.24304587666812" lon="12.132485071422831"><ele>529.0</ele><time>2026-03-29T09:28:40Z</time></trkpt><trkpt lat="43.24298927243401" lon="12.132441411092076"><ele>529.0</ele><time>2026-03-29T09:28:42Z</time></trkpt><trkpt lat="43.24301514288833" lon="12.132540833761798"><ele>529.0</ele><time>2026-03-29T09:28:46Z</time></trkpt><trkpt lat="43.24307674364403" lon="12.132605984623558"><ele>529.0</ele><time>2026-03-29T09:28:48Z</time></trkpt><trkpt lat="43.2431325405762" lon="12.132677553369112"><ele>529.0</ele><time>2026-03-29T09:28:49Z</time></trkpt><trkpt lat="43.24320485344778" lon="12.132830559487568"><ele>529.0</ele><time>2026-03-29T09:28:50Z</time></trkpt><trkpt lat="43.24320222349172" lon="12.132946497649197"><ele>529.0</ele><time>2026-03-29T09:28:51Z</time></trkpt><trkpt lat="43.24318045838399" lon="12.133058878754403"><ele>529.0</ele><time>2026-03-29T09:28:51.999Z</time></trkpt><trkpt lat="43.24313612271706" lon="12.133139090103857"><ele>529.0</ele><time>2026-03-29T09:28:52.999Z</time></trkpt><trkpt lat="43.24302311382166" lon="12.13315637718514"><ele>529.0</ele><time>2026-03-29T09:28:54.999Z</time></trkpt><trkpt lat="43.24293748595338" lon="12.133142818095644"><ele>529.0</ele><time>2026-03-29T09:28:55.999Z</time></trkpt><trkpt lat="43.24287245537685" lon="12.133146333150817"><ele>529.0</ele><time>2026-03-29T09:28:56.999Z</time></trkpt><trkpt lat="43.242789998814715" lon="12.133208726064662"><ele>529.0</ele><time>2026-03-29T09:28:58.999Z</time></trkpt><trkpt lat="43.23945236825619" lon="12.132972577313843"><ele>553.4</ele><time>2026-03-29T09:30:01.998Z</time></trkpt><trkpt lat="43.23935298671922" lon="12.133052262890661"><ele>577.8</ele><time>2026-03-29T09:30:03.998Z</time></trkpt><trkpt lat="43.23930148578211" lon="12.133111653793973"><ele>602.1999999999999</ele><time>2026-03-29T09:30:04.998Z</time></trkpt><trkpt lat="43.23923443372229" lon="12.133115318631342"><ele>626.5999999999999</ele><time>2026-03-29T09:30:05.998Z</time></trkpt><trkpt lat="43.239136509054326" lon="12.133091587173006"><ele>651.0</ele><time>2026-03-29T09:30:06.998Z</time></trkpt><trkpt lat="43.23901182447821" lon="12.133071124475078"><ele>652.0</ele><time>2026-03-29T09:30:07.998Z</time></trkpt><trkpt lat="43.238940448305385" lon="12.133056866178793"><ele>653.0</ele><time>2026-03-29T09:30:08.998Z</time></trkpt><trkpt lat="43.23893664008842" lon="12.132901698037228"><ele>654.0</ele><time>2026-03-29T09:30:10.998Z</time></trkpt><trkpt lat="43.23891512507539" lon="12.132744228868848"><ele>655.0</ele><time>2026-03-29T09:30:11.998Z</time></trkpt><trkpt lat="43.238867025963025" lon="12.132626946695467"><ele>656.0</ele><time>2026-03-29T09:30:12.998Z</time></trkpt><trkpt lat="43.238804602094454" lon="12.132558188367812"><ele>656.0</ele><time>2026-03-29T09:30:13.998Z</time></trkpt><trkpt lat="43.23871553025358" lon="12.132495556123542"><ele>656.0</ele><time>2026-03-29T09:30:14.998Z</time></trkpt><trkpt lat="43.238593675162676" lon="12.132428025857118"><ele>656.0</ele><time>2026-03-29T09:30:15.998Z</time></trkpt><trkpt lat="43.23848221528764" lon="12.132372673816787"><ele>656.0</ele><time>2026-03-29T09:30:16.998Z</time></trkpt><trkpt lat="43.23838947782835" lon="12.132314362209254"><ele>659.8</ele><time>2026-03-29T09:30:17.998Z</time></trkpt><trkpt lat="43.23829640058867" lon="12.132278828754961"><ele>663.5999999999999</ele><time>2026-03-29T09:30:18.998Z</time></trkpt><trkpt lat="43.238205834265564" lon="12.132265091544008"><ele>667.4</ele><time>2026-03-29T09:30:19.998Z</time></trkpt><trkpt lat="43.23809465841035" lon="12.132257567764118"><ele>671.2</ele><time>2026-03-29T09:30:20.998Z</time></trkpt><trkpt lat="43.2379708816329" lon="12.132261633271586"><ele>675.0</ele><time>2026-03-29T09:30:21.998Z</time></trkpt><trkpt lat="43.23784702778465" lon="12.132275082687903"><ele>676.0</ele><time>2026-03-29T09:30:22.998Z</time></trkpt><trkpt lat="43.2377286963329" lon="12.132278113062974"><ele>677.0</ele><time>2026-03-29T09:30:23.998Z</time></trkpt><trkpt lat="43.2376001821412" lon="12.132269095087018"><ele>678.0</ele><time>2026-03-29T09:30:24.998Z</time></trkpt><trkpt lat="43.23747654784867" lon="12.132288959265612"><ele>679.0</ele><time>2026-03-29T09:30:25.998Z</time></trkpt><trkpt lat="43.23735273255058" lon="12.132332311317343"><ele>673.75</ele><time>2026-03-29T09:30:26.998Z</time></trkpt><trkpt lat="43.237222679163025" lon="12.132411949120362"><ele>668.5</ele><time>2026-03-29T09:30:27.998Z</time></trkpt><trkpt lat="43.237099188542736" lon="12.132491793792088"><ele>663.25</ele><time>2026-03-29T09:30:28.998Z</time></trkpt><trkpt lat="43.237005878919085" lon="12.13257262020052"><ele>658.0</ele><time>2026-03-29T09:30:29.998Z</time></trkpt><trkpt lat="43.23695254768837" lon="12.132623181384545"><ele>658.0</ele><time>2026-03-29T09:30:30.998Z</time></trkpt><trkpt lat="43.236873831969035" lon="12.132620196801993"><ele>658.0</ele><time>2026-03-29T09:30:33Z</time></trkpt><trkpt lat="43.23681765632656" lon="12.132570330901673"><ele>658.0</ele><time>2026-03-29T09:30:34Z</time></trkpt><trkpt lat="43.236757501349864" lon="12.132479493357756"><ele>658.0</ele><time>2026-03-29T09:30:35Z</time></trkpt><trkpt lat="43.23667025210007" lon="12.132361380490481"><ele>658.0</ele><time>2026-03-29T09:30:36Z</time></trkpt><trkpt lat="43.23654939599869" lon="12.132213927610003"><ele>665.3333333333334</ele><time>2026-03-29T09:30:37Z</time></trkpt><trkpt lat="43.23641356079934" lon="12.132113236958677"><ele>672.6666666666666</ele><time>2026-03-29T09:30:38Z</time></trkpt><trkpt lat="43.236254403324175" lon="12.132027918476311"><ele>680.0</ele><time>2026-03-29T09:30:39Z</time></trkpt><trkpt lat="43.23609052958189" lon="12.131946206735423"><ele>680.0</ele><time>2026-03-29T09:30:40Z</time></trkpt><trkpt lat="43.23596604681249" lon="12.131842393319426"><ele>680.0</ele><time>2026-03-29T09:30:41Z</time></trkpt><trkpt lat="43.235868972472154" lon="12.131743612577901"><ele>680.0</ele><time>2026-03-29T09:30:42Z</time></trkpt><trkpt lat="43.235765357017144" lon="12.131708440775881"><ele>680.0</ele><time>2026-03-29T09:30:43Z</time></trkpt><trkpt lat="43.23568618453372" lon="12.131732465074181"><ele>684.4</ele><time>2026-03-29T09:30:44Z</time></trkpt><trkpt lat="43.23562416505688" lon="12.131816401288999"><ele>688.8</ele><time>2026-03-29T09:30:45Z</time></trkpt><trkpt lat="43.23558092079646" lon="12.13191698773395"><ele>693.2</ele><time>2026-03-29T09:30:46Z</time></trkpt><trkpt lat="43.23551182602329" lon="12.132010468923124"><ele>697.6</ele><time>2026-03-29T09:30:47Z</time></trkpt><trkpt lat="43.235419289565165" lon="12.132081799484958"><ele>702.0</ele><time>2026-03-29T09:30:48Z</time></trkpt><trkpt lat="43.235323923691055" lon="12.13209376728673"><ele>702.0</ele><time>2026-03-29T09:30:49Z</time></trkpt><trkpt lat="43.235201370317455" lon="12.132078159007154"><ele>702.0</ele><time>2026-03-29T09:30:50Z</time></trkpt><trkpt lat="43.23503930060842" lon="12.13203743973608"><ele>702.0</ele><time>2026-03-29T09:30:51Z</time></trkpt><trkpt lat="43.23486861506966" lon="12.132014338240591"><ele>705.6666666666666</ele><time>2026-03-29T09:30:52Z</time></trkpt><trkpt lat="43.23468535575371" lon="12.132049668626843"><ele>709.3333333333333</ele><time>2026-03-29T09:30:53Z</time></trkpt><trkpt lat="43.234501980845835" lon="12.13211683881885"><ele>713.0</ele><time>2026-03-29T09:30:54Z</time></trkpt><trkpt lat="43.23436273043578" lon="12.132165769281086"><ele>713.0</ele><time>2026-03-29T09:30:54.999Z</time></trkpt><trkpt lat="43.234263620168605" lon="12.132182564324944"><ele>713.0</ele><time>2026-03-29T09:30:55.999Z</time></trkpt><trkpt lat="43.23418817811948" lon="12.132153840845577"><ele>713.0</ele><time>2026-03-29T09:30:56.999Z</time></trkpt><trkpt lat="43.23409389060756" lon="12.132085051115544"><ele>713.0</ele><time>2026-03-29T09:30:57.999Z</time></trkpt><trkpt lat="43.233981492151734" lon="12.13198935485109"><ele>713.0</ele><time>2026-03-29T09:30:58.999Z</time></trkpt><trkpt lat="43.233852283914565" lon="12.131878631134212"><ele>713.5</ele><time>2026-03-29T09:30:59.999Z</time></trkpt><trkpt lat="43.23370323078551" lon="12.131757917689987"><ele>714.0</ele><time>2026-03-29T09:31:00.999Z</time></trkpt><trkpt lat="43.23011955964085" lon="12.135937952630886"><ele>714.0</ele><time>2026-03-29T09:32:01.998Z</time></trkpt><trkpt lat="43.23005733276247" lon="12.135984488667518"><ele>714.0</ele><time>2026-03-29T09:32:02.998Z</time></trkpt><trkpt lat="43.2299676821852" lon="12.136079203769839"><ele>714.0</ele><time>2026-03-29T09:32:03.998Z</time></trkpt><trkpt lat="43.229889253279396" lon="12.136158108090386"><ele>714.0</ele><time>2026-03-29T09:32:04.998Z</time></trkpt><trkpt lat="43.22982118079033" lon="12.13624692944931"><ele>714.0</ele><time>2026-03-29T09:32:05.998Z</time></trkpt><trkpt lat="43.22973465493913" lon="12.136390763010017"><ele>716.5</ele><time>2026-03-29T09:32:06.998Z</time></trkpt><trkpt lat="43.229664068881455" lon="12.136575012944636"><ele>719.0</ele><time>2026-03-29T09:32:07.998Z</time></trkpt><trkpt lat="43.22962969605357" lon="12.136763514379128"><ele>721.5</ele><time>2026-03-29T09:32:08.998Z</time></trkpt><trkpt lat="43.22961419951178" lon="12.136892979124648"><ele>724.0</ele><time>2026-03-29T09:32:09.998Z</time></trkpt><trkpt lat="43.2296157949217" lon="12.137011887282469"><ele>724.0</ele><time>2026-03-29T09:32:10.998Z</time></trkpt><trkpt lat="43.229620452379194" lon="12.137132019616105"><ele>724.0</ele><time>2026-03-29T09:32:11.998Z</time></trkpt><trkpt lat="43.22959146472716" lon="12.137245253760641"><ele>724.0</ele><time>2026-03-29T09:32:12.998Z</time></trkpt><trkpt lat="43.22956483154169" lon="12.137369160993577"><ele>724.0</ele><time>2026-03-29T09:32:13.998Z</time></trkpt><trkpt lat="43.22953296114045" lon="12.137487164249936"><ele>724.0</ele><time>2026-03-29T09:32:14.998Z</time></trkpt><trkpt lat="43.229519019662256" lon="12.137626799594937"><ele>721.2</ele><time>2026-03-29T09:32:15.998Z</time></trkpt><trkpt lat="43.22949042128178" lon="12.137772073508925"><ele>718.4000000000001</ele><time>2026-03-29T09:32:16.998Z</time></trkpt><trkpt lat="43.22946396738468" lon="12.137913408475429"><ele>715.6</ele><time>2026-03-29T09:32:17.998Z</time></trkpt><trkpt lat="43.22944573273117" lon="12.13804449594101"><ele>712.8</ele><time>2026-03-29T09:32:18.998Z</time></trkpt><trkpt lat="43.229451871679224" lon="12.138164962258665"><ele>710.0</ele><time>2026-03-29T09:32:19.998Z</time></trkpt><trkpt lat="43.229448863642084" lon="12.138270782063097"><ele>709.6666666666666</ele><time>2026-03-29T09:32:20.998Z</time></trkpt><trkpt lat="43.229432850796094" lon="12.138354680444197"><ele>709.3333333333333</ele><time>2026-03-29T09:32:22.998Z</time></trkpt><trkpt lat="43.22946562359605" lon="12.138481181973333"><ele>709.0</ele><time>2026-03-29T09:32:25.998Z</time></trkpt><trkpt lat="43.229484447766424" lon="12.13857398815748"><ele>708.6666666666666</ele><time>2026-03-29T09:32:28.998Z</time></trkpt><trkpt lat="43.22952043331346" lon="12.138659355581936"><ele>708.3333333333334</ele><time>2026-03-29T09:32:31.998Z</time></trkpt><trkpt lat="43.229561777810865" lon="12.138731955945266"><ele>708.0</ele><time>2026-03-29T09:32:35.998Z</time></trkpt><trkpt lat="43.22991798768722" lon="12.139359360061082"><ele>708.0</ele><time>2026-03-29T09:32:38Z</time></trkpt><trkpt lat="43.22999348132323" lon="12.13947613274441"><ele>708.0</ele><time>2026-03-29T09:32:39Z</time></trkpt><trkpt lat="43.23005562700591" lon="12.139616499249039"><ele>708.0</ele><time>2026-03-29T09:32:40Z</time></trkpt><trkpt lat="43.2301205581224" lon="12.139774354936959"><ele>708.0</ele><time>2026-03-29T09:32:41Z</time></trkpt><trkpt lat="43.23018534006742" lon="12.139927675550355"><ele>708.1666666666666</ele><time>2026-03-29T09:32:42Z</time></trkpt><trkpt lat="43.23024269345142" lon="12.140061673267333"><ele>708.3333333333334</ele><time>2026-03-29T09:32:43Z</time></trkpt><trkpt lat="43.230295807053366" lon="12.140180931931077"><ele>708.5</ele><time>2026-03-29T09:32:44Z</time></trkpt><trkpt lat="43.230340054294295" lon="12.140280057462268"><ele>708.6666666666667</ele><time>2026-03-29T09:32:45Z</time></trkpt><trkpt lat="43.23038780406051" lon="12.140354072693775"><ele>708.8333333333334</ele><time>2026-03-29T09:32:46Z</time></trkpt><trkpt lat="43.23042958368537" lon="12.140423151923171"><ele>709.0</ele><time>2026-03-29T09:32:47Z</time></trkpt><trkpt lat="43.230460203380474" lon="12.140597660570675"><ele>709.0000000000001</ele><time>2026-03-29T09:32:49Z</time></trkpt><trkpt lat="43.230466895013805" lon="12.140705928616924"><ele>709.0</ele><time>2026-03-29T09:32:50Z</time></trkpt><trkpt lat="43.23045378257332" lon="12.140792655900086"><ele>709.0</ele><time>2026-03-29T09:32:51Z</time></trkpt><trkpt lat="43.23043349937704" lon="12.140880833915247"><ele>709.0</ele><time>2026-03-29T09:32:52Z</time></trkpt><trkpt lat="43.23041471033003" lon="12.140963710912708"><ele>709.0</ele><time>2026-03-29T09:32:53Z</time></trkpt><trkpt lat="43.23038162187964" lon="12.141071344584496"><ele>709.0000000000001</ele><time>2026-03-29T09:32:55Z</time></trkpt><trkpt lat="43.2303409692654" lon="12.141145963310748"><ele>709.0</ele><time>2026-03-29T09:32:56Z</time></trkpt><trkpt lat="43.230296632676506" lon="12.141236790584243"><ele>704.75</ele><time>2026-03-29T09:32:57Z</time></trkpt><trkpt lat="43.23020838319403" lon="12.141374182415772"><ele>700.5</ele><time>2026-03-29T09:32:57.999Z</time></trkpt><trkpt lat="43.23017507985069" lon="12.141487322244716"><ele>696.25</ele><time>2026-03-29T09:32:58.999Z</time></trkpt><trkpt lat="43.2301472568642" lon="12.141634578652798"><ele>692.0</ele><time>2026-03-29T09:32:59.999Z</time></trkpt><trkpt lat="43.230119483810824" lon="12.141793044391408"><ele>695.0</ele><time>2026-03-29T09:33:00.999Z</time></trkpt><trkpt lat="43.2305182367132" lon="12.149331840261931"><ele>695.0</ele><time>2026-03-29T09:34:01.998Z</time></trkpt><trkpt lat="43.23060788981717" lon="12.149504678637838"><ele>695.0</ele><time>2026-03-29T09:34:02.998Z</time></trkpt><trkpt lat="43.230701878049004" lon="12.149653831706972"><ele>695.0</ele><time>2026-03-29T09:34:03.998Z</time></trkpt><trkpt lat="43.230788393249846" lon="12.149796661139003"><ele>695.0</ele><time>2026-03-29T09:34:04.998Z</time></trkpt><trkpt lat="43.230836899519026" lon="12.14998679584772"><ele>694.5</ele><time>2026-03-29T09:34:05.998Z</time></trkpt><trkpt lat="43.23089362834877" lon="12.150164660695786"><ele>694.0</ele><time>2026-03-29T09:34:06.998Z</time></trkpt><trkpt lat="43.23097337390452" lon="12.150291111882753"><ele>693.5</ele><time>2026-03-29T09:34:07.998Z</time></trkpt><trkpt lat="43.23104699275361" lon="12.150376744880575"><ele>693.0</ele><time>2026-03-29T09:34:08.998Z</time></trkpt><trkpt lat="43.23111168725326" lon="12.150481613222503"><ele>693.0</ele><time>2026-03-29T09:34:09.998Z</time></trkpt><trkpt lat="43.23115759981117" lon="12.150607172272231"><ele>693.0</ele><time>2026-03-29T09:34:10.998Z</time></trkpt><trkpt lat="43.23117511691386" lon="12.15073832986444"><ele>693.0</ele><time>2026-03-29T09:34:11.998Z</time></trkpt><trkpt lat="43.231151234163356" lon="12.150862716957498"><ele>693.0</ele><time>2026-03-29T09:34:12.998Z</time></trkpt><trkpt lat="43.23109342503673" lon="12.150963753754889"><ele>693.0</ele><time>2026-03-29T09:34:13.998Z</time></trkpt><trkpt lat="43.23100528086295" lon="12.151035030000555"><ele>692.2</ele><time>2026-03-29T09:34:14.998Z</time></trkpt><trkpt lat="43.2308969285872" lon="12.151078119520095"><ele>691.4</ele><time>2026-03-29T09:34:15.998Z</time></trkpt><trkpt lat="43.23078294333054" lon="12.151105591223866"><ele>690.6</ele><time>2026-03-29T09:34:16.998Z</time></trkpt><trkpt lat="43.23066869557813" lon="12.151129288517794"><ele>689.8000000000001</ele><time>2026-03-29T09:34:17.998Z</time></trkpt><trkpt lat="43.23057795003765" lon="12.151134578662056"><ele>689.0</ele><time>2026-03-29T09:34:18.998Z</time></trkpt><trkpt lat="43.230518259237925" lon="12.151262161726162"><ele>686.8000000000001</ele><time>2026-03-29T09:34:20.998Z</time></trkpt><trkpt lat="43.2305219191881" lon="12.151359686054986"><ele>684.6</ele><time>2026-03-29T09:34:21.998Z</time></trkpt><trkpt lat="43.23054949107186" lon="12.15148423351076"><ele>682.4</ele><time>2026-03-29T09:34:22.998Z</time></trkpt><trkpt lat="43.23058372515239" lon="12.151630042894963"><ele>680.2</ele><time>2026-03-29T09:34:23.998Z</time></trkpt><trkpt lat="43.2306069634599" lon="12.1517800844635"><ele>678.0</ele><time>2026-03-29T09:34:24.998Z</time></trkpt><trkpt lat="43.2305991065369" lon="12.151914194917714"><ele>676.2</ele><time>2026-03-29T09:34:25.998Z</time></trkpt><trkpt lat="43.23056590561386" lon="12.152041140520188"><ele>674.4</ele><time>2026-03-29T09:34:26.998Z</time></trkpt><trkpt lat="43.23053154067423" lon="12.152176870833049"><ele>672.6</ele><time>2026-03-29T09:34:27.998Z</time></trkpt><trkpt lat="43.2305190069064" lon="12.152333703504286"><ele>670.8000000000001</ele><time>2026-03-29T09:34:28.998Z</time></trkpt><trkpt lat="43.23053618170047" lon="12.152508599002578"><ele>669.0</ele><time>2026-03-29T09:34:29.998Z</time></trkpt><trkpt lat="43.23056396730916" lon="12.152703331245297"><ele>669.0</ele><time>2026-03-29T09:34:30.998Z</time></trkpt><trkpt lat="43.23058604457287" lon="12.152915343157863"><ele>669.0</ele><time>2026-03-29T09:34:31.998Z</time></trkpt><trkpt lat="43.23060793830289" lon="12.15312471155186"><ele>669.0</ele><time>2026-03-29T09:34:32.998Z</time></trkpt><trkpt lat="43.23063441486639" lon="12.153329338041264"><ele>668.25</ele><time>2026-03-29T09:34:33.998Z</time></trkpt><trkpt lat="43.23065562765672" lon="12.15350942180254"><ele>667.5</ele><time>2026-03-29T09:34:34.998Z</time></trkpt><trkpt lat="43.230673396659704" lon="12.153687670323587"><ele>666.75</ele><time>2026-03-29T09:34:35.998Z</time></trkpt><trkpt lat="43.230693615520714" lon="12.153878020394455"><ele>666.0</ele><time>2026-03-29T09:34:36.998Z</time></trkpt><trkpt lat="43.230711150918864" lon="12.154018625700541"><ele>665.6666666666666</ele><time>2026-03-29T09:34:37.998Z</time></trkpt><trkpt lat="43.23072436713084" lon="12.154111307870181"><ele>665.3333333333334</ele><time>2026-03-29T09:34:38.998Z</time></trkpt><trkpt lat="43.23071510512412" lon="12.154200328833321"><ele>665.0</ele><time>2026-03-29T09:34:39.998Z</time></trkpt><trkpt lat="43.23067892821729" lon="12.154283380339479"><ele>664.6666666666667</ele><time>2026-03-29T09:34:40.998Z</time></trkpt><trkpt lat="43.230607787619604" lon="12.15439060354568"><ele>664.3333333333334</ele><time>2026-03-29T09:34:41.998Z</time></trkpt><trkpt lat="43.23051315164889" lon="12.154525575450931"><ele>664.0</ele><time>2026-03-29T09:34:42.998Z</time></trkpt><trkpt lat="43.23041797746381" lon="12.154677793439866"><ele>660.0</ele><time>2026-03-29T09:34:44Z</time></trkpt><trkpt lat="43.23034535172308" lon="12.154871101163822"><ele>656.0</ele><time>2026-03-29T09:34:45Z</time></trkpt><trkpt lat="43.23028790063069" lon="12.155108786134965"><ele>652.0</ele><time>2026-03-29T09:34:46Z</time></trkpt><trkpt lat="43.230213421798" lon="12.155373066511574"><ele>652.0</ele><time>2026-03-29T09:34:47Z</time></trkpt><trkpt lat="43.23012687961159" lon="12.155654386891092"><ele>652.0</ele><time>2026-03-29T09:34:48Z</time></trkpt><trkpt lat="43.23005857370189" lon="12.155939730857217"><ele>652.0</ele><time>2026-03-29T09:34:49Z</time></trkpt><trkpt lat="43.22999004171308" lon="12.156168868539842"><ele>652.8</ele><time>2026-03-29T09:34:50Z</time></trkpt><trkpt lat="43.22994432184239" lon="12.156335506687142"><ele>653.6</ele><time>2026-03-29T09:34:51Z</time></trkpt><trkpt lat="43.22990549264763" lon="12.156487876645624"><ele>654.4</ele><time>2026-03-29T09:34:52Z</time></trkpt><trkpt lat="43.22985004546303" lon="12.156613404336971"><ele>655.1999999999999</ele><time>2026-03-29T09:34:53.001Z</time></trkpt><trkpt lat="43.229799905901395" lon="12.156723005933312"><ele>656.0</ele><time>2026-03-29T09:34:54.001Z</time></trkpt><trkpt lat="43.2297908043195" lon="12.156859185805422"><ele>653.5</ele><time>2026-03-29T09:34:55.001Z</time></trkpt><trkpt lat="43.22978329299032" lon="12.15700927407313"><ele>651.0</ele><time>2026-03-29T09:34:56.001Z</time></trkpt><trkpt lat="43.22979907160546" lon="12.15718723747116"><ele>648.5</ele><time>2026-03-29T09:34:57.001Z</time></trkpt><trkpt lat="43.229845237891446" lon="12.157369001737939"><ele>646.0</ele><time>2026-03-29T09:34:58.001Z</time></trkpt><trkpt lat="43.22989725046237" lon="12.157514873942068"><ele>645.5</ele><time>2026-03-29T09:34:59Z</time></trkpt><trkpt lat="43.22992397544553" lon="12.15764197615708"><ele>645.0</ele><time>2026-03-29T09:35:00Z</time></trkpt><trkpt lat="43.22506173744671" lon="12.162244335401091"><ele>634.3333333333334</ele><time>2026-03-29T09:36:01.999Z</time></trkpt><trkpt lat="43.22492467208942" lon="12.162250612600442"><ele>623.6666666666667</ele><time>2026-03-29T09:36:02.999Z</time></trkpt><trkpt lat="43.22475289424354" lon="12.162235502978973"><ele>613.0</ele><time>2026-03-29T09:36:03.999Z</time></trkpt><trkpt lat="43.224579918275765" lon="12.162218060294313"><ele>611.0</ele><time>2026-03-29T09:36:04.999Z</time></trkpt><trkpt lat="43.22443018297733" lon="12.162190313596419"><ele>609.0</ele><time>2026-03-29T09:36:05.999Z</time></trkpt><trkpt lat="43.22427962415602" lon="12.16218885276172"><ele>607.0</ele><time>2026-03-29T09:36:06.999Z</time></trkpt><trkpt lat="43.22413534077702" lon="12.162185356923434"><ele>605.0</ele><time>2026-03-29T09:36:07.999Z</time></trkpt><trkpt lat="43.223989157326066" lon="12.162212283802711"><ele>601.6666666666666</ele><time>2026-03-29T09:36:08.999Z</time></trkpt><trkpt lat="43.22382968670039" lon="12.162257100085112"><ele>598.3333333333334</ele><time>2026-03-29T09:36:09.999Z</time></trkpt><trkpt lat="43.22365575438454" lon="12.162295116566867"><ele>595.0</ele><time>2026-03-29T09:36:10.999Z</time></trkpt><trkpt lat="43.22348689120591" lon="12.16231180528092"><ele>595.0</ele><time>2026-03-29T09:36:11.999Z</time></trkpt><trkpt lat="43.223331518429234" lon="12.16232767200002"><ele>595.0</ele><time>2026-03-29T09:36:12.999Z</time></trkpt><trkpt lat="43.223184432005255" lon="12.162348167896813"><ele>595.0</ele><time>2026-03-29T09:36:13.999Z</time></trkpt><trkpt lat="43.22304128178872" lon="12.162371813638941"><ele>595.0</ele><time>2026-03-29T09:36:14.999Z</time></trkpt><trkpt lat="43.222905123623974" lon="12.162373602837771"><ele>594.25</ele><time>2026-03-29T09:36:15.999Z</time></trkpt><trkpt lat="43.22277290311921" lon="12.162420888316554"><ele>593.5</ele><time>2026-03-29T09:36:16.999Z</time></trkpt><trkpt lat="43.222645232078804" lon="12.162453409995011"><ele>592.75</ele><time>2026-03-29T09:36:17.999Z</time></trkpt><trkpt lat="43.22252339979375" lon="12.162496646350364"><ele>592.0</ele><time>2026-03-29T09:36:18.999Z</time></trkpt><trkpt lat="43.22241246548477" lon="12.16251228209987"><ele>592.0</ele><time>2026-03-29T09:36:19.999Z</time></trkpt><trkpt lat="43.22232179834109" lon="12.162543704675478"><ele>592.0</ele><time>2026-03-29T09:36:20.999Z</time></trkpt><trkpt lat="43.22225048314755" lon="12.162564937099571"><ele>592.0</ele><time>2026-03-29T09:36:21.999Z</time></trkpt><trkpt lat="43.22217268235931" lon="12.162553852393076"><ele>592.0</ele><time>2026-03-29T09:36:23.999Z</time></trkpt><trkpt lat="43.222079717805826" lon="12.16253258002355"><ele>592.0</ele><time>2026-03-29T09:36:25.999Z</time></trkpt><trkpt lat="43.22199732376581" lon="12.16254390768618"><ele>592.0</ele><time>2026-03-29T09:36:26.999Z</time></trkpt><trkpt lat="43.221877226789545" lon="12.1627060864187"><ele>590.25</ele><time>2026-03-29T09:36:27.999Z</time></trkpt><trkpt lat="43.221738498215025" lon="12.162739331503742"><ele>588.5</ele><time>2026-03-29T09:36:28.999Z</time></trkpt><trkpt lat="43.221595787869006" lon="12.162734129014572"><ele>586.75</ele><time>2026-03-29T09:36:29.999Z</time></trkpt><trkpt lat="43.221472525993164" lon="12.16274757419386"><ele>585.0</ele><time>2026-03-29T09:36:30.999Z</time></trkpt><trkpt lat="43.22135141640492" lon="12.16280337694244"><ele>582.75</ele><time>2026-03-29T09:36:31.999Z</time></trkpt><trkpt lat="43.221217979730405" lon="12.162855252821617"><ele>580.5</ele><time>2026-03-29T09:36:32.999Z</time></trkpt><trkpt lat="43.22108852185092" lon="12.162906156418"><ele>578.25</ele><time>2026-03-29T09:36:33.999Z</time></trkpt><trkpt lat="43.22096219283241" lon="12.162947260723518"><ele>576.0</ele><time>2026-03-29T09:36:34.999Z</time></trkpt><trkpt lat="43.22085093291562" lon="12.162999080157965"><ele>576.0</ele><time>2026-03-29T09:36:35.999Z</time></trkpt><trkpt lat="43.22077610915394" lon="12.163075657396295"><ele>576.0</ele><time>2026-03-29T09:36:36.999Z</time></trkpt><trkpt lat="43.220726452003014" lon="12.163163378109193"><ele>576.0</ele><time>2026-03-29T09:36:37.999Z</time></trkpt><trkpt lat="43.22070138090259" lon="12.163350195661618"><ele>576.0</ele><time>2026-03-29T09:36:39.999Z</time></trkpt><trkpt lat="43.22067244142" lon="12.163464573514904"><ele>576.0</ele><time>2026-03-29T09:36:40.999Z</time></trkpt><trkpt lat="43.220666882911" lon="12.163592990933049"><ele>576.8</ele><time>2026-03-29T09:36:41.999Z</time></trkpt><trkpt lat="43.220698499383325" lon="12.163731094300326"><ele>577.6</ele><time>2026-03-29T09:36:42.999Z</time></trkpt><trkpt lat="43.22074187888689" lon="12.163867291943268"><ele>578.4</ele><time>2026-03-29T09:36:43.999Z</time></trkpt><trkpt lat="43.22079470630854" lon="12.163997547891721"><ele>579.2</ele><time>2026-03-29T09:36:44.999Z</time></trkpt><trkpt lat="43.22086930525115" lon="12.164114277169833"><ele>580.0</ele><time>2026-03-29T09:36:45.999Z</time></trkpt><trkpt lat="43.22096909405392" lon="12.164208968080958"><ele>578.4</ele><time>2026-03-29T09:36:46.999Z</time></trkpt><trkpt lat="43.22106737263179" lon="12.164296088424235"><ele>576.8</ele><time>2026-03-29T09:36:47.999Z</time></trkpt><trkpt lat="43.22114681133441" lon="12.164402131122712"><ele>575.2</ele><time>2026-03-29T09:36:48.999Z</time></trkpt><trkpt lat="43.221206947101756" lon="12.16451281662204"><ele>573.6</ele><time>2026-03-29T09:36:50Z</time></trkpt><trkpt lat="43.22126629607354" lon="12.164611125675489"><ele>572.0</ele><time>2026-03-29T09:36:51Z</time></trkpt><trkpt lat="43.22132910562632" lon="12.164699251639176"><ele>572.0</ele><time>2026-03-29T09:36:52Z</time></trkpt><trkpt lat="43.2213843633482" lon="12.164784270231737"><ele>572.0</ele><time>2026-03-29T09:36:53Z</time></trkpt><trkpt lat="43.22143292038328" lon="12.164854744282708"><ele>572.0</ele><time>2026-03-29T09:36:54Z</time></trkpt><trkpt lat="43.22146818705262" lon="12.164944775552414"><ele>572.0</ele><time>2026-03-29T09:36:56Z</time></trkpt><trkpt lat="43.22135247586394" lon="12.165012818604822"><ele>572.0</ele><time>2026-03-29T09:36:58Z</time></trkpt><trkpt lat="43.2212692898797" lon="12.164992906730795"><ele>572.0</ele><time>2026-03-29T09:36:59Z</time></trkpt><trkpt lat="43.221171939440296" lon="12.164988769017327"><ele>509.0</ele><time>2026-03-29T09:37:01Z</time></trkpt><trkpt lat="43.22066248206819" lon="12.168112589496733"><ele>506.16666666666663</ele><time>2026-03-29T09:38:01.999Z</time></trkpt><trkpt lat="43.22060230929904" lon="12.168170251872947"><ele>503.3333333333333</ele><time>2026-03-29T09:38:03.999Z</time></trkpt><trkpt lat="43.22056377539068" lon="12.168241301096216"><ele>500.5</ele><time>2026-03-29T09:38:04.999Z</time></trkpt><trkpt lat="43.22057310447989" lon="12.168378335055365"><ele>497.66666666666663</ele><time>2026-03-29T09:38:06.999Z</time></trkpt><trkpt lat="43.22060013075647" lon="12.168525864730647"><ele>494.8333333333333</ele><time>2026-03-29T09:38:08.999Z</time></trkpt><trkpt lat="43.22061919809228" lon="12.168634196992311"><ele>492.0</ele><time>2026-03-29T09:38:10.999Z</time></trkpt><trkpt lat="43.22058816454519" lon="12.168740068324729"><ele>490.5</ele><time>2026-03-29T09:38:12.999Z</time></trkpt><trkpt lat="43.220510447933954" lon="12.168791208070319"><ele>489.0</ele><time>2026-03-29T09:38:13.999Z</time></trkpt><trkpt lat="43.22043405321621" lon="12.168831490192725"><ele>487.5</ele><time>2026-03-29T09:38:14.999Z</time></trkpt><trkpt lat="43.22036530051415" lon="12.168875867516164"><ele>486.0</ele><time>2026-03-29T09:38:15.999Z</time></trkpt><trkpt lat="43.22029841447118" lon="12.168932710953806"><ele>484.5</ele><time>2026-03-29T09:38:16.999Z</time></trkpt><trkpt lat="43.22023056327933" lon="12.168987441202615"><ele>483.0</ele><time>2026-03-29T09:38:17.999Z</time></trkpt><trkpt lat="43.22016550141509" lon="12.16903362661215"><ele>481.1666666666667</ele><time>2026-03-29T09:38:18.999Z</time></trkpt><trkpt lat="43.22010675425841" lon="12.169073140939526"><ele>479.33333333333337</ele><time>2026-03-29T09:38:19.999Z</time></trkpt><trkpt lat="43.220054881969354" lon="12.169135055995572"><ele>477.5</ele><time>2026-03-29T09:38:20.999Z</time></trkpt><trkpt lat="43.220006438974025" lon="12.169202313110025"><ele>475.6666666666667</ele><time>2026-03-29T09:38:21.999Z</time></trkpt><trkpt lat="43.219957505467136" lon="12.169289684732702"><ele>473.83333333333337</ele><time>2026-03-29T09:38:22.999Z</time></trkpt><trkpt lat="43.21990365679541" lon="12.169379089901128"><ele>472.0</ele><time>2026-03-29T09:38:23.999Z</time></trkpt><trkpt lat="43.21980694460359" lon="12.169476643362323"><ele>469.6666666666667</ele><time>2026-03-29T09:38:25.999Z</time></trkpt><trkpt lat="43.21973654127835" lon="12.169463954923817"><ele>467.33333333333337</ele><time>2026-03-29T09:38:27.999Z</time></trkpt><trkpt lat="43.219632602956466" lon="12.169502335258018"><ele>465.0</ele><time>2026-03-29T09:38:29.999Z</time></trkpt><trkpt lat="43.21956697537102" lon="12.169517089330757"><ele>462.66666666666663</ele><time>2026-03-29T09:38:30.999Z</time></trkpt><trkpt lat="43.21950104729245" lon="12.169522723976561"><ele>460.3333333333333</ele><time>2026-03-29T09:38:31.999Z</time></trkpt><trkpt lat="43.2194045270554" lon="12.1695133957141"><ele>458.0</ele><time>2026-03-29T09:38:33.999Z</time></trkpt><trkpt lat="43.21936049889792" lon="12.169581966277448"><ele>458.0</ele><time>2026-03-29T09:38:35.999Z</time></trkpt><trkpt lat="43.219334224996125" lon="12.169739506902056"><ele>457.99999999999994</ele><time>2026-03-29T09:38:37.999Z</time></trkpt><trkpt lat="43.21928968688573" lon="12.169820637504639"><ele>457.99999999999994</ele><time>2026-03-29T09:38:38.999Z</time></trkpt><trkpt lat="43.21921728643065" lon="12.169858773794399"><ele>458.0</ele><time>2026-03-29T09:38:39.999Z</time></trkpt><trkpt lat="43.219121735031756" lon="12.169904841015985"><ele>458.0</ele><time>2026-03-29T09:38:40.999Z</time></trkpt><trkpt lat="43.21904271639576" lon="12.169969954180427"><ele>457.49999999999994</ele><time>2026-03-29T09:38:41.999Z</time></trkpt><trkpt lat="43.218989721174076" lon="12.170044255687191"><ele>457.0</ele><time>2026-03-29T09:38:42.999Z</time></trkpt><trkpt lat="43.21898538299648" lon="12.170147638931642"><ele>456.5</ele><time>2026-03-29T09:38:44.999Z</time></trkpt><trkpt lat="43.219030605740876" lon="12.170230717449995"><ele>456.0</ele><time>2026-03-29T09:38:46.999Z</time></trkpt><trkpt lat="43.21914778367767" lon="12.170258352893775"><ele>455.49999999999994</ele><time>2026-03-29T09:38:48.999Z</time></trkpt><trkpt lat="43.219238468781164" lon="12.170228978847286"><ele>455.0</ele><time>2026-03-29T09:38:49.999Z</time></trkpt><trkpt lat="43.21933498735408" lon="12.170206290533484"><ele>455.0</ele><time>2026-03-29T09:38:50.999Z</time></trkpt><trkpt lat="43.21941347192471" lon="12.170232002734648"><ele>455.0</ele><time>2026-03-29T09:38:51.999Z</time></trkpt><trkpt lat="43.21948736396243" lon="12.170294631316208"><ele>455.0</ele><time>2026-03-29T09:38:52.999Z</time></trkpt><trkpt lat="43.21956843942728" lon="12.17037254635022"><ele>455.0</ele><time>2026-03-29T09:38:53.999Z</time></trkpt><trkpt lat="43.21965042900998" lon="12.170420577020082"><ele>455.0</ele><time>2026-03-29T09:38:54.999Z</time></trkpt><trkpt lat="43.219743456914976" lon="12.17043868225373"><ele>456.25</ele><time>2026-03-29T09:38:56Z</time></trkpt><trkpt lat="43.21983841547245" lon="12.170448595377207"><ele>457.5</ele><time>2026-03-29T09:38:57Z</time></trkpt><trkpt lat="43.219924114572265" lon="12.170407618033058"><ele>458.75</ele><time>2026-03-29T09:38:59Z</time></trkpt><trkpt lat="43.220018498904025" lon="12.170301897837085"><ele>460.0</ele><time>2026-03-29T09:39:01Z</time></trkpt><trkpt lat="43.22211458567709" lon="12.170224008138677"><ele>456.50000000000006</ele><time>2026-03-29T09:40:01.999Z</time></trkpt><trkpt lat="43.2221135827242" lon="12.170317868825611"><ele>453.0</ele><time>2026-03-29T09:40:02.999Z</time></trkpt><trkpt lat="43.22213260676635" lon="12.170418298226938"><ele>449.5</ele><time>2026-03-29T09:40:03.999Z</time></trkpt><trkpt lat="43.22217142729521" lon="12.170501767265916"><ele>446.0</ele><time>2026-03-29T09:40:04.999Z</time></trkpt><trkpt lat="43.22223998970505" lon="12.170536822347128"><ele>442.50000000000006</ele><time>2026-03-29T09:40:05.999Z</time></trkpt><trkpt lat="43.22235215387942" lon="12.170618003848906"><ele>439.0</ele><time>2026-03-29T09:40:07.999Z</time></trkpt><trkpt lat="43.22239896163114" lon="12.170742540357121"><ele>436.6</ele><time>2026-03-29T09:40:09.999Z</time></trkpt><trkpt lat="43.222421616533175" lon="12.170832657385956"><ele>434.2</ele><time>2026-03-29T09:40:10.999Z</time></trkpt><trkpt lat="43.22248795417945" lon="12.170949793379783"><ele>431.80000000000007</ele><time>2026-03-29T09:40:12.999Z</time></trkpt><trkpt lat="43.222577923415066" lon="12.171022239072704"><ele>429.40000000000003</ele><time>2026-03-29T09:40:14.999Z</time></trkpt><trkpt lat="43.22259419829064" lon="12.171133007095527"><ele>427.0</ele><time>2026-03-29T09:40:16.999Z</time></trkpt><trkpt lat="43.22253585504354" lon="12.171223590497338"><ele>427.00000000000006</ele><time>2026-03-29T09:40:17.999Z</time></trkpt><trkpt lat="43.22256313125351" lon="12.171315904970633"><ele>427.0</ele><time>2026-03-29T09:40:18.999Z</time></trkpt><trkpt lat="43.22261509835808" lon="12.171475129462046"><ele>427.0</ele><time>2026-03-29T09:40:20.999Z</time></trkpt><trkpt lat="43.22262929644933" lon="12.171571057241756"><ele>427.0</ele><time>2026-03-29T09:40:21.999Z</time></trkpt><trkpt lat="43.22261359567613" lon="12.171677549953422"><ele>427.00000000000006</ele><time>2026-03-29T09:40:22.999Z</time></trkpt><trkpt lat="43.22257184649715" lon="12.171781752099614"><ele>427.0</ele><time>2026-03-29T09:40:23.999Z</time></trkpt><trkpt lat="43.22252453426571" lon="12.171880215209422"><ele>426.6</ele><time>2026-03-29T09:40:24.999Z</time></trkpt><trkpt lat="43.22249133905282" lon="12.172000821067758"><ele>426.20000000000005</ele><time>2026-03-29T09:40:25.999Z</time></trkpt><trkpt lat="43.222457258486905" lon="12.172126184295351"><ele>425.8</ele><time>2026-03-29T09:40:26.999Z</time></trkpt><trkpt lat="43.22243418152369" lon="12.172239530943589"><ele>425.4</ele><time>2026-03-29T09:40:27.999Z</time></trkpt><trkpt lat="43.22242211693224" lon="12.172344092422508"><ele>425.0</ele><time>2026-03-29T09:40:28.999Z</time></trkpt><trkpt lat="43.22238697636189" lon="12.17252400986847"><ele>425.0</ele><time>2026-03-29T09:40:30.999Z</time></trkpt><trkpt lat="43.222354847661556" lon="12.17267047608467"><ele>425.0</ele><time>2026-03-29T09:40:31.999Z</time></trkpt><trkpt lat="43.22231617146945" lon="12.172837234429952"><ele>425.0</ele><time>2026-03-29T09:40:32.999Z</time></trkpt><trkpt lat="43.22226137223769" lon="12.172977893557293"><ele>425.0</ele><time>2026-03-29T09:40:33.999Z</time></trkpt><trkpt lat="43.222211078375544" lon="12.173099160349405"><ele>422.3333333333333</ele><time>2026-03-29T09:40:34.999Z</time></trkpt><trkpt lat="43.22215709659054" lon="12.173202229726426"><ele>419.66666666666663</ele><time>2026-03-29T09:40:35.999Z</time></trkpt><trkpt lat="43.22209838526682" lon="12.173251014477938"><ele>417.0</ele><time>2026-03-29T09:40:36.999Z</time></trkpt><trkpt lat="43.22201112748246" lon="12.17327070523417"><ele>414.33333333333337</ele><time>2026-03-29T09:40:37.999Z</time></trkpt><trkpt lat="43.221925282413196" lon="12.173274711911763"><ele>411.6666666666667</ele><time>2026-03-29T09:40:38.999Z</time></trkpt><trkpt lat="43.22185385216082" lon="12.173312734333214"><ele>409.0</ele><time>2026-03-29T09:40:39.999Z</time></trkpt><trkpt lat="43.221840108417595" lon="12.17346849599154"><ele>409.0</ele><time>2026-03-29T09:40:41.999Z</time></trkpt><trkpt lat="43.22183038512201" lon="12.17356678348199"><ele>409.0</ele><time>2026-03-29T09:40:42.999Z</time></trkpt><trkpt lat="43.22182254733526" lon="12.173719086726738"><ele>409.0</ele><time>2026-03-29T09:40:43.999Z</time></trkpt><trkpt lat="43.22185352277826" lon="12.173872846421235"><ele>409.0</ele><time>2026-03-29T09:40:44.999Z</time></trkpt><trkpt lat="43.22191660619675" lon="12.174061679741554"><ele>408.0</ele><time>2026-03-29T09:40:45.999Z</time></trkpt><trkpt lat="43.22194009912172" lon="12.174239448408631"><ele>407.0</ele><time>2026-03-29T09:40:46.999Z</time></trkpt><trkpt lat="43.22194157211685" lon="12.174380457661172"><ele>406.0</ele><time>2026-03-29T09:40:47.999Z</time></trkpt><trkpt lat="43.221955868936675" lon="12.174495003257052"><ele>405.0</ele><time>2026-03-29T09:40:48.999Z</time></trkpt><trkpt lat="43.221995707333086" lon="12.17462982547456"><ele>404.0</ele><time>2026-03-29T09:40:49.999Z</time></trkpt><trkpt lat="43.22203135053864" lon="12.174755497533194"><ele>404.0</ele><time>2026-03-29T09:40:50.999Z</time></trkpt><trkpt lat="43.2220854189453" lon="12.174824066492295"><ele>404.0</ele><time>2026-03-29T09:40:51.999Z</time></trkpt><trkpt lat="43.222162546060545" lon="12.174882870438243"><ele>404.0</ele><time>2026-03-29T09:40:52.999Z</time></trkpt><trkpt lat="43.222270787119456" lon="12.174909561754273"><ele>404.0</ele><time>2026-03-29T09:40:53.999Z</time></trkpt><trkpt lat="43.222390433814255" lon="12.17490767298832"><ele>404.0</ele><time>2026-03-29T09:40:54.999Z</time></trkpt><trkpt lat="43.222525941830995" lon="12.174893600425044"><ele>404.75</ele><time>2026-03-29T09:40:55.999Z</time></trkpt><trkpt lat="43.222662232047234" lon="12.174888026851269"><ele>405.5</ele><time>2026-03-29T09:40:56.999Z</time></trkpt><trkpt lat="43.222805870118016" lon="12.174914013851398"><ele>406.25</ele><time>2026-03-29T09:40:57.999Z</time></trkpt><trkpt lat="43.22294455664322" lon="12.17494876358264"><ele>407.0</ele><time>2026-03-29T09:40:58.999Z</time></trkpt><trkpt lat="43.22305769818452" lon="12.174974105266982"><ele>412.5</ele><time>2026-03-29T09:40:59.999Z</time></trkpt><trkpt lat="43.22316435221091" lon="12.17499522591457"><ele>418.0</ele><time>2026-03-29T09:41:00.999Z</time></trkpt><trkpt lat="43.21720498273956" lon="12.17874723622043"><ele>388.6666666666667</ele><time>2026-03-29T09:42:02Z</time></trkpt><trkpt lat="43.217078439899794" lon="12.178864102275124"><ele>359.33333333333337</ele><time>2026-03-29T09:42:03Z</time></trkpt><trkpt lat="43.21693442799365" lon="12.178987093201918"><ele>330.0</ele><time>2026-03-29T09:42:04Z</time></trkpt><trkpt lat="43.216757284719286" lon="12.1791266886935"><ele>329.5</ele><time>2026-03-29T09:42:05Z</time></trkpt><trkpt lat="43.21655717830108" lon="12.179289725376787"><ele>329.0</ele><time>2026-03-29T09:42:06Z</time></trkpt><trkpt lat="43.21633969375527" lon="12.179469730534494"><ele>326.33333333333337</ele><time>2026-03-29T09:42:06.999Z</time></trkpt><trkpt lat="43.216148429067026" lon="12.179630521355772"><ele>323.6666666666667</ele><time>2026-03-29T09:42:07.999Z</time></trkpt><trkpt lat="43.21600642320113" lon="12.179760264851954"><ele>321.0</ele><time>2026-03-29T09:42:08.999Z</time></trkpt><trkpt lat="43.21590561376785" lon="12.17987973796194"><ele>320.6</ele><time>2026-03-29T09:42:09.999Z</time></trkpt><trkpt lat="43.215841599720626" lon="12.179995564660546"><ele>320.20000000000005</ele><time>2026-03-29T09:42:10.999Z</time></trkpt><trkpt lat="43.2158142462236" lon="12.180134578030486"><ele>319.79999999999995</ele><time>2026-03-29T09:42:11.999Z</time></trkpt><trkpt lat="43.215826379844955" lon="12.180272882218457"><ele>319.4</ele><time>2026-03-29T09:42:12.999Z</time></trkpt><trkpt lat="43.215864211082646" lon="12.180384399875862"><ele>319.0</ele><time>2026-03-29T09:42:13.999Z</time></trkpt><trkpt lat="43.21592246704268" lon="12.180470621384256"><ele>319.0</ele><time>2026-03-29T09:42:14.999Z</time></trkpt><trkpt lat="43.21600793066154" lon="12.180547605689286"><ele>319.0</ele><time>2026-03-29T09:42:15.999Z</time></trkpt><trkpt lat="43.21610880063734" lon="12.18066951505616"><ele>319.0</ele><time>2026-03-29T09:42:16.999Z</time></trkpt><trkpt lat="43.21622717896598" lon="12.18081479041525"><ele>319.0</ele><time>2026-03-29T09:42:17.999Z</time></trkpt><trkpt lat="43.21636088337275" lon="12.180955440135225"><ele>320.3333333333333</ele><time>2026-03-29T09:42:18.999Z</time></trkpt><trkpt lat="43.216512575214615" lon="12.181078992165483"><ele>321.6666666666667</ele><time>2026-03-29T09:42:19.999Z</time></trkpt><trkpt lat="43.2166466624854" lon="12.181217349443031"><ele>323.0</ele><time>2026-03-29T09:42:20.999Z</time></trkpt><trkpt lat="43.216771752535315" lon="12.181405629373106"><ele>321.6666666666667</ele><time>2026-03-29T09:42:21.999Z</time></trkpt><trkpt lat="43.21689919131891" lon="12.181608747971001"><ele>320.3333333333333</ele><time>2026-03-29T09:42:22.999Z</time></trkpt><trkpt lat="43.21703230548422" lon="12.181810946119269"><ele>319.0</ele><time>2026-03-29T09:42:23.999Z</time></trkpt><trkpt lat="43.217174011989115" lon="12.182013867928976"><ele>319.0</ele><time>2026-03-29T09:42:24.999Z</time></trkpt><trkpt lat="43.21731439408246" lon="12.182220108207996"><ele>319.0</ele><time>2026-03-29T09:42:25.999Z</time></trkpt><trkpt lat="43.21745858977074" lon="12.182436140149218"><ele>319.0</ele><time>2026-03-29T09:42:26.999Z</time></trkpt><trkpt lat="43.21760657834635" lon="12.182669678198065"><ele>321.0</ele><time>2026-03-29T09:42:27.999Z</time></trkpt><trkpt lat="43.21776151194698" lon="12.182907028515423"><ele>323.0</ele><time>2026-03-29T09:42:28.999Z</time></trkpt><trkpt lat="43.21792139502047" lon="12.183150927566196"><ele>323.5</ele><time>2026-03-29T09:42:29.999Z</time></trkpt><trkpt lat="43.218073158741795" lon="12.18339170625594"><ele>324.0</ele><time>2026-03-29T09:42:30.999Z</time></trkpt><trkpt lat="43.21823616071189" lon="12.183642914727805"><ele>324.5</ele><time>2026-03-29T09:42:31.999Z</time></trkpt><trkpt lat="43.21840852008627" lon="12.183901168623892"><ele>325.0</ele><time>2026-03-29T09:42:32.999Z</time></trkpt><trkpt lat="43.21858218538146" lon="12.184162259750629"><ele>325.0</ele><time>2026-03-29T09:42:33.999Z</time></trkpt><trkpt lat="43.21873774510971" lon="12.184398334325271"><ele>325.0</ele><time>2026-03-29T09:42:34.999Z</time></trkpt><trkpt lat="43.21887450522702" lon="12.184595690112406"><ele>325.0</ele><time>2026-03-29T09:42:35.999Z</time></trkpt><trkpt lat="43.21900970543726" lon="12.184766709831205"><ele>326.0</ele><time>2026-03-29T09:42:36.999Z</time></trkpt><trkpt lat="43.21914335678959" lon="12.184922917680408"><ele>327.0</ele><time>2026-03-29T09:42:37.999Z</time></trkpt><trkpt lat="43.21927528414723" lon="12.185071557245992"><ele>328.0</ele><time>2026-03-29T09:42:38.999Z</time></trkpt><trkpt lat="43.21937161410124" lon="12.185177680207733"><ele>328.0</ele><time>2026-03-29T09:42:39.999Z</time></trkpt><trkpt lat="43.2194634802136" lon="12.185271751286132"><ele>328.0</ele><time>2026-03-29T09:42:40.999Z</time></trkpt><trkpt lat="43.21958497858655" lon="12.185404605555153"><ele>328.0</ele><time>2026-03-29T09:42:41.999Z</time></trkpt><trkpt lat="43.21972970641573" lon="12.18555401499107"><ele>325.3333333333333</ele><time>2026-03-29T09:42:42.999Z</time></trkpt><trkpt lat="43.21989788581138" lon="12.18570653651282"><ele>322.6666666666667</ele><time>2026-03-29T09:42:43.999Z</time></trkpt><trkpt lat="43.22007998469649" lon="12.185874409832174"><ele>320.0</ele><time>2026-03-29T09:42:44.999Z</time></trkpt><trkpt lat="43.22028244862941" lon="12.186060029652648"><ele>320.0</ele><time>2026-03-29T09:42:45.999Z</time></trkpt><trkpt lat="43.22044552404984" lon="12.186208450588426"><ele>320.0</ele><time>2026-03-29T09:42:46.999Z</time></trkpt><trkpt lat="43.220575528027496" lon="12.18632635686119"><ele>320.0</ele><time>2026-03-29T09:42:47.999Z</time></trkpt><trkpt lat="43.22067931206782" lon="12.186418948169903"><ele>320.6</ele><time>2026-03-29T09:42:48.999Z</time></trkpt><trkpt lat="43.22077248778698" lon="12.186509003614217"><ele>321.2</ele><time>2026-03-29T09:42:49.999Z</time></trkpt><trkpt lat="43.22084890721442" lon="12.186600837278819"><ele>321.79999999999995</ele><time>2026-03-29T09:42:50.999Z</time></trkpt><trkpt lat="43.22089855425674" lon="12.18669738981218"><ele>322.4</ele><time>2026-03-29T09:42:51.999Z</time></trkpt><trkpt lat="43.22091357298437" lon="12.186811525913026"><ele>323.0</ele><time>2026-03-29T09:42:52.999Z</time></trkpt><trkpt lat="43.22090757750151" lon="12.186962508836597"><ele>323.33333333333337</ele><time>2026-03-29T09:42:53.999Z</time></trkpt><trkpt lat="43.22087744492722" lon="12.187162714138593"><ele>323.6666666666667</ele><time>2026-03-29T09:42:54.999Z</time></trkpt><trkpt lat="43.220848021235355" lon="12.187409657542052"><ele>324.0</ele><time>2026-03-29T09:42:55.999Z</time></trkpt><trkpt lat="43.220829797497224" lon="12.187678591001921"><ele>322.6666666666667</ele><time>2026-03-29T09:42:56.999Z</time></trkpt><trkpt lat="43.22080727720721" lon="12.187952081302655"><ele>321.33333333333337</ele><time>2026-03-29T09:42:57.999Z</time></trkpt><trkpt lat="43.220773488745465" lon="12.188250116792071"><ele>320.0</ele><time>2026-03-29T09:42:58.999Z</time></trkpt><trkpt lat="43.22072993650948" lon="12.188542487673491"><ele>318.0</ele><time>2026-03-29T09:42:59.999Z</time></trkpt><trkpt lat="43.220666444920084" lon="12.188785632142821"><ele>316.0</ele><time>2026-03-29T09:43:00.999Z</time></trkpt><trkpt lat="43.21734383078768" lon="12.198259312045533"><ele>314.0</ele><time>2026-03-29T09:44:02Z</time></trkpt><trkpt lat="43.21738355972473" lon="12.198507262836555"><ele>312.0</ele><time>2026-03-29T09:44:03Z</time></trkpt><trkpt lat="43.21745547730703" lon="12.198750349517706"><ele>310.0</ele><time>2026-03-29T09:44:04Z</time></trkpt><trkpt lat="43.21756312001458" lon="12.199013244908786"><ele>310.0</ele><time>2026-03-29T09:44:05Z</time></trkpt><trkpt lat="43.217684552647434" lon="12.19929002619133"><ele>310.0</ele><time>2026-03-29T09:44:06Z</time></trkpt><trkpt lat="43.21780440318229" lon="12.199584066044029"><ele>310.5</ele><time>2026-03-29T09:44:07Z</time></trkpt><trkpt lat="43.21791999559054" lon="12.199889780431738"><ele>311.0</ele><time>2026-03-29T09:44:08Z</time></trkpt><trkpt lat="43.21804339635978" lon="12.200204396042182"><ele>310.5</ele><time>2026-03-29T09:44:09Z</time></trkpt><trkpt lat="43.21817624818014" lon="12.200519675855741"><ele>310.0</ele><time>2026-03-29T09:44:09.999Z</time></trkpt><trkpt lat="43.218296668736876" lon="12.200807838260133"><ele>310.66666666666663</ele><time>2026-03-29T09:44:10.999Z</time></trkpt><trkpt lat="43.218394003157435" lon="12.201056838746887"><ele>311.3333333333333</ele><time>2026-03-29T09:44:11.999Z</time></trkpt><trkpt lat="43.218476838574276" lon="12.201283746271004"><ele>312.0</ele><time>2026-03-29T09:44:12.999Z</time></trkpt><trkpt lat="43.21855175937433" lon="12.201487639766718"><ele>312.4</ele><time>2026-03-29T09:44:13.999Z</time></trkpt><trkpt lat="43.21861469294529" lon="12.201658557508505"><ele>312.79999999999995</ele><time>2026-03-29T09:44:14.999Z</time></trkpt><trkpt lat="43.218665008315554" lon="12.201801823937265"><ele>313.2</ele><time>2026-03-29T09:44:15.999Z</time></trkpt><trkpt lat="43.21870129674147" lon="12.201909346848902"><ele>313.59999999999997</ele><time>2026-03-29T09:44:16.999Z</time></trkpt><trkpt lat="43.218723161380716" lon="12.202026082803506"><ele>314.0</ele><time>2026-03-29T09:44:18.999Z</time></trkpt><trkpt lat="43.218665014633864" lon="12.202105271572323"><ele>314.0</ele><time>2026-03-29T09:44:20.999Z</time></trkpt><trkpt lat="43.21856263810659" lon="12.202118512467104"><ele>314.0</ele><time>2026-03-29T09:44:22.999Z</time></trkpt><trkpt lat="43.218444332892105" lon="12.202129323221842"><ele>314.0</ele><time>2026-03-29T09:44:23.999Z</time></trkpt><trkpt lat="43.218284609555546" lon="12.202149945407507"><ele>314.0</ele><time>2026-03-29T09:44:24.999Z</time></trkpt><trkpt lat="43.218089823151864" lon="12.202173148100577"><ele>314.0</ele><time>2026-03-29T09:44:25.999Z</time></trkpt><trkpt lat="43.21787338999045" lon="12.202201238990979"><ele>314.0</ele><time>2026-03-29T09:44:26.999Z</time></trkpt><trkpt lat="43.217638383361525" lon="12.202234678184983"><ele>314.0</ele><time>2026-03-29T09:44:27.999Z</time></trkpt><trkpt lat="43.21741313710513" lon="12.20226435118235"><ele>314.0</ele><time>2026-03-29T09:44:28.999Z</time></trkpt><trkpt lat="43.21723031768448" lon="12.20227793833428"><ele>314.0</ele><time>2026-03-29T09:44:29.999Z</time></trkpt><trkpt lat="43.2171087658051" lon="12.202296521707295"><ele>314.0</ele><time>2026-03-29T09:44:30.999Z</time></trkpt><trkpt lat="43.21703633346585" lon="12.202336033254262"><ele>314.0</ele><time>2026-03-29T09:44:31.999Z</time></trkpt><trkpt lat="43.216966159928496" lon="12.202434800493881"><ele>314.0</ele><time>2026-03-29T09:44:33.999Z</time></trkpt><trkpt lat="43.21691170394907" lon="12.202523264835255"><ele>314.0</ele><time>2026-03-29T09:44:35.999Z</time></trkpt><trkpt lat="43.21686589629323" lon="12.202586464998099"><ele>314.0</ele><time>2026-03-29T09:44:37.999Z</time></trkpt><trkpt lat="43.21679645281488" lon="12.202709943131193"><ele>314.0</ele><time>2026-03-29T09:44:39.999Z</time></trkpt><trkpt lat="43.21674570248827" lon="12.202792804691363"><ele>314.0</ele><time>2026-03-29T09:44:40.999Z</time></trkpt><trkpt lat="43.21667158404351" lon="12.20288530976"><ele>314.0</ele><time>2026-03-29T09:44:41.999Z</time></trkpt><trkpt lat="43.21657088784799" lon="12.203054152299163"><ele>314.0</ele><time>2026-03-29T09:44:42.999Z</time></trkpt><trkpt lat="43.2164317416504" lon="12.203279201814816"><ele>316.0</ele><time>2026-03-29T09:44:43.999Z</time></trkpt><trkpt lat="43.216291257155476" lon="12.20347934510869"><ele>318.0</ele><time>2026-03-29T09:44:44.999Z</time></trkpt><trkpt lat="43.21618758027003" lon="12.203627555467426"><ele>320.0</ele><time>2026-03-29T09:44:45.999Z</time></trkpt><trkpt lat="43.216118728631294" lon="12.203738892952968"><ele>320.0</ele><time>2026-03-29T09:44:46.999Z</time></trkpt><trkpt lat="43.216061679077086" lon="12.203873210273667"><ele>320.0</ele><time>2026-03-29T09:44:47.999Z</time></trkpt><trkpt lat="43.2160141742831" lon="12.204036219666108"><ele>320.0</ele><time>2026-03-29T09:44:48.999Z</time></trkpt><trkpt lat="43.21595791186054" lon="12.204152216476572"><ele>320.0</ele><time>2026-03-29T09:44:49.999Z</time></trkpt><trkpt lat="43.21589505472848" lon="12.204229051744868"><ele>320.0</ele><time>2026-03-29T09:44:50.999Z</time></trkpt><trkpt lat="43.2158312191265" lon="12.204311710851677"><ele>320.6</ele><time>2026-03-29T09:44:51.999Z</time></trkpt><trkpt lat="43.21575961781215" lon="12.204379675472648"><ele>321.2</ele><time>2026-03-29T09:44:52.999Z</time></trkpt><trkpt lat="43.215668979270276" lon="12.204441580340724"><ele>321.79999999999995</ele><time>2026-03-29T09:44:53.999Z</time></trkpt><trkpt lat="43.21557017197134" lon="12.204503778837692"><ele>322.4</ele><time>2026-03-29T09:44:54.999Z</time></trkpt><trkpt lat="43.215483859910094" lon="12.2045817439839"><ele>323.0</ele><time>2026-03-29T09:44:55.999Z</time></trkpt><trkpt lat="43.21541131726711" lon="12.20466983018972"><ele>323.5</ele><time>2026-03-29T09:44:56.999Z</time></trkpt><trkpt lat="43.21533225093649" lon="12.204773352557446"><ele>324.0</ele><time>2026-03-29T09:44:57.999Z</time></trkpt><trkpt lat="43.2152269264834" lon="12.204903939376164"><ele>324.5</ele><time>2026-03-29T09:44:58.999Z</time></trkpt><trkpt lat="43.21510026215954" lon="12.205047323503383"><ele>325.0</ele><time>2026-03-29T09:44:59.999Z</time></trkpt><trkpt lat="43.214982289495346" lon="12.205182362833702"><ele>346.0</ele><time>2026-03-29T09:45:00.999Z</time></trkpt><trkpt lat="43.21204371483982" lon="12.20973418048371"><ele>346.0</ele><time>2026-03-29T09:46:02Z</time></trkpt><trkpt lat="43.21201387516234" lon="12.209817303170109"><ele>346.0</ele><time>2026-03-29T09:46:03Z</time></trkpt><trkpt lat="43.21194603414918" lon="12.209839570551901"><ele>346.0</ele><time>2026-03-29T09:46:05Z</time></trkpt><trkpt lat="43.21198791274061" lon="12.2100416472822"><ele>346.0</ele><time>2026-03-29T09:46:07Z</time></trkpt><trkpt lat="43.21199782437518" lon="12.21016884148525"><ele>346.0</ele><time>2026-03-29T09:46:08Z</time></trkpt><trkpt lat="43.21199534671754" lon="12.210299652649452"><ele>346.8333333333333</ele><time>2026-03-29T09:46:09Z</time></trkpt><trkpt lat="43.21197065166614" lon="12.210418676681186"><ele>347.66666666666663</ele><time>2026-03-29T09:46:10Z</time></trkpt><trkpt lat="43.211932868313916" lon="12.21056444724384"><ele>348.5</ele><time>2026-03-29T09:46:11Z</time></trkpt><trkpt lat="43.2119115277782" lon="12.210654083288212"><ele>349.3333333333333</ele><time>2026-03-29T09:46:12Z</time></trkpt><trkpt lat="43.21184357138115" lon="12.210701868011116"><ele>350.1666666666667</ele><time>2026-03-29T09:46:14.999Z</time></trkpt><trkpt lat="43.2117671218616" lon="12.210706999689306"><ele>351.0</ele><time>2026-03-29T09:46:17.999Z</time></trkpt><trkpt lat="43.211740374537165" lon="12.210604298025338"><ele>351.0</ele><time>2026-03-29T09:46:20.999Z</time></trkpt><trkpt lat="43.211710058505716" lon="12.21049753378857"><ele>351.0</ele><time>2026-03-29T09:46:23.999Z</time></trkpt><trkpt lat="43.21169058094624" lon="12.210377445754746"><ele>351.0</ele><time>2026-03-29T09:46:25.999Z</time></trkpt><trkpt lat="43.211671234553144" lon="12.210287877104237"><ele>351.0</ele><time>2026-03-29T09:46:26.999Z</time></trkpt><trkpt lat="43.211620939318486" lon="12.209874446127806"><ele>350.1666666666667</ele><time>2026-03-29T09:46:30.999Z</time></trkpt><trkpt lat="43.211593011974266" lon="12.209718422308864"><ele>349.3333333333333</ele><time>2026-03-29T09:46:32.999Z</time></trkpt><trkpt lat="43.21155760187749" lon="12.209600313768265"><ele>348.5</ele><time>2026-03-29T09:46:34.999Z</time></trkpt><trkpt lat="43.21147201168872" lon="12.2095644696035"><ele>347.66666666666663</ele><time>2026-03-29T09:46:39.999Z</time></trkpt><trkpt lat="43.21140273881134" lon="12.209550862539382"><ele>346.8333333333333</ele><time>2026-03-29T09:46:42.999Z</time></trkpt><trkpt lat="43.21133518127516" lon="12.209532590165804"><ele>346.0</ele><time>2026-03-29T09:46:45.999Z</time></trkpt><trkpt lat="43.21128639658504" lon="12.20962003382593"><ele>347.3333333333333</ele><time>2026-03-29T09:46:47.999Z</time></trkpt><trkpt lat="43.2112785938386" lon="12.209706894091763"><ele>348.66666666666663</ele><time>2026-03-29T09:46:48.999Z</time></trkpt><trkpt lat="43.21124946038734" lon="12.209804913926826"><ele>350.0</ele><time>2026-03-29T09:46:49.999Z</time></trkpt><trkpt lat="43.211177246131754" lon="12.209816172718035"><ele>351.3333333333333</ele><time>2026-03-29T09:46:51.999Z</time></trkpt><trkpt lat="43.21109612328075" lon="12.20983187933769"><ele>352.6666666666667</ele><time>2026-03-29T09:46:53.999Z</time></trkpt><trkpt lat="43.21096104596224" lon="12.209844302748591"><ele>354.0</ele><time>2026-03-29T09:46:55.999Z</time></trkpt><trkpt lat="43.210898316096596" lon="12.209874492379642"><ele>354.0</ele><time>2026-03-29T09:46:56.999Z</time></trkpt><trkpt lat="43.210837790547544" lon="12.209913366771383"><ele>354.0</ele><time>2026-03-29T09:46:57.999Z</time></trkpt><trkpt lat="43.21073425212982" lon="12.20995079077865"><ele>354.0</ele><time>2026-03-29T09:46:59.999Z</time></trkpt><trkpt lat="43.20909818969122" lon="12.211549428235175"><ele>357.1666666666667</ele><time>2026-03-29T09:48:02Z</time></trkpt><trkpt lat="43.20909911539152" lon="12.211648746445924"><ele>360.3333333333333</ele><time>2026-03-29T09:48:08Z</time></trkpt><trkpt lat="43.20901542446502" lon="12.211771473206198"><ele>363.5</ele><time>2026-03-29T09:48:11Z</time></trkpt><trkpt lat="43.208963858119915" lon="12.211848435973412"><ele>366.66666666666663</ele><time>2026-03-29T09:48:14Z</time></trkpt><trkpt lat="43.20894689663382" lon="12.211935456556953"><ele>369.8333333333333</ele><time>2026-03-29T09:48:17.999Z</time></trkpt><trkpt lat="43.20901005467991" lon="12.211985997125755"><ele>373.0</ele><time>2026-03-29T09:48:20.999Z</time></trkpt><trkpt lat="43.20909473243235" lon="12.211980228132424"><ele>373.0</ele><time>2026-03-29T09:48:23.999Z</time></trkpt><trkpt lat="43.209158014905654" lon="12.211913573786335"><ele>373.0</ele><time>2026-03-29T09:48:25.999Z</time></trkpt><trkpt lat="43.209228546164994" lon="12.211967797306423"><ele>373.0</ele><time>2026-03-29T09:48:28.999Z</time></trkpt><trkpt lat="43.209279362960174" lon="12.212033087396215"><ele>373.0</ele><time>2026-03-29T09:48:31.999Z</time></trkpt><trkpt lat="43.209421184083766" lon="12.212243535857809"><ele>373.0</ele><time>2026-03-29T09:48:32.999Z</time></trkpt><trkpt lat="43.209432346486246" lon="12.212334487690622"><ele>374.5</ele><time>2026-03-29T09:48:33.999Z</time></trkpt><trkpt lat="43.20943223454118" lon="12.212489859817826"><ele>376.0</ele><time>2026-03-29T09:48:35.999Z</time></trkpt><trkpt lat="43.209448143361776" lon="12.212600494426317"><ele>377.5</ele><time>2026-03-29T09:48:39.999Z</time></trkpt><trkpt lat="43.209490496081564" lon="12.21272800698695"><ele>379.0</ele><time>2026-03-29T09:48:41.999Z</time></trkpt><trkpt lat="43.209520251556626" lon="12.212818015130308"><ele>380.5</ele><time>2026-03-29T09:48:42.999Z</time></trkpt><trkpt lat="43.20953710728494" lon="12.212901901766122"><ele>382.0</ele><time>2026-03-29T09:48:43.999Z</time></trkpt><trkpt lat="43.20956861507965" lon="12.213001099234704"><ele>382.0</ele><time>2026-03-29T09:48:44.999Z</time></trkpt><trkpt lat="43.20959462217929" lon="12.213085159592005"><ele>382.0</ele><time>2026-03-29T09:48:45.999Z</time></trkpt><trkpt lat="43.20957544531051" lon="12.21319841623264"><ele>382.0</ele><time>2026-03-29T09:48:47.999Z</time></trkpt><trkpt lat="43.20952434004085" lon="12.213279370476661"><ele>382.0</ele><time>2026-03-29T09:48:48.999Z</time></trkpt><trkpt lat="43.209458607936725" lon="12.213432411328144"><ele>382.0</ele><time>2026-03-29T09:48:49.999Z</time></trkpt><trkpt lat="43.20939056552366" lon="12.213598147873952"><ele>386.0</ele><time>2026-03-29T09:48:50.999Z</time></trkpt><trkpt lat="43.209304826883" lon="12.213776735090761"><ele>390.0</ele><time>2026-03-29T09:48:51.999Z</time></trkpt><trkpt lat="43.20927350426738" lon="12.213948650159612"><ele>394.0</ele><time>2026-03-29T09:48:52.999Z</time></trkpt><trkpt lat="43.209257083267524" lon="12.214065953011279"><ele>398.0</ele><time>2026-03-29T09:48:53.999Z</time></trkpt><trkpt lat="43.209209439077725" lon="12.214196734675223"><ele>401.25</ele><time>2026-03-29T09:48:55.999Z</time></trkpt><trkpt lat="43.209212825932575" lon="12.21430458720205"><ele>404.5</ele><time>2026-03-29T09:48:56.999Z</time></trkpt><trkpt lat="43.20922637419452" lon="12.214424140618947"><ele>407.75</ele><time>2026-03-29T09:48:57.999Z</time></trkpt><trkpt lat="43.20919472809315" lon="12.214560039425223"><ele>411.0</ele><time>2026-03-29T09:48:59.999Z</time></trkpt><trkpt lat="43.20884621350804" lon="12.219069802991593"><ele>419.57142857142856</ele><time>2026-03-29T09:50:02Z</time></trkpt><trkpt lat="43.20878704973366" lon="12.219004059803105"><ele>428.1428571428571</ele><time>2026-03-29T09:50:03Z</time></trkpt><trkpt lat="43.208706843105674" lon="12.218969722812819"><ele>436.7142857142858</ele><time>2026-03-29T09:50:04Z</time></trkpt><trkpt lat="43.20863085408702" lon="12.218969958084124"><ele>445.28571428571433</ele><time>2026-03-29T09:50:05Z</time></trkpt><trkpt lat="43.208562794915196" lon="12.219007903993633"><ele>453.8571428571429</ele><time>2026-03-29T09:50:06Z</time></trkpt><trkpt lat="43.20851481574232" lon="12.219066771664204"><ele>462.4285714285715</ele><time>2026-03-29T09:50:07Z</time></trkpt><trkpt lat="43.20847654706242" lon="12.219149647402537"><ele>471.00000000000006</ele><time>2026-03-29T09:50:08Z</time></trkpt><trkpt lat="43.20842498139581" lon="12.21924685518252"><ele>475.0</ele><time>2026-03-29T09:50:09Z</time></trkpt><trkpt lat="43.20834033951005" lon="12.219377380715713"><ele>479.0</ele><time>2026-03-29T09:50:10Z</time></trkpt><trkpt lat="43.20824212849967" lon="12.219512604900824"><ele>483.0</ele><time>2026-03-29T09:50:11Z</time></trkpt><trkpt lat="43.20812505456045" lon="12.219663021971614"><ele>487.0</ele><time>2026-03-29T09:50:12Z</time></trkpt><trkpt lat="43.20800913942978" lon="12.219834660275328"><ele>491.40000000000003</ele><time>2026-03-29T09:50:13Z</time></trkpt><trkpt lat="43.20792025948666" lon="12.219999581409962"><ele>495.80000000000007</ele><time>2026-03-29T09:50:14Z</time></trkpt><trkpt lat="43.20784373621279" lon="12.220132033828868"><ele>500.2</ele><time>2026-03-29T09:50:15Z</time></trkpt><trkpt lat="43.20777330145057" lon="12.220197428199622"><ele>504.6</ele><time>2026-03-29T09:50:16Z</time></trkpt><trkpt lat="43.2077092346219" lon="12.220216752622305"><ele>509.0</ele><time>2026-03-29T09:50:17Z</time></trkpt><trkpt lat="43.20764451032053" lon="12.220188884124704"><ele>508.99999999999994</ele><time>2026-03-29T09:50:17.999Z</time></trkpt><trkpt lat="43.20759121368755" lon="12.220120830622989"><ele>509.0</ele><time>2026-03-29T09:50:18.999Z</time></trkpt><trkpt lat="43.20757147520296" lon="12.220004592090397"><ele>509.0</ele><time>2026-03-29T09:50:19.999Z</time></trkpt><trkpt lat="43.20755144227088" lon="12.219904527334693"><ele>509.0</ele><time>2026-03-29T09:50:20.999Z</time></trkpt><trkpt lat="43.207504632241935" lon="12.21983972410728"><ele>508.99999999999994</ele><time>2026-03-29T09:50:21.999Z</time></trkpt><trkpt lat="43.20742017970601" lon="12.219857223098806"><ele>509.0</ele><time>2026-03-29T09:50:22.999Z</time></trkpt><trkpt lat="43.207322047196605" lon="12.219928512422895"><ele>510.66666666666663</ele><time>2026-03-29T09:50:23.999Z</time></trkpt><trkpt lat="43.20723252240726" lon="12.22001982115536"><ele>512.3333333333334</ele><time>2026-03-29T09:50:24.999Z</time></trkpt><trkpt lat="43.20710441060232" lon="12.220142183706452"><ele>514.0</ele><time>2026-03-29T09:50:25.999Z</time></trkpt><trkpt lat="43.20693917775584" lon="12.220259163968343"><ele>514.0</ele><time>2026-03-29T09:50:26.999Z</time></trkpt><trkpt lat="43.20677006425724" lon="12.220367990935966"><ele>514.0</ele><time>2026-03-29T09:50:27.999Z</time></trkpt><trkpt lat="43.20657471559871" lon="12.220477516966493"><ele>514.0</ele><time>2026-03-29T09:50:28.999Z</time></trkpt><trkpt lat="43.20640211712241" lon="12.22057246467976"><ele>515.0</ele><time>2026-03-29T09:50:29.999Z</time></trkpt><trkpt lat="43.20630297306714" lon="12.220637201145498"><ele>516.0</ele><time>2026-03-29T09:50:30.999Z</time></trkpt><trkpt lat="43.20624008521091" lon="12.220666324901387"><ele>517.0</ele><time>2026-03-29T09:50:31.999Z</time></trkpt><trkpt lat="43.206169701090374" lon="12.220623678700596"><ele>518.0</ele><time>2026-03-29T09:50:32.999Z</time></trkpt><trkpt lat="43.20608647399218" lon="12.220553637968337"><ele>519.0</ele><time>2026-03-29T09:50:33.999Z</time></trkpt><trkpt lat="43.205992584218" lon="12.220509951153252"><ele>519.0</ele><time>2026-03-29T09:50:34.999Z</time></trkpt><trkpt lat="43.20589673506082" lon="12.220505344919303"><ele>519.0</ele><time>2026-03-29T09:50:35.999Z</time></trkpt><trkpt lat="43.20579630814638" lon="12.220550766302472"><ele>519.0</ele><time>2026-03-29T09:50:36.999Z</time></trkpt><trkpt lat="43.20567251532598" lon="12.220625633808481"><ele>519.0</ele><time>2026-03-29T09:50:37.999Z</time></trkpt><trkpt lat="43.20552791678932" lon="12.220712470176128"><ele>525.5</ele><time>2026-03-29T09:50:38.999Z</time></trkpt><trkpt lat="43.205376920196386" lon="12.220782586144884"><ele>532.0</ele><time>2026-03-29T09:50:39.999Z</time></trkpt><trkpt lat="43.20523582362175" lon="12.220831443449484"><ele>538.5</ele><time>2026-03-29T09:50:40.999Z</time></trkpt><trkpt lat="43.205131733241835" lon="12.220854182590173"><ele>545.0</ele><time>2026-03-29T09:50:41.999Z</time></trkpt><trkpt lat="43.205054842166795" lon="12.220903891876679"><ele>545.0</ele><time>2026-03-29T09:50:42.999Z</time></trkpt><trkpt lat="43.20498141472776" lon="12.221000566101788"><ele>545.0</ele><time>2026-03-29T09:50:43.999Z</time></trkpt><trkpt lat="43.2049252104391" lon="12.221107023976355"><ele>545.0</ele><time>2026-03-29T09:50:44.999Z</time></trkpt><trkpt lat="43.20488419168519" lon="12.221199954539976"><ele>545.0</ele><time>2026-03-29T09:50:45.999Z</time></trkpt><trkpt lat="43.20488654724982" lon="12.221307578307464"><ele>545.0</ele><time>2026-03-29T09:50:46.999Z</time></trkpt><trkpt lat="43.20493559065074" lon="12.22137992653065"><ele>545.0</ele><time>2026-03-29T09:50:47.999Z</time></trkpt><trkpt lat="43.2050158277195" lon="12.22140369175528"><ele>545.0</ele><time>2026-03-29T09:50:48.999Z</time></trkpt><trkpt lat="43.20510939787005" lon="12.221387719747124"><ele>545.0</ele><time>2026-03-29T09:50:49.999Z</time></trkpt><trkpt lat="43.2051833009176" lon="12.221410531159664"><ele>545.0</ele><time>2026-03-29T09:50:50.999Z</time></trkpt><trkpt lat="43.205196327404316" lon="12.221584184768274"><ele>545.0</ele><time>2026-03-29T09:50:52.999Z</time></trkpt><trkpt lat="43.20513182977278" lon="12.221685958648226"><ele>545.0</ele><time>2026-03-29T09:50:53.999Z</time></trkpt><trkpt lat="43.2050358241537" lon="12.221806795108364"><ele>548.5</ele><time>2026-03-29T09:50:54.999Z</time></trkpt><trkpt lat="43.20494054113461" lon="12.221955949759904"><ele>552.0</ele><time>2026-03-29T09:50:55.999Z</time></trkpt><trkpt lat="43.20484595674187" lon="12.222108169280128"><ele>555.5</ele><time>2026-03-29T09:50:56.999Z</time></trkpt><trkpt lat="43.204738202464654" lon="12.222228771209801"><ele>559.0</ele><time>2026-03-29T09:50:57.999Z</time></trkpt><trkpt lat="43.2046089842457" lon="12.222299848301128"><ele>565.0</ele><time>2026-03-29T09:50:58.999Z</time></trkpt><trkpt lat="43.20445224598206" lon="12.2223461035733"><ele>571.0</ele><time>2026-03-29T09:50:59.999Z</time></trkpt><trkpt lat="43.20428199848542" lon="12.222409128775134"><ele>577.0</ele><time>2026-03-29T09:51:00.999Z</time></trkpt><trkpt lat="43.20032851312716" lon="12.226767432334078"><ele>603.0</ele><time>2026-03-29T09:52:02Z</time></trkpt><trkpt lat="43.200353317705336" lon="12.227069476058539"><ele>629.0</ele><time>2026-03-29T09:52:03Z</time></trkpt><trkpt lat="43.20037360113211" lon="12.227346481470915"><ele>655.0</ele><time>2026-03-29T09:52:04Z</time></trkpt><trkpt lat="43.200393835928146" lon="12.227575095198219"><ele>656.3333333333334</ele><time>2026-03-29T09:52:05Z</time></trkpt><trkpt lat="43.20041840833932" lon="12.22777810389959"><ele>657.6666666666666</ele><time>2026-03-29T09:52:06Z</time></trkpt><trkpt lat="43.20047789257261" lon="12.227980393772874"><ele>659.0</ele><time>2026-03-29T09:52:07Z</time></trkpt><trkpt lat="43.20057801562366" lon="12.22818868668549"><ele>662.6666666666666</ele><time>2026-03-29T09:52:08Z</time></trkpt><trkpt lat="43.20070512918026" lon="12.228374264097955"><ele>666.3333333333334</ele><time>2026-03-29T09:52:09Z</time></trkpt><trkpt lat="43.20081424715198" lon="12.228529740017333"><ele>670.0</ele><time>2026-03-29T09:52:10Z</time></trkpt><trkpt lat="43.20085109420081" lon="12.228717148477097"><ele>670.0</ele><time>2026-03-29T09:52:11Z</time></trkpt><trkpt lat="43.200853498242054" lon="12.228906402189246"><ele>670.0</ele><time>2026-03-29T09:52:12Z</time></trkpt><trkpt lat="43.20082508225441" lon="12.229095143163546"><ele>670.0</ele><time>2026-03-29T09:52:13Z</time></trkpt><trkpt lat="43.20077370864818" lon="12.229262952266398"><ele>670.0</ele><time>2026-03-29T09:52:14Z</time></trkpt><trkpt lat="43.20068518559722" lon="12.229385823476875"><ele>665.3333333333334</ele><time>2026-03-29T09:52:15Z</time></trkpt><trkpt lat="43.20055453707489" lon="12.229442231050093"><ele>660.6666666666666</ele><time>2026-03-29T09:52:16Z</time></trkpt><trkpt lat="43.20040030284996" lon="12.229497652509282"><ele>656.0</ele><time>2026-03-29T09:52:17Z</time></trkpt><trkpt lat="43.200233912524794" lon="12.229537004016409"><ele>656.0</ele><time>2026-03-29T09:52:18Z</time></trkpt><trkpt lat="43.20010273054611" lon="12.2295886426776"><ele>656.0</ele><time>2026-03-29T09:52:19Z</time></trkpt><trkpt lat="43.199993990203474" lon="12.22962257873736"><ele>656.0</ele><time>2026-03-29T09:52:20Z</time></trkpt><trkpt lat="43.19990999602107" lon="12.229656220403523"><ele>656.0</ele><time>2026-03-29T09:52:20.999Z</time></trkpt><trkpt lat="43.199829552267964" lon="12.229714909897739"><ele>656.0</ele><time>2026-03-29T09:52:21.999Z</time></trkpt><trkpt lat="43.199754786570125" lon="12.229790348346004"><ele>655.8</ele><time>2026-03-29T09:52:22.999Z</time></trkpt><trkpt lat="43.19969053476093" lon="12.229889044822832"><ele>655.5999999999999</ele><time>2026-03-29T09:52:23.999Z</time></trkpt><trkpt lat="43.199651598882454" lon="12.230004368280817"><ele>655.4</ele><time>2026-03-29T09:52:24.999Z</time></trkpt><trkpt lat="43.199657028979345" lon="12.230141843069859"><ele>655.2</ele><time>2026-03-29T09:52:25.999Z</time></trkpt><trkpt lat="43.19971263583916" lon="12.230283838378504"><ele>655.0</ele><time>2026-03-29T09:52:26.999Z</time></trkpt><trkpt lat="43.199810598267675" lon="12.23042574378819"><ele>655.6666666666667</ele><time>2026-03-29T09:52:27.999Z</time></trkpt><trkpt lat="43.19992345647922" lon="12.23059393432726"><ele>656.3333333333334</ele><time>2026-03-29T09:52:28.999Z</time></trkpt><trkpt lat="43.20003878102518" lon="12.230773716732111"><ele>657.0</ele><time>2026-03-29T09:52:29.999Z</time></trkpt><trkpt lat="43.20015859095907" lon="12.230944877379374"><ele>657.0</ele><time>2026-03-29T09:52:30.999Z</time></trkpt><trkpt lat="43.20030049034323" lon="12.231087347140829"><ele>657.0</ele><time>2026-03-29T09:52:31.999Z</time></trkpt><trkpt lat="43.20047313236879" lon="12.231186103102125"><ele>657.0</ele><time>2026-03-29T09:52:32.999Z</time></trkpt><trkpt lat="43.20067748650193" lon="12.23125046365507"><ele>658.6666666666666</ele><time>2026-03-29T09:52:33.999Z</time></trkpt><trkpt lat="43.200883318385586" lon="12.231283373695451"><ele>660.3333333333333</ele><time>2026-03-29T09:52:34.999Z</time></trkpt><trkpt lat="43.201082529495636" lon="12.231279379545235"><ele>662.0</ele><time>2026-03-29T09:52:35.999Z</time></trkpt><trkpt lat="43.20122717662261" lon="12.23132796171362"><ele>662.0</ele><time>2026-03-29T09:52:36.999Z</time></trkpt><trkpt lat="43.20133573077877" lon="12.231404942881335"><ele>662.0</ele><time>2026-03-29T09:52:37.999Z</time></trkpt><trkpt lat="43.201416836901515" lon="12.231530154043744"><ele>662.0</ele><time>2026-03-29T09:52:38.999Z</time></trkpt><trkpt lat="43.20142850619509" lon="12.23170833143969"><ele>662.0</ele><time>2026-03-29T09:52:39.999Z</time></trkpt><trkpt lat="43.20140764125913" lon="12.231914050499979"><ele>654.3333333333333</ele><time>2026-03-29T09:52:40.999Z</time></trkpt><trkpt lat="43.20137247067315" lon="12.232149918481435"><ele>646.6666666666666</ele><time>2026-03-29T09:52:41.999Z</time></trkpt><trkpt lat="43.20135190823901" lon="12.23239112468841"><ele>639.0</ele><time>2026-03-29T09:52:42.999Z</time></trkpt><trkpt lat="43.20132403659803" lon="12.232634370819857"><ele>634.3333333333334</ele><time>2026-03-29T09:52:43.999Z</time></trkpt><trkpt lat="43.20131432060979" lon="12.232891028859099"><ele>629.6666666666667</ele><time>2026-03-29T09:52:44.999Z</time></trkpt><trkpt lat="43.201332076012584" lon="12.2331512410841"><ele>625.0</ele><time>2026-03-29T09:52:45.999Z</time></trkpt><trkpt lat="43.2013836097006" lon="12.233413808079167"><ele>625.0</ele><time>2026-03-29T09:52:46.999Z</time></trkpt><trkpt lat="43.201422274457784" lon="12.233682052402457"><ele>625.0</ele><time>2026-03-29T09:52:47.999Z</time></trkpt><trkpt lat="43.20147085337722" lon="12.233960808944943"><ele>625.0</ele><time>2026-03-29T09:52:48.999Z</time></trkpt><trkpt lat="43.20152139725409" lon="12.234247558748903"><ele>630.3333333333334</ele><time>2026-03-29T09:52:49.999Z</time></trkpt><trkpt lat="43.20158699038894" lon="12.234539150069265"><ele>635.6666666666666</ele><time>2026-03-29T09:52:50.999Z</time></trkpt><trkpt lat="43.20162514252915" lon="12.234842745791543"><ele>641.0</ele><time>2026-03-29T09:52:51.999Z</time></trkpt><trkpt lat="43.20167191223538" lon="12.235135930564859"><ele>641.3333333333333</ele><time>2026-03-29T09:52:52.999Z</time></trkpt><trkpt lat="43.201718317517695" lon="12.235425149296441"><ele>641.6666666666666</ele><time>2026-03-29T09:52:53.999Z</time></trkpt><trkpt lat="43.201780880459104" lon="12.235705444960512"><ele>642.0</ele><time>2026-03-29T09:52:54.999Z</time></trkpt><trkpt lat="43.20183301786484" lon="12.235984472496467"><ele>642.0</ele><time>2026-03-29T09:52:55.999Z</time></trkpt><trkpt lat="43.20190402406199" lon="12.23627330324536"><ele>642.0</ele><time>2026-03-29T09:52:56.999Z</time></trkpt><trkpt lat="43.201992817821434" lon="12.23656590541382"><ele>640.5</ele><time>2026-03-29T09:52:57.999Z</time></trkpt><trkpt lat="43.20209102462647" lon="12.236849251459011"><ele>639.0</ele><time>2026-03-29T09:52:58.999Z</time></trkpt><trkpt lat="43.20214642464593" lon="12.237147275444395"><ele>638.5</ele><time>2026-03-29T09:52:59.999Z</time></trkpt><trkpt lat="43.202201685778576" lon="12.237439073253043"><ele>638.0</ele><time>2026-03-29T09:53:00.999Z</time></trkpt><trkpt lat="43.20271414117753" lon="12.243445749965652"><ele>631.8</ele><time>2026-03-29T09:54:02Z</time></trkpt><trkpt lat="43.20265605701627" lon="12.243569470210703"><ele>625.5999999999999</ele><time>2026-03-29T09:54:03Z</time></trkpt><trkpt lat="43.20258603702273" lon="12.243661304159374"><ele>619.4000000000001</ele><time>2026-03-29T09:54:04Z</time></trkpt><trkpt lat="43.20254048000888" lon="12.243730675093396"><ele>613.2</ele><time>2026-03-29T09:54:05Z</time></trkpt><trkpt lat="43.20239592954165" lon="12.243682845661727"><ele>607.0</ele><time>2026-03-29T09:54:07Z</time></trkpt><trkpt lat="43.20226628961429" lon="12.243698401733624"><ele>604.6</ele><time>2026-03-29T09:54:08Z</time></trkpt><trkpt lat="43.20217942142737" lon="12.243742609656024"><ele>602.2</ele><time>2026-03-29T09:54:09Z</time></trkpt><trkpt lat="43.202112988817575" lon="12.24377930010634"><ele>599.8</ele><time>2026-03-29T09:54:10Z</time></trkpt><trkpt lat="43.202066104446196" lon="12.243855765450276"><ele>597.4</ele><time>2026-03-29T09:54:11Z</time></trkpt><trkpt lat="43.202026168398625" lon="12.243972110275013"><ele>595.0</ele><time>2026-03-29T09:54:12Z</time></trkpt><trkpt lat="43.20193699459504" lon="12.244082245038749"><ele>595.0</ele><time>2026-03-29T09:54:13Z</time></trkpt><trkpt lat="43.20185918718794" lon="12.24422245589731"><ele>595.0</ele><time>2026-03-29T09:54:14Z</time></trkpt><trkpt lat="43.20179038796142" lon="12.24437413521576"><ele>595.0</ele><time>2026-03-29T09:54:15Z</time></trkpt><trkpt lat="43.20170795866989" lon="12.244526401211958"><ele>595.0</ele><time>2026-03-29T09:54:16Z</time></trkpt><trkpt lat="43.201658003646465" lon="12.24464267097056"><ele>595.0</ele><time>2026-03-29T09:54:17Z</time></trkpt><trkpt lat="43.20165539732664" lon="12.244737080393094"><ele>595.0</ele><time>2026-03-29T09:54:18Z</time></trkpt><trkpt lat="43.201690994888025" lon="12.24484177194835"><ele>595.0</ele><time>2026-03-29T09:54:19Z</time></trkpt><trkpt lat="43.20180172467319" lon="12.244971180203686"><ele>595.0</ele><time>2026-03-29T09:54:21Z</time></trkpt><trkpt lat="43.20187585133163" lon="12.245069473707686"><ele>595.0</ele><time>2026-03-29T09:54:22Z</time></trkpt><trkpt lat="43.2018925156101" lon="12.245231145705125"><ele>595.5</ele><time>2026-03-29T09:54:23Z</time></trkpt><trkpt lat="43.201924098114034" lon="12.245391460828609"><ele>596.0</ele><time>2026-03-29T09:54:24Z</time></trkpt><trkpt lat="43.20191961072494" lon="12.24556266808792"><ele>596.5</ele><time>2026-03-29T09:54:24.999Z</time></trkpt><trkpt lat="43.20192632581502" lon="12.245718819783077"><ele>597.0</ele><time>2026-03-29T09:54:25.999Z</time></trkpt><trkpt lat="43.20195886258995" lon="12.245863171835929"><ele>594.5</ele><time>2026-03-29T09:54:26.999Z</time></trkpt><trkpt lat="43.20199951760321" lon="12.246000322211746"><ele>592.0</ele><time>2026-03-29T09:54:27.999Z</time></trkpt><trkpt lat="43.202006347567995" lon="12.24616398109813"><ele>589.5</ele><time>2026-03-29T09:54:28.999Z</time></trkpt><trkpt lat="43.20195266162723" lon="12.246346830428482"><ele>587.0</ele><time>2026-03-29T09:54:29.999Z</time></trkpt><trkpt lat="43.201851933456346" lon="12.246515899132667"><ele>587.0</ele><time>2026-03-29T09:54:30.999Z</time></trkpt><trkpt lat="43.20180635450702" lon="12.24667679196896"><ele>587.0</ele><time>2026-03-29T09:54:31.999Z</time></trkpt><trkpt lat="43.20176728676304" lon="12.246821470893156"><ele>587.0</ele><time>2026-03-29T09:54:32.999Z</time></trkpt><trkpt lat="43.20176166016446" lon="12.246982141918744"><ele>587.0</ele><time>2026-03-29T09:54:33.999Z</time></trkpt><trkpt lat="43.201763417679445" lon="12.247131547654128"><ele>587.0</ele><time>2026-03-29T09:54:34.999Z</time></trkpt><trkpt lat="43.201793917285826" lon="12.247269694981263"><ele>587.0</ele><time>2026-03-29T09:54:35.999Z</time></trkpt><trkpt lat="43.20183085284037" lon="12.247384028162086"><ele>587.0</ele><time>2026-03-29T09:54:36.999Z</time></trkpt><trkpt lat="43.201873656771326" lon="12.247464458186514"><ele>587.0</ele><time>2026-03-29T09:54:37.999Z</time></trkpt><trkpt lat="43.20190916260573" lon="12.247554398147214"><ele>587.0</ele><time>2026-03-29T09:54:38.999Z</time></trkpt><trkpt lat="43.20192196431445" lon="12.247639238393448"><ele>587.0</ele><time>2026-03-29T09:54:39.999Z</time></trkpt><trkpt lat="43.20186708522795" lon="12.247760289763747"><ele>588.0</ele><time>2026-03-29T09:54:41.999Z</time></trkpt><trkpt lat="43.20176467700412" lon="12.247884819583183"><ele>589.0</ele><time>2026-03-29T09:54:43.999Z</time></trkpt><trkpt lat="43.20173180572546" lon="12.24799654643337"><ele>590.0</ele><time>2026-03-29T09:54:44.999Z</time></trkpt><trkpt lat="43.20171387388558" lon="12.248126044353105"><ele>591.0</ele><time>2026-03-29T09:54:45.999Z</time></trkpt><trkpt lat="43.20169866195634" lon="12.248273523967365"><ele>592.0</ele><time>2026-03-29T09:54:46.999Z</time></trkpt><trkpt lat="43.20167532471335" lon="12.24845120047485"><ele>592.0</ele><time>2026-03-29T09:54:47.999Z</time></trkpt><trkpt lat="43.20168031025729" lon="12.24862828948575"><ele>592.0</ele><time>2026-03-29T09:54:48.999Z</time></trkpt><trkpt lat="43.20167736572208" lon="12.248785932708666"><ele>592.0</ele><time>2026-03-29T09:54:49.999Z</time></trkpt><trkpt lat="43.20165480403006" lon="12.248919806092786"><ele>592.0</ele><time>2026-03-29T09:54:50.999Z</time></trkpt><trkpt lat="43.201661696377904" lon="12.249031623164182"><ele>592.0</ele><time>2026-03-29T09:54:51.999Z</time></trkpt><trkpt lat="43.201686608906414" lon="12.249117809399316"><ele>588.0</ele><time>2026-03-29T09:54:52.999Z</time></trkpt><trkpt lat="43.201774782242985" lon="12.249176967569266"><ele>584.0</ele><time>2026-03-29T09:54:53.999Z</time></trkpt><trkpt lat="43.20186928547425" lon="12.24928061012738"><ele>580.0</ele><time>2026-03-29T09:54:54.999Z</time></trkpt><trkpt lat="43.201999753332416" lon="12.249409981230155"><ele>576.0</ele><time>2026-03-29T09:54:55.999Z</time></trkpt><trkpt lat="43.202129232422976" lon="12.249527575452655"><ele>576.0</ele><time>2026-03-29T09:54:56.999Z</time></trkpt><trkpt lat="43.20226104466617" lon="12.249606014808293"><ele>576.0</ele><time>2026-03-29T09:54:57.999Z</time></trkpt><trkpt lat="43.20237722003688" lon="12.24966649209301"><ele>576.0</ele><time>2026-03-29T09:54:58.999Z</time></trkpt><trkpt lat="43.20243778900588" lon="12.249737562484192"><ele>576.0</ele><time>2026-03-29T09:54:59.999Z</time></trkpt><trkpt lat="43.19731520375476" lon="12.255227825919036"><ele>563.6</ele><time>2026-03-29T09:56:02Z</time></trkpt><trkpt lat="43.19735051470021" lon="12.255355731186375"><ele>551.2</ele><time>2026-03-29T09:56:03Z</time></trkpt><trkpt lat="43.197375685911396" lon="12.25545750772969"><ele>538.8</ele><time>2026-03-29T09:56:04Z</time></trkpt><trkpt lat="43.19733344906724" lon="12.255570022665726"><ele>526.4</ele><time>2026-03-29T09:56:06Z</time></trkpt><trkpt lat="43.1972426770358" lon="12.255558059207212"><ele>514.0</ele><time>2026-03-29T09:56:07Z</time></trkpt><trkpt lat="43.197130916741884" lon="12.255620019959041"><ele>510.25</ele><time>2026-03-29T09:56:08Z</time></trkpt><trkpt lat="43.197020644230996" lon="12.255736857443766"><ele>506.5</ele><time>2026-03-29T09:56:09Z</time></trkpt><trkpt lat="43.196898171706906" lon="12.25587420339903"><ele>502.75</ele><time>2026-03-29T09:56:10Z</time></trkpt><trkpt lat="43.19678461674489" lon="12.255985822334944"><ele>499.0</ele><time>2026-03-29T09:56:11Z</time></trkpt><trkpt lat="43.196679155899226" lon="12.256005782882106"><ele>499.0</ele><time>2026-03-29T09:56:12Z</time></trkpt><trkpt lat="43.19658194424334" lon="12.255997277810971"><ele>499.0</ele><time>2026-03-29T09:56:13Z</time></trkpt><trkpt lat="43.196445446361885" lon="12.255998811088821"><ele>499.0</ele><time>2026-03-29T09:56:14Z</time></trkpt><trkpt lat="43.19626221721658" lon="12.256002124338526"><ele>499.0</ele><time>2026-03-29T09:56:15Z</time></trkpt><trkpt lat="43.196095368412884" lon="12.256040331535566"><ele>497.6</ele><time>2026-03-29T09:56:16Z</time></trkpt><trkpt lat="43.19595372186677" lon="12.256094598361114"><ele>496.2</ele><time>2026-03-29T09:56:17Z</time></trkpt><trkpt lat="43.19583365723308" lon="12.2561247261077"><ele>494.80000000000007</ele><time>2026-03-29T09:56:18Z</time></trkpt><trkpt lat="43.1957583902647" lon="12.256133374676615"><ele>493.40000000000003</ele><time>2026-03-29T09:56:19Z</time></trkpt><trkpt lat="43.19568806274124" lon="12.256081010835768"><ele>492.0</ele><time>2026-03-29T09:56:21Z</time></trkpt><trkpt lat="43.19566912631358" lon="12.255964917202252"><ele>488.66666666666663</ele><time>2026-03-29T09:56:22Z</time></trkpt><trkpt lat="43.19558856517116" lon="12.255836012124186"><ele>485.3333333333333</ele><time>2026-03-29T09:56:23Z</time></trkpt><trkpt lat="43.195479301193515" lon="12.255699024069639"><ele>482.0</ele><time>2026-03-29T09:56:24Z</time></trkpt><trkpt lat="43.19534101558002" lon="12.255543306486144"><ele>482.0</ele><time>2026-03-29T09:56:25Z</time></trkpt><trkpt lat="43.19524397440002" lon="12.255376923695124"><ele>482.0</ele><time>2026-03-29T09:56:26Z</time></trkpt><trkpt lat="43.19518565206973" lon="12.255273043787305"><ele>482.0</ele><time>2026-03-29T09:56:26.999Z</time></trkpt><trkpt lat="43.19512863572576" lon="12.25515229820887"><ele>482.0</ele><time>2026-03-29T09:56:28.999Z</time></trkpt><trkpt lat="43.19499323005336" lon="12.255129602192966"><ele>482.0</ele><time>2026-03-29T09:56:30.999Z</time></trkpt><trkpt lat="43.194917310482374" lon="12.25508642769398"><ele>482.00000000000006</ele><time>2026-03-29T09:56:32.999Z</time></trkpt><trkpt lat="43.194891952587945" lon="12.255282000664646"><ele>482.00000000000006</ele><time>2026-03-29T09:56:34.999Z</time></trkpt><trkpt lat="43.19478997160472" lon="12.255336412070218"><ele>482.0</ele><time>2026-03-29T09:56:37.999Z</time></trkpt><trkpt lat="43.1947180799525" lon="12.255283611108197"><ele>482.0</ele><time>2026-03-29T09:56:38.999Z</time></trkpt><trkpt lat="43.19468401755178" lon="12.254989387012722"><ele>479.0</ele><time>2026-03-29T09:56:39.999Z</time></trkpt><trkpt lat="43.194576358084824" lon="12.254939120766304"><ele>476.0</ele><time>2026-03-29T09:56:40.999Z</time></trkpt><trkpt lat="43.1944428306473" lon="12.254888770543348"><ele>473.0</ele><time>2026-03-29T09:56:41.999Z</time></trkpt><trkpt lat="43.19416546329853" lon="12.255374996897544"><ele>473.0</ele><time>2026-03-29T09:56:42.999Z</time></trkpt><trkpt lat="43.19401738577049" lon="12.255427059113783"><ele>473.0</ele><time>2026-03-29T09:56:43.999Z</time></trkpt><trkpt lat="43.19390562506958" lon="12.255491907733289"><ele>473.0</ele><time>2026-03-29T09:56:44.999Z</time></trkpt><trkpt lat="43.193775792027424" lon="12.255564667521863"><ele>473.0</ele><time>2026-03-29T09:56:45.999Z</time></trkpt><trkpt lat="43.19363171759519" lon="12.255633508839244"><ele>473.4</ele><time>2026-03-29T09:56:46.999Z</time></trkpt><trkpt lat="43.19352863093109" lon="12.255707798379126"><ele>473.79999999999995</ele><time>2026-03-29T09:56:47.999Z</time></trkpt><trkpt lat="43.19345700161085" lon="12.255761207947428"><ele>474.2</ele><time>2026-03-29T09:56:48.999Z</time></trkpt><trkpt lat="43.19337345085973" lon="12.255770352059521"><ele>474.6</ele><time>2026-03-29T09:56:49.999Z</time></trkpt><trkpt lat="43.19327717353743" lon="12.255796733816254"><ele>475.0</ele><time>2026-03-29T09:56:50.999Z</time></trkpt><trkpt lat="43.19318498695724" lon="12.255874594177426"><ele>475.8</ele><time>2026-03-29T09:56:51.999Z</time></trkpt><trkpt lat="43.19309224935628" lon="12.255941794085528"><ele>476.6</ele><time>2026-03-29T09:56:52.999Z</time></trkpt><trkpt lat="43.19301351931199" lon="12.255929092594501"><ele>477.4</ele><time>2026-03-29T09:56:53.999Z</time></trkpt><trkpt lat="43.192917454533905" lon="12.255869789507443"><ele>478.2</ele><time>2026-03-29T09:56:54.999Z</time></trkpt><trkpt lat="43.19281953087414" lon="12.25577770225161"><ele>479.0</ele><time>2026-03-29T09:56:55.999Z</time></trkpt><trkpt lat="43.192730759392845" lon="12.25569018623451"><ele>479.0</ele><time>2026-03-29T09:56:56.999Z</time></trkpt><trkpt lat="43.19263508748365" lon="12.255656294633106"><ele>479.0</ele><time>2026-03-29T09:56:57.999Z</time></trkpt><trkpt lat="43.192555802537434" lon="12.255644795780473"><ele>479.0</ele><time>2026-03-29T09:56:58.999Z</time></trkpt><trkpt lat="43.19246556893995" lon="12.255654412887194"><ele>479.0</ele><time>2026-03-29T09:56:59.999Z</time></trkpt><trkpt lat="43.19233667383081" lon="12.255696713215299"><ele>479.0</ele><time>2026-03-29T09:57:00.999Z</time></trkpt><trkpt lat="43.1910370856415" lon="12.253678476912121"><ele>464.25</ele><time>2026-03-29T09:58:02Z</time></trkpt><trkpt lat="43.19102222569054" lon="12.253826361460899"><ele>449.5</ele><time>2026-03-29T09:58:04Z</time></trkpt><trkpt lat="43.190967870752495" lon="12.25394222880777"><ele>434.75</ele><time>2026-03-29T09:58:06Z</time></trkpt><trkpt lat="43.19096760127682" lon="12.254064431885876"><ele>420.0</ele><time>2026-03-29T09:58:08Z</time></trkpt><trkpt lat="43.19091127468858" lon="12.25425977952859"><ele>420.0</ele><time>2026-03-29T09:58:10Z</time></trkpt><trkpt lat="43.1908774512289" lon="12.254360133778862"><ele>420.0</ele><time>2026-03-29T09:58:11Z</time></trkpt><trkpt lat="43.190819929830916" lon="12.254440267877065"><ele>420.0</ele><time>2026-03-29T09:58:12Z</time></trkpt><trkpt lat="43.190767556194224" lon="12.254528333201518"><ele>420.0</ele><time>2026-03-29T09:58:13Z</time></trkpt><trkpt lat="43.19073342164625" lon="12.25462305860914"><ele>420.0</ele><time>2026-03-29T09:58:14Z</time></trkpt><trkpt lat="43.19071194920144" lon="12.25473390677047"><ele>420.0</ele><time>2026-03-29T09:58:15Z</time></trkpt><trkpt lat="43.19068346442365" lon="12.254844828481454"><ele>419.6666666666667</ele><time>2026-03-29T09:58:16Z</time></trkpt><trkpt lat="43.19065423503388" lon="12.254938655760705"><ele>419.33333333333337</ele><time>2026-03-29T09:58:17Z</time></trkpt><trkpt lat="43.19060316730264" lon="12.255060880225198"><ele>419.0</ele><time>2026-03-29T09:58:19Z</time></trkpt><trkpt lat="43.190538650448836" lon="12.255093043872261"><ele>418.6666666666667</ele><time>2026-03-29T09:58:21Z</time></trkpt><trkpt lat="43.19042345530126" lon="12.255127591141846"><ele>418.33333333333337</ele><time>2026-03-29T09:58:23Z</time></trkpt><trkpt lat="43.19035466935802" lon="12.255156830406763"><ele>418.0</ele><time>2026-03-29T09:58:24Z</time></trkpt><trkpt lat="43.190286812597606" lon="12.255193843696377"><ele>418.0</ele><time>2026-03-29T09:58:25Z</time></trkpt><trkpt lat="43.190223384111185" lon="12.255224449131184"><ele>418.0</ele><time>2026-03-29T09:58:26Z</time></trkpt><trkpt lat="43.19016158061723" lon="12.25526212821124"><ele>418.0</ele><time>2026-03-29T09:58:27Z</time></trkpt><trkpt lat="43.19003824682406" lon="12.25523436022133"><ele>418.0</ele><time>2026-03-29T09:58:28Z</time></trkpt><trkpt lat="43.189950088639435" lon="12.255248864542807"><ele>418.0</ele><time>2026-03-29T09:58:29Z</time></trkpt><trkpt lat="43.18983460536112" lon="12.255140970949133"><ele>416.0</ele><time>2026-03-29T09:58:30.999Z</time></trkpt><trkpt lat="43.18972076092928" lon="12.25506066699194"><ele>414.0</ele><time>2026-03-29T09:58:31.999Z</time></trkpt><trkpt lat="43.189588956493566" lon="12.254981053522467"><ele>412.0</ele><time>2026-03-29T09:58:32.999Z</time></trkpt><trkpt lat="43.18948934484573" lon="12.254952400797489"><ele>410.0</ele><time>2026-03-29T09:58:33.999Z</time></trkpt><trkpt lat="43.18934856066307" lon="12.255041433757295"><ele>410.0</ele><time>2026-03-29T09:58:35.999Z</time></trkpt><trkpt lat="43.18925411189679" lon="12.255102803692568"><ele>410.0</ele><time>2026-03-29T09:58:36.999Z</time></trkpt><trkpt lat="43.18914504619363" lon="12.255117620045201"><ele>410.0</ele><time>2026-03-29T09:58:37.999Z</time></trkpt><trkpt lat="43.189038464602014" lon="12.25510132695873"><ele>410.0</ele><time>2026-03-29T09:58:38.999Z</time></trkpt><trkpt lat="43.18897458780673" lon="12.25503165135606"><ele>410.0</ele><time>2026-03-29T09:58:39.999Z</time></trkpt><trkpt lat="43.18891841809897" lon="12.254925961906963"><ele>409.66666666666663</ele><time>2026-03-29T09:58:40.999Z</time></trkpt><trkpt lat="43.18883837678816" lon="12.2548774656064"><ele>409.3333333333333</ele><time>2026-03-29T09:58:41.999Z</time></trkpt><trkpt lat="43.18876928152868" lon="12.254859883029447"><ele>409.0</ele><time>2026-03-29T09:58:42.999Z</time></trkpt><trkpt lat="43.18870386894966" lon="12.254827841920196"><ele>408.66666666666663</ele><time>2026-03-29T09:58:43.999Z</time></trkpt><trkpt lat="43.188619689588606" lon="12.25483016699516"><ele>408.3333333333333</ele><time>2026-03-29T09:58:44.999Z</time></trkpt><trkpt lat="43.188525713321944" lon="12.254866145699387"><ele>408.0</ele><time>2026-03-29T09:58:45.999Z</time></trkpt><trkpt lat="43.18843435668955" lon="12.254895648327558"><ele>408.0</ele><time>2026-03-29T09:58:46.999Z</time></trkpt><trkpt lat="43.18836793607122" lon="12.25493840997973"><ele>408.0</ele><time>2026-03-29T09:58:47.999Z</time></trkpt><trkpt lat="43.18831899021996" lon="12.254870594928416"><ele>408.0</ele><time>2026-03-29T09:58:48.999Z</time></trkpt><trkpt lat="43.18822465965374" lon="12.254813819509867"><ele>408.0</ele><time>2026-03-29T09:58:49.999Z</time></trkpt><trkpt lat="43.18815425877008" lon="12.254750912186825"><ele>408.0</ele><time>2026-03-29T09:58:50.999Z</time></trkpt><trkpt lat="43.18811280717602" lon="12.25460808703312"><ele>408.0</ele><time>2026-03-29T09:58:52.999Z</time></trkpt><trkpt lat="43.188052333821204" lon="12.254505086238035"><ele>404.4</ele><time>2026-03-29T09:58:53.999Z</time></trkpt><trkpt lat="43.188000155712174" lon="12.25439399405471"><ele>400.79999999999995</ele><time>2026-03-29T09:58:54.999Z</time></trkpt><trkpt lat="43.18790442071094" lon="12.254413838698838"><ele>397.2</ele><time>2026-03-29T09:58:55.999Z</time></trkpt><trkpt lat="43.18779459282918" lon="12.25442955549587"><ele>393.6</ele><time>2026-03-29T09:58:56.999Z</time></trkpt><trkpt lat="43.18767234604231" lon="12.254432919811837"><ele>390.0</ele><time>2026-03-29T09:58:57.999Z</time></trkpt><trkpt lat="43.18758273605248" lon="12.254438640376058"><ele>349.0</ele><time>2026-03-29T09:58:58.999Z</time></trkpt><trkpt lat="43.183607538201166" lon="12.255807813265983"><ele>349.0</ele><time>2026-03-29T10:00:02Z</time></trkpt><trkpt lat="43.18355461699105" lon="12.25573081343488"><ele>349.0</ele><time>2026-03-29T10:00:03Z</time></trkpt><trkpt lat="43.18346936832793" lon="12.255616343934953"><ele>349.0</ele><time>2026-03-29T10:00:05Z</time></trkpt><trkpt lat="43.18339463807954" lon="12.255487660162906"><ele>349.0</ele><time>2026-03-29T10:00:07Z</time></trkpt><trkpt lat="43.18333648150644" lon="12.255370840020515"><ele>349.0</ele><time>2026-03-29T10:00:09Z</time></trkpt><trkpt lat="43.183240646634935" lon="12.255301416958115"><ele>345.0</ele><time>2026-03-29T10:00:11Z</time></trkpt><trkpt lat="43.18314307086635" lon="12.255270994176767"><ele>341.0</ele><time>2026-03-29T10:00:13Z</time></trkpt><trkpt lat="43.1830854066892" lon="12.255230519906686"><ele>337.0</ele><time>2026-03-29T10:00:15Z</time></trkpt><trkpt lat="43.183068911980655" lon="12.255076903585719"><ele>333.0</ele><time>2026-03-29T10:00:17Z</time></trkpt><trkpt lat="43.18307168975436" lon="12.254961035222832"><ele>329.0</ele><time>2026-03-29T10:00:18Z</time></trkpt><trkpt lat="43.183057720232036" lon="12.25486948038007"><ele>325.0</ele><time>2026-03-29T10:00:19Z</time></trkpt><trkpt lat="43.18298025985704" lon="12.254824523446171"><ele>325.0</ele><time>2026-03-29T10:00:21Z</time></trkpt><trkpt lat="43.18290957010092" lon="12.254901420121435"><ele>325.0</ele><time>2026-03-29T10:00:23Z</time></trkpt><trkpt lat="43.18285118840868" lon="12.255021307971946"><ele>325.0</ele><time>2026-03-29T10:00:25Z</time></trkpt><trkpt lat="43.18285756760892" lon="12.255116795606044"><ele>325.0</ele><time>2026-03-29T10:00:26Z</time></trkpt><trkpt lat="43.182871282670476" lon="12.255237674066326"><ele>325.0</ele><time>2026-03-29T10:00:27Z</time></trkpt><trkpt lat="43.1828871081068" lon="12.2553698472271"><ele>325.0</ele><time>2026-03-29T10:00:28Z</time></trkpt><trkpt lat="43.18291284128753" lon="12.255478568007204"><ele>325.0</ele><time>2026-03-29T10:00:29Z</time></trkpt><trkpt lat="43.182943970371696" lon="12.255574701179741"><ele>325.0</ele><time>2026-03-29T10:00:30Z</time></trkpt><trkpt lat="43.18298275415908" lon="12.255673450903885"><ele>325.0</ele><time>2026-03-29T10:00:31Z</time></trkpt><trkpt lat="43.18302049864873" lon="12.25579181858819"><ele>325.0</ele><time>2026-03-29T10:00:32Z</time></trkpt><trkpt lat="43.18305040811867" lon="12.255908236465093"><ele>325.0</ele><time>2026-03-29T10:00:33Z</time></trkpt><trkpt lat="43.183081789279505" lon="12.256012233551445"><ele>324.0</ele><time>2026-03-29T10:00:33.999Z</time></trkpt><trkpt lat="43.18311890332678" lon="12.256109018004853"><ele>323.0</ele><time>2026-03-29T10:00:34.999Z</time></trkpt><trkpt lat="43.18316166498713" lon="12.256218587966124"><ele>322.0</ele><time>2026-03-29T10:00:35.999Z</time></trkpt><trkpt lat="43.18319482343744" lon="12.256345619287044"><ele>321.0</ele><time>2026-03-29T10:00:36.999Z</time></trkpt><trkpt lat="43.18320193214383" lon="12.256470955467965"><ele>320.0</ele><time>2026-03-29T10:00:37.999Z</time></trkpt><trkpt lat="43.183216530098605" lon="12.256589578997524"><ele>319.0</ele><time>2026-03-29T10:00:38.999Z</time></trkpt><trkpt lat="43.18323983536067" lon="12.256731633866675"><ele>320.6</ele><time>2026-03-29T10:00:39.999Z</time></trkpt><trkpt lat="43.1832657495324" lon="12.256893194169713"><ele>322.2</ele><time>2026-03-29T10:00:40.999Z</time></trkpt><trkpt lat="43.18329956661088" lon="12.25703692163047"><ele>323.8</ele><time>2026-03-29T10:00:41.999Z</time></trkpt><trkpt lat="43.18332629099602" lon="12.257166211982648"><ele>325.40000000000003</ele><time>2026-03-29T10:00:42.999Z</time></trkpt><trkpt lat="43.18334798099039" lon="12.257277996917281"><ele>327.0</ele><time>2026-03-29T10:00:43.999Z</time></trkpt><trkpt lat="43.18337679364974" lon="12.257383009031871"><ele>327.0</ele><time>2026-03-29T10:00:44.999Z</time></trkpt><trkpt lat="43.18339344669203" lon="12.257476334744373"><ele>327.0</ele><time>2026-03-29T10:00:45.999Z</time></trkpt><trkpt lat="43.18342550628162" lon="12.257636560480172"><ele>327.0</ele><time>2026-03-29T10:00:47.999Z</time></trkpt><trkpt lat="43.18344232607765" lon="12.257756317676685"><ele>327.0</ele><time>2026-03-29T10:00:49.999Z</time></trkpt><trkpt lat="43.183385002658724" lon="12.257820371343294"><ele>327.0</ele><time>2026-03-29T10:00:52.999Z</time></trkpt><trkpt lat="43.18329252648311" lon="12.25786588294628"><ele>327.0</ele><time>2026-03-29T10:00:58.999Z</time></trkpt><trkpt lat="43.18317742288841" lon="12.257816235782762"><ele>327.0</ele><time>2026-03-29T10:01:00.999Z</time></trkpt><trkpt lat="43.18341198766278" lon="12.257685206281172"><ele>327.0</ele><time>2026-03-29T10:03:13.999Z</time></trkpt><trkpt lat="43.18340438370863" lon="12.25756999973566"><ele>327.0</ele><time>2026-03-29T10:03:15.999Z</time></trkpt><trkpt lat="43.18336349304133" lon="12.257433051826581"><ele>327.0</ele><time>2026-03-29T10:03:17.999Z</time></trkpt><trkpt lat="43.18334664956594" lon="12.257319575198819"><ele>327.0</ele><time>2026-03-29T10:03:18.999Z</time></trkpt><trkpt lat="43.18332630794479" lon="12.257202337336617"><ele>327.0</ele><time>2026-03-29T10:03:19.999Z</time></trkpt><trkpt lat="43.18330695640884" lon="12.257091734575901"><ele>327.0</ele><time>2026-03-29T10:03:20.999Z</time></trkpt><trkpt lat="43.18328645093278" lon="12.256961202413173"><ele>325.40000000000003</ele><time>2026-03-29T10:03:21.999Z</time></trkpt><trkpt lat="43.183257579804106" lon="12.256803077441063"><ele>323.8</ele><time>2026-03-29T10:03:22.999Z</time></trkpt><trkpt lat="43.18322455881426" lon="12.25667982422012"><ele>322.2</ele><time>2026-03-29T10:03:23.999Z</time></trkpt><trkpt lat="43.183209546275805" lon="12.256549669828631"><ele>320.6</ele><time>2026-03-29T10:03:24.999Z</time></trkpt><trkpt lat="43.18319167700947" lon="12.256415013859582"><ele>319.0</ele><time>2026-03-29T10:03:25.999Z</time></trkpt><trkpt lat="43.18316652976544" lon="12.256261589507584"><ele>319.0</ele><time>2026-03-29T10:03:26.999Z</time></trkpt><trkpt lat="43.183138780256506" lon="12.25611038899699"><ele>319.0</ele><time>2026-03-29T10:03:27.999Z</time></trkpt><trkpt lat="43.18309433281209" lon="12.255987886473438"><ele>319.0</ele><time>2026-03-29T10:03:28.999Z</time></trkpt><trkpt lat="43.183052115555626" lon="12.255894080431181"><ele>319.0</ele><time>2026-03-29T10:03:29.999Z</time></trkpt><trkpt lat="43.18303050021324" lon="12.255809114985516"><ele>319.0</ele><time>2026-03-29T10:03:30.999Z</time></trkpt><trkpt lat="43.18300826040197" lon="12.255714027474754"><ele>319.0</ele><time>2026-03-29T10:03:31.999Z</time></trkpt><trkpt lat="43.18297885378797" lon="12.255622601683333"><ele>319.0</ele><time>2026-03-29T10:03:32.999Z</time></trkpt><trkpt lat="43.18294822026381" lon="12.255527592549429"><ele>319.0</ele><time>2026-03-29T10:03:33.999Z</time></trkpt><trkpt lat="43.18291255269633" lon="12.25542001271369"><ele>319.0</ele><time>2026-03-29T10:03:39.998Z</time></trkpt><trkpt lat="43.18293408447235" lon="12.255532658331324"><ele>319.0</ele><time>2026-03-29T10:03:48.998Z</time></trkpt><trkpt lat="43.182890445135165" lon="12.25561636124526"><ele>319.0</ele><time>2026-03-29T10:03:53.998Z</time></trkpt><trkpt lat="43.182817173743345" lon="12.25564949691859"><ele>319.0</ele><time>2026-03-29T10:03:55.998Z</time></trkpt><trkpt lat="43.18273900267802" lon="12.255571578650452"><ele>320.5</ele><time>2026-03-29T10:03:57.998Z</time></trkpt><trkpt lat="43.18266007300503" lon="12.255508149161408"><ele>322.0</ele><time>2026-03-29T10:03:58.998Z</time></trkpt><trkpt lat="43.18259297512276" lon="12.255454526015315"><ele>323.5</ele><time>2026-03-29T10:03:59.998Z</time></trkpt><trkpt lat="43.18253918480688" lon="12.25537932150615"><ele>325.0</ele><time>2026-03-29T10:04:00.998Z</time></trkpt><trkpt lat="43.17932553137092" lon="12.253897236846427"><ele>330.4</ele><time>2026-03-29T10:05:11.999Z</time></trkpt><trkpt lat="43.17918974777768" lon="12.254019356419068"><ele>335.8</ele><time>2026-03-29T10:05:14.999Z</time></trkpt><trkpt lat="43.17915453680021" lon="12.254097679278779"><ele>341.20000000000005</ele><time>2026-03-29T10:05:16.999Z</time></trkpt><trkpt lat="43.17911044257336" lon="12.254194882713472"><ele>346.6</ele><time>2026-03-29T10:05:18.999Z</time></trkpt><trkpt lat="43.17910557408204" lon="12.254340895882132"><ele>352.0</ele><time>2026-03-29T10:05:20.999Z</time></trkpt><trkpt lat="43.17906757982807" lon="12.254444226576448"><ele>352.0</ele><time>2026-03-29T10:05:22.999Z</time></trkpt><trkpt lat="43.179024956557726" lon="12.254541988454923"><ele>352.0</ele><time>2026-03-29T10:05:26.999Z</time></trkpt><trkpt lat="43.17896088033939" lon="12.254513465608312"><ele>352.0</ele><time>2026-03-29T10:05:40.998Z</time></trkpt><trkpt lat="43.17896837243094" lon="12.254414412308284"><ele>352.0</ele><time>2026-03-29T10:05:43.998Z</time></trkpt><trkpt lat="43.17887883584432" lon="12.254380938911236"><ele>352.0</ele><time>2026-03-29T10:05:45.998Z</time></trkpt><trkpt lat="43.17882679381838" lon="12.254290607275552"><ele>352.0</ele><time>2026-03-29T10:05:47.998Z</time></trkpt><trkpt lat="43.17874616152159" lon="12.254163200809092"><ele>354.0</ele><time>2026-03-29T10:05:49.998Z</time></trkpt><trkpt lat="43.17866063221945" lon="12.25411177154993"><ele>356.0</ele><time>2026-03-29T10:05:51.998Z</time></trkpt><trkpt lat="43.17857567193812" lon="12.254050274605744"><ele>358.0</ele><time>2026-03-29T10:05:53.998Z</time></trkpt><trkpt lat="43.17851670064289" lon="12.25399082785147"><ele>360.0</ele><time>2026-03-29T10:05:54.998Z</time></trkpt><trkpt lat="43.17845108877646" lon="12.253901662831835"><ele>362.0</ele><time>2026-03-29T10:05:56.998Z</time></trkpt><trkpt lat="43.17841564458686" lon="12.253822373536662"><ele>364.0</ele><time>2026-03-29T10:05:57.998Z</time></trkpt><trkpt lat="43.178385653680316" lon="12.253746393388932"><ele>364.0</ele><time>2026-03-29T10:05:58.998Z</time></trkpt><trkpt lat="43.17836812427488" lon="12.253623961885184"><ele>364.0</ele><time>2026-03-29T10:06:00.998Z</time></trkpt><trkpt lat="43.177830252031434" lon="12.25451187744487"><ele>366.5</ele><time>2026-03-29T10:07:01.999Z</time></trkpt><trkpt lat="43.17790583012597" lon="12.254719384123748"><ele>369.0</ele><time>2026-03-29T10:07:03.999Z</time></trkpt><trkpt lat="43.17798757348898" lon="12.254885309221054"><ele>371.5</ele><time>2026-03-29T10:07:05.999Z</time></trkpt><trkpt lat="43.17806261764125" lon="12.254988823042256"><ele>374.0</ele><time>2026-03-29T10:07:06.999Z</time></trkpt><trkpt lat="43.17811952282612" lon="12.255097386803731"><ele>375.0</ele><time>2026-03-29T10:07:07.999Z</time></trkpt><trkpt lat="43.17817100389649" lon="12.25520708758436"><ele>376.0</ele><time>2026-03-29T10:07:08.999Z</time></trkpt><trkpt lat="43.17821099378612" lon="12.255321444151217"><ele>377.0</ele><time>2026-03-29T10:07:09.999Z</time></trkpt><trkpt lat="43.17823538179474" lon="12.255430387907364"><ele>378.0</ele><time>2026-03-29T10:07:10.999Z</time></trkpt><trkpt lat="43.17823498191522" lon="12.255545239884775"><ele>379.0</ele><time>2026-03-29T10:07:11.999Z</time></trkpt><trkpt lat="43.178209260782126" lon="12.255688851043121"><ele>384.79999999999995</ele><time>2026-03-29T10:07:12.999Z</time></trkpt><trkpt lat="43.178175081278795" lon="12.255825743049517"><ele>390.59999999999997</ele><time>2026-03-29T10:07:13.999Z</time></trkpt><trkpt lat="43.17816682740436" lon="12.255970455006832"><ele>396.4</ele><time>2026-03-29T10:07:14.999Z</time></trkpt><trkpt lat="43.17815339065717" lon="12.256103029865933"><ele>402.2</ele><time>2026-03-29T10:07:15.999Z</time></trkpt><trkpt lat="43.17813079382054" lon="12.256249107087315"><ele>408.0</ele><time>2026-03-29T10:07:16.999Z</time></trkpt><trkpt lat="43.17809993422516" lon="12.256396154271512"><ele>406.5</ele><time>2026-03-29T10:07:17.999Z</time></trkpt><trkpt lat="43.17809104342108" lon="12.256509845914088"><ele>405.0</ele><time>2026-03-29T10:07:18.999Z</time></trkpt><trkpt lat="43.178099424581795" lon="12.256657948653375"><ele>403.5</ele><time>2026-03-29T10:07:20.999Z</time></trkpt><trkpt lat="43.17819230010891" lon="12.256659892380519"><ele>402.0</ele><time>2026-03-29T10:07:22.999Z</time></trkpt><trkpt lat="43.178443756099966" lon="12.256462828927278"><ele>399.40000000000003</ele><time>2026-03-29T10:07:24.999Z</time></trkpt><trkpt lat="43.17854419567791" lon="12.256445407033166"><ele>396.8</ele><time>2026-03-29T10:07:25.999Z</time></trkpt><trkpt lat="43.17863576393885" lon="12.256438044143648"><ele>394.2</ele><time>2026-03-29T10:07:26.999Z</time></trkpt><trkpt lat="43.178715302806744" lon="12.256413211994571"><ele>391.6</ele><time>2026-03-29T10:07:27.999Z</time></trkpt><trkpt lat="43.17880154592326" lon="12.25640229116722"><ele>389.0</ele><time>2026-03-29T10:07:28.999Z</time></trkpt><trkpt lat="43.17863376065982" lon="12.256392459369438"><ele>389.0</ele><time>2026-03-29T10:07:29.999Z</time></trkpt><trkpt lat="43.17872806218244" lon="12.256394812223125"><ele>389.0</ele><time>2026-03-29T10:07:31.999Z</time></trkpt><trkpt lat="43.178801988276085" lon="12.256522483455681"><ele>389.0</ele><time>2026-03-29T10:07:36.999Z</time></trkpt><trkpt lat="43.17874316283526" lon="12.256639488506178"><ele>389.0</ele><time>2026-03-29T10:07:37.999Z</time></trkpt><trkpt lat="43.17870909001698" lon="12.256725051745173"><ele>389.0</ele><time>2026-03-29T10:07:38.999Z</time></trkpt><trkpt lat="43.178657613912115" lon="12.256843019074676"><ele>391.6</ele><time>2026-03-29T10:07:39.999Z</time></trkpt><trkpt lat="43.17858303685231" lon="12.256975202810132"><ele>394.2</ele><time>2026-03-29T10:07:41.998Z</time></trkpt><trkpt lat="43.17852459521086" lon="12.257043365289748"><ele>396.8</ele><time>2026-03-29T10:07:42.998Z</time></trkpt><trkpt lat="43.17846800920603" lon="12.257119535657527"><ele>399.40000000000003</ele><time>2026-03-29T10:07:43.998Z</time></trkpt><trkpt lat="43.1784004124658" lon="12.25720993906513"><ele>402.0</ele><time>2026-03-29T10:07:44.998Z</time></trkpt><trkpt lat="43.17833284502115" lon="12.257302676300409"><ele>403.8</ele><time>2026-03-29T10:07:45.998Z</time></trkpt><trkpt lat="43.17828807045591" lon="12.257423568869182"><ele>405.6</ele><time>2026-03-29T10:07:46.998Z</time></trkpt><trkpt lat="43.17822139470885" lon="12.25749829786787"><ele>407.40000000000003</ele><time>2026-03-29T10:07:47.998Z</time></trkpt><trkpt lat="43.17812332705007" lon="12.257444520870873"><ele>409.20000000000005</ele><time>2026-03-29T10:07:48.998Z</time></trkpt><trkpt lat="43.178035135025695" lon="12.257475383649862"><ele>411.0</ele><time>2026-03-29T10:07:50.998Z</time></trkpt><trkpt lat="43.17800712957084" lon="12.257569232598867"><ele>412.5</ele><time>2026-03-29T10:07:56.998Z</time></trkpt><trkpt lat="43.17805701656106" lon="12.257685257605676"><ele>414.0</ele><time>2026-03-29T10:07:57.998Z</time></trkpt><trkpt lat="43.17796881856508" lon="12.257635673617399"><ele>415.5</ele><time>2026-03-29T10:07:58.998Z</time></trkpt><trkpt lat="43.17795735843496" lon="12.257758937383477"><ele>417.0</ele><time>2026-03-29T10:08:00.998Z</time></trkpt><trkpt lat="43.18062011193927" lon="12.260649628443199"><ele>417.0</ele><time>2026-03-29T10:09:01.999Z</time></trkpt><trkpt lat="43.18069910282282" lon="12.260729952578346"><ele>417.0</ele><time>2026-03-29T10:09:04.999Z</time></trkpt><trkpt lat="43.18063430946476" lon="12.26087551261567"><ele>417.0</ele><time>2026-03-29T10:09:06.999Z</time></trkpt><trkpt lat="43.18056875088157" lon="12.26098183922031"><ele>417.0</ele><time>2026-03-29T10:09:07.999Z</time></trkpt><trkpt lat="43.18047582455146" lon="12.261090209549524"><ele>417.0</ele><time>2026-03-29T10:09:08.999Z</time></trkpt><trkpt lat="43.18039777096183" lon="12.261169502186116"><ele>417.0</ele><time>2026-03-29T10:09:09.999Z</time></trkpt><trkpt lat="43.18029598825529" lon="12.26122398023087"><ele>417.0</ele><time>2026-03-29T10:09:10.999Z</time></trkpt><trkpt lat="43.180200843900714" lon="12.261268322523069"><ele>417.0</ele><time>2026-03-29T10:09:11.999Z</time></trkpt><trkpt lat="43.1800847288846" lon="12.261286531502394"><ele>417.0</ele><time>2026-03-29T10:09:12.999Z</time></trkpt><trkpt lat="43.17996972916658" lon="12.26129822662615"><ele>417.0</ele><time>2026-03-29T10:09:13.999Z</time></trkpt><trkpt lat="43.179872311897476" lon="12.261379614753253"><ele>422.25</ele><time>2026-03-29T10:09:14.999Z</time></trkpt><trkpt lat="43.17975314748275" lon="12.261502026481896"><ele>427.5</ele><time>2026-03-29T10:09:15.999Z</time></trkpt><trkpt lat="43.17962149088954" lon="12.261628398698319"><ele>432.75</ele><time>2026-03-29T10:09:16.999Z</time></trkpt><trkpt lat="43.1795038649886" lon="12.261707466545133"><ele>438.0</ele><time>2026-03-29T10:09:17.999Z</time></trkpt><trkpt lat="43.17939328978665" lon="12.261765965171113"><ele>438.0</ele><time>2026-03-29T10:09:18.999Z</time></trkpt><trkpt lat="43.17928254618433" lon="12.261834259289335"><ele>438.0</ele><time>2026-03-29T10:09:19.999Z</time></trkpt><trkpt lat="43.1791537856208" lon="12.261942334033199"><ele>438.0</ele><time>2026-03-29T10:09:20.999Z</time></trkpt><trkpt lat="43.178996483224076" lon="12.262059399439737"><ele>439.2</ele><time>2026-03-29T10:09:21.999Z</time></trkpt><trkpt lat="43.17890763815835" lon="12.262130732735251"><ele>440.4</ele><time>2026-03-29T10:09:22.999Z</time></trkpt><trkpt lat="43.178837205523976" lon="12.262193786011528"><ele>441.59999999999997</ele><time>2026-03-29T10:09:23.999Z</time></trkpt><trkpt lat="43.17877150871375" lon="12.262236786958804"><ele>442.79999999999995</ele><time>2026-03-29T10:09:24.999Z</time></trkpt><trkpt lat="43.178672918388045" lon="12.262242209259702"><ele>444.0</ele><time>2026-03-29T10:09:25.999Z</time></trkpt><trkpt lat="43.17857036495379" lon="12.26224271138274"><ele>444.0</ele><time>2026-03-29T10:09:26.999Z</time></trkpt><trkpt lat="43.17843872736176" lon="12.262230535801002"><ele>444.0</ele><time>2026-03-29T10:09:27.999Z</time></trkpt><trkpt lat="43.17827687267099" lon="12.262214108291897"><ele>444.0</ele><time>2026-03-29T10:09:28.999Z</time></trkpt><trkpt lat="43.17811374355858" lon="12.262187111211594"><ele>446.0</ele><time>2026-03-29T10:09:29.999Z</time></trkpt><trkpt lat="43.17796057131494" lon="12.262153402120553"><ele>448.0</ele><time>2026-03-29T10:09:30.999Z</time></trkpt><trkpt lat="43.177829483834" lon="12.262118009437593"><ele>450.0</ele><time>2026-03-29T10:09:31.999Z</time></trkpt><trkpt lat="43.17769679429198" lon="12.262053135582686"><ele>452.0</ele><time>2026-03-29T10:09:32.999Z</time></trkpt><trkpt lat="43.177564599624986" lon="12.261945292134675"><ele>452.0</ele><time>2026-03-29T10:09:33.999Z</time></trkpt><trkpt lat="43.177424721212404" lon="12.261828479124713"><ele>452.0</ele><time>2026-03-29T10:09:34.999Z</time></trkpt><trkpt lat="43.17728627484244" lon="12.261732685845095"><ele>452.0</ele><time>2026-03-29T10:09:35.999Z</time></trkpt><trkpt lat="43.1771424225188" lon="12.261670986859682"><ele>453.0</ele><time>2026-03-29T10:09:36.999Z</time></trkpt><trkpt lat="43.17699996911713" lon="12.26162777202873"><ele>454.0</ele><time>2026-03-29T10:09:37.999Z</time></trkpt><trkpt lat="43.176909205592324" lon="12.261606985007766"><ele>455.0</ele><time>2026-03-29T10:09:38.999Z</time></trkpt><trkpt lat="43.17684149838172" lon="12.261610212624877"><ele>456.0</ele><time>2026-03-29T10:09:42.999Z</time></trkpt><trkpt lat="43.17224710304375" lon="12.256709797639491"><ele>460.0</ele><time>2026-03-29T10:11:01.999Z</time></trkpt><trkpt lat="43.1721034084138" lon="12.25661260761377"><ele>464.0</ele><time>2026-03-29T10:11:02.999Z</time></trkpt><trkpt lat="43.17193356696893" lon="12.256536626401676"><ele>468.0</ele><time>2026-03-29T10:11:03.999Z</time></trkpt><trkpt lat="43.171768453464665" lon="12.25651416732312"><ele>468.0</ele><time>2026-03-29T10:11:04.999Z</time></trkpt><trkpt lat="43.17162808291258" lon="12.256496879349715"><ele>467.99999999999994</ele><time>2026-03-29T10:11:05.999Z</time></trkpt><trkpt lat="43.171523685699476" lon="12.256454678930526"><ele>467.99999999999994</ele><time>2026-03-29T10:11:06.999Z</time></trkpt><trkpt lat="43.17144249542938" lon="12.2564158261063"><ele>468.0</ele><time>2026-03-29T10:11:07.999Z</time></trkpt><trkpt lat="43.17138148974968" lon="12.256350206289508"><ele>468.0</ele><time>2026-03-29T10:11:08.999Z</time></trkpt><trkpt lat="43.17133482820435" lon="12.256268141990477"><ele>466.8333333333333</ele><time>2026-03-29T10:11:09.999Z</time></trkpt><trkpt lat="43.171298645053824" lon="12.256185356355548"><ele>465.66666666666663</ele><time>2026-03-29T10:11:10.999Z</time></trkpt><trkpt lat="43.171260986000284" lon="12.256103319164534"><ele>464.5</ele><time>2026-03-29T10:11:11.999Z</time></trkpt><trkpt lat="43.17122985377187" lon="12.256026936487217"><ele>463.3333333333333</ele><time>2026-03-29T10:11:12.999Z</time></trkpt><trkpt lat="43.171167184688855" lon="12.255875206311146"><ele>462.16666666666663</ele><time>2026-03-29T10:11:14.999Z</time></trkpt><trkpt lat="43.1711333546104" lon="12.255796253340812"><ele>461.0</ele><time>2026-03-29T10:11:15.999Z</time></trkpt><trkpt lat="43.171095814449146" lon="12.255712638964106"><ele>460.99999999999994</ele><time>2026-03-29T10:11:16.999Z</time></trkpt><trkpt lat="43.171055584304504" lon="12.255621884925798"><ele>461.0</ele><time>2026-03-29T10:11:17.999Z</time></trkpt><trkpt lat="43.17101195004781" lon="12.255517275641292"><ele>461.0</ele><time>2026-03-29T10:11:18.999Z</time></trkpt><trkpt lat="43.17096859317103" lon="12.255399196950936"><ele>461.0</ele><time>2026-03-29T10:11:19.999Z</time></trkpt><trkpt lat="43.17093363402077" lon="12.255279161943001"><ele>460.99999999999994</ele><time>2026-03-29T10:11:20.999Z</time></trkpt><trkpt lat="43.170921377488845" lon="12.25516247487879"><ele>461.0</ele><time>2026-03-29T10:11:21.999Z</time></trkpt><trkpt lat="43.17093191751103" lon="12.255044769988247"><ele>459.6</ele><time>2026-03-29T10:11:22.999Z</time></trkpt><trkpt lat="43.17096108082312" lon="12.254943377389177"><ele>458.20000000000005</ele><time>2026-03-29T10:11:23.999Z</time></trkpt><trkpt lat="43.170989410253874" lon="12.254859558018621"><ele>456.79999999999995</ele><time>2026-03-29T10:11:24.999Z</time></trkpt><trkpt lat="43.17105453739063" lon="12.254784481610098"><ele>455.4</ele><time>2026-03-29T10:11:26.999Z</time></trkpt><trkpt lat="43.17115817121539" lon="12.254776566023036"><ele>454.0</ele><time>2026-03-29T10:11:29.999Z</time></trkpt><trkpt lat="43.17131243083094" lon="12.254806138347005"><ele>454.0</ele><time>2026-03-29T10:11:31.999Z</time></trkpt><trkpt lat="43.17142969177338" lon="12.254795400906431"><ele>454.0</ele><time>2026-03-29T10:11:32.999Z</time></trkpt><trkpt lat="43.17152282563597" lon="12.2548107729317"><ele>454.0</ele><time>2026-03-29T10:11:33.999Z</time></trkpt><trkpt lat="43.17158543099632" lon="12.254852692944842"><ele>454.0</ele><time>2026-03-29T10:11:34.999Z</time></trkpt><trkpt lat="43.17169657985562" lon="12.254887212486908"><ele>454.0</ele><time>2026-03-29T10:11:36.999Z</time></trkpt><trkpt lat="43.17183047482845" lon="12.25490641546104"><ele>454.1666666666667</ele><time>2026-03-29T10:11:38.999Z</time></trkpt><trkpt lat="43.171897590683805" lon="12.254901493657757"><ele>454.33333333333337</ele><time>2026-03-29T10:11:39.999Z</time></trkpt><trkpt lat="43.17197962820421" lon="12.25483695779262"><ele>454.5</ele><time>2026-03-29T10:11:40.999Z</time></trkpt><trkpt lat="43.17205632986497" lon="12.254798313681041"><ele>454.66666666666663</ele><time>2026-03-29T10:11:41.999Z</time></trkpt><trkpt lat="43.17213641687993" lon="12.254763736326845"><ele>454.8333333333333</ele><time>2026-03-29T10:11:42.999Z</time></trkpt><trkpt lat="43.17222387348705" lon="12.254735973731702"><ele>455.0</ele><time>2026-03-29T10:11:43.999Z</time></trkpt><trkpt lat="43.17230951481266" lon="12.254692935940634"><ele>452.16666666666663</ele><time>2026-03-29T10:11:44.999Z</time></trkpt><trkpt lat="43.17237432862593" lon="12.254606539130911"><ele>449.3333333333333</ele><time>2026-03-29T10:11:45.999Z</time></trkpt><trkpt lat="43.172438136189726" lon="12.254510883351488"><ele>446.5</ele><time>2026-03-29T10:11:46.999Z</time></trkpt><trkpt lat="43.17251998550732" lon="12.25447084652764"><ele>443.66666666666663</ele><time>2026-03-29T10:11:47.999Z</time></trkpt><trkpt lat="43.17259501750828" lon="12.254413359808938"><ele>440.8333333333333</ele><time>2026-03-29T10:11:48.998Z</time></trkpt><trkpt lat="43.172685703019056" lon="12.254405233091939"><ele>438.0</ele><time>2026-03-29T10:11:49.998Z</time></trkpt><trkpt lat="43.1727566907426" lon="12.25435879926791"><ele>438.0</ele><time>2026-03-29T10:11:50.998Z</time></trkpt><trkpt lat="43.17280813413065" lon="12.254264286205768"><ele>438.0</ele><time>2026-03-29T10:11:51.998Z</time></trkpt><trkpt lat="43.17285090779557" lon="12.254174394369473"><ele>438.0</ele><time>2026-03-29T10:11:52.998Z</time></trkpt><trkpt lat="43.17289093391754" lon="12.254091177245337"><ele>438.0</ele><time>2026-03-29T10:11:53.998Z</time></trkpt><trkpt lat="43.17295638857175" lon="12.254037885905653"><ele>438.0</ele><time>2026-03-29T10:11:54.998Z</time></trkpt><trkpt lat="43.173057132454616" lon="12.254004667003045"><ele>438.0</ele><time>2026-03-29T10:11:55.998Z</time></trkpt><trkpt lat="43.173185203656146" lon="12.253953462499014"><ele>434.33333333333337</ele><time>2026-03-29T10:11:56.998Z</time></trkpt><trkpt lat="43.17330981484657" lon="12.25384831096221"><ele>430.6666666666667</ele><time>2026-03-29T10:11:57.998Z</time></trkpt><trkpt lat="43.173450387985156" lon="12.253726523961022"><ele>427.0</ele><time>2026-03-29T10:11:58.998Z</time></trkpt><trkpt lat="43.17358394513581" lon="12.253616912276351"><ele>427.0</ele><time>2026-03-29T10:11:59.998Z</time></trkpt><trkpt lat="43.173691788290064" lon="12.253526897904738"><ele>427.0</ele><time>2026-03-29T10:12:00.998Z</time></trkpt><trkpt lat="43.17620316988641" lon="12.250747792477252"><ele>418.1666666666667</ele><time>2026-03-29T10:13:01.999Z</time></trkpt><trkpt lat="43.1762714626539" lon="12.25075754486713"><ele>409.33333333333337</ele><time>2026-03-29T10:13:02.999Z</time></trkpt><trkpt lat="43.17634730144469" lon="12.250683797359397"><ele>400.5</ele><time>2026-03-29T10:13:04.999Z</time></trkpt><trkpt lat="43.17637213860842" lon="12.250591392006594"><ele>391.6666666666667</ele><time>2026-03-29T10:13:05.999Z</time></trkpt><trkpt lat="43.176370183723925" lon="12.250411973486482"><ele>382.83333333333337</ele><time>2026-03-29T10:13:07.999Z</time></trkpt><trkpt lat="43.176377981537634" lon="12.250318954002706"><ele>374.0</ele><time>2026-03-29T10:13:08.999Z</time></trkpt><trkpt lat="43.176405730191824" lon="12.250193178448157"><ele>370.2</ele><time>2026-03-29T10:13:09.999Z</time></trkpt><trkpt lat="43.176425445326394" lon="12.250050970050687"><ele>366.4</ele><time>2026-03-29T10:13:10.999Z</time></trkpt><trkpt lat="43.17645030837274" lon="12.249934476607741"><ele>362.6</ele><time>2026-03-29T10:13:11.999Z</time></trkpt><trkpt lat="43.176481946254036" lon="12.249785494909501"><ele>358.8</ele><time>2026-03-29T10:13:13.999Z</time></trkpt><trkpt lat="43.17645382934097" lon="12.249656432195438"><ele>355.0</ele><time>2026-03-29T10:13:15.999Z</time></trkpt><trkpt lat="43.176455304780035" lon="12.249532335539792"><ele>352.0</ele><time>2026-03-29T10:13:16.999Z</time></trkpt><trkpt lat="43.17645408782764" lon="12.24941958345988"><ele>349.0</ele><time>2026-03-29T10:13:17.999Z</time></trkpt><trkpt lat="43.17644488601591" lon="12.249280375234266"><ele>346.0</ele><time>2026-03-29T10:13:19.999Z</time></trkpt><trkpt lat="43.17642802584691" lon="12.249167604375726"><ele>343.0</ele><time>2026-03-29T10:13:21.999Z</time></trkpt><trkpt lat="43.17642841896494" lon="12.249075979482305"><ele>340.0</ele><time>2026-03-29T10:13:22.999Z</time></trkpt><trkpt lat="43.176447415946264" lon="12.248947527165504"><ele>337.0</ele><time>2026-03-29T10:13:23.999Z</time></trkpt><trkpt lat="43.17646529950281" lon="12.248808393469526"><ele>335.66666666666663</ele><time>2026-03-29T10:13:24.999Z</time></trkpt><trkpt lat="43.17647067719073" lon="12.24868777422243"><ele>334.3333333333333</ele><time>2026-03-29T10:13:25.999Z</time></trkpt><trkpt lat="43.17646860239331" lon="12.248592279520297"><ele>333.0</ele><time>2026-03-29T10:13:26.999Z</time></trkpt><trkpt lat="43.17646680120937" lon="12.248482183256142"><ele>331.6666666666667</ele><time>2026-03-29T10:13:27.999Z</time></trkpt><trkpt lat="43.17647025330024" lon="12.248367881347344"><ele>330.33333333333337</ele><time>2026-03-29T10:13:28.999Z</time></trkpt><trkpt lat="43.17647808454583" lon="12.248281246981714"><ele>329.0</ele><time>2026-03-29T10:13:29.999Z</time></trkpt><trkpt lat="43.17646982318179" lon="12.248183301268536"><ele>327.5</ele><time>2026-03-29T10:13:30.999Z</time></trkpt><trkpt lat="43.17646089674197" lon="12.248072473451476"><ele>326.0</ele><time>2026-03-29T10:13:31.999Z</time></trkpt><trkpt lat="43.17645537638174" lon="12.247958467463615"><ele>324.5</ele><time>2026-03-29T10:13:32.999Z</time></trkpt><trkpt lat="43.1764580877828" lon="12.24784343100504"><ele>323.0</ele><time>2026-03-29T10:13:33.999Z</time></trkpt><trkpt lat="43.17645127507363" lon="12.247750512165108"><ele>321.5</ele><time>2026-03-29T10:13:34.999Z</time></trkpt><trkpt lat="43.17642120779047" lon="12.247575168577578"><ele>320.0</ele><time>2026-03-29T10:13:36.999Z</time></trkpt><trkpt lat="43.176451233308434" lon="12.247460813794406"><ele>320.2</ele><time>2026-03-29T10:13:38.999Z</time></trkpt><trkpt lat="43.176526146471076" lon="12.247382705906384"><ele>320.4</ele><time>2026-03-29T10:13:40.999Z</time></trkpt><trkpt lat="43.17657032209225" lon="12.247261339802996"><ele>320.6</ele><time>2026-03-29T10:13:44.999Z</time></trkpt><trkpt lat="43.17651590916295" lon="12.247185194030774"><ele>320.8</ele><time>2026-03-29T10:13:47.999Z</time></trkpt><trkpt lat="43.17644358459805" lon="12.247196282920033"><ele>321.0</ele><time>2026-03-29T10:13:50.999Z</time></trkpt><trkpt lat="43.17647631758221" lon="12.246925889156252"><ele>320.8</ele><time>2026-03-29T10:13:51.998Z</time></trkpt><trkpt lat="43.17642329718043" lon="12.246985585942733"><ele>320.6</ele><time>2026-03-29T10:13:52.998Z</time></trkpt><trkpt lat="43.17635493673737" lon="12.247089916501375"><ele>320.4</ele><time>2026-03-29T10:13:54.998Z</time></trkpt><trkpt lat="43.17629313554438" lon="12.24719502697262"><ele>320.2</ele><time>2026-03-29T10:13:55.998Z</time></trkpt><trkpt lat="43.17625393826952" lon="12.247351827223996"><ele>320.0</ele><time>2026-03-29T10:13:56.998Z</time></trkpt><trkpt lat="43.17619824628898" lon="12.247486526333404"><ele>320.0</ele><time>2026-03-29T10:13:57.998Z</time></trkpt><trkpt lat="43.17613560541444" lon="12.247618615832815"><ele>320.0</ele><time>2026-03-29T10:13:58.998Z</time></trkpt><trkpt lat="43.17607764642886" lon="12.247747251811418"><ele>320.0</ele><time>2026-03-29T10:13:59.998Z</time></trkpt><trkpt lat="43.17602868514765" lon="12.247859935721602"><ele>320.0</ele><time>2026-03-29T10:14:00.998Z</time></trkpt><trkpt lat="43.17624207913868" lon="12.243005139425652"><ele>311.75</ele><time>2026-03-29T10:15:01.999Z</time></trkpt><trkpt lat="43.176195268831066" lon="12.24288183782"><ele>303.5</ele><time>2026-03-29T10:15:02.999Z</time></trkpt><trkpt lat="43.176204654291446" lon="12.242724381412154"><ele>295.25</ele><time>2026-03-29T10:15:03.999Z</time></trkpt><trkpt lat="43.17620785932173" lon="12.242545983882653"><ele>287.0</ele><time>2026-03-29T10:15:04.999Z</time></trkpt><trkpt lat="43.17616975896695" lon="12.242358165880821"><ele>286.6666666666667</ele><time>2026-03-29T10:15:05.999Z</time></trkpt><trkpt lat="43.17610501687325" lon="12.242158544214597"><ele>286.3333333333333</ele><time>2026-03-29T10:15:06.999Z</time></trkpt><trkpt lat="43.17600813201415" lon="12.241928663490562"><ele>286.0</ele><time>2026-03-29T10:15:07.999Z</time></trkpt><trkpt lat="43.175908888492025" lon="12.241660544070355"><ele>285.0</ele><time>2026-03-29T10:15:08.999Z</time></trkpt><trkpt lat="43.17582005847343" lon="12.24135980578454"><ele>284.0</ele><time>2026-03-29T10:15:09.999Z</time></trkpt><trkpt lat="43.175722366191934" lon="12.241021215060421"><ele>284.0</ele><time>2026-03-29T10:15:10.999Z</time></trkpt><trkpt lat="43.175620317784315" lon="12.240683508401103"><ele>284.0</ele><time>2026-03-29T10:15:11.999Z</time></trkpt><trkpt lat="43.17551970559434" lon="12.240312696948987"><ele>284.0</ele><time>2026-03-29T10:15:12.999Z</time></trkpt><trkpt lat="43.17543718294428" lon="12.239934247683639"><ele>284.0</ele><time>2026-03-29T10:15:13.999Z</time></trkpt><trkpt lat="43.17541186508613" lon="12.239584863130764"><ele>283.5</ele><time>2026-03-29T10:15:14.999Z</time></trkpt><trkpt lat="43.1753539169919" lon="12.239231206435822"><ele>283.0</ele><time>2026-03-29T10:15:15.999Z</time></trkpt><trkpt lat="43.17525367926507" lon="12.238884978915436"><ele>282.5</ele><time>2026-03-29T10:15:16.999Z</time></trkpt><trkpt lat="43.17516657859417" lon="12.238550630054"><ele>282.0</ele><time>2026-03-29T10:15:17.999Z</time></trkpt><trkpt lat="43.17509382763902" lon="12.238264542012244"><ele>283.3333333333333</ele><time>2026-03-29T10:15:18.999Z</time></trkpt><trkpt lat="43.17505170429841" lon="12.238027705295247"><ele>284.66666666666663</ele><time>2026-03-29T10:15:19.999Z</time></trkpt><trkpt lat="43.17502251573888" lon="12.237758883093996"><ele>286.0</ele><time>2026-03-29T10:15:20.999Z</time></trkpt><trkpt lat="43.174997572030726" lon="12.23748801864109"><ele>287.66666666666663</ele><time>2026-03-29T10:15:21.999Z</time></trkpt><trkpt lat="43.17495471877535" lon="12.237236328581801"><ele>289.3333333333333</ele><time>2026-03-29T10:15:22.999Z</time></trkpt><trkpt lat="43.17487538364368" lon="12.237008314758459"><ele>291.0</ele><time>2026-03-29T10:15:23.999Z</time></trkpt><trkpt lat="43.17476876712168" lon="12.236775601732486"><ele>289.0</ele><time>2026-03-29T10:15:24.999Z</time></trkpt><trkpt lat="43.174636238069" lon="12.236554807431997"><ele>287.0</ele><time>2026-03-29T10:15:25.999Z</time></trkpt><trkpt lat="43.174491891093865" lon="12.236343810466126"><ele>285.0</ele><time>2026-03-29T10:15:26.999Z</time></trkpt><trkpt lat="43.17434041513332" lon="12.236138780290183"><ele>285.0</ele><time>2026-03-29T10:15:27.999Z</time></trkpt><trkpt lat="43.17419566966313" lon="12.235909871949538"><ele>285.0</ele><time>2026-03-29T10:15:28.999Z</time></trkpt><trkpt lat="43.174063777736656" lon="12.235670891400614"><ele>285.0</ele><time>2026-03-29T10:15:29.999Z</time></trkpt><trkpt lat="43.173926410314195" lon="12.235426397255642"><ele>281.0</ele><time>2026-03-29T10:15:30.999Z</time></trkpt><trkpt lat="43.17378713993981" lon="12.23517783769117"><ele>277.0</ele><time>2026-03-29T10:15:31.999Z</time></trkpt><trkpt lat="43.173649426413" lon="12.234926335374183"><ele>278.0</ele><time>2026-03-29T10:15:32.999Z</time></trkpt><trkpt lat="43.17352493237545" lon="12.234691446455795"><ele>279.0</ele><time>2026-03-29T10:15:33.999Z</time></trkpt><trkpt lat="43.173412746572744" lon="12.234472029874924"><ele>280.0</ele><time>2026-03-29T10:15:34.999Z</time></trkpt><trkpt lat="43.17330674763259" lon="12.23424508524695"><ele>280.0</ele><time>2026-03-29T10:15:35.999Z</time></trkpt><trkpt lat="43.17319734738115" lon="12.233991846712867"><ele>280.0</ele><time>2026-03-29T10:15:36.999Z</time></trkpt><trkpt lat="43.17309468368208" lon="12.233746784352366"><ele>280.0</ele><time>2026-03-29T10:15:37.999Z</time></trkpt><trkpt lat="43.17299727257565" lon="12.23352789900031"><ele>281.0</ele><time>2026-03-29T10:15:38.999Z</time></trkpt><trkpt lat="43.17288247939806" lon="12.233346915430452"><ele>282.0</ele><time>2026-03-29T10:15:39.999Z</time></trkpt><trkpt lat="43.172738272218986" lon="12.233185554183647"><ele>283.0</ele><time>2026-03-29T10:15:40.999Z</time></trkpt><trkpt lat="43.17257778039183" lon="12.233029993692874"><ele>283.0</ele><time>2026-03-29T10:15:41.999Z</time></trkpt><trkpt lat="43.172407034615524" lon="12.23286866372912"><ele>283.0</ele><time>2026-03-29T10:15:42.999Z</time></trkpt><trkpt lat="43.17227308670675" lon="12.232678582059915"><ele>283.0</ele><time>2026-03-29T10:15:43.999Z</time></trkpt><trkpt lat="43.17213604672055" lon="12.232494051230331"><ele>282.3333333333333</ele><time>2026-03-29T10:15:44.999Z</time></trkpt><trkpt lat="43.17202531408295" lon="12.232260757485808"><ele>281.6666666666667</ele><time>2026-03-29T10:15:45.999Z</time></trkpt><trkpt lat="43.171891068979065" lon="12.232022842020529"><ele>281.0</ele><time>2026-03-29T10:15:46.999Z</time></trkpt><trkpt lat="43.17174704982035" lon="12.231772180457824"><ele>281.0</ele><time>2026-03-29T10:15:47.999Z</time></trkpt><trkpt lat="43.17159364665559" lon="12.231524664830662"><ele>281.0</ele><time>2026-03-29T10:15:48.999Z</time></trkpt><trkpt lat="43.1714751605918" lon="12.231241293816087"><ele>279.6666666666667</ele><time>2026-03-29T10:15:49.999Z</time></trkpt><trkpt lat="43.17134686944624" lon="12.231010351834918"><ele>278.3333333333333</ele><time>2026-03-29T10:15:50.999Z</time></trkpt><trkpt lat="43.171238128262694" lon="12.230788644689332"><ele>277.0</ele><time>2026-03-29T10:15:51.999Z</time></trkpt><trkpt lat="43.17113622516063" lon="12.230608176034332"><ele>277.0</ele><time>2026-03-29T10:15:52.999Z</time></trkpt><trkpt lat="43.171036431994274" lon="12.230468498021505"><ele>277.0</ele><time>2026-03-29T10:15:53.999Z</time></trkpt><trkpt lat="43.170935656184454" lon="12.230344036386489"><ele>277.0</ele><time>2026-03-29T10:15:54.999Z</time></trkpt><trkpt lat="43.17083468060844" lon="12.23021943262768"><ele>277.0</ele><time>2026-03-29T10:15:55.998Z</time></trkpt><trkpt lat="43.170754432524916" lon="12.230076433804031"><ele>275.5</ele><time>2026-03-29T10:15:56.998Z</time></trkpt><trkpt lat="43.1706674708897" lon="12.22993378171611"><ele>274.0</ele><time>2026-03-29T10:15:57.998Z</time></trkpt><trkpt lat="43.170563886264794" lon="12.22980602655695"><ele>272.5</ele><time>2026-03-29T10:15:58.998Z</time></trkpt><trkpt lat="43.17047697043657" lon="12.229671922895523"><ele>271.0</ele><time>2026-03-29T10:15:59.998Z</time></trkpt><trkpt lat="43.17041680545821" lon="12.229539679060698"><ele>255.0</ele><time>2026-03-29T10:16:00.998Z</time></trkpt><trkpt lat="43.1634316506399" lon="12.221868909414578"><ele>255.0</ele><time>2026-03-29T10:17:01.999Z</time></trkpt><trkpt lat="43.16335412633534" lon="12.221755192985587"><ele>255.0</ele><time>2026-03-29T10:17:02.999Z</time></trkpt><trkpt lat="43.1633034918735" lon="12.221672576685203"><ele>255.0</ele><time>2026-03-29T10:17:03.999Z</time></trkpt><trkpt lat="43.16325631264603" lon="12.221572687173722"><ele>255.0</ele><time>2026-03-29T10:17:05.999Z</time></trkpt><trkpt lat="43.16333076427314" lon="12.222022053300597"><ele>255.0</ele><time>2026-03-29T10:17:10.999Z</time></trkpt><trkpt lat="43.163331643150684" lon="12.221775042880337"><ele>255.0</ele><time>2026-03-29T10:17:11.999Z</time></trkpt><trkpt lat="43.16342430927867" lon="12.22189544498356"><ele>255.0</ele><time>2026-03-29T10:17:12.999Z</time></trkpt><trkpt lat="43.1634951086945" lon="12.221978281673124"><ele>255.0</ele><time>2026-03-29T10:17:13.999Z</time></trkpt><trkpt lat="43.163552098670756" lon="12.222016271562875"><ele>255.0</ele><time>2026-03-29T10:17:14.999Z</time></trkpt><trkpt lat="43.163681658207544" lon="12.221970740547581"><ele>255.0</ele><time>2026-03-29T10:17:16.999Z</time></trkpt><trkpt lat="43.1637648616424" lon="12.221899120994152"><ele>255.0</ele><time>2026-03-29T10:17:17.999Z</time></trkpt><trkpt lat="43.163877235687146" lon="12.221790770302663"><ele>255.0</ele><time>2026-03-29T10:17:18.999Z</time></trkpt><trkpt lat="43.164030060328535" lon="12.2216634541934"><ele>255.66666666666669</ele><time>2026-03-29T10:17:19.999Z</time></trkpt><trkpt lat="43.16418888979199" lon="12.221534850750896"><ele>256.33333333333337</ele><time>2026-03-29T10:17:20.999Z</time></trkpt><trkpt lat="43.164329687521" lon="12.221419132054303"><ele>257.0</ele><time>2026-03-29T10:17:21.999Z</time></trkpt><trkpt lat="43.16443174403295" lon="12.22133567337394"><ele>257.0</ele><time>2026-03-29T10:17:22.999Z</time></trkpt><trkpt lat="43.164519304007044" lon="12.22126890593522"><ele>257.0</ele><time>2026-03-29T10:17:23.999Z</time></trkpt><trkpt lat="43.16459461882069" lon="12.221206715108034"><ele>257.0</ele><time>2026-03-29T10:17:24.999Z</time></trkpt><trkpt lat="43.16468997363649" lon="12.22112838160669"><ele>257.0</ele><time>2026-03-29T10:17:25.999Z</time></trkpt><trkpt lat="43.16481697621612" lon="12.221021376801309"><ele>257.0</ele><time>2026-03-29T10:17:26.999Z</time></trkpt><trkpt lat="43.164946480680946" lon="12.220918088587714"><ele>257.33333333333337</ele><time>2026-03-29T10:17:27.999Z</time></trkpt><trkpt lat="43.16508011681627" lon="12.22082983373198"><ele>257.6666666666667</ele><time>2026-03-29T10:17:28.999Z</time></trkpt><trkpt lat="43.16522423071972" lon="12.220753899593925"><ele>258.0</ele><time>2026-03-29T10:17:29.999Z</time></trkpt><trkpt lat="43.16536884552999" lon="12.220671209277466"><ele>258.25</ele><time>2026-03-29T10:17:30.999Z</time></trkpt><trkpt lat="43.16550460111755" lon="12.220603462556742"><ele>258.5</ele><time>2026-03-29T10:17:31.999Z</time></trkpt><trkpt lat="43.16563727651815" lon="12.220541259111846"><ele>258.75</ele><time>2026-03-29T10:17:32.999Z</time></trkpt><trkpt lat="43.16578053652328" lon="12.220468679995731"><ele>259.0</ele><time>2026-03-29T10:17:33.999Z</time></trkpt><trkpt lat="43.16591520084915" lon="12.220393749866835"><ele>259.0</ele><time>2026-03-29T10:17:34.999Z</time></trkpt><trkpt lat="43.16605051360789" lon="12.220316726356401"><ele>259.0</ele><time>2026-03-29T10:17:35.999Z</time></trkpt><trkpt lat="43.16620899886182" lon="12.220225478449787"><ele>259.0</ele><time>2026-03-29T10:17:36.999Z</time></trkpt><trkpt lat="43.16638740324321" lon="12.22012709271127"><ele>259.5</ele><time>2026-03-29T10:17:37.999Z</time></trkpt><trkpt lat="43.16658544705856" lon="12.220021745958173"><ele>260.0</ele><time>2026-03-29T10:17:38.999Z</time></trkpt><trkpt lat="43.166807766440556" lon="12.219900203683052"><ele>260.0</ele><time>2026-03-29T10:17:39.999Z</time></trkpt><trkpt lat="43.16703996751884" lon="12.219772202997946"><ele>260.0</ele><time>2026-03-29T10:17:40.999Z</time></trkpt><trkpt lat="43.16729376801268" lon="12.219635163319392"><ele>260.5</ele><time>2026-03-29T10:17:41.999Z</time></trkpt><trkpt lat="43.16754691045904" lon="12.219495826456548"><ele>261.0</ele><time>2026-03-29T10:17:42.999Z</time></trkpt><trkpt lat="43.167810329243196" lon="12.219354315644354"><ele>261.0</ele><time>2026-03-29T10:17:43.999Z</time></trkpt><trkpt lat="43.168082393230264" lon="12.219209309223217"><ele>261.0</ele><time>2026-03-29T10:17:44.999Z</time></trkpt><trkpt lat="43.16835555831715" lon="12.219061947098098"><ele>262.0</ele><time>2026-03-29T10:17:45.999Z</time></trkpt><trkpt lat="43.16863112156745" lon="12.218911888822381"><ele>263.0</ele><time>2026-03-29T10:17:46.999Z</time></trkpt><trkpt lat="43.16889085933777" lon="12.218775119438277"><ele>265.0</ele><time>2026-03-29T10:17:47.999Z</time></trkpt><trkpt lat="43.16911436653712" lon="12.218648809423243"><ele>267.0</ele><time>2026-03-29T10:17:48.999Z</time></trkpt><trkpt lat="43.16931443593273" lon="12.21854159647943"><ele>267.0</ele><time>2026-03-29T10:17:49.999Z</time></trkpt><trkpt lat="43.16948757489466" lon="12.218442152881986"><ele>267.0</ele><time>2026-03-29T10:17:50.999Z</time></trkpt><trkpt lat="43.16962465305468" lon="12.218363142095379"><ele>267.0</ele><time>2026-03-29T10:17:51.999Z</time></trkpt><trkpt lat="43.16974199600007" lon="12.218302104561912"><ele>267.0</ele><time>2026-03-29T10:17:52.999Z</time></trkpt><trkpt lat="43.16984487651745" lon="12.21831470491728"><ele>267.0</ele><time>2026-03-29T10:17:53.999Z</time></trkpt><trkpt lat="43.16992231073407" lon="12.218276016131599"><ele>267.0</ele><time>2026-03-29T10:17:55.999Z</time></trkpt><trkpt lat="43.169974545326674" lon="12.21822735905732"><ele>267.0</ele><time>2026-03-29T10:17:59.998Z</time></trkpt><trkpt lat="43.172962427731356" lon="12.214671641356459"><ele>270.25</ele><time>2026-03-29T10:19:01.999Z</time></trkpt><trkpt lat="43.17286627596489" lon="12.214555464780096"><ele>273.5</ele><time>2026-03-29T10:19:02.999Z</time></trkpt><trkpt lat="43.172771358541205" lon="12.214464738171802"><ele>276.75</ele><time>2026-03-29T10:19:03.999Z</time></trkpt><trkpt lat="43.1726878757371" lon="12.214359463758132"><ele>280.0</ele><time>2026-03-29T10:19:04.999Z</time></trkpt><trkpt lat="43.17261030650252" lon="12.214225532329673"><ele>280.0</ele><time>2026-03-29T10:19:05.999Z</time></trkpt><trkpt lat="43.172598736590245" lon="12.214047066237297"><ele>280.0</ele><time>2026-03-29T10:19:06.999Z</time></trkpt><trkpt lat="43.17259738642466" lon="12.213875302351031"><ele>280.0</ele><time>2026-03-29T10:19:07.999Z</time></trkpt><trkpt lat="43.17261715495521" lon="12.213714643020372"><ele>280.0</ele><time>2026-03-29T10:19:08.999Z</time></trkpt><trkpt lat="43.172697923861136" lon="12.213573872938607"><ele>279.3333333333333</ele><time>2026-03-29T10:19:09.999Z</time></trkpt><trkpt lat="43.17277808654603" lon="12.213409419939598"><ele>278.6666666666667</ele><time>2026-03-29T10:19:10.999Z</time></trkpt><trkpt lat="43.172896412636426" lon="12.21322801307539"><ele>278.0</ele><time>2026-03-29T10:19:11.999Z</time></trkpt><trkpt lat="43.173033084975295" lon="12.212999387665949"><ele>278.0</ele><time>2026-03-29T10:19:12.999Z</time></trkpt><trkpt lat="43.17316218111691" lon="12.212731518359487"><ele>278.0</ele><time>2026-03-29T10:19:13.999Z</time></trkpt><trkpt lat="43.17327308490897" lon="12.212439456266212"><ele>278.0</ele><time>2026-03-29T10:19:14.999Z</time></trkpt><trkpt lat="43.17336645397727" lon="12.212186713556317"><ele>278.0</ele><time>2026-03-29T10:19:16Z</time></trkpt><trkpt lat="43.17344819378544" lon="12.211966324196466"><ele>278.0</ele><time>2026-03-29T10:19:17Z</time></trkpt><trkpt lat="43.17351033846597" lon="12.211786503119749"><ele>278.0</ele><time>2026-03-29T10:19:18Z</time></trkpt><trkpt lat="43.173543534703555" lon="12.211624785752258"><ele>278.0</ele><time>2026-03-29T10:19:19Z</time></trkpt><trkpt lat="43.17355141896503" lon="12.21146374525971"><ele>278.0</ele><time>2026-03-29T10:19:20Z</time></trkpt><trkpt lat="43.173578570960416" lon="12.211310388366995"><ele>278.0</ele><time>2026-03-29T10:19:21Z</time></trkpt><trkpt lat="43.1736464559688" lon="12.211172429275116"><ele>277.75</ele><time>2026-03-29T10:19:22Z</time></trkpt><trkpt lat="43.17374198879604" lon="12.211054221255639"><ele>277.5</ele><time>2026-03-29T10:19:23Z</time></trkpt><trkpt lat="43.17386299161209" lon="12.210966224123194"><ele>277.25</ele><time>2026-03-29T10:19:24Z</time></trkpt><trkpt lat="43.17399908325904" lon="12.210905419215498"><ele>277.0</ele><time>2026-03-29T10:19:25Z</time></trkpt><trkpt lat="43.17413444373627" lon="12.210850294621853"><ele>277.75</ele><time>2026-03-29T10:19:26Z</time></trkpt><trkpt lat="43.17425432813672" lon="12.210772555446457"><ele>278.5</ele><time>2026-03-29T10:19:27Z</time></trkpt><trkpt lat="43.174343356925945" lon="12.21063574252703"><ele>279.25</ele><time>2026-03-29T10:19:28Z</time></trkpt><trkpt lat="43.174452473523395" lon="12.210505096999341"><ele>280.0</ele><time>2026-03-29T10:19:29Z</time></trkpt><trkpt lat="43.1745565696708" lon="12.21036663023001"><ele>280.0</ele><time>2026-03-29T10:19:30Z</time></trkpt><trkpt lat="43.174685254337284" lon="12.210296016798951"><ele>280.0</ele><time>2026-03-29T10:19:31Z</time></trkpt><trkpt lat="43.17481516964002" lon="12.210247330015699"><ele>280.0</ele><time>2026-03-29T10:19:32Z</time></trkpt><trkpt lat="43.174925369208154" lon="12.210188539626957"><ele>280.0</ele><time>2026-03-29T10:19:33Z</time></trkpt><trkpt lat="43.1750232712564" lon="12.210156690013957"><ele>280.66666666666663</ele><time>2026-03-29T10:19:34Z</time></trkpt><trkpt lat="43.17508322312476" lon="12.210115428360627"><ele>281.3333333333333</ele><time>2026-03-29T10:19:35Z</time></trkpt><trkpt lat="43.175151728786574" lon="12.20998702718198"><ele>282.0</ele><time>2026-03-29T10:19:37Z</time></trkpt><trkpt lat="43.1751731035759" lon="12.209890212828014"><ele>282.6666666666667</ele><time>2026-03-29T10:19:38Z</time></trkpt><trkpt lat="43.175228425303395" lon="12.20980398707719"><ele>283.33333333333337</ele><time>2026-03-29T10:19:39Z</time></trkpt><trkpt lat="43.1752782975491" lon="12.20969718367871"><ele>284.0</ele><time>2026-03-29T10:19:40Z</time></trkpt><trkpt lat="43.17511665151392" lon="12.209391603810118"><ele>284.0</ele><time>2026-03-29T10:19:41Z</time></trkpt><trkpt lat="43.175071467719434" lon="12.209168543150973"><ele>284.0</ele><time>2026-03-29T10:19:42Z</time></trkpt><trkpt lat="43.17504801423044" lon="12.208964778877645"><ele>284.0</ele><time>2026-03-29T10:19:43Z</time></trkpt><trkpt lat="43.17503787863326" lon="12.208819611013835"><ele>284.0</ele><time>2026-03-29T10:19:44Z</time></trkpt><trkpt lat="43.17505806604073" lon="12.208696847779274"><ele>286.0</ele><time>2026-03-29T10:19:45Z</time></trkpt><trkpt lat="43.17508414765726" lon="12.20858148263335"><ele>288.0</ele><time>2026-03-29T10:19:46Z</time></trkpt><trkpt lat="43.17512261209217" lon="12.208499279831113"><ele>290.0</ele><time>2026-03-29T10:19:47Z</time></trkpt><trkpt lat="43.175183412062665" lon="12.208422210425597"><ele>292.0</ele><time>2026-03-29T10:19:48Z</time></trkpt><trkpt lat="43.17543462810082" lon="12.20841838479174"><ele>292.0</ele><time>2026-03-29T10:19:50Z</time></trkpt><trkpt lat="43.17556549791081" lon="12.208318296895193"><ele>292.0</ele><time>2026-03-29T10:19:52Z</time></trkpt><trkpt lat="43.17566786855593" lon="12.20824184857885"><ele>292.0</ele><time>2026-03-29T10:19:53Z</time></trkpt><trkpt lat="43.17575757267241" lon="12.208173348129291"><ele>292.0</ele><time>2026-03-29T10:19:54Z</time></trkpt><trkpt lat="43.175830079470586" lon="12.208124584292431"><ele>298.0</ele><time>2026-03-29T10:19:56Z</time></trkpt><trkpt lat="43.175607467683534" lon="12.207705662113106"><ele>304.0</ele><time>2026-03-29T10:19:57Z</time></trkpt><trkpt lat="43.17553708261612" lon="12.207669498010986"><ele>304.0</ele><time>2026-03-29T10:19:58Z</time></trkpt><trkpt lat="43.175461046634744" lon="12.207640366271061"><ele>304.0</ele><time>2026-03-29T10:19:59Z</time></trkpt><trkpt lat="43.17405868041049" lon="12.207668356938957"><ele>309.6</ele><time>2026-03-29T10:21:02Z</time></trkpt><trkpt lat="43.17397526348709" lon="12.207744409603402"><ele>315.2</ele><time>2026-03-29T10:21:03Z</time></trkpt><trkpt lat="43.17387490607081" lon="12.207820430828379"><ele>320.8</ele><time>2026-03-29T10:21:04Z</time></trkpt><trkpt lat="43.173782216095894" lon="12.207916295333062"><ele>326.40000000000003</ele><time>2026-03-29T10:21:05Z</time></trkpt><trkpt lat="43.17368982545397" lon="12.207997008633342"><ele>332.0</ele><time>2026-03-29T10:21:06Z</time></trkpt><trkpt lat="43.17357207708988" lon="12.208056577994457"><ele>332.0</ele><time>2026-03-29T10:21:07Z</time></trkpt><trkpt lat="43.173438224661936" lon="12.208114566979242"><ele>332.0</ele><time>2026-03-29T10:21:08Z</time></trkpt><trkpt lat="43.17329337477711" lon="12.208175660625711"><ele>332.0</ele><time>2026-03-29T10:21:09Z</time></trkpt><trkpt lat="43.17316631587698" lon="12.208234354203443"><ele>332.0</ele><time>2026-03-29T10:21:10Z</time></trkpt><trkpt lat="43.173036567874824" lon="12.208296614368336"><ele>329.0</ele><time>2026-03-29T10:21:11Z</time></trkpt><trkpt lat="43.172905459234535" lon="12.208372141603352"><ele>326.0</ele><time>2026-03-29T10:21:12Z</time></trkpt><trkpt lat="43.17279616483033" lon="12.208431275343152"><ele>323.0</ele><time>2026-03-29T10:21:13Z</time></trkpt><trkpt lat="43.172729487258835" lon="12.208466893747724"><ele>320.0</ele><time>2026-03-29T10:21:14Z</time></trkpt><trkpt lat="43.17262994611199" lon="12.208509160888354"><ele>317.0</ele><time>2026-03-29T10:21:16Z</time></trkpt><trkpt lat="43.17253464152156" lon="12.20855100793589"><ele>317.0</ele><time>2026-03-29T10:21:17Z</time></trkpt><trkpt lat="43.17245849441177" lon="12.208553775384878"><ele>317.0</ele><time>2026-03-29T10:21:18Z</time></trkpt><trkpt lat="43.17239267063944" lon="12.20851601953781"><ele>317.0</ele><time>2026-03-29T10:21:19Z</time></trkpt><trkpt lat="43.172280721121226" lon="12.208488801352535"><ele>317.0</ele><time>2026-03-29T10:21:21Z</time></trkpt><trkpt lat="43.17216772394442" lon="12.208572853052159"><ele>317.0</ele><time>2026-03-29T10:21:23Z</time></trkpt><trkpt lat="43.17209886957517" lon="12.208612918391593"><ele>318.1666666666667</ele><time>2026-03-29T10:21:24Z</time></trkpt><trkpt lat="43.17203369645778" lon="12.208605661661538"><ele>319.33333333333337</ele><time>2026-03-29T10:21:25Z</time></trkpt><trkpt lat="43.17193011246027" lon="12.208548896650521"><ele>320.5</ele><time>2026-03-29T10:21:27Z</time></trkpt><trkpt lat="43.17184262691724" lon="12.208563022452628"><ele>321.6666666666667</ele><time>2026-03-29T10:21:29Z</time></trkpt><trkpt lat="43.171804854368446" lon="12.20864796203111"><ele>322.8333333333333</ele><time>2026-03-29T10:21:31Z</time></trkpt><trkpt lat="43.17173690964414" lon="12.208548354584806"><ele>324.0</ele><time>2026-03-29T10:21:34Z</time></trkpt><trkpt lat="43.171663489380926" lon="12.208445065543625"><ele>324.0</ele><time>2026-03-29T10:21:36Z</time></trkpt><trkpt lat="43.17159457203958" lon="12.208436412767611"><ele>324.0</ele><time>2026-03-29T10:21:37Z</time></trkpt><trkpt lat="43.17152996838002" lon="12.208388011298993"><ele>324.0</ele><time>2026-03-29T10:21:38Z</time></trkpt><trkpt lat="43.171463876422465" lon="12.208345561593708"><ele>324.0</ele><time>2026-03-29T10:21:39Z</time></trkpt><trkpt lat="43.17137999055717" lon="12.208325496814822"><ele>324.0</ele><time>2026-03-29T10:21:40Z</time></trkpt><trkpt lat="43.1713031346791" lon="12.208309510569935"><ele>324.0</ele><time>2026-03-29T10:21:41Z</time></trkpt><trkpt lat="43.17121170557531" lon="12.20827953284576"><ele>330.0</ele><time>2026-03-29T10:21:43Z</time></trkpt><trkpt lat="43.17124349233125" lon="12.208139357306491"><ele>336.0</ele><time>2026-03-29T10:21:45Z</time></trkpt><trkpt lat="43.17118982213692" lon="12.208026611866893"><ele>342.0</ele><time>2026-03-29T10:21:47Z</time></trkpt><trkpt lat="43.17106394091278" lon="12.207936874756758"><ele>348.0</ele><time>2026-03-29T10:21:49Z</time></trkpt><trkpt lat="43.17097086741995" lon="12.207911066141728"><ele>354.0</ele><time>2026-03-29T10:21:50Z</time></trkpt><trkpt lat="43.17090169471068" lon="12.207867761468437"><ele>354.0</ele><time>2026-03-29T10:21:51Z</time></trkpt><trkpt lat="43.17084261103674" lon="12.207833842759348"><ele>354.0</ele><time>2026-03-29T10:21:52Z</time></trkpt><trkpt lat="43.17075951125201" lon="12.207725026234986"><ele>354.0</ele><time>2026-03-29T10:21:54Z</time></trkpt><trkpt lat="43.17072883989162" lon="12.20758278840931"><ele>354.0</ele><time>2026-03-29T10:21:56Z</time></trkpt><trkpt lat="43.170823436573095" lon="12.207551722216904"><ele>354.0</ele><time>2026-03-29T10:22:01Z</time></trkpt><trkpt lat="43.17212770292665" lon="12.204814445454957"><ele>363.0</ele><time>2026-03-29T10:23:02Z</time></trkpt><trkpt lat="43.172199010269935" lon="12.204785480318707"><ele>372.0</ele><time>2026-03-29T10:23:03Z</time></trkpt><trkpt lat="43.172256590049855" lon="12.204739799403637"><ele>381.0</ele><time>2026-03-29T10:23:04Z</time></trkpt><trkpt lat="43.172315347467695" lon="12.204650123740636"><ele>390.0</ele><time>2026-03-29T10:23:06Z</time></trkpt><trkpt lat="43.17233808593829" lon="12.20456815786275"><ele>399.0</ele><time>2026-03-29T10:23:07Z</time></trkpt><trkpt lat="43.172376609295256" lon="12.204436684341148"><ele>408.0</ele><time>2026-03-29T10:23:08Z</time></trkpt><trkpt lat="43.17242074290686" lon="12.204287090609673"><ele>408.0</ele><time>2026-03-29T10:23:09Z</time></trkpt><trkpt lat="43.17249660722527" lon="12.20410656829223"><ele>408.0</ele><time>2026-03-29T10:23:10Z</time></trkpt><trkpt lat="43.17256996726071" lon="12.203915367571541"><ele>408.0</ele><time>2026-03-29T10:23:11Z</time></trkpt><trkpt lat="43.17260754669118" lon="12.203760487826322"><ele>408.0</ele><time>2026-03-29T10:23:12Z</time></trkpt><trkpt lat="43.17267144411059" lon="12.203652616325911"><ele>411.1666666666667</ele><time>2026-03-29T10:23:13Z</time></trkpt><trkpt lat="43.172719948446286" lon="12.203581826108387"><ele>414.33333333333337</ele><time>2026-03-29T10:23:14Z</time></trkpt><trkpt lat="43.172798097120804" lon="12.203524302497403"><ele>417.5</ele><time>2026-03-29T10:23:16Z</time></trkpt><trkpt lat="43.172887427203705" lon="12.203433247280495"><ele>420.6666666666667</ele><time>2026-03-29T10:23:18Z</time></trkpt><trkpt lat="43.17291656920719" lon="12.203343398144845"><ele>423.83333333333337</ele><time>2026-03-29T10:23:19Z</time></trkpt><trkpt lat="43.17293837353815" lon="12.203241164951919"><ele>427.0</ele><time>2026-03-29T10:23:20Z</time></trkpt><trkpt lat="43.172957878754474" lon="12.203151769535276"><ele>430.5</ele><time>2026-03-29T10:23:21Z</time></trkpt><trkpt lat="43.17296830745634" lon="12.203005715714028"><ele>434.0</ele><time>2026-03-29T10:23:23Z</time></trkpt><trkpt lat="43.17308413189519" lon="12.202822263765556"><ele>437.5</ele><time>2026-03-29T10:23:24Z</time></trkpt><trkpt lat="43.173092835616984" lon="12.202657449842652"><ele>441.0</ele><time>2026-03-29T10:23:26Z</time></trkpt><trkpt lat="43.17312280812283" lon="12.202576277687326"><ele>441.0</ele><time>2026-03-29T10:23:27Z</time></trkpt><trkpt lat="43.17315493195999" lon="12.202479791344846"><ele>441.0</ele><time>2026-03-29T10:23:28Z</time></trkpt><trkpt lat="43.17320114389867" lon="12.202377558220993"><ele>441.0</ele><time>2026-03-29T10:23:29Z</time></trkpt><trkpt lat="43.17324115145322" lon="12.202278808357505"><ele>441.0</ele><time>2026-03-29T10:23:30Z</time></trkpt><trkpt lat="43.17325112342208" lon="12.202139100237954"><ele>441.0</ele><time>2026-03-29T10:23:31Z</time></trkpt><trkpt lat="43.173250323235486" lon="12.202001554835132"><ele>440.3333333333333</ele><time>2026-03-29T10:23:32Z</time></trkpt><trkpt lat="43.17324779346306" lon="12.20188661719019"><ele>439.66666666666663</ele><time>2026-03-29T10:23:33Z</time></trkpt><trkpt lat="43.17323322078513" lon="12.201794171663975"><ele>439.0</ele><time>2026-03-29T10:23:34Z</time></trkpt><trkpt lat="43.17319755244779" lon="12.201710596180959"><ele>438.3333333333333</ele><time>2026-03-29T10:23:35Z</time></trkpt><trkpt lat="43.17314956675393" lon="12.20160326611638"><ele>437.66666666666663</ele><time>2026-03-29T10:23:36Z</time></trkpt><trkpt lat="43.17309768033079" lon="12.201447074275832"><ele>437.0</ele><time>2026-03-29T10:23:37Z</time></trkpt><trkpt lat="43.17305742859342" lon="12.201292615741623"><ele>434.20000000000005</ele><time>2026-03-29T10:23:38Z</time></trkpt><trkpt lat="43.17302524052654" lon="12.20115746169703"><ele>431.40000000000003</ele><time>2026-03-29T10:23:39Z</time></trkpt><trkpt lat="43.17298721813255" lon="12.201025588361565"><ele>428.6</ele><time>2026-03-29T10:23:40Z</time></trkpt><trkpt lat="43.17293358917038" lon="12.200915368308348"><ele>425.79999999999995</ele><time>2026-03-29T10:23:41Z</time></trkpt><trkpt lat="43.172867290268364" lon="12.200793095023066"><ele>423.0</ele><time>2026-03-29T10:23:43Z</time></trkpt><trkpt lat="43.17288774086946" lon="12.200971686790696"><ele>423.0</ele><time>2026-03-29T10:23:44Z</time></trkpt><trkpt lat="43.17282666274284" lon="12.200842254131606"><ele>423.0</ele><time>2026-03-29T10:23:46Z</time></trkpt><trkpt lat="43.17277066561646" lon="12.20076405830404"><ele>423.0</ele><time>2026-03-29T10:23:47Z</time></trkpt><trkpt lat="43.1726857893738" lon="12.200711440623513"><ele>423.0</ele><time>2026-03-29T10:23:49Z</time></trkpt><trkpt lat="43.17266358838461" lon="12.200606673132425"><ele>423.0</ele><time>2026-03-29T10:23:50Z</time></trkpt><trkpt lat="43.17257719178242" lon="12.200480573733126"><ele>422.3333333333333</ele><time>2026-03-29T10:23:52Z</time></trkpt><trkpt lat="43.17253227188082" lon="12.200394607008654"><ele>421.66666666666663</ele><time>2026-03-29T10:23:53Z</time></trkpt><trkpt lat="43.17249614336846" lon="12.200315471035765"><ele>421.0</ele><time>2026-03-29T10:23:54Z</time></trkpt><trkpt lat="43.17246270400441" lon="12.20024214533232"><ele>420.3333333333333</ele><time>2026-03-29T10:23:55Z</time></trkpt><trkpt lat="43.17238214647016" lon="12.200144724191363"><ele>419.66666666666663</ele><time>2026-03-29T10:23:57Z</time></trkpt><trkpt lat="43.172283106416565" lon="12.200069806745654"><ele>419.0</ele><time>2026-03-29T10:23:59Z</time></trkpt><trkpt lat="43.17215803876689" lon="12.200070665279323"><ele>446.0</ele><time>2026-03-29T10:24:01Z</time></trkpt><trkpt lat="43.169459506228876" lon="12.201229485807286"><ele>445.99999999999994</ele><time>2026-03-29T10:25:01.999Z</time></trkpt><trkpt lat="43.169390431862915" lon="12.201255197275904"><ele>446.0</ele><time>2026-03-29T10:25:07Z</time></trkpt><trkpt lat="43.16931043691352" lon="12.201284212423959"><ele>446.0</ele><time>2026-03-29T10:25:11Z</time></trkpt><trkpt lat="43.16922696940795" lon="12.201295765573553"><ele>446.0</ele><time>2026-03-29T10:25:14Z</time></trkpt><trkpt lat="43.16916390985267" lon="12.201296529260171"><ele>445.99999999999994</ele><time>2026-03-29T10:25:15Z</time></trkpt><trkpt lat="43.169089032969666" lon="12.201277340627483"><ele>446.0</ele><time>2026-03-29T10:25:16Z</time></trkpt><trkpt lat="43.16901164023719" lon="12.20124164564409"><ele>446.20000000000005</ele><time>2026-03-29T10:25:17Z</time></trkpt><trkpt lat="43.16892729581149" lon="12.201225178805982"><ele>446.40000000000003</ele><time>2026-03-29T10:25:18Z</time></trkpt><trkpt lat="43.16883354138326" lon="12.201217237726352"><ele>446.6</ele><time>2026-03-29T10:25:19Z</time></trkpt><trkpt lat="43.168680395345085" lon="12.201207536974742"><ele>446.8</ele><time>2026-03-29T10:25:20Z</time></trkpt><trkpt lat="43.168570676083476" lon="12.20117458496003"><ele>447.0</ele><time>2026-03-29T10:25:21Z</time></trkpt><trkpt lat="43.168470888001416" lon="12.201158834941149"><ele>447.0</ele><time>2026-03-29T10:25:22Z</time></trkpt><trkpt lat="43.16837444175266" lon="12.201144905307093"><ele>447.00000000000006</ele><time>2026-03-29T10:25:23Z</time></trkpt><trkpt lat="43.168284561263874" lon="12.201125831891497"><ele>447.00000000000006</ele><time>2026-03-29T10:25:24Z</time></trkpt><trkpt lat="43.168187467625295" lon="12.201096683917916"><ele>447.0</ele><time>2026-03-29T10:25:25Z</time></trkpt><trkpt lat="43.1680979348242" lon="12.201081659309462"><ele>447.0</ele><time>2026-03-29T10:25:26Z</time></trkpt><trkpt lat="43.16801948125995" lon="12.20107838343535"><ele>446.8</ele><time>2026-03-29T10:25:27Z</time></trkpt><trkpt lat="43.16791779774431" lon="12.201081658597186"><ele>446.6</ele><time>2026-03-29T10:25:29Z</time></trkpt><trkpt lat="43.16783747443486" lon="12.201067402983444"><ele>446.40000000000003</ele><time>2026-03-29T10:25:31Z</time></trkpt><trkpt lat="43.1677612873209" lon="12.201035333026455"><ele>446.20000000000005</ele><time>2026-03-29T10:25:33Z</time></trkpt><trkpt lat="43.16762952166609" lon="12.200959185894378"><ele>446.0</ele><time>2026-03-29T10:25:35Z</time></trkpt><trkpt lat="43.167546186217386" lon="12.200931630337667"><ele>445.99999999999994</ele><time>2026-03-29T10:25:36Z</time></trkpt><trkpt lat="43.16745768546271" lon="12.200904534116384"><ele>446.0</ele><time>2026-03-29T10:25:37Z</time></trkpt><trkpt lat="43.167383122668674" lon="12.200878054405761"><ele>446.0</ele><time>2026-03-29T10:25:38Z</time></trkpt><trkpt lat="43.167297997823894" lon="12.200832566787708"><ele>446.0</ele><time>2026-03-29T10:25:39Z</time></trkpt><trkpt lat="43.16721192698904" lon="12.200800115419545"><ele>445.99999999999994</ele><time>2026-03-29T10:25:40Z</time></trkpt><trkpt lat="43.16713247953003" lon="12.200784420553893"><ele>446.0</ele><time>2026-03-29T10:25:41Z</time></trkpt><trkpt lat="43.16705608518513" lon="12.20076938518728"><ele>445.49999999999994</ele><time>2026-03-29T10:25:42Z</time></trkpt><trkpt lat="43.16698041749204" lon="12.200758010129798"><ele>445.0</ele><time>2026-03-29T10:25:43Z</time></trkpt><trkpt lat="43.166890141551534" lon="12.200758598039464"><ele>444.5</ele><time>2026-03-29T10:25:44Z</time></trkpt><trkpt lat="43.1668065193497" lon="12.20074772616555"><ele>444.0</ele><time>2026-03-29T10:25:45Z</time></trkpt><trkpt lat="43.16673696452438" lon="12.200704181033977"><ele>443.49999999999994</ele><time>2026-03-29T10:25:46Z</time></trkpt><trkpt lat="43.16666094929111" lon="12.200645277821515"><ele>443.0</ele><time>2026-03-29T10:25:47Z</time></trkpt><trkpt lat="43.166580051174726" lon="12.200633856343158"><ele>441.0</ele><time>2026-03-29T10:25:48Z</time></trkpt><trkpt lat="43.166479021029936" lon="12.200670039264384"><ele>439.0</ele><time>2026-03-29T10:25:49Z</time></trkpt><trkpt lat="43.16636140243945" lon="12.200717610604002"><ele>437.0</ele><time>2026-03-29T10:25:50Z</time></trkpt><trkpt lat="43.16624734712902" lon="12.200751748909337"><ele>435.0</ele><time>2026-03-29T10:25:51Z</time></trkpt><trkpt lat="43.16610380999878" lon="12.200787260844681"><ele>435.0</ele><time>2026-03-29T10:25:52Z</time></trkpt><trkpt lat="43.16594440147015" lon="12.200825790977008"><ele>435.0</ele><time>2026-03-29T10:25:53Z</time></trkpt><trkpt lat="43.16578524694104" lon="12.20088534219068"><ele>435.0</ele><time>2026-03-29T10:25:54Z</time></trkpt><trkpt lat="43.165639026992814" lon="12.200927180945097"><ele>433.25</ele><time>2026-03-29T10:25:55Z</time></trkpt><trkpt lat="43.165502651694155" lon="12.200962913806778"><ele>431.5</ele><time>2026-03-29T10:25:56Z</time></trkpt><trkpt lat="43.1653644895308" lon="12.20100484097493"><ele>429.75</ele><time>2026-03-29T10:25:57Z</time></trkpt><trkpt lat="43.16523765425928" lon="12.201035138435724"><ele>428.0</ele><time>2026-03-29T10:25:58Z</time></trkpt><trkpt lat="43.16511967631459" lon="12.201062813126928"><ele>428.0</ele><time>2026-03-29T10:25:59Z</time></trkpt><trkpt lat="43.16501457331125" lon="12.201093496375487"><ele>428.0</ele><time>2026-03-29T10:26:00Z</time></trkpt><trkpt lat="43.164908007199" lon="12.201119747753026"><ele>428.0</ele><time>2026-03-29T10:26:01Z</time></trkpt><trkpt lat="43.160101081721024" lon="12.203264802346672"><ele>424.0</ele><time>2026-03-29T10:27:01.999Z</time></trkpt><trkpt lat="43.16002504024589" lon="12.203348390083606"><ele>419.99999999999994</ele><time>2026-03-29T10:27:02.999Z</time></trkpt><trkpt lat="43.159926129856444" lon="12.203454778403525"><ele>416.0</ele><time>2026-03-29T10:27:03.999Z</time></trkpt><trkpt lat="43.159833331149045" lon="12.203549293576524"><ele>412.0</ele><time>2026-03-29T10:27:04.999Z</time></trkpt><trkpt lat="43.15975082486679" lon="12.203633925849314"><ele>408.0</ele><time>2026-03-29T10:27:05.999Z</time></trkpt><trkpt lat="43.15965686455147" lon="12.203687667852428"><ele>406.25</ele><time>2026-03-29T10:27:06.999Z</time></trkpt><trkpt lat="43.159546046998024" lon="12.203728418861328"><ele>404.5</ele><time>2026-03-29T10:27:07.999Z</time></trkpt><trkpt lat="43.15940273407519" lon="12.203756794904448"><ele>402.75</ele><time>2026-03-29T10:27:08.999Z</time></trkpt><trkpt lat="43.1592602263263" lon="12.203780373985737"><ele>401.0</ele><time>2026-03-29T10:27:09.999Z</time></trkpt><trkpt lat="43.15911116670343" lon="12.203789775330227"><ele>400.75</ele><time>2026-03-29T10:27:11Z</time></trkpt><trkpt lat="43.1589579980103" lon="12.203794466946684"><ele>400.5</ele><time>2026-03-29T10:27:12Z</time></trkpt><trkpt lat="43.1588068820626" lon="12.2038042398655"><ele>400.25</ele><time>2026-03-29T10:27:13Z</time></trkpt><trkpt lat="43.15868027850244" lon="12.203810216393455"><ele>400.0</ele><time>2026-03-29T10:27:14Z</time></trkpt><trkpt lat="43.158566027994965" lon="12.203810196914286"><ele>400.0</ele><time>2026-03-29T10:27:15Z</time></trkpt><trkpt lat="43.158458199539496" lon="12.203826774076036"><ele>400.0</ele><time>2026-03-29T10:27:16Z</time></trkpt><trkpt lat="43.15834790099014" lon="12.20387755378067"><ele>400.0</ele><time>2026-03-29T10:27:17Z</time></trkpt><trkpt lat="43.158223042489404" lon="12.20394764805748"><ele>400.0</ele><time>2026-03-29T10:27:18Z</time></trkpt><trkpt lat="43.158088025456834" lon="12.204015746116927"><ele>404.0</ele><time>2026-03-29T10:27:19Z</time></trkpt><trkpt lat="43.15793102897834" lon="12.204072920446457"><ele>408.0</ele><time>2026-03-29T10:27:20Z</time></trkpt><trkpt lat="43.157759483761346" lon="12.204088660013083"><ele>412.0</ele><time>2026-03-29T10:27:21Z</time></trkpt><trkpt lat="43.15760279893768" lon="12.204177273350364"><ele>412.0</ele><time>2026-03-29T10:27:22Z</time></trkpt><trkpt lat="43.15743313195173" lon="12.204207751867198"><ele>412.0</ele><time>2026-03-29T10:27:23Z</time></trkpt><trkpt lat="43.15726694488921" lon="12.20423205815459"><ele>412.0</ele><time>2026-03-29T10:27:24Z</time></trkpt><trkpt lat="43.157101863735605" lon="12.204251487195346"><ele>413.40000000000003</ele><time>2026-03-29T10:27:25Z</time></trkpt><trkpt lat="43.156984599161156" lon="12.204263505648433"><ele>414.8</ele><time>2026-03-29T10:27:26Z</time></trkpt><trkpt lat="43.15688616797943" lon="12.204261455109782"><ele>416.2</ele><time>2026-03-29T10:27:27Z</time></trkpt><trkpt lat="43.15679315242434" lon="12.204223547388628"><ele>417.6</ele><time>2026-03-29T10:27:28Z</time></trkpt><trkpt lat="43.156678077311156" lon="12.204181276846736"><ele>419.0</ele><time>2026-03-29T10:27:29Z</time></trkpt><trkpt lat="43.15660071225177" lon="12.20408403935239"><ele>418.0</ele><time>2026-03-29T10:27:30Z</time></trkpt><trkpt lat="43.15651816503561" lon="12.20399944483509"><ele>417.0</ele><time>2026-03-29T10:27:31Z</time></trkpt><trkpt lat="43.15643807755857" lon="12.20392192287543"><ele>416.0</ele><time>2026-03-29T10:27:32Z</time></trkpt><trkpt lat="43.15632624771903" lon="12.203862158988514"><ele>415.0</ele><time>2026-03-29T10:27:33Z</time></trkpt><trkpt lat="43.15618911417584" lon="12.203795371355602"><ele>415.0</ele><time>2026-03-29T10:27:34Z</time></trkpt><trkpt lat="43.15603906983157" lon="12.203710327611152"><ele>415.0</ele><time>2026-03-29T10:27:35Z</time></trkpt><trkpt lat="43.15590418789939" lon="12.203603068076935"><ele>415.0</ele><time>2026-03-29T10:27:36Z</time></trkpt><trkpt lat="43.15579466547138" lon="12.203497639066425"><ele>413.25</ele><time>2026-03-29T10:27:37Z</time></trkpt><trkpt lat="43.15570033881769" lon="12.203387681213613"><ele>411.5</ele><time>2026-03-29T10:27:38Z</time></trkpt><trkpt lat="43.15560193618201" lon="12.203241174377196"><ele>409.75</ele><time>2026-03-29T10:27:39Z</time></trkpt><trkpt lat="43.15548837928945" lon="12.203099679168643"><ele>408.0</ele><time>2026-03-29T10:27:40Z</time></trkpt><trkpt lat="43.155367563952055" lon="12.202913351006945"><ele>408.0</ele><time>2026-03-29T10:27:41Z</time></trkpt><trkpt lat="43.15524768638463" lon="12.202755650529316"><ele>408.0</ele><time>2026-03-29T10:27:42Z</time></trkpt><trkpt lat="43.155161322865915" lon="12.202642731600276"><ele>408.0</ele><time>2026-03-29T10:27:43Z</time></trkpt><trkpt lat="43.15511383300413" lon="12.202546581214202"><ele>408.0</ele><time>2026-03-29T10:27:44Z</time></trkpt><trkpt lat="43.15505556801327" lon="12.202469395353619"><ele>408.0</ele><time>2026-03-29T10:27:45Z</time></trkpt><trkpt lat="43.15499904949792" lon="12.202349343224014"><ele>408.0</ele><time>2026-03-29T10:27:46Z</time></trkpt><trkpt lat="43.1549305901129" lon="12.202201921442674"><ele>408.0</ele><time>2026-03-29T10:27:47Z</time></trkpt><trkpt lat="43.154826137500784" lon="12.202053049984444"><ele>408.0</ele><time>2026-03-29T10:27:48Z</time></trkpt><trkpt lat="43.15470393017339" lon="12.201880906207348"><ele>409.0</ele><time>2026-03-29T10:27:49Z</time></trkpt><trkpt lat="43.1545547407701" lon="12.20172350731149"><ele>410.0</ele><time>2026-03-29T10:27:50Z</time></trkpt><trkpt lat="43.154435781183885" lon="12.201606913095382"><ele>411.0</ele><time>2026-03-29T10:27:51Z</time></trkpt><trkpt lat="43.1543327337267" lon="12.201504024908145"><ele>410.20000000000005</ele><time>2026-03-29T10:27:52Z</time></trkpt><trkpt lat="43.154255105551265" lon="12.20144909303574"><ele>409.40000000000003</ele><time>2026-03-29T10:27:53Z</time></trkpt><trkpt lat="43.154196111300415" lon="12.20140888886476"><ele>408.6</ele><time>2026-03-29T10:27:54Z</time></trkpt><trkpt lat="43.15407534533688" lon="12.201444160914754"><ele>407.8</ele><time>2026-03-29T10:27:56Z</time></trkpt><trkpt lat="43.15401924100318" lon="12.201501556644914"><ele>407.0</ele><time>2026-03-29T10:27:57Z</time></trkpt><trkpt lat="43.153900690872355" lon="12.201486481967352"><ele>409.66666666666663</ele><time>2026-03-29T10:27:59Z</time></trkpt><trkpt lat="43.15379388074483" lon="12.201490979360473"><ele>412.33333333333337</ele><time>2026-03-29T10:28:00Z</time></trkpt><trkpt lat="43.15368547745999" lon="12.201482339680112"><ele>415.0</ele><time>2026-03-29T10:28:01Z</time></trkpt><trkpt lat="43.15062733277636" lon="12.196508649989664"><ele>405.4</ele><time>2026-03-29T10:29:01.999Z</time></trkpt><trkpt lat="43.15055206443935" lon="12.196595444955431"><ele>395.8</ele><time>2026-03-29T10:29:03.999Z</time></trkpt><trkpt lat="43.15052657819138" lon="12.196695782945227"><ele>386.20000000000005</ele><time>2026-03-29T10:29:05.999Z</time></trkpt><trkpt lat="43.15045708297193" lon="12.196737913456026"><ele>376.6</ele><time>2026-03-29T10:29:07.999Z</time></trkpt><trkpt lat="43.150375986905836" lon="12.196626407188367"><ele>367.0</ele><time>2026-03-29T10:29:09.999Z</time></trkpt><trkpt lat="43.150332051885094" lon="12.196510035482254"><ele>366.8</ele><time>2026-03-29T10:29:10.999Z</time></trkpt><trkpt lat="43.15026864329887" lon="12.196364643376182"><ele>366.6</ele><time>2026-03-29T10:29:11.999Z</time></trkpt><trkpt lat="43.15018327427241" lon="12.196243442683642"><ele>366.40000000000003</ele><time>2026-03-29T10:29:12.999Z</time></trkpt><trkpt lat="43.15014214549765" lon="12.196122819705005"><ele>366.20000000000005</ele><time>2026-03-29T10:29:13.999Z</time></trkpt><trkpt lat="43.15011478851019" lon="12.196026963279946"><ele>366.0</ele><time>2026-03-29T10:29:14.999Z</time></trkpt><trkpt lat="43.15011590628119" lon="12.195928382474076"><ele>366.0</ele><time>2026-03-29T10:29:16Z</time></trkpt><trkpt lat="43.15014434367249" lon="12.195818093309871"><ele>366.0</ele><time>2026-03-29T10:29:17Z</time></trkpt><trkpt lat="43.15020198671968" lon="12.19572128963061"><ele>366.0</ele><time>2026-03-29T10:29:18Z</time></trkpt><trkpt lat="43.150273218835096" lon="12.195638085810335"><ele>366.0</ele><time>2026-03-29T10:29:19Z</time></trkpt><trkpt lat="43.150368909592636" lon="12.195576166263793"><ele>366.0</ele><time>2026-03-29T10:29:20Z</time></trkpt><trkpt lat="43.15047436506706" lon="12.19550334860093"><ele>365.0</ele><time>2026-03-29T10:29:21Z</time></trkpt><trkpt lat="43.1505819306192" lon="12.195415126482992"><ele>364.0</ele><time>2026-03-29T10:29:22Z</time></trkpt><trkpt lat="43.15065052581582" lon="12.195286267941533"><ele>363.0</ele><time>2026-03-29T10:29:23Z</time></trkpt><trkpt lat="43.15073161176249" lon="12.195170560098484"><ele>362.0</ele><time>2026-03-29T10:29:24Z</time></trkpt><trkpt lat="43.15081126578789" lon="12.195103366785226"><ele>362.0</ele><time>2026-03-29T10:29:25Z</time></trkpt><trkpt lat="43.150890778968986" lon="12.195034977232998"><ele>362.0</ele><time>2026-03-29T10:29:26Z</time></trkpt><trkpt lat="43.15099337935139" lon="12.19499689628234"><ele>362.0</ele><time>2026-03-29T10:29:27Z</time></trkpt><trkpt lat="43.15110283995456" lon="12.194967313551745"><ele>362.0</ele><time>2026-03-29T10:29:28Z</time></trkpt><trkpt lat="43.151214054181786" lon="12.194942997254609"><ele>362.0</ele><time>2026-03-29T10:29:29Z</time></trkpt><trkpt lat="43.151325607785346" lon="12.194940427429717"><ele>362.0</ele><time>2026-03-29T10:29:30Z</time></trkpt><trkpt lat="43.15143304921074" lon="12.19494116019229"><ele>362.0</ele><time>2026-03-29T10:29:31Z</time></trkpt><trkpt lat="43.1515335386644" lon="12.194943941743908"><ele>362.0</ele><time>2026-03-29T10:29:32Z</time></trkpt><trkpt lat="43.15161083092053" lon="12.194956708620195"><ele>362.0</ele><time>2026-03-29T10:29:33Z</time></trkpt><trkpt lat="43.15169561282365" lon="12.194953234709624"><ele>362.0</ele><time>2026-03-29T10:29:35Z</time></trkpt><trkpt lat="43.15163112481214" lon="12.194779377412257"><ele>361.8</ele><time>2026-03-29T10:29:39Z</time></trkpt><trkpt lat="43.15154684633205" lon="12.194763584098215"><ele>361.6</ele><time>2026-03-29T10:29:40Z</time></trkpt><trkpt lat="43.15144248477695" lon="12.194747241741535"><ele>361.40000000000003</ele><time>2026-03-29T10:29:41Z</time></trkpt><trkpt lat="43.151333365147885" lon="12.19469688201007"><ele>361.20000000000005</ele><time>2026-03-29T10:29:42Z</time></trkpt><trkpt lat="43.15119950604444" lon="12.194683133089798"><ele>361.0</ele><time>2026-03-29T10:29:43Z</time></trkpt><trkpt lat="43.1510687598233" lon="12.194655286466885"><ele>361.0</ele><time>2026-03-29T10:29:44Z</time></trkpt><trkpt lat="43.150907852404266" lon="12.19464947137035"><ele>361.0</ele><time>2026-03-29T10:29:45Z</time></trkpt><trkpt lat="43.150738296715616" lon="12.19468338310418"><ele>361.0</ele><time>2026-03-29T10:29:46Z</time></trkpt><trkpt lat="43.150564692250114" lon="12.19474710313833"><ele>360.25</ele><time>2026-03-29T10:29:47Z</time></trkpt><trkpt lat="43.15040370397452" lon="12.19479333698371"><ele>359.5</ele><time>2026-03-29T10:29:48Z</time></trkpt><trkpt lat="43.150285703763686" lon="12.194835701656526"><ele>358.75</ele><time>2026-03-29T10:29:49Z</time></trkpt><trkpt lat="43.150216766436905" lon="12.194860330156263"><ele>358.0</ele><time>2026-03-29T10:29:50Z</time></trkpt><trkpt lat="43.15018378989436" lon="12.194740320303543"><ele>358.0</ele><time>2026-03-29T10:29:53Z</time></trkpt><trkpt lat="43.15014877156967" lon="12.19463465807584"><ele>358.0</ele><time>2026-03-29T10:29:54Z</time></trkpt><trkpt lat="43.150135972319646" lon="12.194491192260562"><ele>358.0</ele><time>2026-03-29T10:29:55Z</time></trkpt><trkpt lat="43.15010905336376" lon="12.194345630762887"><ele>358.0</ele><time>2026-03-29T10:29:56Z</time></trkpt><trkpt lat="43.15005857064449" lon="12.194198722500053"><ele>358.0</ele><time>2026-03-29T10:29:57Z</time></trkpt><trkpt lat="43.149964504937216" lon="12.194067683266157"><ele>358.0</ele><time>2026-03-29T10:29:58Z</time></trkpt><trkpt lat="43.14982672900482" lon="12.193952930933582"><ele>358.0</ele><time>2026-03-29T10:29:59Z</time></trkpt><trkpt lat="43.14968327788457" lon="12.193823391890861"><ele>358.0</ele><time>2026-03-29T10:30:00Z</time></trkpt><trkpt lat="43.14956021760164" lon="12.193671825103811"><ele>353.0</ele><time>2026-03-29T10:30:01Z</time></trkpt><trkpt lat="43.146176135272064" lon="12.188732214671372"><ele>353.0</ele><time>2026-03-29T10:31:01.999Z</time></trkpt><trkpt lat="43.1461103497333" lon="12.188626497297493"><ele>353.0</ele><time>2026-03-29T10:31:02.999Z</time></trkpt><trkpt lat="43.146047550865326" lon="12.188530392630343"><ele>353.0</ele><time>2026-03-29T10:31:03.999Z</time></trkpt><trkpt lat="43.145997680712405" lon="12.188456489645036"><ele>353.0</ele><time>2026-03-29T10:31:04.999Z</time></trkpt><trkpt lat="43.14594383037425" lon="12.188362068745079"><ele>353.0</ele><time>2026-03-29T10:31:05.999Z</time></trkpt><trkpt lat="43.14586288797932" lon="12.188293153405008"><ele>354.5</ele><time>2026-03-29T10:31:06.999Z</time></trkpt><trkpt lat="43.14579176804014" lon="12.188170967352995"><ele>356.0</ele><time>2026-03-29T10:31:07.999Z</time></trkpt><trkpt lat="43.145706530545894" lon="12.188057826490937"><ele>357.5</ele><time>2026-03-29T10:31:08.999Z</time></trkpt><trkpt lat="43.145607512937666" lon="12.1879298528484"><ele>359.0</ele><time>2026-03-29T10:31:09.999Z</time></trkpt><trkpt lat="43.145511386971194" lon="12.187819265886942"><ele>359.0</ele><time>2026-03-29T10:31:10.999Z</time></trkpt><trkpt lat="43.14542626547089" lon="12.187736045284058"><ele>359.0</ele><time>2026-03-29T10:31:11.999Z</time></trkpt><trkpt lat="43.145346649806875" lon="12.187666576678579"><ele>359.0</ele><time>2026-03-29T10:31:12.999Z</time></trkpt><trkpt lat="43.14526098995456" lon="12.187603609068981"><ele>359.0</ele><time>2026-03-29T10:31:13.999Z</time></trkpt><trkpt lat="43.14514525766524" lon="12.187579385081582"><ele>359.0</ele><time>2026-03-29T10:31:14.999Z</time></trkpt><trkpt lat="43.145042316818916" lon="12.187551364924136"><ele>359.0</ele><time>2026-03-29T10:31:15.999Z</time></trkpt><trkpt lat="43.1449531077556" lon="12.187564604435085"><ele>359.0</ele><time>2026-03-29T10:31:16.999Z</time></trkpt><trkpt lat="43.144848608082896" lon="12.187612060043461"><ele>359.0</ele><time>2026-03-29T10:31:17.998Z</time></trkpt><trkpt lat="43.1447302406027" lon="12.187681389797117"><ele>359.0</ele><time>2026-03-29T10:31:18.998Z</time></trkpt><trkpt lat="43.144621202018854" lon="12.187718268492551"><ele>359.0</ele><time>2026-03-29T10:31:19.998Z</time></trkpt><trkpt lat="43.144546948133545" lon="12.187738845448376"><ele>357.79999999999995</ele><time>2026-03-29T10:31:21Z</time></trkpt><trkpt lat="43.1444764877885" lon="12.187746131475764"><ele>356.59999999999997</ele><time>2026-03-29T10:31:22Z</time></trkpt><trkpt lat="43.14440101568323" lon="12.18774058688819"><ele>355.4</ele><time>2026-03-29T10:31:23Z</time></trkpt><trkpt lat="43.144329149657345" lon="12.187737002278878"><ele>354.2</ele><time>2026-03-29T10:31:25Z</time></trkpt><trkpt lat="43.14432796274484" lon="12.187508683388927"><ele>353.0</ele><time>2026-03-29T10:31:27Z</time></trkpt><trkpt lat="43.14433855783925" lon="12.187349710441705"><ele>355.33333333333337</ele><time>2026-03-29T10:31:28Z</time></trkpt><trkpt lat="43.14434267782876" lon="12.187139637265004"><ele>357.6666666666667</ele><time>2026-03-29T10:31:29Z</time></trkpt><trkpt lat="43.14434080767822" lon="12.1868990402677"><ele>360.0</ele><time>2026-03-29T10:31:30Z</time></trkpt><trkpt lat="43.1443220879649" lon="12.186696822881437"><ele>360.0</ele><time>2026-03-29T10:31:31Z</time></trkpt><trkpt lat="43.144329594940345" lon="12.186549848107893"><ele>360.0</ele><time>2026-03-29T10:31:32Z</time></trkpt><trkpt lat="43.144330474931294" lon="12.18644961846522"><ele>360.0</ele><time>2026-03-29T10:31:33Z</time></trkpt><trkpt lat="43.144249401422336" lon="12.186409893025981"><ele>360.0</ele><time>2026-03-29T10:31:36Z</time></trkpt><trkpt lat="43.14428322539555" lon="12.186329322082738"><ele>360.0</ele><time>2026-03-29T10:31:39Z</time></trkpt><trkpt lat="43.14432602039551" lon="12.186226224135066"><ele>360.0</ele><time>2026-03-29T10:31:41Z</time></trkpt><trkpt lat="43.14439105820879" lon="12.185875037399862"><ele>362.0</ele><time>2026-03-29T10:31:43Z</time></trkpt><trkpt lat="43.14436964315042" lon="12.185783946805653"><ele>364.0</ele><time>2026-03-29T10:31:44Z</time></trkpt><trkpt lat="43.14435100656579" lon="12.185623847619265"><ele>366.0</ele><time>2026-03-29T10:31:45Z</time></trkpt><trkpt lat="43.14430866358472" lon="12.18548043447858"><ele>368.0</ele><time>2026-03-29T10:31:46Z</time></trkpt><trkpt lat="43.14426910762965" lon="12.18536141898213"><ele>370.0</ele><time>2026-03-29T10:31:47Z</time></trkpt><trkpt lat="43.14423012236411" lon="12.18524734443489"><ele>372.6</ele><time>2026-03-29T10:31:48Z</time></trkpt><trkpt lat="43.14418992496615" lon="12.18513220762206"><ele>375.2</ele><time>2026-03-29T10:31:49Z</time></trkpt><trkpt lat="43.14415144400524" lon="12.18501006092405"><ele>377.79999999999995</ele><time>2026-03-29T10:31:50Z</time></trkpt><trkpt lat="43.144123499081594" lon="12.18487938635676"><ele>380.4</ele><time>2026-03-29T10:31:51Z</time></trkpt><trkpt lat="43.144113058730916" lon="12.184728932455364"><ele>383.0</ele><time>2026-03-29T10:31:52Z</time></trkpt><trkpt lat="43.144094757869176" lon="12.184589132608917"><ele>383.79999999999995</ele><time>2026-03-29T10:31:53Z</time></trkpt><trkpt lat="43.14407787617503" lon="12.184462145750057"><ele>384.6</ele><time>2026-03-29T10:31:54Z</time></trkpt><trkpt lat="43.144024227502705" lon="12.184381419414166"><ele>385.4</ele><time>2026-03-29T10:31:55Z</time></trkpt><trkpt lat="43.14396106357403" lon="12.18428393234481"><ele>386.20000000000005</ele><time>2026-03-29T10:31:56Z</time></trkpt><trkpt lat="43.14389787054166" lon="12.184175647504617"><ele>387.0</ele><time>2026-03-29T10:31:57Z</time></trkpt><trkpt lat="43.14383871444375" lon="12.184083857909386"><ele>391.25</ele><time>2026-03-29T10:31:58Z</time></trkpt><trkpt lat="43.14378430490137" lon="12.184007841840732"><ele>395.5</ele><time>2026-03-29T10:31:59Z</time></trkpt><trkpt lat="43.143713679635994" lon="12.183961985457458"><ele>399.75</ele><time>2026-03-29T10:32:00Z</time></trkpt><trkpt lat="43.14365365932831" lon="12.183902172523442"><ele>404.0</ele><time>2026-03-29T10:32:01Z</time></trkpt><trkpt lat="43.13897232959127" lon="12.183154364736469"><ele>406.5</ele><time>2026-03-29T10:33:01.999Z</time></trkpt><trkpt lat="43.13883192321528" lon="12.183169538432665"><ele>409.0</ele><time>2026-03-29T10:33:02.999Z</time></trkpt><trkpt lat="43.138692879485205" lon="12.183152446289279"><ele>411.5</ele><time>2026-03-29T10:33:03.999Z</time></trkpt><trkpt lat="43.13852737166077" lon="12.183120199606444"><ele>414.0</ele><time>2026-03-29T10:33:04.999Z</time></trkpt><trkpt lat="43.13834708054379" lon="12.18308954033465"><ele>411.66666666666663</ele><time>2026-03-29T10:33:05.999Z</time></trkpt><trkpt lat="43.13818757527362" lon="12.183068507907892"><ele>409.3333333333333</ele><time>2026-03-29T10:33:06.999Z</time></trkpt><trkpt lat="43.13803656289626" lon="12.183051360618897"><ele>407.0</ele><time>2026-03-29T10:33:07.999Z</time></trkpt><trkpt lat="43.13789086818356" lon="12.183035616437955"><ele>407.0</ele><time>2026-03-29T10:33:08.999Z</time></trkpt><trkpt lat="43.13776736859719" lon="12.183014254808485"><ele>407.0</ele><time>2026-03-29T10:33:09.999Z</time></trkpt><trkpt lat="43.13766714374216" lon="12.182978548465961"><ele>407.0</ele><time>2026-03-29T10:33:10.999Z</time></trkpt><trkpt lat="43.13760986227541" lon="12.182940096038536"><ele>407.0</ele><time>2026-03-29T10:33:11.999Z</time></trkpt><trkpt lat="43.137534255150946" lon="12.182869975589394"><ele>407.0</ele><time>2026-03-29T10:33:13.999Z</time></trkpt><trkpt lat="43.13743889858925" lon="12.182807250418877"><ele>407.0</ele><time>2026-03-29T10:33:15.999Z</time></trkpt><trkpt lat="43.13738331029102" lon="12.182914457225332"><ele>407.0</ele><time>2026-03-29T10:33:19.998Z</time></trkpt><trkpt lat="43.13745891412003" lon="12.182934979338395"><ele>407.0</ele><time>2026-03-29T10:33:21.998Z</time></trkpt><trkpt lat="43.13755870906678" lon="12.18289195188652"><ele>407.0</ele><time>2026-03-29T10:33:23.998Z</time></trkpt><trkpt lat="43.137646171530974" lon="12.182965656206367"><ele>407.0</ele><time>2026-03-29T10:33:25.998Z</time></trkpt><trkpt lat="43.137541746226134" lon="12.183022223766432"><ele>407.0</ele><time>2026-03-29T10:33:31Z</time></trkpt><trkpt lat="43.137454684169356" lon="12.183123062916284"><ele>407.0</ele><time>2026-03-29T10:33:33Z</time></trkpt><trkpt lat="43.13740930681588" lon="12.183252280705204"><ele>407.0</ele><time>2026-03-29T10:33:35Z</time></trkpt><trkpt lat="43.13738065927002" lon="12.18343351404816"><ele>407.0</ele><time>2026-03-29T10:33:37Z</time></trkpt><trkpt lat="43.13736364641236" lon="12.183557176890739"><ele>407.0</ele><time>2026-03-29T10:33:38Z</time></trkpt><trkpt lat="43.13733702703194" lon="12.183684157238563"><ele>406.8333333333333</ele><time>2026-03-29T10:33:39Z</time></trkpt><trkpt lat="43.137311206601936" lon="12.183817661388616"><ele>406.66666666666663</ele><time>2026-03-29T10:33:40Z</time></trkpt><trkpt lat="43.13728006116128" lon="12.183946104480826"><ele>406.5</ele><time>2026-03-29T10:33:41Z</time></trkpt><trkpt lat="43.137229937365085" lon="12.184040737202771"><ele>406.33333333333337</ele><time>2026-03-29T10:33:42Z</time></trkpt><trkpt lat="43.137172425177596" lon="12.18408871411898"><ele>406.1666666666667</ele><time>2026-03-29T10:33:43Z</time></trkpt><trkpt lat="43.137092996083325" lon="12.18409554353379"><ele>406.0</ele><time>2026-03-29T10:33:44Z</time></trkpt><trkpt lat="43.13698789881959" lon="12.184091225055312"><ele>406.25</ele><time>2026-03-29T10:33:45Z</time></trkpt><trkpt lat="43.136865789879096" lon="12.184106692514518"><ele>406.5</ele><time>2026-03-29T10:33:46Z</time></trkpt><trkpt lat="43.13673827708662" lon="12.184123766094947"><ele>406.75</ele><time>2026-03-29T10:33:47Z</time></trkpt><trkpt lat="43.13661783661586" lon="12.184158696706868"><ele>407.0</ele><time>2026-03-29T10:33:48Z</time></trkpt><trkpt lat="43.13649911905298" lon="12.184222760839374"><ele>407.0</ele><time>2026-03-29T10:33:49Z</time></trkpt><trkpt lat="43.136381706807946" lon="12.1843074576856"><ele>407.0</ele><time>2026-03-29T10:33:50Z</time></trkpt><trkpt lat="43.13626088471583" lon="12.184413986672574"><ele>407.0</ele><time>2026-03-29T10:33:51Z</time></trkpt><trkpt lat="43.13615096097703" lon="12.184508107060582"><ele>407.0</ele><time>2026-03-29T10:33:52Z</time></trkpt><trkpt lat="43.13606386877459" lon="12.184549378277536"><ele>406.99999999999994</ele><time>2026-03-29T10:33:53Z</time></trkpt><trkpt lat="43.13598680398531" lon="12.18453780515879"><ele>407.0</ele><time>2026-03-29T10:33:54Z</time></trkpt><trkpt lat="43.135909582930225" lon="12.184494573022572"><ele>407.0</ele><time>2026-03-29T10:33:55Z</time></trkpt><trkpt lat="43.13583876769582" lon="12.184434882005185"><ele>407.0</ele><time>2026-03-29T10:33:56Z</time></trkpt><trkpt lat="43.13576260178511" lon="12.184401896213638"><ele>406.99999999999994</ele><time>2026-03-29T10:33:57Z</time></trkpt><trkpt lat="43.13568087413555" lon="12.184397370440749"><ele>407.0</ele><time>2026-03-29T10:33:58Z</time></trkpt><trkpt lat="43.13559931007527" lon="12.18440339356446"><ele>402.66666666666663</ele><time>2026-03-29T10:33:59Z</time></trkpt><trkpt lat="43.13551761687245" lon="12.184400581106885"><ele>398.33333333333337</ele><time>2026-03-29T10:34:00Z</time></trkpt><trkpt lat="43.135451230094965" lon="12.184406938148006"><ele>394.0</ele><time>2026-03-29T10:34:01Z</time></trkpt><trkpt lat="43.130406678316575" lon="12.179366304180444"><ele>391.0</ele><time>2026-03-29T10:35:01.999Z</time></trkpt><trkpt lat="43.13033335740577" lon="12.179336775683193"><ele>388.0</ele><time>2026-03-29T10:35:02.999Z</time></trkpt><trkpt lat="43.13023584249528" lon="12.179318107602546"><ele>385.0</ele><time>2026-03-29T10:35:03.999Z</time></trkpt><trkpt lat="43.13013393423687" lon="12.179257351893774"><ele>382.0</ele><time>2026-03-29T10:35:04.999Z</time></trkpt><trkpt lat="43.13002055328743" lon="12.179201085111554"><ele>379.0</ele><time>2026-03-29T10:35:05.999Z</time></trkpt><trkpt lat="43.129882362543356" lon="12.179146580789086"><ele>378.0</ele><time>2026-03-29T10:35:06.999Z</time></trkpt><trkpt lat="43.12973039747106" lon="12.179075254159304"><ele>377.0</ele><time>2026-03-29T10:35:07.999Z</time></trkpt><trkpt lat="43.1295695831961" lon="12.179011764052554"><ele>376.0</ele><time>2026-03-29T10:35:08.999Z</time></trkpt><trkpt lat="43.129408368462954" lon="12.1789350519389"><ele>376.0</ele><time>2026-03-29T10:35:09.999Z</time></trkpt><trkpt lat="43.129239653696814" lon="12.178846934991055"><ele>376.0</ele><time>2026-03-29T10:35:10.999Z</time></trkpt><trkpt lat="43.129047191330706" lon="12.17874252722067"><ele>376.0</ele><time>2026-03-29T10:35:11.999Z</time></trkpt><trkpt lat="43.128831240877616" lon="12.178626149125337"><ele>376.0</ele><time>2026-03-29T10:35:12.999Z</time></trkpt><trkpt lat="43.12864028535667" lon="12.17852628280542"><ele>376.0</ele><time>2026-03-29T10:35:13.999Z</time></trkpt><trkpt lat="43.128485427898305" lon="12.178448566931099"><ele>376.0</ele><time>2026-03-29T10:35:14.999Z</time></trkpt><trkpt lat="43.12835388246766" lon="12.178383456417363"><ele>376.0</ele><time>2026-03-29T10:35:15.999Z</time></trkpt><trkpt lat="43.12823811376275" lon="12.178301443212346"><ele>376.0</ele><time>2026-03-29T10:35:16.999Z</time></trkpt><trkpt lat="43.128125003578866" lon="12.178193325032645"><ele>376.0</ele><time>2026-03-29T10:35:17.999Z</time></trkpt><trkpt lat="43.128008169989506" lon="12.178087841793442"><ele>376.0</ele><time>2026-03-29T10:35:18.999Z</time></trkpt><trkpt lat="43.127909495720196" lon="12.17795040206892"><ele>375.25</ele><time>2026-03-29T10:35:19.999Z</time></trkpt><trkpt lat="43.12780554650033" lon="12.17781621804637"><ele>374.5</ele><time>2026-03-29T10:35:20.999Z</time></trkpt><trkpt lat="43.12770092635573" lon="12.177676057388851"><ele>373.75</ele><time>2026-03-29T10:35:21.999Z</time></trkpt><trkpt lat="43.12759807288026" lon="12.177551151696377"><ele>373.0</ele><time>2026-03-29T10:35:22.998Z</time></trkpt><trkpt lat="43.12751352999981" lon="12.177428817652729"><ele>373.3333333333333</ele><time>2026-03-29T10:35:23.998Z</time></trkpt><trkpt lat="43.12744682414909" lon="12.177341588671712"><ele>373.66666666666663</ele><time>2026-03-29T10:35:24.998Z</time></trkpt><trkpt lat="43.12739788111286" lon="12.177286913284574"><ele>374.0</ele><time>2026-03-29T10:35:25.998Z</time></trkpt><trkpt lat="43.127311753691735" lon="12.177217591836989"><ele>374.3333333333333</ele><time>2026-03-29T10:35:27.998Z</time></trkpt><trkpt lat="43.127234843190635" lon="12.177237612822472"><ele>374.6666666666667</ele><time>2026-03-29T10:35:29.998Z</time></trkpt><trkpt lat="43.127174107645835" lon="12.177284003683113"><ele>375.0</ele><time>2026-03-29T10:35:31.998Z</time></trkpt><trkpt lat="43.127133104029426" lon="12.17737581167086"><ele>375.0</ele><time>2026-03-29T10:35:36Z</time></trkpt><trkpt lat="43.12702557235371" lon="12.177521726094179"><ele>375.0</ele><time>2026-03-29T10:35:38Z</time></trkpt><trkpt lat="43.12694525228368" lon="12.177624418164344"><ele>375.0</ele><time>2026-03-29T10:35:39Z</time></trkpt><trkpt lat="43.12688037146192" lon="12.177723459972304"><ele>375.0</ele><time>2026-03-29T10:35:40Z</time></trkpt><trkpt lat="43.126785705950844" lon="12.177806846965131"><ele>375.0</ele><time>2026-03-29T10:35:41Z</time></trkpt><trkpt lat="43.1266738524611" lon="12.177874307161831"><ele>375.0</ele><time>2026-03-29T10:35:42Z</time></trkpt><trkpt lat="43.12655206560781" lon="12.177907942283236"><ele>375.0</ele><time>2026-03-29T10:35:43Z</time></trkpt><trkpt lat="43.12639898726129" lon="12.177905059585884"><ele>375.0</ele><time>2026-03-29T10:35:44Z</time></trkpt><trkpt lat="43.126215782195274" lon="12.177898872290143"><ele>378.33333333333337</ele><time>2026-03-29T10:35:45Z</time></trkpt><trkpt lat="43.1260068273304" lon="12.177919495415765"><ele>381.6666666666667</ele><time>2026-03-29T10:35:46Z</time></trkpt><trkpt lat="43.125820334504404" lon="12.17793495890297"><ele>385.0</ele><time>2026-03-29T10:35:47Z</time></trkpt><trkpt lat="43.12565573456831" lon="12.177959462531529"><ele>384.25</ele><time>2026-03-29T10:35:48Z</time></trkpt><trkpt lat="43.125518293448955" lon="12.178003428410173"><ele>383.5</ele><time>2026-03-29T10:35:49Z</time></trkpt><trkpt lat="43.12540092170132" lon="12.178070061782723"><ele>382.75</ele><time>2026-03-29T10:35:50Z</time></trkpt><trkpt lat="43.12529677991006" lon="12.178171599144976"><ele>382.0</ele><time>2026-03-29T10:35:51Z</time></trkpt><trkpt lat="43.125197612708504" lon="12.178317285903772"><ele>382.0</ele><time>2026-03-29T10:35:52Z</time></trkpt><trkpt lat="43.12512114906172" lon="12.178485336491185"><ele>382.0</ele><time>2026-03-29T10:35:53Z</time></trkpt><trkpt lat="43.12502970707981" lon="12.178609522944567"><ele>382.0</ele><time>2026-03-29T10:35:54Z</time></trkpt><trkpt lat="43.12494479470268" lon="12.178718157144495"><ele>382.0</ele><time>2026-03-29T10:35:55Z</time></trkpt><trkpt lat="43.124876968436105" lon="12.178782806193704"><ele>381.0</ele><time>2026-03-29T10:35:56Z</time></trkpt><trkpt lat="43.1247992881191" lon="12.178816415871127"><ele>380.0</ele><time>2026-03-29T10:35:59Z</time></trkpt><trkpt lat="43.12479929713598" lon="12.178933922064285"><ele>379.0</ele><time>2026-03-29T10:36:01Z</time></trkpt><trkpt lat="43.124693248483126" lon="12.182190481408034"><ele>379.0</ele><time>2026-03-29T10:37:11.999Z</time></trkpt><trkpt lat="43.124775160921025" lon="12.182341813605854"><ele>379.0</ele><time>2026-03-29T10:37:12.999Z</time></trkpt><trkpt lat="43.124781727299236" lon="12.18244688687486"><ele>379.0</ele><time>2026-03-29T10:37:13.999Z</time></trkpt><trkpt lat="43.124757338574405" lon="12.182532179504868"><ele>379.0</ele><time>2026-03-29T10:37:14.999Z</time></trkpt><trkpt lat="43.124710782447515" lon="12.182601656700587"><ele>379.0</ele><time>2026-03-29T10:37:15.999Z</time></trkpt><trkpt lat="43.12465647881884" lon="12.18268743259659"><ele>379.0</ele><time>2026-03-29T10:37:16.999Z</time></trkpt><trkpt lat="43.12458933278571" lon="12.182771781498223"><ele>380.79999999999995</ele><time>2026-03-29T10:37:17.999Z</time></trkpt><trkpt lat="43.124494836596305" lon="12.182838236680777"><ele>382.59999999999997</ele><time>2026-03-29T10:37:18.999Z</time></trkpt><trkpt lat="43.12439011646008" lon="12.182889984620196"><ele>384.4</ele><time>2026-03-29T10:37:19.999Z</time></trkpt><trkpt lat="43.1242798555084" lon="12.182906880750336"><ele>386.2</ele><time>2026-03-29T10:37:20.999Z</time></trkpt><trkpt lat="43.12417233890445" lon="12.182913165084246"><ele>388.0</ele><time>2026-03-29T10:37:21.999Z</time></trkpt><trkpt lat="43.12409151008789" lon="12.182958658251303"><ele>388.0</ele><time>2026-03-29T10:37:22.999Z</time></trkpt><trkpt lat="43.124021760013015" lon="12.183031293239756"><ele>388.0</ele><time>2026-03-29T10:37:23.999Z</time></trkpt><trkpt lat="43.12396772635558" lon="12.183091190469558"><ele>388.0</ele><time>2026-03-29T10:37:24.998Z</time></trkpt><trkpt lat="43.123840947045004" lon="12.183043810818333"><ele>388.0</ele><time>2026-03-29T10:37:26.998Z</time></trkpt><trkpt lat="43.12375706979154" lon="12.183008656086583"><ele>388.0</ele><time>2026-03-29T10:37:27.998Z</time></trkpt><trkpt lat="43.1236597911914" lon="12.183026111832842"><ele>388.00000000000006</ele><time>2026-03-29T10:37:28.998Z</time></trkpt><trkpt lat="43.12358720331749" lon="12.183072528114584"><ele>388.0</ele><time>2026-03-29T10:37:29.998Z</time></trkpt><trkpt lat="43.12353590653167" lon="12.183150578226265"><ele>388.0</ele><time>2026-03-29T10:37:30.998Z</time></trkpt><trkpt lat="43.12349812139102" lon="12.183258925732291"><ele>388.0</ele><time>2026-03-29T10:37:31.998Z</time></trkpt><trkpt lat="43.12346381241878" lon="12.183382700503616"><ele>388.00000000000006</ele><time>2026-03-29T10:37:32.998Z</time></trkpt><trkpt lat="43.12341589941094" lon="12.183446953096865"><ele>388.0</ele><time>2026-03-29T10:37:33.998Z</time></trkpt><trkpt lat="43.12333938663911" lon="12.183580842192546"><ele>389.0</ele><time>2026-03-29T10:37:35.998Z</time></trkpt><trkpt lat="43.12332223731008" lon="12.183720150717402"><ele>390.0</ele><time>2026-03-29T10:37:37.998Z</time></trkpt><trkpt lat="43.12316685504693" lon="12.183709868331432"><ele>391.0</ele><time>2026-03-29T10:37:40Z</time></trkpt><trkpt lat="43.123081858892945" lon="12.183753677614988"><ele>392.0</ele><time>2026-03-29T10:37:41Z</time></trkpt><trkpt lat="43.12299201299434" lon="12.183824569168973"><ele>392.0</ele><time>2026-03-29T10:37:42Z</time></trkpt><trkpt lat="43.122879733821286" lon="12.183853209230257"><ele>392.0</ele><time>2026-03-29T10:37:43Z</time></trkpt><trkpt lat="43.12273249835369" lon="12.18388770893728"><ele>392.0</ele><time>2026-03-29T10:37:44Z</time></trkpt><trkpt lat="43.122587476242416" lon="12.183924829857725"><ele>392.0</ele><time>2026-03-29T10:37:45Z</time></trkpt><trkpt lat="43.12247520798184" lon="12.183949702050093"><ele>392.40000000000003</ele><time>2026-03-29T10:37:46Z</time></trkpt><trkpt lat="43.12239317860511" lon="12.183989542583205"><ele>392.8</ele><time>2026-03-29T10:37:47Z</time></trkpt><trkpt lat="43.122321715362204" lon="12.184057920012906"><ele>393.2</ele><time>2026-03-29T10:37:48Z</time></trkpt><trkpt lat="43.12224844178442" lon="12.184166372766192"><ele>393.6</ele><time>2026-03-29T10:37:49Z</time></trkpt><trkpt lat="43.12217802469915" lon="12.184277805712838"><ele>394.0</ele><time>2026-03-29T10:37:50Z</time></trkpt><trkpt lat="43.122117743316785" lon="12.184378300443562"><ele>396.2</ele><time>2026-03-29T10:37:51Z</time></trkpt><trkpt lat="43.12206778634253" lon="12.184478643436051"><ele>398.4</ele><time>2026-03-29T10:37:52Z</time></trkpt><trkpt lat="43.12203350840627" lon="12.184584521156976"><ele>400.6</ele><time>2026-03-29T10:37:53Z</time></trkpt><trkpt lat="43.122007351220155" lon="12.1847196663898"><ele>402.8</ele><time>2026-03-29T10:37:54Z</time></trkpt><trkpt lat="43.12197558979205" lon="12.184869654835067"><ele>405.0</ele><time>2026-03-29T10:37:55Z</time></trkpt><trkpt lat="43.12194102430804" lon="12.185006460521612"><ele>405.0</ele><time>2026-03-29T10:37:56Z</time></trkpt><trkpt lat="43.121890023726785" lon="12.18512035027638"><ele>405.0</ele><time>2026-03-29T10:37:57Z</time></trkpt><trkpt lat="43.12182429599908" lon="12.185192597420036"><ele>405.0</ele><time>2026-03-29T10:37:58Z</time></trkpt><trkpt lat="43.12174275279297" lon="12.185247192860684"><ele>405.0</ele><time>2026-03-29T10:37:59Z</time></trkpt><trkpt lat="43.121644280551465" lon="12.185323992003994"><ele>405.0</ele><time>2026-03-29T10:38:00Z</time></trkpt><trkpt lat="43.12155801986125" lon="12.185387429208825"><ele>372.0</ele><time>2026-03-29T10:38:01Z</time></trkpt><trkpt lat="43.11875052399467" lon="12.188655281909515"><ele>372.0</ele><time>2026-03-29T10:39:01.999Z</time></trkpt><trkpt lat="43.118680978760764" lon="12.18870386027096"><ele>372.0</ele><time>2026-03-29T10:39:02.999Z</time></trkpt><trkpt lat="43.11862064189503" lon="12.188755233543498"><ele>372.0</ele><time>2026-03-29T10:39:03.999Z</time></trkpt><trkpt lat="43.1185253891856" lon="12.188851593606879"><ele>372.0</ele><time>2026-03-29T10:39:05.999Z</time></trkpt><trkpt lat="43.11846713405419" lon="12.188906229056323"><ele>372.0</ele><time>2026-03-29T10:39:06.999Z</time></trkpt><trkpt lat="43.11840797370022" lon="12.188941565481493"><ele>372.0</ele><time>2026-03-29T10:39:07.999Z</time></trkpt><trkpt lat="43.11832794770579" lon="12.18893969516551"><ele>372.0</ele><time>2026-03-29T10:39:08.999Z</time></trkpt><trkpt lat="43.11825450940344" lon="12.188999421023826"><ele>372.0</ele><time>2026-03-29T10:39:09.999Z</time></trkpt><trkpt lat="43.11817133402274" lon="12.189024290618491"><ele>372.0</ele><time>2026-03-29T10:39:10.999Z</time></trkpt><trkpt lat="43.11806050889858" lon="12.189034717996343"><ele>372.0</ele><time>2026-03-29T10:39:11.999Z</time></trkpt><trkpt lat="43.11797934295125" lon="12.18903240317635"><ele>372.0</ele><time>2026-03-29T10:39:13.999Z</time></trkpt><trkpt lat="43.117858372498326" lon="12.189095425730775"><ele>373.20000000000005</ele><time>2026-03-29T10:39:15.999Z</time></trkpt><trkpt lat="43.117749489871194" lon="12.189086739246939"><ele>374.4</ele><time>2026-03-29T10:39:16.999Z</time></trkpt><trkpt lat="43.11765310131804" lon="12.189061626563129"><ele>375.6</ele><time>2026-03-29T10:39:17.999Z</time></trkpt><trkpt lat="43.117576703073695" lon="12.189049052644778"><ele>376.79999999999995</ele><time>2026-03-29T10:39:18.999Z</time></trkpt><trkpt lat="43.11750993875144" lon="12.18904198149561"><ele>378.0</ele><time>2026-03-29T10:39:19.999Z</time></trkpt><trkpt lat="43.117422471158676" lon="12.189105096492131"><ele>374.59999999999997</ele><time>2026-03-29T10:39:21.999Z</time></trkpt><trkpt lat="43.11732681489787" lon="12.189189308923085"><ele>371.2</ele><time>2026-03-29T10:39:23.999Z</time></trkpt><trkpt lat="43.117255159529435" lon="12.189213086267678"><ele>367.8</ele><time>2026-03-29T10:39:24.999Z</time></trkpt><trkpt lat="43.117191954191014" lon="12.189248317656672"><ele>364.4</ele><time>2026-03-29T10:39:25.998Z</time></trkpt><trkpt lat="43.11712466644635" lon="12.18936273464881"><ele>361.0</ele><time>2026-03-29T10:39:27.998Z</time></trkpt><trkpt lat="43.11704342773177" lon="12.189404087037618"><ele>361.0</ele><time>2026-03-29T10:39:29.998Z</time></trkpt><trkpt lat="43.116988882517155" lon="12.1894532610499"><ele>361.0</ele><time>2026-03-29T10:39:31.998Z</time></trkpt><trkpt lat="43.11699249729442" lon="12.189554700936904"><ele>361.0</ele><time>2026-03-29T10:39:33.998Z</time></trkpt><trkpt lat="43.11693808929885" lon="12.18965903314788"><ele>361.0</ele><time>2026-03-29T10:39:35.998Z</time></trkpt><trkpt lat="43.11689843576223" lon="12.189750567826605"><ele>361.0</ele><time>2026-03-29T10:39:36.998Z</time></trkpt><trkpt lat="43.116880973972485" lon="12.189847588007163"><ele>361.0</ele><time>2026-03-29T10:39:37.998Z</time></trkpt><trkpt lat="43.11688752967604" lon="12.19001538901839"><ele>361.5</ele><time>2026-03-29T10:39:39.998Z</time></trkpt><trkpt lat="43.11682295598245" lon="12.190158524231704"><ele>362.0</ele><time>2026-03-29T10:39:41.998Z</time></trkpt><trkpt lat="43.116777036361675" lon="12.190232459249069"><ele>362.5</ele><time>2026-03-29T10:39:42.998Z</time></trkpt><trkpt lat="43.11672455975552" lon="12.190290696871807"><ele>363.0</ele><time>2026-03-29T10:39:44Z</time></trkpt><trkpt lat="43.116666093059294" lon="12.190349161700508"><ele>363.5</ele><time>2026-03-29T10:39:45Z</time></trkpt><trkpt lat="43.116604564695784" lon="12.190419767840435"><ele>364.0</ele><time>2026-03-29T10:39:46Z</time></trkpt><trkpt lat="43.11653615375762" lon="12.190519705156156"><ele>364.2</ele><time>2026-03-29T10:39:48Z</time></trkpt><trkpt lat="43.116461377613774" lon="12.190651274596142"><ele>364.4</ele><time>2026-03-29T10:39:50Z</time></trkpt><trkpt lat="43.116408193607654" lon="12.190729444151163"><ele>364.6</ele><time>2026-03-29T10:39:51Z</time></trkpt><trkpt lat="43.11635615272708" lon="12.19082264420221"><ele>364.8</ele><time>2026-03-29T10:39:52Z</time></trkpt><trkpt lat="43.116318060938795" lon="12.19093575164842"><ele>365.0</ele><time>2026-03-29T10:39:53Z</time></trkpt><trkpt lat="43.11629445104619" lon="12.191040003070636"><ele>365.0</ele><time>2026-03-29T10:39:54Z</time></trkpt><trkpt lat="43.11625054170648" lon="12.191171450580018"><ele>365.0</ele><time>2026-03-29T10:39:56Z</time></trkpt><trkpt lat="43.11611624044906" lon="12.191276196270838"><ele>365.0</ele><time>2026-03-29T10:39:58Z</time></trkpt><trkpt lat="43.11605124293644" lon="12.191371175745363"><ele>365.0</ele><time>2026-03-29T10:39:59Z</time></trkpt><trkpt lat="43.11600269722649" lon="12.191522769674576"><ele>361.5</ele><time>2026-03-29T10:40:00Z</time></trkpt><trkpt lat="43.11595620461862" lon="12.191660500137887"><ele>358.0</ele><time>2026-03-29T10:40:01Z</time></trkpt><trkpt lat="43.11768756976023" lon="12.196016467086297"><ele>343.4</ele><time>2026-03-29T10:41:01.999Z</time></trkpt><trkpt lat="43.11778704816054" lon="12.196018098082142"><ele>328.79999999999995</ele><time>2026-03-29T10:41:02.999Z</time></trkpt><trkpt lat="43.11787642982706" lon="12.196053217722799"><ele>314.2</ele><time>2026-03-29T10:41:03.999Z</time></trkpt><trkpt lat="43.1179521657367" lon="12.196117384156805"><ele>299.6</ele><time>2026-03-29T10:41:04.999Z</time></trkpt><trkpt lat="43.11802060815021" lon="12.196224041675526"><ele>285.0</ele><time>2026-03-29T10:41:05.999Z</time></trkpt><trkpt lat="43.11807462236867" lon="12.19634697310582"><ele>285.0</ele><time>2026-03-29T10:41:06.999Z</time></trkpt><trkpt lat="43.118104592532895" lon="12.196487553931586"><ele>285.0</ele><time>2026-03-29T10:41:07.999Z</time></trkpt><trkpt lat="43.118122543365374" lon="12.196609537093872"><ele>285.0</ele><time>2026-03-29T10:41:08.999Z</time></trkpt><trkpt lat="43.11812574898722" lon="12.196729895643113"><ele>285.0</ele><time>2026-03-29T10:41:09.999Z</time></trkpt><trkpt lat="43.11811594532499" lon="12.196874794272066"><ele>285.0</ele><time>2026-03-29T10:41:10.999Z</time></trkpt><trkpt lat="43.11808681085598" lon="12.197010811780617"><ele>284.3333333333333</ele><time>2026-03-29T10:41:11.999Z</time></trkpt><trkpt lat="43.11804414421642" lon="12.197127955435933"><ele>283.6666666666667</ele><time>2026-03-29T10:41:12.999Z</time></trkpt><trkpt lat="43.11799258496652" lon="12.197223582345735"><ele>283.0</ele><time>2026-03-29T10:41:13.999Z</time></trkpt><trkpt lat="43.117931800480655" lon="12.197304057321368"><ele>282.33333333333337</ele><time>2026-03-29T10:41:14.999Z</time></trkpt><trkpt lat="43.1178891580741" lon="12.19739290914796"><ele>281.6666666666667</ele><time>2026-03-29T10:41:15.999Z</time></trkpt><trkpt lat="43.11787164468043" lon="12.197514633511851"><ele>281.0</ele><time>2026-03-29T10:41:16.999Z</time></trkpt><trkpt lat="43.117903723945744" lon="12.197654167599147"><ele>277.33333333333337</ele><time>2026-03-29T10:41:17.999Z</time></trkpt><trkpt lat="43.117921614478306" lon="12.197819096631346"><ele>273.6666666666667</ele><time>2026-03-29T10:41:18.999Z</time></trkpt><trkpt lat="43.11793947754947" lon="12.198058967157895"><ele>270.0</ele><time>2026-03-29T10:41:19.999Z</time></trkpt><trkpt lat="43.11793299189034" lon="12.198335553976033"><ele>264.0</ele><time>2026-03-29T10:41:20.999Z</time></trkpt><trkpt lat="43.1179444918162" lon="12.198631187221025"><ele>258.0</ele><time>2026-03-29T10:41:21.999Z</time></trkpt><trkpt lat="43.1179933740904" lon="12.198950240854366"><ele>256.0</ele><time>2026-03-29T10:41:22.999Z</time></trkpt><trkpt lat="43.118030501724306" lon="12.199250976687983"><ele>254.0</ele><time>2026-03-29T10:41:23.999Z</time></trkpt><trkpt lat="43.11804704310888" lon="12.1995515675766"><ele>252.0</ele><time>2026-03-29T10:41:24.999Z</time></trkpt><trkpt lat="43.11806769225707" lon="12.199826929321578"><ele>251.0</ele><time>2026-03-29T10:41:25.999Z</time></trkpt><trkpt lat="43.118081688943626" lon="12.200013578761338"><ele>250.0</ele><time>2026-03-29T10:41:26.999Z</time></trkpt><trkpt lat="43.118093959955246" lon="12.200177215927095"><ele>249.0</ele><time>2026-03-29T10:41:27.999Z</time></trkpt><trkpt lat="43.11810391627798" lon="12.20031648101393"><ele>248.0</ele><time>2026-03-29T10:41:28.998Z</time></trkpt><trkpt lat="43.118113155227874" lon="12.200427416013856"><ele>247.0</ele><time>2026-03-29T10:41:29.998Z</time></trkpt><trkpt lat="43.118136592463024" lon="12.200542268922206"><ele>246.99999999999997</ele><time>2026-03-29T10:41:31.998Z</time></trkpt><trkpt lat="43.11816758953504" lon="12.200618742660287"><ele>247.0</ele><time>2026-03-29T10:41:36.998Z</time></trkpt><trkpt lat="43.11821735090092" lon="12.200689603342205"><ele>247.0</ele><time>2026-03-29T10:41:44.998Z</time></trkpt><trkpt lat="43.118275263546906" lon="12.20073045007711"><ele>247.0</ele><time>2026-03-29T10:41:45.998Z</time></trkpt><trkpt lat="43.118334150983046" lon="12.200770339882459"><ele>246.99999999999997</ele><time>2026-03-29T10:41:46.998Z</time></trkpt><trkpt lat="43.11837031108781" lon="12.200867880416187"><ele>247.0</ele><time>2026-03-29T10:41:47.998Z</time></trkpt><trkpt lat="43.11836617770047" lon="12.201057469137169"><ele>245.66666666666666</ele><time>2026-03-29T10:41:48.998Z</time></trkpt><trkpt lat="43.11835287171112" lon="12.201322984643193"><ele>244.33333333333331</ele><time>2026-03-29T10:41:50Z</time></trkpt><trkpt lat="43.118341443984875" lon="12.201628643065648"><ele>243.0</ele><time>2026-03-29T10:41:51Z</time></trkpt><trkpt lat="43.11835335981712" lon="12.201967598784242"><ele>242.5</ele><time>2026-03-29T10:41:52Z</time></trkpt><trkpt lat="43.11836058079587" lon="12.202330835288588"><ele>242.0</ele><time>2026-03-29T10:41:53Z</time></trkpt><trkpt lat="43.11835815839814" lon="12.202682792138928"><ele>242.0</ele><time>2026-03-29T10:41:54Z</time></trkpt><trkpt lat="43.11836525910879" lon="12.202961586796201"><ele>242.0</ele><time>2026-03-29T10:41:55Z</time></trkpt><trkpt lat="43.11837209524156" lon="12.203144153002265"><ele>242.0</ele><time>2026-03-29T10:41:56Z</time></trkpt><trkpt lat="43.11836254433808" lon="12.20324443588282"><ele>242.0</ele><time>2026-03-29T10:41:57Z</time></trkpt><trkpt lat="43.118307583564906" lon="12.203298979727297"><ele>242.5</ele><time>2026-03-29T10:41:58Z</time></trkpt><trkpt lat="43.118220698729196" lon="12.203337429761278"><ele>243.0</ele><time>2026-03-29T10:41:59Z</time></trkpt><trkpt lat="43.118097050109434" lon="12.203344517125702"><ele>243.5</ele><time>2026-03-29T10:42:00Z</time></trkpt><trkpt lat="43.11796968709037" lon="12.20341763594873"><ele>244.0</ele><time>2026-03-29T10:42:01Z</time></trkpt><trkpt lat="43.11583718505548" lon="12.212891284416761"><ele>251.25</ele><time>2026-03-29T10:43:01.999Z</time></trkpt><trkpt lat="43.1158408968432" lon="12.213020245094455"><ele>258.5</ele><time>2026-03-29T10:43:02.999Z</time></trkpt><trkpt lat="43.11591490815743" lon="12.213136703886816"><ele>265.75</ele><time>2026-03-29T10:43:03.999Z</time></trkpt><trkpt lat="43.11600808670467" lon="12.213268401505328"><ele>273.0</ele><time>2026-03-29T10:43:04.999Z</time></trkpt><trkpt lat="43.116118894457294" lon="12.213420849617584"><ele>273.0</ele><time>2026-03-29T10:43:05.999Z</time></trkpt><trkpt lat="43.11621738632833" lon="12.213571073084845"><ele>273.0</ele><time>2026-03-29T10:43:06.999Z</time></trkpt><trkpt lat="43.116255925018145" lon="12.213688465591407"><ele>273.0</ele><time>2026-03-29T10:43:07.999Z</time></trkpt><trkpt lat="43.11626796384723" lon="12.213781173658473"><ele>273.0</ele><time>2026-03-29T10:43:09.999Z</time></trkpt><trkpt lat="43.116103208078364" lon="12.213860229154534"><ele>273.0</ele><time>2026-03-29T10:43:12.999Z</time></trkpt><trkpt lat="43.11600366172246" lon="12.213886940738291"><ele>273.0</ele><time>2026-03-29T10:43:13.999Z</time></trkpt><trkpt lat="43.115884897650034" lon="12.213912544824808"><ele>273.0</ele><time>2026-03-29T10:43:14.999Z</time></trkpt><trkpt lat="43.115763052175595" lon="12.213932972489964"><ele>273.0</ele><time>2026-03-29T10:43:15.999Z</time></trkpt><trkpt lat="43.115665773550354" lon="12.213951853457125"><ele>273.0</ele><time>2026-03-29T10:43:16.999Z</time></trkpt><trkpt lat="43.11560033094576" lon="12.213986272485517"><ele>275.5</ele><time>2026-03-29T10:43:17.999Z</time></trkpt><trkpt lat="43.11555434917301" lon="12.21405141414578"><ele>278.0</ele><time>2026-03-29T10:43:18.999Z</time></trkpt><trkpt lat="43.11552376814455" lon="12.214135688030666"><ele>280.5</ele><time>2026-03-29T10:43:19.999Z</time></trkpt><trkpt lat="43.115497963497994" lon="12.214227917880201"><ele>283.0</ele><time>2026-03-29T10:43:20.999Z</time></trkpt><trkpt lat="43.11548838683385" lon="12.214314475744448"><ele>285.5</ele><time>2026-03-29T10:43:21.999Z</time></trkpt><trkpt lat="43.11550074099818" lon="12.214423319673832"><ele>288.0</ele><time>2026-03-29T10:43:22.999Z</time></trkpt><trkpt lat="43.1155237420819" lon="12.214569483777057"><ele>288.0</ele><time>2026-03-29T10:43:23.999Z</time></trkpt><trkpt lat="43.115538727518825" lon="12.214694233628515"><ele>288.0</ele><time>2026-03-29T10:43:24.999Z</time></trkpt><trkpt lat="43.11562243066739" lon="12.214793271825583"><ele>288.0</ele><time>2026-03-29T10:43:26.999Z</time></trkpt><trkpt lat="43.11569405864705" lon="12.214844749517871"><ele>288.0</ele><time>2026-03-29T10:43:27.999Z</time></trkpt><trkpt lat="43.11576285870312" lon="12.214914825770359"><ele>288.0</ele><time>2026-03-29T10:43:28.999Z</time></trkpt><trkpt lat="43.11584393333882" lon="12.21500672852404"><ele>287.0</ele><time>2026-03-29T10:43:29.999Z</time></trkpt><trkpt lat="43.1159463292114" lon="12.21510720758818"><ele>286.0</ele><time>2026-03-29T10:43:30.999Z</time></trkpt><trkpt lat="43.116072820861824" lon="12.215206677284007"><ele>285.0</ele><time>2026-03-29T10:43:31.999Z</time></trkpt><trkpt lat="43.11618836530156" lon="12.215316989153791"><ele>284.0</ele><time>2026-03-29T10:43:32.999Z</time></trkpt><trkpt lat="43.11628942230196" lon="12.215432884859714"><ele>284.0</ele><time>2026-03-29T10:43:33.998Z</time></trkpt><trkpt lat="43.116374496069135" lon="12.215542918839388"><ele>284.0</ele><time>2026-03-29T10:43:34.998Z</time></trkpt><trkpt lat="43.11645762815983" lon="12.21563165745177"><ele>284.0</ele><time>2026-03-29T10:43:35.998Z</time></trkpt><trkpt lat="43.116397404055796" lon="12.215697095469668"><ele>284.0</ele><time>2026-03-29T10:43:40.998Z</time></trkpt><trkpt lat="43.11631826812779" lon="12.215704392106316"><ele>284.0</ele><time>2026-03-29T10:43:41.998Z</time></trkpt><trkpt lat="43.11623430628656" lon="12.215706074494628"><ele>286.4</ele><time>2026-03-29T10:43:42.998Z</time></trkpt><trkpt lat="43.116118379685055" lon="12.215720554326422"><ele>288.79999999999995</ele><time>2026-03-29T10:43:43.998Z</time></trkpt><trkpt lat="43.11601552646032" lon="12.215736062353729"><ele>291.20000000000005</ele><time>2026-03-29T10:43:44.998Z</time></trkpt><trkpt lat="43.115904824670565" lon="12.21577758859446"><ele>293.6</ele><time>2026-03-29T10:43:45.998Z</time></trkpt><trkpt lat="43.11579272667399" lon="12.215809423994806"><ele>296.0</ele><time>2026-03-29T10:43:46.998Z</time></trkpt><trkpt lat="43.11569961962501" lon="12.215858750022612"><ele>296.6</ele><time>2026-03-29T10:43:47.998Z</time></trkpt><trkpt lat="43.11562130921699" lon="12.215925637867795"><ele>297.20000000000005</ele><time>2026-03-29T10:43:48.998Z</time></trkpt><trkpt lat="43.115519344291606" lon="12.215986414128785"><ele>297.79999999999995</ele><time>2026-03-29T10:43:49.998Z</time></trkpt><trkpt lat="43.11543535319652" lon="12.216056546621717"><ele>298.4</ele><time>2026-03-29T10:43:50.998Z</time></trkpt><trkpt lat="43.115356203223804" lon="12.21610896522782"><ele>299.0</ele><time>2026-03-29T10:43:51.998Z</time></trkpt><trkpt lat="43.115272520430345" lon="12.216138896340315"><ele>299.0</ele><time>2026-03-29T10:43:52.998Z</time></trkpt><trkpt lat="43.115186146212906" lon="12.216190609897861"><ele>299.0</ele><time>2026-03-29T10:43:53.998Z</time></trkpt><trkpt lat="43.115130240436514" lon="12.216267687328644"><ele>299.0</ele><time>2026-03-29T10:43:54.998Z</time></trkpt><trkpt lat="43.11509036013351" lon="12.21638743249124"><ele>299.0</ele><time>2026-03-29T10:43:56Z</time></trkpt><trkpt lat="43.115022997314746" lon="12.216484130199852"><ele>299.0</ele><time>2026-03-29T10:43:57Z</time></trkpt><trkpt lat="43.114969852439025" lon="12.216560084537829"><ele>299.0</ele><time>2026-03-29T10:43:58Z</time></trkpt><trkpt lat="43.11489073762384" lon="12.216683532833525"><ele>307.5</ele><time>2026-03-29T10:44:00Z</time></trkpt><trkpt lat="43.11484602698934" lon="12.216749043303782"><ele>316.0</ele><time>2026-03-29T10:44:01Z</time></trkpt><trkpt lat="43.1141510940521" lon="12.220066377896925"><ele>329.20000000000005</ele><time>2026-03-29T10:45:01.999Z</time></trkpt><trkpt lat="43.11402780312223" lon="12.220119457745486"><ele>342.40000000000003</ele><time>2026-03-29T10:45:02.999Z</time></trkpt><trkpt lat="43.11394569414257" lon="12.220167307527705"><ele>355.6</ele><time>2026-03-29T10:45:03.999Z</time></trkpt><trkpt lat="43.11388500158183" lon="12.220138970542743"><ele>368.8</ele><time>2026-03-29T10:45:04.999Z</time></trkpt><trkpt lat="43.113768635447975" lon="12.220106801473369"><ele>382.0</ele><time>2026-03-29T10:45:05.999Z</time></trkpt><trkpt lat="43.113629880580326" lon="12.220170007615732"><ele>382.0</ele><time>2026-03-29T10:45:06.999Z</time></trkpt><trkpt lat="43.11350782774921" lon="12.220212805824053"><ele>382.0</ele><time>2026-03-29T10:45:07.999Z</time></trkpt><trkpt lat="43.11340865160882" lon="12.22020588350367"><ele>382.0</ele><time>2026-03-29T10:45:08.999Z</time></trkpt><trkpt lat="43.113330177156996" lon="12.220282673365913"><ele>382.0</ele><time>2026-03-29T10:45:10.999Z</time></trkpt><trkpt lat="43.11340628610131" lon="12.220429680361692"><ele>382.0</ele><time>2026-03-29T10:45:12.999Z</time></trkpt><trkpt lat="43.113441786515224" lon="12.220510143195568"><ele>382.0</ele><time>2026-03-29T10:45:13.999Z</time></trkpt><trkpt lat="43.11344175005967" lon="12.220671985365007"><ele>382.0</ele><time>2026-03-29T10:45:16.999Z</time></trkpt><trkpt lat="43.11341097031353" lon="12.22075723942503"><ele>382.0</ele><time>2026-03-29T10:45:17.999Z</time></trkpt><trkpt lat="43.11304290756622" lon="12.220551508767553"><ele>383.8</ele><time>2026-03-29T10:45:18.999Z</time></trkpt><trkpt lat="43.11301118278861" lon="12.22063421300322"><ele>385.6</ele><time>2026-03-29T10:45:19.999Z</time></trkpt><trkpt lat="43.113092123195926" lon="12.220667311803213"><ele>387.40000000000003</ele><time>2026-03-29T10:45:21.999Z</time></trkpt><trkpt lat="43.113202283520636" lon="12.220697883661314"><ele>389.20000000000005</ele><time>2026-03-29T10:45:23.999Z</time></trkpt><trkpt lat="43.11331516852546" lon="12.220719937647567"><ele>391.0</ele><time>2026-03-29T10:45:24.999Z</time></trkpt><trkpt lat="43.1134056787924" lon="12.220818405298594"><ele>393.0</ele><time>2026-03-29T10:45:25.999Z</time></trkpt><trkpt lat="43.11347267850061" lon="12.22092045886177"><ele>395.0</ele><time>2026-03-29T10:45:26.999Z</time></trkpt><trkpt lat="43.11355971579845" lon="12.221026438144891"><ele>397.0</ele><time>2026-03-29T10:45:28.999Z</time></trkpt><trkpt lat="43.11366558146129" lon="12.221138438141415"><ele>399.0</ele><time>2026-03-29T10:45:29.999Z</time></trkpt><trkpt lat="43.113695629256135" lon="12.221421235313764"><ele>399.0</ele><time>2026-03-29T10:45:30.999Z</time></trkpt><trkpt lat="43.11382684415388" lon="12.221451983289006"><ele>399.0</ele><time>2026-03-29T10:45:31.999Z</time></trkpt><trkpt lat="43.11395162339" lon="12.22153693376904"><ele>399.0</ele><time>2026-03-29T10:45:32.999Z</time></trkpt><trkpt lat="43.11408405083813" lon="12.221649201962888"><ele>399.0</ele><time>2026-03-29T10:45:33.999Z</time></trkpt><trkpt lat="43.1142294290846" lon="12.221767573366863"><ele>399.0</ele><time>2026-03-29T10:45:34.998Z</time></trkpt><trkpt lat="43.11429968049808" lon="12.221898157277217"><ele>399.0</ele><time>2026-03-29T10:45:35.998Z</time></trkpt><trkpt lat="43.11436257693203" lon="12.222025068711002"><ele>399.0</ele><time>2026-03-29T10:45:36.998Z</time></trkpt><trkpt lat="43.1145606097581" lon="12.222396751004094"><ele>401.4</ele><time>2026-03-29T10:45:37.998Z</time></trkpt><trkpt lat="43.11454306111671" lon="12.222508965731159"><ele>403.79999999999995</ele><time>2026-03-29T10:45:38.998Z</time></trkpt><trkpt lat="43.114508783453786" lon="12.222623107106891"><ele>406.20000000000005</ele><time>2026-03-29T10:45:39.998Z</time></trkpt><trkpt lat="43.11446993017519" lon="12.222778254111981"><ele>408.6</ele><time>2026-03-29T10:45:40.998Z</time></trkpt><trkpt lat="43.114465106624685" lon="12.222873713772055"><ele>411.0</ele><time>2026-03-29T10:45:41.998Z</time></trkpt><trkpt lat="43.114588174927675" lon="12.222994133755138"><ele>411.0</ele><time>2026-03-29T10:45:43.998Z</time></trkpt><trkpt lat="43.11467636566465" lon="12.222936408253817"><ele>411.0</ele><time>2026-03-29T10:45:44.998Z</time></trkpt><trkpt lat="43.114953834652006" lon="12.222910777867899"><ele>411.0</ele><time>2026-03-29T10:45:46.998Z</time></trkpt><trkpt lat="43.115128622135764" lon="12.222880431460947"><ele>403.0</ele><time>2026-03-29T10:45:47.998Z</time></trkpt><trkpt lat="43.1153285783289" lon="12.22285691934877"><ele>395.0</ele><time>2026-03-29T10:45:48.998Z</time></trkpt><trkpt lat="43.11553933623812" lon="12.222827327209258"><ele>387.0</ele><time>2026-03-29T10:45:49.998Z</time></trkpt><trkpt lat="43.11571166234402" lon="12.222773275299097"><ele>383.5</ele><time>2026-03-29T10:45:50.998Z</time></trkpt><trkpt lat="43.11585895176392" lon="12.222756427722834"><ele>380.0</ele><time>2026-03-29T10:45:51.998Z</time></trkpt><trkpt lat="43.115969730005915" lon="12.222784327528926"><ele>376.5</ele><time>2026-03-29T10:45:52.998Z</time></trkpt><trkpt lat="43.11606524203853" lon="12.22282060091689"><ele>373.0</ele><time>2026-03-29T10:45:53.998Z</time></trkpt><trkpt lat="43.1161969440799" lon="12.222852906082277"><ele>373.0</ele><time>2026-03-29T10:45:54.998Z</time></trkpt><trkpt lat="43.11635330455486" lon="12.222919429579823"><ele>373.0</ele><time>2026-03-29T10:45:55.998Z</time></trkpt><trkpt lat="43.11651256113585" lon="12.22293913276947"><ele>373.0</ele><time>2026-03-29T10:45:56.998Z</time></trkpt><trkpt lat="43.116705224345516" lon="12.222942210387174"><ele>371.0</ele><time>2026-03-29T10:45:57.998Z</time></trkpt><trkpt lat="43.116913612077994" lon="12.222937247409522"><ele>369.0</ele><time>2026-03-29T10:45:58.998Z</time></trkpt><trkpt lat="43.11708288620198" lon="12.22294114668473"><ele>367.0</ele><time>2026-03-29T10:45:59.998Z</time></trkpt><trkpt lat="43.11722200507982" lon="12.22295697860294"><ele>410.0</ele><time>2026-03-29T10:46:00.998Z</time></trkpt><trkpt lat="43.116070316156716" lon="12.224457406359662"><ele>410.0</ele><time>2026-03-29T10:47:01.999Z</time></trkpt><trkpt lat="43.115942324108126" lon="12.22448768446581"><ele>410.0</ele><time>2026-03-29T10:47:03.999Z</time></trkpt><trkpt lat="43.11584214214721" lon="12.224519608379374"><ele>410.0</ele><time>2026-03-29T10:47:04.999Z</time></trkpt><trkpt lat="43.1157243494635" lon="12.224551682856196"><ele>410.0</ele><time>2026-03-29T10:47:05.999Z</time></trkpt><trkpt lat="43.115601690014" lon="12.224568150528246"><ele>411.49999999999994</ele><time>2026-03-29T10:47:06.999Z</time></trkpt><trkpt lat="43.115487005409165" lon="12.224584032161896"><ele>413.0</ele><time>2026-03-29T10:47:07.999Z</time></trkpt><trkpt lat="43.115389845697365" lon="12.224597806614453"><ele>414.5</ele><time>2026-03-29T10:47:08.999Z</time></trkpt><trkpt lat="43.11529912003414" lon="12.224594993506635"><ele>416.0</ele><time>2026-03-29T10:47:11.999Z</time></trkpt><trkpt lat="43.11522667779317" lon="12.224620939006615"><ele>417.49999999999994</ele><time>2026-03-29T10:47:13.999Z</time></trkpt><trkpt lat="43.11515984453683" lon="12.22463041384765"><ele>419.0</ele><time>2026-03-29T10:47:15.999Z</time></trkpt><trkpt lat="43.11509675904504" lon="12.224639357368838"><ele>420.2</ele><time>2026-03-29T10:47:17.999Z</time></trkpt><trkpt lat="43.11500382234868" lon="12.224821493490541"><ele>421.4</ele><time>2026-03-29T10:47:20.999Z</time></trkpt><trkpt lat="43.1149471747163" lon="12.224873567125256"><ele>422.6</ele><time>2026-03-29T10:47:21.999Z</time></trkpt><trkpt lat="43.11487799387861" lon="12.224939291217787"><ele>423.8</ele><time>2026-03-29T10:47:22.999Z</time></trkpt><trkpt lat="43.11482048699475" lon="12.224989426368076"><ele>425.0</ele><time>2026-03-29T10:47:23.999Z</time></trkpt><trkpt lat="43.11474361104623" lon="12.225058995088283"><ele>428.25</ele><time>2026-03-29T10:47:25.999Z</time></trkpt><trkpt lat="43.114703180806195" lon="12.225126636789778"><ele>431.5</ele><time>2026-03-29T10:47:27.999Z</time></trkpt><trkpt lat="43.114608620862015" lon="12.225155818689323"><ele>434.75</ele><time>2026-03-29T10:47:29.999Z</time></trkpt><trkpt lat="43.11453007721002" lon="12.225150502188997"><ele>438.0</ele><time>2026-03-29T10:47:32.999Z</time></trkpt><trkpt lat="43.11429905922652" lon="12.225131327016102"><ele>438.0</ele><time>2026-03-29T10:47:35.999Z</time></trkpt><trkpt lat="43.11419792266733" lon="12.225143086168893"><ele>438.0</ele><time>2026-03-29T10:47:37.999Z</time></trkpt><trkpt lat="43.11413177650313" lon="12.225098796733478"><ele>438.0</ele><time>2026-03-29T10:47:38.998Z</time></trkpt><trkpt lat="43.11405836686079" lon="12.225056492277515"><ele>438.0</ele><time>2026-03-29T10:47:39.998Z</time></trkpt><trkpt lat="43.113999718355174" lon="12.224996914376808"><ele>438.0</ele><time>2026-03-29T10:47:40.998Z</time></trkpt><trkpt lat="43.11389948669268" lon="12.224906725310463"><ele>438.0</ele><time>2026-03-29T10:47:42.998Z</time></trkpt><trkpt lat="43.11381617578169" lon="12.224792896856075"><ele>440.0</ele><time>2026-03-29T10:47:45.998Z</time></trkpt><trkpt lat="43.11375547020056" lon="12.22475130025613"><ele>441.99999999999994</ele><time>2026-03-29T10:47:46.998Z</time></trkpt><trkpt lat="43.11363436339744" lon="12.224681041551015"><ele>443.99999999999994</ele><time>2026-03-29T10:47:48.998Z</time></trkpt><trkpt lat="43.113511218772494" lon="12.224589240691971"><ele>446.0</ele><time>2026-03-29T10:47:50.998Z</time></trkpt><trkpt lat="43.11345581804882" lon="12.224536113958646"><ele>448.0</ele><time>2026-03-29T10:47:51.998Z</time></trkpt><trkpt lat="43.11336081955018" lon="12.224452382254245"><ele>448.0</ele><time>2026-03-29T10:47:53.998Z</time></trkpt><trkpt lat="43.11324378165052" lon="12.224423886634664"><ele>448.0</ele><time>2026-03-29T10:47:55.998Z</time></trkpt><trkpt lat="43.11321722472589" lon="12.224320760432093"><ele>448.0</ele><time>2026-03-29T10:47:59.998Z</time></trkpt><trkpt lat="43.11320331292095" lon="12.224220348152857"><ele>448.0</ele><time>2026-03-29T10:48:00.998Z</time></trkpt><trkpt lat="43.110654296986795" lon="12.223934142259148"><ele>454.4</ele><time>2026-03-29T10:49:01.999Z</time></trkpt><trkpt lat="43.11060394953115" lon="12.223837618097615"><ele>460.79999999999995</ele><time>2026-03-29T10:49:06.999Z</time></trkpt><trkpt lat="43.11052298600828" lon="12.223779926853785"><ele>467.2</ele><time>2026-03-29T10:49:07.999Z</time></trkpt><trkpt lat="43.11043197967019" lon="12.223695238288625"><ele>473.6</ele><time>2026-03-29T10:49:08.999Z</time></trkpt><trkpt lat="43.110335679494625" lon="12.223556803246446"><ele>480.0</ele><time>2026-03-29T10:49:09.999Z</time></trkpt><trkpt lat="43.11025882262403" lon="12.223440005992916"><ele>480.0</ele><time>2026-03-29T10:49:10.999Z</time></trkpt><trkpt lat="43.110202982244736" lon="12.223324933962584"><ele>480.0</ele><time>2026-03-29T10:49:11.999Z</time></trkpt><trkpt lat="43.11013852664502" lon="12.22321699371506"><ele>480.0</ele><time>2026-03-29T10:49:12.999Z</time></trkpt><trkpt lat="43.11008185483972" lon="12.223135187126802"><ele>480.0</ele><time>2026-03-29T10:49:13.999Z</time></trkpt><trkpt lat="43.11004260915991" lon="12.223011129131011"><ele>480.0</ele><time>2026-03-29T10:49:14.999Z</time></trkpt><trkpt lat="43.110003755139964" lon="12.22287290574046"><ele>479.0</ele><time>2026-03-29T10:49:15.999Z</time></trkpt><trkpt lat="43.109963288063916" lon="12.222722480202924"><ele>478.0</ele><time>2026-03-29T10:49:16.999Z</time></trkpt><trkpt lat="43.10993055446547" lon="12.222599902868001"><ele>477.0</ele><time>2026-03-29T10:49:17.999Z</time></trkpt><trkpt lat="43.10990202707752" lon="12.222510452570972"><ele>476.0</ele><time>2026-03-29T10:49:18.999Z</time></trkpt><trkpt lat="43.10986164150191" lon="12.222415427585823"><ele>475.0</ele><time>2026-03-29T10:49:19.999Z</time></trkpt><trkpt lat="43.109791330615195" lon="12.222283319000923"><ele>473.33333333333337</ele><time>2026-03-29T10:49:20.999Z</time></trkpt><trkpt lat="43.10973171319348" lon="12.22216340077968"><ele>471.6666666666667</ele><time>2026-03-29T10:49:21.999Z</time></trkpt><trkpt lat="43.109673530445995" lon="12.22207560714262"><ele>470.0</ele><time>2026-03-29T10:49:22.999Z</time></trkpt><trkpt lat="43.10961232670228" lon="12.222013459545856"><ele>468.33333333333337</ele><time>2026-03-29T10:49:23.999Z</time></trkpt><trkpt lat="43.1095902437737" lon="12.221929490399953"><ele>466.6666666666667</ele><time>2026-03-29T10:49:24.999Z</time></trkpt><trkpt lat="43.109565948632124" lon="12.221828584412162"><ele>465.0</ele><time>2026-03-29T10:49:25.999Z</time></trkpt><trkpt lat="43.10954364996399" lon="12.221726188353268"><ele>465.0</ele><time>2026-03-29T10:49:26.999Z</time></trkpt><trkpt lat="43.109543205531914" lon="12.221621048266325"><ele>465.0</ele><time>2026-03-29T10:49:27.999Z</time></trkpt><trkpt lat="43.10952047878783" lon="12.221530051804551"><ele>465.0</ele><time>2026-03-29T10:49:29.999Z</time></trkpt><trkpt lat="43.10945575647635" lon="12.221502502489487"><ele>465.0</ele><time>2026-03-29T10:49:30.999Z</time></trkpt><trkpt lat="43.1094211468685" lon="12.221382121167938"><ele>465.0</ele><time>2026-03-29T10:49:32.999Z</time></trkpt><trkpt lat="43.10941432346063" lon="12.221239288291477"><ele>465.0</ele><time>2026-03-29T10:49:34.999Z</time></trkpt><trkpt lat="43.10929886270448" lon="12.221185387915922"><ele>463.8333333333333</ele><time>2026-03-29T10:49:36.999Z</time></trkpt><trkpt lat="43.109233510511366" lon="12.221146405211162"><ele>462.66666666666663</ele><time>2026-03-29T10:49:37.999Z</time></trkpt><trkpt lat="43.10914970512655" lon="12.220977943184645"><ele>461.5</ele><time>2026-03-29T10:49:39.999Z</time></trkpt><trkpt lat="43.10909957739736" lon="12.220871163413836"><ele>460.3333333333333</ele><time>2026-03-29T10:49:40.999Z</time></trkpt><trkpt lat="43.10905874083094" lon="12.220796708785482"><ele>459.16666666666663</ele><time>2026-03-29T10:49:41.999Z</time></trkpt><trkpt lat="43.108995615953795" lon="12.220760850954033"><ele>458.0</ele><time>2026-03-29T10:49:42.998Z</time></trkpt><trkpt lat="43.10890988147354" lon="12.220724363452945"><ele>457.2</ele><time>2026-03-29T10:49:43.998Z</time></trkpt><trkpt lat="43.10881139237106" lon="12.220668176339572"><ele>456.4</ele><time>2026-03-29T10:49:44.998Z</time></trkpt><trkpt lat="43.10869687120689" lon="12.220590777994953"><ele>455.59999999999997</ele><time>2026-03-29T10:49:45.998Z</time></trkpt><trkpt lat="43.10861522101671" lon="12.220509401182326"><ele>454.79999999999995</ele><time>2026-03-29T10:49:46.998Z</time></trkpt><trkpt lat="43.10856267302151" lon="12.220408604801"><ele>454.0</ele><time>2026-03-29T10:49:47.998Z</time></trkpt><trkpt lat="43.10851026189126" lon="12.220308255562784"><ele>454.00000000000006</ele><time>2026-03-29T10:49:48.998Z</time></trkpt><trkpt lat="43.108477822892375" lon="12.220209767256117"><ele>454.0</ele><time>2026-03-29T10:49:49.998Z</time></trkpt><trkpt lat="43.10843025450122" lon="12.220127815161694"><ele>454.0</ele><time>2026-03-29T10:49:50.998Z</time></trkpt><trkpt lat="43.108375544838445" lon="12.220062549265968"><ele>454.0</ele><time>2026-03-29T10:49:51.998Z</time></trkpt><trkpt lat="43.108318602990764" lon="12.219989062742558"><ele>454.00000000000006</ele><time>2026-03-29T10:49:52.998Z</time></trkpt><trkpt lat="43.10826157627455" lon="12.219904967951567"><ele>454.0</ele><time>2026-03-29T10:49:53.998Z</time></trkpt><trkpt lat="43.108187879362866" lon="12.21979713604924"><ele>457.0</ele><time>2026-03-29T10:49:54.998Z</time></trkpt><trkpt lat="43.10809360228847" lon="12.219755776178697"><ele>460.0</ele><time>2026-03-29T10:49:55.998Z</time></trkpt><trkpt lat="43.10801986963511" lon="12.219717504202038"><ele>463.0</ele><time>2026-03-29T10:49:56.998Z</time></trkpt><trkpt lat="43.10794936173651" lon="12.2196896567201"><ele>466.0</ele><time>2026-03-29T10:49:58.998Z</time></trkpt><trkpt lat="43.10829516415203" lon="12.22299255675283"><ele>458.4</ele><time>2026-03-29T10:51:01.999Z</time></trkpt><trkpt lat="43.108280235212604" lon="12.223104334565857"><ele>450.8</ele><time>2026-03-29T10:51:04.999Z</time></trkpt><trkpt lat="43.10817630316553" lon="12.222985499256746"><ele>443.19999999999993</ele><time>2026-03-29T10:51:08.999Z</time></trkpt><trkpt lat="43.10809832131628" lon="12.222908948360217"><ele>435.59999999999997</ele><time>2026-03-29T10:51:10.999Z</time></trkpt><trkpt lat="43.108034536899176" lon="12.222808161965249"><ele>428.0</ele><time>2026-03-29T10:51:11.999Z</time></trkpt><trkpt lat="43.107966843998916" lon="12.222725188317039"><ele>423.49999999999994</ele><time>2026-03-29T10:51:12.999Z</time></trkpt><trkpt lat="43.10791128486031" lon="12.222650302251958"><ele>419.0</ele><time>2026-03-29T10:51:13.999Z</time></trkpt><trkpt lat="43.10784034758262" lon="12.222583052768286"><ele>414.5</ele><time>2026-03-29T10:51:14.999Z</time></trkpt><trkpt lat="43.107808550435394" lon="12.222471948453393"><ele>410.0</ele><time>2026-03-29T10:51:15.999Z</time></trkpt><trkpt lat="43.10772291658285" lon="12.2224381794005"><ele>405.49999999999994</ele><time>2026-03-29T10:51:17.999Z</time></trkpt><trkpt lat="43.10773897660242" lon="12.222575612064313"><ele>401.0</ele><time>2026-03-29T10:51:19.999Z</time></trkpt><trkpt lat="43.10777853352056" lon="12.222659669448824"><ele>401.0</ele><time>2026-03-29T10:51:21.999Z</time></trkpt><trkpt lat="43.107804326914014" lon="12.222811602833627"><ele>401.0</ele><time>2026-03-29T10:51:23.999Z</time></trkpt><trkpt lat="43.107840977745994" lon="12.222900824388693"><ele>401.0</ele><time>2026-03-29T10:51:24.999Z</time></trkpt><trkpt lat="43.107879096235834" lon="12.223024339878306"><ele>401.0</ele><time>2026-03-29T10:51:25.999Z</time></trkpt><trkpt lat="43.10791664097416" lon="12.223143660108674"><ele>401.0</ele><time>2026-03-29T10:51:26.999Z</time></trkpt><trkpt lat="43.10796049946932" lon="12.223258585749551"><ele>399.0</ele><time>2026-03-29T10:51:27.999Z</time></trkpt><trkpt lat="43.10797746357773" lon="12.223361341229834"><ele>397.0</ele><time>2026-03-29T10:51:28.999Z</time></trkpt><trkpt lat="43.107864091965055" lon="12.223479158565752"><ele>395.0</ele><time>2026-03-29T10:51:29.999Z</time></trkpt><trkpt lat="43.107869199572875" lon="12.223647018202975"><ele>393.0</ele><time>2026-03-29T10:51:31.999Z</time></trkpt><trkpt lat="43.107875737351186" lon="12.223753514361347"><ele>391.0</ele><time>2026-03-29T10:51:32.999Z</time></trkpt><trkpt lat="43.10785252933433" lon="12.22388581436742"><ele>390.5</ele><time>2026-03-29T10:51:33.999Z</time></trkpt><trkpt lat="43.1078674934215" lon="12.224017174687324"><ele>390.0</ele><time>2026-03-29T10:51:35.999Z</time></trkpt><trkpt lat="43.10791728377659" lon="12.224238666973186"><ele>389.5</ele><time>2026-03-29T10:51:37.999Z</time></trkpt><trkpt lat="43.10789906475521" lon="12.224357350462768"><ele>389.0</ele><time>2026-03-29T10:51:38.999Z</time></trkpt><trkpt lat="43.107912653237015" lon="12.224489860425205"><ele>389.0</ele><time>2026-03-29T10:51:39.999Z</time></trkpt><trkpt lat="43.107964228600125" lon="12.224588546964622"><ele>389.0</ele><time>2026-03-29T10:51:40.999Z</time></trkpt><trkpt lat="43.108062216995094" lon="12.224704990969192"><ele>389.0</ele><time>2026-03-29T10:51:41.999Z</time></trkpt><trkpt lat="43.108122030940415" lon="12.224806868970273"><ele>389.0</ele><time>2026-03-29T10:51:42.999Z</time></trkpt><trkpt lat="43.10813820352995" lon="12.224900435876515"><ele>389.0</ele><time>2026-03-29T10:51:43.999Z</time></trkpt><trkpt lat="43.10815266575736" lon="12.22500960475641"><ele>389.66666666666663</ele><time>2026-03-29T10:51:44.998Z</time></trkpt><trkpt lat="43.10812347350668" lon="12.225107233769897"><ele>390.3333333333333</ele><time>2026-03-29T10:51:45.998Z</time></trkpt><trkpt lat="43.10806659309116" lon="12.225189876429548"><ele>391.0</ele><time>2026-03-29T10:51:46.998Z</time></trkpt><trkpt lat="43.1079914283932" lon="12.225248049456926"><ele>391.66666666666663</ele><time>2026-03-29T10:51:47.998Z</time></trkpt><trkpt lat="43.10789629794333" lon="12.225273931356366"><ele>392.3333333333333</ele><time>2026-03-29T10:51:48.998Z</time></trkpt><trkpt lat="43.10781308566501" lon="12.22533560214096"><ele>393.0</ele><time>2026-03-29T10:51:49.998Z</time></trkpt><trkpt lat="43.107729712708505" lon="12.225417097048537"><ele>393.0</ele><time>2026-03-29T10:51:50.998Z</time></trkpt><trkpt lat="43.107675142104156" lon="12.22546949345315"><ele>393.0</ele><time>2026-03-29T10:51:51.998Z</time></trkpt><trkpt lat="43.10770230293558" lon="12.225598397873965"><ele>393.0</ele><time>2026-03-29T10:51:53.998Z</time></trkpt><trkpt lat="43.107747190641284" lon="12.225675799785806"><ele>393.0</ele><time>2026-03-29T10:51:54.998Z</time></trkpt><trkpt lat="43.107811568490106" lon="12.225757973029747"><ele>393.0</ele><time>2026-03-29T10:51:55.998Z</time></trkpt><trkpt lat="43.10790114693047" lon="12.2258336187769"><ele>393.0</ele><time>2026-03-29T10:51:56.998Z</time></trkpt><trkpt lat="43.107998811473394" lon="12.225890029130563"><ele>392.75</ele><time>2026-03-29T10:51:57.998Z</time></trkpt><trkpt lat="43.10807740422335" lon="12.225934575056938"><ele>392.5</ele><time>2026-03-29T10:51:58.998Z</time></trkpt><trkpt lat="43.10813273208983" lon="12.225992470299563"><ele>392.25</ele><time>2026-03-29T10:51:59.998Z</time></trkpt><trkpt lat="43.10816553649698" lon="12.22606687295204"><ele>392.0</ele><time>2026-03-29T10:52:00.998Z</time></trkpt><trkpt lat="43.10835219129429" lon="12.232026481897869"><ele>386.8333333333333</ele><time>2026-03-29T10:53:01.999Z</time></trkpt><trkpt lat="43.10827679651193" lon="12.232009484209481"><ele>381.66666666666663</ele><time>2026-03-29T10:53:02.999Z</time></trkpt><trkpt lat="43.10814828542124" lon="12.232036717893182"><ele>376.5</ele><time>2026-03-29T10:53:04.999Z</time></trkpt><trkpt lat="43.10807281201732" lon="12.23205567669431"><ele>371.3333333333333</ele><time>2026-03-29T10:53:05.999Z</time></trkpt><trkpt lat="43.10800807129275" lon="12.232037860004656"><ele>366.16666666666663</ele><time>2026-03-29T10:53:06.999Z</time></trkpt><trkpt lat="43.10794539967009" lon="12.232012527000103"><ele>361.0</ele><time>2026-03-29T10:53:07.999Z</time></trkpt><trkpt lat="43.10787886222576" lon="12.232004950885852"><ele>358.4</ele><time>2026-03-29T10:53:08.999Z</time></trkpt><trkpt lat="43.107813097124016" lon="12.232050339523637"><ele>355.8</ele><time>2026-03-29T10:53:09.999Z</time></trkpt><trkpt lat="43.107750161136345" lon="12.232139692154146"><ele>353.2</ele><time>2026-03-29T10:53:10.999Z</time></trkpt><trkpt lat="43.10768466131475" lon="12.232242418558187"><ele>350.59999999999997</ele><time>2026-03-29T10:53:11.999Z</time></trkpt><trkpt lat="43.107626296172675" lon="12.232351379103047"><ele>348.0</ele><time>2026-03-29T10:53:12.999Z</time></trkpt><trkpt lat="43.10758135169641" lon="12.232461725633593"><ele>347.5</ele><time>2026-03-29T10:53:13.999Z</time></trkpt><trkpt lat="43.10753525863585" lon="12.232559393272748"><ele>347.0</ele><time>2026-03-29T10:53:14.999Z</time></trkpt><trkpt lat="43.107474401494954" lon="12.232637113157121"><ele>346.5</ele><time>2026-03-29T10:53:15.999Z</time></trkpt><trkpt lat="43.107410861868225" lon="12.232721701253453"><ele>346.0</ele><time>2026-03-29T10:53:16.999Z</time></trkpt><trkpt lat="43.10738102236243" lon="12.232811943473033"><ele>345.5</ele><time>2026-03-29T10:53:17.999Z</time></trkpt><trkpt lat="43.10736835455439" lon="12.232963819879306"><ele>345.0</ele><time>2026-03-29T10:53:19.999Z</time></trkpt><trkpt lat="43.10734806267125" lon="12.233147727031932"><ele>344.4</ele><time>2026-03-29T10:53:21.999Z</time></trkpt><trkpt lat="43.107335190061" lon="12.233296685140983"><ele>343.8</ele><time>2026-03-29T10:53:22.999Z</time></trkpt><trkpt lat="43.10729761236181" lon="12.233442896923544"><ele>343.20000000000005</ele><time>2026-03-29T10:53:23.999Z</time></trkpt><trkpt lat="43.10723151698648" lon="12.233584501642266"><ele>342.6</ele><time>2026-03-29T10:53:24.999Z</time></trkpt><trkpt lat="43.10715766603687" lon="12.233676135850736"><ele>342.0</ele><time>2026-03-29T10:53:25.999Z</time></trkpt><trkpt lat="43.10708479264441" lon="12.233704089128794"><ele>342.0</ele><time>2026-03-29T10:53:26.999Z</time></trkpt><trkpt lat="43.10713126291278" lon="12.233794078966516"><ele>342.0</ele><time>2026-03-29T10:53:29.999Z</time></trkpt><trkpt lat="43.10723386459231" lon="12.233822332059356"><ele>342.0</ele><time>2026-03-29T10:53:30.999Z</time></trkpt><trkpt lat="43.1073488559827" lon="12.233783852323079"><ele>342.0</ele><time>2026-03-29T10:53:31.999Z</time></trkpt><trkpt lat="43.10742550238992" lon="12.233690504007111"><ele>342.0</ele><time>2026-03-29T10:53:32.999Z</time></trkpt><trkpt lat="43.10736721003705" lon="12.233832701544342"><ele>337.25</ele><time>2026-03-29T10:53:37.999Z</time></trkpt><trkpt lat="43.10731504780683" lon="12.234052978350762"><ele>332.5</ele><time>2026-03-29T10:53:38.999Z</time></trkpt><trkpt lat="43.107248402419444" lon="12.234198187005742"><ele>327.75</ele><time>2026-03-29T10:53:39.999Z</time></trkpt><trkpt lat="43.10719542427071" lon="12.234313827758715"><ele>323.0</ele><time>2026-03-29T10:53:40.999Z</time></trkpt><trkpt lat="43.10704890816529" lon="12.234341943325255"><ele>323.0</ele><time>2026-03-29T10:53:42.999Z</time></trkpt><trkpt lat="43.106934789171916" lon="12.234324064032101"><ele>323.0</ele><time>2026-03-29T10:53:43.999Z</time></trkpt><trkpt lat="43.10682127883086" lon="12.234347746957745"><ele>323.0</ele><time>2026-03-29T10:53:44.999Z</time></trkpt><trkpt lat="43.106738479516466" lon="12.234382780063"><ele>323.0</ele><time>2026-03-29T10:53:45.999Z</time></trkpt><trkpt lat="43.10670051466832" lon="12.234469304712608"><ele>323.0</ele><time>2026-03-29T10:53:47.998Z</time></trkpt><trkpt lat="43.106763741313515" lon="12.234572927812241"><ele>323.0</ele><time>2026-03-29T10:53:49.998Z</time></trkpt><trkpt lat="43.10685124823064" lon="12.234611701516828"><ele>323.0</ele><time>2026-03-29T10:53:50.998Z</time></trkpt><trkpt lat="43.1069658406137" lon="12.234667988863547"><ele>323.0</ele><time>2026-03-29T10:53:51.998Z</time></trkpt><trkpt lat="43.10709218978789" lon="12.234761012162268"><ele>323.0</ele><time>2026-03-29T10:53:52.998Z</time></trkpt><trkpt lat="43.10720371179771" lon="12.234898739962151"><ele>319.0</ele><time>2026-03-29T10:53:53.998Z</time></trkpt><trkpt lat="43.10730302306742" lon="12.235042156346367"><ele>315.0</ele><time>2026-03-29T10:53:54.998Z</time></trkpt><trkpt lat="43.107384407787215" lon="12.235172839357611"><ele>311.0</ele><time>2026-03-29T10:53:55.998Z</time></trkpt><trkpt lat="43.10746005711002" lon="12.235282936171316"><ele>307.0</ele><time>2026-03-29T10:53:56.998Z</time></trkpt><trkpt lat="43.10752885847444" lon="12.235352404987713"><ele>307.0</ele><time>2026-03-29T10:53:57.998Z</time></trkpt><trkpt lat="43.10758800297759" lon="12.2353821153267"><ele>307.0</ele><time>2026-03-29T10:53:58.998Z</time></trkpt><trkpt lat="43.10764501255646" lon="12.235419608003097"><ele>307.0</ele><time>2026-03-29T10:54:00.998Z</time></trkpt><trkpt lat="43.110461283596585" lon="12.233893750259401"><ele>305.6</ele><time>2026-03-29T10:55:01.999Z</time></trkpt><trkpt lat="43.11051630422065" lon="12.233962363684158"><ele>304.2</ele><time>2026-03-29T10:55:04.999Z</time></trkpt><trkpt lat="43.11051150891193" lon="12.234048594581898"><ele>302.8</ele><time>2026-03-29T10:55:05.999Z</time></trkpt><trkpt lat="43.11051361191066" lon="12.234200117790852"><ele>301.4</ele><time>2026-03-29T10:55:07.999Z</time></trkpt><trkpt lat="43.11048796378026" lon="12.234327928226664"><ele>300.0</ele><time>2026-03-29T10:55:08.999Z</time></trkpt><trkpt lat="43.110458296231556" lon="12.234468914088087"><ele>296.25</ele><time>2026-03-29T10:55:09.999Z</time></trkpt><trkpt lat="43.11042411836594" lon="12.23462322566559"><ele>292.5</ele><time>2026-03-29T10:55:10.999Z</time></trkpt><trkpt lat="43.110382747688035" lon="12.234810918428947"><ele>288.75</ele><time>2026-03-29T10:55:11.999Z</time></trkpt><trkpt lat="43.11034431156868" lon="12.235052739755844"><ele>285.0</ele><time>2026-03-29T10:55:12.999Z</time></trkpt><trkpt lat="43.110309981924594" lon="12.235224534390085"><ele>282.4</ele><time>2026-03-29T10:55:13.999Z</time></trkpt><trkpt lat="43.11028413211444" lon="12.235384786768952"><ele>279.8</ele><time>2026-03-29T10:55:14.999Z</time></trkpt><trkpt lat="43.110296889285486" lon="12.235527048827441"><ele>277.2</ele><time>2026-03-29T10:55:15.999Z</time></trkpt><trkpt lat="43.11031260629813" lon="12.235651390878028"><ele>274.6</ele><time>2026-03-29T10:55:16.999Z</time></trkpt><trkpt lat="43.11031925745754" lon="12.235755743403235"><ele>272.0</ele><time>2026-03-29T10:55:17.999Z</time></trkpt><trkpt lat="43.11030700868721" lon="12.235867501411162"><ele>271.6666666666667</ele><time>2026-03-29T10:55:18.999Z</time></trkpt><trkpt lat="43.11027934930034" lon="12.235959519109333"><ele>271.33333333333337</ele><time>2026-03-29T10:55:19.999Z</time></trkpt><trkpt lat="43.11027439130149" lon="12.236070108549473"><ele>271.0</ele><time>2026-03-29T10:55:20.999Z</time></trkpt><trkpt lat="43.110305458720525" lon="12.23618608180553"><ele>270.6666666666667</ele><time>2026-03-29T10:55:21.999Z</time></trkpt><trkpt lat="43.1103596062146" lon="12.236310835586117"><ele>270.3333333333333</ele><time>2026-03-29T10:55:22.999Z</time></trkpt><trkpt lat="43.11042922333104" lon="12.236405329929104"><ele>270.0</ele><time>2026-03-29T10:55:23.999Z</time></trkpt><trkpt lat="43.11050876726566" lon="12.236479808254112"><ele>270.0</ele><time>2026-03-29T10:55:24.999Z</time></trkpt><trkpt lat="43.110590783641626" lon="12.236542985117648"><ele>270.0</ele><time>2026-03-29T10:55:25.999Z</time></trkpt><trkpt lat="43.1106894439244" lon="12.236569008903423"><ele>270.0</ele><time>2026-03-29T10:55:26.999Z</time></trkpt><trkpt lat="43.11076216101127" lon="12.236638102771343"><ele>270.0</ele><time>2026-03-29T10:55:27.999Z</time></trkpt><trkpt lat="43.110846984047136" lon="12.236682764331116"><ele>270.0</ele><time>2026-03-29T10:55:29.999Z</time></trkpt><trkpt lat="43.110880279535735" lon="12.23676143703178"><ele>270.0</ele><time>2026-03-29T10:55:30.999Z</time></trkpt><trkpt lat="43.11089961615854" lon="12.236850248431084"><ele>266.0</ele><time>2026-03-29T10:55:31.999Z</time></trkpt><trkpt lat="43.1109081027532" lon="12.236956218393054"><ele>262.0</ele><time>2026-03-29T10:55:32.999Z</time></trkpt><trkpt lat="43.11089534142693" lon="12.237080104229706"><ele>258.0</ele><time>2026-03-29T10:55:33.999Z</time></trkpt><trkpt lat="43.110868868930226" lon="12.237184599606936"><ele>254.0</ele><time>2026-03-29T10:55:34.999Z</time></trkpt><trkpt lat="43.11081568236899" lon="12.237275014134854"><ele>250.0</ele><time>2026-03-29T10:55:35.999Z</time></trkpt><trkpt lat="43.110766114658766" lon="12.23734073085815"><ele>246.0</ele><time>2026-03-29T10:55:36.999Z</time></trkpt><trkpt lat="43.11080617456747" lon="12.237457916200436"><ele>246.0</ele><time>2026-03-29T10:55:38.999Z</time></trkpt><trkpt lat="43.11087643796755" lon="12.237579255406947"><ele>246.0</ele><time>2026-03-29T10:55:39.999Z</time></trkpt><trkpt lat="43.11093093357398" lon="12.237746361546797"><ele>246.0</ele><time>2026-03-29T10:55:40.999Z</time></trkpt><trkpt lat="43.110994292216894" lon="12.23794870453277"><ele>246.0</ele><time>2026-03-29T10:55:41.999Z</time></trkpt><trkpt lat="43.11107373245204" lon="12.2381727324204"><ele>246.20000000000002</ele><time>2026-03-29T10:55:42.999Z</time></trkpt><trkpt lat="43.111133742158536" lon="12.2383470607489"><ele>246.40000000000003</ele><time>2026-03-29T10:55:43.999Z</time></trkpt><trkpt lat="43.111179945682636" lon="12.238474368163057"><ele>246.6</ele><time>2026-03-29T10:55:44.999Z</time></trkpt><trkpt lat="43.1111082879906" lon="12.238536387843842"><ele>246.8</ele><time>2026-03-29T10:55:48.999Z</time></trkpt><trkpt lat="43.11103933147204" lon="12.238513165138611"><ele>247.0</ele><time>2026-03-29T10:55:51.998Z</time></trkpt><trkpt lat="43.110961259244306" lon="12.23869474003364"><ele>247.0</ele><time>2026-03-29T10:55:54.998Z</time></trkpt><trkpt lat="43.110921454233356" lon="12.238830602174218"><ele>247.0</ele><time>2026-03-29T10:55:55.998Z</time></trkpt><trkpt lat="43.11089821190112" lon="12.238982244275626"><ele>247.0</ele><time>2026-03-29T10:55:56.998Z</time></trkpt><trkpt lat="43.11089588193835" lon="12.239143491764832"><ele>247.0</ele><time>2026-03-29T10:55:57.998Z</time></trkpt><trkpt lat="43.11091981547179" lon="12.23930722146144"><ele>246.33333333333331</ele><time>2026-03-29T10:55:58.998Z</time></trkpt><trkpt lat="43.11094396789881" lon="12.239472205074986"><ele>245.66666666666669</ele><time>2026-03-29T10:55:59.998Z</time></trkpt><trkpt lat="43.11096391535858" lon="12.239683979238563"><ele>245.0</ele><time>2026-03-29T10:56:00.998Z</time></trkpt><trkpt lat="43.11689618285206" lon="12.240848487436132"><ele>242.16666666666669</ele><time>2026-03-29T10:57:01.999Z</time></trkpt><trkpt lat="43.11693150046134" lon="12.240987290813372"><ele>239.33333333333334</ele><time>2026-03-29T10:57:02.999Z</time></trkpt><trkpt lat="43.116969806177245" lon="12.241100223978334"><ele>236.5</ele><time>2026-03-29T10:57:03.999Z</time></trkpt><trkpt lat="43.11700139270627" lon="12.241201092723687"><ele>233.66666666666669</ele><time>2026-03-29T10:57:04.999Z</time></trkpt><trkpt lat="43.117013026772334" lon="12.241293022946504"><ele>230.83333333333334</ele><time>2026-03-29T10:57:05.999Z</time></trkpt><trkpt lat="43.1169983536551" lon="12.241378983087191"><ele>228.0</ele><time>2026-03-29T10:57:06.999Z</time></trkpt><trkpt lat="43.11698976625621" lon="12.24151438621189"><ele>228.0</ele><time>2026-03-29T10:57:07.999Z</time></trkpt><trkpt lat="43.116973476506445" lon="12.241612123752578"><ele>228.0</ele><time>2026-03-29T10:57:09.999Z</time></trkpt><trkpt lat="43.11694114649175" lon="12.241728503687234"><ele>228.0</ele><time>2026-03-29T10:57:12.999Z</time></trkpt><trkpt lat="43.116926387721" lon="12.241823331530025"><ele>228.0</ele><time>2026-03-29T10:57:13.999Z</time></trkpt><trkpt lat="43.11692856194842" lon="12.241966368003036"><ele>228.0</ele><time>2026-03-29T10:57:14.999Z</time></trkpt><trkpt lat="43.116946057822695" lon="12.242090546812545"><ele>228.0</ele><time>2026-03-29T10:57:15.999Z</time></trkpt><trkpt lat="43.116987074864525" lon="12.242205789154617"><ele>228.16666666666666</ele><time>2026-03-29T10:57:16.999Z</time></trkpt><trkpt lat="43.11703162356525" lon="12.242331409023045"><ele>228.33333333333331</ele><time>2026-03-29T10:57:17.999Z</time></trkpt><trkpt lat="43.11706676223547" lon="12.242448222252516"><ele>228.5</ele><time>2026-03-29T10:57:18.999Z</time></trkpt><trkpt lat="43.11709542323377" lon="12.242565379671046"><ele>228.66666666666666</ele><time>2026-03-29T10:57:19.999Z</time></trkpt><trkpt lat="43.11711622198212" lon="12.24267735307635"><ele>228.83333333333331</ele><time>2026-03-29T10:57:20.999Z</time></trkpt><trkpt lat="43.11713437078133" lon="12.242765652489686"><ele>229.0</ele><time>2026-03-29T10:57:21.999Z</time></trkpt><trkpt lat="43.117216712901254" lon="12.242864166360258"><ele>229.0</ele><time>2026-03-29T10:57:23.999Z</time></trkpt><trkpt lat="43.117307233963906" lon="12.242927398554837"><ele>228.99999999999997</ele><time>2026-03-29T10:57:25.999Z</time></trkpt><trkpt lat="43.11737116767423" lon="12.242975687722474"><ele>228.99999999999997</ele><time>2026-03-29T10:57:29.999Z</time></trkpt><trkpt lat="43.1174541734493" lon="12.243013100680116"><ele>229.0</ele><time>2026-03-29T10:57:31.999Z</time></trkpt><trkpt lat="43.11754306763695" lon="12.243062477314385"><ele>229.0</ele><time>2026-03-29T10:57:32.999Z</time></trkpt><trkpt lat="43.11763220892065" lon="12.243120845164883"><ele>229.49999999999997</ele><time>2026-03-29T10:57:33.999Z</time></trkpt><trkpt lat="43.11767198023803" lon="12.243200215102753"><ele>230.0</ele><time>2026-03-29T10:57:34.999Z</time></trkpt><trkpt lat="43.1177394375467" lon="12.243300756465876"><ele>230.5</ele><time>2026-03-29T10:57:35.999Z</time></trkpt><trkpt lat="43.117797061500795" lon="12.243411520871003"><ele>231.0</ele><time>2026-03-29T10:57:36.999Z</time></trkpt><trkpt lat="43.11783997279725" lon="12.243491523681223"><ele>231.49999999999997</ele><time>2026-03-29T10:57:37.999Z</time></trkpt><trkpt lat="43.11788108815791" lon="12.243574665160098"><ele>232.0</ele><time>2026-03-29T10:57:38.999Z</time></trkpt><trkpt lat="43.11790856925286" lon="12.243673391412988"><ele>231.99999999999997</ele><time>2026-03-29T10:57:39.999Z</time></trkpt><trkpt lat="43.11791337243285" lon="12.243785140250232"><ele>232.0</ele><time>2026-03-29T10:57:40.999Z</time></trkpt><trkpt lat="43.11790670133272" lon="12.243890093526383"><ele>232.0</ele><time>2026-03-29T10:57:41.999Z</time></trkpt><trkpt lat="43.117908168580826" lon="12.243989838602827"><ele>232.0</ele><time>2026-03-29T10:57:42.999Z</time></trkpt><trkpt lat="43.117939335308584" lon="12.244075693720001"><ele>231.99999999999997</ele><time>2026-03-29T10:57:45.999Z</time></trkpt><trkpt lat="43.11795086506808" lon="12.244191138482925"><ele>232.0</ele><time>2026-03-29T10:57:47.999Z</time></trkpt><trkpt lat="43.11798291826831" lon="12.24433131619281"><ele>231.66666666666666</ele><time>2026-03-29T10:57:49.999Z</time></trkpt><trkpt lat="43.11802160737749" lon="12.244465583555012"><ele>231.33333333333331</ele><time>2026-03-29T10:57:51.999Z</time></trkpt><trkpt lat="43.118050505121424" lon="12.244614206593393"><ele>231.0</ele><time>2026-03-29T10:57:53.999Z</time></trkpt><trkpt lat="43.11806852863548" lon="12.24470682163113"><ele>230.66666666666669</ele><time>2026-03-29T10:57:54.998Z</time></trkpt><trkpt lat="43.11808074599952" lon="12.244793238007704"><ele>230.33333333333334</ele><time>2026-03-29T10:57:55.998Z</time></trkpt><trkpt lat="43.11809461619458" lon="12.24491316418411"><ele>230.0</ele><time>2026-03-29T10:57:57.998Z</time></trkpt><trkpt lat="43.118118611403844" lon="12.245016227222258"><ele>246.0</ele><time>2026-03-29T10:57:59.998Z</time></trkpt><trkpt lat="43.1193309196426" lon="12.249937983075322"><ele>246.0</ele><time>2026-03-29T10:59:01.999Z</time></trkpt><trkpt lat="43.11932046045286" lon="12.250161313431276"><ele>246.0</ele><time>2026-03-29T10:59:02.999Z</time></trkpt><trkpt lat="43.11932745897052" lon="12.250405834344386"><ele>246.0</ele><time>2026-03-29T10:59:03.999Z</time></trkpt><trkpt lat="43.11932198983757" lon="12.250646211544844"><ele>247.16666666666666</ele><time>2026-03-29T10:59:04.999Z</time></trkpt><trkpt lat="43.119304455257655" lon="12.250826007430778"><ele>248.33333333333331</ele><time>2026-03-29T10:59:05.999Z</time></trkpt><trkpt lat="43.11929596393311" lon="12.250923992766879"><ele>249.5</ele><time>2026-03-29T10:59:06.999Z</time></trkpt><trkpt lat="43.1192892768263" lon="12.25101359755907"><ele>250.66666666666666</ele><time>2026-03-29T10:59:07.999Z</time></trkpt><trkpt lat="43.119246909459505" lon="12.251124015857481"><ele>251.83333333333331</ele><time>2026-03-29T10:59:09.999Z</time></trkpt><trkpt lat="43.11918587109198" lon="12.251184091088918"><ele>253.0</ele><time>2026-03-29T10:59:11.999Z</time></trkpt><trkpt lat="43.11911927648789" lon="12.251126781083906"><ele>253.0</ele><time>2026-03-29T10:59:14.999Z</time></trkpt><trkpt lat="43.11925798878698" lon="12.251451493159527"><ele>253.0</ele><time>2026-03-29T10:59:15.999Z</time></trkpt><trkpt lat="43.11924853204254" lon="12.25153900157361"><ele>253.0</ele><time>2026-03-29T10:59:17.999Z</time></trkpt><trkpt lat="43.11923324614372" lon="12.251640171033916"><ele>253.0</ele><time>2026-03-29T10:59:19.999Z</time></trkpt><trkpt lat="43.119207327805725" lon="12.251747348817187"><ele>254.60000000000002</ele><time>2026-03-29T10:59:21.999Z</time></trkpt><trkpt lat="43.11917809581609" lon="12.25190282319532"><ele>256.20000000000005</ele><time>2026-03-29T10:59:22.999Z</time></trkpt><trkpt lat="43.119161686176255" lon="12.252039475141965"><ele>257.8</ele><time>2026-03-29T10:59:24.999Z</time></trkpt><trkpt lat="43.119131158385706" lon="12.25216357555298"><ele>259.40000000000003</ele><time>2026-03-29T10:59:26.999Z</time></trkpt><trkpt lat="43.11909336334423" lon="12.252328445685457"><ele>261.0</ele><time>2026-03-29T10:59:28.999Z</time></trkpt><trkpt lat="43.11906300860215" lon="12.252407375271593"><ele>261.6</ele><time>2026-03-29T10:59:29.999Z</time></trkpt><trkpt lat="43.119017040997264" lon="12.252554186810436"><ele>262.20000000000005</ele><time>2026-03-29T10:59:31.999Z</time></trkpt><trkpt lat="43.118962252425185" lon="12.252692154360213"><ele>262.79999999999995</ele><time>2026-03-29T10:59:33.999Z</time></trkpt><trkpt lat="43.11895276030916" lon="12.25283269684428"><ele>263.4</ele><time>2026-03-29T10:59:35.999Z</time></trkpt><trkpt lat="43.11896801843951" lon="12.252985880768067"><ele>264.0</ele><time>2026-03-29T10:59:37.999Z</time></trkpt><trkpt lat="43.119014861771106" lon="12.253105985290782"><ele>268.0</ele><time>2026-03-29T10:59:39.999Z</time></trkpt><trkpt lat="43.119122050561664" lon="12.253185390308346"><ele>272.0</ele><time>2026-03-29T10:59:41.999Z</time></trkpt><trkpt lat="43.11912746856896" lon="12.253274628182274"><ele>276.0</ele><time>2026-03-29T10:59:42.999Z</time></trkpt><trkpt lat="43.1191510729362" lon="12.253405760449164"><ele>280.0</ele><time>2026-03-29T10:59:43.999Z</time></trkpt><trkpt lat="43.11916904125521" lon="12.25353899847831"><ele>284.0</ele><time>2026-03-29T10:59:44.999Z</time></trkpt><trkpt lat="43.119178058433576" lon="12.253670896895041"><ele>284.0</ele><time>2026-03-29T10:59:45.999Z</time></trkpt><trkpt lat="43.11917919545316" lon="12.253795649666806"><ele>284.0</ele><time>2026-03-29T10:59:46.999Z</time></trkpt><trkpt lat="43.119177228293154" lon="12.253907537461922"><ele>284.0</ele><time>2026-03-29T10:59:47.999Z</time></trkpt><trkpt lat="43.11918259241424" lon="12.254026947304197"><ele>284.0</ele><time>2026-03-29T10:59:48.999Z</time></trkpt><trkpt lat="43.11919730860087" lon="12.254181289645421"><ele>284.0</ele><time>2026-03-29T10:59:50.999Z</time></trkpt><trkpt lat="43.11913550432421" lon="12.25407490832578"><ele>284.6666666666667</ele><time>2026-03-29T10:59:54.999Z</time></trkpt><trkpt lat="43.11905624081087" lon="12.254086774570233"><ele>285.3333333333333</ele><time>2026-03-29T10:59:56.999Z</time></trkpt><trkpt lat="43.119046721767376" lon="12.254352960896837"><ele>286.0</ele><time>2026-03-29T11:00:00.998Z</time></trkpt><trkpt lat="43.12007240012779" lon="12.256931813912612"><ele>294.0</ele><time>2026-03-29T11:01:01.999Z</time></trkpt><trkpt lat="43.120009029066445" lon="12.256966183425385"><ele>302.0</ele><time>2026-03-29T11:01:02.999Z</time></trkpt><trkpt lat="43.11994074264682" lon="12.257009898255333"><ele>310.0</ele><time>2026-03-29T11:01:03.999Z</time></trkpt><trkpt lat="43.11988963659044" lon="12.257064285920306"><ele>318.0</ele><time>2026-03-29T11:01:04.999Z</time></trkpt><trkpt lat="43.119853580089405" lon="12.257154902342759"><ele>326.0</ele><time>2026-03-29T11:01:05.999Z</time></trkpt><trkpt lat="43.11977943890866" lon="12.257305065825156"><ele>334.0</ele><time>2026-03-29T11:01:07.999Z</time></trkpt><trkpt lat="43.11974944319211" lon="12.257469344627205"><ele>337.5</ele><time>2026-03-29T11:01:08.999Z</time></trkpt><trkpt lat="43.119692388993876" lon="12.257623974643687"><ele>341.0</ele><time>2026-03-29T11:01:09.999Z</time></trkpt><trkpt lat="43.11961897296016" lon="12.257824970945217"><ele>344.5</ele><time>2026-03-29T11:01:10.999Z</time></trkpt><trkpt lat="43.119560867652126" lon="12.258011598532638"><ele>348.0</ele><time>2026-03-29T11:01:11.999Z</time></trkpt><trkpt lat="43.119519439629755" lon="12.258116859052654"><ele>352.0</ele><time>2026-03-29T11:01:12.999Z</time></trkpt><trkpt lat="43.119463938371446" lon="12.258234277990576"><ele>356.0</ele><time>2026-03-29T11:01:13.999Z</time></trkpt><trkpt lat="43.11939270822106" lon="12.25837275696106"><ele>360.0</ele><time>2026-03-29T11:01:14.999Z</time></trkpt><trkpt lat="43.119332625114254" lon="12.258545760401512"><ele>364.0</ele><time>2026-03-29T11:01:15.999Z</time></trkpt><trkpt lat="43.119284294536286" lon="12.258710879649891"><ele>364.0</ele><time>2026-03-29T11:01:16.999Z</time></trkpt><trkpt lat="43.1192515332125" lon="12.25884733831204"><ele>364.0</ele><time>2026-03-29T11:01:17.999Z</time></trkpt><trkpt lat="43.119241331178884" lon="12.259000917218383"><ele>364.0</ele><time>2026-03-29T11:01:18.999Z</time></trkpt><trkpt lat="43.1191961533191" lon="12.259104966492297"><ele>364.0</ele><time>2026-03-29T11:01:19.999Z</time></trkpt><trkpt lat="43.11911405155142" lon="12.259207653957494"><ele>364.0</ele><time>2026-03-29T11:01:20.999Z</time></trkpt><trkpt lat="43.119072980692636" lon="12.259279020560433"><ele>364.2</ele><time>2026-03-29T11:01:21.999Z</time></trkpt><trkpt lat="43.11901450686723" lon="12.259383668237993"><ele>364.4</ele><time>2026-03-29T11:01:22.999Z</time></trkpt><trkpt lat="43.118935043847934" lon="12.259490057635752"><ele>364.6</ele><time>2026-03-29T11:01:23.999Z</time></trkpt><trkpt lat="43.1188696668471" lon="12.25961589514612"><ele>364.8</ele><time>2026-03-29T11:01:24.999Z</time></trkpt><trkpt lat="43.118825161481894" lon="12.25973748411717"><ele>365.0</ele><time>2026-03-29T11:01:25.999Z</time></trkpt><trkpt lat="43.11881592509844" lon="12.259824671507047"><ele>367.2</ele><time>2026-03-29T11:01:26.999Z</time></trkpt><trkpt lat="43.11871780702511" lon="12.259945942999144"><ele>369.4</ele><time>2026-03-29T11:01:28.999Z</time></trkpt><trkpt lat="43.11867068373468" lon="12.260030224936868"><ele>371.6</ele><time>2026-03-29T11:01:29.999Z</time></trkpt><trkpt lat="43.11862874249741" lon="12.260135637370897"><ele>373.8</ele><time>2026-03-29T11:01:30.999Z</time></trkpt><trkpt lat="43.11857016520264" lon="12.260268326225262"><ele>376.0</ele><time>2026-03-29T11:01:31.999Z</time></trkpt><trkpt lat="43.118518645035095" lon="12.260397759928884"><ele>376.0</ele><time>2026-03-29T11:01:32.999Z</time></trkpt><trkpt lat="43.11845653867287" lon="12.260496043742762"><ele>376.0</ele><time>2026-03-29T11:01:33.999Z</time></trkpt><trkpt lat="43.118388809960535" lon="12.260619554225528"><ele>376.0</ele><time>2026-03-29T11:01:34.999Z</time></trkpt><trkpt lat="43.118340406773754" lon="12.260705897339177"><ele>376.0</ele><time>2026-03-29T11:01:35.999Z</time></trkpt><trkpt lat="43.11826722744504" lon="12.260773596090711"><ele>376.0</ele><time>2026-03-29T11:01:36.999Z</time></trkpt><trkpt lat="43.11815703485646" lon="12.260798166614977"><ele>375.3333333333333</ele><time>2026-03-29T11:01:37.999Z</time></trkpt><trkpt lat="43.11806457839368" lon="12.26084838848118"><ele>374.66666666666663</ele><time>2026-03-29T11:01:38.999Z</time></trkpt><trkpt lat="43.11800872463017" lon="12.260901801966623"><ele>374.0</ele><time>2026-03-29T11:01:39.999Z</time></trkpt><trkpt lat="43.118073279995045" lon="12.260910475447377"><ele>373.3333333333333</ele><time>2026-03-29T11:01:44.999Z</time></trkpt><trkpt lat="43.118154982759755" lon="12.260928641808619"><ele>372.6666666666667</ele><time>2026-03-29T11:01:47.999Z</time></trkpt><trkpt lat="43.1182427843359" lon="12.260943798962575"><ele>372.0</ele><time>2026-03-29T11:01:49.999Z</time></trkpt><trkpt lat="43.11830523432867" lon="12.260917318791927"><ele>369.3333333333333</ele><time>2026-03-29T11:01:52.999Z</time></trkpt><trkpt lat="43.11840413200956" lon="12.260905576505554"><ele>366.66666666666663</ele><time>2026-03-29T11:01:57.999Z</time></trkpt><trkpt lat="43.11846628917819" lon="12.260858238387549"><ele>364.0</ele><time>2026-03-29T11:01:59.999Z</time></trkpt><trkpt lat="43.1204520613245" lon="12.26295391880823"><ele>364.0</ele><time>2026-03-29T11:03:02Z</time></trkpt><trkpt lat="43.12048505754504" lon="12.263071410065312"><ele>364.0</ele><time>2026-03-29T11:03:03.999Z</time></trkpt><trkpt lat="43.120537569527286" lon="12.263156438739438"><ele>364.0</ele><time>2026-03-29T11:03:05.999Z</time></trkpt><trkpt lat="43.12055381713902" lon="12.263356165230993"><ele>364.0</ele><time>2026-03-29T11:03:08.999Z</time></trkpt><trkpt lat="43.120577750676134" lon="12.263461200747429"><ele>364.0</ele><time>2026-03-29T11:03:10.999Z</time></trkpt><trkpt lat="43.120611038661316" lon="12.263536983388471"><ele>362.0</ele><time>2026-03-29T11:03:13.999Z</time></trkpt><trkpt lat="43.12058344364019" lon="12.263642219521223"><ele>360.0</ele><time>2026-03-29T11:03:17.999Z</time></trkpt><trkpt lat="43.12052564578147" lon="12.263708346217918"><ele>358.0</ele><time>2026-03-29T11:03:19.999Z</time></trkpt><trkpt lat="43.120493517415234" lon="12.263787930024867"><ele>356.0</ele><time>2026-03-29T11:03:23.999Z</time></trkpt><trkpt lat="43.120559293080355" lon="12.263721530968798"><ele>354.0</ele><time>2026-03-29T11:03:28.999Z</time></trkpt><trkpt lat="43.12066339268199" lon="12.26370663598384"><ele>352.0</ele><time>2026-03-29T11:03:31.999Z</time></trkpt><trkpt lat="43.12074815074145" lon="12.263656609231754"><ele>350.8333333333333</ele><time>2026-03-29T11:03:32.999Z</time></trkpt><trkpt lat="43.12083441890627" lon="12.263637366147883"><ele>349.66666666666663</ele><time>2026-03-29T11:03:33.999Z</time></trkpt><trkpt lat="43.12092514586169" lon="12.263631904476412"><ele>348.5</ele><time>2026-03-29T11:03:34.999Z</time></trkpt><trkpt lat="43.121017110794675" lon="12.263633197126175"><ele>347.3333333333333</ele><time>2026-03-29T11:03:35.999Z</time></trkpt><trkpt lat="43.12109893862944" lon="12.263633421710702"><ele>346.1666666666667</ele><time>2026-03-29T11:03:36.999Z</time></trkpt><trkpt lat="43.12118406675961" lon="12.263649928112198"><ele>345.0</ele><time>2026-03-29T11:03:37.999Z</time></trkpt><trkpt lat="43.12127850440445" lon="12.263654225097456"><ele>345.0</ele><time>2026-03-29T11:03:38.999Z</time></trkpt><trkpt lat="43.12138200409915" lon="12.263654787813588"><ele>345.0</ele><time>2026-03-29T11:03:39.999Z</time></trkpt><trkpt lat="43.121488610833936" lon="12.263645758958091"><ele>345.0</ele><time>2026-03-29T11:03:40.999Z</time></trkpt><trkpt lat="43.12159456114225" lon="12.263651334955618"><ele>345.0</ele><time>2026-03-29T11:03:41.999Z</time></trkpt><trkpt lat="43.12168814665369" lon="12.263654209893774"><ele>345.0</ele><time>2026-03-29T11:03:42.999Z</time></trkpt><trkpt lat="43.121766305639774" lon="12.263661124552666"><ele>342.6666666666667</ele><time>2026-03-29T11:03:43.999Z</time></trkpt><trkpt lat="43.12183134191212" lon="12.26367423665251"><ele>340.3333333333333</ele><time>2026-03-29T11:03:44.999Z</time></trkpt><trkpt lat="43.1219097321487" lon="12.263688616122536"><ele>338.0</ele><time>2026-03-29T11:03:45.999Z</time></trkpt><trkpt lat="43.121989392684014" lon="12.263685181803812"><ele>335.66666666666663</ele><time>2026-03-29T11:03:46.999Z</time></trkpt><trkpt lat="43.12207468446894" lon="12.263692406427113"><ele>333.3333333333333</ele><time>2026-03-29T11:03:47.999Z</time></trkpt><trkpt lat="43.12215226940892" lon="12.263687892472126"><ele>331.0</ele><time>2026-03-29T11:03:48.999Z</time></trkpt><trkpt lat="43.122242875680165" lon="12.263668353469145"><ele>331.0</ele><time>2026-03-29T11:03:49.999Z</time></trkpt><trkpt lat="43.12234980475859" lon="12.263647305376573"><ele>331.0</ele><time>2026-03-29T11:03:50.999Z</time></trkpt><trkpt lat="43.12253745866253" lon="12.263659656511924"><ele>331.0</ele><time>2026-03-29T11:03:51.999Z</time></trkpt><trkpt lat="43.122673763992225" lon="12.263655825408843"><ele>331.0</ele><time>2026-03-29T11:03:53.999Z</time></trkpt><trkpt lat="43.122766671971576" lon="12.26369848999458"><ele>332.4</ele><time>2026-03-29T11:03:54.999Z</time></trkpt><trkpt lat="43.12286837962641" lon="12.263784391687082"><ele>333.8</ele><time>2026-03-29T11:03:55.999Z</time></trkpt><trkpt lat="43.12289806698958" lon="12.263901678293184"><ele>335.2</ele><time>2026-03-29T11:03:57.999Z</time></trkpt><trkpt lat="43.122936747406825" lon="12.264027039103986"><ele>336.59999999999997</ele><time>2026-03-29T11:03:58.999Z</time></trkpt><trkpt lat="43.12298349737971" lon="12.264120121253711"><ele>338.0</ele><time>2026-03-29T11:03:59.999Z</time></trkpt><trkpt lat="43.12357673477654" lon="12.264848645143898"><ele>328.0</ele><time>2026-03-29T11:04:11.999Z</time></trkpt><trkpt lat="43.123988751122646" lon="12.264971606503577"><ele>318.0</ele><time>2026-03-29T11:04:15.999Z</time></trkpt><trkpt lat="43.12406302743869" lon="12.264976292732236"><ele>315.5</ele><time>2026-03-29T11:04:17.999Z</time></trkpt><trkpt lat="43.12414146219309" lon="12.264960450266704"><ele>313.0</ele><time>2026-03-29T11:04:18.999Z</time></trkpt><trkpt lat="43.124212636031785" lon="12.264962261966785"><ele>310.5</ele><time>2026-03-29T11:04:19.999Z</time></trkpt><trkpt lat="43.12429219340267" lon="12.264958462939084"><ele>308.0</ele><time>2026-03-29T11:04:20.999Z</time></trkpt><trkpt lat="43.12438203081985" lon="12.26498017277608"><ele>305.5</ele><time>2026-03-29T11:04:21.999Z</time></trkpt><trkpt lat="43.124494754324196" lon="12.265010829430928"><ele>303.0</ele><time>2026-03-29T11:04:22.999Z</time></trkpt><trkpt lat="43.1247804790302" lon="12.265091526497304"><ele>302.0</ele><time>2026-03-29T11:04:23.999Z</time></trkpt><trkpt lat="43.12500277583196" lon="12.265193634663222"><ele>301.0</ele><time>2026-03-29T11:04:24.999Z</time></trkpt><trkpt lat="43.125240452302876" lon="12.26530133453862"><ele>301.0</ele><time>2026-03-29T11:04:25.999Z</time></trkpt><trkpt lat="43.12550248735838" lon="12.265390741873652"><ele>301.0</ele><time>2026-03-29T11:04:26.999Z</time></trkpt><trkpt lat="43.125783551837415" lon="12.26547446831182"><ele>300.0</ele><time>2026-03-29T11:04:27.999Z</time></trkpt><trkpt lat="43.12605619324583" lon="12.265550165148685"><ele>299.0</ele><time>2026-03-29T11:04:28.999Z</time></trkpt><trkpt lat="43.1263258722955" lon="12.265622537862331"><ele>293.5</ele><time>2026-03-29T11:04:29.999Z</time></trkpt><trkpt lat="43.126559940901494" lon="12.265686800920198"><ele>288.0</ele><time>2026-03-29T11:04:30.999Z</time></trkpt><trkpt lat="43.12677643574434" lon="12.265751769273972"><ele>288.0</ele><time>2026-03-29T11:04:31.999Z</time></trkpt><trkpt lat="43.126959971847754" lon="12.265808854016882"><ele>288.0</ele><time>2026-03-29T11:04:32.999Z</time></trkpt><trkpt lat="43.127106254149325" lon="12.26585435181464"><ele>288.0</ele><time>2026-03-29T11:04:33.999Z</time></trkpt><trkpt lat="43.1272707201574" lon="12.265905810660009"><ele>287.3333333333333</ele><time>2026-03-29T11:04:34.999Z</time></trkpt><trkpt lat="43.12742720489994" lon="12.265957395131169"><ele>286.66666666666663</ele><time>2026-03-29T11:04:35.999Z</time></trkpt><trkpt lat="43.127593650063815" lon="12.265969698130858"><ele>286.0</ele><time>2026-03-29T11:04:36.999Z</time></trkpt><trkpt lat="43.12773068143043" lon="12.265996492761605"><ele>286.0</ele><time>2026-03-29T11:04:37.999Z</time></trkpt><trkpt lat="43.127891519832595" lon="12.265995320184631"><ele>286.0</ele><time>2026-03-29T11:04:38.999Z</time></trkpt><trkpt lat="43.12805453442226" lon="12.265970747654002"><ele>286.0</ele><time>2026-03-29T11:04:39.999Z</time></trkpt><trkpt lat="43.12821913099792" lon="12.265940256560697"><ele>283.3333333333333</ele><time>2026-03-29T11:04:40.999Z</time></trkpt><trkpt lat="43.12839038321543" lon="12.265891756210637"><ele>280.6666666666667</ele><time>2026-03-29T11:04:41.999Z</time></trkpt><trkpt lat="43.12857401803956" lon="12.26582309236638"><ele>278.0</ele><time>2026-03-29T11:04:42.999Z</time></trkpt><trkpt lat="43.128756185513524" lon="12.265736027771354"><ele>278.0</ele><time>2026-03-29T11:04:43.999Z</time></trkpt><trkpt lat="43.12894477362642" lon="12.265638179918275"><ele>278.0</ele><time>2026-03-29T11:04:44.999Z</time></trkpt><trkpt lat="43.12912887477779" lon="12.265541663389147"><ele>278.0</ele><time>2026-03-29T11:04:45.999Z</time></trkpt><trkpt lat="43.12929793559082" lon="12.265467581634478"><ele>276.6666666666667</ele><time>2026-03-29T11:04:46.999Z</time></trkpt><trkpt lat="43.12945481202373" lon="12.265393130446027"><ele>275.3333333333333</ele><time>2026-03-29T11:04:47.999Z</time></trkpt><trkpt lat="43.12959673867721" lon="12.265287104486488"><ele>274.0</ele><time>2026-03-29T11:04:48.999Z</time></trkpt><trkpt lat="43.12971403524614" lon="12.265134704165556"><ele>274.0</ele><time>2026-03-29T11:04:49.999Z</time></trkpt><trkpt lat="43.129789455952675" lon="12.264979384574888"><ele>274.0</ele><time>2026-03-29T11:04:50.999Z</time></trkpt><trkpt lat="43.12981493678366" lon="12.26481440909792"><ele>274.0</ele><time>2026-03-29T11:04:51.999Z</time></trkpt><trkpt lat="43.129822687541804" lon="12.264608863766924"><ele>274.0</ele><time>2026-03-29T11:04:53Z</time></trkpt><trkpt lat="43.129846270086695" lon="12.264394893415307"><ele>273.5</ele><time>2026-03-29T11:04:54Z</time></trkpt><trkpt lat="43.12986556621904" lon="12.264189711879624"><ele>273.0</ele><time>2026-03-29T11:04:55Z</time></trkpt><trkpt lat="43.129858318761194" lon="12.263995284841307"><ele>272.5</ele><time>2026-03-29T11:04:56Z</time></trkpt><trkpt lat="43.12982988243686" lon="12.263853649170416"><ele>272.0</ele><time>2026-03-29T11:04:57.001Z</time></trkpt><trkpt lat="43.12984542154739" lon="12.263742528838005"><ele>251.0</ele><time>2026-03-29T11:04:59Z</time></trkpt><trkpt lat="43.130937757669564" lon="12.26412739945942"><ele>251.0</ele><time>2026-03-29T11:05:12Z</time></trkpt><trkpt lat="43.131097271488485" lon="12.264073637775557"><ele>251.0</ele><time>2026-03-29T11:05:13Z</time></trkpt><trkpt lat="43.13125839305677" lon="12.264014830639512"><ele>251.0</ele><time>2026-03-29T11:05:14Z</time></trkpt><trkpt lat="43.13141547632124" lon="12.263941680679771"><ele>249.75</ele><time>2026-03-29T11:05:15Z</time></trkpt><trkpt lat="43.13153675553121" lon="12.263872977716835"><ele>248.5</ele><time>2026-03-29T11:05:16Z</time></trkpt><trkpt lat="43.131599076949094" lon="12.263803165671892"><ele>247.25</ele><time>2026-03-29T11:05:17Z</time></trkpt><trkpt lat="43.13169132974866" lon="12.263818969258466"><ele>246.0</ele><time>2026-03-29T11:05:19Z</time></trkpt><trkpt lat="43.1318546247484" lon="12.263762702546085"><ele>244.0</ele><time>2026-03-29T11:05:27Z</time></trkpt><trkpt lat="43.13190507008098" lon="12.263627123960642"><ele>242.0</ele><time>2026-03-29T11:05:28Z</time></trkpt><trkpt lat="43.131951600124935" lon="12.263445028258252"><ele>240.0</ele><time>2026-03-29T11:05:29Z</time></trkpt><trkpt lat="43.13202160314211" lon="12.26324805569881"><ele>238.0</ele><time>2026-03-29T11:05:30Z</time></trkpt><trkpt lat="43.13210656915478" lon="12.263023199686858"><ele>237.5</ele><time>2026-03-29T11:05:31Z</time></trkpt><trkpt lat="43.13216446982491" lon="12.262804352617685"><ele>237.0</ele><time>2026-03-29T11:05:32Z</time></trkpt><trkpt lat="43.1321927081434" lon="12.262637643145572"><ele>236.5</ele><time>2026-03-29T11:05:33Z</time></trkpt><trkpt lat="43.13221377291611" lon="12.262512123343146"><ele>236.0</ele><time>2026-03-29T11:05:34Z</time></trkpt><trkpt lat="43.13224298021266" lon="12.262404515918615"><ele>236.00000000000003</ele><time>2026-03-29T11:05:35Z</time></trkpt><trkpt lat="43.1322826366899" lon="12.262311476436697"><ele>236.0</ele><time>2026-03-29T11:05:36Z</time></trkpt><trkpt lat="43.13233937280645" lon="12.262224507182587"><ele>236.0</ele><time>2026-03-29T11:05:37Z</time></trkpt><trkpt lat="43.13241117307171" lon="12.262158687249944"><ele>236.0</ele><time>2026-03-29T11:05:38Z</time></trkpt><trkpt lat="43.132495662218446" lon="12.262102081800565"><ele>236.00000000000003</ele><time>2026-03-29T11:05:39Z</time></trkpt><trkpt lat="43.13259042963695" lon="12.262047699571797"><ele>236.0</ele><time>2026-03-29T11:05:40Z</time></trkpt><trkpt lat="43.13270030274325" lon="12.262033523765226"><ele>236.0</ele><time>2026-03-29T11:05:41Z</time></trkpt><trkpt lat="43.13280822582542" lon="12.262127115178629"><ele>236.0</ele><time>2026-03-29T11:05:42Z</time></trkpt><trkpt lat="43.132939752289225" lon="12.26225445933614"><ele>236.0</ele><time>2026-03-29T11:05:43Z</time></trkpt><trkpt lat="43.13310111919601" lon="12.262396886329219"><ele>236.0</ele><time>2026-03-29T11:05:44Z</time></trkpt><trkpt lat="43.13325077444477" lon="12.262592579352102"><ele>236.0</ele><time>2026-03-29T11:05:45Z</time></trkpt><trkpt lat="43.13343773274868" lon="12.262774819029946"><ele>236.0</ele><time>2026-03-29T11:05:46Z</time></trkpt><trkpt lat="43.133635546700916" lon="12.262939476166299"><ele>236.0</ele><time>2026-03-29T11:05:47Z</time></trkpt><trkpt lat="43.133841799777514" lon="12.263109475332357"><ele>236.0</ele><time>2026-03-29T11:05:48Z</time></trkpt><trkpt lat="43.13405463661092" lon="12.263264020622303"><ele>235.66666666666669</ele><time>2026-03-29T11:05:49Z</time></trkpt><trkpt lat="43.134266716853816" lon="12.263388153471949"><ele>235.33333333333331</ele><time>2026-03-29T11:05:50Z</time></trkpt><trkpt lat="43.134473733073236" lon="12.26348069250495"><ele>235.0</ele><time>2026-03-29T11:05:51Z</time></trkpt><trkpt lat="43.13466479386281" lon="12.263538757407638"><ele>235.0</ele><time>2026-03-29T11:05:52Z</time></trkpt><trkpt lat="43.134842708707" lon="12.263552815447522"><ele>235.0</ele><time>2026-03-29T11:05:53Z</time></trkpt><trkpt lat="43.13500941823143" lon="12.26353812449058"><ele>235.0</ele><time>2026-03-29T11:05:54Z</time></trkpt><trkpt lat="43.135162152692956" lon="12.26354769286698"><ele>234.75</ele><time>2026-03-29T11:05:55Z</time></trkpt><trkpt lat="43.135312714130364" lon="12.263587266385183"><ele>234.5</ele><time>2026-03-29T11:05:56Z</time></trkpt><trkpt lat="43.135462442216394" lon="12.2636360604461"><ele>234.25</ele><time>2026-03-29T11:05:57Z</time></trkpt><trkpt lat="43.13559435445006" lon="12.263640513241167"><ele>234.0</ele><time>2026-03-29T11:05:58Z</time></trkpt><trkpt lat="43.13569504536025" lon="12.263880040047255"><ele>233.66666666666669</ele><time>2026-03-29T11:05:59Z</time></trkpt><trkpt lat="43.13580011492313" lon="12.26407805240395"><ele>233.33333333333334</ele><time>2026-03-29T11:06:00Z</time></trkpt><trkpt lat="43.13591183434747" lon="12.26429290849013"><ele>233.0</ele><time>2026-03-29T11:06:01Z</time></trkpt><trkpt lat="43.14338226629805" lon="12.266982833633739"><ele>234.75</ele><time>2026-03-29T11:07:04Z</time></trkpt><trkpt lat="43.14348274353342" lon="12.267015987631162"><ele>236.5</ele><time>2026-03-29T11:07:05Z</time></trkpt><trkpt lat="43.14357739667948" lon="12.267108928033483"><ele>238.25</ele><time>2026-03-29T11:07:06Z</time></trkpt><trkpt lat="43.143687804364674" lon="12.267239787198873"><ele>240.0</ele><time>2026-03-29T11:07:07Z</time></trkpt><trkpt lat="43.143795930983984" lon="12.267416065202944"><ele>240.0</ele><time>2026-03-29T11:07:08Z</time></trkpt><trkpt lat="43.14391999199436" lon="12.267604044613298"><ele>240.0</ele><time>2026-03-29T11:07:09Z</time></trkpt><trkpt lat="43.144052125281426" lon="12.2677978489189"><ele>240.0</ele><time>2026-03-29T11:07:10Z</time></trkpt><trkpt lat="43.144185053330574" lon="12.267981367163378"><ele>239.66666666666669</ele><time>2026-03-29T11:07:11Z</time></trkpt><trkpt lat="43.14433089316491" lon="12.268134007087138"><ele>239.33333333333334</ele><time>2026-03-29T11:07:12Z</time></trkpt><trkpt lat="43.14450265319775" lon="12.268254473295361"><ele>239.0</ele><time>2026-03-29T11:07:13Z</time></trkpt><trkpt lat="43.14467869393848" lon="12.268352305299882"><ele>239.0</ele><time>2026-03-29T11:07:14Z</time></trkpt><trkpt lat="43.14483459894602" lon="12.268482199188966"><ele>239.0</ele><time>2026-03-29T11:07:15Z</time></trkpt><trkpt lat="43.14498631928119" lon="12.268665153950781"><ele>239.0</ele><time>2026-03-29T11:07:16Z</time></trkpt><trkpt lat="43.14512702403669" lon="12.268839972377208"><ele>239.75</ele><time>2026-03-29T11:07:17Z</time></trkpt><trkpt lat="43.145235846521224" lon="12.268982423693165"><ele>240.5</ele><time>2026-03-29T11:07:18Z</time></trkpt><trkpt lat="43.145306142487904" lon="12.269131464619097"><ele>241.25</ele><time>2026-03-29T11:07:19Z</time></trkpt><trkpt lat="43.14534614185477" lon="12.269301235261613"><ele>242.0</ele><time>2026-03-29T11:07:20Z</time></trkpt><trkpt lat="43.14535767620159" lon="12.269496925363708"><ele>242.0</ele><time>2026-03-29T11:07:21Z</time></trkpt><trkpt lat="43.145347206325084" lon="12.269711070788277"><ele>242.0</ele><time>2026-03-29T11:07:22Z</time></trkpt><trkpt lat="43.145321788710326" lon="12.26994826922027"><ele>242.0</ele><time>2026-03-29T11:07:23Z</time></trkpt><trkpt lat="43.14530031642236" lon="12.270202793937669"><ele>242.5</ele><time>2026-03-29T11:07:24Z</time></trkpt><trkpt lat="43.14529328431175" lon="12.270444870651902"><ele>243.0</ele><time>2026-03-29T11:07:25Z</time></trkpt><trkpt lat="43.1452891829285" lon="12.27064180997134"><ele>243.5</ele><time>2026-03-29T11:07:26Z</time></trkpt><trkpt lat="43.14526648699413" lon="12.270796722037067"><ele>244.0</ele><time>2026-03-29T11:07:27Z</time></trkpt><trkpt lat="43.145201517954746" lon="12.270956537941773"><ele>245.0</ele><time>2026-03-29T11:07:28Z</time></trkpt><trkpt lat="43.1451026622519" lon="12.271154446716622"><ele>246.0</ele><time>2026-03-29T11:07:29Z</time></trkpt><trkpt lat="43.145008167927166" lon="12.27136122247449"><ele>247.0</ele><time>2026-03-29T11:07:30Z</time></trkpt><trkpt lat="43.144947409098684" lon="12.2715233503555"><ele>247.75</ele><time>2026-03-29T11:07:31Z</time></trkpt><trkpt lat="43.14493016377517" lon="12.27165661962095"><ele>248.5</ele><time>2026-03-29T11:07:32Z</time></trkpt><trkpt lat="43.14491701403422" lon="12.271788662443042"><ele>249.25</ele><time>2026-03-29T11:07:33Z</time></trkpt><trkpt lat="43.14491947722163" lon="12.271948140227064"><ele>250.0</ele><time>2026-03-29T11:07:34Z</time></trkpt><trkpt lat="43.14494228979277" lon="12.272151901527907"><ele>250.25</ele><time>2026-03-29T11:07:35Z</time></trkpt><trkpt lat="43.1449463737667" lon="12.272379354209038"><ele>250.5</ele><time>2026-03-29T11:07:36Z</time></trkpt><trkpt lat="43.144950120149005" lon="12.272575517655444"><ele>250.75</ele><time>2026-03-29T11:07:37Z</time></trkpt><trkpt lat="43.144959381928565" lon="12.272757742579657"><ele>251.0</ele><time>2026-03-29T11:07:38Z</time></trkpt><trkpt lat="43.1449698029481" lon="12.27294143320498"><ele>250.0</ele><time>2026-03-29T11:07:39Z</time></trkpt><trkpt lat="43.14499262511957" lon="12.273154723857857"><ele>249.0</ele><time>2026-03-29T11:07:40Z</time></trkpt><trkpt lat="43.14501995727963" lon="12.273402394770955"><ele>248.0</ele><time>2026-03-29T11:07:41Z</time></trkpt><trkpt lat="43.14504174738497" lon="12.273653044404782"><ele>248.0</ele><time>2026-03-29T11:07:42Z</time></trkpt><trkpt lat="43.145058826984545" lon="12.273861134138471"><ele>248.0</ele><time>2026-03-29T11:07:43Z</time></trkpt><trkpt lat="43.14507416807644" lon="12.274015659678316"><ele>248.0</ele><time>2026-03-29T11:07:44Z</time></trkpt><trkpt lat="43.14509389013505" lon="12.274126030580794"><ele>248.0</ele><time>2026-03-29T11:07:45Z</time></trkpt><trkpt lat="43.14512921321292" lon="12.274211996017941"><ele>248.0</ele><time>2026-03-29T11:07:46Z</time></trkpt><trkpt lat="43.14517629061951" lon="12.27427694526026"><ele>247.2</ele><time>2026-03-29T11:07:47Z</time></trkpt><trkpt lat="43.145234492427754" lon="12.27437133676642"><ele>246.4</ele><time>2026-03-29T11:07:49Z</time></trkpt><trkpt lat="43.14531538072522" lon="12.27448541629817"><ele>245.59999999999997</ele><time>2026-03-29T11:07:52Z</time></trkpt><trkpt lat="43.14536958138231" lon="12.27455011465956"><ele>244.79999999999998</ele><time>2026-03-29T11:07:54Z</time></trkpt><trkpt lat="43.14544138779719" lon="12.274626568523198"><ele>244.0</ele><time>2026-03-29T11:07:57Z</time></trkpt><trkpt lat="43.145521979601845" lon="12.27470055939775"><ele>244.0</ele><time>2026-03-29T11:07:59Z</time></trkpt><trkpt lat="43.145579803818116" lon="12.274745612548896"><ele>244.0</ele><time>2026-03-29T11:08:00Z</time></trkpt><trkpt lat="43.14564359259693" lon="12.274789346240677"><ele>244.0</ele><time>2026-03-29T11:08:01Z</time></trkpt><trkpt lat="43.14689711038119" lon="12.274906731451496"><ele>244.39999999999998</ele><time>2026-03-29T11:08:11.999Z</time></trkpt><trkpt lat="43.146989260764904" lon="12.274899188133979"><ele>244.79999999999998</ele><time>2026-03-29T11:08:12.999Z</time></trkpt><trkpt lat="43.14705853519183" lon="12.274927590096606"><ele>245.20000000000002</ele><time>2026-03-29T11:08:13.999Z</time></trkpt><trkpt lat="43.14714420129561" lon="12.275050497777407"><ele>245.60000000000002</ele><time>2026-03-29T11:08:15.999Z</time></trkpt><trkpt lat="43.147158852018116" lon="12.275178942334872"><ele>246.0</ele><time>2026-03-29T11:08:16.999Z</time></trkpt><trkpt lat="43.14720421093033" lon="12.275281597750935"><ele>246.0</ele><time>2026-03-29T11:08:17.999Z</time></trkpt><trkpt lat="43.14723295295922" lon="12.27537052525626"><ele>246.0</ele><time>2026-03-29T11:08:18.999Z</time></trkpt><trkpt lat="43.14726059955787" lon="12.275460376664602"><ele>246.0</ele><time>2026-03-29T11:08:19.999Z</time></trkpt><trkpt lat="43.147272746179965" lon="12.275556567755704"><ele>246.0</ele><time>2026-03-29T11:08:20.999Z</time></trkpt><trkpt lat="43.147306227981076" lon="12.275650229210985"><ele>246.0</ele><time>2026-03-29T11:08:21.999Z</time></trkpt><trkpt lat="43.14734851776922" lon="12.275761052052644"><ele>246.0</ele><time>2026-03-29T11:08:22.999Z</time></trkpt><trkpt lat="43.14739717980833" lon="12.275924168065787"><ele>245.75</ele><time>2026-03-29T11:08:23.999Z</time></trkpt><trkpt lat="43.147457402082374" lon="12.276114514554152"><ele>245.5</ele><time>2026-03-29T11:08:24.999Z</time></trkpt><trkpt lat="43.14751789799372" lon="12.27630994619725"><ele>245.25</ele><time>2026-03-29T11:08:25.999Z</time></trkpt><trkpt lat="43.147571981839775" lon="12.276484047996883"><ele>245.0</ele><time>2026-03-29T11:08:26.999Z</time></trkpt><trkpt lat="43.14761737359663" lon="12.27663166398803"><ele>245.0</ele><time>2026-03-29T11:08:27.999Z</time></trkpt><trkpt lat="43.147660436285946" lon="12.276760608240211"><ele>245.0</ele><time>2026-03-29T11:08:28.999Z</time></trkpt><trkpt lat="43.14768319761953" lon="12.276849607367494"><ele>245.0</ele><time>2026-03-29T11:08:29.999Z</time></trkpt><trkpt lat="43.14788967935224" lon="12.276923037035937"><ele>245.0</ele><time>2026-03-29T11:08:32.999Z</time></trkpt><trkpt lat="43.14799172497746" lon="12.276960114072903"><ele>245.0</ele><time>2026-03-29T11:08:33.999Z</time></trkpt><trkpt lat="43.14806380028332" lon="12.276959761720272"><ele>245.0</ele><time>2026-03-29T11:08:34.999Z</time></trkpt><trkpt lat="43.14817019172364" lon="12.276981509466736"><ele>245.0</ele><time>2026-03-29T11:08:38.999Z</time></trkpt><trkpt lat="43.14828560098677" lon="12.277052122962465"><ele>245.0</ele><time>2026-03-29T11:08:40.999Z</time></trkpt><trkpt lat="43.14834359346492" lon="12.277124566699126"><ele>245.0</ele><time>2026-03-29T11:08:41.999Z</time></trkpt><trkpt lat="43.14845656773419" lon="12.277218996510307"><ele>245.2</ele><time>2026-03-29T11:08:42.999Z</time></trkpt><trkpt lat="43.14853872064786" lon="12.277271850180602"><ele>245.4</ele><time>2026-03-29T11:08:43.999Z</time></trkpt><trkpt lat="43.148604390636876" lon="12.277320614072078"><ele>245.60000000000002</ele><time>2026-03-29T11:08:44.999Z</time></trkpt><trkpt lat="43.14871443907163" lon="12.277256779349052"><ele>245.8</ele><time>2026-03-29T11:08:45.999Z</time></trkpt><trkpt lat="43.14884512495191" lon="12.277192847131317"><ele>246.0</ele><time>2026-03-29T11:08:46.999Z</time></trkpt><trkpt lat="43.149011796571685" lon="12.277112857050072"><ele>246.66666666666669</ele><time>2026-03-29T11:08:47.999Z</time></trkpt><trkpt lat="43.14918009245448" lon="12.277031792432815"><ele>247.33333333333334</ele><time>2026-03-29T11:08:48.999Z</time></trkpt><trkpt lat="43.149340857128394" lon="12.276953671681005"><ele>248.0</ele><time>2026-03-29T11:08:49.999Z</time></trkpt><trkpt lat="43.149497074661895" lon="12.276875764597655"><ele>248.0</ele><time>2026-03-29T11:08:50.999Z</time></trkpt><trkpt lat="43.14962436077833" lon="12.276810108580927"><ele>248.0</ele><time>2026-03-29T11:08:51.999Z</time></trkpt><trkpt lat="43.149700922634615" lon="12.276770471345783"><ele>248.0</ele><time>2026-03-29T11:08:52.999Z</time></trkpt><trkpt lat="43.149788490469064" lon="12.276725136101946"><ele>248.0</ele><time>2026-03-29T11:08:53.999Z</time></trkpt><trkpt lat="43.14991280038164" lon="12.276660778948976"><ele>248.0</ele><time>2026-03-29T11:08:54.999Z</time></trkpt><trkpt lat="43.15006344730374" lon="12.276582786696006"><ele>248.0</ele><time>2026-03-29T11:08:55.999Z</time></trkpt><trkpt lat="43.15023349002058" lon="12.276494752928297"><ele>248.0</ele><time>2026-03-29T11:08:56.999Z</time></trkpt><trkpt lat="43.15039713556967" lon="12.276405780449702"><ele>248.0</ele><time>2026-03-29T11:08:57.999Z</time></trkpt><trkpt lat="43.150506765506975" lon="12.276343137554727"><ele>247.66666666666669</ele><time>2026-03-29T11:08:58.999Z</time></trkpt><trkpt lat="43.150585967109265" lon="12.276313369185758"><ele>247.33333333333331</ele><time>2026-03-29T11:08:59.999Z</time></trkpt><trkpt lat="43.15065510353678" lon="12.276319642095377"><ele>247.0</ele><time>2026-03-29T11:09:00.999Z</time></trkpt><trkpt lat="43.15111601003706" lon="12.276544676982121"><ele>247.8</ele><time>2026-03-29T11:09:06Z</time></trkpt><trkpt lat="43.15119448528305" lon="12.276598942433617"><ele>248.6</ele><time>2026-03-29T11:09:09Z</time></trkpt><trkpt lat="43.151248319838544" lon="12.276468136406198"><ele>249.40000000000003</ele><time>2026-03-29T11:09:12Z</time></trkpt><trkpt lat="43.151244584609906" lon="12.276349411633523"><ele>250.20000000000002</ele><time>2026-03-29T11:09:14Z</time></trkpt><trkpt lat="43.15129142574064" lon="12.276273688223604"><ele>251.0</ele><time>2026-03-29T11:09:17Z</time></trkpt><trkpt lat="43.15140943764393" lon="12.2762854420209"><ele>251.20000000000002</ele><time>2026-03-29T11:09:25Z</time></trkpt><trkpt lat="43.15147276522315" lon="12.276275260290769"><ele>251.40000000000003</ele><time>2026-03-29T11:09:26Z</time></trkpt><trkpt lat="43.15155632421851" lon="12.276230533083654"><ele>251.6</ele><time>2026-03-29T11:09:27Z</time></trkpt><trkpt lat="43.15165626218713" lon="12.276183913606996"><ele>251.8</ele><time>2026-03-29T11:09:28Z</time></trkpt><trkpt lat="43.151774479484764" lon="12.276127554829364"><ele>252.0</ele><time>2026-03-29T11:09:29Z</time></trkpt><trkpt lat="43.15189672510583" lon="12.27606963433794"><ele>255.25</ele><time>2026-03-29T11:09:30Z</time></trkpt><trkpt lat="43.15203031695642" lon="12.275994155219745"><ele>258.5</ele><time>2026-03-29T11:09:31Z</time></trkpt><trkpt lat="43.15214769446059" lon="12.275907826623328"><ele>261.75</ele><time>2026-03-29T11:09:32Z</time></trkpt><trkpt lat="43.15222728727977" lon="12.27579367963201"><ele>265.0</ele><time>2026-03-29T11:09:33Z</time></trkpt><trkpt lat="43.152276558877425" lon="12.275653626484099"><ele>265.6</ele><time>2026-03-29T11:09:34Z</time></trkpt><trkpt lat="43.15230614591939" lon="12.27549208758515"><ele>266.2</ele><time>2026-03-29T11:09:35Z</time></trkpt><trkpt lat="43.15233763415733" lon="12.27536330537785"><ele>266.8</ele><time>2026-03-29T11:09:36Z</time></trkpt><trkpt lat="43.15238459413855" lon="12.275269023680437"><ele>267.4</ele><time>2026-03-29T11:09:37Z</time></trkpt><trkpt lat="43.152419216337556" lon="12.275188474331948"><ele>268.0</ele><time>2026-03-29T11:09:38Z</time></trkpt><trkpt lat="43.15252339292372" lon="12.275123298089376"><ele>270.5</ele><time>2026-03-29T11:09:40Z</time></trkpt><trkpt lat="43.1526063108074" lon="12.275106354067567"><ele>273.0</ele><time>2026-03-29T11:09:41Z</time></trkpt><trkpt lat="43.152682231856176" lon="12.275094260516624"><ele>275.5</ele><time>2026-03-29T11:09:42Z</time></trkpt><trkpt lat="43.152746052242136" lon="12.27511256111884"><ele>278.0</ele><time>2026-03-29T11:09:43Z</time></trkpt><trkpt lat="43.15286091292798" lon="12.275121964181393"><ele>280.5</ele><time>2026-03-29T11:09:45Z</time></trkpt><trkpt lat="43.15294526790942" lon="12.275081748594763"><ele>283.0</ele><time>2026-03-29T11:09:46Z</time></trkpt><trkpt lat="43.153028655721535" lon="12.275070886248216"><ele>283.0</ele><time>2026-03-29T11:09:47Z</time></trkpt><trkpt lat="43.1531120659953" lon="12.2750639897906"><ele>283.0</ele><time>2026-03-29T11:09:48Z</time></trkpt><trkpt lat="43.153183899207306" lon="12.275017284275378"><ele>283.0</ele><time>2026-03-29T11:09:49Z</time></trkpt><trkpt lat="43.15328631101724" lon="12.275037210152849"><ele>283.0</ele><time>2026-03-29T11:09:51Z</time></trkpt><trkpt lat="43.15339112626764" lon="12.274933252510882"><ele>283.0</ele><time>2026-03-29T11:09:53Z</time></trkpt><trkpt lat="43.15345682628473" lon="12.274863430422833"><ele>287.0</ele><time>2026-03-29T11:09:54Z</time></trkpt><trkpt lat="43.153580009643605" lon="12.274855925956192"><ele>291.0</ele><time>2026-03-29T11:09:56Z</time></trkpt><trkpt lat="43.15364768753458" lon="12.27479332413373"><ele>295.0</ele><time>2026-03-29T11:09:58Z</time></trkpt><trkpt lat="43.15371513245905" lon="12.27474066431954"><ele>299.0</ele><time>2026-03-29T11:10:00Z</time></trkpt><trkpt lat="43.158192175439034" lon="12.274910997224412"><ele>297.6666666666667</ele><time>2026-03-29T11:11:01.999Z</time></trkpt><trkpt lat="43.15824987353226" lon="12.275056453290372"><ele>296.3333333333333</ele><time>2026-03-29T11:11:02.999Z</time></trkpt><trkpt lat="43.15832507683425" lon="12.275234845697875"><ele>295.0</ele><time>2026-03-29T11:11:03.999Z</time></trkpt><trkpt lat="43.15843146881015" lon="12.27544422314283"><ele>293.0</ele><time>2026-03-29T11:11:04.999Z</time></trkpt><trkpt lat="43.1585338083448" lon="12.275621614711596"><ele>291.0</ele><time>2026-03-29T11:11:05.999Z</time></trkpt><trkpt lat="43.15862402980784" lon="12.275772753548909"><ele>289.0</ele><time>2026-03-29T11:11:06.999Z</time></trkpt><trkpt lat="43.15871078467214" lon="12.275911998329967"><ele>287.0</ele><time>2026-03-29T11:11:07.999Z</time></trkpt><trkpt lat="43.158796539426525" lon="12.276036369370823"><ele>287.0</ele><time>2026-03-29T11:11:08.999Z</time></trkpt><trkpt lat="43.15888868375018" lon="12.27614771435739"><ele>287.0</ele><time>2026-03-29T11:11:09.999Z</time></trkpt><trkpt lat="43.15896483012369" lon="12.276250920622793"><ele>287.0</ele><time>2026-03-29T11:11:11Z</time></trkpt><trkpt lat="43.15902914365753" lon="12.276364885777431"><ele>287.0</ele><time>2026-03-29T11:11:12Z</time></trkpt><trkpt lat="43.15907529140771" lon="12.276485828030609"><ele>287.0</ele><time>2026-03-29T11:11:13Z</time></trkpt><trkpt lat="43.159148171258195" lon="12.276586981644485"><ele>286.0</ele><time>2026-03-29T11:11:14Z</time></trkpt><trkpt lat="43.159208723796766" lon="12.276688893859765"><ele>285.0</ele><time>2026-03-29T11:11:15Z</time></trkpt><trkpt lat="43.15927595490581" lon="12.27677714667351"><ele>284.0</ele><time>2026-03-29T11:11:16Z</time></trkpt><trkpt lat="43.15934128159668" lon="12.276854806775056"><ele>283.0</ele><time>2026-03-29T11:11:17Z</time></trkpt><trkpt lat="43.15939847499387" lon="12.27691704180806"><ele>282.0</ele><time>2026-03-29T11:11:18Z</time></trkpt><trkpt lat="43.159529823267334" lon="12.276963517193465"><ele>282.0</ele><time>2026-03-29T11:11:20Z</time></trkpt><trkpt lat="43.159618645454046" lon="12.277007822666157"><ele>282.0</ele><time>2026-03-29T11:11:21Z</time></trkpt><trkpt lat="43.1597047595304" lon="12.277036815815897"><ele>282.0</ele><time>2026-03-29T11:11:22Z</time></trkpt><trkpt lat="43.15976570279499" lon="12.277058683414756"><ele>282.0</ele><time>2026-03-29T11:11:23Z</time></trkpt><trkpt lat="43.159851335406934" lon="12.277091911069865"><ele>282.0</ele><time>2026-03-29T11:11:25Z</time></trkpt><trkpt lat="43.159959075998586" lon="12.276974823433678"><ele>279.75</ele><time>2026-03-29T11:11:26Z</time></trkpt><trkpt lat="43.16008085125793" lon="12.276919888344805"><ele>277.5</ele><time>2026-03-29T11:11:27Z</time></trkpt><trkpt lat="43.16021400068677" lon="12.27685474599543"><ele>275.25</ele><time>2026-03-29T11:11:28Z</time></trkpt><trkpt lat="43.16035742083166" lon="12.276758034418567"><ele>273.0</ele><time>2026-03-29T11:11:29Z</time></trkpt><trkpt lat="43.16051912521008" lon="12.276658073441194"><ele>273.0</ele><time>2026-03-29T11:11:30Z</time></trkpt><trkpt lat="43.16069024388673" lon="12.276554761849017"><ele>273.0</ele><time>2026-03-29T11:11:31Z</time></trkpt><trkpt lat="43.16085061691898" lon="12.276506915669788"><ele>273.0</ele><time>2026-03-29T11:11:32Z</time></trkpt><trkpt lat="43.16096442471691" lon="12.276438101091395"><ele>273.0</ele><time>2026-03-29T11:11:33Z</time></trkpt><trkpt lat="43.161044970568646" lon="12.276373459600952"><ele>273.0</ele><time>2026-03-29T11:11:34Z</time></trkpt><trkpt lat="43.16111171637999" lon="12.27629064895918"><ele>273.0</ele><time>2026-03-29T11:11:35Z</time></trkpt><trkpt lat="43.161160618395975" lon="12.276199616237836"><ele>273.0</ele><time>2026-03-29T11:11:36Z</time></trkpt><trkpt lat="43.16120953559999" lon="12.276119321659161"><ele>273.0</ele><time>2026-03-29T11:11:37Z</time></trkpt><trkpt lat="43.16127746066884" lon="12.276032010612065"><ele>273.0</ele><time>2026-03-29T11:11:39Z</time></trkpt><trkpt lat="43.16136066538995" lon="12.27608233086926"><ele>273.0</ele><time>2026-03-29T11:11:40Z</time></trkpt><trkpt lat="43.16147700671516" lon="12.276108291215827"><ele>273.0</ele><time>2026-03-29T11:11:41Z</time></trkpt><trkpt lat="43.16165926649733" lon="12.276146765367162"><ele>273.0</ele><time>2026-03-29T11:11:42Z</time></trkpt><trkpt lat="43.16186874753052" lon="12.276198898524166"><ele>268.6666666666667</ele><time>2026-03-29T11:11:43Z</time></trkpt><trkpt lat="43.16204971958947" lon="12.27624573507568"><ele>264.33333333333337</ele><time>2026-03-29T11:11:44Z</time></trkpt><trkpt lat="43.162201619362165" lon="12.27624883515668"><ele>260.0</ele><time>2026-03-29T11:11:45Z</time></trkpt><trkpt lat="43.162341230238646" lon="12.27621800939933"><ele>260.0</ele><time>2026-03-29T11:11:46Z</time></trkpt><trkpt lat="43.16250032656426" lon="12.276141206600903"><ele>260.0</ele><time>2026-03-29T11:11:47Z</time></trkpt><trkpt lat="43.16264634569231" lon="12.276051275820858"><ele>260.0</ele><time>2026-03-29T11:11:48Z</time></trkpt><trkpt lat="43.16278211362716" lon="12.275992847565805"><ele>260.0</ele><time>2026-03-29T11:11:49Z</time></trkpt><trkpt lat="43.16291970378156" lon="12.275968921855922"><ele>260.0</ele><time>2026-03-29T11:11:50Z</time></trkpt><trkpt lat="43.163059486200446" lon="12.276001746589346"><ele>260.0</ele><time>2026-03-29T11:11:51Z</time></trkpt><trkpt lat="43.163199584509016" lon="12.276082617816495"><ele>260.0</ele><time>2026-03-29T11:11:52Z</time></trkpt><trkpt lat="43.16335296850522" lon="12.276178432036318"><ele>259.6666666666667</ele><time>2026-03-29T11:11:53Z</time></trkpt><trkpt lat="43.16352089006526" lon="12.276273859796852"><ele>259.3333333333333</ele><time>2026-03-29T11:11:54Z</time></trkpt><trkpt lat="43.16366546872643" lon="12.276397901707009"><ele>259.0</ele><time>2026-03-29T11:11:55Z</time></trkpt><trkpt lat="43.1637679475928" lon="12.276495387245568"><ele>258.5</ele><time>2026-03-29T11:11:56Z</time></trkpt><trkpt lat="43.163826764053965" lon="12.276552032048432"><ele>258.0</ele><time>2026-03-29T11:11:57Z</time></trkpt><trkpt lat="43.163920648018" lon="12.276603025470045"><ele>257.5</ele><time>2026-03-29T11:11:59Z</time></trkpt><trkpt lat="43.16399983093679" lon="12.276708374605837"><ele>257.0</ele><time>2026-03-29T11:12:01Z</time></trkpt><trkpt lat="43.16398709432626" lon="12.278305562589146"><ele>256.33333333333337</ele><time>2026-03-29T11:12:08Z</time></trkpt><trkpt lat="43.164031930978815" lon="12.278527846947048"><ele>255.66666666666669</ele><time>2026-03-29T11:12:09Z</time></trkpt><trkpt lat="43.164081219376186" lon="12.278730258157358"><ele>255.0</ele><time>2026-03-29T11:12:10Z</time></trkpt><trkpt lat="43.16411230139136" lon="12.27890902894415"><ele>254.83333333333334</ele><time>2026-03-29T11:12:11Z</time></trkpt><trkpt lat="43.164112893968955" lon="12.279054845092396"><ele>254.66666666666669</ele><time>2026-03-29T11:12:12Z</time></trkpt><trkpt lat="43.1641224623693" lon="12.279154020092857"><ele>254.5</ele><time>2026-03-29T11:12:14Z</time></trkpt><trkpt lat="43.164215481921374" lon="12.27917066676615"><ele>254.33333333333334</ele><time>2026-03-29T11:12:17.999Z</time></trkpt><trkpt lat="43.16428438796181" lon="12.27918100217187"><ele>254.16666666666669</ele><time>2026-03-29T11:12:18.999Z</time></trkpt><trkpt lat="43.16437254259705" lon="12.279169183645465"><ele>254.0</ele><time>2026-03-29T11:12:19.999Z</time></trkpt><trkpt lat="43.16449523586936" lon="12.279154743116003"><ele>254.0</ele><time>2026-03-29T11:12:20.999Z</time></trkpt><trkpt lat="43.16464707724023" lon="12.279138923661023"><ele>254.0</ele><time>2026-03-29T11:12:21.999Z</time></trkpt><trkpt lat="43.1648242934812" lon="12.279107349881423"><ele>254.0</ele><time>2026-03-29T11:12:22.999Z</time></trkpt><trkpt lat="43.165005186609875" lon="12.27911373704558"><ele>254.0</ele><time>2026-03-29T11:12:23.999Z</time></trkpt><trkpt lat="43.16516416828681" lon="12.279082998371392"><ele>254.0</ele><time>2026-03-29T11:12:24.999Z</time></trkpt><trkpt lat="43.16532400102735" lon="12.278974112918936"><ele>254.0</ele><time>2026-03-29T11:12:25.999Z</time></trkpt><trkpt lat="43.16546068840053" lon="12.278835537868117"><ele>253.79999999999998</ele><time>2026-03-29T11:12:26.999Z</time></trkpt><trkpt lat="43.165593254621704" lon="12.278760245337061"><ele>253.59999999999997</ele><time>2026-03-29T11:12:27.999Z</time></trkpt><trkpt lat="43.16570919374255" lon="12.278720697735857"><ele>253.4</ele><time>2026-03-29T11:12:28.999Z</time></trkpt><trkpt lat="43.16579200927451" lon="12.278697007171568"><ele>253.2</ele><time>2026-03-29T11:12:30.999Z</time></trkpt><trkpt lat="43.16585774343458" lon="12.278663986690699"><ele>253.0</ele><time>2026-03-29T11:12:31.999Z</time></trkpt><trkpt lat="43.1659446301431" lon="12.278639898460996"><ele>253.8</ele><time>2026-03-29T11:12:32.999Z</time></trkpt><trkpt lat="43.16600941701826" lon="12.278640178026192"><ele>254.60000000000002</ele><time>2026-03-29T11:12:33.999Z</time></trkpt><trkpt lat="43.16608089439354" lon="12.27866192519571"><ele>255.39999999999998</ele><time>2026-03-29T11:12:35.999Z</time></trkpt><trkpt lat="43.166143295130155" lon="12.278933950188062"><ele>256.2</ele><time>2026-03-29T11:12:41.999Z</time></trkpt><trkpt lat="43.16615947642854" lon="12.279017781801256"><ele>257.0</ele><time>2026-03-29T11:12:44.999Z</time></trkpt><trkpt lat="43.16610295859799" lon="12.27891791828659"><ele>257.1666666666667</ele><time>2026-03-29T11:12:46.999Z</time></trkpt><trkpt lat="43.166033251498085" lon="12.278852740439094"><ele>257.33333333333337</ele><time>2026-03-29T11:12:47.999Z</time></trkpt><trkpt lat="43.16595194516721" lon="12.27879192914472"><ele>257.5</ele><time>2026-03-29T11:12:48.999Z</time></trkpt><trkpt lat="43.165857923006094" lon="12.278767841527953"><ele>257.6666666666667</ele><time>2026-03-29T11:12:49.999Z</time></trkpt><trkpt lat="43.16577786431397" lon="12.278740018386351"><ele>257.8333333333333</ele><time>2026-03-29T11:12:50.999Z</time></trkpt><trkpt lat="43.1657155498237" lon="12.278695494314489"><ele>258.0</ele><time>2026-03-29T11:12:52.999Z</time></trkpt><trkpt lat="43.16555276708464" lon="12.278710089342688"><ele>257.0</ele><time>2026-03-29T11:12:54.999Z</time></trkpt><trkpt lat="43.16544092044212" lon="12.27877249821287"><ele>256.0</ele><time>2026-03-29T11:12:55.999Z</time></trkpt><trkpt lat="43.16533178940279" lon="12.278888383058025"><ele>255.0</ele><time>2026-03-29T11:12:56.999Z</time></trkpt><trkpt lat="43.16522373027188" lon="12.278980745118162"><ele>254.0</ele><time>2026-03-29T11:12:57.999Z</time></trkpt><trkpt lat="43.16512162343156" lon="12.27903481782041"><ele>254.0</ele><time>2026-03-29T11:12:58.999Z</time></trkpt><trkpt lat="43.16501204393656" lon="12.279067544236662"><ele>254.0</ele><time>2026-03-29T11:12:59.999Z</time></trkpt><trkpt lat="43.164896588701936" lon="12.279088475310155"><ele>254.0</ele><time>2026-03-29T11:13:00.999Z</time></trkpt><trkpt lat="43.16446602780671" lon="12.279105994261435"><ele>254.0</ele><time>2026-03-29T11:13:03.999Z</time></trkpt><trkpt lat="43.164312247255644" lon="12.279129055705653"><ele>254.0</ele><time>2026-03-29T11:13:04.999Z</time></trkpt><trkpt lat="43.164163683214746" lon="12.279161513303317"><ele>254.0</ele><time>2026-03-29T11:13:05.999Z</time></trkpt><trkpt lat="43.1640383940852" lon="12.279203676548686"><ele>254.0</ele><time>2026-03-29T11:13:06.999Z</time></trkpt><trkpt lat="43.16393132539325" lon="12.279241422812216"><ele>253.5</ele><time>2026-03-29T11:13:07.999Z</time></trkpt><trkpt lat="43.16381820771677" lon="12.2792774590788"><ele>253.0</ele><time>2026-03-29T11:13:08.999Z</time></trkpt><trkpt lat="43.16369579383573" lon="12.27931352991503"><ele>252.5</ele><time>2026-03-29T11:13:09.999Z</time></trkpt><trkpt lat="43.16357147729326" lon="12.279375870750572"><ele>252.0</ele><time>2026-03-29T11:13:10.999Z</time></trkpt><trkpt lat="43.16344998062706" lon="12.279487419495863"><ele>252.0</ele><time>2026-03-29T11:13:11.999Z</time></trkpt><trkpt lat="43.16334186860209" lon="12.279641428144188"><ele>252.0</ele><time>2026-03-29T11:13:12.999Z</time></trkpt><trkpt lat="43.16324248691649" lon="12.279831972243011"><ele>252.0</ele><time>2026-03-29T11:13:13.999Z</time></trkpt><trkpt lat="43.163135586681385" lon="12.280043712277754"><ele>251.5</ele><time>2026-03-29T11:13:14.998Z</time></trkpt><trkpt lat="43.16301107690176" lon="12.280282188326483"><ele>251.0</ele><time>2026-03-29T11:13:15.998Z</time></trkpt><trkpt lat="43.162869288233026" lon="12.28054442129831"><ele>250.66666666666669</ele><time>2026-03-29T11:13:17Z</time></trkpt><trkpt lat="43.162741364466044" lon="12.280789381140398"><ele>250.33333333333331</ele><time>2026-03-29T11:13:18Z</time></trkpt><trkpt lat="43.16263064286757" lon="12.281002607041762"><ele>250.0</ele><time>2026-03-29T11:13:19Z</time></trkpt><trkpt lat="43.16253465252141" lon="12.281199767865152"><ele>250.0</ele><time>2026-03-29T11:13:20Z</time></trkpt><trkpt lat="43.162440009903484" lon="12.281375868013074"><ele>250.0</ele><time>2026-03-29T11:13:21Z</time></trkpt><trkpt lat="43.1623538373896" lon="12.281537265919535"><ele>250.0</ele><time>2026-03-29T11:13:22Z</time></trkpt><trkpt lat="43.16227543072036" lon="12.281685640742324"><ele>250.0</ele><time>2026-03-29T11:13:23Z</time></trkpt><trkpt lat="43.16220472217275" lon="12.281826062082644"><ele>250.0</ele><time>2026-03-29T11:13:24Z</time></trkpt><trkpt lat="43.16213324894302" lon="12.281969518930268"><ele>250.0</ele><time>2026-03-29T11:13:25Z</time></trkpt><trkpt lat="43.16205807675517" lon="12.282125933042876"><ele>250.0</ele><time>2026-03-29T11:13:26Z</time></trkpt><trkpt lat="43.16198453259156" lon="12.282276374769644"><ele>250.0</ele><time>2026-03-29T11:13:27Z</time></trkpt><trkpt lat="43.16191440052033" lon="12.282410755011963"><ele>250.2</ele><time>2026-03-29T11:13:28Z</time></trkpt><trkpt lat="43.16184592746408" lon="12.282544750949734"><ele>250.4</ele><time>2026-03-29T11:13:29Z</time></trkpt><trkpt lat="43.16178362812251" lon="12.282662427957048"><ele>250.60000000000002</ele><time>2026-03-29T11:13:30Z</time></trkpt><trkpt lat="43.16173005554674" lon="12.282750256806736"><ele>250.8</ele><time>2026-03-29T11:13:31Z</time></trkpt><trkpt lat="43.16169018062713" lon="12.282819259419844"><ele>251.0</ele><time>2026-03-29T11:13:32Z</time></trkpt><trkpt lat="43.16162903130036" lon="12.282939965724932"><ele>251.0</ele><time>2026-03-29T11:13:34Z</time></trkpt><trkpt lat="43.16154762847336" lon="12.28310064893585"><ele>251.00000000000003</ele><time>2026-03-29T11:13:36Z</time></trkpt><trkpt lat="43.161491942517834" lon="12.283207751982342"><ele>251.00000000000003</ele><time>2026-03-29T11:13:37Z</time></trkpt><trkpt lat="43.161442218613054" lon="12.283304636039489"><ele>251.0</ele><time>2026-03-29T11:13:38Z</time></trkpt><trkpt lat="43.161398057299174" lon="12.283388043813419"><ele>251.0</ele><time>2026-03-29T11:13:39Z</time></trkpt><trkpt lat="43.16135972464274" lon="12.283459295614431"><ele>250.66666666666669</ele><time>2026-03-29T11:13:40Z</time></trkpt><trkpt lat="43.16129696087463" lon="12.28357595941457"><ele>250.33333333333331</ele><time>2026-03-29T11:13:42Z</time></trkpt><trkpt lat="43.16103772479743" lon="12.283447128059786"><ele>250.0</ele><time>2026-03-29T11:13:45Z</time></trkpt><trkpt lat="43.16116425552651" lon="12.28345131508572"><ele>250.0</ele><time>2026-03-29T11:14:01Z</time></trkpt><trkpt lat="43.16116425552651" lon="12.28345131508572"><ele>250.0</ele><time>2026-03-29T11:14:01Z</time></trkpt><trkpt lat="43.16116425552651" lon="12.28345131508572"><ele>250.0</ele><time>2026-03-29T11:14:01Z</time></trkpt><trkpt lat="43.16116425552651" lon="12.28345131508572"><ele>250.0</ele><time>2026-03-29T11:14:01Z</time></trkpt><trkpt lat="43.16116425552651" lon="12.28345131508572"><ele>250.0</ele><time>2026-03-29T11:14:01Z</time></trkpt><trkpt lat="43.16116425552651" lon="12.28345131508572"><ele>250.0</ele><time>2026-03-29T11:14:01Z</time></trkpt><trkpt lat="43.16116425552651" lon="12.28345131508572"><ele>250.0</ele><time>2026-03-29T11:14:01Z</time></trkpt></trkseg></trk></gpx>